<?xml version="1.0" encoding="UTF-8" standalone="no" ?>
<gpx xmlns="http://www.topografix.com/GPX/1/1" xmlns:xsi="http://www.w3.org/2001/XMLSchema-instance" xsi:schemaLocation="http://www.topografix.com/GPX/1/1 http://www.topografix.com/GPX/1/1/gpx.xsd" version="1.1" creator="VisuGPX - https://www.visugpx.com">
  <metadata>
    <name>NE-SE-St Aignan Pont St Martin Vertou Basse Goulaine La Varenne Oudon Mauves Thouaré Nantes</name>
    <desc><![CDATA[NE-SE-St Aignan Pont St Martin Vertou Basse Goulaine La Varenne Oudon Mauves Thouaré Nantes]]></desc>
  </metadata>
  <trk>
    <name><![CDATA[2022-07-24 08:40 GMT+2]]></name>
    <trkseg>
      <trkpt lat="47.16771" lon="-1.62648">
        <ele>82</ele>
        <time>2022-07-24T06:40:22.007Z</time>
      </trkpt>
      <trkpt lat="47.16792" lon="-1.62679">
        <ele>89</ele>
        <time>2022-07-24T06:40:22.969Z</time>
      </trkpt>
      <trkpt lat="47.16813" lon="-1.62697">
        <ele>111</ele>
        <time>2022-07-24T06:40:24.964Z</time>
      </trkpt>
      <trkpt lat="47.16784" lon="-1.62661">
        <ele>81</ele>
        <time>2022-07-24T06:40:27Z</time>
      </trkpt>
      <trkpt lat="47.16777" lon="-1.62674">
        <ele>76</ele>
        <time>2022-07-24T06:41:42Z</time>
      </trkpt>
      <trkpt lat="47.16763" lon="-1.62676">
        <ele>74</ele>
        <time>2022-07-24T06:41:45Z</time>
      </trkpt>
      <trkpt lat="47.1675" lon="-1.62673">
        <ele>73</ele>
        <time>2022-07-24T06:41:48Z</time>
      </trkpt>
      <trkpt lat="47.16739" lon="-1.6268">
        <ele>72</ele>
        <time>2022-07-24T06:41:50Z</time>
      </trkpt>
      <trkpt lat="47.1673" lon="-1.62687">
        <ele>72</ele>
        <time>2022-07-24T06:41:52Z</time>
      </trkpt>
      <trkpt lat="47.16721" lon="-1.62694">
        <ele>72</ele>
        <time>2022-07-24T06:41:54Z</time>
      </trkpt>
      <trkpt lat="47.16709" lon="-1.62688">
        <ele>72</ele>
        <time>2022-07-24T06:41:57Z</time>
      </trkpt>
      <trkpt lat="47.16703" lon="-1.62672">
        <ele>72</ele>
        <time>2022-07-24T06:41:59Z</time>
      </trkpt>
      <trkpt lat="47.16699" lon="-1.62654">
        <ele>71</ele>
        <time>2022-07-24T06:42:01Z</time>
      </trkpt>
      <trkpt lat="47.16697" lon="-1.62636">
        <ele>71</ele>
        <time>2022-07-24T06:42:03Z</time>
      </trkpt>
      <trkpt lat="47.16696" lon="-1.62617">
        <ele>71</ele>
        <time>2022-07-24T06:42:05Z</time>
      </trkpt>
      <trkpt lat="47.16696" lon="-1.62598">
        <ele>71</ele>
        <time>2022-07-24T06:42:07Z</time>
      </trkpt>
      <trkpt lat="47.16697" lon="-1.62578">
        <ele>71</ele>
        <time>2022-07-24T06:42:09Z</time>
      </trkpt>
      <trkpt lat="47.16699" lon="-1.62558">
        <ele>71</ele>
        <time>2022-07-24T06:42:11Z</time>
      </trkpt>
      <trkpt lat="47.16701" lon="-1.62538">
        <ele>70</ele>
        <time>2022-07-24T06:42:13Z</time>
      </trkpt>
      <trkpt lat="47.16704" lon="-1.62518">
        <ele>70</ele>
        <time>2022-07-24T06:42:15Z</time>
      </trkpt>
      <trkpt lat="47.16707" lon="-1.62499">
        <ele>70</ele>
        <time>2022-07-24T06:42:17Z</time>
      </trkpt>
      <trkpt lat="47.1671" lon="-1.6248">
        <ele>71</ele>
        <time>2022-07-24T06:42:19Z</time>
      </trkpt>
      <trkpt lat="47.16713" lon="-1.62462">
        <ele>71</ele>
        <time>2022-07-24T06:42:21Z</time>
      </trkpt>
      <trkpt lat="47.16715" lon="-1.62445">
        <ele>72</ele>
        <time>2022-07-24T06:42:23Z</time>
      </trkpt>
      <trkpt lat="47.16718" lon="-1.62429">
        <ele>73</ele>
        <time>2022-07-24T06:42:25Z</time>
      </trkpt>
      <trkpt lat="47.16723" lon="-1.62415">
        <ele>73</ele>
        <time>2022-07-24T06:42:27Z</time>
      </trkpt>
      <trkpt lat="47.16719" lon="-1.62403">
        <ele>73</ele>
        <time>2022-07-24T06:42:29Z</time>
      </trkpt>
      <trkpt lat="47.16711" lon="-1.6239">
        <ele>73</ele>
        <time>2022-07-24T06:42:31Z</time>
      </trkpt>
      <trkpt lat="47.16702" lon="-1.62376">
        <ele>73</ele>
        <time>2022-07-24T06:42:33Z</time>
      </trkpt>
      <trkpt lat="47.16692" lon="-1.62365">
        <ele>73</ele>
        <time>2022-07-24T06:42:35Z</time>
      </trkpt>
      <trkpt lat="47.16681" lon="-1.62361">
        <ele>73</ele>
        <time>2022-07-24T06:42:37Z</time>
      </trkpt>
      <trkpt lat="47.16668" lon="-1.62361">
        <ele>73</ele>
        <time>2022-07-24T06:42:39Z</time>
      </trkpt>
      <trkpt lat="47.16656" lon="-1.62366">
        <ele>73</ele>
        <time>2022-07-24T06:42:41Z</time>
      </trkpt>
      <trkpt lat="47.16645" lon="-1.62374">
        <ele>72</ele>
        <time>2022-07-24T06:42:43Z</time>
      </trkpt>
      <trkpt lat="47.16633" lon="-1.62386">
        <ele>72</ele>
        <time>2022-07-24T06:42:45Z</time>
      </trkpt>
      <trkpt lat="47.16624" lon="-1.62398">
        <ele>71</ele>
        <time>2022-07-24T06:42:47Z</time>
      </trkpt>
      <trkpt lat="47.16615" lon="-1.62412">
        <ele>71</ele>
        <time>2022-07-24T06:42:49Z</time>
      </trkpt>
      <trkpt lat="47.16607" lon="-1.62427">
        <ele>71</ele>
        <time>2022-07-24T06:42:51Z</time>
      </trkpt>
      <trkpt lat="47.166" lon="-1.62442">
        <ele>71</ele>
        <time>2022-07-24T06:42:53Z</time>
      </trkpt>
      <trkpt lat="47.16593" lon="-1.62458">
        <ele>71</ele>
        <time>2022-07-24T06:42:55Z</time>
      </trkpt>
      <trkpt lat="47.16586" lon="-1.62473">
        <ele>71</ele>
        <time>2022-07-24T06:42:57Z</time>
      </trkpt>
      <trkpt lat="47.1658" lon="-1.62488">
        <ele>72</ele>
        <time>2022-07-24T06:42:59Z</time>
      </trkpt>
      <trkpt lat="47.16574" lon="-1.62505">
        <ele>72</ele>
        <time>2022-07-24T06:43:01Z</time>
      </trkpt>
      <trkpt lat="47.16568" lon="-1.6252">
        <ele>73</ele>
        <time>2022-07-24T06:43:03Z</time>
      </trkpt>
      <trkpt lat="47.16561" lon="-1.62535">
        <ele>73</ele>
        <time>2022-07-24T06:43:05Z</time>
      </trkpt>
      <trkpt lat="47.16553" lon="-1.62547">
        <ele>73</ele>
        <time>2022-07-24T06:43:07Z</time>
      </trkpt>
      <trkpt lat="47.16543" lon="-1.62558">
        <ele>73</ele>
        <time>2022-07-24T06:43:09Z</time>
      </trkpt>
      <trkpt lat="47.16532" lon="-1.62566">
        <ele>73</ele>
        <time>2022-07-24T06:43:11Z</time>
      </trkpt>
      <trkpt lat="47.16519" lon="-1.62566">
        <ele>73</ele>
        <time>2022-07-24T06:43:13Z</time>
      </trkpt>
      <trkpt lat="47.16507" lon="-1.62561">
        <ele>74</ele>
        <time>2022-07-24T06:43:15Z</time>
      </trkpt>
      <trkpt lat="47.16495" lon="-1.62558">
        <ele>74</ele>
        <time>2022-07-24T06:43:17Z</time>
      </trkpt>
      <trkpt lat="47.16484" lon="-1.62554">
        <ele>75</ele>
        <time>2022-07-24T06:43:19Z</time>
      </trkpt>
      <trkpt lat="47.16473" lon="-1.62549">
        <ele>75</ele>
        <time>2022-07-24T06:43:21Z</time>
      </trkpt>
      <trkpt lat="47.16461" lon="-1.62546">
        <ele>75</ele>
        <time>2022-07-24T06:43:23Z</time>
      </trkpt>
      <trkpt lat="47.1645" lon="-1.62543">
        <ele>75</ele>
        <time>2022-07-24T06:43:25Z</time>
      </trkpt>
      <trkpt lat="47.16439" lon="-1.6254">
        <ele>75</ele>
        <time>2022-07-24T06:43:27Z</time>
      </trkpt>
      <trkpt lat="47.16427" lon="-1.62546">
        <ele>75</ele>
        <time>2022-07-24T06:43:29Z</time>
      </trkpt>
      <trkpt lat="47.16417" lon="-1.62556">
        <ele>75</ele>
        <time>2022-07-24T06:43:31Z</time>
      </trkpt>
      <trkpt lat="47.16407" lon="-1.62566">
        <ele>75</ele>
        <time>2022-07-24T06:43:33Z</time>
      </trkpt>
      <trkpt lat="47.16396" lon="-1.62576">
        <ele>74</ele>
        <time>2022-07-24T06:43:35Z</time>
      </trkpt>
      <trkpt lat="47.16384" lon="-1.62582">
        <ele>74</ele>
        <time>2022-07-24T06:43:37Z</time>
      </trkpt>
      <trkpt lat="47.16371" lon="-1.62584">
        <ele>73</ele>
        <time>2022-07-24T06:43:39Z</time>
      </trkpt>
      <trkpt lat="47.16358" lon="-1.62582">
        <ele>73</ele>
        <time>2022-07-24T06:43:41Z</time>
      </trkpt>
      <trkpt lat="47.16345" lon="-1.6258">
        <ele>73</ele>
        <time>2022-07-24T06:43:43Z</time>
      </trkpt>
      <trkpt lat="47.16333" lon="-1.62575">
        <ele>74</ele>
        <time>2022-07-24T06:43:45Z</time>
      </trkpt>
      <trkpt lat="47.1632" lon="-1.62571">
        <ele>74</ele>
        <time>2022-07-24T06:43:47Z</time>
      </trkpt>
      <trkpt lat="47.16306" lon="-1.62572">
        <ele>75</ele>
        <time>2022-07-24T06:43:49Z</time>
      </trkpt>
      <trkpt lat="47.16295" lon="-1.62582">
        <ele>75</ele>
        <time>2022-07-24T06:43:51Z</time>
      </trkpt>
      <trkpt lat="47.16287" lon="-1.62596">
        <ele>75</ele>
        <time>2022-07-24T06:43:53Z</time>
      </trkpt>
      <trkpt lat="47.16283" lon="-1.62614">
        <ele>74</ele>
        <time>2022-07-24T06:43:55Z</time>
      </trkpt>
      <trkpt lat="47.16279" lon="-1.62633">
        <ele>73</ele>
        <time>2022-07-24T06:43:57Z</time>
      </trkpt>
      <trkpt lat="47.16277" lon="-1.62652">
        <ele>73</ele>
        <time>2022-07-24T06:43:59Z</time>
      </trkpt>
      <trkpt lat="47.16276" lon="-1.62671">
        <ele>73</ele>
        <time>2022-07-24T06:44:01Z</time>
      </trkpt>
      <trkpt lat="47.16276" lon="-1.62689">
        <ele>73</ele>
        <time>2022-07-24T06:44:03Z</time>
      </trkpt>
      <trkpt lat="47.16277" lon="-1.62706">
        <ele>73</ele>
        <time>2022-07-24T06:44:05Z</time>
      </trkpt>
      <trkpt lat="47.1628" lon="-1.62721">
        <ele>73</ele>
        <time>2022-07-24T06:44:07Z</time>
      </trkpt>
      <trkpt lat="47.16281" lon="-1.62734">
        <ele>73</ele>
        <time>2022-07-24T06:44:09Z</time>
      </trkpt>
      <trkpt lat="47.16272" lon="-1.62738">
        <ele>73</ele>
        <time>2022-07-24T06:44:11Z</time>
      </trkpt>
      <trkpt lat="47.1626" lon="-1.62741">
        <ele>73</ele>
        <time>2022-07-24T06:44:13Z</time>
      </trkpt>
      <trkpt lat="47.16248" lon="-1.62748">
        <ele>72</ele>
        <time>2022-07-24T06:44:15Z</time>
      </trkpt>
      <trkpt lat="47.16234" lon="-1.62755">
        <ele>71</ele>
        <time>2022-07-24T06:44:17Z</time>
      </trkpt>
      <trkpt lat="47.1622" lon="-1.62761">
        <ele>71</ele>
        <time>2022-07-24T06:44:19Z</time>
      </trkpt>
      <trkpt lat="47.16206" lon="-1.6277">
        <ele>70</ele>
        <time>2022-07-24T06:44:21Z</time>
      </trkpt>
      <trkpt lat="47.16192" lon="-1.62781">
        <ele>69</ele>
        <time>2022-07-24T06:44:23Z</time>
      </trkpt>
      <trkpt lat="47.16178" lon="-1.62793">
        <ele>68</ele>
        <time>2022-07-24T06:44:25Z</time>
      </trkpt>
      <trkpt lat="47.16164" lon="-1.62805">
        <ele>68</ele>
        <time>2022-07-24T06:44:27Z</time>
      </trkpt>
      <trkpt lat="47.1615" lon="-1.62817">
        <ele>68</ele>
        <time>2022-07-24T06:44:29Z</time>
      </trkpt>
      <trkpt lat="47.16136" lon="-1.62829">
        <ele>68</ele>
        <time>2022-07-24T06:44:31Z</time>
      </trkpt>
      <trkpt lat="47.16122" lon="-1.62842">
        <ele>67</ele>
        <time>2022-07-24T06:44:33Z</time>
      </trkpt>
      <trkpt lat="47.16109" lon="-1.62853">
        <ele>67</ele>
        <time>2022-07-24T06:44:35Z</time>
      </trkpt>
      <trkpt lat="47.16096" lon="-1.62865">
        <ele>66</ele>
        <time>2022-07-24T06:44:37Z</time>
      </trkpt>
      <trkpt lat="47.16082" lon="-1.62877">
        <ele>66</ele>
        <time>2022-07-24T06:44:39Z</time>
      </trkpt>
      <trkpt lat="47.16068" lon="-1.62889">
        <ele>65</ele>
        <time>2022-07-24T06:44:41Z</time>
      </trkpt>
      <trkpt lat="47.16053" lon="-1.62902">
        <ele>64</ele>
        <time>2022-07-24T06:44:43Z</time>
      </trkpt>
      <trkpt lat="47.16039" lon="-1.62915">
        <ele>64</ele>
        <time>2022-07-24T06:44:45Z</time>
      </trkpt>
      <trkpt lat="47.16024" lon="-1.62927">
        <ele>63</ele>
        <time>2022-07-24T06:44:47Z</time>
      </trkpt>
      <trkpt lat="47.16009" lon="-1.6294">
        <ele>62</ele>
        <time>2022-07-24T06:44:49Z</time>
      </trkpt>
      <trkpt lat="47.15993" lon="-1.62954">
        <ele>61</ele>
        <time>2022-07-24T06:44:51Z</time>
      </trkpt>
      <trkpt lat="47.15978" lon="-1.62968">
        <ele>61</ele>
        <time>2022-07-24T06:44:53Z</time>
      </trkpt>
      <trkpt lat="47.1597" lon="-1.62975">
        <ele>61</ele>
        <time>2022-07-24T06:44:54Z</time>
      </trkpt>
      <trkpt lat="47.15955" lon="-1.62988">
        <ele>60</ele>
        <time>2022-07-24T06:44:56Z</time>
      </trkpt>
      <trkpt lat="47.15947" lon="-1.62996">
        <ele>59</ele>
        <time>2022-07-24T06:44:57Z</time>
      </trkpt>
      <trkpt lat="47.15931" lon="-1.63009">
        <ele>59</ele>
        <time>2022-07-24T06:44:59Z</time>
      </trkpt>
      <trkpt lat="47.15923" lon="-1.63016">
        <ele>59</ele>
        <time>2022-07-24T06:45:00Z</time>
      </trkpt>
      <trkpt lat="47.15908" lon="-1.6303">
        <ele>58</ele>
        <time>2022-07-24T06:45:02Z</time>
      </trkpt>
      <trkpt lat="47.15893" lon="-1.63043">
        <ele>58</ele>
        <time>2022-07-24T06:45:04Z</time>
      </trkpt>
      <trkpt lat="47.15878" lon="-1.63055">
        <ele>58</ele>
        <time>2022-07-24T06:45:06Z</time>
      </trkpt>
      <trkpt lat="47.15864" lon="-1.63068">
        <ele>59</ele>
        <time>2022-07-24T06:45:08Z</time>
      </trkpt>
      <trkpt lat="47.15851" lon="-1.6308">
        <ele>59</ele>
        <time>2022-07-24T06:45:10Z</time>
      </trkpt>
      <trkpt lat="47.15839" lon="-1.6309">
        <ele>60</ele>
        <time>2022-07-24T06:45:12Z</time>
      </trkpt>
      <trkpt lat="47.15827" lon="-1.63101">
        <ele>60</ele>
        <time>2022-07-24T06:45:14Z</time>
      </trkpt>
      <trkpt lat="47.15816" lon="-1.63111">
        <ele>61</ele>
        <time>2022-07-24T06:45:16Z</time>
      </trkpt>
      <trkpt lat="47.15804" lon="-1.63122">
        <ele>61</ele>
        <time>2022-07-24T06:45:18Z</time>
      </trkpt>
      <trkpt lat="47.15793" lon="-1.63132">
        <ele>61</ele>
        <time>2022-07-24T06:45:20Z</time>
      </trkpt>
      <trkpt lat="47.15782" lon="-1.63142">
        <ele>62</ele>
        <time>2022-07-24T06:45:22Z</time>
      </trkpt>
      <trkpt lat="47.1577" lon="-1.63152">
        <ele>62</ele>
        <time>2022-07-24T06:45:24Z</time>
      </trkpt>
      <trkpt lat="47.15759" lon="-1.63163">
        <ele>62</ele>
        <time>2022-07-24T06:45:26Z</time>
      </trkpt>
      <trkpt lat="47.15747" lon="-1.63173">
        <ele>62</ele>
        <time>2022-07-24T06:45:28Z</time>
      </trkpt>
      <trkpt lat="47.15735" lon="-1.63183">
        <ele>63</ele>
        <time>2022-07-24T06:45:30Z</time>
      </trkpt>
      <trkpt lat="47.15723" lon="-1.63194">
        <ele>63</ele>
        <time>2022-07-24T06:45:32Z</time>
      </trkpt>
      <trkpt lat="47.15711" lon="-1.63204">
        <ele>63</ele>
        <time>2022-07-24T06:45:34Z</time>
      </trkpt>
      <trkpt lat="47.15699" lon="-1.63215">
        <ele>62</ele>
        <time>2022-07-24T06:45:36Z</time>
      </trkpt>
      <trkpt lat="47.15687" lon="-1.63226">
        <ele>62</ele>
        <time>2022-07-24T06:45:38Z</time>
      </trkpt>
      <trkpt lat="47.15674" lon="-1.63237">
        <ele>63</ele>
        <time>2022-07-24T06:45:40Z</time>
      </trkpt>
      <trkpt lat="47.15662" lon="-1.63248">
        <ele>63</ele>
        <time>2022-07-24T06:45:42Z</time>
      </trkpt>
      <trkpt lat="47.15649" lon="-1.63258">
        <ele>63</ele>
        <time>2022-07-24T06:45:44Z</time>
      </trkpt>
      <trkpt lat="47.15637" lon="-1.63269">
        <ele>63</ele>
        <time>2022-07-24T06:45:46Z</time>
      </trkpt>
      <trkpt lat="47.15624" lon="-1.63281">
        <ele>63</ele>
        <time>2022-07-24T06:45:48Z</time>
      </trkpt>
      <trkpt lat="47.15612" lon="-1.63292">
        <ele>63</ele>
        <time>2022-07-24T06:45:50Z</time>
      </trkpt>
      <trkpt lat="47.156" lon="-1.63303">
        <ele>63</ele>
        <time>2022-07-24T06:45:52Z</time>
      </trkpt>
      <trkpt lat="47.15587" lon="-1.63314">
        <ele>64</ele>
        <time>2022-07-24T06:45:54Z</time>
      </trkpt>
      <trkpt lat="47.15575" lon="-1.63325">
        <ele>64</ele>
        <time>2022-07-24T06:45:56Z</time>
      </trkpt>
      <trkpt lat="47.15564" lon="-1.63335">
        <ele>64</ele>
        <time>2022-07-24T06:45:58Z</time>
      </trkpt>
      <trkpt lat="47.15553" lon="-1.63345">
        <ele>64</ele>
        <time>2022-07-24T06:46:00Z</time>
      </trkpt>
      <trkpt lat="47.15542" lon="-1.63355">
        <ele>65</ele>
        <time>2022-07-24T06:46:02Z</time>
      </trkpt>
      <trkpt lat="47.15531" lon="-1.63364">
        <ele>65</ele>
        <time>2022-07-24T06:46:04Z</time>
      </trkpt>
      <trkpt lat="47.1552" lon="-1.63373">
        <ele>66</ele>
        <time>2022-07-24T06:46:06Z</time>
      </trkpt>
      <trkpt lat="47.1551" lon="-1.63383">
        <ele>66</ele>
        <time>2022-07-24T06:46:08Z</time>
      </trkpt>
      <trkpt lat="47.155" lon="-1.63392">
        <ele>67</ele>
        <time>2022-07-24T06:46:10Z</time>
      </trkpt>
      <trkpt lat="47.15489" lon="-1.63402">
        <ele>67</ele>
        <time>2022-07-24T06:46:12Z</time>
      </trkpt>
      <trkpt lat="47.15479" lon="-1.63411">
        <ele>67</ele>
        <time>2022-07-24T06:46:14Z</time>
      </trkpt>
      <trkpt lat="47.15468" lon="-1.63421">
        <ele>68</ele>
        <time>2022-07-24T06:46:16Z</time>
      </trkpt>
      <trkpt lat="47.15458" lon="-1.63431">
        <ele>68</ele>
        <time>2022-07-24T06:46:18Z</time>
      </trkpt>
      <trkpt lat="47.15448" lon="-1.6344">
        <ele>69</ele>
        <time>2022-07-24T06:46:20Z</time>
      </trkpt>
      <trkpt lat="47.15437" lon="-1.63449">
        <ele>69</ele>
        <time>2022-07-24T06:46:22Z</time>
      </trkpt>
      <trkpt lat="47.15428" lon="-1.63459">
        <ele>70</ele>
        <time>2022-07-24T06:46:24Z</time>
      </trkpt>
      <trkpt lat="47.15417" lon="-1.63468">
        <ele>70</ele>
        <time>2022-07-24T06:46:26Z</time>
      </trkpt>
      <trkpt lat="47.15408" lon="-1.63478">
        <ele>70</ele>
        <time>2022-07-24T06:46:28Z</time>
      </trkpt>
      <trkpt lat="47.15399" lon="-1.6349">
        <ele>70</ele>
        <time>2022-07-24T06:46:30Z</time>
      </trkpt>
      <trkpt lat="47.1539" lon="-1.635">
        <ele>71</ele>
        <time>2022-07-24T06:46:32Z</time>
      </trkpt>
      <trkpt lat="47.15381" lon="-1.63509">
        <ele>71</ele>
        <time>2022-07-24T06:46:34Z</time>
      </trkpt>
      <trkpt lat="47.1537" lon="-1.63513">
        <ele>72</ele>
        <time>2022-07-24T06:46:36Z</time>
      </trkpt>
      <trkpt lat="47.1536" lon="-1.63521">
        <ele>72</ele>
        <time>2022-07-24T06:46:38Z</time>
      </trkpt>
      <trkpt lat="47.1535" lon="-1.63531">
        <ele>73</ele>
        <time>2022-07-24T06:46:40Z</time>
      </trkpt>
      <trkpt lat="47.1534" lon="-1.63541">
        <ele>73</ele>
        <time>2022-07-24T06:46:42Z</time>
      </trkpt>
      <trkpt lat="47.15329" lon="-1.6355">
        <ele>73</ele>
        <time>2022-07-24T06:46:44Z</time>
      </trkpt>
      <trkpt lat="47.15318" lon="-1.63558">
        <ele>73</ele>
        <time>2022-07-24T06:46:46Z</time>
      </trkpt>
      <trkpt lat="47.15306" lon="-1.63565">
        <ele>73</ele>
        <time>2022-07-24T06:46:48Z</time>
      </trkpt>
      <trkpt lat="47.15296" lon="-1.63576">
        <ele>72</ele>
        <time>2022-07-24T06:46:50Z</time>
      </trkpt>
      <trkpt lat="47.15285" lon="-1.63587">
        <ele>72</ele>
        <time>2022-07-24T06:46:52Z</time>
      </trkpt>
      <trkpt lat="47.15273" lon="-1.63597">
        <ele>71</ele>
        <time>2022-07-24T06:46:54Z</time>
      </trkpt>
      <trkpt lat="47.15262" lon="-1.63607">
        <ele>71</ele>
        <time>2022-07-24T06:46:56Z</time>
      </trkpt>
      <trkpt lat="47.1525" lon="-1.63617">
        <ele>70</ele>
        <time>2022-07-24T06:46:58Z</time>
      </trkpt>
      <trkpt lat="47.15238" lon="-1.63627">
        <ele>70</ele>
        <time>2022-07-24T06:47:00Z</time>
      </trkpt>
      <trkpt lat="47.15227" lon="-1.63637">
        <ele>70</ele>
        <time>2022-07-24T06:47:02Z</time>
      </trkpt>
      <trkpt lat="47.15215" lon="-1.63646">
        <ele>69</ele>
        <time>2022-07-24T06:47:04Z</time>
      </trkpt>
      <trkpt lat="47.15203" lon="-1.63655">
        <ele>69</ele>
        <time>2022-07-24T06:47:06Z</time>
      </trkpt>
      <trkpt lat="47.15192" lon="-1.63665">
        <ele>69</ele>
        <time>2022-07-24T06:47:08Z</time>
      </trkpt>
      <trkpt lat="47.1518" lon="-1.63676">
        <ele>69</ele>
        <time>2022-07-24T06:47:10Z</time>
      </trkpt>
      <trkpt lat="47.15168" lon="-1.63686">
        <ele>69</ele>
        <time>2022-07-24T06:47:12Z</time>
      </trkpt>
      <trkpt lat="47.15157" lon="-1.63697">
        <ele>69</ele>
        <time>2022-07-24T06:47:14Z</time>
      </trkpt>
      <trkpt lat="47.15145" lon="-1.63707">
        <ele>69</ele>
        <time>2022-07-24T06:47:16Z</time>
      </trkpt>
      <trkpt lat="47.15134" lon="-1.63718">
        <ele>69</ele>
        <time>2022-07-24T06:47:18Z</time>
      </trkpt>
      <trkpt lat="47.15123" lon="-1.63729">
        <ele>69</ele>
        <time>2022-07-24T06:47:20Z</time>
      </trkpt>
      <trkpt lat="47.15112" lon="-1.63741">
        <ele>69</ele>
        <time>2022-07-24T06:47:22Z</time>
      </trkpt>
      <trkpt lat="47.151" lon="-1.63753">
        <ele>69</ele>
        <time>2022-07-24T06:47:24Z</time>
      </trkpt>
      <trkpt lat="47.1509" lon="-1.63766">
        <ele>69</ele>
        <time>2022-07-24T06:47:26Z</time>
      </trkpt>
      <trkpt lat="47.15079" lon="-1.63778">
        <ele>69</ele>
        <time>2022-07-24T06:47:28Z</time>
      </trkpt>
      <trkpt lat="47.15069" lon="-1.63791">
        <ele>69</ele>
        <time>2022-07-24T06:47:30Z</time>
      </trkpt>
      <trkpt lat="47.15058" lon="-1.63804">
        <ele>69</ele>
        <time>2022-07-24T06:47:32Z</time>
      </trkpt>
      <trkpt lat="47.15048" lon="-1.63817">
        <ele>69</ele>
        <time>2022-07-24T06:47:34Z</time>
      </trkpt>
      <trkpt lat="47.15039" lon="-1.63831">
        <ele>69</ele>
        <time>2022-07-24T06:47:36Z</time>
      </trkpt>
      <trkpt lat="47.15029" lon="-1.63844">
        <ele>69</ele>
        <time>2022-07-24T06:47:38Z</time>
      </trkpt>
      <trkpt lat="47.1502" lon="-1.63858">
        <ele>69</ele>
        <time>2022-07-24T06:47:40Z</time>
      </trkpt>
      <trkpt lat="47.15011" lon="-1.63872">
        <ele>69</ele>
        <time>2022-07-24T06:47:42Z</time>
      </trkpt>
      <trkpt lat="47.15002" lon="-1.63886">
        <ele>69</ele>
        <time>2022-07-24T06:47:44Z</time>
      </trkpt>
      <trkpt lat="47.14992" lon="-1.63901">
        <ele>69</ele>
        <time>2022-07-24T06:47:46Z</time>
      </trkpt>
      <trkpt lat="47.14983" lon="-1.63916">
        <ele>69</ele>
        <time>2022-07-24T06:47:48Z</time>
      </trkpt>
      <trkpt lat="47.14974" lon="-1.6393">
        <ele>69</ele>
        <time>2022-07-24T06:47:50Z</time>
      </trkpt>
      <trkpt lat="47.14966" lon="-1.63944">
        <ele>69</ele>
        <time>2022-07-24T06:47:52Z</time>
      </trkpt>
      <trkpt lat="47.14957" lon="-1.63958">
        <ele>69</ele>
        <time>2022-07-24T06:47:54Z</time>
      </trkpt>
      <trkpt lat="47.1495" lon="-1.63972">
        <ele>69</ele>
        <time>2022-07-24T06:47:56Z</time>
      </trkpt>
      <trkpt lat="47.14941" lon="-1.6398">
        <ele>70</ele>
        <time>2022-07-24T06:47:58Z</time>
      </trkpt>
      <trkpt lat="47.14932" lon="-1.63992">
        <ele>70</ele>
        <time>2022-07-24T06:48:00Z</time>
      </trkpt>
      <trkpt lat="47.14924" lon="-1.64004">
        <ele>70</ele>
        <time>2022-07-24T06:48:02Z</time>
      </trkpt>
      <trkpt lat="47.14915" lon="-1.64018">
        <ele>70</ele>
        <time>2022-07-24T06:48:04Z</time>
      </trkpt>
      <trkpt lat="47.14908" lon="-1.64032">
        <ele>71</ele>
        <time>2022-07-24T06:48:06Z</time>
      </trkpt>
      <trkpt lat="47.14898" lon="-1.64042">
        <ele>71</ele>
        <time>2022-07-24T06:48:08Z</time>
      </trkpt>
      <trkpt lat="47.14885" lon="-1.64039">
        <ele>70</ele>
        <time>2022-07-24T06:48:10Z</time>
      </trkpt>
      <trkpt lat="47.14875" lon="-1.64026">
        <ele>71</ele>
        <time>2022-07-24T06:48:12Z</time>
      </trkpt>
      <trkpt lat="47.14867" lon="-1.64011">
        <ele>72</ele>
        <time>2022-07-24T06:48:14Z</time>
      </trkpt>
      <trkpt lat="47.14858" lon="-1.63996">
        <ele>73</ele>
        <time>2022-07-24T06:48:16Z</time>
      </trkpt>
      <trkpt lat="47.14846" lon="-1.63988">
        <ele>74</ele>
        <time>2022-07-24T06:48:18Z</time>
      </trkpt>
      <trkpt lat="47.14833" lon="-1.63985">
        <ele>74</ele>
        <time>2022-07-24T06:48:20Z</time>
      </trkpt>
      <trkpt lat="47.1482" lon="-1.6399">
        <ele>73</ele>
        <time>2022-07-24T06:48:22Z</time>
      </trkpt>
      <trkpt lat="47.14809" lon="-1.64002">
        <ele>72</ele>
        <time>2022-07-24T06:48:24Z</time>
      </trkpt>
      <trkpt lat="47.14799" lon="-1.64013">
        <ele>72</ele>
        <time>2022-07-24T06:48:26Z</time>
      </trkpt>
      <trkpt lat="47.14787" lon="-1.64025">
        <ele>71</ele>
        <time>2022-07-24T06:48:28Z</time>
      </trkpt>
      <trkpt lat="47.14776" lon="-1.64036">
        <ele>71</ele>
        <time>2022-07-24T06:48:30Z</time>
      </trkpt>
      <trkpt lat="47.14764" lon="-1.64044">
        <ele>71</ele>
        <time>2022-07-24T06:48:32Z</time>
      </trkpt>
      <trkpt lat="47.14751" lon="-1.64051">
        <ele>70</ele>
        <time>2022-07-24T06:48:34Z</time>
      </trkpt>
      <trkpt lat="47.14738" lon="-1.64057">
        <ele>71</ele>
        <time>2022-07-24T06:48:36Z</time>
      </trkpt>
      <trkpt lat="47.14725" lon="-1.64063">
        <ele>71</ele>
        <time>2022-07-24T06:48:38Z</time>
      </trkpt>
      <trkpt lat="47.14712" lon="-1.64069">
        <ele>71</ele>
        <time>2022-07-24T06:48:40Z</time>
      </trkpt>
      <trkpt lat="47.14699" lon="-1.64073">
        <ele>71</ele>
        <time>2022-07-24T06:48:42Z</time>
      </trkpt>
      <trkpt lat="47.14687" lon="-1.64079">
        <ele>71</ele>
        <time>2022-07-24T06:48:44Z</time>
      </trkpt>
      <trkpt lat="47.14675" lon="-1.64085">
        <ele>71</ele>
        <time>2022-07-24T06:48:46Z</time>
      </trkpt>
      <trkpt lat="47.14662" lon="-1.64091">
        <ele>71</ele>
        <time>2022-07-24T06:48:48Z</time>
      </trkpt>
      <trkpt lat="47.14649" lon="-1.64098">
        <ele>71</ele>
        <time>2022-07-24T06:48:50Z</time>
      </trkpt>
      <trkpt lat="47.14634" lon="-1.64105">
        <ele>70</ele>
        <time>2022-07-24T06:48:52Z</time>
      </trkpt>
      <trkpt lat="47.1462" lon="-1.64112">
        <ele>69</ele>
        <time>2022-07-24T06:48:54Z</time>
      </trkpt>
      <trkpt lat="47.14607" lon="-1.64119">
        <ele>69</ele>
        <time>2022-07-24T06:48:56Z</time>
      </trkpt>
      <trkpt lat="47.14594" lon="-1.64127">
        <ele>69</ele>
        <time>2022-07-24T06:48:58Z</time>
      </trkpt>
      <trkpt lat="47.14581" lon="-1.64134">
        <ele>69</ele>
        <time>2022-07-24T06:49:00Z</time>
      </trkpt>
      <trkpt lat="47.14567" lon="-1.64142">
        <ele>69</ele>
        <time>2022-07-24T06:49:02Z</time>
      </trkpt>
      <trkpt lat="47.14554" lon="-1.6415">
        <ele>68</ele>
        <time>2022-07-24T06:49:04Z</time>
      </trkpt>
      <trkpt lat="47.14541" lon="-1.64158">
        <ele>68</ele>
        <time>2022-07-24T06:49:06Z</time>
      </trkpt>
      <trkpt lat="47.14527" lon="-1.64166">
        <ele>68</ele>
        <time>2022-07-24T06:49:08Z</time>
      </trkpt>
      <trkpt lat="47.14514" lon="-1.64174">
        <ele>68</ele>
        <time>2022-07-24T06:49:10Z</time>
      </trkpt>
      <trkpt lat="47.14501" lon="-1.64183">
        <ele>67</ele>
        <time>2022-07-24T06:49:12Z</time>
      </trkpt>
      <trkpt lat="47.14487" lon="-1.64192">
        <ele>66</ele>
        <time>2022-07-24T06:49:14Z</time>
      </trkpt>
      <trkpt lat="47.14474" lon="-1.64201">
        <ele>65</ele>
        <time>2022-07-24T06:49:16Z</time>
      </trkpt>
      <trkpt lat="47.14461" lon="-1.64209">
        <ele>66</ele>
        <time>2022-07-24T06:49:18Z</time>
      </trkpt>
      <trkpt lat="47.14447" lon="-1.64213">
        <ele>66</ele>
        <time>2022-07-24T06:49:20Z</time>
      </trkpt>
      <trkpt lat="47.14432" lon="-1.64217">
        <ele>66</ele>
        <time>2022-07-24T06:49:22Z</time>
      </trkpt>
      <trkpt lat="47.14417" lon="-1.64219">
        <ele>66</ele>
        <time>2022-07-24T06:49:24Z</time>
      </trkpt>
      <trkpt lat="47.14401" lon="-1.64221">
        <ele>66</ele>
        <time>2022-07-24T06:49:26Z</time>
      </trkpt>
      <trkpt lat="47.14388" lon="-1.64224">
        <ele>65</ele>
        <time>2022-07-24T06:49:28Z</time>
      </trkpt>
      <trkpt lat="47.14373" lon="-1.64226">
        <ele>65</ele>
        <time>2022-07-24T06:49:30Z</time>
      </trkpt>
      <trkpt lat="47.1436" lon="-1.64227">
        <ele>66</ele>
        <time>2022-07-24T06:49:32Z</time>
      </trkpt>
      <trkpt lat="47.14346" lon="-1.64229">
        <ele>65</ele>
        <time>2022-07-24T06:49:34Z</time>
      </trkpt>
      <trkpt lat="47.14331" lon="-1.64232">
        <ele>66</ele>
        <time>2022-07-24T06:49:36Z</time>
      </trkpt>
      <trkpt lat="47.14315" lon="-1.64234">
        <ele>66</ele>
        <time>2022-07-24T06:49:38Z</time>
      </trkpt>
      <trkpt lat="47.14299" lon="-1.64238">
        <ele>65</ele>
        <time>2022-07-24T06:49:40Z</time>
      </trkpt>
      <trkpt lat="47.14284" lon="-1.64242">
        <ele>65</ele>
        <time>2022-07-24T06:49:42Z</time>
      </trkpt>
      <trkpt lat="47.1427" lon="-1.6425">
        <ele>65</ele>
        <time>2022-07-24T06:49:44Z</time>
      </trkpt>
      <trkpt lat="47.14256" lon="-1.6426">
        <ele>65</ele>
        <time>2022-07-24T06:49:46Z</time>
      </trkpt>
      <trkpt lat="47.14243" lon="-1.64272">
        <ele>66</ele>
        <time>2022-07-24T06:49:48Z</time>
      </trkpt>
      <trkpt lat="47.1423" lon="-1.64284">
        <ele>66</ele>
        <time>2022-07-24T06:49:50Z</time>
      </trkpt>
      <trkpt lat="47.14217" lon="-1.64296">
        <ele>66</ele>
        <time>2022-07-24T06:49:52Z</time>
      </trkpt>
      <trkpt lat="47.14204" lon="-1.64309">
        <ele>65</ele>
        <time>2022-07-24T06:49:54Z</time>
      </trkpt>
      <trkpt lat="47.14193" lon="-1.64323">
        <ele>65</ele>
        <time>2022-07-24T06:49:56Z</time>
      </trkpt>
      <trkpt lat="47.1418" lon="-1.64339">
        <ele>65</ele>
        <time>2022-07-24T06:49:58Z</time>
      </trkpt>
      <trkpt lat="47.14168" lon="-1.64353">
        <ele>64</ele>
        <time>2022-07-24T06:50:00Z</time>
      </trkpt>
      <trkpt lat="47.14155" lon="-1.64365">
        <ele>64</ele>
        <time>2022-07-24T06:50:02Z</time>
      </trkpt>
      <trkpt lat="47.14142" lon="-1.64375">
        <ele>64</ele>
        <time>2022-07-24T06:50:04Z</time>
      </trkpt>
      <trkpt lat="47.14127" lon="-1.64385">
        <ele>62</ele>
        <time>2022-07-24T06:50:06Z</time>
      </trkpt>
      <trkpt lat="47.14113" lon="-1.64396">
        <ele>61</ele>
        <time>2022-07-24T06:50:08Z</time>
      </trkpt>
      <trkpt lat="47.14099" lon="-1.64408">
        <ele>61</ele>
        <time>2022-07-24T06:50:10Z</time>
      </trkpt>
      <trkpt lat="47.14085" lon="-1.64419">
        <ele>61</ele>
        <time>2022-07-24T06:50:12Z</time>
      </trkpt>
      <trkpt lat="47.14072" lon="-1.64429">
        <ele>61</ele>
        <time>2022-07-24T06:50:14Z</time>
      </trkpt>
      <trkpt lat="47.14059" lon="-1.6444">
        <ele>61</ele>
        <time>2022-07-24T06:50:16Z</time>
      </trkpt>
      <trkpt lat="47.14045" lon="-1.6445">
        <ele>61</ele>
        <time>2022-07-24T06:50:18Z</time>
      </trkpt>
      <trkpt lat="47.14032" lon="-1.6446">
        <ele>62</ele>
        <time>2022-07-24T06:50:20Z</time>
      </trkpt>
      <trkpt lat="47.14018" lon="-1.6447">
        <ele>63</ele>
        <time>2022-07-24T06:50:22Z</time>
      </trkpt>
      <trkpt lat="47.14005" lon="-1.64482">
        <ele>63</ele>
        <time>2022-07-24T06:50:24Z</time>
      </trkpt>
      <trkpt lat="47.13992" lon="-1.64492">
        <ele>64</ele>
        <time>2022-07-24T06:50:26Z</time>
      </trkpt>
      <trkpt lat="47.13979" lon="-1.64504">
        <ele>64</ele>
        <time>2022-07-24T06:50:28Z</time>
      </trkpt>
      <trkpt lat="47.13967" lon="-1.64518">
        <ele>63</ele>
        <time>2022-07-24T06:50:30Z</time>
      </trkpt>
      <trkpt lat="47.13954" lon="-1.64531">
        <ele>62</ele>
        <time>2022-07-24T06:50:32Z</time>
      </trkpt>
      <trkpt lat="47.1394" lon="-1.64544">
        <ele>61</ele>
        <time>2022-07-24T06:50:34Z</time>
      </trkpt>
      <trkpt lat="47.13927" lon="-1.64556">
        <ele>61</ele>
        <time>2022-07-24T06:50:36Z</time>
      </trkpt>
      <trkpt lat="47.13915" lon="-1.64569">
        <ele>60</ele>
        <time>2022-07-24T06:50:38Z</time>
      </trkpt>
      <trkpt lat="47.13901" lon="-1.64581">
        <ele>59</ele>
        <time>2022-07-24T06:50:40Z</time>
      </trkpt>
      <trkpt lat="47.13887" lon="-1.6459">
        <ele>59</ele>
        <time>2022-07-24T06:50:42Z</time>
      </trkpt>
      <trkpt lat="47.13873" lon="-1.64596">
        <ele>59</ele>
        <time>2022-07-24T06:50:44Z</time>
      </trkpt>
      <trkpt lat="47.13857" lon="-1.646">
        <ele>59</ele>
        <time>2022-07-24T06:50:46Z</time>
      </trkpt>
      <trkpt lat="47.13842" lon="-1.64602">
        <ele>60</ele>
        <time>2022-07-24T06:50:48Z</time>
      </trkpt>
      <trkpt lat="47.13827" lon="-1.64604">
        <ele>59</ele>
        <time>2022-07-24T06:50:50Z</time>
      </trkpt>
      <trkpt lat="47.13813" lon="-1.64604">
        <ele>60</ele>
        <time>2022-07-24T06:50:52Z</time>
      </trkpt>
      <trkpt lat="47.138" lon="-1.64602">
        <ele>61</ele>
        <time>2022-07-24T06:50:54Z</time>
      </trkpt>
      <trkpt lat="47.13789" lon="-1.64601">
        <ele>63</ele>
        <time>2022-07-24T06:50:56Z</time>
      </trkpt>
      <trkpt lat="47.13778" lon="-1.64599">
        <ele>65</ele>
        <time>2022-07-24T06:50:58Z</time>
      </trkpt>
      <trkpt lat="47.13764" lon="-1.64596">
        <ele>67</ele>
        <time>2022-07-24T06:51:00Z</time>
      </trkpt>
      <trkpt lat="47.1375" lon="-1.64592">
        <ele>67</ele>
        <time>2022-07-24T06:51:02Z</time>
      </trkpt>
      <trkpt lat="47.13737" lon="-1.6459">
        <ele>67</ele>
        <time>2022-07-24T06:51:04Z</time>
      </trkpt>
      <trkpt lat="47.13724" lon="-1.64586">
        <ele>68</ele>
        <time>2022-07-24T06:51:06Z</time>
      </trkpt>
      <trkpt lat="47.13712" lon="-1.64583">
        <ele>68</ele>
        <time>2022-07-24T06:51:08Z</time>
      </trkpt>
      <trkpt lat="47.137" lon="-1.64581">
        <ele>69</ele>
        <time>2022-07-24T06:51:10Z</time>
      </trkpt>
      <trkpt lat="47.13688" lon="-1.64577">
        <ele>69</ele>
        <time>2022-07-24T06:51:12Z</time>
      </trkpt>
      <trkpt lat="47.13675" lon="-1.64574">
        <ele>69</ele>
        <time>2022-07-24T06:51:14Z</time>
      </trkpt>
      <trkpt lat="47.13663" lon="-1.64572">
        <ele>70</ele>
        <time>2022-07-24T06:51:16Z</time>
      </trkpt>
      <trkpt lat="47.13652" lon="-1.6457">
        <ele>70</ele>
        <time>2022-07-24T06:51:18Z</time>
      </trkpt>
      <trkpt lat="47.13639" lon="-1.64566">
        <ele>70</ele>
        <time>2022-07-24T06:51:20Z</time>
      </trkpt>
      <trkpt lat="47.13628" lon="-1.64563">
        <ele>71</ele>
        <time>2022-07-24T06:51:22Z</time>
      </trkpt>
      <trkpt lat="47.13616" lon="-1.64561">
        <ele>71</ele>
        <time>2022-07-24T06:51:24Z</time>
      </trkpt>
      <trkpt lat="47.13603" lon="-1.6456">
        <ele>71</ele>
        <time>2022-07-24T06:51:26Z</time>
      </trkpt>
      <trkpt lat="47.13591" lon="-1.6456">
        <ele>72</ele>
        <time>2022-07-24T06:51:28Z</time>
      </trkpt>
      <trkpt lat="47.13579" lon="-1.64564">
        <ele>72</ele>
        <time>2022-07-24T06:51:30Z</time>
      </trkpt>
      <trkpt lat="47.13567" lon="-1.6457">
        <ele>71</ele>
        <time>2022-07-24T06:51:32Z</time>
      </trkpt>
      <trkpt lat="47.13556" lon="-1.64577">
        <ele>71</ele>
        <time>2022-07-24T06:51:34Z</time>
      </trkpt>
      <trkpt lat="47.13545" lon="-1.64586">
        <ele>71</ele>
        <time>2022-07-24T06:51:36Z</time>
      </trkpt>
      <trkpt lat="47.13534" lon="-1.64597">
        <ele>71</ele>
        <time>2022-07-24T06:51:38Z</time>
      </trkpt>
      <trkpt lat="47.13524" lon="-1.64609">
        <ele>71</ele>
        <time>2022-07-24T06:51:40Z</time>
      </trkpt>
      <trkpt lat="47.13514" lon="-1.6462">
        <ele>71</ele>
        <time>2022-07-24T06:51:42Z</time>
      </trkpt>
      <trkpt lat="47.13503" lon="-1.6463">
        <ele>71</ele>
        <time>2022-07-24T06:51:44Z</time>
      </trkpt>
      <trkpt lat="47.13493" lon="-1.64639">
        <ele>72</ele>
        <time>2022-07-24T06:51:46Z</time>
      </trkpt>
      <trkpt lat="47.1348" lon="-1.64645">
        <ele>71</ele>
        <time>2022-07-24T06:51:48Z</time>
      </trkpt>
      <trkpt lat="47.13467" lon="-1.64647">
        <ele>71</ele>
        <time>2022-07-24T06:51:50Z</time>
      </trkpt>
      <trkpt lat="47.13454" lon="-1.64648">
        <ele>71</ele>
        <time>2022-07-24T06:51:52Z</time>
      </trkpt>
      <trkpt lat="47.13441" lon="-1.64646">
        <ele>71</ele>
        <time>2022-07-24T06:51:54Z</time>
      </trkpt>
      <trkpt lat="47.13429" lon="-1.64646">
        <ele>71</ele>
        <time>2022-07-24T06:51:56Z</time>
      </trkpt>
      <trkpt lat="47.13418" lon="-1.64645">
        <ele>70</ele>
        <time>2022-07-24T06:51:58Z</time>
      </trkpt>
      <trkpt lat="47.13407" lon="-1.64644">
        <ele>70</ele>
        <time>2022-07-24T06:52:00Z</time>
      </trkpt>
      <trkpt lat="47.13397" lon="-1.64639">
        <ele>70</ele>
        <time>2022-07-24T06:52:03Z</time>
      </trkpt>
      <trkpt lat="47.13393" lon="-1.64624">
        <ele>70</ele>
        <time>2022-07-24T06:52:05Z</time>
      </trkpt>
      <trkpt lat="47.13391" lon="-1.64607">
        <ele>71</ele>
        <time>2022-07-24T06:52:07Z</time>
      </trkpt>
      <trkpt lat="47.13388" lon="-1.64589">
        <ele>72</ele>
        <time>2022-07-24T06:52:09Z</time>
      </trkpt>
      <trkpt lat="47.13385" lon="-1.64571">
        <ele>73</ele>
        <time>2022-07-24T06:52:11Z</time>
      </trkpt>
      <trkpt lat="47.13381" lon="-1.64554">
        <ele>73</ele>
        <time>2022-07-24T06:52:13Z</time>
      </trkpt>
      <trkpt lat="47.13376" lon="-1.64537">
        <ele>74</ele>
        <time>2022-07-24T06:52:15Z</time>
      </trkpt>
      <trkpt lat="47.13371" lon="-1.64519">
        <ele>74</ele>
        <time>2022-07-24T06:52:17Z</time>
      </trkpt>
      <trkpt lat="47.13365" lon="-1.64502">
        <ele>74</ele>
        <time>2022-07-24T06:52:19Z</time>
      </trkpt>
      <trkpt lat="47.13358" lon="-1.64483">
        <ele>73</ele>
        <time>2022-07-24T06:52:21Z</time>
      </trkpt>
      <trkpt lat="47.1335" lon="-1.64467">
        <ele>73</ele>
        <time>2022-07-24T06:52:23Z</time>
      </trkpt>
      <trkpt lat="47.13342" lon="-1.64449">
        <ele>72</ele>
        <time>2022-07-24T06:52:25Z</time>
      </trkpt>
      <trkpt lat="47.13334" lon="-1.6443">
        <ele>72</ele>
        <time>2022-07-24T06:52:27Z</time>
      </trkpt>
      <trkpt lat="47.13325" lon="-1.64413">
        <ele>71</ele>
        <time>2022-07-24T06:52:29Z</time>
      </trkpt>
      <trkpt lat="47.13317" lon="-1.64395">
        <ele>71</ele>
        <time>2022-07-24T06:52:31Z</time>
      </trkpt>
      <trkpt lat="47.13308" lon="-1.64375">
        <ele>70</ele>
        <time>2022-07-24T06:52:33Z</time>
      </trkpt>
      <trkpt lat="47.13298" lon="-1.64357">
        <ele>70</ele>
        <time>2022-07-24T06:52:35Z</time>
      </trkpt>
      <trkpt lat="47.13289" lon="-1.64339">
        <ele>70</ele>
        <time>2022-07-24T06:52:37Z</time>
      </trkpt>
      <trkpt lat="47.1328" lon="-1.6432">
        <ele>70</ele>
        <time>2022-07-24T06:52:39Z</time>
      </trkpt>
      <trkpt lat="47.13271" lon="-1.64302">
        <ele>70</ele>
        <time>2022-07-24T06:52:41Z</time>
      </trkpt>
      <trkpt lat="47.13261" lon="-1.64282">
        <ele>69</ele>
        <time>2022-07-24T06:52:43Z</time>
      </trkpt>
      <trkpt lat="47.13252" lon="-1.64262">
        <ele>68</ele>
        <time>2022-07-24T06:52:45Z</time>
      </trkpt>
      <trkpt lat="47.13244" lon="-1.64242">
        <ele>68</ele>
        <time>2022-07-24T06:52:47Z</time>
      </trkpt>
      <trkpt lat="47.13236" lon="-1.64222">
        <ele>67</ele>
        <time>2022-07-24T06:52:49Z</time>
      </trkpt>
      <trkpt lat="47.13226" lon="-1.64205">
        <ele>68</ele>
        <time>2022-07-24T06:52:51Z</time>
      </trkpt>
      <trkpt lat="47.13216" lon="-1.64187">
        <ele>67</ele>
        <time>2022-07-24T06:52:53Z</time>
      </trkpt>
      <trkpt lat="47.13208" lon="-1.64168">
        <ele>67</ele>
        <time>2022-07-24T06:52:55Z</time>
      </trkpt>
      <trkpt lat="47.13199" lon="-1.64149">
        <ele>67</ele>
        <time>2022-07-24T06:52:57Z</time>
      </trkpt>
      <trkpt lat="47.13191" lon="-1.6413">
        <ele>66</ele>
        <time>2022-07-24T06:52:59Z</time>
      </trkpt>
      <trkpt lat="47.13182" lon="-1.64111">
        <ele>66</ele>
        <time>2022-07-24T06:53:01Z</time>
      </trkpt>
      <trkpt lat="47.13174" lon="-1.64092">
        <ele>66</ele>
        <time>2022-07-24T06:53:03Z</time>
      </trkpt>
      <trkpt lat="47.13165" lon="-1.64073">
        <ele>65</ele>
        <time>2022-07-24T06:53:05Z</time>
      </trkpt>
      <trkpt lat="47.13158" lon="-1.64054">
        <ele>65</ele>
        <time>2022-07-24T06:53:07Z</time>
      </trkpt>
      <trkpt lat="47.1315" lon="-1.64035">
        <ele>64</ele>
        <time>2022-07-24T06:53:09Z</time>
      </trkpt>
      <trkpt lat="47.13142" lon="-1.64015">
        <ele>64</ele>
        <time>2022-07-24T06:53:11Z</time>
      </trkpt>
      <trkpt lat="47.13135" lon="-1.63996">
        <ele>64</ele>
        <time>2022-07-24T06:53:13Z</time>
      </trkpt>
      <trkpt lat="47.13128" lon="-1.63976">
        <ele>65</ele>
        <time>2022-07-24T06:53:15Z</time>
      </trkpt>
      <trkpt lat="47.1312" lon="-1.63957">
        <ele>64</ele>
        <time>2022-07-24T06:53:17Z</time>
      </trkpt>
      <trkpt lat="47.13113" lon="-1.63937">
        <ele>64</ele>
        <time>2022-07-24T06:53:19Z</time>
      </trkpt>
      <trkpt lat="47.13105" lon="-1.63918">
        <ele>63</ele>
        <time>2022-07-24T06:53:21Z</time>
      </trkpt>
      <trkpt lat="47.13098" lon="-1.63899">
        <ele>64</ele>
        <time>2022-07-24T06:53:23Z</time>
      </trkpt>
      <trkpt lat="47.13091" lon="-1.6388">
        <ele>64</ele>
        <time>2022-07-24T06:53:25Z</time>
      </trkpt>
      <trkpt lat="47.13084" lon="-1.63861">
        <ele>63</ele>
        <time>2022-07-24T06:53:27Z</time>
      </trkpt>
      <trkpt lat="47.13076" lon="-1.63842">
        <ele>63</ele>
        <time>2022-07-24T06:53:29Z</time>
      </trkpt>
      <trkpt lat="47.13069" lon="-1.63823">
        <ele>63</ele>
        <time>2022-07-24T06:53:31Z</time>
      </trkpt>
      <trkpt lat="47.13061" lon="-1.63805">
        <ele>63</ele>
        <time>2022-07-24T06:53:33Z</time>
      </trkpt>
      <trkpt lat="47.13053" lon="-1.63787">
        <ele>64</ele>
        <time>2022-07-24T06:53:35Z</time>
      </trkpt>
      <trkpt lat="47.13044" lon="-1.63768">
        <ele>64</ele>
        <time>2022-07-24T06:53:37Z</time>
      </trkpt>
      <trkpt lat="47.13036" lon="-1.6375">
        <ele>63</ele>
        <time>2022-07-24T06:53:39Z</time>
      </trkpt>
      <trkpt lat="47.13028" lon="-1.63732">
        <ele>64</ele>
        <time>2022-07-24T06:53:41Z</time>
      </trkpt>
      <trkpt lat="47.1302" lon="-1.63713">
        <ele>64</ele>
        <time>2022-07-24T06:53:43Z</time>
      </trkpt>
      <trkpt lat="47.13012" lon="-1.63696">
        <ele>64</ele>
        <time>2022-07-24T06:53:45Z</time>
      </trkpt>
      <trkpt lat="47.13002" lon="-1.63678">
        <ele>64</ele>
        <time>2022-07-24T06:53:47Z</time>
      </trkpt>
      <trkpt lat="47.12992" lon="-1.63661">
        <ele>63</ele>
        <time>2022-07-24T06:53:49Z</time>
      </trkpt>
      <trkpt lat="47.12985" lon="-1.63642">
        <ele>63</ele>
        <time>2022-07-24T06:53:51Z</time>
      </trkpt>
      <trkpt lat="47.12979" lon="-1.63621">
        <ele>63</ele>
        <time>2022-07-24T06:53:53Z</time>
      </trkpt>
      <trkpt lat="47.12972" lon="-1.636">
        <ele>61</ele>
        <time>2022-07-24T06:53:55Z</time>
      </trkpt>
      <trkpt lat="47.12964" lon="-1.6358">
        <ele>61</ele>
        <time>2022-07-24T06:53:57Z</time>
      </trkpt>
      <trkpt lat="47.12957" lon="-1.63561">
        <ele>61</ele>
        <time>2022-07-24T06:53:59Z</time>
      </trkpt>
      <trkpt lat="47.12949" lon="-1.63541">
        <ele>61</ele>
        <time>2022-07-24T06:54:01Z</time>
      </trkpt>
      <trkpt lat="47.12941" lon="-1.63522">
        <ele>61</ele>
        <time>2022-07-24T06:54:03Z</time>
      </trkpt>
      <trkpt lat="47.12933" lon="-1.63502">
        <ele>61</ele>
        <time>2022-07-24T06:54:05Z</time>
      </trkpt>
      <trkpt lat="47.12926" lon="-1.63482">
        <ele>61</ele>
        <time>2022-07-24T06:54:07Z</time>
      </trkpt>
      <trkpt lat="47.12919" lon="-1.63462">
        <ele>60</ele>
        <time>2022-07-24T06:54:09Z</time>
      </trkpt>
      <trkpt lat="47.12911" lon="-1.63443">
        <ele>60</ele>
        <time>2022-07-24T06:54:11Z</time>
      </trkpt>
      <trkpt lat="47.12904" lon="-1.63423">
        <ele>60</ele>
        <time>2022-07-24T06:54:13Z</time>
      </trkpt>
      <trkpt lat="47.12896" lon="-1.63403">
        <ele>59</ele>
        <time>2022-07-24T06:54:15Z</time>
      </trkpt>
      <trkpt lat="47.12889" lon="-1.63384">
        <ele>59</ele>
        <time>2022-07-24T06:54:17Z</time>
      </trkpt>
      <trkpt lat="47.12882" lon="-1.63364">
        <ele>59</ele>
        <time>2022-07-24T06:54:19Z</time>
      </trkpt>
      <trkpt lat="47.12874" lon="-1.63345">
        <ele>59</ele>
        <time>2022-07-24T06:54:21Z</time>
      </trkpt>
      <trkpt lat="47.12865" lon="-1.63328">
        <ele>59</ele>
        <time>2022-07-24T06:54:23Z</time>
      </trkpt>
      <trkpt lat="47.12857" lon="-1.63308">
        <ele>59</ele>
        <time>2022-07-24T06:54:25Z</time>
      </trkpt>
      <trkpt lat="47.1285" lon="-1.6329">
        <ele>59</ele>
        <time>2022-07-24T06:54:27Z</time>
      </trkpt>
      <trkpt lat="47.12843" lon="-1.63271">
        <ele>59</ele>
        <time>2022-07-24T06:54:29Z</time>
      </trkpt>
      <trkpt lat="47.12836" lon="-1.63253">
        <ele>60</ele>
        <time>2022-07-24T06:54:31Z</time>
      </trkpt>
      <trkpt lat="47.12829" lon="-1.63234">
        <ele>60</ele>
        <time>2022-07-24T06:54:33Z</time>
      </trkpt>
      <trkpt lat="47.12821" lon="-1.63216">
        <ele>61</ele>
        <time>2022-07-24T06:54:35Z</time>
      </trkpt>
      <trkpt lat="47.12814" lon="-1.63198">
        <ele>61</ele>
        <time>2022-07-24T06:54:37Z</time>
      </trkpt>
      <trkpt lat="47.12807" lon="-1.63179">
        <ele>61</ele>
        <time>2022-07-24T06:54:39Z</time>
      </trkpt>
      <trkpt lat="47.128" lon="-1.63159">
        <ele>62</ele>
        <time>2022-07-24T06:54:41Z</time>
      </trkpt>
      <trkpt lat="47.12793" lon="-1.63142">
        <ele>63</ele>
        <time>2022-07-24T06:54:43Z</time>
      </trkpt>
      <trkpt lat="47.12785" lon="-1.63124">
        <ele>63</ele>
        <time>2022-07-24T06:54:45Z</time>
      </trkpt>
      <trkpt lat="47.12777" lon="-1.63108">
        <ele>64</ele>
        <time>2022-07-24T06:54:47Z</time>
      </trkpt>
      <trkpt lat="47.12767" lon="-1.63093">
        <ele>65</ele>
        <time>2022-07-24T06:54:49Z</time>
      </trkpt>
      <trkpt lat="47.12761" lon="-1.63076">
        <ele>66</ele>
        <time>2022-07-24T06:54:51Z</time>
      </trkpt>
      <trkpt lat="47.12754" lon="-1.63059">
        <ele>67</ele>
        <time>2022-07-24T06:54:53Z</time>
      </trkpt>
      <trkpt lat="47.12747" lon="-1.63041">
        <ele>67</ele>
        <time>2022-07-24T06:54:55Z</time>
      </trkpt>
      <trkpt lat="47.1274" lon="-1.63023">
        <ele>67</ele>
        <time>2022-07-24T06:54:57Z</time>
      </trkpt>
      <trkpt lat="47.12733" lon="-1.63005">
        <ele>67</ele>
        <time>2022-07-24T06:54:59Z</time>
      </trkpt>
      <trkpt lat="47.12725" lon="-1.62986">
        <ele>67</ele>
        <time>2022-07-24T06:55:01Z</time>
      </trkpt>
      <trkpt lat="47.12718" lon="-1.62968">
        <ele>67</ele>
        <time>2022-07-24T06:55:03Z</time>
      </trkpt>
      <trkpt lat="47.12711" lon="-1.62952">
        <ele>67</ele>
        <time>2022-07-24T06:55:05Z</time>
      </trkpt>
      <trkpt lat="47.12704" lon="-1.62936">
        <ele>67</ele>
        <time>2022-07-24T06:55:07Z</time>
      </trkpt>
      <trkpt lat="47.127" lon="-1.62919">
        <ele>67</ele>
        <time>2022-07-24T06:55:09Z</time>
      </trkpt>
      <trkpt lat="47.12699" lon="-1.62901">
        <ele>67</ele>
        <time>2022-07-24T06:55:11Z</time>
      </trkpt>
      <trkpt lat="47.12691" lon="-1.62883">
        <ele>67</ele>
        <time>2022-07-24T06:55:13Z</time>
      </trkpt>
      <trkpt lat="47.12685" lon="-1.62866">
        <ele>67</ele>
        <time>2022-07-24T06:55:15Z</time>
      </trkpt>
      <trkpt lat="47.12677" lon="-1.62848">
        <ele>66</ele>
        <time>2022-07-24T06:55:17Z</time>
      </trkpt>
      <trkpt lat="47.12669" lon="-1.62832">
        <ele>66</ele>
        <time>2022-07-24T06:55:19Z</time>
      </trkpt>
      <trkpt lat="47.12661" lon="-1.62816">
        <ele>66</ele>
        <time>2022-07-24T06:55:21Z</time>
      </trkpt>
      <trkpt lat="47.12655" lon="-1.62798">
        <ele>65</ele>
        <time>2022-07-24T06:55:23Z</time>
      </trkpt>
      <trkpt lat="47.12649" lon="-1.62779">
        <ele>64</ele>
        <time>2022-07-24T06:55:25Z</time>
      </trkpt>
      <trkpt lat="47.12641" lon="-1.62762">
        <ele>63</ele>
        <time>2022-07-24T06:55:27Z</time>
      </trkpt>
      <trkpt lat="47.12633" lon="-1.62745">
        <ele>63</ele>
        <time>2022-07-24T06:55:29Z</time>
      </trkpt>
      <trkpt lat="47.12625" lon="-1.62728">
        <ele>63</ele>
        <time>2022-07-24T06:55:31Z</time>
      </trkpt>
      <trkpt lat="47.12616" lon="-1.62711">
        <ele>63</ele>
        <time>2022-07-24T06:55:33Z</time>
      </trkpt>
      <trkpt lat="47.12607" lon="-1.62694">
        <ele>62</ele>
        <time>2022-07-24T06:55:35Z</time>
      </trkpt>
      <trkpt lat="47.12599" lon="-1.62675">
        <ele>62</ele>
        <time>2022-07-24T06:55:37Z</time>
      </trkpt>
      <trkpt lat="47.1259" lon="-1.62658">
        <ele>61</ele>
        <time>2022-07-24T06:55:39Z</time>
      </trkpt>
      <trkpt lat="47.12583" lon="-1.62639">
        <ele>60</ele>
        <time>2022-07-24T06:55:41Z</time>
      </trkpt>
      <trkpt lat="47.12576" lon="-1.6262">
        <ele>60</ele>
        <time>2022-07-24T06:55:43Z</time>
      </trkpt>
      <trkpt lat="47.12571" lon="-1.626">
        <ele>60</ele>
        <time>2022-07-24T06:55:45Z</time>
      </trkpt>
      <trkpt lat="47.12566" lon="-1.6258">
        <ele>61</ele>
        <time>2022-07-24T06:55:47Z</time>
      </trkpt>
      <trkpt lat="47.12563" lon="-1.6256">
        <ele>61</ele>
        <time>2022-07-24T06:55:49Z</time>
      </trkpt>
      <trkpt lat="47.12559" lon="-1.62539">
        <ele>60</ele>
        <time>2022-07-24T06:55:51Z</time>
      </trkpt>
      <trkpt lat="47.12554" lon="-1.62518">
        <ele>60</ele>
        <time>2022-07-24T06:55:53Z</time>
      </trkpt>
      <trkpt lat="47.1255" lon="-1.62498">
        <ele>60</ele>
        <time>2022-07-24T06:55:55Z</time>
      </trkpt>
      <trkpt lat="47.12545" lon="-1.62477">
        <ele>60</ele>
        <time>2022-07-24T06:55:57Z</time>
      </trkpt>
      <trkpt lat="47.12537" lon="-1.62447">
        <ele>60</ele>
        <time>2022-07-24T06:56:00Z</time>
      </trkpt>
      <trkpt lat="47.12528" lon="-1.62418">
        <ele>60</ele>
        <time>2022-07-24T06:56:03Z</time>
      </trkpt>
      <trkpt lat="47.12522" lon="-1.624">
        <ele>60</ele>
        <time>2022-07-24T06:56:05Z</time>
      </trkpt>
      <trkpt lat="47.12511" lon="-1.62372">
        <ele>60</ele>
        <time>2022-07-24T06:56:08Z</time>
      </trkpt>
      <trkpt lat="47.12504" lon="-1.62354">
        <ele>60</ele>
        <time>2022-07-24T06:56:10Z</time>
      </trkpt>
      <trkpt lat="47.12496" lon="-1.62338">
        <ele>61</ele>
        <time>2022-07-24T06:56:12Z</time>
      </trkpt>
      <trkpt lat="47.12487" lon="-1.62322">
        <ele>61</ele>
        <time>2022-07-24T06:56:14Z</time>
      </trkpt>
      <trkpt lat="47.12477" lon="-1.62307">
        <ele>61</ele>
        <time>2022-07-24T06:56:16Z</time>
      </trkpt>
      <trkpt lat="47.12467" lon="-1.62292">
        <ele>61</ele>
        <time>2022-07-24T06:56:18Z</time>
      </trkpt>
      <trkpt lat="47.12458" lon="-1.62277">
        <ele>61</ele>
        <time>2022-07-24T06:56:20Z</time>
      </trkpt>
      <trkpt lat="47.12448" lon="-1.62262">
        <ele>61</ele>
        <time>2022-07-24T06:56:22Z</time>
      </trkpt>
      <trkpt lat="47.12438" lon="-1.62247">
        <ele>61</ele>
        <time>2022-07-24T06:56:24Z</time>
      </trkpt>
      <trkpt lat="47.12428" lon="-1.62232">
        <ele>61</ele>
        <time>2022-07-24T06:56:26Z</time>
      </trkpt>
      <trkpt lat="47.12419" lon="-1.62217">
        <ele>60</ele>
        <time>2022-07-24T06:56:28Z</time>
      </trkpt>
      <trkpt lat="47.1241" lon="-1.62202">
        <ele>61</ele>
        <time>2022-07-24T06:56:30Z</time>
      </trkpt>
      <trkpt lat="47.12402" lon="-1.62185">
        <ele>61</ele>
        <time>2022-07-24T06:56:32Z</time>
      </trkpt>
      <trkpt lat="47.12395" lon="-1.62167">
        <ele>61</ele>
        <time>2022-07-24T06:56:34Z</time>
      </trkpt>
      <trkpt lat="47.1239" lon="-1.62149">
        <ele>61</ele>
        <time>2022-07-24T06:56:36Z</time>
      </trkpt>
      <trkpt lat="47.12385" lon="-1.62129">
        <ele>60</ele>
        <time>2022-07-24T06:56:38Z</time>
      </trkpt>
      <trkpt lat="47.12381" lon="-1.62109">
        <ele>60</ele>
        <time>2022-07-24T06:56:40Z</time>
      </trkpt>
      <trkpt lat="47.12379" lon="-1.62087">
        <ele>60</ele>
        <time>2022-07-24T06:56:42Z</time>
      </trkpt>
      <trkpt lat="47.12379" lon="-1.62066">
        <ele>59</ele>
        <time>2022-07-24T06:56:44Z</time>
      </trkpt>
      <trkpt lat="47.1238" lon="-1.62046">
        <ele>59</ele>
        <time>2022-07-24T06:56:46Z</time>
      </trkpt>
      <trkpt lat="47.12383" lon="-1.62025">
        <ele>59</ele>
        <time>2022-07-24T06:56:48Z</time>
      </trkpt>
      <trkpt lat="47.12386" lon="-1.62006">
        <ele>60</ele>
        <time>2022-07-24T06:56:50Z</time>
      </trkpt>
      <trkpt lat="47.12391" lon="-1.61986">
        <ele>60</ele>
        <time>2022-07-24T06:56:52Z</time>
      </trkpt>
      <trkpt lat="47.12396" lon="-1.61967">
        <ele>61</ele>
        <time>2022-07-24T06:56:54Z</time>
      </trkpt>
      <trkpt lat="47.12401" lon="-1.61948">
        <ele>61</ele>
        <time>2022-07-24T06:56:56Z</time>
      </trkpt>
      <trkpt lat="47.12406" lon="-1.6193">
        <ele>61</ele>
        <time>2022-07-24T06:56:58Z</time>
      </trkpt>
      <trkpt lat="47.12411" lon="-1.61911">
        <ele>62</ele>
        <time>2022-07-24T06:57:00Z</time>
      </trkpt>
      <trkpt lat="47.12415" lon="-1.61893">
        <ele>62</ele>
        <time>2022-07-24T06:57:02Z</time>
      </trkpt>
      <trkpt lat="47.1242" lon="-1.61875">
        <ele>62</ele>
        <time>2022-07-24T06:57:04Z</time>
      </trkpt>
      <trkpt lat="47.12427" lon="-1.61858">
        <ele>63</ele>
        <time>2022-07-24T06:57:06Z</time>
      </trkpt>
      <trkpt lat="47.12432" lon="-1.61839">
        <ele>63</ele>
        <time>2022-07-24T06:57:08Z</time>
      </trkpt>
      <trkpt lat="47.12435" lon="-1.6182">
        <ele>63</ele>
        <time>2022-07-24T06:57:10Z</time>
      </trkpt>
      <trkpt lat="47.1244" lon="-1.618">
        <ele>63</ele>
        <time>2022-07-24T06:57:12Z</time>
      </trkpt>
      <trkpt lat="47.12445" lon="-1.61782">
        <ele>64</ele>
        <time>2022-07-24T06:57:14Z</time>
      </trkpt>
      <trkpt lat="47.12449" lon="-1.61763">
        <ele>64</ele>
        <time>2022-07-24T06:57:16Z</time>
      </trkpt>
      <trkpt lat="47.12454" lon="-1.61744">
        <ele>64</ele>
        <time>2022-07-24T06:57:18Z</time>
      </trkpt>
      <trkpt lat="47.12459" lon="-1.61726">
        <ele>64</ele>
        <time>2022-07-24T06:57:20Z</time>
      </trkpt>
      <trkpt lat="47.12464" lon="-1.61707">
        <ele>64</ele>
        <time>2022-07-24T06:57:22Z</time>
      </trkpt>
      <trkpt lat="47.12468" lon="-1.61688">
        <ele>65</ele>
        <time>2022-07-24T06:57:24Z</time>
      </trkpt>
      <trkpt lat="47.12471" lon="-1.61668">
        <ele>65</ele>
        <time>2022-07-24T06:57:26Z</time>
      </trkpt>
      <trkpt lat="47.12474" lon="-1.61648">
        <ele>65</ele>
        <time>2022-07-24T06:57:28Z</time>
      </trkpt>
      <trkpt lat="47.12475" lon="-1.61628">
        <ele>65</ele>
        <time>2022-07-24T06:57:30Z</time>
      </trkpt>
      <trkpt lat="47.12474" lon="-1.61608">
        <ele>65</ele>
        <time>2022-07-24T06:57:32Z</time>
      </trkpt>
      <trkpt lat="47.12472" lon="-1.61588">
        <ele>65</ele>
        <time>2022-07-24T06:57:34Z</time>
      </trkpt>
      <trkpt lat="47.1247" lon="-1.61569">
        <ele>65</ele>
        <time>2022-07-24T06:57:36Z</time>
      </trkpt>
      <trkpt lat="47.12468" lon="-1.6155">
        <ele>65</ele>
        <time>2022-07-24T06:57:38Z</time>
      </trkpt>
      <trkpt lat="47.12466" lon="-1.6153">
        <ele>65</ele>
        <time>2022-07-24T06:57:40Z</time>
      </trkpt>
      <trkpt lat="47.12464" lon="-1.6151">
        <ele>65</ele>
        <time>2022-07-24T06:57:42Z</time>
      </trkpt>
      <trkpt lat="47.12461" lon="-1.6149">
        <ele>65</ele>
        <time>2022-07-24T06:57:44Z</time>
      </trkpt>
      <trkpt lat="47.12459" lon="-1.6147">
        <ele>65</ele>
        <time>2022-07-24T06:57:46Z</time>
      </trkpt>
      <trkpt lat="47.12457" lon="-1.6145">
        <ele>65</ele>
        <time>2022-07-24T06:57:48Z</time>
      </trkpt>
      <trkpt lat="47.12455" lon="-1.6143">
        <ele>65</ele>
        <time>2022-07-24T06:57:50Z</time>
      </trkpt>
      <trkpt lat="47.12453" lon="-1.6141">
        <ele>65</ele>
        <time>2022-07-24T06:57:52Z</time>
      </trkpt>
      <trkpt lat="47.12451" lon="-1.61391">
        <ele>65</ele>
        <time>2022-07-24T06:57:54Z</time>
      </trkpt>
      <trkpt lat="47.12452" lon="-1.61371">
        <ele>65</ele>
        <time>2022-07-24T06:57:56Z</time>
      </trkpt>
      <trkpt lat="47.12454" lon="-1.61351">
        <ele>65</ele>
        <time>2022-07-24T06:57:58Z</time>
      </trkpt>
      <trkpt lat="47.12458" lon="-1.61333">
        <ele>65</ele>
        <time>2022-07-24T06:58:00Z</time>
      </trkpt>
      <trkpt lat="47.12464" lon="-1.61315">
        <ele>65</ele>
        <time>2022-07-24T06:58:02Z</time>
      </trkpt>
      <trkpt lat="47.12469" lon="-1.61297">
        <ele>65</ele>
        <time>2022-07-24T06:58:04Z</time>
      </trkpt>
      <trkpt lat="47.12475" lon="-1.6128">
        <ele>65</ele>
        <time>2022-07-24T06:58:06Z</time>
      </trkpt>
      <trkpt lat="47.12481" lon="-1.61262">
        <ele>66</ele>
        <time>2022-07-24T06:58:08Z</time>
      </trkpt>
      <trkpt lat="47.12487" lon="-1.61244">
        <ele>66</ele>
        <time>2022-07-24T06:58:10Z</time>
      </trkpt>
      <trkpt lat="47.12491" lon="-1.61225">
        <ele>66</ele>
        <time>2022-07-24T06:58:12Z</time>
      </trkpt>
      <trkpt lat="47.12495" lon="-1.61206">
        <ele>66</ele>
        <time>2022-07-24T06:58:14Z</time>
      </trkpt>
      <trkpt lat="47.12498" lon="-1.61187">
        <ele>66</ele>
        <time>2022-07-24T06:58:16Z</time>
      </trkpt>
      <trkpt lat="47.125" lon="-1.61167">
        <ele>66</ele>
        <time>2022-07-24T06:58:18Z</time>
      </trkpt>
      <trkpt lat="47.12502" lon="-1.61147">
        <ele>66</ele>
        <time>2022-07-24T06:58:20Z</time>
      </trkpt>
      <trkpt lat="47.12504" lon="-1.61127">
        <ele>65</ele>
        <time>2022-07-24T06:58:22Z</time>
      </trkpt>
      <trkpt lat="47.12505" lon="-1.61108">
        <ele>65</ele>
        <time>2022-07-24T06:58:24Z</time>
      </trkpt>
      <trkpt lat="47.12507" lon="-1.61088">
        <ele>65</ele>
        <time>2022-07-24T06:58:26Z</time>
      </trkpt>
      <trkpt lat="47.12509" lon="-1.61068">
        <ele>65</ele>
        <time>2022-07-24T06:58:28Z</time>
      </trkpt>
      <trkpt lat="47.12511" lon="-1.61049">
        <ele>65</ele>
        <time>2022-07-24T06:58:30Z</time>
      </trkpt>
      <trkpt lat="47.12513" lon="-1.61028">
        <ele>64</ele>
        <time>2022-07-24T06:58:32Z</time>
      </trkpt>
      <trkpt lat="47.12514" lon="-1.61009">
        <ele>64</ele>
        <time>2022-07-24T06:58:34Z</time>
      </trkpt>
      <trkpt lat="47.12516" lon="-1.60988">
        <ele>64</ele>
        <time>2022-07-24T06:58:36Z</time>
      </trkpt>
      <trkpt lat="47.12519" lon="-1.60968">
        <ele>64</ele>
        <time>2022-07-24T06:58:38Z</time>
      </trkpt>
      <trkpt lat="47.1252" lon="-1.60948">
        <ele>65</ele>
        <time>2022-07-24T06:58:40Z</time>
      </trkpt>
      <trkpt lat="47.12522" lon="-1.60927">
        <ele>64</ele>
        <time>2022-07-24T06:58:42Z</time>
      </trkpt>
      <trkpt lat="47.12524" lon="-1.60908">
        <ele>64</ele>
        <time>2022-07-24T06:58:44Z</time>
      </trkpt>
      <trkpt lat="47.12525" lon="-1.60888">
        <ele>64</ele>
        <time>2022-07-24T06:58:46Z</time>
      </trkpt>
      <trkpt lat="47.12527" lon="-1.60868">
        <ele>64</ele>
        <time>2022-07-24T06:58:48Z</time>
      </trkpt>
      <trkpt lat="47.12528" lon="-1.60848">
        <ele>65</ele>
        <time>2022-07-24T06:58:50Z</time>
      </trkpt>
      <trkpt lat="47.12531" lon="-1.60828">
        <ele>64</ele>
        <time>2022-07-24T06:58:52Z</time>
      </trkpt>
      <trkpt lat="47.12533" lon="-1.60807">
        <ele>64</ele>
        <time>2022-07-24T06:58:54Z</time>
      </trkpt>
      <trkpt lat="47.12535" lon="-1.60786">
        <ele>64</ele>
        <time>2022-07-24T06:58:56Z</time>
      </trkpt>
      <trkpt lat="47.12537" lon="-1.60765">
        <ele>64</ele>
        <time>2022-07-24T06:58:58Z</time>
      </trkpt>
      <trkpt lat="47.12538" lon="-1.60745">
        <ele>64</ele>
        <time>2022-07-24T06:59:00Z</time>
      </trkpt>
      <trkpt lat="47.12539" lon="-1.60724">
        <ele>63</ele>
        <time>2022-07-24T06:59:02Z</time>
      </trkpt>
      <trkpt lat="47.12539" lon="-1.60702">
        <ele>63</ele>
        <time>2022-07-24T06:59:04Z</time>
      </trkpt>
      <trkpt lat="47.12538" lon="-1.60681">
        <ele>63</ele>
        <time>2022-07-24T06:59:06Z</time>
      </trkpt>
      <trkpt lat="47.12538" lon="-1.6066">
        <ele>63</ele>
        <time>2022-07-24T06:59:08Z</time>
      </trkpt>
      <trkpt lat="47.12538" lon="-1.60639">
        <ele>63</ele>
        <time>2022-07-24T06:59:10Z</time>
      </trkpt>
      <trkpt lat="47.12538" lon="-1.60618">
        <ele>63</ele>
        <time>2022-07-24T06:59:12Z</time>
      </trkpt>
      <trkpt lat="47.12537" lon="-1.60598">
        <ele>63</ele>
        <time>2022-07-24T06:59:14Z</time>
      </trkpt>
      <trkpt lat="47.12537" lon="-1.60577">
        <ele>63</ele>
        <time>2022-07-24T06:59:16Z</time>
      </trkpt>
      <trkpt lat="47.12536" lon="-1.60556">
        <ele>63</ele>
        <time>2022-07-24T06:59:18Z</time>
      </trkpt>
      <trkpt lat="47.12535" lon="-1.60535">
        <ele>63</ele>
        <time>2022-07-24T06:59:20Z</time>
      </trkpt>
      <trkpt lat="47.12533" lon="-1.60515">
        <ele>63</ele>
        <time>2022-07-24T06:59:22Z</time>
      </trkpt>
      <trkpt lat="47.12532" lon="-1.60494">
        <ele>63</ele>
        <time>2022-07-24T06:59:24Z</time>
      </trkpt>
      <trkpt lat="47.12529" lon="-1.60474">
        <ele>62</ele>
        <time>2022-07-24T06:59:26Z</time>
      </trkpt>
      <trkpt lat="47.12525" lon="-1.60453">
        <ele>63</ele>
        <time>2022-07-24T06:59:28Z</time>
      </trkpt>
      <trkpt lat="47.12522" lon="-1.60433">
        <ele>62</ele>
        <time>2022-07-24T06:59:30Z</time>
      </trkpt>
      <trkpt lat="47.12518" lon="-1.60412">
        <ele>62</ele>
        <time>2022-07-24T06:59:32Z</time>
      </trkpt>
      <trkpt lat="47.12514" lon="-1.6039">
        <ele>62</ele>
        <time>2022-07-24T06:59:34Z</time>
      </trkpt>
      <trkpt lat="47.1251" lon="-1.60369">
        <ele>62</ele>
        <time>2022-07-24T06:59:36Z</time>
      </trkpt>
      <trkpt lat="47.12506" lon="-1.60348">
        <ele>61</ele>
        <time>2022-07-24T06:59:38Z</time>
      </trkpt>
      <trkpt lat="47.12502" lon="-1.60326">
        <ele>61</ele>
        <time>2022-07-24T06:59:40Z</time>
      </trkpt>
      <trkpt lat="47.12497" lon="-1.60304">
        <ele>60</ele>
        <time>2022-07-24T06:59:42Z</time>
      </trkpt>
      <trkpt lat="47.12493" lon="-1.60283">
        <ele>61</ele>
        <time>2022-07-24T06:59:44Z</time>
      </trkpt>
      <trkpt lat="47.12489" lon="-1.60262">
        <ele>61</ele>
        <time>2022-07-24T06:59:46Z</time>
      </trkpt>
      <trkpt lat="47.12484" lon="-1.60242">
        <ele>61</ele>
        <time>2022-07-24T06:59:48Z</time>
      </trkpt>
      <trkpt lat="47.12481" lon="-1.60221">
        <ele>61</ele>
        <time>2022-07-24T06:59:50Z</time>
      </trkpt>
      <trkpt lat="47.12478" lon="-1.60201">
        <ele>60</ele>
        <time>2022-07-24T06:59:52Z</time>
      </trkpt>
      <trkpt lat="47.12476" lon="-1.60181">
        <ele>61</ele>
        <time>2022-07-24T06:59:54Z</time>
      </trkpt>
      <trkpt lat="47.12474" lon="-1.60161">
        <ele>61</ele>
        <time>2022-07-24T06:59:56Z</time>
      </trkpt>
      <trkpt lat="47.12473" lon="-1.60141">
        <ele>61</ele>
        <time>2022-07-24T06:59:58Z</time>
      </trkpt>
      <trkpt lat="47.12472" lon="-1.60119">
        <ele>61</ele>
        <time>2022-07-24T07:00:00Z</time>
      </trkpt>
      <trkpt lat="47.12471" lon="-1.60099">
        <ele>61</ele>
        <time>2022-07-24T07:00:02Z</time>
      </trkpt>
      <trkpt lat="47.1247" lon="-1.60078">
        <ele>62</ele>
        <time>2022-07-24T07:00:04Z</time>
      </trkpt>
      <trkpt lat="47.12469" lon="-1.60058">
        <ele>62</ele>
        <time>2022-07-24T07:00:06Z</time>
      </trkpt>
      <trkpt lat="47.12468" lon="-1.60038">
        <ele>62</ele>
        <time>2022-07-24T07:00:08Z</time>
      </trkpt>
      <trkpt lat="47.12467" lon="-1.60018">
        <ele>62</ele>
        <time>2022-07-24T07:00:10Z</time>
      </trkpt>
      <trkpt lat="47.12466" lon="-1.59997">
        <ele>63</ele>
        <time>2022-07-24T07:00:12Z</time>
      </trkpt>
      <trkpt lat="47.12466" lon="-1.59975">
        <ele>63</ele>
        <time>2022-07-24T07:00:14Z</time>
      </trkpt>
      <trkpt lat="47.12465" lon="-1.59954">
        <ele>63</ele>
        <time>2022-07-24T07:00:16Z</time>
      </trkpt>
      <trkpt lat="47.12464" lon="-1.59933">
        <ele>63</ele>
        <time>2022-07-24T07:00:18Z</time>
      </trkpt>
      <trkpt lat="47.12463" lon="-1.59912">
        <ele>63</ele>
        <time>2022-07-24T07:00:20Z</time>
      </trkpt>
      <trkpt lat="47.12462" lon="-1.59892">
        <ele>64</ele>
        <time>2022-07-24T07:00:22Z</time>
      </trkpt>
      <trkpt lat="47.12461" lon="-1.59872">
        <ele>63</ele>
        <time>2022-07-24T07:00:24Z</time>
      </trkpt>
      <trkpt lat="47.12459" lon="-1.59851">
        <ele>64</ele>
        <time>2022-07-24T07:00:26Z</time>
      </trkpt>
      <trkpt lat="47.12458" lon="-1.59831">
        <ele>64</ele>
        <time>2022-07-24T07:00:28Z</time>
      </trkpt>
      <trkpt lat="47.12458" lon="-1.5981">
        <ele>65</ele>
        <time>2022-07-24T07:00:30Z</time>
      </trkpt>
      <trkpt lat="47.12457" lon="-1.5979">
        <ele>65</ele>
        <time>2022-07-24T07:00:32Z</time>
      </trkpt>
      <trkpt lat="47.12456" lon="-1.5977">
        <ele>65</ele>
        <time>2022-07-24T07:00:34Z</time>
      </trkpt>
      <trkpt lat="47.12455" lon="-1.5975">
        <ele>65</ele>
        <time>2022-07-24T07:00:36Z</time>
      </trkpt>
      <trkpt lat="47.12454" lon="-1.5973">
        <ele>65</ele>
        <time>2022-07-24T07:00:38Z</time>
      </trkpt>
      <trkpt lat="47.12453" lon="-1.5971">
        <ele>64</ele>
        <time>2022-07-24T07:00:40Z</time>
      </trkpt>
      <trkpt lat="47.12452" lon="-1.5969">
        <ele>64</ele>
        <time>2022-07-24T07:00:42Z</time>
      </trkpt>
      <trkpt lat="47.12451" lon="-1.59671">
        <ele>64</ele>
        <time>2022-07-24T07:00:44Z</time>
      </trkpt>
      <trkpt lat="47.1245" lon="-1.59651">
        <ele>63</ele>
        <time>2022-07-24T07:00:46Z</time>
      </trkpt>
      <trkpt lat="47.12449" lon="-1.5963">
        <ele>63</ele>
        <time>2022-07-24T07:00:48Z</time>
      </trkpt>
      <trkpt lat="47.12448" lon="-1.5961">
        <ele>62</ele>
        <time>2022-07-24T07:00:50Z</time>
      </trkpt>
      <trkpt lat="47.12447" lon="-1.59589">
        <ele>62</ele>
        <time>2022-07-24T07:00:52Z</time>
      </trkpt>
      <trkpt lat="47.12446" lon="-1.59569">
        <ele>62</ele>
        <time>2022-07-24T07:00:54Z</time>
      </trkpt>
      <trkpt lat="47.12444" lon="-1.59548">
        <ele>62</ele>
        <time>2022-07-24T07:00:56Z</time>
      </trkpt>
      <trkpt lat="47.12443" lon="-1.59527">
        <ele>61</ele>
        <time>2022-07-24T07:00:58Z</time>
      </trkpt>
      <trkpt lat="47.12442" lon="-1.59507">
        <ele>61</ele>
        <time>2022-07-24T07:01:00Z</time>
      </trkpt>
      <trkpt lat="47.12441" lon="-1.59486">
        <ele>61</ele>
        <time>2022-07-24T07:01:02Z</time>
      </trkpt>
      <trkpt lat="47.12441" lon="-1.59465">
        <ele>61</ele>
        <time>2022-07-24T07:01:04Z</time>
      </trkpt>
      <trkpt lat="47.12441" lon="-1.59445">
        <ele>61</ele>
        <time>2022-07-24T07:01:06Z</time>
      </trkpt>
      <trkpt lat="47.1244" lon="-1.59424">
        <ele>61</ele>
        <time>2022-07-24T07:01:08Z</time>
      </trkpt>
      <trkpt lat="47.12439" lon="-1.59403">
        <ele>60</ele>
        <time>2022-07-24T07:01:10Z</time>
      </trkpt>
      <trkpt lat="47.12438" lon="-1.59382">
        <ele>60</ele>
        <time>2022-07-24T07:01:12Z</time>
      </trkpt>
      <trkpt lat="47.12437" lon="-1.59361">
        <ele>59</ele>
        <time>2022-07-24T07:01:14Z</time>
      </trkpt>
      <trkpt lat="47.12436" lon="-1.5934">
        <ele>59</ele>
        <time>2022-07-24T07:01:16Z</time>
      </trkpt>
      <trkpt lat="47.12435" lon="-1.59319">
        <ele>59</ele>
        <time>2022-07-24T07:01:18Z</time>
      </trkpt>
      <trkpt lat="47.12434" lon="-1.59298">
        <ele>58</ele>
        <time>2022-07-24T07:01:20Z</time>
      </trkpt>
      <trkpt lat="47.12433" lon="-1.59277">
        <ele>58</ele>
        <time>2022-07-24T07:01:22Z</time>
      </trkpt>
      <trkpt lat="47.12432" lon="-1.59257">
        <ele>58</ele>
        <time>2022-07-24T07:01:24Z</time>
      </trkpt>
      <trkpt lat="47.12431" lon="-1.59236">
        <ele>58</ele>
        <time>2022-07-24T07:01:26Z</time>
      </trkpt>
      <trkpt lat="47.12428" lon="-1.59215">
        <ele>58</ele>
        <time>2022-07-24T07:01:28Z</time>
      </trkpt>
      <trkpt lat="47.12425" lon="-1.59195">
        <ele>57</ele>
        <time>2022-07-24T07:01:30Z</time>
      </trkpt>
      <trkpt lat="47.12425" lon="-1.59174">
        <ele>57</ele>
        <time>2022-07-24T07:01:32Z</time>
      </trkpt>
      <trkpt lat="47.12427" lon="-1.59154">
        <ele>57</ele>
        <time>2022-07-24T07:01:34Z</time>
      </trkpt>
      <trkpt lat="47.12427" lon="-1.59133">
        <ele>57</ele>
        <time>2022-07-24T07:01:36Z</time>
      </trkpt>
      <trkpt lat="47.12427" lon="-1.59112">
        <ele>58</ele>
        <time>2022-07-24T07:01:38Z</time>
      </trkpt>
      <trkpt lat="47.12426" lon="-1.59091">
        <ele>58</ele>
        <time>2022-07-24T07:01:40Z</time>
      </trkpt>
      <trkpt lat="47.12425" lon="-1.59071">
        <ele>58</ele>
        <time>2022-07-24T07:01:42Z</time>
      </trkpt>
      <trkpt lat="47.12425" lon="-1.59051">
        <ele>58</ele>
        <time>2022-07-24T07:01:44Z</time>
      </trkpt>
      <trkpt lat="47.12424" lon="-1.59032">
        <ele>59</ele>
        <time>2022-07-24T07:01:46Z</time>
      </trkpt>
      <trkpt lat="47.12423" lon="-1.59014">
        <ele>60</ele>
        <time>2022-07-24T07:01:48Z</time>
      </trkpt>
      <trkpt lat="47.12422" lon="-1.58997">
        <ele>60</ele>
        <time>2022-07-24T07:01:50Z</time>
      </trkpt>
      <trkpt lat="47.12421" lon="-1.5898">
        <ele>60</ele>
        <time>2022-07-24T07:01:52Z</time>
      </trkpt>
      <trkpt lat="47.1242" lon="-1.58963">
        <ele>61</ele>
        <time>2022-07-24T07:01:54Z</time>
      </trkpt>
      <trkpt lat="47.12419" lon="-1.58947">
        <ele>61</ele>
        <time>2022-07-24T07:01:56Z</time>
      </trkpt>
      <trkpt lat="47.12418" lon="-1.5893">
        <ele>62</ele>
        <time>2022-07-24T07:01:58Z</time>
      </trkpt>
      <trkpt lat="47.12417" lon="-1.58914">
        <ele>62</ele>
        <time>2022-07-24T07:02:00Z</time>
      </trkpt>
      <trkpt lat="47.12415" lon="-1.58897">
        <ele>63</ele>
        <time>2022-07-24T07:02:02Z</time>
      </trkpt>
      <trkpt lat="47.12414" lon="-1.5888">
        <ele>62</ele>
        <time>2022-07-24T07:02:04Z</time>
      </trkpt>
      <trkpt lat="47.12412" lon="-1.58863">
        <ele>63</ele>
        <time>2022-07-24T07:02:06Z</time>
      </trkpt>
      <trkpt lat="47.1241" lon="-1.58845">
        <ele>63</ele>
        <time>2022-07-24T07:02:08Z</time>
      </trkpt>
      <trkpt lat="47.12408" lon="-1.58828">
        <ele>63</ele>
        <time>2022-07-24T07:02:10Z</time>
      </trkpt>
      <trkpt lat="47.12406" lon="-1.58811">
        <ele>63</ele>
        <time>2022-07-24T07:02:12Z</time>
      </trkpt>
      <trkpt lat="47.12403" lon="-1.58793">
        <ele>64</ele>
        <time>2022-07-24T07:02:14Z</time>
      </trkpt>
      <trkpt lat="47.124" lon="-1.58775">
        <ele>64</ele>
        <time>2022-07-24T07:02:16Z</time>
      </trkpt>
      <trkpt lat="47.12397" lon="-1.58757">
        <ele>64</ele>
        <time>2022-07-24T07:02:18Z</time>
      </trkpt>
      <trkpt lat="47.12393" lon="-1.58739">
        <ele>63</ele>
        <time>2022-07-24T07:02:20Z</time>
      </trkpt>
      <trkpt lat="47.12389" lon="-1.58721">
        <ele>63</ele>
        <time>2022-07-24T07:02:22Z</time>
      </trkpt>
      <trkpt lat="47.12386" lon="-1.58703">
        <ele>63</ele>
        <time>2022-07-24T07:02:24Z</time>
      </trkpt>
      <trkpt lat="47.12382" lon="-1.58684">
        <ele>64</ele>
        <time>2022-07-24T07:02:26Z</time>
      </trkpt>
      <trkpt lat="47.12377" lon="-1.58666">
        <ele>64</ele>
        <time>2022-07-24T07:02:28Z</time>
      </trkpt>
      <trkpt lat="47.12374" lon="-1.58647">
        <ele>64</ele>
        <time>2022-07-24T07:02:30Z</time>
      </trkpt>
      <trkpt lat="47.12369" lon="-1.58627">
        <ele>63</ele>
        <time>2022-07-24T07:02:32Z</time>
      </trkpt>
      <trkpt lat="47.12365" lon="-1.58608">
        <ele>62</ele>
        <time>2022-07-24T07:02:34Z</time>
      </trkpt>
      <trkpt lat="47.1236" lon="-1.58587">
        <ele>62</ele>
        <time>2022-07-24T07:02:36Z</time>
      </trkpt>
      <trkpt lat="47.12355" lon="-1.58567">
        <ele>62</ele>
        <time>2022-07-24T07:02:38Z</time>
      </trkpt>
      <trkpt lat="47.1235" lon="-1.58546">
        <ele>61</ele>
        <time>2022-07-24T07:02:40Z</time>
      </trkpt>
      <trkpt lat="47.12346" lon="-1.58527">
        <ele>61</ele>
        <time>2022-07-24T07:02:42Z</time>
      </trkpt>
      <trkpt lat="47.12341" lon="-1.58507">
        <ele>61</ele>
        <time>2022-07-24T07:02:44Z</time>
      </trkpt>
      <trkpt lat="47.12337" lon="-1.58489">
        <ele>62</ele>
        <time>2022-07-24T07:02:46Z</time>
      </trkpt>
      <trkpt lat="47.12332" lon="-1.5847">
        <ele>62</ele>
        <time>2022-07-24T07:02:48Z</time>
      </trkpt>
      <trkpt lat="47.12326" lon="-1.58455">
        <ele>62</ele>
        <time>2022-07-24T07:02:50Z</time>
      </trkpt>
      <trkpt lat="47.12318" lon="-1.58439">
        <ele>62</ele>
        <time>2022-07-24T07:02:52Z</time>
      </trkpt>
      <trkpt lat="47.12311" lon="-1.58423">
        <ele>62</ele>
        <time>2022-07-24T07:02:54Z</time>
      </trkpt>
      <trkpt lat="47.12304" lon="-1.58406">
        <ele>61</ele>
        <time>2022-07-24T07:02:56Z</time>
      </trkpt>
      <trkpt lat="47.12298" lon="-1.58388">
        <ele>61</ele>
        <time>2022-07-24T07:02:58Z</time>
      </trkpt>
      <trkpt lat="47.12297" lon="-1.58368">
        <ele>61</ele>
        <time>2022-07-24T07:03:00Z</time>
      </trkpt>
      <trkpt lat="47.12293" lon="-1.58349">
        <ele>62</ele>
        <time>2022-07-24T07:03:02Z</time>
      </trkpt>
      <trkpt lat="47.12281" lon="-1.58336">
        <ele>62</ele>
        <time>2022-07-24T07:03:04Z</time>
      </trkpt>
      <trkpt lat="47.12268" lon="-1.58324">
        <ele>61</ele>
        <time>2022-07-24T07:03:06Z</time>
      </trkpt>
      <trkpt lat="47.12256" lon="-1.58311">
        <ele>59</ele>
        <time>2022-07-24T07:03:08Z</time>
      </trkpt>
      <trkpt lat="47.12243" lon="-1.58299">
        <ele>58</ele>
        <time>2022-07-24T07:03:10Z</time>
      </trkpt>
      <trkpt lat="47.12232" lon="-1.58287">
        <ele>58</ele>
        <time>2022-07-24T07:03:12Z</time>
      </trkpt>
      <trkpt lat="47.12222" lon="-1.58275">
        <ele>58</ele>
        <time>2022-07-24T07:03:14Z</time>
      </trkpt>
      <trkpt lat="47.12212" lon="-1.58263">
        <ele>57</ele>
        <time>2022-07-24T07:03:16Z</time>
      </trkpt>
      <trkpt lat="47.12204" lon="-1.58253">
        <ele>57</ele>
        <time>2022-07-24T07:03:18Z</time>
      </trkpt>
      <trkpt lat="47.12202" lon="-1.58238">
        <ele>57</ele>
        <time>2022-07-24T07:03:21Z</time>
      </trkpt>
      <trkpt lat="47.12202" lon="-1.58217">
        <ele>59</ele>
        <time>2022-07-24T07:03:24Z</time>
      </trkpt>
      <trkpt lat="47.12204" lon="-1.582">
        <ele>59</ele>
        <time>2022-07-24T07:03:26Z</time>
      </trkpt>
      <trkpt lat="47.12205" lon="-1.58181">
        <ele>59</ele>
        <time>2022-07-24T07:03:28Z</time>
      </trkpt>
      <trkpt lat="47.12207" lon="-1.58163">
        <ele>59</ele>
        <time>2022-07-24T07:03:30Z</time>
      </trkpt>
      <trkpt lat="47.12213" lon="-1.58147">
        <ele>60</ele>
        <time>2022-07-24T07:03:32Z</time>
      </trkpt>
      <trkpt lat="47.12219" lon="-1.58131">
        <ele>60</ele>
        <time>2022-07-24T07:03:34Z</time>
      </trkpt>
      <trkpt lat="47.12226" lon="-1.58115">
        <ele>60</ele>
        <time>2022-07-24T07:03:36Z</time>
      </trkpt>
      <trkpt lat="47.12233" lon="-1.58099">
        <ele>59</ele>
        <time>2022-07-24T07:03:38Z</time>
      </trkpt>
      <trkpt lat="47.12239" lon="-1.58082">
        <ele>59</ele>
        <time>2022-07-24T07:03:40Z</time>
      </trkpt>
      <trkpt lat="47.12244" lon="-1.58064">
        <ele>60</ele>
        <time>2022-07-24T07:03:42Z</time>
      </trkpt>
      <trkpt lat="47.12247" lon="-1.58045">
        <ele>59</ele>
        <time>2022-07-24T07:03:44Z</time>
      </trkpt>
      <trkpt lat="47.12244" lon="-1.58027">
        <ele>59</ele>
        <time>2022-07-24T07:03:46Z</time>
      </trkpt>
      <trkpt lat="47.12235" lon="-1.58012">
        <ele>60</ele>
        <time>2022-07-24T07:03:48Z</time>
      </trkpt>
      <trkpt lat="47.12225" lon="-1.57996">
        <ele>59</ele>
        <time>2022-07-24T07:03:50Z</time>
      </trkpt>
      <trkpt lat="47.12216" lon="-1.57981">
        <ele>59</ele>
        <time>2022-07-24T07:03:52Z</time>
      </trkpt>
      <trkpt lat="47.12208" lon="-1.57967">
        <ele>59</ele>
        <time>2022-07-24T07:03:54Z</time>
      </trkpt>
      <trkpt lat="47.12201" lon="-1.57953">
        <ele>60</ele>
        <time>2022-07-24T07:03:56Z</time>
      </trkpt>
      <trkpt lat="47.12194" lon="-1.57938">
        <ele>60</ele>
        <time>2022-07-24T07:03:58Z</time>
      </trkpt>
      <trkpt lat="47.12189" lon="-1.57923">
        <ele>60</ele>
        <time>2022-07-24T07:04:00Z</time>
      </trkpt>
      <trkpt lat="47.12185" lon="-1.57907">
        <ele>61</ele>
        <time>2022-07-24T07:04:02Z</time>
      </trkpt>
      <trkpt lat="47.12182" lon="-1.5789">
        <ele>61</ele>
        <time>2022-07-24T07:04:04Z</time>
      </trkpt>
      <trkpt lat="47.12181" lon="-1.57873">
        <ele>62</ele>
        <time>2022-07-24T07:04:06Z</time>
      </trkpt>
      <trkpt lat="47.12181" lon="-1.57857">
        <ele>62</ele>
        <time>2022-07-24T07:04:08Z</time>
      </trkpt>
      <trkpt lat="47.1218" lon="-1.57839">
        <ele>62</ele>
        <time>2022-07-24T07:04:10Z</time>
      </trkpt>
      <trkpt lat="47.1218" lon="-1.57822">
        <ele>63</ele>
        <time>2022-07-24T07:04:12Z</time>
      </trkpt>
      <trkpt lat="47.1218" lon="-1.57804">
        <ele>63</ele>
        <time>2022-07-24T07:04:14Z</time>
      </trkpt>
      <trkpt lat="47.12181" lon="-1.57787">
        <ele>64</ele>
        <time>2022-07-24T07:04:16Z</time>
      </trkpt>
      <trkpt lat="47.12181" lon="-1.5777">
        <ele>64</ele>
        <time>2022-07-24T07:04:18Z</time>
      </trkpt>
      <trkpt lat="47.12182" lon="-1.57754">
        <ele>64</ele>
        <time>2022-07-24T07:04:20Z</time>
      </trkpt>
      <trkpt lat="47.12182" lon="-1.57737">
        <ele>64</ele>
        <time>2022-07-24T07:04:22Z</time>
      </trkpt>
      <trkpt lat="47.12181" lon="-1.57719">
        <ele>64</ele>
        <time>2022-07-24T07:04:24Z</time>
      </trkpt>
      <trkpt lat="47.12179" lon="-1.57702">
        <ele>64</ele>
        <time>2022-07-24T07:04:26Z</time>
      </trkpt>
      <trkpt lat="47.12179" lon="-1.57685">
        <ele>64</ele>
        <time>2022-07-24T07:04:28Z</time>
      </trkpt>
      <trkpt lat="47.12178" lon="-1.57667">
        <ele>64</ele>
        <time>2022-07-24T07:04:30Z</time>
      </trkpt>
      <trkpt lat="47.12178" lon="-1.57649">
        <ele>64</ele>
        <time>2022-07-24T07:04:32Z</time>
      </trkpt>
      <trkpt lat="47.12177" lon="-1.57631">
        <ele>64</ele>
        <time>2022-07-24T07:04:34Z</time>
      </trkpt>
      <trkpt lat="47.12177" lon="-1.57612">
        <ele>64</ele>
        <time>2022-07-24T07:04:36Z</time>
      </trkpt>
      <trkpt lat="47.12177" lon="-1.57594">
        <ele>63</ele>
        <time>2022-07-24T07:04:38Z</time>
      </trkpt>
      <trkpt lat="47.12177" lon="-1.57575">
        <ele>63</ele>
        <time>2022-07-24T07:04:40Z</time>
      </trkpt>
      <trkpt lat="47.12176" lon="-1.57556">
        <ele>63</ele>
        <time>2022-07-24T07:04:42Z</time>
      </trkpt>
      <trkpt lat="47.12175" lon="-1.57537">
        <ele>62</ele>
        <time>2022-07-24T07:04:44Z</time>
      </trkpt>
      <trkpt lat="47.12173" lon="-1.57519">
        <ele>62</ele>
        <time>2022-07-24T07:04:46Z</time>
      </trkpt>
      <trkpt lat="47.12171" lon="-1.57501">
        <ele>61</ele>
        <time>2022-07-24T07:04:48Z</time>
      </trkpt>
      <trkpt lat="47.12168" lon="-1.57483">
        <ele>61</ele>
        <time>2022-07-24T07:04:50Z</time>
      </trkpt>
      <trkpt lat="47.12165" lon="-1.57464">
        <ele>61</ele>
        <time>2022-07-24T07:04:52Z</time>
      </trkpt>
      <trkpt lat="47.12161" lon="-1.57446">
        <ele>61</ele>
        <time>2022-07-24T07:04:54Z</time>
      </trkpt>
      <trkpt lat="47.12157" lon="-1.57427">
        <ele>61</ele>
        <time>2022-07-24T07:04:56Z</time>
      </trkpt>
      <trkpt lat="47.12154" lon="-1.57408">
        <ele>61</ele>
        <time>2022-07-24T07:04:58Z</time>
      </trkpt>
      <trkpt lat="47.1215" lon="-1.57389">
        <ele>61</ele>
        <time>2022-07-24T07:05:00Z</time>
      </trkpt>
      <trkpt lat="47.12147" lon="-1.5737">
        <ele>61</ele>
        <time>2022-07-24T07:05:02Z</time>
      </trkpt>
      <trkpt lat="47.12144" lon="-1.57351">
        <ele>62</ele>
        <time>2022-07-24T07:05:04Z</time>
      </trkpt>
      <trkpt lat="47.1214" lon="-1.57331">
        <ele>62</ele>
        <time>2022-07-24T07:05:06Z</time>
      </trkpt>
      <trkpt lat="47.12137" lon="-1.57311">
        <ele>62</ele>
        <time>2022-07-24T07:05:08Z</time>
      </trkpt>
      <trkpt lat="47.12132" lon="-1.57292">
        <ele>62</ele>
        <time>2022-07-24T07:05:10Z</time>
      </trkpt>
      <trkpt lat="47.12128" lon="-1.57272">
        <ele>62</ele>
        <time>2022-07-24T07:05:12Z</time>
      </trkpt>
      <trkpt lat="47.12123" lon="-1.57252">
        <ele>62</ele>
        <time>2022-07-24T07:05:14Z</time>
      </trkpt>
      <trkpt lat="47.1212" lon="-1.5723">
        <ele>60</ele>
        <time>2022-07-24T07:05:16Z</time>
      </trkpt>
      <trkpt lat="47.12116" lon="-1.57209">
        <ele>60</ele>
        <time>2022-07-24T07:05:18Z</time>
      </trkpt>
      <trkpt lat="47.12112" lon="-1.57189">
        <ele>59</ele>
        <time>2022-07-24T07:05:20Z</time>
      </trkpt>
      <trkpt lat="47.12108" lon="-1.57168">
        <ele>59</ele>
        <time>2022-07-24T07:05:22Z</time>
      </trkpt>
      <trkpt lat="47.12104" lon="-1.57147">
        <ele>59</ele>
        <time>2022-07-24T07:05:24Z</time>
      </trkpt>
      <trkpt lat="47.12101" lon="-1.57125">
        <ele>59</ele>
        <time>2022-07-24T07:05:26Z</time>
      </trkpt>
      <trkpt lat="47.12097" lon="-1.57105">
        <ele>59</ele>
        <time>2022-07-24T07:05:28Z</time>
      </trkpt>
      <trkpt lat="47.12093" lon="-1.57085">
        <ele>59</ele>
        <time>2022-07-24T07:05:30Z</time>
      </trkpt>
      <trkpt lat="47.12089" lon="-1.57064">
        <ele>59</ele>
        <time>2022-07-24T07:05:32Z</time>
      </trkpt>
      <trkpt lat="47.12085" lon="-1.57044">
        <ele>58</ele>
        <time>2022-07-24T07:05:34Z</time>
      </trkpt>
      <trkpt lat="47.12081" lon="-1.57024">
        <ele>59</ele>
        <time>2022-07-24T07:05:36Z</time>
      </trkpt>
      <trkpt lat="47.12077" lon="-1.57004">
        <ele>59</ele>
        <time>2022-07-24T07:05:38Z</time>
      </trkpt>
      <trkpt lat="47.12073" lon="-1.56985">
        <ele>59</ele>
        <time>2022-07-24T07:05:40Z</time>
      </trkpt>
      <trkpt lat="47.12069" lon="-1.56966">
        <ele>59</ele>
        <time>2022-07-24T07:05:42Z</time>
      </trkpt>
      <trkpt lat="47.12065" lon="-1.56947">
        <ele>60</ele>
        <time>2022-07-24T07:05:44Z</time>
      </trkpt>
      <trkpt lat="47.12062" lon="-1.5693">
        <ele>60</ele>
        <time>2022-07-24T07:05:46Z</time>
      </trkpt>
      <trkpt lat="47.12059" lon="-1.56914">
        <ele>61</ele>
        <time>2022-07-24T07:05:48Z</time>
      </trkpt>
      <trkpt lat="47.12057" lon="-1.56898">
        <ele>62</ele>
        <time>2022-07-24T07:05:50Z</time>
      </trkpt>
      <trkpt lat="47.12054" lon="-1.56882">
        <ele>62</ele>
        <time>2022-07-24T07:05:52Z</time>
      </trkpt>
      <trkpt lat="47.12051" lon="-1.56866">
        <ele>63</ele>
        <time>2022-07-24T07:05:54Z</time>
      </trkpt>
      <trkpt lat="47.12048" lon="-1.56851">
        <ele>62</ele>
        <time>2022-07-24T07:05:56Z</time>
      </trkpt>
      <trkpt lat="47.12045" lon="-1.56835">
        <ele>62</ele>
        <time>2022-07-24T07:05:58Z</time>
      </trkpt>
      <trkpt lat="47.12042" lon="-1.5682">
        <ele>62</ele>
        <time>2022-07-24T07:06:00Z</time>
      </trkpt>
      <trkpt lat="47.12038" lon="-1.56804">
        <ele>63</ele>
        <time>2022-07-24T07:06:02Z</time>
      </trkpt>
      <trkpt lat="47.12035" lon="-1.56789">
        <ele>63</ele>
        <time>2022-07-24T07:06:04Z</time>
      </trkpt>
      <trkpt lat="47.12032" lon="-1.56773">
        <ele>62</ele>
        <time>2022-07-24T07:06:06Z</time>
      </trkpt>
      <trkpt lat="47.12029" lon="-1.56758">
        <ele>62</ele>
        <time>2022-07-24T07:06:08Z</time>
      </trkpt>
      <trkpt lat="47.12026" lon="-1.56743">
        <ele>63</ele>
        <time>2022-07-24T07:06:10Z</time>
      </trkpt>
      <trkpt lat="47.12023" lon="-1.56728">
        <ele>63</ele>
        <time>2022-07-24T07:06:12Z</time>
      </trkpt>
      <trkpt lat="47.1202" lon="-1.56713">
        <ele>64</ele>
        <time>2022-07-24T07:06:14Z</time>
      </trkpt>
      <trkpt lat="47.12017" lon="-1.56697">
        <ele>64</ele>
        <time>2022-07-24T07:06:16Z</time>
      </trkpt>
      <trkpt lat="47.12014" lon="-1.56683">
        <ele>65</ele>
        <time>2022-07-24T07:06:18Z</time>
      </trkpt>
      <trkpt lat="47.12012" lon="-1.56668">
        <ele>65</ele>
        <time>2022-07-24T07:06:20Z</time>
      </trkpt>
      <trkpt lat="47.12008" lon="-1.56653">
        <ele>65</ele>
        <time>2022-07-24T07:06:22Z</time>
      </trkpt>
      <trkpt lat="47.12005" lon="-1.56638">
        <ele>65</ele>
        <time>2022-07-24T07:06:24Z</time>
      </trkpt>
      <trkpt lat="47.12003" lon="-1.56623">
        <ele>65</ele>
        <time>2022-07-24T07:06:26Z</time>
      </trkpt>
      <trkpt lat="47.12" lon="-1.56607">
        <ele>65</ele>
        <time>2022-07-24T07:06:28Z</time>
      </trkpt>
      <trkpt lat="47.11997" lon="-1.56592">
        <ele>65</ele>
        <time>2022-07-24T07:06:30Z</time>
      </trkpt>
      <trkpt lat="47.11993" lon="-1.56576">
        <ele>65</ele>
        <time>2022-07-24T07:06:32Z</time>
      </trkpt>
      <trkpt lat="47.1199" lon="-1.5656">
        <ele>65</ele>
        <time>2022-07-24T07:06:34Z</time>
      </trkpt>
      <trkpt lat="47.11987" lon="-1.56545">
        <ele>65</ele>
        <time>2022-07-24T07:06:36Z</time>
      </trkpt>
      <trkpt lat="47.11984" lon="-1.56529">
        <ele>65</ele>
        <time>2022-07-24T07:06:38Z</time>
      </trkpt>
      <trkpt lat="47.1198" lon="-1.56513">
        <ele>65</ele>
        <time>2022-07-24T07:06:40Z</time>
      </trkpt>
      <trkpt lat="47.11976" lon="-1.56496">
        <ele>65</ele>
        <time>2022-07-24T07:06:42Z</time>
      </trkpt>
      <trkpt lat="47.11972" lon="-1.5648">
        <ele>65</ele>
        <time>2022-07-24T07:06:44Z</time>
      </trkpt>
      <trkpt lat="47.11967" lon="-1.56463">
        <ele>65</ele>
        <time>2022-07-24T07:06:46Z</time>
      </trkpt>
      <trkpt lat="47.11963" lon="-1.56446">
        <ele>65</ele>
        <time>2022-07-24T07:06:48Z</time>
      </trkpt>
      <trkpt lat="47.11958" lon="-1.56428">
        <ele>65</ele>
        <time>2022-07-24T07:06:50Z</time>
      </trkpt>
      <trkpt lat="47.11954" lon="-1.56411">
        <ele>65</ele>
        <time>2022-07-24T07:06:52Z</time>
      </trkpt>
      <trkpt lat="47.11949" lon="-1.56393">
        <ele>64</ele>
        <time>2022-07-24T07:06:54Z</time>
      </trkpt>
      <trkpt lat="47.11945" lon="-1.56375">
        <ele>64</ele>
        <time>2022-07-24T07:06:56Z</time>
      </trkpt>
      <trkpt lat="47.1194" lon="-1.56357">
        <ele>64</ele>
        <time>2022-07-24T07:06:58Z</time>
      </trkpt>
      <trkpt lat="47.11936" lon="-1.56339">
        <ele>64</ele>
        <time>2022-07-24T07:07:00Z</time>
      </trkpt>
      <trkpt lat="47.11931" lon="-1.56322">
        <ele>64</ele>
        <time>2022-07-24T07:07:02Z</time>
      </trkpt>
      <trkpt lat="47.11927" lon="-1.56304">
        <ele>63</ele>
        <time>2022-07-24T07:07:04Z</time>
      </trkpt>
      <trkpt lat="47.11922" lon="-1.56287">
        <ele>64</ele>
        <time>2022-07-24T07:07:06Z</time>
      </trkpt>
      <trkpt lat="47.11918" lon="-1.56269">
        <ele>64</ele>
        <time>2022-07-24T07:07:08Z</time>
      </trkpt>
      <trkpt lat="47.11913" lon="-1.56251">
        <ele>64</ele>
        <time>2022-07-24T07:07:10Z</time>
      </trkpt>
      <trkpt lat="47.11909" lon="-1.56234">
        <ele>63</ele>
        <time>2022-07-24T07:07:12Z</time>
      </trkpt>
      <trkpt lat="47.11904" lon="-1.56216">
        <ele>63</ele>
        <time>2022-07-24T07:07:14Z</time>
      </trkpt>
      <trkpt lat="47.119" lon="-1.56198">
        <ele>63</ele>
        <time>2022-07-24T07:07:16Z</time>
      </trkpt>
      <trkpt lat="47.11895" lon="-1.56181">
        <ele>63</ele>
        <time>2022-07-24T07:07:18Z</time>
      </trkpt>
      <trkpt lat="47.11891" lon="-1.56163">
        <ele>64</ele>
        <time>2022-07-24T07:07:20Z</time>
      </trkpt>
      <trkpt lat="47.11886" lon="-1.56145">
        <ele>64</ele>
        <time>2022-07-24T07:07:22Z</time>
      </trkpt>
      <trkpt lat="47.11882" lon="-1.56128">
        <ele>64</ele>
        <time>2022-07-24T07:07:24Z</time>
      </trkpt>
      <trkpt lat="47.11878" lon="-1.5611">
        <ele>64</ele>
        <time>2022-07-24T07:07:26Z</time>
      </trkpt>
      <trkpt lat="47.11874" lon="-1.56093">
        <ele>64</ele>
        <time>2022-07-24T07:07:28Z</time>
      </trkpt>
      <trkpt lat="47.1187" lon="-1.56076">
        <ele>65</ele>
        <time>2022-07-24T07:07:30Z</time>
      </trkpt>
      <trkpt lat="47.11867" lon="-1.56058">
        <ele>64</ele>
        <time>2022-07-24T07:07:32Z</time>
      </trkpt>
      <trkpt lat="47.11865" lon="-1.5604">
        <ele>65</ele>
        <time>2022-07-24T07:07:34Z</time>
      </trkpt>
      <trkpt lat="47.11863" lon="-1.56021">
        <ele>65</ele>
        <time>2022-07-24T07:07:36Z</time>
      </trkpt>
      <trkpt lat="47.1186" lon="-1.56002">
        <ele>66</ele>
        <time>2022-07-24T07:07:38Z</time>
      </trkpt>
      <trkpt lat="47.11859" lon="-1.55983">
        <ele>66</ele>
        <time>2022-07-24T07:07:40Z</time>
      </trkpt>
      <trkpt lat="47.11857" lon="-1.55965">
        <ele>66</ele>
        <time>2022-07-24T07:07:42Z</time>
      </trkpt>
      <trkpt lat="47.11856" lon="-1.55947">
        <ele>66</ele>
        <time>2022-07-24T07:07:44Z</time>
      </trkpt>
      <trkpt lat="47.11855" lon="-1.55929">
        <ele>67</ele>
        <time>2022-07-24T07:07:46Z</time>
      </trkpt>
      <trkpt lat="47.11854" lon="-1.55911">
        <ele>67</ele>
        <time>2022-07-24T07:07:48Z</time>
      </trkpt>
      <trkpt lat="47.11853" lon="-1.55894">
        <ele>67</ele>
        <time>2022-07-24T07:07:50Z</time>
      </trkpt>
      <trkpt lat="47.11851" lon="-1.55876">
        <ele>67</ele>
        <time>2022-07-24T07:07:52Z</time>
      </trkpt>
      <trkpt lat="47.1185" lon="-1.55858">
        <ele>68</ele>
        <time>2022-07-24T07:07:54Z</time>
      </trkpt>
      <trkpt lat="47.11848" lon="-1.5584">
        <ele>68</ele>
        <time>2022-07-24T07:07:56Z</time>
      </trkpt>
      <trkpt lat="47.11847" lon="-1.55821">
        <ele>68</ele>
        <time>2022-07-24T07:07:58Z</time>
      </trkpt>
      <trkpt lat="47.11845" lon="-1.55803">
        <ele>68</ele>
        <time>2022-07-24T07:08:00Z</time>
      </trkpt>
      <trkpt lat="47.11844" lon="-1.55785">
        <ele>68</ele>
        <time>2022-07-24T07:08:02Z</time>
      </trkpt>
      <trkpt lat="47.11843" lon="-1.55767">
        <ele>68</ele>
        <time>2022-07-24T07:08:04Z</time>
      </trkpt>
      <trkpt lat="47.11841" lon="-1.55749">
        <ele>69</ele>
        <time>2022-07-24T07:08:06Z</time>
      </trkpt>
      <trkpt lat="47.1184" lon="-1.5573">
        <ele>69</ele>
        <time>2022-07-24T07:08:08Z</time>
      </trkpt>
      <trkpt lat="47.11839" lon="-1.55712">
        <ele>69</ele>
        <time>2022-07-24T07:08:10Z</time>
      </trkpt>
      <trkpt lat="47.11837" lon="-1.55693">
        <ele>68</ele>
        <time>2022-07-24T07:08:12Z</time>
      </trkpt>
      <trkpt lat="47.11836" lon="-1.55675">
        <ele>68</ele>
        <time>2022-07-24T07:08:14Z</time>
      </trkpt>
      <trkpt lat="47.11835" lon="-1.55657">
        <ele>69</ele>
        <time>2022-07-24T07:08:16Z</time>
      </trkpt>
      <trkpt lat="47.11833" lon="-1.55639">
        <ele>69</ele>
        <time>2022-07-24T07:08:18Z</time>
      </trkpt>
      <trkpt lat="47.11832" lon="-1.55621">
        <ele>69</ele>
        <time>2022-07-24T07:08:20Z</time>
      </trkpt>
      <trkpt lat="47.11831" lon="-1.55603">
        <ele>68</ele>
        <time>2022-07-24T07:08:22Z</time>
      </trkpt>
      <trkpt lat="47.1183" lon="-1.55584">
        <ele>69</ele>
        <time>2022-07-24T07:08:24Z</time>
      </trkpt>
      <trkpt lat="47.11828" lon="-1.55565">
        <ele>69</ele>
        <time>2022-07-24T07:08:26Z</time>
      </trkpt>
      <trkpt lat="47.11827" lon="-1.55547">
        <ele>69</ele>
        <time>2022-07-24T07:08:28Z</time>
      </trkpt>
      <trkpt lat="47.11826" lon="-1.55528">
        <ele>69</ele>
        <time>2022-07-24T07:08:30Z</time>
      </trkpt>
      <trkpt lat="47.11824" lon="-1.5551">
        <ele>69</ele>
        <time>2022-07-24T07:08:32Z</time>
      </trkpt>
      <trkpt lat="47.11823" lon="-1.55491">
        <ele>69</ele>
        <time>2022-07-24T07:08:34Z</time>
      </trkpt>
      <trkpt lat="47.11821" lon="-1.55473">
        <ele>69</ele>
        <time>2022-07-24T07:08:36Z</time>
      </trkpt>
      <trkpt lat="47.1182" lon="-1.55454">
        <ele>69</ele>
        <time>2022-07-24T07:08:38Z</time>
      </trkpt>
      <trkpt lat="47.11819" lon="-1.55437">
        <ele>69</ele>
        <time>2022-07-24T07:08:40Z</time>
      </trkpt>
      <trkpt lat="47.11818" lon="-1.55419">
        <ele>70</ele>
        <time>2022-07-24T07:08:42Z</time>
      </trkpt>
      <trkpt lat="47.11818" lon="-1.55401">
        <ele>70</ele>
        <time>2022-07-24T07:08:44Z</time>
      </trkpt>
      <trkpt lat="47.11817" lon="-1.55383">
        <ele>70</ele>
        <time>2022-07-24T07:08:46Z</time>
      </trkpt>
      <trkpt lat="47.11818" lon="-1.55365">
        <ele>70</ele>
        <time>2022-07-24T07:08:48Z</time>
      </trkpt>
      <trkpt lat="47.11818" lon="-1.55346">
        <ele>69</ele>
        <time>2022-07-24T07:08:50Z</time>
      </trkpt>
      <trkpt lat="47.11818" lon="-1.55329">
        <ele>69</ele>
        <time>2022-07-24T07:08:52Z</time>
      </trkpt>
      <trkpt lat="47.11818" lon="-1.55311">
        <ele>69</ele>
        <time>2022-07-24T07:08:54Z</time>
      </trkpt>
      <trkpt lat="47.11817" lon="-1.55293">
        <ele>69</ele>
        <time>2022-07-24T07:08:56Z</time>
      </trkpt>
      <trkpt lat="47.11817" lon="-1.55276">
        <ele>69</ele>
        <time>2022-07-24T07:08:58Z</time>
      </trkpt>
      <trkpt lat="47.11816" lon="-1.55258">
        <ele>69</ele>
        <time>2022-07-24T07:09:00Z</time>
      </trkpt>
      <trkpt lat="47.11816" lon="-1.55239">
        <ele>69</ele>
        <time>2022-07-24T07:09:02Z</time>
      </trkpt>
      <trkpt lat="47.11815" lon="-1.55221">
        <ele>69</ele>
        <time>2022-07-24T07:09:04Z</time>
      </trkpt>
      <trkpt lat="47.11815" lon="-1.55203">
        <ele>69</ele>
        <time>2022-07-24T07:09:06Z</time>
      </trkpt>
      <trkpt lat="47.11814" lon="-1.55184">
        <ele>69</ele>
        <time>2022-07-24T07:09:08Z</time>
      </trkpt>
      <trkpt lat="47.11814" lon="-1.55167">
        <ele>69</ele>
        <time>2022-07-24T07:09:10Z</time>
      </trkpt>
      <trkpt lat="47.11812" lon="-1.55149">
        <ele>69</ele>
        <time>2022-07-24T07:09:12Z</time>
      </trkpt>
      <trkpt lat="47.11811" lon="-1.55131">
        <ele>69</ele>
        <time>2022-07-24T07:09:14Z</time>
      </trkpt>
      <trkpt lat="47.1181" lon="-1.55113">
        <ele>70</ele>
        <time>2022-07-24T07:09:16Z</time>
      </trkpt>
      <trkpt lat="47.11808" lon="-1.55095">
        <ele>70</ele>
        <time>2022-07-24T07:09:18Z</time>
      </trkpt>
      <trkpt lat="47.11805" lon="-1.55077">
        <ele>70</ele>
        <time>2022-07-24T07:09:20Z</time>
      </trkpt>
      <trkpt lat="47.11802" lon="-1.55059">
        <ele>70</ele>
        <time>2022-07-24T07:09:22Z</time>
      </trkpt>
      <trkpt lat="47.11799" lon="-1.55041">
        <ele>70</ele>
        <time>2022-07-24T07:09:24Z</time>
      </trkpt>
      <trkpt lat="47.11796" lon="-1.55023">
        <ele>70</ele>
        <time>2022-07-24T07:09:26Z</time>
      </trkpt>
      <trkpt lat="47.11793" lon="-1.55005">
        <ele>70</ele>
        <time>2022-07-24T07:09:28Z</time>
      </trkpt>
      <trkpt lat="47.11789" lon="-1.54987">
        <ele>70</ele>
        <time>2022-07-24T07:09:30Z</time>
      </trkpt>
      <trkpt lat="47.11785" lon="-1.5497">
        <ele>70</ele>
        <time>2022-07-24T07:09:32Z</time>
      </trkpt>
      <trkpt lat="47.11781" lon="-1.54952">
        <ele>70</ele>
        <time>2022-07-24T07:09:34Z</time>
      </trkpt>
      <trkpt lat="47.11777" lon="-1.54935">
        <ele>70</ele>
        <time>2022-07-24T07:09:36Z</time>
      </trkpt>
      <trkpt lat="47.11772" lon="-1.54918">
        <ele>70</ele>
        <time>2022-07-24T07:09:38Z</time>
      </trkpt>
      <trkpt lat="47.11767" lon="-1.54901">
        <ele>70</ele>
        <time>2022-07-24T07:09:40Z</time>
      </trkpt>
      <trkpt lat="47.11762" lon="-1.54884">
        <ele>70</ele>
        <time>2022-07-24T07:09:42Z</time>
      </trkpt>
      <trkpt lat="47.11757" lon="-1.54867">
        <ele>70</ele>
        <time>2022-07-24T07:09:44Z</time>
      </trkpt>
      <trkpt lat="47.11752" lon="-1.5485">
        <ele>70</ele>
        <time>2022-07-24T07:09:46Z</time>
      </trkpt>
      <trkpt lat="47.11747" lon="-1.54833">
        <ele>70</ele>
        <time>2022-07-24T07:09:48Z</time>
      </trkpt>
      <trkpt lat="47.11741" lon="-1.54816">
        <ele>71</ele>
        <time>2022-07-24T07:09:50Z</time>
      </trkpt>
      <trkpt lat="47.11736" lon="-1.54799">
        <ele>71</ele>
        <time>2022-07-24T07:09:52Z</time>
      </trkpt>
      <trkpt lat="47.11731" lon="-1.54782">
        <ele>71</ele>
        <time>2022-07-24T07:09:54Z</time>
      </trkpt>
      <trkpt lat="47.11726" lon="-1.54766">
        <ele>71</ele>
        <time>2022-07-24T07:09:56Z</time>
      </trkpt>
      <trkpt lat="47.11721" lon="-1.54749">
        <ele>71</ele>
        <time>2022-07-24T07:09:58Z</time>
      </trkpt>
      <trkpt lat="47.11716" lon="-1.54733">
        <ele>71</ele>
        <time>2022-07-24T07:10:00Z</time>
      </trkpt>
      <trkpt lat="47.11711" lon="-1.54717">
        <ele>72</ele>
        <time>2022-07-24T07:10:02Z</time>
      </trkpt>
      <trkpt lat="47.11706" lon="-1.547">
        <ele>72</ele>
        <time>2022-07-24T07:10:04Z</time>
      </trkpt>
      <trkpt lat="47.11701" lon="-1.54684">
        <ele>72</ele>
        <time>2022-07-24T07:10:06Z</time>
      </trkpt>
      <trkpt lat="47.11696" lon="-1.54667">
        <ele>72</ele>
        <time>2022-07-24T07:10:08Z</time>
      </trkpt>
      <trkpt lat="47.11691" lon="-1.5465">
        <ele>72</ele>
        <time>2022-07-24T07:10:10Z</time>
      </trkpt>
      <trkpt lat="47.11685" lon="-1.54633">
        <ele>72</ele>
        <time>2022-07-24T07:10:12Z</time>
      </trkpt>
      <trkpt lat="47.1168" lon="-1.54616">
        <ele>72</ele>
        <time>2022-07-24T07:10:14Z</time>
      </trkpt>
      <trkpt lat="47.11675" lon="-1.546">
        <ele>72</ele>
        <time>2022-07-24T07:10:16Z</time>
      </trkpt>
      <trkpt lat="47.11669" lon="-1.54584">
        <ele>73</ele>
        <time>2022-07-24T07:10:18Z</time>
      </trkpt>
      <trkpt lat="47.11664" lon="-1.54567">
        <ele>73</ele>
        <time>2022-07-24T07:10:20Z</time>
      </trkpt>
      <trkpt lat="47.11658" lon="-1.54551">
        <ele>73</ele>
        <time>2022-07-24T07:10:22Z</time>
      </trkpt>
      <trkpt lat="47.11653" lon="-1.54535">
        <ele>74</ele>
        <time>2022-07-24T07:10:24Z</time>
      </trkpt>
      <trkpt lat="47.11648" lon="-1.54518">
        <ele>74</ele>
        <time>2022-07-24T07:10:26Z</time>
      </trkpt>
      <trkpt lat="47.11643" lon="-1.54501">
        <ele>74</ele>
        <time>2022-07-24T07:10:28Z</time>
      </trkpt>
      <trkpt lat="47.11637" lon="-1.54484">
        <ele>74</ele>
        <time>2022-07-24T07:10:30Z</time>
      </trkpt>
      <trkpt lat="47.11631" lon="-1.54467">
        <ele>74</ele>
        <time>2022-07-24T07:10:32Z</time>
      </trkpt>
      <trkpt lat="47.11625" lon="-1.5445">
        <ele>75</ele>
        <time>2022-07-24T07:10:34Z</time>
      </trkpt>
      <trkpt lat="47.11617" lon="-1.54425">
        <ele>75</ele>
        <time>2022-07-24T07:10:37Z</time>
      </trkpt>
      <trkpt lat="47.11611" lon="-1.54409">
        <ele>75</ele>
        <time>2022-07-24T07:10:39Z</time>
      </trkpt>
      <trkpt lat="47.11605" lon="-1.54392">
        <ele>75</ele>
        <time>2022-07-24T07:10:41Z</time>
      </trkpt>
      <trkpt lat="47.11599" lon="-1.54376">
        <ele>75</ele>
        <time>2022-07-24T07:10:43Z</time>
      </trkpt>
      <trkpt lat="47.11591" lon="-1.54351">
        <ele>75</ele>
        <time>2022-07-24T07:10:46Z</time>
      </trkpt>
      <trkpt lat="47.11583" lon="-1.54326">
        <ele>75</ele>
        <time>2022-07-24T07:10:49Z</time>
      </trkpt>
      <trkpt lat="47.11577" lon="-1.5431">
        <ele>76</ele>
        <time>2022-07-24T07:10:51Z</time>
      </trkpt>
      <trkpt lat="47.11572" lon="-1.54295">
        <ele>76</ele>
        <time>2022-07-24T07:10:53Z</time>
      </trkpt>
      <trkpt lat="47.11567" lon="-1.54281">
        <ele>76</ele>
        <time>2022-07-24T07:10:55Z</time>
      </trkpt>
      <trkpt lat="47.11566" lon="-1.54267">
        <ele>76</ele>
        <time>2022-07-24T07:10:57Z</time>
      </trkpt>
      <trkpt lat="47.11573" lon="-1.54254">
        <ele>76</ele>
        <time>2022-07-24T07:10:59Z</time>
      </trkpt>
      <trkpt lat="47.11589" lon="-1.5424">
        <ele>76</ele>
        <time>2022-07-24T07:11:02Z</time>
      </trkpt>
      <trkpt lat="47.11601" lon="-1.54232">
        <ele>76</ele>
        <time>2022-07-24T07:11:04Z</time>
      </trkpt>
      <trkpt lat="47.11613" lon="-1.54223">
        <ele>76</ele>
        <time>2022-07-24T07:11:06Z</time>
      </trkpt>
      <trkpt lat="47.11624" lon="-1.54214">
        <ele>76</ele>
        <time>2022-07-24T07:11:08Z</time>
      </trkpt>
      <trkpt lat="47.11633" lon="-1.54203">
        <ele>77</ele>
        <time>2022-07-24T07:11:10Z</time>
      </trkpt>
      <trkpt lat="47.11641" lon="-1.54188">
        <ele>77</ele>
        <time>2022-07-24T07:11:12Z</time>
      </trkpt>
      <trkpt lat="47.11645" lon="-1.54172">
        <ele>77</ele>
        <time>2022-07-24T07:11:14Z</time>
      </trkpt>
      <trkpt lat="47.11651" lon="-1.54156">
        <ele>77</ele>
        <time>2022-07-24T07:11:16Z</time>
      </trkpt>
      <trkpt lat="47.11663" lon="-1.54148">
        <ele>78</ele>
        <time>2022-07-24T07:11:18Z</time>
      </trkpt>
      <trkpt lat="47.11674" lon="-1.54141">
        <ele>78</ele>
        <time>2022-07-24T07:11:20Z</time>
      </trkpt>
      <trkpt lat="47.11685" lon="-1.5413">
        <ele>78</ele>
        <time>2022-07-24T07:11:22Z</time>
      </trkpt>
      <trkpt lat="47.11695" lon="-1.54117">
        <ele>78</ele>
        <time>2022-07-24T07:11:24Z</time>
      </trkpt>
      <trkpt lat="47.11702" lon="-1.54102">
        <ele>78</ele>
        <time>2022-07-24T07:11:26Z</time>
      </trkpt>
      <trkpt lat="47.11708" lon="-1.54087">
        <ele>79</ele>
        <time>2022-07-24T07:11:28Z</time>
      </trkpt>
      <trkpt lat="47.11714" lon="-1.54072">
        <ele>79</ele>
        <time>2022-07-24T07:11:30Z</time>
      </trkpt>
      <trkpt lat="47.11721" lon="-1.54057">
        <ele>80</ele>
        <time>2022-07-24T07:11:32Z</time>
      </trkpt>
      <trkpt lat="47.11727" lon="-1.54042">
        <ele>80</ele>
        <time>2022-07-24T07:11:34Z</time>
      </trkpt>
      <trkpt lat="47.11733" lon="-1.54028">
        <ele>81</ele>
        <time>2022-07-24T07:11:36Z</time>
      </trkpt>
      <trkpt lat="47.1174" lon="-1.54013">
        <ele>81</ele>
        <time>2022-07-24T07:11:38Z</time>
      </trkpt>
      <trkpt lat="47.11746" lon="-1.53998">
        <ele>82</ele>
        <time>2022-07-24T07:11:40Z</time>
      </trkpt>
      <trkpt lat="47.11752" lon="-1.53982">
        <ele>81</ele>
        <time>2022-07-24T07:11:42Z</time>
      </trkpt>
      <trkpt lat="47.11758" lon="-1.53965">
        <ele>81</ele>
        <time>2022-07-24T07:11:44Z</time>
      </trkpt>
      <trkpt lat="47.11764" lon="-1.53947">
        <ele>80</ele>
        <time>2022-07-24T07:11:46Z</time>
      </trkpt>
      <trkpt lat="47.11771" lon="-1.5393">
        <ele>80</ele>
        <time>2022-07-24T07:11:48Z</time>
      </trkpt>
      <trkpt lat="47.11779" lon="-1.53913">
        <ele>80</ele>
        <time>2022-07-24T07:11:50Z</time>
      </trkpt>
      <trkpt lat="47.11787" lon="-1.53897">
        <ele>80</ele>
        <time>2022-07-24T07:11:52Z</time>
      </trkpt>
      <trkpt lat="47.11796" lon="-1.53881">
        <ele>80</ele>
        <time>2022-07-24T07:11:54Z</time>
      </trkpt>
      <trkpt lat="47.11805" lon="-1.53866">
        <ele>79</ele>
        <time>2022-07-24T07:11:56Z</time>
      </trkpt>
      <trkpt lat="47.11815" lon="-1.5385">
        <ele>79</ele>
        <time>2022-07-24T07:11:58Z</time>
      </trkpt>
      <trkpt lat="47.11824" lon="-1.53835">
        <ele>79</ele>
        <time>2022-07-24T07:12:00Z</time>
      </trkpt>
      <trkpt lat="47.11833" lon="-1.53818">
        <ele>79</ele>
        <time>2022-07-24T07:12:02Z</time>
      </trkpt>
      <trkpt lat="47.11842" lon="-1.538">
        <ele>79</ele>
        <time>2022-07-24T07:12:04Z</time>
      </trkpt>
      <trkpt lat="47.1185" lon="-1.53782">
        <ele>79</ele>
        <time>2022-07-24T07:12:06Z</time>
      </trkpt>
      <trkpt lat="47.11857" lon="-1.53764">
        <ele>79</ele>
        <time>2022-07-24T07:12:08Z</time>
      </trkpt>
      <trkpt lat="47.11863" lon="-1.53745">
        <ele>78</ele>
        <time>2022-07-24T07:12:10Z</time>
      </trkpt>
      <trkpt lat="47.11869" lon="-1.53726">
        <ele>77</ele>
        <time>2022-07-24T07:12:12Z</time>
      </trkpt>
      <trkpt lat="47.11877" lon="-1.53707">
        <ele>76</ele>
        <time>2022-07-24T07:12:14Z</time>
      </trkpt>
      <trkpt lat="47.11886" lon="-1.5369">
        <ele>76</ele>
        <time>2022-07-24T07:12:16Z</time>
      </trkpt>
      <trkpt lat="47.11895" lon="-1.53672">
        <ele>76</ele>
        <time>2022-07-24T07:12:18Z</time>
      </trkpt>
      <trkpt lat="47.11904" lon="-1.53655">
        <ele>75</ele>
        <time>2022-07-24T07:12:20Z</time>
      </trkpt>
      <trkpt lat="47.11912" lon="-1.53639">
        <ele>75</ele>
        <time>2022-07-24T07:12:22Z</time>
      </trkpt>
      <trkpt lat="47.11921" lon="-1.53623">
        <ele>74</ele>
        <time>2022-07-24T07:12:24Z</time>
      </trkpt>
      <trkpt lat="47.1193" lon="-1.53606">
        <ele>73</ele>
        <time>2022-07-24T07:12:26Z</time>
      </trkpt>
      <trkpt lat="47.11939" lon="-1.5359">
        <ele>73</ele>
        <time>2022-07-24T07:12:28Z</time>
      </trkpt>
      <trkpt lat="47.11947" lon="-1.53573">
        <ele>72</ele>
        <time>2022-07-24T07:12:30Z</time>
      </trkpt>
      <trkpt lat="47.11956" lon="-1.53556">
        <ele>72</ele>
        <time>2022-07-24T07:12:32Z</time>
      </trkpt>
      <trkpt lat="47.11965" lon="-1.53539">
        <ele>71</ele>
        <time>2022-07-24T07:12:34Z</time>
      </trkpt>
      <trkpt lat="47.11974" lon="-1.53522">
        <ele>71</ele>
        <time>2022-07-24T07:12:36Z</time>
      </trkpt>
      <trkpt lat="47.11983" lon="-1.53504">
        <ele>70</ele>
        <time>2022-07-24T07:12:38Z</time>
      </trkpt>
      <trkpt lat="47.11993" lon="-1.53487">
        <ele>70</ele>
        <time>2022-07-24T07:12:40Z</time>
      </trkpt>
      <trkpt lat="47.12002" lon="-1.5347">
        <ele>70</ele>
        <time>2022-07-24T07:12:42Z</time>
      </trkpt>
      <trkpt lat="47.12012" lon="-1.53453">
        <ele>69</ele>
        <time>2022-07-24T07:12:44Z</time>
      </trkpt>
      <trkpt lat="47.12021" lon="-1.53437">
        <ele>69</ele>
        <time>2022-07-24T07:12:46Z</time>
      </trkpt>
      <trkpt lat="47.12029" lon="-1.5342">
        <ele>69</ele>
        <time>2022-07-24T07:12:48Z</time>
      </trkpt>
      <trkpt lat="47.12038" lon="-1.53404">
        <ele>69</ele>
        <time>2022-07-24T07:12:50Z</time>
      </trkpt>
      <trkpt lat="47.12047" lon="-1.53387">
        <ele>69</ele>
        <time>2022-07-24T07:12:52Z</time>
      </trkpt>
      <trkpt lat="47.12056" lon="-1.5337">
        <ele>68</ele>
        <time>2022-07-24T07:12:54Z</time>
      </trkpt>
      <trkpt lat="47.12066" lon="-1.53352">
        <ele>68</ele>
        <time>2022-07-24T07:12:56Z</time>
      </trkpt>
      <trkpt lat="47.12075" lon="-1.53335">
        <ele>68</ele>
        <time>2022-07-24T07:12:58Z</time>
      </trkpt>
      <trkpt lat="47.12085" lon="-1.53318">
        <ele>68</ele>
        <time>2022-07-24T07:13:00Z</time>
      </trkpt>
      <trkpt lat="47.12094" lon="-1.533">
        <ele>67</ele>
        <time>2022-07-24T07:13:02Z</time>
      </trkpt>
      <trkpt lat="47.12102" lon="-1.53283">
        <ele>66</ele>
        <time>2022-07-24T07:13:04Z</time>
      </trkpt>
      <trkpt lat="47.1211" lon="-1.53267">
        <ele>66</ele>
        <time>2022-07-24T07:13:06Z</time>
      </trkpt>
      <trkpt lat="47.12119" lon="-1.53249">
        <ele>66</ele>
        <time>2022-07-24T07:13:08Z</time>
      </trkpt>
      <trkpt lat="47.12128" lon="-1.53231">
        <ele>65</ele>
        <time>2022-07-24T07:13:10Z</time>
      </trkpt>
      <trkpt lat="47.12138" lon="-1.53215">
        <ele>65</ele>
        <time>2022-07-24T07:13:12Z</time>
      </trkpt>
      <trkpt lat="47.12147" lon="-1.53199">
        <ele>65</ele>
        <time>2022-07-24T07:13:14Z</time>
      </trkpt>
      <trkpt lat="47.12156" lon="-1.53182">
        <ele>65</ele>
        <time>2022-07-24T07:13:16Z</time>
      </trkpt>
      <trkpt lat="47.12165" lon="-1.53166">
        <ele>65</ele>
        <time>2022-07-24T07:13:18Z</time>
      </trkpt>
      <trkpt lat="47.12173" lon="-1.5315">
        <ele>66</ele>
        <time>2022-07-24T07:13:20Z</time>
      </trkpt>
      <trkpt lat="47.12181" lon="-1.53134">
        <ele>66</ele>
        <time>2022-07-24T07:13:22Z</time>
      </trkpt>
      <trkpt lat="47.12189" lon="-1.53118">
        <ele>66</ele>
        <time>2022-07-24T07:13:24Z</time>
      </trkpt>
      <trkpt lat="47.12197" lon="-1.53103">
        <ele>66</ele>
        <time>2022-07-24T07:13:26Z</time>
      </trkpt>
      <trkpt lat="47.12205" lon="-1.53087">
        <ele>65</ele>
        <time>2022-07-24T07:13:28Z</time>
      </trkpt>
      <trkpt lat="47.12212" lon="-1.53072">
        <ele>65</ele>
        <time>2022-07-24T07:13:30Z</time>
      </trkpt>
      <trkpt lat="47.1222" lon="-1.53057">
        <ele>66</ele>
        <time>2022-07-24T07:13:32Z</time>
      </trkpt>
      <trkpt lat="47.12228" lon="-1.53043">
        <ele>66</ele>
        <time>2022-07-24T07:13:34Z</time>
      </trkpt>
      <trkpt lat="47.12235" lon="-1.53029">
        <ele>67</ele>
        <time>2022-07-24T07:13:36Z</time>
      </trkpt>
      <trkpt lat="47.12243" lon="-1.53014">
        <ele>67</ele>
        <time>2022-07-24T07:13:38Z</time>
      </trkpt>
      <trkpt lat="47.12251" lon="-1.53">
        <ele>67</ele>
        <time>2022-07-24T07:13:40Z</time>
      </trkpt>
      <trkpt lat="47.12258" lon="-1.52987">
        <ele>68</ele>
        <time>2022-07-24T07:13:42Z</time>
      </trkpt>
      <trkpt lat="47.12265" lon="-1.52974">
        <ele>69</ele>
        <time>2022-07-24T07:13:44Z</time>
      </trkpt>
      <trkpt lat="47.12272" lon="-1.52961">
        <ele>69</ele>
        <time>2022-07-24T07:13:46Z</time>
      </trkpt>
      <trkpt lat="47.12279" lon="-1.52947">
        <ele>69</ele>
        <time>2022-07-24T07:13:48Z</time>
      </trkpt>
      <trkpt lat="47.12286" lon="-1.52935">
        <ele>69</ele>
        <time>2022-07-24T07:13:50Z</time>
      </trkpt>
      <trkpt lat="47.12293" lon="-1.52923">
        <ele>70</ele>
        <time>2022-07-24T07:13:52Z</time>
      </trkpt>
      <trkpt lat="47.12299" lon="-1.5291">
        <ele>70</ele>
        <time>2022-07-24T07:13:54Z</time>
      </trkpt>
      <trkpt lat="47.12306" lon="-1.52897">
        <ele>70</ele>
        <time>2022-07-24T07:13:56Z</time>
      </trkpt>
      <trkpt lat="47.12313" lon="-1.52885">
        <ele>69</ele>
        <time>2022-07-24T07:13:58Z</time>
      </trkpt>
      <trkpt lat="47.12321" lon="-1.52873">
        <ele>69</ele>
        <time>2022-07-24T07:14:00Z</time>
      </trkpt>
      <trkpt lat="47.1233" lon="-1.52862">
        <ele>70</ele>
        <time>2022-07-24T07:14:02Z</time>
      </trkpt>
      <trkpt lat="47.12338" lon="-1.5285">
        <ele>70</ele>
        <time>2022-07-24T07:14:04Z</time>
      </trkpt>
      <trkpt lat="47.12346" lon="-1.5284">
        <ele>70</ele>
        <time>2022-07-24T07:14:06Z</time>
      </trkpt>
      <trkpt lat="47.12355" lon="-1.52831">
        <ele>70</ele>
        <time>2022-07-24T07:14:08Z</time>
      </trkpt>
      <trkpt lat="47.12364" lon="-1.52822">
        <ele>70</ele>
        <time>2022-07-24T07:14:10Z</time>
      </trkpt>
      <trkpt lat="47.12373" lon="-1.52813">
        <ele>71</ele>
        <time>2022-07-24T07:14:12Z</time>
      </trkpt>
      <trkpt lat="47.12382" lon="-1.52804">
        <ele>71</ele>
        <time>2022-07-24T07:14:14Z</time>
      </trkpt>
      <trkpt lat="47.1239" lon="-1.52796">
        <ele>71</ele>
        <time>2022-07-24T07:14:16Z</time>
      </trkpt>
      <trkpt lat="47.12399" lon="-1.52787">
        <ele>71</ele>
        <time>2022-07-24T07:14:18Z</time>
      </trkpt>
      <trkpt lat="47.12408" lon="-1.52779">
        <ele>72</ele>
        <time>2022-07-24T07:14:20Z</time>
      </trkpt>
      <trkpt lat="47.12417" lon="-1.52771">
        <ele>72</ele>
        <time>2022-07-24T07:14:22Z</time>
      </trkpt>
      <trkpt lat="47.12426" lon="-1.52762">
        <ele>73</ele>
        <time>2022-07-24T07:14:24Z</time>
      </trkpt>
      <trkpt lat="47.12435" lon="-1.52753">
        <ele>73</ele>
        <time>2022-07-24T07:14:26Z</time>
      </trkpt>
      <trkpt lat="47.12445" lon="-1.52746">
        <ele>73</ele>
        <time>2022-07-24T07:14:28Z</time>
      </trkpt>
      <trkpt lat="47.12455" lon="-1.5274">
        <ele>74</ele>
        <time>2022-07-24T07:14:30Z</time>
      </trkpt>
      <trkpt lat="47.12466" lon="-1.52735">
        <ele>74</ele>
        <time>2022-07-24T07:14:32Z</time>
      </trkpt>
      <trkpt lat="47.12476" lon="-1.52731">
        <ele>75</ele>
        <time>2022-07-24T07:14:34Z</time>
      </trkpt>
      <trkpt lat="47.12486" lon="-1.52729">
        <ele>75</ele>
        <time>2022-07-24T07:14:36Z</time>
      </trkpt>
      <trkpt lat="47.12494" lon="-1.52728">
        <ele>75</ele>
        <time>2022-07-24T07:14:38Z</time>
      </trkpt>
      <trkpt lat="47.12503" lon="-1.52723">
        <ele>75</ele>
        <time>2022-07-24T07:14:40Z</time>
      </trkpt>
      <trkpt lat="47.12509" lon="-1.52709">
        <ele>76</ele>
        <time>2022-07-24T07:14:43Z</time>
      </trkpt>
      <trkpt lat="47.1252" lon="-1.52701">
        <ele>77</ele>
        <time>2022-07-24T07:14:47Z</time>
      </trkpt>
      <trkpt lat="47.12531" lon="-1.52706">
        <ele>76</ele>
        <time>2022-07-24T07:14:49Z</time>
      </trkpt>
      <trkpt lat="47.12542" lon="-1.52714">
        <ele>76</ele>
        <time>2022-07-24T07:14:51Z</time>
      </trkpt>
      <trkpt lat="47.12554" lon="-1.52723">
        <ele>75</ele>
        <time>2022-07-24T07:14:53Z</time>
      </trkpt>
      <trkpt lat="47.12567" lon="-1.52732">
        <ele>75</ele>
        <time>2022-07-24T07:14:55Z</time>
      </trkpt>
      <trkpt lat="47.12579" lon="-1.52744">
        <ele>74</ele>
        <time>2022-07-24T07:14:57Z</time>
      </trkpt>
      <trkpt lat="47.12589" lon="-1.52757">
        <ele>73</ele>
        <time>2022-07-24T07:14:59Z</time>
      </trkpt>
      <trkpt lat="47.12599" lon="-1.52769">
        <ele>73</ele>
        <time>2022-07-24T07:15:01Z</time>
      </trkpt>
      <trkpt lat="47.12609" lon="-1.52781">
        <ele>73</ele>
        <time>2022-07-24T07:15:03Z</time>
      </trkpt>
      <trkpt lat="47.12619" lon="-1.52793">
        <ele>72</ele>
        <time>2022-07-24T07:15:05Z</time>
      </trkpt>
      <trkpt lat="47.12629" lon="-1.52806">
        <ele>73</ele>
        <time>2022-07-24T07:15:07Z</time>
      </trkpt>
      <trkpt lat="47.12639" lon="-1.52818">
        <ele>73</ele>
        <time>2022-07-24T07:15:09Z</time>
      </trkpt>
      <trkpt lat="47.12649" lon="-1.52831">
        <ele>72</ele>
        <time>2022-07-24T07:15:11Z</time>
      </trkpt>
      <trkpt lat="47.12659" lon="-1.52843">
        <ele>72</ele>
        <time>2022-07-24T07:15:13Z</time>
      </trkpt>
      <trkpt lat="47.12669" lon="-1.52856">
        <ele>72</ele>
        <time>2022-07-24T07:15:15Z</time>
      </trkpt>
      <trkpt lat="47.12679" lon="-1.52869">
        <ele>72</ele>
        <time>2022-07-24T07:15:17Z</time>
      </trkpt>
      <trkpt lat="47.12689" lon="-1.52881">
        <ele>72</ele>
        <time>2022-07-24T07:15:19Z</time>
      </trkpt>
      <trkpt lat="47.12699" lon="-1.52893">
        <ele>72</ele>
        <time>2022-07-24T07:15:21Z</time>
      </trkpt>
      <trkpt lat="47.12709" lon="-1.52906">
        <ele>72</ele>
        <time>2022-07-24T07:15:23Z</time>
      </trkpt>
      <trkpt lat="47.12719" lon="-1.52918">
        <ele>72</ele>
        <time>2022-07-24T07:15:25Z</time>
      </trkpt>
      <trkpt lat="47.1273" lon="-1.52932">
        <ele>72</ele>
        <time>2022-07-24T07:15:27Z</time>
      </trkpt>
      <trkpt lat="47.1274" lon="-1.52945">
        <ele>72</ele>
        <time>2022-07-24T07:15:29Z</time>
      </trkpt>
      <trkpt lat="47.1275" lon="-1.52959">
        <ele>72</ele>
        <time>2022-07-24T07:15:31Z</time>
      </trkpt>
      <trkpt lat="47.1276" lon="-1.52971">
        <ele>72</ele>
        <time>2022-07-24T07:15:33Z</time>
      </trkpt>
      <trkpt lat="47.1277" lon="-1.52984">
        <ele>72</ele>
        <time>2022-07-24T07:15:35Z</time>
      </trkpt>
      <trkpt lat="47.1278" lon="-1.52997">
        <ele>72</ele>
        <time>2022-07-24T07:15:37Z</time>
      </trkpt>
      <trkpt lat="47.1279" lon="-1.53009">
        <ele>72</ele>
        <time>2022-07-24T07:15:39Z</time>
      </trkpt>
      <trkpt lat="47.12801" lon="-1.53022">
        <ele>72</ele>
        <time>2022-07-24T07:15:41Z</time>
      </trkpt>
      <trkpt lat="47.12811" lon="-1.53035">
        <ele>72</ele>
        <time>2022-07-24T07:15:43Z</time>
      </trkpt>
      <trkpt lat="47.12821" lon="-1.53047">
        <ele>72</ele>
        <time>2022-07-24T07:15:45Z</time>
      </trkpt>
      <trkpt lat="47.1283" lon="-1.53059">
        <ele>72</ele>
        <time>2022-07-24T07:15:47Z</time>
      </trkpt>
      <trkpt lat="47.1284" lon="-1.53072">
        <ele>72</ele>
        <time>2022-07-24T07:15:49Z</time>
      </trkpt>
      <trkpt lat="47.1285" lon="-1.53083">
        <ele>72</ele>
        <time>2022-07-24T07:15:51Z</time>
      </trkpt>
      <trkpt lat="47.12859" lon="-1.53095">
        <ele>73</ele>
        <time>2022-07-24T07:15:53Z</time>
      </trkpt>
      <trkpt lat="47.12869" lon="-1.53108">
        <ele>73</ele>
        <time>2022-07-24T07:15:55Z</time>
      </trkpt>
      <trkpt lat="47.12879" lon="-1.5312">
        <ele>74</ele>
        <time>2022-07-24T07:15:57Z</time>
      </trkpt>
      <trkpt lat="47.12889" lon="-1.53133">
        <ele>74</ele>
        <time>2022-07-24T07:15:59Z</time>
      </trkpt>
      <trkpt lat="47.12899" lon="-1.53146">
        <ele>74</ele>
        <time>2022-07-24T07:16:01Z</time>
      </trkpt>
      <trkpt lat="47.12909" lon="-1.53158">
        <ele>74</ele>
        <time>2022-07-24T07:16:03Z</time>
      </trkpt>
      <trkpt lat="47.12918" lon="-1.5317">
        <ele>75</ele>
        <time>2022-07-24T07:16:05Z</time>
      </trkpt>
      <trkpt lat="47.12928" lon="-1.53182">
        <ele>75</ele>
        <time>2022-07-24T07:16:07Z</time>
      </trkpt>
      <trkpt lat="47.12938" lon="-1.53193">
        <ele>75</ele>
        <time>2022-07-24T07:16:09Z</time>
      </trkpt>
      <trkpt lat="47.12948" lon="-1.53204">
        <ele>75</ele>
        <time>2022-07-24T07:16:11Z</time>
      </trkpt>
      <trkpt lat="47.12959" lon="-1.53215">
        <ele>74</ele>
        <time>2022-07-24T07:16:13Z</time>
      </trkpt>
      <trkpt lat="47.1297" lon="-1.53226">
        <ele>74</ele>
        <time>2022-07-24T07:16:15Z</time>
      </trkpt>
      <trkpt lat="47.12981" lon="-1.53236">
        <ele>74</ele>
        <time>2022-07-24T07:16:17Z</time>
      </trkpt>
      <trkpt lat="47.12993" lon="-1.53244">
        <ele>74</ele>
        <time>2022-07-24T07:16:19Z</time>
      </trkpt>
      <trkpt lat="47.13005" lon="-1.53251">
        <ele>75</ele>
        <time>2022-07-24T07:16:21Z</time>
      </trkpt>
      <trkpt lat="47.13017" lon="-1.53256">
        <ele>75</ele>
        <time>2022-07-24T07:16:23Z</time>
      </trkpt>
      <trkpt lat="47.1303" lon="-1.53257">
        <ele>75</ele>
        <time>2022-07-24T07:16:25Z</time>
      </trkpt>
      <trkpt lat="47.13043" lon="-1.53256">
        <ele>75</ele>
        <time>2022-07-24T07:16:27Z</time>
      </trkpt>
      <trkpt lat="47.13056" lon="-1.53253">
        <ele>76</ele>
        <time>2022-07-24T07:16:29Z</time>
      </trkpt>
      <trkpt lat="47.13069" lon="-1.53249">
        <ele>76</ele>
        <time>2022-07-24T07:16:31Z</time>
      </trkpt>
      <trkpt lat="47.13081" lon="-1.53244">
        <ele>76</ele>
        <time>2022-07-24T07:16:33Z</time>
      </trkpt>
      <trkpt lat="47.13094" lon="-1.5324">
        <ele>77</ele>
        <time>2022-07-24T07:16:35Z</time>
      </trkpt>
      <trkpt lat="47.13106" lon="-1.53234">
        <ele>77</ele>
        <time>2022-07-24T07:16:37Z</time>
      </trkpt>
      <trkpt lat="47.13119" lon="-1.53229">
        <ele>78</ele>
        <time>2022-07-24T07:16:39Z</time>
      </trkpt>
      <trkpt lat="47.13132" lon="-1.53224">
        <ele>78</ele>
        <time>2022-07-24T07:16:41Z</time>
      </trkpt>
      <trkpt lat="47.13144" lon="-1.5322">
        <ele>78</ele>
        <time>2022-07-24T07:16:43Z</time>
      </trkpt>
      <trkpt lat="47.13157" lon="-1.53214">
        <ele>77</ele>
        <time>2022-07-24T07:16:45Z</time>
      </trkpt>
      <trkpt lat="47.13169" lon="-1.5321">
        <ele>78</ele>
        <time>2022-07-24T07:16:47Z</time>
      </trkpt>
      <trkpt lat="47.13181" lon="-1.53204">
        <ele>79</ele>
        <time>2022-07-24T07:16:49Z</time>
      </trkpt>
      <trkpt lat="47.13194" lon="-1.53199">
        <ele>79</ele>
        <time>2022-07-24T07:16:51Z</time>
      </trkpt>
      <trkpt lat="47.13207" lon="-1.53194">
        <ele>79</ele>
        <time>2022-07-24T07:16:53Z</time>
      </trkpt>
      <trkpt lat="47.1322" lon="-1.53189">
        <ele>79</ele>
        <time>2022-07-24T07:16:55Z</time>
      </trkpt>
      <trkpt lat="47.13233" lon="-1.53183">
        <ele>79</ele>
        <time>2022-07-24T07:16:57Z</time>
      </trkpt>
      <trkpt lat="47.13246" lon="-1.53179">
        <ele>79</ele>
        <time>2022-07-24T07:16:59Z</time>
      </trkpt>
      <trkpt lat="47.13258" lon="-1.53173">
        <ele>79</ele>
        <time>2022-07-24T07:17:01Z</time>
      </trkpt>
      <trkpt lat="47.13271" lon="-1.53169">
        <ele>80</ele>
        <time>2022-07-24T07:17:03Z</time>
      </trkpt>
      <trkpt lat="47.13283" lon="-1.53163">
        <ele>80</ele>
        <time>2022-07-24T07:17:05Z</time>
      </trkpt>
      <trkpt lat="47.13294" lon="-1.53157">
        <ele>81</ele>
        <time>2022-07-24T07:17:07Z</time>
      </trkpt>
      <trkpt lat="47.13306" lon="-1.53153">
        <ele>81</ele>
        <time>2022-07-24T07:17:09Z</time>
      </trkpt>
      <trkpt lat="47.13319" lon="-1.5315">
        <ele>80</ele>
        <time>2022-07-24T07:17:11Z</time>
      </trkpt>
      <trkpt lat="47.13331" lon="-1.53146">
        <ele>81</ele>
        <time>2022-07-24T07:17:13Z</time>
      </trkpt>
      <trkpt lat="47.13343" lon="-1.53143">
        <ele>81</ele>
        <time>2022-07-24T07:17:15Z</time>
      </trkpt>
      <trkpt lat="47.13355" lon="-1.53141">
        <ele>81</ele>
        <time>2022-07-24T07:17:17Z</time>
      </trkpt>
      <trkpt lat="47.13367" lon="-1.53138">
        <ele>81</ele>
        <time>2022-07-24T07:17:19Z</time>
      </trkpt>
      <trkpt lat="47.1338" lon="-1.53137">
        <ele>81</ele>
        <time>2022-07-24T07:17:21Z</time>
      </trkpt>
      <trkpt lat="47.13392" lon="-1.53138">
        <ele>81</ele>
        <time>2022-07-24T07:17:23Z</time>
      </trkpt>
      <trkpt lat="47.13404" lon="-1.53138">
        <ele>82</ele>
        <time>2022-07-24T07:17:25Z</time>
      </trkpt>
      <trkpt lat="47.13416" lon="-1.53138">
        <ele>82</ele>
        <time>2022-07-24T07:17:27Z</time>
      </trkpt>
      <trkpt lat="47.13427" lon="-1.53133">
        <ele>82</ele>
        <time>2022-07-24T07:17:29Z</time>
      </trkpt>
      <trkpt lat="47.13435" lon="-1.53118">
        <ele>82</ele>
        <time>2022-07-24T07:17:31Z</time>
      </trkpt>
      <trkpt lat="47.13441" lon="-1.53102">
        <ele>83</ele>
        <time>2022-07-24T07:17:33Z</time>
      </trkpt>
      <trkpt lat="47.13447" lon="-1.53087">
        <ele>83</ele>
        <time>2022-07-24T07:17:35Z</time>
      </trkpt>
      <trkpt lat="47.13454" lon="-1.53072">
        <ele>84</ele>
        <time>2022-07-24T07:17:37Z</time>
      </trkpt>
      <trkpt lat="47.13461" lon="-1.53057">
        <ele>84</ele>
        <time>2022-07-24T07:17:39Z</time>
      </trkpt>
      <trkpt lat="47.13468" lon="-1.53042">
        <ele>84</ele>
        <time>2022-07-24T07:17:41Z</time>
      </trkpt>
      <trkpt lat="47.13475" lon="-1.53026">
        <ele>84</ele>
        <time>2022-07-24T07:17:43Z</time>
      </trkpt>
      <trkpt lat="47.13482" lon="-1.53012">
        <ele>84</ele>
        <time>2022-07-24T07:17:45Z</time>
      </trkpt>
      <trkpt lat="47.13489" lon="-1.52996">
        <ele>85</ele>
        <time>2022-07-24T07:17:47Z</time>
      </trkpt>
      <trkpt lat="47.13496" lon="-1.5298">
        <ele>85</ele>
        <time>2022-07-24T07:17:49Z</time>
      </trkpt>
      <trkpt lat="47.13502" lon="-1.52965">
        <ele>85</ele>
        <time>2022-07-24T07:17:51Z</time>
      </trkpt>
      <trkpt lat="47.1351" lon="-1.5295">
        <ele>85</ele>
        <time>2022-07-24T07:17:53Z</time>
      </trkpt>
      <trkpt lat="47.13516" lon="-1.52934">
        <ele>85</ele>
        <time>2022-07-24T07:17:55Z</time>
      </trkpt>
      <trkpt lat="47.13524" lon="-1.52919">
        <ele>85</ele>
        <time>2022-07-24T07:17:57Z</time>
      </trkpt>
      <trkpt lat="47.13531" lon="-1.52903">
        <ele>85</ele>
        <time>2022-07-24T07:17:59Z</time>
      </trkpt>
      <trkpt lat="47.13538" lon="-1.52887">
        <ele>85</ele>
        <time>2022-07-24T07:18:01Z</time>
      </trkpt>
      <trkpt lat="47.13545" lon="-1.52872">
        <ele>85</ele>
        <time>2022-07-24T07:18:03Z</time>
      </trkpt>
      <trkpt lat="47.13552" lon="-1.52856">
        <ele>85</ele>
        <time>2022-07-24T07:18:05Z</time>
      </trkpt>
      <trkpt lat="47.13559" lon="-1.5284">
        <ele>85</ele>
        <time>2022-07-24T07:18:07Z</time>
      </trkpt>
      <trkpt lat="47.13566" lon="-1.52825">
        <ele>85</ele>
        <time>2022-07-24T07:18:09Z</time>
      </trkpt>
      <trkpt lat="47.13573" lon="-1.52809">
        <ele>85</ele>
        <time>2022-07-24T07:18:11Z</time>
      </trkpt>
      <trkpt lat="47.13581" lon="-1.52793">
        <ele>85</ele>
        <time>2022-07-24T07:18:13Z</time>
      </trkpt>
      <trkpt lat="47.13588" lon="-1.52778">
        <ele>85</ele>
        <time>2022-07-24T07:18:15Z</time>
      </trkpt>
      <trkpt lat="47.13596" lon="-1.52762">
        <ele>86</ele>
        <time>2022-07-24T07:18:17Z</time>
      </trkpt>
      <trkpt lat="47.13604" lon="-1.52747">
        <ele>86</ele>
        <time>2022-07-24T07:18:19Z</time>
      </trkpt>
      <trkpt lat="47.13613" lon="-1.52733">
        <ele>86</ele>
        <time>2022-07-24T07:18:21Z</time>
      </trkpt>
      <trkpt lat="47.13622" lon="-1.52719">
        <ele>86</ele>
        <time>2022-07-24T07:18:23Z</time>
      </trkpt>
      <trkpt lat="47.1363" lon="-1.52705">
        <ele>86</ele>
        <time>2022-07-24T07:18:25Z</time>
      </trkpt>
      <trkpt lat="47.13638" lon="-1.52691">
        <ele>86</ele>
        <time>2022-07-24T07:18:27Z</time>
      </trkpt>
      <trkpt lat="47.13646" lon="-1.52678">
        <ele>87</ele>
        <time>2022-07-24T07:18:29Z</time>
      </trkpt>
      <trkpt lat="47.13654" lon="-1.52664">
        <ele>87</ele>
        <time>2022-07-24T07:18:31Z</time>
      </trkpt>
      <trkpt lat="47.13662" lon="-1.5265">
        <ele>87</ele>
        <time>2022-07-24T07:18:33Z</time>
      </trkpt>
      <trkpt lat="47.13671" lon="-1.52637">
        <ele>87</ele>
        <time>2022-07-24T07:18:35Z</time>
      </trkpt>
      <trkpt lat="47.1368" lon="-1.52623">
        <ele>87</ele>
        <time>2022-07-24T07:18:37Z</time>
      </trkpt>
      <trkpt lat="47.13688" lon="-1.5261">
        <ele>87</ele>
        <time>2022-07-24T07:18:39Z</time>
      </trkpt>
      <trkpt lat="47.13697" lon="-1.52596">
        <ele>87</ele>
        <time>2022-07-24T07:18:41Z</time>
      </trkpt>
      <trkpt lat="47.13706" lon="-1.52582">
        <ele>87</ele>
        <time>2022-07-24T07:18:43Z</time>
      </trkpt>
      <trkpt lat="47.13714" lon="-1.52568">
        <ele>87</ele>
        <time>2022-07-24T07:18:45Z</time>
      </trkpt>
      <trkpt lat="47.13723" lon="-1.52554">
        <ele>87</ele>
        <time>2022-07-24T07:18:47Z</time>
      </trkpt>
      <trkpt lat="47.13731" lon="-1.5254">
        <ele>87</ele>
        <time>2022-07-24T07:18:49Z</time>
      </trkpt>
      <trkpt lat="47.1374" lon="-1.52526">
        <ele>88</ele>
        <time>2022-07-24T07:18:51Z</time>
      </trkpt>
      <trkpt lat="47.13749" lon="-1.52513">
        <ele>88</ele>
        <time>2022-07-24T07:18:53Z</time>
      </trkpt>
      <trkpt lat="47.13758" lon="-1.52499">
        <ele>87</ele>
        <time>2022-07-24T07:18:55Z</time>
      </trkpt>
      <trkpt lat="47.13766" lon="-1.52485">
        <ele>87</ele>
        <time>2022-07-24T07:18:57Z</time>
      </trkpt>
      <trkpt lat="47.13775" lon="-1.52471">
        <ele>87</ele>
        <time>2022-07-24T07:18:59Z</time>
      </trkpt>
      <trkpt lat="47.13784" lon="-1.52458">
        <ele>87</ele>
        <time>2022-07-24T07:19:01Z</time>
      </trkpt>
      <trkpt lat="47.13793" lon="-1.52443">
        <ele>87</ele>
        <time>2022-07-24T07:19:03Z</time>
      </trkpt>
      <trkpt lat="47.13802" lon="-1.5243">
        <ele>87</ele>
        <time>2022-07-24T07:19:05Z</time>
      </trkpt>
      <trkpt lat="47.13811" lon="-1.52416">
        <ele>87</ele>
        <time>2022-07-24T07:19:07Z</time>
      </trkpt>
      <trkpt lat="47.1382" lon="-1.52402">
        <ele>87</ele>
        <time>2022-07-24T07:19:09Z</time>
      </trkpt>
      <trkpt lat="47.13829" lon="-1.52389">
        <ele>87</ele>
        <time>2022-07-24T07:19:11Z</time>
      </trkpt>
      <trkpt lat="47.13838" lon="-1.52376">
        <ele>87</ele>
        <time>2022-07-24T07:19:13Z</time>
      </trkpt>
      <trkpt lat="47.13847" lon="-1.52361">
        <ele>87</ele>
        <time>2022-07-24T07:19:15Z</time>
      </trkpt>
      <trkpt lat="47.13855" lon="-1.52346">
        <ele>87</ele>
        <time>2022-07-24T07:19:17Z</time>
      </trkpt>
      <trkpt lat="47.13861" lon="-1.52329">
        <ele>87</ele>
        <time>2022-07-24T07:19:19Z</time>
      </trkpt>
      <trkpt lat="47.13869" lon="-1.52315">
        <ele>87</ele>
        <time>2022-07-24T07:19:21Z</time>
      </trkpt>
      <trkpt lat="47.1388" lon="-1.52305">
        <ele>86</ele>
        <time>2022-07-24T07:19:23Z</time>
      </trkpt>
      <trkpt lat="47.13892" lon="-1.52295">
        <ele>87</ele>
        <time>2022-07-24T07:19:25Z</time>
      </trkpt>
      <trkpt lat="47.13902" lon="-1.52282">
        <ele>87</ele>
        <time>2022-07-24T07:19:27Z</time>
      </trkpt>
      <trkpt lat="47.13911" lon="-1.52268">
        <ele>87</ele>
        <time>2022-07-24T07:19:29Z</time>
      </trkpt>
      <trkpt lat="47.1392" lon="-1.52255">
        <ele>87</ele>
        <time>2022-07-24T07:19:31Z</time>
      </trkpt>
      <trkpt lat="47.13929" lon="-1.52241">
        <ele>87</ele>
        <time>2022-07-24T07:19:33Z</time>
      </trkpt>
      <trkpt lat="47.13938" lon="-1.52228">
        <ele>87</ele>
        <time>2022-07-24T07:19:35Z</time>
      </trkpt>
      <trkpt lat="47.13947" lon="-1.52216">
        <ele>88</ele>
        <time>2022-07-24T07:19:37Z</time>
      </trkpt>
      <trkpt lat="47.13956" lon="-1.52203">
        <ele>88</ele>
        <time>2022-07-24T07:19:39Z</time>
      </trkpt>
      <trkpt lat="47.13965" lon="-1.52191">
        <ele>88</ele>
        <time>2022-07-24T07:19:41Z</time>
      </trkpt>
      <trkpt lat="47.13974" lon="-1.52178">
        <ele>88</ele>
        <time>2022-07-24T07:19:43Z</time>
      </trkpt>
      <trkpt lat="47.13983" lon="-1.52165">
        <ele>88</ele>
        <time>2022-07-24T07:19:45Z</time>
      </trkpt>
      <trkpt lat="47.13993" lon="-1.52155">
        <ele>88</ele>
        <time>2022-07-24T07:19:47Z</time>
      </trkpt>
      <trkpt lat="47.14003" lon="-1.52146">
        <ele>88</ele>
        <time>2022-07-24T07:19:49Z</time>
      </trkpt>
      <trkpt lat="47.14012" lon="-1.52136">
        <ele>88</ele>
        <time>2022-07-24T07:19:51Z</time>
      </trkpt>
      <trkpt lat="47.14019" lon="-1.52125">
        <ele>88</ele>
        <time>2022-07-24T07:19:53Z</time>
      </trkpt>
      <trkpt lat="47.14027" lon="-1.52111">
        <ele>89</ele>
        <time>2022-07-24T07:19:56Z</time>
      </trkpt>
      <trkpt lat="47.14035" lon="-1.52101">
        <ele>89</ele>
        <time>2022-07-24T07:19:59Z</time>
      </trkpt>
      <trkpt lat="47.14044" lon="-1.52095">
        <ele>89</ele>
        <time>2022-07-24T07:20:01Z</time>
      </trkpt>
      <trkpt lat="47.14055" lon="-1.52087">
        <ele>89</ele>
        <time>2022-07-24T07:20:03Z</time>
      </trkpt>
      <trkpt lat="47.14066" lon="-1.52075">
        <ele>89</ele>
        <time>2022-07-24T07:20:05Z</time>
      </trkpt>
      <trkpt lat="47.14076" lon="-1.52063">
        <ele>88</ele>
        <time>2022-07-24T07:20:07Z</time>
      </trkpt>
      <trkpt lat="47.14087" lon="-1.52051">
        <ele>88</ele>
        <time>2022-07-24T07:20:09Z</time>
      </trkpt>
      <trkpt lat="47.14098" lon="-1.52039">
        <ele>88</ele>
        <time>2022-07-24T07:20:11Z</time>
      </trkpt>
      <trkpt lat="47.1411" lon="-1.52028">
        <ele>88</ele>
        <time>2022-07-24T07:20:13Z</time>
      </trkpt>
      <trkpt lat="47.14121" lon="-1.52018">
        <ele>88</ele>
        <time>2022-07-24T07:20:15Z</time>
      </trkpt>
      <trkpt lat="47.14132" lon="-1.52007">
        <ele>89</ele>
        <time>2022-07-24T07:20:17Z</time>
      </trkpt>
      <trkpt lat="47.14143" lon="-1.51998">
        <ele>89</ele>
        <time>2022-07-24T07:20:19Z</time>
      </trkpt>
      <trkpt lat="47.14153" lon="-1.51987">
        <ele>89</ele>
        <time>2022-07-24T07:20:21Z</time>
      </trkpt>
      <trkpt lat="47.14164" lon="-1.51977">
        <ele>89</ele>
        <time>2022-07-24T07:20:23Z</time>
      </trkpt>
      <trkpt lat="47.14175" lon="-1.51966">
        <ele>89</ele>
        <time>2022-07-24T07:20:25Z</time>
      </trkpt>
      <trkpt lat="47.14187" lon="-1.51956">
        <ele>89</ele>
        <time>2022-07-24T07:20:27Z</time>
      </trkpt>
      <trkpt lat="47.14198" lon="-1.51945">
        <ele>89</ele>
        <time>2022-07-24T07:20:29Z</time>
      </trkpt>
      <trkpt lat="47.14209" lon="-1.51935">
        <ele>89</ele>
        <time>2022-07-24T07:20:31Z</time>
      </trkpt>
      <trkpt lat="47.14219" lon="-1.51924">
        <ele>89</ele>
        <time>2022-07-24T07:20:33Z</time>
      </trkpt>
      <trkpt lat="47.1423" lon="-1.51913">
        <ele>88</ele>
        <time>2022-07-24T07:20:35Z</time>
      </trkpt>
      <trkpt lat="47.1424" lon="-1.51902">
        <ele>89</ele>
        <time>2022-07-24T07:20:37Z</time>
      </trkpt>
      <trkpt lat="47.14251" lon="-1.51892">
        <ele>88</ele>
        <time>2022-07-24T07:20:39Z</time>
      </trkpt>
      <trkpt lat="47.14263" lon="-1.51881">
        <ele>88</ele>
        <time>2022-07-24T07:20:41Z</time>
      </trkpt>
      <trkpt lat="47.14274" lon="-1.5187">
        <ele>88</ele>
        <time>2022-07-24T07:20:43Z</time>
      </trkpt>
      <trkpt lat="47.14285" lon="-1.51859">
        <ele>88</ele>
        <time>2022-07-24T07:20:45Z</time>
      </trkpt>
      <trkpt lat="47.14295" lon="-1.51848">
        <ele>88</ele>
        <time>2022-07-24T07:20:47Z</time>
      </trkpt>
      <trkpt lat="47.14305" lon="-1.51837">
        <ele>87</ele>
        <time>2022-07-24T07:20:49Z</time>
      </trkpt>
      <trkpt lat="47.14315" lon="-1.51827">
        <ele>87</ele>
        <time>2022-07-24T07:20:51Z</time>
      </trkpt>
      <trkpt lat="47.14326" lon="-1.51815">
        <ele>87</ele>
        <time>2022-07-24T07:20:53Z</time>
      </trkpt>
      <trkpt lat="47.14338" lon="-1.51805">
        <ele>88</ele>
        <time>2022-07-24T07:20:55Z</time>
      </trkpt>
      <trkpt lat="47.14348" lon="-1.51794">
        <ele>88</ele>
        <time>2022-07-24T07:20:57Z</time>
      </trkpt>
      <trkpt lat="47.14359" lon="-1.51782">
        <ele>88</ele>
        <time>2022-07-24T07:20:59Z</time>
      </trkpt>
      <trkpt lat="47.1437" lon="-1.51771">
        <ele>88</ele>
        <time>2022-07-24T07:21:01Z</time>
      </trkpt>
      <trkpt lat="47.14381" lon="-1.5176">
        <ele>87</ele>
        <time>2022-07-24T07:21:03Z</time>
      </trkpt>
      <trkpt lat="47.14392" lon="-1.51749">
        <ele>87</ele>
        <time>2022-07-24T07:21:05Z</time>
      </trkpt>
      <trkpt lat="47.14403" lon="-1.51738">
        <ele>87</ele>
        <time>2022-07-24T07:21:07Z</time>
      </trkpt>
      <trkpt lat="47.14414" lon="-1.51727">
        <ele>87</ele>
        <time>2022-07-24T07:21:09Z</time>
      </trkpt>
      <trkpt lat="47.14425" lon="-1.51715">
        <ele>87</ele>
        <time>2022-07-24T07:21:11Z</time>
      </trkpt>
      <trkpt lat="47.14436" lon="-1.51704">
        <ele>87</ele>
        <time>2022-07-24T07:21:13Z</time>
      </trkpt>
      <trkpt lat="47.14447" lon="-1.51693">
        <ele>87</ele>
        <time>2022-07-24T07:21:15Z</time>
      </trkpt>
      <trkpt lat="47.14458" lon="-1.51682">
        <ele>86</ele>
        <time>2022-07-24T07:21:17Z</time>
      </trkpt>
      <trkpt lat="47.14468" lon="-1.51671">
        <ele>86</ele>
        <time>2022-07-24T07:21:19Z</time>
      </trkpt>
      <trkpt lat="47.14479" lon="-1.5166">
        <ele>86</ele>
        <time>2022-07-24T07:21:21Z</time>
      </trkpt>
      <trkpt lat="47.1449" lon="-1.51648">
        <ele>86</ele>
        <time>2022-07-24T07:21:23Z</time>
      </trkpt>
      <trkpt lat="47.14501" lon="-1.51636">
        <ele>86</ele>
        <time>2022-07-24T07:21:25Z</time>
      </trkpt>
      <trkpt lat="47.14512" lon="-1.51624">
        <ele>86</ele>
        <time>2022-07-24T07:21:27Z</time>
      </trkpt>
      <trkpt lat="47.14522" lon="-1.51611">
        <ele>86</ele>
        <time>2022-07-24T07:21:29Z</time>
      </trkpt>
      <trkpt lat="47.14532" lon="-1.51598">
        <ele>85</ele>
        <time>2022-07-24T07:21:31Z</time>
      </trkpt>
      <trkpt lat="47.14543" lon="-1.51585">
        <ele>85</ele>
        <time>2022-07-24T07:21:33Z</time>
      </trkpt>
      <trkpt lat="47.14553" lon="-1.51573">
        <ele>85</ele>
        <time>2022-07-24T07:21:35Z</time>
      </trkpt>
      <trkpt lat="47.14562" lon="-1.51559">
        <ele>85</ele>
        <time>2022-07-24T07:21:37Z</time>
      </trkpt>
      <trkpt lat="47.14571" lon="-1.51545">
        <ele>85</ele>
        <time>2022-07-24T07:21:39Z</time>
      </trkpt>
      <trkpt lat="47.14579" lon="-1.51532">
        <ele>85</ele>
        <time>2022-07-24T07:21:41Z</time>
      </trkpt>
      <trkpt lat="47.14587" lon="-1.51518">
        <ele>86</ele>
        <time>2022-07-24T07:21:43Z</time>
      </trkpt>
      <trkpt lat="47.14594" lon="-1.51503">
        <ele>87</ele>
        <time>2022-07-24T07:21:45Z</time>
      </trkpt>
      <trkpt lat="47.14601" lon="-1.51488">
        <ele>87</ele>
        <time>2022-07-24T07:21:47Z</time>
      </trkpt>
      <trkpt lat="47.14608" lon="-1.51474">
        <ele>87</ele>
        <time>2022-07-24T07:21:49Z</time>
      </trkpt>
      <trkpt lat="47.14615" lon="-1.5146">
        <ele>87</ele>
        <time>2022-07-24T07:21:51Z</time>
      </trkpt>
      <trkpt lat="47.14622" lon="-1.51445">
        <ele>87</ele>
        <time>2022-07-24T07:21:53Z</time>
      </trkpt>
      <trkpt lat="47.1463" lon="-1.51431">
        <ele>87</ele>
        <time>2022-07-24T07:21:55Z</time>
      </trkpt>
      <trkpt lat="47.14637" lon="-1.51415">
        <ele>86</ele>
        <time>2022-07-24T07:21:57Z</time>
      </trkpt>
      <trkpt lat="47.14646" lon="-1.514">
        <ele>86</ele>
        <time>2022-07-24T07:21:59Z</time>
      </trkpt>
      <trkpt lat="47.14654" lon="-1.51383">
        <ele>85</ele>
        <time>2022-07-24T07:22:01Z</time>
      </trkpt>
      <trkpt lat="47.14663" lon="-1.51366">
        <ele>85</ele>
        <time>2022-07-24T07:22:03Z</time>
      </trkpt>
      <trkpt lat="47.14672" lon="-1.51348">
        <ele>84</ele>
        <time>2022-07-24T07:22:05Z</time>
      </trkpt>
      <trkpt lat="47.14681" lon="-1.5133">
        <ele>84</ele>
        <time>2022-07-24T07:22:07Z</time>
      </trkpt>
      <trkpt lat="47.1469" lon="-1.51312">
        <ele>83</ele>
        <time>2022-07-24T07:22:09Z</time>
      </trkpt>
      <trkpt lat="47.14699" lon="-1.51294">
        <ele>83</ele>
        <time>2022-07-24T07:22:11Z</time>
      </trkpt>
      <trkpt lat="47.14708" lon="-1.51275">
        <ele>83</ele>
        <time>2022-07-24T07:22:13Z</time>
      </trkpt>
      <trkpt lat="47.14717" lon="-1.51258">
        <ele>83</ele>
        <time>2022-07-24T07:22:15Z</time>
      </trkpt>
      <trkpt lat="47.14725" lon="-1.5124">
        <ele>82</ele>
        <time>2022-07-24T07:22:17Z</time>
      </trkpt>
      <trkpt lat="47.14735" lon="-1.51223">
        <ele>82</ele>
        <time>2022-07-24T07:22:19Z</time>
      </trkpt>
      <trkpt lat="47.14744" lon="-1.51206">
        <ele>82</ele>
        <time>2022-07-24T07:22:21Z</time>
      </trkpt>
      <trkpt lat="47.14752" lon="-1.51188">
        <ele>82</ele>
        <time>2022-07-24T07:22:23Z</time>
      </trkpt>
      <trkpt lat="47.14762" lon="-1.5117">
        <ele>82</ele>
        <time>2022-07-24T07:22:25Z</time>
      </trkpt>
      <trkpt lat="47.14771" lon="-1.51153">
        <ele>82</ele>
        <time>2022-07-24T07:22:27Z</time>
      </trkpt>
      <trkpt lat="47.14781" lon="-1.51135">
        <ele>82</ele>
        <time>2022-07-24T07:22:29Z</time>
      </trkpt>
      <trkpt lat="47.1479" lon="-1.51118">
        <ele>82</ele>
        <time>2022-07-24T07:22:31Z</time>
      </trkpt>
      <trkpt lat="47.148" lon="-1.51101">
        <ele>81</ele>
        <time>2022-07-24T07:22:33Z</time>
      </trkpt>
      <trkpt lat="47.14809" lon="-1.51083">
        <ele>81</ele>
        <time>2022-07-24T07:22:35Z</time>
      </trkpt>
      <trkpt lat="47.14819" lon="-1.51066">
        <ele>81</ele>
        <time>2022-07-24T07:22:37Z</time>
      </trkpt>
      <trkpt lat="47.14829" lon="-1.5105">
        <ele>81</ele>
        <time>2022-07-24T07:22:39Z</time>
      </trkpt>
      <trkpt lat="47.14839" lon="-1.51033">
        <ele>81</ele>
        <time>2022-07-24T07:22:41Z</time>
      </trkpt>
      <trkpt lat="47.14849" lon="-1.51016">
        <ele>80</ele>
        <time>2022-07-24T07:22:43Z</time>
      </trkpt>
      <trkpt lat="47.14859" lon="-1.51">
        <ele>80</ele>
        <time>2022-07-24T07:22:45Z</time>
      </trkpt>
      <trkpt lat="47.14869" lon="-1.50984">
        <ele>80</ele>
        <time>2022-07-24T07:22:47Z</time>
      </trkpt>
      <trkpt lat="47.14879" lon="-1.50968">
        <ele>80</ele>
        <time>2022-07-24T07:22:49Z</time>
      </trkpt>
      <trkpt lat="47.1489" lon="-1.50952">
        <ele>80</ele>
        <time>2022-07-24T07:22:51Z</time>
      </trkpt>
      <trkpt lat="47.149" lon="-1.50935">
        <ele>80</ele>
        <time>2022-07-24T07:22:53Z</time>
      </trkpt>
      <trkpt lat="47.14911" lon="-1.50919">
        <ele>80</ele>
        <time>2022-07-24T07:22:55Z</time>
      </trkpt>
      <trkpt lat="47.14922" lon="-1.50903">
        <ele>80</ele>
        <time>2022-07-24T07:22:57Z</time>
      </trkpt>
      <trkpt lat="47.14932" lon="-1.50888">
        <ele>79</ele>
        <time>2022-07-24T07:22:59Z</time>
      </trkpt>
      <trkpt lat="47.14943" lon="-1.50873">
        <ele>79</ele>
        <time>2022-07-24T07:23:01Z</time>
      </trkpt>
      <trkpt lat="47.14954" lon="-1.50857">
        <ele>78</ele>
        <time>2022-07-24T07:23:03Z</time>
      </trkpt>
      <trkpt lat="47.14965" lon="-1.50842">
        <ele>78</ele>
        <time>2022-07-24T07:23:05Z</time>
      </trkpt>
      <trkpt lat="47.14975" lon="-1.50827">
        <ele>77</ele>
        <time>2022-07-24T07:23:07Z</time>
      </trkpt>
      <trkpt lat="47.14986" lon="-1.50812">
        <ele>77</ele>
        <time>2022-07-24T07:23:09Z</time>
      </trkpt>
      <trkpt lat="47.14998" lon="-1.50797">
        <ele>77</ele>
        <time>2022-07-24T07:23:11Z</time>
      </trkpt>
      <trkpt lat="47.15009" lon="-1.50783">
        <ele>77</ele>
        <time>2022-07-24T07:23:13Z</time>
      </trkpt>
      <trkpt lat="47.1502" lon="-1.50769">
        <ele>77</ele>
        <time>2022-07-24T07:23:15Z</time>
      </trkpt>
      <trkpt lat="47.15031" lon="-1.50755">
        <ele>77</ele>
        <time>2022-07-24T07:23:17Z</time>
      </trkpt>
      <trkpt lat="47.15042" lon="-1.50741">
        <ele>77</ele>
        <time>2022-07-24T07:23:19Z</time>
      </trkpt>
      <trkpt lat="47.15054" lon="-1.50727">
        <ele>77</ele>
        <time>2022-07-24T07:23:21Z</time>
      </trkpt>
      <trkpt lat="47.15065" lon="-1.50713">
        <ele>77</ele>
        <time>2022-07-24T07:23:23Z</time>
      </trkpt>
      <trkpt lat="47.15076" lon="-1.50699">
        <ele>77</ele>
        <time>2022-07-24T07:23:25Z</time>
      </trkpt>
      <trkpt lat="47.15088" lon="-1.50685">
        <ele>77</ele>
        <time>2022-07-24T07:23:27Z</time>
      </trkpt>
      <trkpt lat="47.15099" lon="-1.50672">
        <ele>77</ele>
        <time>2022-07-24T07:23:29Z</time>
      </trkpt>
      <trkpt lat="47.15111" lon="-1.50658">
        <ele>77</ele>
        <time>2022-07-24T07:23:31Z</time>
      </trkpt>
      <trkpt lat="47.15122" lon="-1.50645">
        <ele>76</ele>
        <time>2022-07-24T07:23:33Z</time>
      </trkpt>
      <trkpt lat="47.15134" lon="-1.50633">
        <ele>76</ele>
        <time>2022-07-24T07:23:35Z</time>
      </trkpt>
      <trkpt lat="47.15145" lon="-1.5062">
        <ele>76</ele>
        <time>2022-07-24T07:23:37Z</time>
      </trkpt>
      <trkpt lat="47.15156" lon="-1.50607">
        <ele>76</ele>
        <time>2022-07-24T07:23:39Z</time>
      </trkpt>
      <trkpt lat="47.15166" lon="-1.50595">
        <ele>77</ele>
        <time>2022-07-24T07:23:41Z</time>
      </trkpt>
      <trkpt lat="47.15176" lon="-1.50583">
        <ele>77</ele>
        <time>2022-07-24T07:23:43Z</time>
      </trkpt>
      <trkpt lat="47.15186" lon="-1.50571">
        <ele>77</ele>
        <time>2022-07-24T07:23:45Z</time>
      </trkpt>
      <trkpt lat="47.15195" lon="-1.5056">
        <ele>77</ele>
        <time>2022-07-24T07:23:47Z</time>
      </trkpt>
      <trkpt lat="47.15205" lon="-1.5055">
        <ele>78</ele>
        <time>2022-07-24T07:23:49Z</time>
      </trkpt>
      <trkpt lat="47.15214" lon="-1.50539">
        <ele>78</ele>
        <time>2022-07-24T07:23:51Z</time>
      </trkpt>
      <trkpt lat="47.15224" lon="-1.50527">
        <ele>78</ele>
        <time>2022-07-24T07:23:53Z</time>
      </trkpt>
      <trkpt lat="47.15233" lon="-1.50516">
        <ele>78</ele>
        <time>2022-07-24T07:23:55Z</time>
      </trkpt>
      <trkpt lat="47.15243" lon="-1.50506">
        <ele>78</ele>
        <time>2022-07-24T07:23:57Z</time>
      </trkpt>
      <trkpt lat="47.15252" lon="-1.50495">
        <ele>79</ele>
        <time>2022-07-24T07:23:59Z</time>
      </trkpt>
      <trkpt lat="47.15262" lon="-1.50484">
        <ele>79</ele>
        <time>2022-07-24T07:24:01Z</time>
      </trkpt>
      <trkpt lat="47.15271" lon="-1.50473">
        <ele>79</ele>
        <time>2022-07-24T07:24:03Z</time>
      </trkpt>
      <trkpt lat="47.15281" lon="-1.50462">
        <ele>79</ele>
        <time>2022-07-24T07:24:05Z</time>
      </trkpt>
      <trkpt lat="47.1529" lon="-1.50451">
        <ele>80</ele>
        <time>2022-07-24T07:24:07Z</time>
      </trkpt>
      <trkpt lat="47.15299" lon="-1.5044">
        <ele>80</ele>
        <time>2022-07-24T07:24:09Z</time>
      </trkpt>
      <trkpt lat="47.15309" lon="-1.5043">
        <ele>80</ele>
        <time>2022-07-24T07:24:11Z</time>
      </trkpt>
      <trkpt lat="47.15318" lon="-1.50419">
        <ele>80</ele>
        <time>2022-07-24T07:24:13Z</time>
      </trkpt>
      <trkpt lat="47.15328" lon="-1.50408">
        <ele>81</ele>
        <time>2022-07-24T07:24:15Z</time>
      </trkpt>
      <trkpt lat="47.15338" lon="-1.50397">
        <ele>81</ele>
        <time>2022-07-24T07:24:17Z</time>
      </trkpt>
      <trkpt lat="47.15347" lon="-1.50386">
        <ele>81</ele>
        <time>2022-07-24T07:24:19Z</time>
      </trkpt>
      <trkpt lat="47.15357" lon="-1.50374">
        <ele>81</ele>
        <time>2022-07-24T07:24:21Z</time>
      </trkpt>
      <trkpt lat="47.15367" lon="-1.50363">
        <ele>81</ele>
        <time>2022-07-24T07:24:23Z</time>
      </trkpt>
      <trkpt lat="47.15377" lon="-1.50352">
        <ele>82</ele>
        <time>2022-07-24T07:24:25Z</time>
      </trkpt>
      <trkpt lat="47.15387" lon="-1.50341">
        <ele>82</ele>
        <time>2022-07-24T07:24:27Z</time>
      </trkpt>
      <trkpt lat="47.15397" lon="-1.50331">
        <ele>82</ele>
        <time>2022-07-24T07:24:29Z</time>
      </trkpt>
      <trkpt lat="47.15407" lon="-1.50321">
        <ele>82</ele>
        <time>2022-07-24T07:24:31Z</time>
      </trkpt>
      <trkpt lat="47.15418" lon="-1.50312">
        <ele>83</ele>
        <time>2022-07-24T07:24:33Z</time>
      </trkpt>
      <trkpt lat="47.15429" lon="-1.50305">
        <ele>82</ele>
        <time>2022-07-24T07:24:35Z</time>
      </trkpt>
      <trkpt lat="47.15441" lon="-1.50297">
        <ele>82</ele>
        <time>2022-07-24T07:24:37Z</time>
      </trkpt>
      <trkpt lat="47.15453" lon="-1.5029">
        <ele>82</ele>
        <time>2022-07-24T07:24:39Z</time>
      </trkpt>
      <trkpt lat="47.15464" lon="-1.50284">
        <ele>82</ele>
        <time>2022-07-24T07:24:41Z</time>
      </trkpt>
      <trkpt lat="47.15477" lon="-1.50278">
        <ele>82</ele>
        <time>2022-07-24T07:24:43Z</time>
      </trkpt>
      <trkpt lat="47.15489" lon="-1.50272">
        <ele>82</ele>
        <time>2022-07-24T07:24:45Z</time>
      </trkpt>
      <trkpt lat="47.15502" lon="-1.50267">
        <ele>82</ele>
        <time>2022-07-24T07:24:47Z</time>
      </trkpt>
      <trkpt lat="47.15514" lon="-1.50261">
        <ele>82</ele>
        <time>2022-07-24T07:24:49Z</time>
      </trkpt>
      <trkpt lat="47.15527" lon="-1.50255">
        <ele>81</ele>
        <time>2022-07-24T07:24:51Z</time>
      </trkpt>
      <trkpt lat="47.15539" lon="-1.50248">
        <ele>81</ele>
        <time>2022-07-24T07:24:53Z</time>
      </trkpt>
      <trkpt lat="47.15551" lon="-1.50238">
        <ele>80</ele>
        <time>2022-07-24T07:24:55Z</time>
      </trkpt>
      <trkpt lat="47.15563" lon="-1.50228">
        <ele>80</ele>
        <time>2022-07-24T07:24:57Z</time>
      </trkpt>
      <trkpt lat="47.15574" lon="-1.50217">
        <ele>79</ele>
        <time>2022-07-24T07:24:59Z</time>
      </trkpt>
      <trkpt lat="47.15585" lon="-1.50206">
        <ele>79</ele>
        <time>2022-07-24T07:25:01Z</time>
      </trkpt>
      <trkpt lat="47.15596" lon="-1.50195">
        <ele>79</ele>
        <time>2022-07-24T07:25:03Z</time>
      </trkpt>
      <trkpt lat="47.15607" lon="-1.50184">
        <ele>79</ele>
        <time>2022-07-24T07:25:05Z</time>
      </trkpt>
      <trkpt lat="47.15618" lon="-1.50174">
        <ele>79</ele>
        <time>2022-07-24T07:25:07Z</time>
      </trkpt>
      <trkpt lat="47.15629" lon="-1.50164">
        <ele>79</ele>
        <time>2022-07-24T07:25:09Z</time>
      </trkpt>
      <trkpt lat="47.1564" lon="-1.50153">
        <ele>78</ele>
        <time>2022-07-24T07:25:11Z</time>
      </trkpt>
      <trkpt lat="47.15651" lon="-1.50143">
        <ele>78</ele>
        <time>2022-07-24T07:25:13Z</time>
      </trkpt>
      <trkpt lat="47.15662" lon="-1.50132">
        <ele>78</ele>
        <time>2022-07-24T07:25:15Z</time>
      </trkpt>
      <trkpt lat="47.15672" lon="-1.5012">
        <ele>78</ele>
        <time>2022-07-24T07:25:17Z</time>
      </trkpt>
      <trkpt lat="47.15683" lon="-1.50107">
        <ele>78</ele>
        <time>2022-07-24T07:25:19Z</time>
      </trkpt>
      <trkpt lat="47.15693" lon="-1.50093">
        <ele>78</ele>
        <time>2022-07-24T07:25:21Z</time>
      </trkpt>
      <trkpt lat="47.15701" lon="-1.50079">
        <ele>78</ele>
        <time>2022-07-24T07:25:23Z</time>
      </trkpt>
      <trkpt lat="47.15708" lon="-1.50064">
        <ele>78</ele>
        <time>2022-07-24T07:25:25Z</time>
      </trkpt>
      <trkpt lat="47.15716" lon="-1.5005">
        <ele>79</ele>
        <time>2022-07-24T07:25:27Z</time>
      </trkpt>
      <trkpt lat="47.15723" lon="-1.50035">
        <ele>79</ele>
        <time>2022-07-24T07:25:29Z</time>
      </trkpt>
      <trkpt lat="47.1573" lon="-1.5002">
        <ele>79</ele>
        <time>2022-07-24T07:25:31Z</time>
      </trkpt>
      <trkpt lat="47.15738" lon="-1.50006">
        <ele>79</ele>
        <time>2022-07-24T07:25:33Z</time>
      </trkpt>
      <trkpt lat="47.15745" lon="-1.49992">
        <ele>79</ele>
        <time>2022-07-24T07:25:35Z</time>
      </trkpt>
      <trkpt lat="47.15753" lon="-1.49977">
        <ele>79</ele>
        <time>2022-07-24T07:25:37Z</time>
      </trkpt>
      <trkpt lat="47.1576" lon="-1.49963">
        <ele>79</ele>
        <time>2022-07-24T07:25:39Z</time>
      </trkpt>
      <trkpt lat="47.15768" lon="-1.49948">
        <ele>80</ele>
        <time>2022-07-24T07:25:41Z</time>
      </trkpt>
      <trkpt lat="47.15775" lon="-1.49934">
        <ele>80</ele>
        <time>2022-07-24T07:25:43Z</time>
      </trkpt>
      <trkpt lat="47.15783" lon="-1.49919">
        <ele>80</ele>
        <time>2022-07-24T07:25:45Z</time>
      </trkpt>
      <trkpt lat="47.15791" lon="-1.49903">
        <ele>80</ele>
        <time>2022-07-24T07:25:47Z</time>
      </trkpt>
      <trkpt lat="47.15799" lon="-1.49888">
        <ele>79</ele>
        <time>2022-07-24T07:25:49Z</time>
      </trkpt>
      <trkpt lat="47.15806" lon="-1.49873">
        <ele>79</ele>
        <time>2022-07-24T07:25:51Z</time>
      </trkpt>
      <trkpt lat="47.15814" lon="-1.49858">
        <ele>79</ele>
        <time>2022-07-24T07:25:53Z</time>
      </trkpt>
      <trkpt lat="47.15822" lon="-1.49842">
        <ele>79</ele>
        <time>2022-07-24T07:25:55Z</time>
      </trkpt>
      <trkpt lat="47.1583" lon="-1.49826">
        <ele>80</ele>
        <time>2022-07-24T07:25:57Z</time>
      </trkpt>
      <trkpt lat="47.15839" lon="-1.49809">
        <ele>79</ele>
        <time>2022-07-24T07:25:59Z</time>
      </trkpt>
      <trkpt lat="47.15847" lon="-1.49793">
        <ele>78</ele>
        <time>2022-07-24T07:26:01Z</time>
      </trkpt>
      <trkpt lat="47.15855" lon="-1.49777">
        <ele>78</ele>
        <time>2022-07-24T07:26:03Z</time>
      </trkpt>
      <trkpt lat="47.15864" lon="-1.4976">
        <ele>78</ele>
        <time>2022-07-24T07:26:05Z</time>
      </trkpt>
      <trkpt lat="47.15872" lon="-1.49743">
        <ele>77</ele>
        <time>2022-07-24T07:26:07Z</time>
      </trkpt>
      <trkpt lat="47.15881" lon="-1.49727">
        <ele>77</ele>
        <time>2022-07-24T07:26:09Z</time>
      </trkpt>
      <trkpt lat="47.1589" lon="-1.4971">
        <ele>77</ele>
        <time>2022-07-24T07:26:11Z</time>
      </trkpt>
      <trkpt lat="47.15899" lon="-1.49691">
        <ele>77</ele>
        <time>2022-07-24T07:26:13Z</time>
      </trkpt>
      <trkpt lat="47.15908" lon="-1.49672">
        <ele>76</ele>
        <time>2022-07-24T07:26:15Z</time>
      </trkpt>
      <trkpt lat="47.15917" lon="-1.49654">
        <ele>75</ele>
        <time>2022-07-24T07:26:17Z</time>
      </trkpt>
      <trkpt lat="47.15927" lon="-1.49637">
        <ele>75</ele>
        <time>2022-07-24T07:26:19Z</time>
      </trkpt>
      <trkpt lat="47.15936" lon="-1.49619">
        <ele>75</ele>
        <time>2022-07-24T07:26:21Z</time>
      </trkpt>
      <trkpt lat="47.15946" lon="-1.49602">
        <ele>75</ele>
        <time>2022-07-24T07:26:23Z</time>
      </trkpt>
      <trkpt lat="47.15955" lon="-1.49585">
        <ele>74</ele>
        <time>2022-07-24T07:26:25Z</time>
      </trkpt>
      <trkpt lat="47.15963" lon="-1.49567">
        <ele>74</ele>
        <time>2022-07-24T07:26:27Z</time>
      </trkpt>
      <trkpt lat="47.15972" lon="-1.4955">
        <ele>74</ele>
        <time>2022-07-24T07:26:29Z</time>
      </trkpt>
      <trkpt lat="47.1598" lon="-1.49532">
        <ele>74</ele>
        <time>2022-07-24T07:26:31Z</time>
      </trkpt>
      <trkpt lat="47.15989" lon="-1.49515">
        <ele>74</ele>
        <time>2022-07-24T07:26:33Z</time>
      </trkpt>
      <trkpt lat="47.15997" lon="-1.49498">
        <ele>74</ele>
        <time>2022-07-24T07:26:35Z</time>
      </trkpt>
      <trkpt lat="47.16006" lon="-1.49481">
        <ele>73</ele>
        <time>2022-07-24T07:26:37Z</time>
      </trkpt>
      <trkpt lat="47.16016" lon="-1.49464">
        <ele>73</ele>
        <time>2022-07-24T07:26:39Z</time>
      </trkpt>
      <trkpt lat="47.16025" lon="-1.49447">
        <ele>72</ele>
        <time>2022-07-24T07:26:41Z</time>
      </trkpt>
      <trkpt lat="47.16034" lon="-1.49431">
        <ele>73</ele>
        <time>2022-07-24T07:26:43Z</time>
      </trkpt>
      <trkpt lat="47.16043" lon="-1.49414">
        <ele>73</ele>
        <time>2022-07-24T07:26:45Z</time>
      </trkpt>
      <trkpt lat="47.1605" lon="-1.49398">
        <ele>72</ele>
        <time>2022-07-24T07:26:47Z</time>
      </trkpt>
      <trkpt lat="47.1606" lon="-1.49384">
        <ele>73</ele>
        <time>2022-07-24T07:26:49Z</time>
      </trkpt>
      <trkpt lat="47.16071" lon="-1.49372">
        <ele>72</ele>
        <time>2022-07-24T07:26:51Z</time>
      </trkpt>
      <trkpt lat="47.16082" lon="-1.49358">
        <ele>72</ele>
        <time>2022-07-24T07:26:53Z</time>
      </trkpt>
      <trkpt lat="47.16093" lon="-1.49345">
        <ele>73</ele>
        <time>2022-07-24T07:26:55Z</time>
      </trkpt>
      <trkpt lat="47.16103" lon="-1.49333">
        <ele>74</ele>
        <time>2022-07-24T07:26:57Z</time>
      </trkpt>
      <trkpt lat="47.16114" lon="-1.4932">
        <ele>74</ele>
        <time>2022-07-24T07:26:59Z</time>
      </trkpt>
      <trkpt lat="47.16124" lon="-1.49306">
        <ele>74</ele>
        <time>2022-07-24T07:27:01Z</time>
      </trkpt>
      <trkpt lat="47.16135" lon="-1.49292">
        <ele>74</ele>
        <time>2022-07-24T07:27:03Z</time>
      </trkpt>
      <trkpt lat="47.16145" lon="-1.49277">
        <ele>74</ele>
        <time>2022-07-24T07:27:05Z</time>
      </trkpt>
      <trkpt lat="47.16153" lon="-1.49259">
        <ele>74</ele>
        <time>2022-07-24T07:27:07Z</time>
      </trkpt>
      <trkpt lat="47.16161" lon="-1.49242">
        <ele>74</ele>
        <time>2022-07-24T07:27:09Z</time>
      </trkpt>
      <trkpt lat="47.16169" lon="-1.49226">
        <ele>75</ele>
        <time>2022-07-24T07:27:11Z</time>
      </trkpt>
      <trkpt lat="47.16178" lon="-1.49211">
        <ele>76</ele>
        <time>2022-07-24T07:27:13Z</time>
      </trkpt>
      <trkpt lat="47.16188" lon="-1.49199">
        <ele>76</ele>
        <time>2022-07-24T07:27:15Z</time>
      </trkpt>
      <trkpt lat="47.16199" lon="-1.49187">
        <ele>76</ele>
        <time>2022-07-24T07:27:17Z</time>
      </trkpt>
      <trkpt lat="47.16211" lon="-1.49175">
        <ele>76</ele>
        <time>2022-07-24T07:27:19Z</time>
      </trkpt>
      <trkpt lat="47.16223" lon="-1.49164">
        <ele>76</ele>
        <time>2022-07-24T07:27:21Z</time>
      </trkpt>
      <trkpt lat="47.16234" lon="-1.49153">
        <ele>76</ele>
        <time>2022-07-24T07:27:23Z</time>
      </trkpt>
      <trkpt lat="47.16246" lon="-1.49141">
        <ele>75</ele>
        <time>2022-07-24T07:27:25Z</time>
      </trkpt>
      <trkpt lat="47.16258" lon="-1.49128">
        <ele>74</ele>
        <time>2022-07-24T07:27:27Z</time>
      </trkpt>
      <trkpt lat="47.1627" lon="-1.49116">
        <ele>73</ele>
        <time>2022-07-24T07:27:29Z</time>
      </trkpt>
      <trkpt lat="47.16284" lon="-1.49102">
        <ele>73</ele>
        <time>2022-07-24T07:27:31Z</time>
      </trkpt>
      <trkpt lat="47.16297" lon="-1.49089">
        <ele>73</ele>
        <time>2022-07-24T07:27:33Z</time>
      </trkpt>
      <trkpt lat="47.16312" lon="-1.49075">
        <ele>72</ele>
        <time>2022-07-24T07:27:35Z</time>
      </trkpt>
      <trkpt lat="47.16326" lon="-1.4906">
        <ele>71</ele>
        <time>2022-07-24T07:27:37Z</time>
      </trkpt>
      <trkpt lat="47.1634" lon="-1.49047">
        <ele>71</ele>
        <time>2022-07-24T07:27:39Z</time>
      </trkpt>
      <trkpt lat="47.16353" lon="-1.49033">
        <ele>71</ele>
        <time>2022-07-24T07:27:41Z</time>
      </trkpt>
      <trkpt lat="47.16364" lon="-1.4902">
        <ele>70</ele>
        <time>2022-07-24T07:27:43Z</time>
      </trkpt>
      <trkpt lat="47.16371" lon="-1.49008">
        <ele>70</ele>
        <time>2022-07-24T07:27:45Z</time>
      </trkpt>
      <trkpt lat="47.1638" lon="-1.48993">
        <ele>71</ele>
        <time>2022-07-24T07:27:48Z</time>
      </trkpt>
      <trkpt lat="47.16386" lon="-1.48982">
        <ele>71</ele>
        <time>2022-07-24T07:27:50Z</time>
      </trkpt>
      <trkpt lat="47.16394" lon="-1.48969">
        <ele>71</ele>
        <time>2022-07-24T07:27:52Z</time>
      </trkpt>
      <trkpt lat="47.16402" lon="-1.48956">
        <ele>71</ele>
        <time>2022-07-24T07:27:54Z</time>
      </trkpt>
      <trkpt lat="47.16412" lon="-1.48944">
        <ele>71</ele>
        <time>2022-07-24T07:27:56Z</time>
      </trkpt>
      <trkpt lat="47.16422" lon="-1.48932">
        <ele>72</ele>
        <time>2022-07-24T07:27:58Z</time>
      </trkpt>
      <trkpt lat="47.16434" lon="-1.48919">
        <ele>72</ele>
        <time>2022-07-24T07:28:00Z</time>
      </trkpt>
      <trkpt lat="47.16444" lon="-1.48907">
        <ele>72</ele>
        <time>2022-07-24T07:28:02Z</time>
      </trkpt>
      <trkpt lat="47.16454" lon="-1.48892">
        <ele>72</ele>
        <time>2022-07-24T07:28:04Z</time>
      </trkpt>
      <trkpt lat="47.16464" lon="-1.48877">
        <ele>71</ele>
        <time>2022-07-24T07:28:06Z</time>
      </trkpt>
      <trkpt lat="47.16473" lon="-1.48859">
        <ele>71</ele>
        <time>2022-07-24T07:28:08Z</time>
      </trkpt>
      <trkpt lat="47.1648" lon="-1.4884">
        <ele>71</ele>
        <time>2022-07-24T07:28:10Z</time>
      </trkpt>
      <trkpt lat="47.16488" lon="-1.48821">
        <ele>70</ele>
        <time>2022-07-24T07:28:12Z</time>
      </trkpt>
      <trkpt lat="47.16495" lon="-1.48803">
        <ele>69</ele>
        <time>2022-07-24T07:28:14Z</time>
      </trkpt>
      <trkpt lat="47.16503" lon="-1.48785">
        <ele>68</ele>
        <time>2022-07-24T07:28:16Z</time>
      </trkpt>
      <trkpt lat="47.16509" lon="-1.48767">
        <ele>68</ele>
        <time>2022-07-24T07:28:18Z</time>
      </trkpt>
      <trkpt lat="47.16515" lon="-1.48748">
        <ele>68</ele>
        <time>2022-07-24T07:28:20Z</time>
      </trkpt>
      <trkpt lat="47.16518" lon="-1.48729">
        <ele>68</ele>
        <time>2022-07-24T07:28:22Z</time>
      </trkpt>
      <trkpt lat="47.16521" lon="-1.48711">
        <ele>68</ele>
        <time>2022-07-24T07:28:24Z</time>
      </trkpt>
      <trkpt lat="47.16523" lon="-1.48695">
        <ele>68</ele>
        <time>2022-07-24T07:28:26Z</time>
      </trkpt>
      <trkpt lat="47.16525" lon="-1.4868">
        <ele>68</ele>
        <time>2022-07-24T07:28:28Z</time>
      </trkpt>
      <trkpt lat="47.16528" lon="-1.48666">
        <ele>68</ele>
        <time>2022-07-24T07:28:30Z</time>
      </trkpt>
      <trkpt lat="47.16531" lon="-1.48647">
        <ele>67</ele>
        <time>2022-07-24T07:28:33Z</time>
      </trkpt>
      <trkpt lat="47.16534" lon="-1.48628">
        <ele>67</ele>
        <time>2022-07-24T07:28:36Z</time>
      </trkpt>
      <trkpt lat="47.16537" lon="-1.48612">
        <ele>67</ele>
        <time>2022-07-24T07:28:38Z</time>
      </trkpt>
      <trkpt lat="47.16539" lon="-1.48595">
        <ele>66</ele>
        <time>2022-07-24T07:28:40Z</time>
      </trkpt>
      <trkpt lat="47.1654" lon="-1.48576">
        <ele>66</ele>
        <time>2022-07-24T07:28:42Z</time>
      </trkpt>
      <trkpt lat="47.1654" lon="-1.48555">
        <ele>65</ele>
        <time>2022-07-24T07:28:44Z</time>
      </trkpt>
      <trkpt lat="47.16538" lon="-1.48533">
        <ele>65</ele>
        <time>2022-07-24T07:28:46Z</time>
      </trkpt>
      <trkpt lat="47.16534" lon="-1.48512">
        <ele>65</ele>
        <time>2022-07-24T07:28:48Z</time>
      </trkpt>
      <trkpt lat="47.16531" lon="-1.4849">
        <ele>65</ele>
        <time>2022-07-24T07:28:50Z</time>
      </trkpt>
      <trkpt lat="47.16528" lon="-1.48468">
        <ele>65</ele>
        <time>2022-07-24T07:28:52Z</time>
      </trkpt>
      <trkpt lat="47.16525" lon="-1.48447">
        <ele>65</ele>
        <time>2022-07-24T07:28:54Z</time>
      </trkpt>
      <trkpt lat="47.16522" lon="-1.48428">
        <ele>65</ele>
        <time>2022-07-24T07:28:56Z</time>
      </trkpt>
      <trkpt lat="47.16519" lon="-1.48412">
        <ele>65</ele>
        <time>2022-07-24T07:28:58Z</time>
      </trkpt>
      <trkpt lat="47.16514" lon="-1.48395">
        <ele>64</ele>
        <time>2022-07-24T07:29:01Z</time>
      </trkpt>
      <trkpt lat="47.16508" lon="-1.4838">
        <ele>64</ele>
        <time>2022-07-24T07:29:04Z</time>
      </trkpt>
      <trkpt lat="47.16507" lon="-1.48365">
        <ele>64</ele>
        <time>2022-07-24T07:29:06Z</time>
      </trkpt>
      <trkpt lat="47.16506" lon="-1.48349">
        <ele>64</ele>
        <time>2022-07-24T07:29:08Z</time>
      </trkpt>
      <trkpt lat="47.16507" lon="-1.48331">
        <ele>64</ele>
        <time>2022-07-24T07:29:10Z</time>
      </trkpt>
      <trkpt lat="47.1651" lon="-1.48314">
        <ele>63</ele>
        <time>2022-07-24T07:29:12Z</time>
      </trkpt>
      <trkpt lat="47.16512" lon="-1.48296">
        <ele>63</ele>
        <time>2022-07-24T07:29:14Z</time>
      </trkpt>
      <trkpt lat="47.16515" lon="-1.48278">
        <ele>63</ele>
        <time>2022-07-24T07:29:16Z</time>
      </trkpt>
      <trkpt lat="47.16517" lon="-1.48262">
        <ele>63</ele>
        <time>2022-07-24T07:29:18Z</time>
      </trkpt>
      <trkpt lat="47.16518" lon="-1.48247">
        <ele>63</ele>
        <time>2022-07-24T07:29:20Z</time>
      </trkpt>
      <trkpt lat="47.16516" lon="-1.48232">
        <ele>63</ele>
        <time>2022-07-24T07:29:22Z</time>
      </trkpt>
      <trkpt lat="47.16513" lon="-1.48214">
        <ele>62</ele>
        <time>2022-07-24T07:29:24Z</time>
      </trkpt>
      <trkpt lat="47.16509" lon="-1.48195">
        <ele>61</ele>
        <time>2022-07-24T07:29:26Z</time>
      </trkpt>
      <trkpt lat="47.16505" lon="-1.48174">
        <ele>61</ele>
        <time>2022-07-24T07:29:28Z</time>
      </trkpt>
      <trkpt lat="47.16501" lon="-1.48153">
        <ele>60</ele>
        <time>2022-07-24T07:29:30Z</time>
      </trkpt>
      <trkpt lat="47.16498" lon="-1.48133">
        <ele>60</ele>
        <time>2022-07-24T07:29:32Z</time>
      </trkpt>
      <trkpt lat="47.16494" lon="-1.48115">
        <ele>59</ele>
        <time>2022-07-24T07:29:34Z</time>
      </trkpt>
      <trkpt lat="47.16491" lon="-1.48099">
        <ele>59</ele>
        <time>2022-07-24T07:29:36Z</time>
      </trkpt>
      <trkpt lat="47.16488" lon="-1.48086">
        <ele>59</ele>
        <time>2022-07-24T07:29:38Z</time>
      </trkpt>
      <trkpt lat="47.16498" lon="-1.48087">
        <ele>59</ele>
        <time>2022-07-24T07:29:45Z</time>
      </trkpt>
      <trkpt lat="47.16505" lon="-1.48098">
        <ele>60</ele>
        <time>2022-07-24T07:29:47Z</time>
      </trkpt>
      <trkpt lat="47.16516" lon="-1.48098">
        <ele>61</ele>
        <time>2022-07-24T07:29:49Z</time>
      </trkpt>
      <trkpt lat="47.16528" lon="-1.48096">
        <ele>60</ele>
        <time>2022-07-24T07:29:51Z</time>
      </trkpt>
      <trkpt lat="47.16541" lon="-1.48092">
        <ele>59</ele>
        <time>2022-07-24T07:29:53Z</time>
      </trkpt>
      <trkpt lat="47.16552" lon="-1.48085">
        <ele>59</ele>
        <time>2022-07-24T07:29:55Z</time>
      </trkpt>
      <trkpt lat="47.16564" lon="-1.4808">
        <ele>58</ele>
        <time>2022-07-24T07:29:57Z</time>
      </trkpt>
      <trkpt lat="47.16576" lon="-1.48073">
        <ele>57</ele>
        <time>2022-07-24T07:29:59Z</time>
      </trkpt>
      <trkpt lat="47.16589" lon="-1.48069">
        <ele>57</ele>
        <time>2022-07-24T07:30:01Z</time>
      </trkpt>
      <trkpt lat="47.16601" lon="-1.48063">
        <ele>57</ele>
        <time>2022-07-24T07:30:03Z</time>
      </trkpt>
      <trkpt lat="47.16613" lon="-1.48057">
        <ele>57</ele>
        <time>2022-07-24T07:30:05Z</time>
      </trkpt>
      <trkpt lat="47.16625" lon="-1.48051">
        <ele>57</ele>
        <time>2022-07-24T07:30:07Z</time>
      </trkpt>
      <trkpt lat="47.16636" lon="-1.48046">
        <ele>57</ele>
        <time>2022-07-24T07:30:09Z</time>
      </trkpt>
      <trkpt lat="47.16648" lon="-1.48041">
        <ele>57</ele>
        <time>2022-07-24T07:30:11Z</time>
      </trkpt>
      <trkpt lat="47.16658" lon="-1.48036">
        <ele>57</ele>
        <time>2022-07-24T07:30:13Z</time>
      </trkpt>
      <trkpt lat="47.16669" lon="-1.48029">
        <ele>57</ele>
        <time>2022-07-24T07:30:15Z</time>
      </trkpt>
      <trkpt lat="47.16679" lon="-1.48023">
        <ele>57</ele>
        <time>2022-07-24T07:30:17Z</time>
      </trkpt>
      <trkpt lat="47.16691" lon="-1.48016">
        <ele>57</ele>
        <time>2022-07-24T07:30:19Z</time>
      </trkpt>
      <trkpt lat="47.16702" lon="-1.4801">
        <ele>58</ele>
        <time>2022-07-24T07:30:21Z</time>
      </trkpt>
      <trkpt lat="47.16713" lon="-1.48007">
        <ele>59</ele>
        <time>2022-07-24T07:30:23Z</time>
      </trkpt>
      <trkpt lat="47.16724" lon="-1.48004">
        <ele>60</ele>
        <time>2022-07-24T07:30:25Z</time>
      </trkpt>
      <trkpt lat="47.16735" lon="-1.48">
        <ele>60</ele>
        <time>2022-07-24T07:30:27Z</time>
      </trkpt>
      <trkpt lat="47.16747" lon="-1.47999">
        <ele>61</ele>
        <time>2022-07-24T07:30:29Z</time>
      </trkpt>
      <trkpt lat="47.1676" lon="-1.47998">
        <ele>61</ele>
        <time>2022-07-24T07:30:31Z</time>
      </trkpt>
      <trkpt lat="47.16774" lon="-1.48">
        <ele>60</ele>
        <time>2022-07-24T07:30:33Z</time>
      </trkpt>
      <trkpt lat="47.16785" lon="-1.48002">
        <ele>60</ele>
        <time>2022-07-24T07:30:35Z</time>
      </trkpt>
      <trkpt lat="47.16794" lon="-1.48006">
        <ele>60</ele>
        <time>2022-07-24T07:30:37Z</time>
      </trkpt>
      <trkpt lat="47.16802" lon="-1.48015">
        <ele>60</ele>
        <time>2022-07-24T07:30:39Z</time>
      </trkpt>
      <trkpt lat="47.1681" lon="-1.48026">
        <ele>59</ele>
        <time>2022-07-24T07:30:41Z</time>
      </trkpt>
      <trkpt lat="47.16816" lon="-1.48039">
        <ele>58</ele>
        <time>2022-07-24T07:30:43Z</time>
      </trkpt>
      <trkpt lat="47.16824" lon="-1.48052">
        <ele>58</ele>
        <time>2022-07-24T07:30:45Z</time>
      </trkpt>
      <trkpt lat="47.16832" lon="-1.48064">
        <ele>58</ele>
        <time>2022-07-24T07:30:47Z</time>
      </trkpt>
      <trkpt lat="47.1684" lon="-1.48074">
        <ele>58</ele>
        <time>2022-07-24T07:30:49Z</time>
      </trkpt>
      <trkpt lat="47.16849" lon="-1.48083">
        <ele>57</ele>
        <time>2022-07-24T07:30:51Z</time>
      </trkpt>
      <trkpt lat="47.16857" lon="-1.48087">
        <ele>57</ele>
        <time>2022-07-24T07:30:53Z</time>
      </trkpt>
      <trkpt lat="47.16868" lon="-1.48097">
        <ele>57</ele>
        <time>2022-07-24T07:30:56Z</time>
      </trkpt>
      <trkpt lat="47.16875" lon="-1.48111">
        <ele>57</ele>
        <time>2022-07-24T07:30:59Z</time>
      </trkpt>
      <trkpt lat="47.16882" lon="-1.4812">
        <ele>57</ele>
        <time>2022-07-24T07:31:02Z</time>
      </trkpt>
      <trkpt lat="47.16887" lon="-1.48131">
        <ele>57</ele>
        <time>2022-07-24T07:31:06Z</time>
      </trkpt>
      <trkpt lat="47.16892" lon="-1.48145">
        <ele>57</ele>
        <time>2022-07-24T07:31:09Z</time>
      </trkpt>
      <trkpt lat="47.16897" lon="-1.48158">
        <ele>57</ele>
        <time>2022-07-24T07:31:11Z</time>
      </trkpt>
      <trkpt lat="47.16902" lon="-1.48173">
        <ele>57</ele>
        <time>2022-07-24T07:31:13Z</time>
      </trkpt>
      <trkpt lat="47.16908" lon="-1.48185">
        <ele>57</ele>
        <time>2022-07-24T07:31:15Z</time>
      </trkpt>
      <trkpt lat="47.16916" lon="-1.48196">
        <ele>57</ele>
        <time>2022-07-24T07:31:17Z</time>
      </trkpt>
      <trkpt lat="47.16924" lon="-1.48206">
        <ele>58</ele>
        <time>2022-07-24T07:31:19Z</time>
      </trkpt>
      <trkpt lat="47.16934" lon="-1.48213">
        <ele>57</ele>
        <time>2022-07-24T07:31:22Z</time>
      </trkpt>
      <trkpt lat="47.16945" lon="-1.48215">
        <ele>58</ele>
        <time>2022-07-24T07:31:25Z</time>
      </trkpt>
      <trkpt lat="47.16956" lon="-1.48213">
        <ele>58</ele>
        <time>2022-07-24T07:31:27Z</time>
      </trkpt>
      <trkpt lat="47.16968" lon="-1.48211">
        <ele>59</ele>
        <time>2022-07-24T07:31:29Z</time>
      </trkpt>
      <trkpt lat="47.16981" lon="-1.48209">
        <ele>58</ele>
        <time>2022-07-24T07:31:31Z</time>
      </trkpt>
      <trkpt lat="47.16993" lon="-1.48207">
        <ele>57</ele>
        <time>2022-07-24T07:31:33Z</time>
      </trkpt>
      <trkpt lat="47.17005" lon="-1.48204">
        <ele>57</ele>
        <time>2022-07-24T07:31:35Z</time>
      </trkpt>
      <trkpt lat="47.17017" lon="-1.48201">
        <ele>58</ele>
        <time>2022-07-24T07:31:37Z</time>
      </trkpt>
      <trkpt lat="47.17028" lon="-1.48198">
        <ele>58</ele>
        <time>2022-07-24T07:31:39Z</time>
      </trkpt>
      <trkpt lat="47.17038" lon="-1.48195">
        <ele>58</ele>
        <time>2022-07-24T07:31:41Z</time>
      </trkpt>
      <trkpt lat="47.17047" lon="-1.48187">
        <ele>59</ele>
        <time>2022-07-24T07:31:43Z</time>
      </trkpt>
      <trkpt lat="47.17057" lon="-1.48175">
        <ele>59</ele>
        <time>2022-07-24T07:31:45Z</time>
      </trkpt>
      <trkpt lat="47.17066" lon="-1.48165">
        <ele>59</ele>
        <time>2022-07-24T07:31:47Z</time>
      </trkpt>
      <trkpt lat="47.17076" lon="-1.48157">
        <ele>59</ele>
        <time>2022-07-24T07:31:49Z</time>
      </trkpt>
      <trkpt lat="47.17084" lon="-1.4815">
        <ele>59</ele>
        <time>2022-07-24T07:31:51Z</time>
      </trkpt>
      <trkpt lat="47.17092" lon="-1.48142">
        <ele>59</ele>
        <time>2022-07-24T07:31:53Z</time>
      </trkpt>
      <trkpt lat="47.17098" lon="-1.4813">
        <ele>60</ele>
        <time>2022-07-24T07:31:55Z</time>
      </trkpt>
      <trkpt lat="47.17107" lon="-1.48122">
        <ele>60</ele>
        <time>2022-07-24T07:31:57Z</time>
      </trkpt>
      <trkpt lat="47.17118" lon="-1.48117">
        <ele>60</ele>
        <time>2022-07-24T07:31:59Z</time>
      </trkpt>
      <trkpt lat="47.17129" lon="-1.48107">
        <ele>60</ele>
        <time>2022-07-24T07:32:01Z</time>
      </trkpt>
      <trkpt lat="47.17138" lon="-1.48095">
        <ele>60</ele>
        <time>2022-07-24T07:32:03Z</time>
      </trkpt>
      <trkpt lat="47.17147" lon="-1.48082">
        <ele>60</ele>
        <time>2022-07-24T07:32:05Z</time>
      </trkpt>
      <trkpt lat="47.17156" lon="-1.4807">
        <ele>60</ele>
        <time>2022-07-24T07:32:07Z</time>
      </trkpt>
      <trkpt lat="47.17167" lon="-1.48057">
        <ele>60</ele>
        <time>2022-07-24T07:32:09Z</time>
      </trkpt>
      <trkpt lat="47.17179" lon="-1.48044">
        <ele>61</ele>
        <time>2022-07-24T07:32:11Z</time>
      </trkpt>
      <trkpt lat="47.1719" lon="-1.48031">
        <ele>62</ele>
        <time>2022-07-24T07:32:13Z</time>
      </trkpt>
      <trkpt lat="47.17201" lon="-1.48019">
        <ele>62</ele>
        <time>2022-07-24T07:32:15Z</time>
      </trkpt>
      <trkpt lat="47.17211" lon="-1.48007">
        <ele>63</ele>
        <time>2022-07-24T07:32:17Z</time>
      </trkpt>
      <trkpt lat="47.17219" lon="-1.47995">
        <ele>64</ele>
        <time>2022-07-24T07:32:19Z</time>
      </trkpt>
      <trkpt lat="47.17228" lon="-1.47984">
        <ele>64</ele>
        <time>2022-07-24T07:32:21Z</time>
      </trkpt>
      <trkpt lat="47.17238" lon="-1.47973">
        <ele>65</ele>
        <time>2022-07-24T07:32:23Z</time>
      </trkpt>
      <trkpt lat="47.17246" lon="-1.47961">
        <ele>65</ele>
        <time>2022-07-24T07:32:25Z</time>
      </trkpt>
      <trkpt lat="47.17253" lon="-1.47946">
        <ele>64</ele>
        <time>2022-07-24T07:32:27Z</time>
      </trkpt>
      <trkpt lat="47.17259" lon="-1.4793">
        <ele>65</ele>
        <time>2022-07-24T07:32:29Z</time>
      </trkpt>
      <trkpt lat="47.17261" lon="-1.47912">
        <ele>65</ele>
        <time>2022-07-24T07:32:31Z</time>
      </trkpt>
      <trkpt lat="47.17262" lon="-1.47894">
        <ele>65</ele>
        <time>2022-07-24T07:32:33Z</time>
      </trkpt>
      <trkpt lat="47.17265" lon="-1.47874">
        <ele>64</ele>
        <time>2022-07-24T07:32:35Z</time>
      </trkpt>
      <trkpt lat="47.17267" lon="-1.47854">
        <ele>64</ele>
        <time>2022-07-24T07:32:37Z</time>
      </trkpt>
      <trkpt lat="47.1727" lon="-1.47835">
        <ele>63</ele>
        <time>2022-07-24T07:32:39Z</time>
      </trkpt>
      <trkpt lat="47.17273" lon="-1.47817">
        <ele>64</ele>
        <time>2022-07-24T07:32:41Z</time>
      </trkpt>
      <trkpt lat="47.17276" lon="-1.47799">
        <ele>63</ele>
        <time>2022-07-24T07:32:43Z</time>
      </trkpt>
      <trkpt lat="47.17279" lon="-1.47781">
        <ele>62</ele>
        <time>2022-07-24T07:32:45Z</time>
      </trkpt>
      <trkpt lat="47.17282" lon="-1.47763">
        <ele>62</ele>
        <time>2022-07-24T07:32:47Z</time>
      </trkpt>
      <trkpt lat="47.17285" lon="-1.47745">
        <ele>62</ele>
        <time>2022-07-24T07:32:49Z</time>
      </trkpt>
      <trkpt lat="47.17288" lon="-1.47727">
        <ele>61</ele>
        <time>2022-07-24T07:32:51Z</time>
      </trkpt>
      <trkpt lat="47.17291" lon="-1.47709">
        <ele>62</ele>
        <time>2022-07-24T07:32:53Z</time>
      </trkpt>
      <trkpt lat="47.17294" lon="-1.47691">
        <ele>62</ele>
        <time>2022-07-24T07:32:55Z</time>
      </trkpt>
      <trkpt lat="47.17297" lon="-1.47674">
        <ele>62</ele>
        <time>2022-07-24T07:32:57Z</time>
      </trkpt>
      <trkpt lat="47.17299" lon="-1.47656">
        <ele>62</ele>
        <time>2022-07-24T07:32:59Z</time>
      </trkpt>
      <trkpt lat="47.17301" lon="-1.47639">
        <ele>62</ele>
        <time>2022-07-24T07:33:01Z</time>
      </trkpt>
      <trkpt lat="47.17302" lon="-1.47621">
        <ele>62</ele>
        <time>2022-07-24T07:33:03Z</time>
      </trkpt>
      <trkpt lat="47.17303" lon="-1.47604">
        <ele>62</ele>
        <time>2022-07-24T07:33:05Z</time>
      </trkpt>
      <trkpt lat="47.17305" lon="-1.47586">
        <ele>62</ele>
        <time>2022-07-24T07:33:07Z</time>
      </trkpt>
      <trkpt lat="47.17306" lon="-1.47568">
        <ele>62</ele>
        <time>2022-07-24T07:33:09Z</time>
      </trkpt>
      <trkpt lat="47.17307" lon="-1.47551">
        <ele>62</ele>
        <time>2022-07-24T07:33:11Z</time>
      </trkpt>
      <trkpt lat="47.17308" lon="-1.47535">
        <ele>63</ele>
        <time>2022-07-24T07:33:13Z</time>
      </trkpt>
      <trkpt lat="47.17308" lon="-1.47517">
        <ele>63</ele>
        <time>2022-07-24T07:33:15Z</time>
      </trkpt>
      <trkpt lat="47.17307" lon="-1.475">
        <ele>63</ele>
        <time>2022-07-24T07:33:17Z</time>
      </trkpt>
      <trkpt lat="47.17307" lon="-1.47482">
        <ele>63</ele>
        <time>2022-07-24T07:33:19Z</time>
      </trkpt>
      <trkpt lat="47.17306" lon="-1.47464">
        <ele>63</ele>
        <time>2022-07-24T07:33:21Z</time>
      </trkpt>
      <trkpt lat="47.17305" lon="-1.47446">
        <ele>63</ele>
        <time>2022-07-24T07:33:23Z</time>
      </trkpt>
      <trkpt lat="47.17303" lon="-1.47428">
        <ele>63</ele>
        <time>2022-07-24T07:33:25Z</time>
      </trkpt>
      <trkpt lat="47.173" lon="-1.47411">
        <ele>63</ele>
        <time>2022-07-24T07:33:27Z</time>
      </trkpt>
      <trkpt lat="47.17297" lon="-1.47395">
        <ele>63</ele>
        <time>2022-07-24T07:33:29Z</time>
      </trkpt>
      <trkpt lat="47.17294" lon="-1.47379">
        <ele>63</ele>
        <time>2022-07-24T07:33:31Z</time>
      </trkpt>
      <trkpt lat="47.17301" lon="-1.47367">
        <ele>63</ele>
        <time>2022-07-24T07:33:33Z</time>
      </trkpt>
      <trkpt lat="47.17313" lon="-1.47365">
        <ele>63</ele>
        <time>2022-07-24T07:33:35Z</time>
      </trkpt>
      <trkpt lat="47.17326" lon="-1.47365">
        <ele>63</ele>
        <time>2022-07-24T07:33:37Z</time>
      </trkpt>
      <trkpt lat="47.17339" lon="-1.47362">
        <ele>63</ele>
        <time>2022-07-24T07:33:39Z</time>
      </trkpt>
      <trkpt lat="47.17352" lon="-1.47359">
        <ele>63</ele>
        <time>2022-07-24T07:33:41Z</time>
      </trkpt>
      <trkpt lat="47.17365" lon="-1.47356">
        <ele>64</ele>
        <time>2022-07-24T07:33:43Z</time>
      </trkpt>
      <trkpt lat="47.17378" lon="-1.47354">
        <ele>64</ele>
        <time>2022-07-24T07:33:45Z</time>
      </trkpt>
      <trkpt lat="47.17391" lon="-1.47352">
        <ele>64</ele>
        <time>2022-07-24T07:33:47Z</time>
      </trkpt>
      <trkpt lat="47.17404" lon="-1.47351">
        <ele>64</ele>
        <time>2022-07-24T07:33:49Z</time>
      </trkpt>
      <trkpt lat="47.17417" lon="-1.47349">
        <ele>63</ele>
        <time>2022-07-24T07:33:51Z</time>
      </trkpt>
      <trkpt lat="47.17431" lon="-1.47348">
        <ele>63</ele>
        <time>2022-07-24T07:33:53Z</time>
      </trkpt>
      <trkpt lat="47.17444" lon="-1.47348">
        <ele>63</ele>
        <time>2022-07-24T07:33:55Z</time>
      </trkpt>
      <trkpt lat="47.17459" lon="-1.47349">
        <ele>62</ele>
        <time>2022-07-24T07:33:57Z</time>
      </trkpt>
      <trkpt lat="47.17473" lon="-1.47348">
        <ele>62</ele>
        <time>2022-07-24T07:33:59Z</time>
      </trkpt>
      <trkpt lat="47.17487" lon="-1.4735">
        <ele>61</ele>
        <time>2022-07-24T07:34:01Z</time>
      </trkpt>
      <trkpt lat="47.17501" lon="-1.47351">
        <ele>61</ele>
        <time>2022-07-24T07:34:03Z</time>
      </trkpt>
      <trkpt lat="47.17516" lon="-1.47351">
        <ele>60</ele>
        <time>2022-07-24T07:34:05Z</time>
      </trkpt>
      <trkpt lat="47.1753" lon="-1.47351">
        <ele>60</ele>
        <time>2022-07-24T07:34:07Z</time>
      </trkpt>
      <trkpt lat="47.17545" lon="-1.47351">
        <ele>59</ele>
        <time>2022-07-24T07:34:09Z</time>
      </trkpt>
      <trkpt lat="47.1756" lon="-1.47353">
        <ele>59</ele>
        <time>2022-07-24T07:34:11Z</time>
      </trkpt>
      <trkpt lat="47.17574" lon="-1.47355">
        <ele>59</ele>
        <time>2022-07-24T07:34:13Z</time>
      </trkpt>
      <trkpt lat="47.17589" lon="-1.47358">
        <ele>58</ele>
        <time>2022-07-24T07:34:15Z</time>
      </trkpt>
      <trkpt lat="47.17603" lon="-1.4736">
        <ele>58</ele>
        <time>2022-07-24T07:34:17Z</time>
      </trkpt>
      <trkpt lat="47.17617" lon="-1.47363">
        <ele>58</ele>
        <time>2022-07-24T07:34:19Z</time>
      </trkpt>
      <trkpt lat="47.17631" lon="-1.47367">
        <ele>59</ele>
        <time>2022-07-24T07:34:21Z</time>
      </trkpt>
      <trkpt lat="47.17645" lon="-1.47373">
        <ele>58</ele>
        <time>2022-07-24T07:34:23Z</time>
      </trkpt>
      <trkpt lat="47.17657" lon="-1.47379">
        <ele>59</ele>
        <time>2022-07-24T07:34:25Z</time>
      </trkpt>
      <trkpt lat="47.17668" lon="-1.47386">
        <ele>59</ele>
        <time>2022-07-24T07:34:27Z</time>
      </trkpt>
      <trkpt lat="47.17679" lon="-1.47392">
        <ele>59</ele>
        <time>2022-07-24T07:34:29Z</time>
      </trkpt>
      <trkpt lat="47.1769" lon="-1.47398">
        <ele>60</ele>
        <time>2022-07-24T07:34:31Z</time>
      </trkpt>
      <trkpt lat="47.17701" lon="-1.47403">
        <ele>60</ele>
        <time>2022-07-24T07:34:33Z</time>
      </trkpt>
      <trkpt lat="47.17712" lon="-1.47408">
        <ele>60</ele>
        <time>2022-07-24T07:34:35Z</time>
      </trkpt>
      <trkpt lat="47.17724" lon="-1.47413">
        <ele>61</ele>
        <time>2022-07-24T07:34:37Z</time>
      </trkpt>
      <trkpt lat="47.17735" lon="-1.4742">
        <ele>61</ele>
        <time>2022-07-24T07:34:39Z</time>
      </trkpt>
      <trkpt lat="47.17747" lon="-1.47427">
        <ele>61</ele>
        <time>2022-07-24T07:34:41Z</time>
      </trkpt>
      <trkpt lat="47.17759" lon="-1.47434">
        <ele>61</ele>
        <time>2022-07-24T07:34:43Z</time>
      </trkpt>
      <trkpt lat="47.17771" lon="-1.47441">
        <ele>61</ele>
        <time>2022-07-24T07:34:45Z</time>
      </trkpt>
      <trkpt lat="47.17784" lon="-1.47446">
        <ele>60</ele>
        <time>2022-07-24T07:34:47Z</time>
      </trkpt>
      <trkpt lat="47.17797" lon="-1.47452">
        <ele>60</ele>
        <time>2022-07-24T07:34:49Z</time>
      </trkpt>
      <trkpt lat="47.1781" lon="-1.47457">
        <ele>60</ele>
        <time>2022-07-24T07:34:51Z</time>
      </trkpt>
      <trkpt lat="47.17823" lon="-1.47461">
        <ele>60</ele>
        <time>2022-07-24T07:34:53Z</time>
      </trkpt>
      <trkpt lat="47.17836" lon="-1.47464">
        <ele>60</ele>
        <time>2022-07-24T07:34:55Z</time>
      </trkpt>
      <trkpt lat="47.17849" lon="-1.47468">
        <ele>60</ele>
        <time>2022-07-24T07:34:57Z</time>
      </trkpt>
      <trkpt lat="47.17862" lon="-1.47471">
        <ele>60</ele>
        <time>2022-07-24T07:34:59Z</time>
      </trkpt>
      <trkpt lat="47.17874" lon="-1.47473">
        <ele>61</ele>
        <time>2022-07-24T07:35:01Z</time>
      </trkpt>
      <trkpt lat="47.17885" lon="-1.47473">
        <ele>60</ele>
        <time>2022-07-24T07:35:03Z</time>
      </trkpt>
      <trkpt lat="47.17897" lon="-1.47468">
        <ele>61</ele>
        <time>2022-07-24T07:35:05Z</time>
      </trkpt>
      <trkpt lat="47.17909" lon="-1.47466">
        <ele>60</ele>
        <time>2022-07-24T07:35:07Z</time>
      </trkpt>
      <trkpt lat="47.17921" lon="-1.47473">
        <ele>60</ele>
        <time>2022-07-24T07:35:09Z</time>
      </trkpt>
      <trkpt lat="47.1793" lon="-1.47485">
        <ele>60</ele>
        <time>2022-07-24T07:35:11Z</time>
      </trkpt>
      <trkpt lat="47.17942" lon="-1.47491">
        <ele>61</ele>
        <time>2022-07-24T07:35:13Z</time>
      </trkpt>
      <trkpt lat="47.17954" lon="-1.47493">
        <ele>62</ele>
        <time>2022-07-24T07:35:15Z</time>
      </trkpt>
      <trkpt lat="47.17967" lon="-1.47496">
        <ele>62</ele>
        <time>2022-07-24T07:35:17Z</time>
      </trkpt>
      <trkpt lat="47.17979" lon="-1.475">
        <ele>62</ele>
        <time>2022-07-24T07:35:19Z</time>
      </trkpt>
      <trkpt lat="47.17992" lon="-1.47503">
        <ele>62</ele>
        <time>2022-07-24T07:35:21Z</time>
      </trkpt>
      <trkpt lat="47.18004" lon="-1.47506">
        <ele>62</ele>
        <time>2022-07-24T07:35:23Z</time>
      </trkpt>
      <trkpt lat="47.18016" lon="-1.47509">
        <ele>61</ele>
        <time>2022-07-24T07:35:25Z</time>
      </trkpt>
      <trkpt lat="47.18029" lon="-1.47512">
        <ele>62</ele>
        <time>2022-07-24T07:35:27Z</time>
      </trkpt>
      <trkpt lat="47.18041" lon="-1.47515">
        <ele>62</ele>
        <time>2022-07-24T07:35:29Z</time>
      </trkpt>
      <trkpt lat="47.18054" lon="-1.47518">
        <ele>62</ele>
        <time>2022-07-24T07:35:31Z</time>
      </trkpt>
      <trkpt lat="47.18066" lon="-1.47522">
        <ele>62</ele>
        <time>2022-07-24T07:35:33Z</time>
      </trkpt>
      <trkpt lat="47.18078" lon="-1.47525">
        <ele>62</ele>
        <time>2022-07-24T07:35:35Z</time>
      </trkpt>
      <trkpt lat="47.1809" lon="-1.47529">
        <ele>63</ele>
        <time>2022-07-24T07:35:37Z</time>
      </trkpt>
      <trkpt lat="47.18102" lon="-1.47532">
        <ele>63</ele>
        <time>2022-07-24T07:35:39Z</time>
      </trkpt>
      <trkpt lat="47.18115" lon="-1.47535">
        <ele>64</ele>
        <time>2022-07-24T07:35:41Z</time>
      </trkpt>
      <trkpt lat="47.18128" lon="-1.47538">
        <ele>64</ele>
        <time>2022-07-24T07:35:43Z</time>
      </trkpt>
      <trkpt lat="47.1814" lon="-1.47541">
        <ele>64</ele>
        <time>2022-07-24T07:35:45Z</time>
      </trkpt>
      <trkpt lat="47.18152" lon="-1.47545">
        <ele>64</ele>
        <time>2022-07-24T07:35:47Z</time>
      </trkpt>
      <trkpt lat="47.18164" lon="-1.47548">
        <ele>64</ele>
        <time>2022-07-24T07:35:49Z</time>
      </trkpt>
      <trkpt lat="47.18176" lon="-1.47551">
        <ele>64</ele>
        <time>2022-07-24T07:35:51Z</time>
      </trkpt>
      <trkpt lat="47.18187" lon="-1.47554">
        <ele>64</ele>
        <time>2022-07-24T07:35:53Z</time>
      </trkpt>
      <trkpt lat="47.18199" lon="-1.47557">
        <ele>64</ele>
        <time>2022-07-24T07:35:55Z</time>
      </trkpt>
      <trkpt lat="47.1821" lon="-1.4756">
        <ele>65</ele>
        <time>2022-07-24T07:35:57Z</time>
      </trkpt>
      <trkpt lat="47.18221" lon="-1.47563">
        <ele>65</ele>
        <time>2022-07-24T07:35:59Z</time>
      </trkpt>
      <trkpt lat="47.18233" lon="-1.47565">
        <ele>65</ele>
        <time>2022-07-24T07:36:01Z</time>
      </trkpt>
      <trkpt lat="47.18244" lon="-1.47568">
        <ele>65</ele>
        <time>2022-07-24T07:36:03Z</time>
      </trkpt>
      <trkpt lat="47.18254" lon="-1.47571">
        <ele>66</ele>
        <time>2022-07-24T07:36:05Z</time>
      </trkpt>
      <trkpt lat="47.18265" lon="-1.47574">
        <ele>66</ele>
        <time>2022-07-24T07:36:07Z</time>
      </trkpt>
      <trkpt lat="47.18276" lon="-1.47577">
        <ele>66</ele>
        <time>2022-07-24T07:36:09Z</time>
      </trkpt>
      <trkpt lat="47.18286" lon="-1.4758">
        <ele>67</ele>
        <time>2022-07-24T07:36:11Z</time>
      </trkpt>
      <trkpt lat="47.18296" lon="-1.47584">
        <ele>67</ele>
        <time>2022-07-24T07:36:13Z</time>
      </trkpt>
      <trkpt lat="47.18306" lon="-1.47587">
        <ele>68</ele>
        <time>2022-07-24T07:36:15Z</time>
      </trkpt>
      <trkpt lat="47.18316" lon="-1.4759">
        <ele>68</ele>
        <time>2022-07-24T07:36:17Z</time>
      </trkpt>
      <trkpt lat="47.18327" lon="-1.47593">
        <ele>68</ele>
        <time>2022-07-24T07:36:19Z</time>
      </trkpt>
      <trkpt lat="47.18337" lon="-1.47595">
        <ele>68</ele>
        <time>2022-07-24T07:36:21Z</time>
      </trkpt>
      <trkpt lat="47.18347" lon="-1.47597">
        <ele>69</ele>
        <time>2022-07-24T07:36:23Z</time>
      </trkpt>
      <trkpt lat="47.18357" lon="-1.47599">
        <ele>69</ele>
        <time>2022-07-24T07:36:25Z</time>
      </trkpt>
      <trkpt lat="47.18368" lon="-1.47601">
        <ele>69</ele>
        <time>2022-07-24T07:36:27Z</time>
      </trkpt>
      <trkpt lat="47.18379" lon="-1.47603">
        <ele>69</ele>
        <time>2022-07-24T07:36:29Z</time>
      </trkpt>
      <trkpt lat="47.18389" lon="-1.47606">
        <ele>69</ele>
        <time>2022-07-24T07:36:31Z</time>
      </trkpt>
      <trkpt lat="47.184" lon="-1.47609">
        <ele>70</ele>
        <time>2022-07-24T07:36:33Z</time>
      </trkpt>
      <trkpt lat="47.18411" lon="-1.47612">
        <ele>71</ele>
        <time>2022-07-24T07:36:35Z</time>
      </trkpt>
      <trkpt lat="47.18422" lon="-1.47615">
        <ele>71</ele>
        <time>2022-07-24T07:36:37Z</time>
      </trkpt>
      <trkpt lat="47.18432" lon="-1.47618">
        <ele>71</ele>
        <time>2022-07-24T07:36:39Z</time>
      </trkpt>
      <trkpt lat="47.18443" lon="-1.47621">
        <ele>72</ele>
        <time>2022-07-24T07:36:41Z</time>
      </trkpt>
      <trkpt lat="47.18455" lon="-1.47624">
        <ele>73</ele>
        <time>2022-07-24T07:36:43Z</time>
      </trkpt>
      <trkpt lat="47.18466" lon="-1.47627">
        <ele>74</ele>
        <time>2022-07-24T07:36:45Z</time>
      </trkpt>
      <trkpt lat="47.18476" lon="-1.4763">
        <ele>75</ele>
        <time>2022-07-24T07:36:47Z</time>
      </trkpt>
      <trkpt lat="47.18487" lon="-1.47633">
        <ele>75</ele>
        <time>2022-07-24T07:36:49Z</time>
      </trkpt>
      <trkpt lat="47.18498" lon="-1.47635">
        <ele>75</ele>
        <time>2022-07-24T07:36:51Z</time>
      </trkpt>
      <trkpt lat="47.18508" lon="-1.47638">
        <ele>76</ele>
        <time>2022-07-24T07:36:53Z</time>
      </trkpt>
      <trkpt lat="47.18519" lon="-1.47641">
        <ele>77</ele>
        <time>2022-07-24T07:36:55Z</time>
      </trkpt>
      <trkpt lat="47.18529" lon="-1.47643">
        <ele>78</ele>
        <time>2022-07-24T07:36:57Z</time>
      </trkpt>
      <trkpt lat="47.1854" lon="-1.47646">
        <ele>78</ele>
        <time>2022-07-24T07:36:59Z</time>
      </trkpt>
      <trkpt lat="47.1855" lon="-1.47649">
        <ele>78</ele>
        <time>2022-07-24T07:37:01Z</time>
      </trkpt>
      <trkpt lat="47.18561" lon="-1.47652">
        <ele>79</ele>
        <time>2022-07-24T07:37:03Z</time>
      </trkpt>
      <trkpt lat="47.1857" lon="-1.47655">
        <ele>79</ele>
        <time>2022-07-24T07:37:05Z</time>
      </trkpt>
      <trkpt lat="47.1858" lon="-1.47658">
        <ele>79</ele>
        <time>2022-07-24T07:37:07Z</time>
      </trkpt>
      <trkpt lat="47.18591" lon="-1.47661">
        <ele>80</ele>
        <time>2022-07-24T07:37:09Z</time>
      </trkpt>
      <trkpt lat="47.18602" lon="-1.47664">
        <ele>80</ele>
        <time>2022-07-24T07:37:11Z</time>
      </trkpt>
      <trkpt lat="47.18612" lon="-1.47668">
        <ele>80</ele>
        <time>2022-07-24T07:37:13Z</time>
      </trkpt>
      <trkpt lat="47.18623" lon="-1.4767">
        <ele>80</ele>
        <time>2022-07-24T07:37:15Z</time>
      </trkpt>
      <trkpt lat="47.18633" lon="-1.47672">
        <ele>81</ele>
        <time>2022-07-24T07:37:17Z</time>
      </trkpt>
      <trkpt lat="47.18642" lon="-1.47675">
        <ele>81</ele>
        <time>2022-07-24T07:37:19Z</time>
      </trkpt>
      <trkpt lat="47.18654" lon="-1.47677">
        <ele>81</ele>
        <time>2022-07-24T07:37:22Z</time>
      </trkpt>
      <trkpt lat="47.18665" lon="-1.4768">
        <ele>81</ele>
        <time>2022-07-24T07:37:25Z</time>
      </trkpt>
      <trkpt lat="47.18675" lon="-1.47683">
        <ele>81</ele>
        <time>2022-07-24T07:37:28Z</time>
      </trkpt>
      <trkpt lat="47.18684" lon="-1.47684">
        <ele>82</ele>
        <time>2022-07-24T07:37:30Z</time>
      </trkpt>
      <trkpt lat="47.18694" lon="-1.47682">
        <ele>82</ele>
        <time>2022-07-24T07:37:32Z</time>
      </trkpt>
      <trkpt lat="47.18703" lon="-1.4768">
        <ele>82</ele>
        <time>2022-07-24T07:37:34Z</time>
      </trkpt>
      <trkpt lat="47.1871" lon="-1.47671">
        <ele>82</ele>
        <time>2022-07-24T07:37:36Z</time>
      </trkpt>
      <trkpt lat="47.18716" lon="-1.47658">
        <ele>83</ele>
        <time>2022-07-24T07:37:38Z</time>
      </trkpt>
      <trkpt lat="47.18722" lon="-1.47644">
        <ele>83</ele>
        <time>2022-07-24T07:37:40Z</time>
      </trkpt>
      <trkpt lat="47.18727" lon="-1.4763">
        <ele>82</ele>
        <time>2022-07-24T07:37:42Z</time>
      </trkpt>
      <trkpt lat="47.18734" lon="-1.47616">
        <ele>82</ele>
        <time>2022-07-24T07:37:44Z</time>
      </trkpt>
      <trkpt lat="47.1874" lon="-1.47604">
        <ele>82</ele>
        <time>2022-07-24T07:37:46Z</time>
      </trkpt>
      <trkpt lat="47.18746" lon="-1.47591">
        <ele>83</ele>
        <time>2022-07-24T07:37:48Z</time>
      </trkpt>
      <trkpt lat="47.18753" lon="-1.47578">
        <ele>83</ele>
        <time>2022-07-24T07:37:50Z</time>
      </trkpt>
      <trkpt lat="47.18758" lon="-1.47565">
        <ele>83</ele>
        <time>2022-07-24T07:37:52Z</time>
      </trkpt>
      <trkpt lat="47.18764" lon="-1.47552">
        <ele>83</ele>
        <time>2022-07-24T07:37:54Z</time>
      </trkpt>
      <trkpt lat="47.18771" lon="-1.47539">
        <ele>82</ele>
        <time>2022-07-24T07:37:56Z</time>
      </trkpt>
      <trkpt lat="47.18778" lon="-1.47525">
        <ele>82</ele>
        <time>2022-07-24T07:37:58Z</time>
      </trkpt>
      <trkpt lat="47.18784" lon="-1.47512">
        <ele>83</ele>
        <time>2022-07-24T07:38:00Z</time>
      </trkpt>
      <trkpt lat="47.18791" lon="-1.47499">
        <ele>83</ele>
        <time>2022-07-24T07:38:02Z</time>
      </trkpt>
      <trkpt lat="47.18797" lon="-1.47486">
        <ele>83</ele>
        <time>2022-07-24T07:38:04Z</time>
      </trkpt>
      <trkpt lat="47.18803" lon="-1.47472">
        <ele>83</ele>
        <time>2022-07-24T07:38:06Z</time>
      </trkpt>
      <trkpt lat="47.18809" lon="-1.47458">
        <ele>83</ele>
        <time>2022-07-24T07:38:08Z</time>
      </trkpt>
      <trkpt lat="47.18816" lon="-1.47445">
        <ele>83</ele>
        <time>2022-07-24T07:38:10Z</time>
      </trkpt>
      <trkpt lat="47.18822" lon="-1.47431">
        <ele>83</ele>
        <time>2022-07-24T07:38:12Z</time>
      </trkpt>
      <trkpt lat="47.18829" lon="-1.47417">
        <ele>84</ele>
        <time>2022-07-24T07:38:14Z</time>
      </trkpt>
      <trkpt lat="47.18834" lon="-1.47403">
        <ele>84</ele>
        <time>2022-07-24T07:38:16Z</time>
      </trkpt>
      <trkpt lat="47.1884" lon="-1.4739">
        <ele>84</ele>
        <time>2022-07-24T07:38:18Z</time>
      </trkpt>
      <trkpt lat="47.18847" lon="-1.47379">
        <ele>85</ele>
        <time>2022-07-24T07:38:20Z</time>
      </trkpt>
      <trkpt lat="47.18854" lon="-1.47366">
        <ele>85</ele>
        <time>2022-07-24T07:38:22Z</time>
      </trkpt>
      <trkpt lat="47.1886" lon="-1.47352">
        <ele>85</ele>
        <time>2022-07-24T07:38:24Z</time>
      </trkpt>
      <trkpt lat="47.18867" lon="-1.47338">
        <ele>85</ele>
        <time>2022-07-24T07:38:26Z</time>
      </trkpt>
      <trkpt lat="47.18874" lon="-1.47323">
        <ele>86</ele>
        <time>2022-07-24T07:38:28Z</time>
      </trkpt>
      <trkpt lat="47.18879" lon="-1.4731">
        <ele>86</ele>
        <time>2022-07-24T07:38:30Z</time>
      </trkpt>
      <trkpt lat="47.18886" lon="-1.47295">
        <ele>87</ele>
        <time>2022-07-24T07:38:32Z</time>
      </trkpt>
      <trkpt lat="47.18892" lon="-1.47282">
        <ele>88</ele>
        <time>2022-07-24T07:38:34Z</time>
      </trkpt>
      <trkpt lat="47.18898" lon="-1.47269">
        <ele>89</ele>
        <time>2022-07-24T07:38:36Z</time>
      </trkpt>
      <trkpt lat="47.18904" lon="-1.47257">
        <ele>89</ele>
        <time>2022-07-24T07:38:38Z</time>
      </trkpt>
      <trkpt lat="47.18911" lon="-1.47245">
        <ele>89</ele>
        <time>2022-07-24T07:38:40Z</time>
      </trkpt>
      <trkpt lat="47.18916" lon="-1.47233">
        <ele>89</ele>
        <time>2022-07-24T07:38:42Z</time>
      </trkpt>
      <trkpt lat="47.18923" lon="-1.47221">
        <ele>89</ele>
        <time>2022-07-24T07:38:44Z</time>
      </trkpt>
      <trkpt lat="47.18928" lon="-1.47208">
        <ele>89</ele>
        <time>2022-07-24T07:38:46Z</time>
      </trkpt>
      <trkpt lat="47.1893" lon="-1.47193">
        <ele>89</ele>
        <time>2022-07-24T07:38:48Z</time>
      </trkpt>
      <trkpt lat="47.18937" lon="-1.4718">
        <ele>88</ele>
        <time>2022-07-24T07:38:50Z</time>
      </trkpt>
      <trkpt lat="47.18946" lon="-1.47169">
        <ele>88</ele>
        <time>2022-07-24T07:38:52Z</time>
      </trkpt>
      <trkpt lat="47.18954" lon="-1.47156">
        <ele>88</ele>
        <time>2022-07-24T07:38:54Z</time>
      </trkpt>
      <trkpt lat="47.18961" lon="-1.47142">
        <ele>87</ele>
        <time>2022-07-24T07:38:56Z</time>
      </trkpt>
      <trkpt lat="47.18968" lon="-1.47129">
        <ele>88</ele>
        <time>2022-07-24T07:38:58Z</time>
      </trkpt>
      <trkpt lat="47.18975" lon="-1.47114">
        <ele>88</ele>
        <time>2022-07-24T07:39:00Z</time>
      </trkpt>
      <trkpt lat="47.18982" lon="-1.47099">
        <ele>88</ele>
        <time>2022-07-24T07:39:02Z</time>
      </trkpt>
      <trkpt lat="47.18989" lon="-1.47085">
        <ele>88</ele>
        <time>2022-07-24T07:39:04Z</time>
      </trkpt>
      <trkpt lat="47.18996" lon="-1.4707">
        <ele>88</ele>
        <time>2022-07-24T07:39:06Z</time>
      </trkpt>
      <trkpt lat="47.19002" lon="-1.47055">
        <ele>88</ele>
        <time>2022-07-24T07:39:08Z</time>
      </trkpt>
      <trkpt lat="47.19009" lon="-1.47041">
        <ele>88</ele>
        <time>2022-07-24T07:39:10Z</time>
      </trkpt>
      <trkpt lat="47.19016" lon="-1.47026">
        <ele>86</ele>
        <time>2022-07-24T07:39:12Z</time>
      </trkpt>
      <trkpt lat="47.19022" lon="-1.47012">
        <ele>85</ele>
        <time>2022-07-24T07:39:14Z</time>
      </trkpt>
      <trkpt lat="47.19029" lon="-1.46997">
        <ele>85</ele>
        <time>2022-07-24T07:39:16Z</time>
      </trkpt>
      <trkpt lat="47.19035" lon="-1.46982">
        <ele>84</ele>
        <time>2022-07-24T07:39:18Z</time>
      </trkpt>
      <trkpt lat="47.19043" lon="-1.46967">
        <ele>84</ele>
        <time>2022-07-24T07:39:20Z</time>
      </trkpt>
      <trkpt lat="47.1905" lon="-1.46951">
        <ele>84</ele>
        <time>2022-07-24T07:39:22Z</time>
      </trkpt>
      <trkpt lat="47.19057" lon="-1.46936">
        <ele>84</ele>
        <time>2022-07-24T07:39:24Z</time>
      </trkpt>
      <trkpt lat="47.19064" lon="-1.46922">
        <ele>84</ele>
        <time>2022-07-24T07:39:26Z</time>
      </trkpt>
      <trkpt lat="47.19072" lon="-1.46907">
        <ele>84</ele>
        <time>2022-07-24T07:39:28Z</time>
      </trkpt>
      <trkpt lat="47.19078" lon="-1.46892">
        <ele>84</ele>
        <time>2022-07-24T07:39:30Z</time>
      </trkpt>
      <trkpt lat="47.19085" lon="-1.46879">
        <ele>85</ele>
        <time>2022-07-24T07:39:32Z</time>
      </trkpt>
      <trkpt lat="47.19092" lon="-1.46865">
        <ele>85</ele>
        <time>2022-07-24T07:39:34Z</time>
      </trkpt>
      <trkpt lat="47.19098" lon="-1.46851">
        <ele>85</ele>
        <time>2022-07-24T07:39:36Z</time>
      </trkpt>
      <trkpt lat="47.19105" lon="-1.46838">
        <ele>85</ele>
        <time>2022-07-24T07:39:38Z</time>
      </trkpt>
      <trkpt lat="47.19112" lon="-1.46824">
        <ele>84</ele>
        <time>2022-07-24T07:39:40Z</time>
      </trkpt>
      <trkpt lat="47.19119" lon="-1.4681">
        <ele>84</ele>
        <time>2022-07-24T07:39:42Z</time>
      </trkpt>
      <trkpt lat="47.19126" lon="-1.46795">
        <ele>84</ele>
        <time>2022-07-24T07:39:44Z</time>
      </trkpt>
      <trkpt lat="47.19133" lon="-1.46781">
        <ele>85</ele>
        <time>2022-07-24T07:39:46Z</time>
      </trkpt>
      <trkpt lat="47.19139" lon="-1.46767">
        <ele>85</ele>
        <time>2022-07-24T07:39:48Z</time>
      </trkpt>
      <trkpt lat="47.19146" lon="-1.46753">
        <ele>85</ele>
        <time>2022-07-24T07:39:50Z</time>
      </trkpt>
      <trkpt lat="47.19153" lon="-1.46739">
        <ele>85</ele>
        <time>2022-07-24T07:39:52Z</time>
      </trkpt>
      <trkpt lat="47.1916" lon="-1.46725">
        <ele>85</ele>
        <time>2022-07-24T07:39:54Z</time>
      </trkpt>
      <trkpt lat="47.19167" lon="-1.4671">
        <ele>85</ele>
        <time>2022-07-24T07:39:56Z</time>
      </trkpt>
      <trkpt lat="47.19174" lon="-1.46694">
        <ele>85</ele>
        <time>2022-07-24T07:39:58Z</time>
      </trkpt>
      <trkpt lat="47.19181" lon="-1.4668">
        <ele>86</ele>
        <time>2022-07-24T07:40:00Z</time>
      </trkpt>
      <trkpt lat="47.19187" lon="-1.46666">
        <ele>86</ele>
        <time>2022-07-24T07:40:02Z</time>
      </trkpt>
      <trkpt lat="47.19194" lon="-1.46652">
        <ele>86</ele>
        <time>2022-07-24T07:40:04Z</time>
      </trkpt>
      <trkpt lat="47.19201" lon="-1.46637">
        <ele>86</ele>
        <time>2022-07-24T07:40:06Z</time>
      </trkpt>
      <trkpt lat="47.19208" lon="-1.46623">
        <ele>86</ele>
        <time>2022-07-24T07:40:08Z</time>
      </trkpt>
      <trkpt lat="47.19215" lon="-1.46608">
        <ele>86</ele>
        <time>2022-07-24T07:40:10Z</time>
      </trkpt>
      <trkpt lat="47.19223" lon="-1.46594">
        <ele>86</ele>
        <time>2022-07-24T07:40:12Z</time>
      </trkpt>
      <trkpt lat="47.19229" lon="-1.4658">
        <ele>86</ele>
        <time>2022-07-24T07:40:14Z</time>
      </trkpt>
      <trkpt lat="47.19236" lon="-1.46566">
        <ele>86</ele>
        <time>2022-07-24T07:40:16Z</time>
      </trkpt>
      <trkpt lat="47.19243" lon="-1.46551">
        <ele>86</ele>
        <time>2022-07-24T07:40:18Z</time>
      </trkpt>
      <trkpt lat="47.1925" lon="-1.46536">
        <ele>86</ele>
        <time>2022-07-24T07:40:20Z</time>
      </trkpt>
      <trkpt lat="47.19257" lon="-1.46522">
        <ele>86</ele>
        <time>2022-07-24T07:40:22Z</time>
      </trkpt>
      <trkpt lat="47.19264" lon="-1.46508">
        <ele>87</ele>
        <time>2022-07-24T07:40:24Z</time>
      </trkpt>
      <trkpt lat="47.19271" lon="-1.46493">
        <ele>87</ele>
        <time>2022-07-24T07:40:26Z</time>
      </trkpt>
      <trkpt lat="47.19277" lon="-1.46479">
        <ele>87</ele>
        <time>2022-07-24T07:40:28Z</time>
      </trkpt>
      <trkpt lat="47.19284" lon="-1.46465">
        <ele>87</ele>
        <time>2022-07-24T07:40:30Z</time>
      </trkpt>
      <trkpt lat="47.19291" lon="-1.46451">
        <ele>87</ele>
        <time>2022-07-24T07:40:32Z</time>
      </trkpt>
      <trkpt lat="47.19298" lon="-1.46437">
        <ele>87</ele>
        <time>2022-07-24T07:40:34Z</time>
      </trkpt>
      <trkpt lat="47.19305" lon="-1.46422">
        <ele>87</ele>
        <time>2022-07-24T07:40:36Z</time>
      </trkpt>
      <trkpt lat="47.19312" lon="-1.46408">
        <ele>87</ele>
        <time>2022-07-24T07:40:38Z</time>
      </trkpt>
      <trkpt lat="47.19318" lon="-1.46393">
        <ele>87</ele>
        <time>2022-07-24T07:40:40Z</time>
      </trkpt>
      <trkpt lat="47.19325" lon="-1.46378">
        <ele>87</ele>
        <time>2022-07-24T07:40:42Z</time>
      </trkpt>
      <trkpt lat="47.19332" lon="-1.46363">
        <ele>87</ele>
        <time>2022-07-24T07:40:44Z</time>
      </trkpt>
      <trkpt lat="47.19338" lon="-1.46347">
        <ele>87</ele>
        <time>2022-07-24T07:40:46Z</time>
      </trkpt>
      <trkpt lat="47.19344" lon="-1.46333">
        <ele>86</ele>
        <time>2022-07-24T07:40:48Z</time>
      </trkpt>
      <trkpt lat="47.19349" lon="-1.46321">
        <ele>86</ele>
        <time>2022-07-24T07:40:50Z</time>
      </trkpt>
      <trkpt lat="47.19353" lon="-1.46307">
        <ele>86</ele>
        <time>2022-07-24T07:40:52Z</time>
      </trkpt>
      <trkpt lat="47.1936" lon="-1.46293">
        <ele>86</ele>
        <time>2022-07-24T07:40:54Z</time>
      </trkpt>
      <trkpt lat="47.19369" lon="-1.4629">
        <ele>86</ele>
        <time>2022-07-24T07:40:56Z</time>
      </trkpt>
      <trkpt lat="47.19379" lon="-1.46298">
        <ele>85</ele>
        <time>2022-07-24T07:40:58Z</time>
      </trkpt>
      <trkpt lat="47.19389" lon="-1.46308">
        <ele>84</ele>
        <time>2022-07-24T07:41:00Z</time>
      </trkpt>
      <trkpt lat="47.194" lon="-1.46317">
        <ele>83</ele>
        <time>2022-07-24T07:41:02Z</time>
      </trkpt>
      <trkpt lat="47.19412" lon="-1.46323">
        <ele>83</ele>
        <time>2022-07-24T07:41:04Z</time>
      </trkpt>
      <trkpt lat="47.19423" lon="-1.46329">
        <ele>83</ele>
        <time>2022-07-24T07:41:06Z</time>
      </trkpt>
      <trkpt lat="47.19435" lon="-1.46335">
        <ele>83</ele>
        <time>2022-07-24T07:41:08Z</time>
      </trkpt>
      <trkpt lat="47.19446" lon="-1.4634">
        <ele>83</ele>
        <time>2022-07-24T07:41:10Z</time>
      </trkpt>
      <trkpt lat="47.19459" lon="-1.46346">
        <ele>83</ele>
        <time>2022-07-24T07:41:12Z</time>
      </trkpt>
      <trkpt lat="47.1947" lon="-1.46352">
        <ele>82</ele>
        <time>2022-07-24T07:41:14Z</time>
      </trkpt>
      <trkpt lat="47.19482" lon="-1.46357">
        <ele>82</ele>
        <time>2022-07-24T07:41:16Z</time>
      </trkpt>
      <trkpt lat="47.19494" lon="-1.46363">
        <ele>82</ele>
        <time>2022-07-24T07:41:18Z</time>
      </trkpt>
      <trkpt lat="47.19506" lon="-1.46369">
        <ele>82</ele>
        <time>2022-07-24T07:41:20Z</time>
      </trkpt>
      <trkpt lat="47.19519" lon="-1.46375">
        <ele>82</ele>
        <time>2022-07-24T07:41:22Z</time>
      </trkpt>
      <trkpt lat="47.1953" lon="-1.46381">
        <ele>82</ele>
        <time>2022-07-24T07:41:24Z</time>
      </trkpt>
      <trkpt lat="47.19543" lon="-1.46387">
        <ele>82</ele>
        <time>2022-07-24T07:41:26Z</time>
      </trkpt>
      <trkpt lat="47.19555" lon="-1.46393">
        <ele>81</ele>
        <time>2022-07-24T07:41:28Z</time>
      </trkpt>
      <trkpt lat="47.19568" lon="-1.46399">
        <ele>80</ele>
        <time>2022-07-24T07:41:30Z</time>
      </trkpt>
      <trkpt lat="47.19581" lon="-1.46405">
        <ele>80</ele>
        <time>2022-07-24T07:41:32Z</time>
      </trkpt>
      <trkpt lat="47.19594" lon="-1.46412">
        <ele>80</ele>
        <time>2022-07-24T07:41:34Z</time>
      </trkpt>
      <trkpt lat="47.19608" lon="-1.46418">
        <ele>79</ele>
        <time>2022-07-24T07:41:36Z</time>
      </trkpt>
      <trkpt lat="47.19621" lon="-1.46424">
        <ele>78</ele>
        <time>2022-07-24T07:41:38Z</time>
      </trkpt>
      <trkpt lat="47.19634" lon="-1.46431">
        <ele>78</ele>
        <time>2022-07-24T07:41:40Z</time>
      </trkpt>
      <trkpt lat="47.19647" lon="-1.46437">
        <ele>78</ele>
        <time>2022-07-24T07:41:42Z</time>
      </trkpt>
      <trkpt lat="47.19659" lon="-1.46443">
        <ele>78</ele>
        <time>2022-07-24T07:41:44Z</time>
      </trkpt>
      <trkpt lat="47.19673" lon="-1.4645">
        <ele>78</ele>
        <time>2022-07-24T07:41:46Z</time>
      </trkpt>
      <trkpt lat="47.19686" lon="-1.46456">
        <ele>78</ele>
        <time>2022-07-24T07:41:48Z</time>
      </trkpt>
      <trkpt lat="47.19701" lon="-1.46463">
        <ele>77</ele>
        <time>2022-07-24T07:41:50Z</time>
      </trkpt>
      <trkpt lat="47.19715" lon="-1.4647">
        <ele>77</ele>
        <time>2022-07-24T07:41:52Z</time>
      </trkpt>
      <trkpt lat="47.19728" lon="-1.46476">
        <ele>78</ele>
        <time>2022-07-24T07:41:54Z</time>
      </trkpt>
      <trkpt lat="47.19742" lon="-1.46483">
        <ele>77</ele>
        <time>2022-07-24T07:41:56Z</time>
      </trkpt>
      <trkpt lat="47.19755" lon="-1.46489">
        <ele>77</ele>
        <time>2022-07-24T07:41:58Z</time>
      </trkpt>
      <trkpt lat="47.19769" lon="-1.46496">
        <ele>76</ele>
        <time>2022-07-24T07:42:00Z</time>
      </trkpt>
      <trkpt lat="47.19783" lon="-1.46503">
        <ele>76</ele>
        <time>2022-07-24T07:42:02Z</time>
      </trkpt>
      <trkpt lat="47.19797" lon="-1.46509">
        <ele>76</ele>
        <time>2022-07-24T07:42:04Z</time>
      </trkpt>
      <trkpt lat="47.1981" lon="-1.46516">
        <ele>75</ele>
        <time>2022-07-24T07:42:06Z</time>
      </trkpt>
      <trkpt lat="47.19824" lon="-1.46523">
        <ele>75</ele>
        <time>2022-07-24T07:42:08Z</time>
      </trkpt>
      <trkpt lat="47.19838" lon="-1.46529">
        <ele>74</ele>
        <time>2022-07-24T07:42:10Z</time>
      </trkpt>
      <trkpt lat="47.19852" lon="-1.46536">
        <ele>74</ele>
        <time>2022-07-24T07:42:12Z</time>
      </trkpt>
      <trkpt lat="47.19872" lon="-1.46545">
        <ele>74</ele>
        <time>2022-07-24T07:42:15Z</time>
      </trkpt>
      <trkpt lat="47.19886" lon="-1.46551">
        <ele>74</ele>
        <time>2022-07-24T07:42:17Z</time>
      </trkpt>
      <trkpt lat="47.199" lon="-1.46557">
        <ele>73</ele>
        <time>2022-07-24T07:42:19Z</time>
      </trkpt>
      <trkpt lat="47.19913" lon="-1.46564">
        <ele>72</ele>
        <time>2022-07-24T07:42:21Z</time>
      </trkpt>
      <trkpt lat="47.19927" lon="-1.4657">
        <ele>72</ele>
        <time>2022-07-24T07:42:23Z</time>
      </trkpt>
      <trkpt lat="47.19941" lon="-1.46576">
        <ele>71</ele>
        <time>2022-07-24T07:42:25Z</time>
      </trkpt>
      <trkpt lat="47.19955" lon="-1.46582">
        <ele>71</ele>
        <time>2022-07-24T07:42:27Z</time>
      </trkpt>
      <trkpt lat="47.19967" lon="-1.46587">
        <ele>71</ele>
        <time>2022-07-24T07:42:29Z</time>
      </trkpt>
      <trkpt lat="47.1998" lon="-1.46593">
        <ele>71</ele>
        <time>2022-07-24T07:42:31Z</time>
      </trkpt>
      <trkpt lat="47.19993" lon="-1.46599">
        <ele>72</ele>
        <time>2022-07-24T07:42:33Z</time>
      </trkpt>
      <trkpt lat="47.20007" lon="-1.46605">
        <ele>72</ele>
        <time>2022-07-24T07:42:35Z</time>
      </trkpt>
      <trkpt lat="47.20021" lon="-1.4661">
        <ele>72</ele>
        <time>2022-07-24T07:42:37Z</time>
      </trkpt>
      <trkpt lat="47.20041" lon="-1.46619">
        <ele>72</ele>
        <time>2022-07-24T07:42:40Z</time>
      </trkpt>
      <trkpt lat="47.20054" lon="-1.46625">
        <ele>71</ele>
        <time>2022-07-24T07:42:42Z</time>
      </trkpt>
      <trkpt lat="47.20067" lon="-1.46631">
        <ele>72</ele>
        <time>2022-07-24T07:42:44Z</time>
      </trkpt>
      <trkpt lat="47.2008" lon="-1.46636">
        <ele>71</ele>
        <time>2022-07-24T07:42:46Z</time>
      </trkpt>
      <trkpt lat="47.20094" lon="-1.46642">
        <ele>71</ele>
        <time>2022-07-24T07:42:48Z</time>
      </trkpt>
      <trkpt lat="47.20112" lon="-1.46653">
        <ele>71</ele>
        <time>2022-07-24T07:42:51Z</time>
      </trkpt>
      <trkpt lat="47.20125" lon="-1.46659">
        <ele>71</ele>
        <time>2022-07-24T07:42:53Z</time>
      </trkpt>
      <trkpt lat="47.20137" lon="-1.46668">
        <ele>70</ele>
        <time>2022-07-24T07:42:55Z</time>
      </trkpt>
      <trkpt lat="47.20149" lon="-1.46671">
        <ele>70</ele>
        <time>2022-07-24T07:42:57Z</time>
      </trkpt>
      <trkpt lat="47.20162" lon="-1.46671">
        <ele>70</ele>
        <time>2022-07-24T07:42:59Z</time>
      </trkpt>
      <trkpt lat="47.20175" lon="-1.46673">
        <ele>69</ele>
        <time>2022-07-24T07:43:01Z</time>
      </trkpt>
      <trkpt lat="47.20189" lon="-1.46678">
        <ele>69</ele>
        <time>2022-07-24T07:43:03Z</time>
      </trkpt>
      <trkpt lat="47.20202" lon="-1.46682">
        <ele>68</ele>
        <time>2022-07-24T07:43:05Z</time>
      </trkpt>
      <trkpt lat="47.20216" lon="-1.46685">
        <ele>69</ele>
        <time>2022-07-24T07:43:07Z</time>
      </trkpt>
      <trkpt lat="47.2023" lon="-1.46686">
        <ele>68</ele>
        <time>2022-07-24T07:43:09Z</time>
      </trkpt>
      <trkpt lat="47.20244" lon="-1.46691">
        <ele>68</ele>
        <time>2022-07-24T07:43:11Z</time>
      </trkpt>
      <trkpt lat="47.20258" lon="-1.46694">
        <ele>69</ele>
        <time>2022-07-24T07:43:13Z</time>
      </trkpt>
      <trkpt lat="47.20272" lon="-1.46696">
        <ele>69</ele>
        <time>2022-07-24T07:43:15Z</time>
      </trkpt>
      <trkpt lat="47.20285" lon="-1.46698">
        <ele>69</ele>
        <time>2022-07-24T07:43:17Z</time>
      </trkpt>
      <trkpt lat="47.20299" lon="-1.467">
        <ele>68</ele>
        <time>2022-07-24T07:43:19Z</time>
      </trkpt>
      <trkpt lat="47.20312" lon="-1.46703">
        <ele>68</ele>
        <time>2022-07-24T07:43:21Z</time>
      </trkpt>
      <trkpt lat="47.20326" lon="-1.46704">
        <ele>69</ele>
        <time>2022-07-24T07:43:23Z</time>
      </trkpt>
      <trkpt lat="47.20339" lon="-1.46707">
        <ele>69</ele>
        <time>2022-07-24T07:43:25Z</time>
      </trkpt>
      <trkpt lat="47.20352" lon="-1.46709">
        <ele>69</ele>
        <time>2022-07-24T07:43:27Z</time>
      </trkpt>
      <trkpt lat="47.20366" lon="-1.46711">
        <ele>70</ele>
        <time>2022-07-24T07:43:29Z</time>
      </trkpt>
      <trkpt lat="47.20379" lon="-1.46713">
        <ele>70</ele>
        <time>2022-07-24T07:43:31Z</time>
      </trkpt>
      <trkpt lat="47.20392" lon="-1.46715">
        <ele>71</ele>
        <time>2022-07-24T07:43:33Z</time>
      </trkpt>
      <trkpt lat="47.20404" lon="-1.46717">
        <ele>71</ele>
        <time>2022-07-24T07:43:35Z</time>
      </trkpt>
      <trkpt lat="47.20417" lon="-1.46718">
        <ele>72</ele>
        <time>2022-07-24T07:43:37Z</time>
      </trkpt>
      <trkpt lat="47.2043" lon="-1.4672">
        <ele>72</ele>
        <time>2022-07-24T07:43:39Z</time>
      </trkpt>
      <trkpt lat="47.20443" lon="-1.46722">
        <ele>72</ele>
        <time>2022-07-24T07:43:41Z</time>
      </trkpt>
      <trkpt lat="47.20456" lon="-1.46724">
        <ele>72</ele>
        <time>2022-07-24T07:43:43Z</time>
      </trkpt>
      <trkpt lat="47.20468" lon="-1.46725">
        <ele>73</ele>
        <time>2022-07-24T07:43:45Z</time>
      </trkpt>
      <trkpt lat="47.20481" lon="-1.46727">
        <ele>73</ele>
        <time>2022-07-24T07:43:47Z</time>
      </trkpt>
      <trkpt lat="47.20494" lon="-1.46729">
        <ele>73</ele>
        <time>2022-07-24T07:43:49Z</time>
      </trkpt>
      <trkpt lat="47.20507" lon="-1.46731">
        <ele>73</ele>
        <time>2022-07-24T07:43:51Z</time>
      </trkpt>
      <trkpt lat="47.20519" lon="-1.46733">
        <ele>74</ele>
        <time>2022-07-24T07:43:53Z</time>
      </trkpt>
      <trkpt lat="47.20532" lon="-1.46735">
        <ele>74</ele>
        <time>2022-07-24T07:43:55Z</time>
      </trkpt>
      <trkpt lat="47.20546" lon="-1.46736">
        <ele>74</ele>
        <time>2022-07-24T07:43:57Z</time>
      </trkpt>
      <trkpt lat="47.20559" lon="-1.46735">
        <ele>75</ele>
        <time>2022-07-24T07:43:59Z</time>
      </trkpt>
      <trkpt lat="47.20571" lon="-1.46734">
        <ele>75</ele>
        <time>2022-07-24T07:44:01Z</time>
      </trkpt>
      <trkpt lat="47.20583" lon="-1.46733">
        <ele>75</ele>
        <time>2022-07-24T07:44:03Z</time>
      </trkpt>
      <trkpt lat="47.20596" lon="-1.4673">
        <ele>75</ele>
        <time>2022-07-24T07:44:05Z</time>
      </trkpt>
      <trkpt lat="47.20609" lon="-1.46727">
        <ele>75</ele>
        <time>2022-07-24T07:44:07Z</time>
      </trkpt>
      <trkpt lat="47.20622" lon="-1.46724">
        <ele>75</ele>
        <time>2022-07-24T07:44:09Z</time>
      </trkpt>
      <trkpt lat="47.20634" lon="-1.46722">
        <ele>75</ele>
        <time>2022-07-24T07:44:11Z</time>
      </trkpt>
      <trkpt lat="47.20647" lon="-1.4672">
        <ele>75</ele>
        <time>2022-07-24T07:44:13Z</time>
      </trkpt>
      <trkpt lat="47.20659" lon="-1.46718">
        <ele>75</ele>
        <time>2022-07-24T07:44:15Z</time>
      </trkpt>
      <trkpt lat="47.20672" lon="-1.46716">
        <ele>75</ele>
        <time>2022-07-24T07:44:17Z</time>
      </trkpt>
      <trkpt lat="47.20684" lon="-1.46714">
        <ele>75</ele>
        <time>2022-07-24T07:44:19Z</time>
      </trkpt>
      <trkpt lat="47.20697" lon="-1.46711">
        <ele>75</ele>
        <time>2022-07-24T07:44:21Z</time>
      </trkpt>
      <trkpt lat="47.2071" lon="-1.46708">
        <ele>76</ele>
        <time>2022-07-24T07:44:23Z</time>
      </trkpt>
      <trkpt lat="47.20723" lon="-1.46706">
        <ele>76</ele>
        <time>2022-07-24T07:44:25Z</time>
      </trkpt>
      <trkpt lat="47.20736" lon="-1.46704">
        <ele>76</ele>
        <time>2022-07-24T07:44:27Z</time>
      </trkpt>
      <trkpt lat="47.20748" lon="-1.46702">
        <ele>76</ele>
        <time>2022-07-24T07:44:29Z</time>
      </trkpt>
      <trkpt lat="47.20761" lon="-1.467">
        <ele>76</ele>
        <time>2022-07-24T07:44:31Z</time>
      </trkpt>
      <trkpt lat="47.20774" lon="-1.46698">
        <ele>76</ele>
        <time>2022-07-24T07:44:33Z</time>
      </trkpt>
      <trkpt lat="47.20786" lon="-1.46695">
        <ele>76</ele>
        <time>2022-07-24T07:44:35Z</time>
      </trkpt>
      <trkpt lat="47.20799" lon="-1.46694">
        <ele>77</ele>
        <time>2022-07-24T07:44:37Z</time>
      </trkpt>
      <trkpt lat="47.20812" lon="-1.46694">
        <ele>77</ele>
        <time>2022-07-24T07:44:39Z</time>
      </trkpt>
      <trkpt lat="47.20824" lon="-1.46691">
        <ele>76</ele>
        <time>2022-07-24T07:44:41Z</time>
      </trkpt>
      <trkpt lat="47.20836" lon="-1.46689">
        <ele>77</ele>
        <time>2022-07-24T07:44:43Z</time>
      </trkpt>
      <trkpt lat="47.20849" lon="-1.46684">
        <ele>77</ele>
        <time>2022-07-24T07:44:45Z</time>
      </trkpt>
      <trkpt lat="47.20861" lon="-1.46681">
        <ele>77</ele>
        <time>2022-07-24T07:44:47Z</time>
      </trkpt>
      <trkpt lat="47.20874" lon="-1.4668">
        <ele>77</ele>
        <time>2022-07-24T07:44:49Z</time>
      </trkpt>
      <trkpt lat="47.20886" lon="-1.46675">
        <ele>77</ele>
        <time>2022-07-24T07:44:51Z</time>
      </trkpt>
      <trkpt lat="47.20898" lon="-1.46668">
        <ele>77</ele>
        <time>2022-07-24T07:44:53Z</time>
      </trkpt>
      <trkpt lat="47.2091" lon="-1.46662">
        <ele>77</ele>
        <time>2022-07-24T07:44:55Z</time>
      </trkpt>
      <trkpt lat="47.20921" lon="-1.46654">
        <ele>77</ele>
        <time>2022-07-24T07:44:57Z</time>
      </trkpt>
      <trkpt lat="47.20933" lon="-1.46646">
        <ele>77</ele>
        <time>2022-07-24T07:44:59Z</time>
      </trkpt>
      <trkpt lat="47.20944" lon="-1.46638">
        <ele>77</ele>
        <time>2022-07-24T07:45:01Z</time>
      </trkpt>
      <trkpt lat="47.20956" lon="-1.46631">
        <ele>77</ele>
        <time>2022-07-24T07:45:03Z</time>
      </trkpt>
      <trkpt lat="47.20969" lon="-1.46626">
        <ele>77</ele>
        <time>2022-07-24T07:45:05Z</time>
      </trkpt>
      <trkpt lat="47.20981" lon="-1.46622">
        <ele>77</ele>
        <time>2022-07-24T07:45:07Z</time>
      </trkpt>
      <trkpt lat="47.20994" lon="-1.46618">
        <ele>77</ele>
        <time>2022-07-24T07:45:09Z</time>
      </trkpt>
      <trkpt lat="47.21007" lon="-1.46615">
        <ele>77</ele>
        <time>2022-07-24T07:45:11Z</time>
      </trkpt>
      <trkpt lat="47.21019" lon="-1.46611">
        <ele>77</ele>
        <time>2022-07-24T07:45:13Z</time>
      </trkpt>
      <trkpt lat="47.21032" lon="-1.46607">
        <ele>78</ele>
        <time>2022-07-24T07:45:15Z</time>
      </trkpt>
      <trkpt lat="47.21043" lon="-1.46601">
        <ele>78</ele>
        <time>2022-07-24T07:45:17Z</time>
      </trkpt>
      <trkpt lat="47.21053" lon="-1.46591">
        <ele>78</ele>
        <time>2022-07-24T07:45:19Z</time>
      </trkpt>
      <trkpt lat="47.21059" lon="-1.46576">
        <ele>78</ele>
        <time>2022-07-24T07:45:21Z</time>
      </trkpt>
      <trkpt lat="47.21065" lon="-1.46561">
        <ele>77</ele>
        <time>2022-07-24T07:45:23Z</time>
      </trkpt>
      <trkpt lat="47.21072" lon="-1.46547">
        <ele>77</ele>
        <time>2022-07-24T07:45:25Z</time>
      </trkpt>
      <trkpt lat="47.21082" lon="-1.46537">
        <ele>77</ele>
        <time>2022-07-24T07:45:27Z</time>
      </trkpt>
      <trkpt lat="47.21095" lon="-1.46538">
        <ele>77</ele>
        <time>2022-07-24T07:45:29Z</time>
      </trkpt>
      <trkpt lat="47.21106" lon="-1.46548">
        <ele>77</ele>
        <time>2022-07-24T07:45:31Z</time>
      </trkpt>
      <trkpt lat="47.21116" lon="-1.46559">
        <ele>77</ele>
        <time>2022-07-24T07:45:33Z</time>
      </trkpt>
      <trkpt lat="47.21127" lon="-1.4657">
        <ele>76</ele>
        <time>2022-07-24T07:45:35Z</time>
      </trkpt>
      <trkpt lat="47.21137" lon="-1.46583">
        <ele>76</ele>
        <time>2022-07-24T07:45:37Z</time>
      </trkpt>
      <trkpt lat="47.21149" lon="-1.4659">
        <ele>76</ele>
        <time>2022-07-24T07:45:39Z</time>
      </trkpt>
      <trkpt lat="47.21162" lon="-1.46594">
        <ele>76</ele>
        <time>2022-07-24T07:45:41Z</time>
      </trkpt>
      <trkpt lat="47.21175" lon="-1.46601">
        <ele>75</ele>
        <time>2022-07-24T07:45:43Z</time>
      </trkpt>
      <trkpt lat="47.21188" lon="-1.46609">
        <ele>76</ele>
        <time>2022-07-24T07:45:45Z</time>
      </trkpt>
      <trkpt lat="47.21202" lon="-1.46616">
        <ele>75</ele>
        <time>2022-07-24T07:45:47Z</time>
      </trkpt>
      <trkpt lat="47.21215" lon="-1.46622">
        <ele>75</ele>
        <time>2022-07-24T07:45:49Z</time>
      </trkpt>
      <trkpt lat="47.21229" lon="-1.46625">
        <ele>75</ele>
        <time>2022-07-24T07:45:51Z</time>
      </trkpt>
      <trkpt lat="47.21243" lon="-1.46629">
        <ele>75</ele>
        <time>2022-07-24T07:45:53Z</time>
      </trkpt>
      <trkpt lat="47.21257" lon="-1.46631">
        <ele>74</ele>
        <time>2022-07-24T07:45:55Z</time>
      </trkpt>
      <trkpt lat="47.2127" lon="-1.46633">
        <ele>74</ele>
        <time>2022-07-24T07:45:57Z</time>
      </trkpt>
      <trkpt lat="47.21283" lon="-1.46635">
        <ele>73</ele>
        <time>2022-07-24T07:45:59Z</time>
      </trkpt>
      <trkpt lat="47.21297" lon="-1.46635">
        <ele>73</ele>
        <time>2022-07-24T07:46:01Z</time>
      </trkpt>
      <trkpt lat="47.21311" lon="-1.46635">
        <ele>73</ele>
        <time>2022-07-24T07:46:03Z</time>
      </trkpt>
      <trkpt lat="47.21325" lon="-1.46636">
        <ele>74</ele>
        <time>2022-07-24T07:46:05Z</time>
      </trkpt>
      <trkpt lat="47.21339" lon="-1.46636">
        <ele>73</ele>
        <time>2022-07-24T07:46:07Z</time>
      </trkpt>
      <trkpt lat="47.21354" lon="-1.46636">
        <ele>73</ele>
        <time>2022-07-24T07:46:09Z</time>
      </trkpt>
      <trkpt lat="47.21367" lon="-1.46637">
        <ele>73</ele>
        <time>2022-07-24T07:46:11Z</time>
      </trkpt>
      <trkpt lat="47.21382" lon="-1.46637">
        <ele>73</ele>
        <time>2022-07-24T07:46:13Z</time>
      </trkpt>
      <trkpt lat="47.21396" lon="-1.46637">
        <ele>72</ele>
        <time>2022-07-24T07:46:15Z</time>
      </trkpt>
      <trkpt lat="47.21411" lon="-1.46638">
        <ele>72</ele>
        <time>2022-07-24T07:46:17Z</time>
      </trkpt>
      <trkpt lat="47.21426" lon="-1.46638">
        <ele>71</ele>
        <time>2022-07-24T07:46:19Z</time>
      </trkpt>
      <trkpt lat="47.21441" lon="-1.46637">
        <ele>71</ele>
        <time>2022-07-24T07:46:21Z</time>
      </trkpt>
      <trkpt lat="47.21456" lon="-1.46629">
        <ele>70</ele>
        <time>2022-07-24T07:46:23Z</time>
      </trkpt>
      <trkpt lat="47.2147" lon="-1.46619">
        <ele>70</ele>
        <time>2022-07-24T07:46:25Z</time>
      </trkpt>
      <trkpt lat="47.21484" lon="-1.46607">
        <ele>69</ele>
        <time>2022-07-24T07:46:27Z</time>
      </trkpt>
      <trkpt lat="47.21497" lon="-1.46594">
        <ele>69</ele>
        <time>2022-07-24T07:46:29Z</time>
      </trkpt>
      <trkpt lat="47.21509" lon="-1.46581">
        <ele>68</ele>
        <time>2022-07-24T07:46:31Z</time>
      </trkpt>
      <trkpt lat="47.21518" lon="-1.4657">
        <ele>68</ele>
        <time>2022-07-24T07:46:33Z</time>
      </trkpt>
      <trkpt lat="47.21526" lon="-1.46555">
        <ele>68</ele>
        <time>2022-07-24T07:46:35Z</time>
      </trkpt>
      <trkpt lat="47.21538" lon="-1.46544">
        <ele>67</ele>
        <time>2022-07-24T07:46:37Z</time>
      </trkpt>
      <trkpt lat="47.21553" lon="-1.46538">
        <ele>66</ele>
        <time>2022-07-24T07:46:39Z</time>
      </trkpt>
      <trkpt lat="47.21569" lon="-1.46535">
        <ele>65</ele>
        <time>2022-07-24T07:46:41Z</time>
      </trkpt>
      <trkpt lat="47.21585" lon="-1.46533">
        <ele>64</ele>
        <time>2022-07-24T07:46:43Z</time>
      </trkpt>
      <trkpt lat="47.21602" lon="-1.46534">
        <ele>63</ele>
        <time>2022-07-24T07:46:45Z</time>
      </trkpt>
      <trkpt lat="47.21619" lon="-1.46532">
        <ele>62</ele>
        <time>2022-07-24T07:46:47Z</time>
      </trkpt>
      <trkpt lat="47.21634" lon="-1.46531">
        <ele>61</ele>
        <time>2022-07-24T07:46:49Z</time>
      </trkpt>
      <trkpt lat="47.21644" lon="-1.46523">
        <ele>61</ele>
        <time>2022-07-24T07:46:51Z</time>
      </trkpt>
      <trkpt lat="47.21646" lon="-1.46504">
        <ele>61</ele>
        <time>2022-07-24T07:46:53Z</time>
      </trkpt>
      <trkpt lat="47.21647" lon="-1.46486">
        <ele>60</ele>
        <time>2022-07-24T07:46:55Z</time>
      </trkpt>
      <trkpt lat="47.21649" lon="-1.46469">
        <ele>59</ele>
        <time>2022-07-24T07:46:57Z</time>
      </trkpt>
      <trkpt lat="47.21655" lon="-1.4645">
        <ele>59</ele>
        <time>2022-07-24T07:46:59Z</time>
      </trkpt>
      <trkpt lat="47.21657" lon="-1.4643">
        <ele>59</ele>
        <time>2022-07-24T07:47:01Z</time>
      </trkpt>
      <trkpt lat="47.21658" lon="-1.4641">
        <ele>58</ele>
        <time>2022-07-24T07:47:03Z</time>
      </trkpt>
      <trkpt lat="47.2166" lon="-1.4639">
        <ele>58</ele>
        <time>2022-07-24T07:47:05Z</time>
      </trkpt>
      <trkpt lat="47.21662" lon="-1.4637">
        <ele>58</ele>
        <time>2022-07-24T07:47:07Z</time>
      </trkpt>
      <trkpt lat="47.21664" lon="-1.4635">
        <ele>58</ele>
        <time>2022-07-24T07:47:09Z</time>
      </trkpt>
      <trkpt lat="47.21665" lon="-1.46331">
        <ele>58</ele>
        <time>2022-07-24T07:47:11Z</time>
      </trkpt>
      <trkpt lat="47.21666" lon="-1.46312">
        <ele>58</ele>
        <time>2022-07-24T07:47:13Z</time>
      </trkpt>
      <trkpt lat="47.21668" lon="-1.46294">
        <ele>57</ele>
        <time>2022-07-24T07:47:15Z</time>
      </trkpt>
      <trkpt lat="47.21669" lon="-1.46275">
        <ele>58</ele>
        <time>2022-07-24T07:47:17Z</time>
      </trkpt>
      <trkpt lat="47.2167" lon="-1.46256">
        <ele>58</ele>
        <time>2022-07-24T07:47:19Z</time>
      </trkpt>
      <trkpt lat="47.21671" lon="-1.46238">
        <ele>58</ele>
        <time>2022-07-24T07:47:21Z</time>
      </trkpt>
      <trkpt lat="47.2167" lon="-1.4622">
        <ele>58</ele>
        <time>2022-07-24T07:47:23Z</time>
      </trkpt>
      <trkpt lat="47.21668" lon="-1.46203">
        <ele>58</ele>
        <time>2022-07-24T07:47:25Z</time>
      </trkpt>
      <trkpt lat="47.21667" lon="-1.46188">
        <ele>57</ele>
        <time>2022-07-24T07:47:27Z</time>
      </trkpt>
      <trkpt lat="47.21675" lon="-1.46182">
        <ele>57</ele>
        <time>2022-07-24T07:47:29Z</time>
      </trkpt>
      <trkpt lat="47.21686" lon="-1.46179">
        <ele>57</ele>
        <time>2022-07-24T07:47:31Z</time>
      </trkpt>
      <trkpt lat="47.21693" lon="-1.46168">
        <ele>57</ele>
        <time>2022-07-24T07:47:33Z</time>
      </trkpt>
      <trkpt lat="47.21698" lon="-1.46154">
        <ele>57</ele>
        <time>2022-07-24T07:47:35Z</time>
      </trkpt>
      <trkpt lat="47.21702" lon="-1.46139">
        <ele>58</ele>
        <time>2022-07-24T07:47:37Z</time>
      </trkpt>
      <trkpt lat="47.21707" lon="-1.46125">
        <ele>58</ele>
        <time>2022-07-24T07:47:39Z</time>
      </trkpt>
      <trkpt lat="47.21717" lon="-1.46125">
        <ele>57</ele>
        <time>2022-07-24T07:47:41Z</time>
      </trkpt>
      <trkpt lat="47.21727" lon="-1.46131">
        <ele>56</ele>
        <time>2022-07-24T07:47:43Z</time>
      </trkpt>
      <trkpt lat="47.21739" lon="-1.46138">
        <ele>56</ele>
        <time>2022-07-24T07:47:45Z</time>
      </trkpt>
      <trkpt lat="47.21751" lon="-1.46144">
        <ele>56</ele>
        <time>2022-07-24T07:47:47Z</time>
      </trkpt>
      <trkpt lat="47.21764" lon="-1.46151">
        <ele>56</ele>
        <time>2022-07-24T07:47:49Z</time>
      </trkpt>
      <trkpt lat="47.21775" lon="-1.4616">
        <ele>56</ele>
        <time>2022-07-24T07:47:51Z</time>
      </trkpt>
      <trkpt lat="47.21787" lon="-1.46167">
        <ele>57</ele>
        <time>2022-07-24T07:47:53Z</time>
      </trkpt>
      <trkpt lat="47.21799" lon="-1.46171">
        <ele>56</ele>
        <time>2022-07-24T07:47:55Z</time>
      </trkpt>
      <trkpt lat="47.2181" lon="-1.46176">
        <ele>56</ele>
        <time>2022-07-24T07:47:57Z</time>
      </trkpt>
      <trkpt lat="47.21822" lon="-1.46182">
        <ele>56</ele>
        <time>2022-07-24T07:47:59Z</time>
      </trkpt>
      <trkpt lat="47.21834" lon="-1.46188">
        <ele>56</ele>
        <time>2022-07-24T07:48:01Z</time>
      </trkpt>
      <trkpt lat="47.21845" lon="-1.46194">
        <ele>56</ele>
        <time>2022-07-24T07:48:03Z</time>
      </trkpt>
      <trkpt lat="47.21857" lon="-1.462">
        <ele>56</ele>
        <time>2022-07-24T07:48:05Z</time>
      </trkpt>
      <trkpt lat="47.21868" lon="-1.46206">
        <ele>56</ele>
        <time>2022-07-24T07:48:07Z</time>
      </trkpt>
      <trkpt lat="47.2188" lon="-1.46212">
        <ele>56</ele>
        <time>2022-07-24T07:48:09Z</time>
      </trkpt>
      <trkpt lat="47.21892" lon="-1.46218">
        <ele>56</ele>
        <time>2022-07-24T07:48:11Z</time>
      </trkpt>
      <trkpt lat="47.21903" lon="-1.46224">
        <ele>56</ele>
        <time>2022-07-24T07:48:13Z</time>
      </trkpt>
      <trkpt lat="47.21915" lon="-1.4623">
        <ele>56</ele>
        <time>2022-07-24T07:48:15Z</time>
      </trkpt>
      <trkpt lat="47.21926" lon="-1.46236">
        <ele>57</ele>
        <time>2022-07-24T07:48:17Z</time>
      </trkpt>
      <trkpt lat="47.21937" lon="-1.46242">
        <ele>57</ele>
        <time>2022-07-24T07:48:19Z</time>
      </trkpt>
      <trkpt lat="47.21948" lon="-1.46247">
        <ele>57</ele>
        <time>2022-07-24T07:48:21Z</time>
      </trkpt>
      <trkpt lat="47.21959" lon="-1.46252">
        <ele>57</ele>
        <time>2022-07-24T07:48:23Z</time>
      </trkpt>
      <trkpt lat="47.21969" lon="-1.46258">
        <ele>58</ele>
        <time>2022-07-24T07:48:25Z</time>
      </trkpt>
      <trkpt lat="47.2198" lon="-1.46263">
        <ele>58</ele>
        <time>2022-07-24T07:48:27Z</time>
      </trkpt>
      <trkpt lat="47.21991" lon="-1.46269">
        <ele>58</ele>
        <time>2022-07-24T07:48:29Z</time>
      </trkpt>
      <trkpt lat="47.22003" lon="-1.46275">
        <ele>57</ele>
        <time>2022-07-24T07:48:31Z</time>
      </trkpt>
      <trkpt lat="47.22015" lon="-1.46281">
        <ele>57</ele>
        <time>2022-07-24T07:48:33Z</time>
      </trkpt>
      <trkpt lat="47.22026" lon="-1.46288">
        <ele>57</ele>
        <time>2022-07-24T07:48:35Z</time>
      </trkpt>
      <trkpt lat="47.22038" lon="-1.46294">
        <ele>57</ele>
        <time>2022-07-24T07:48:37Z</time>
      </trkpt>
      <trkpt lat="47.2205" lon="-1.463">
        <ele>57</ele>
        <time>2022-07-24T07:48:39Z</time>
      </trkpt>
      <trkpt lat="47.22063" lon="-1.46305">
        <ele>57</ele>
        <time>2022-07-24T07:48:41Z</time>
      </trkpt>
      <trkpt lat="47.22075" lon="-1.46311">
        <ele>57</ele>
        <time>2022-07-24T07:48:43Z</time>
      </trkpt>
      <trkpt lat="47.22086" lon="-1.46317">
        <ele>57</ele>
        <time>2022-07-24T07:48:45Z</time>
      </trkpt>
      <trkpt lat="47.22098" lon="-1.46323">
        <ele>56</ele>
        <time>2022-07-24T07:48:47Z</time>
      </trkpt>
      <trkpt lat="47.2211" lon="-1.4633">
        <ele>56</ele>
        <time>2022-07-24T07:48:49Z</time>
      </trkpt>
      <trkpt lat="47.22122" lon="-1.46336">
        <ele>56</ele>
        <time>2022-07-24T07:48:51Z</time>
      </trkpt>
      <trkpt lat="47.22134" lon="-1.46342">
        <ele>56</ele>
        <time>2022-07-24T07:48:53Z</time>
      </trkpt>
      <trkpt lat="47.22146" lon="-1.46348">
        <ele>56</ele>
        <time>2022-07-24T07:48:55Z</time>
      </trkpt>
      <trkpt lat="47.22158" lon="-1.46354">
        <ele>56</ele>
        <time>2022-07-24T07:48:57Z</time>
      </trkpt>
      <trkpt lat="47.22169" lon="-1.46361">
        <ele>56</ele>
        <time>2022-07-24T07:48:59Z</time>
      </trkpt>
      <trkpt lat="47.22181" lon="-1.46367">
        <ele>56</ele>
        <time>2022-07-24T07:49:01Z</time>
      </trkpt>
      <trkpt lat="47.22194" lon="-1.46374">
        <ele>56</ele>
        <time>2022-07-24T07:49:03Z</time>
      </trkpt>
      <trkpt lat="47.22205" lon="-1.4638">
        <ele>56</ele>
        <time>2022-07-24T07:49:05Z</time>
      </trkpt>
      <trkpt lat="47.22218" lon="-1.46386">
        <ele>56</ele>
        <time>2022-07-24T07:49:07Z</time>
      </trkpt>
      <trkpt lat="47.22229" lon="-1.46392">
        <ele>56</ele>
        <time>2022-07-24T07:49:09Z</time>
      </trkpt>
      <trkpt lat="47.22241" lon="-1.46398">
        <ele>56</ele>
        <time>2022-07-24T07:49:11Z</time>
      </trkpt>
      <trkpt lat="47.22253" lon="-1.46404">
        <ele>56</ele>
        <time>2022-07-24T07:49:13Z</time>
      </trkpt>
      <trkpt lat="47.22265" lon="-1.4641">
        <ele>56</ele>
        <time>2022-07-24T07:49:15Z</time>
      </trkpt>
      <trkpt lat="47.22276" lon="-1.46417">
        <ele>55</ele>
        <time>2022-07-24T07:49:17Z</time>
      </trkpt>
      <trkpt lat="47.22288" lon="-1.46422">
        <ele>55</ele>
        <time>2022-07-24T07:49:19Z</time>
      </trkpt>
      <trkpt lat="47.223" lon="-1.46428">
        <ele>54</ele>
        <time>2022-07-24T07:49:21Z</time>
      </trkpt>
      <trkpt lat="47.22311" lon="-1.46433">
        <ele>55</ele>
        <time>2022-07-24T07:49:23Z</time>
      </trkpt>
      <trkpt lat="47.22323" lon="-1.46439">
        <ele>55</ele>
        <time>2022-07-24T07:49:25Z</time>
      </trkpt>
      <trkpt lat="47.22334" lon="-1.46447">
        <ele>56</ele>
        <time>2022-07-24T07:49:27Z</time>
      </trkpt>
      <trkpt lat="47.22343" lon="-1.46456">
        <ele>57</ele>
        <time>2022-07-24T07:49:29Z</time>
      </trkpt>
      <trkpt lat="47.22353" lon="-1.46467">
        <ele>57</ele>
        <time>2022-07-24T07:49:31Z</time>
      </trkpt>
      <trkpt lat="47.22362" lon="-1.46479">
        <ele>57</ele>
        <time>2022-07-24T07:49:33Z</time>
      </trkpt>
      <trkpt lat="47.22371" lon="-1.46491">
        <ele>57</ele>
        <time>2022-07-24T07:49:35Z</time>
      </trkpt>
      <trkpt lat="47.2238" lon="-1.46503">
        <ele>57</ele>
        <time>2022-07-24T07:49:37Z</time>
      </trkpt>
      <trkpt lat="47.22389" lon="-1.46515">
        <ele>57</ele>
        <time>2022-07-24T07:49:39Z</time>
      </trkpt>
      <trkpt lat="47.22398" lon="-1.46528">
        <ele>57</ele>
        <time>2022-07-24T07:49:41Z</time>
      </trkpt>
      <trkpt lat="47.22407" lon="-1.46539">
        <ele>57</ele>
        <time>2022-07-24T07:49:43Z</time>
      </trkpt>
      <trkpt lat="47.22416" lon="-1.46551">
        <ele>57</ele>
        <time>2022-07-24T07:49:45Z</time>
      </trkpt>
      <trkpt lat="47.22425" lon="-1.46563">
        <ele>57</ele>
        <time>2022-07-24T07:49:47Z</time>
      </trkpt>
      <trkpt lat="47.22434" lon="-1.46575">
        <ele>57</ele>
        <time>2022-07-24T07:49:49Z</time>
      </trkpt>
      <trkpt lat="47.22443" lon="-1.46587">
        <ele>57</ele>
        <time>2022-07-24T07:49:51Z</time>
      </trkpt>
      <trkpt lat="47.22453" lon="-1.46599">
        <ele>57</ele>
        <time>2022-07-24T07:49:53Z</time>
      </trkpt>
      <trkpt lat="47.22461" lon="-1.4661">
        <ele>57</ele>
        <time>2022-07-24T07:49:55Z</time>
      </trkpt>
      <trkpt lat="47.2247" lon="-1.46621">
        <ele>57</ele>
        <time>2022-07-24T07:49:57Z</time>
      </trkpt>
      <trkpt lat="47.22477" lon="-1.46631">
        <ele>56</ele>
        <time>2022-07-24T07:49:59Z</time>
      </trkpt>
      <trkpt lat="47.22485" lon="-1.46642">
        <ele>56</ele>
        <time>2022-07-24T07:50:02Z</time>
      </trkpt>
      <trkpt lat="47.2249" lon="-1.46655">
        <ele>56</ele>
        <time>2022-07-24T07:50:07Z</time>
      </trkpt>
      <trkpt lat="47.22499" lon="-1.46662">
        <ele>56</ele>
        <time>2022-07-24T07:50:10Z</time>
      </trkpt>
      <trkpt lat="47.22507" lon="-1.46669">
        <ele>56</ele>
        <time>2022-07-24T07:50:12Z</time>
      </trkpt>
      <trkpt lat="47.22516" lon="-1.46678">
        <ele>56</ele>
        <time>2022-07-24T07:50:14Z</time>
      </trkpt>
      <trkpt lat="47.22525" lon="-1.46687">
        <ele>56</ele>
        <time>2022-07-24T07:50:16Z</time>
      </trkpt>
      <trkpt lat="47.22533" lon="-1.46696">
        <ele>56</ele>
        <time>2022-07-24T07:50:18Z</time>
      </trkpt>
      <trkpt lat="47.22541" lon="-1.46707">
        <ele>56</ele>
        <time>2022-07-24T07:50:20Z</time>
      </trkpt>
      <trkpt lat="47.2255" lon="-1.46721">
        <ele>55</ele>
        <time>2022-07-24T07:50:22Z</time>
      </trkpt>
      <trkpt lat="47.22559" lon="-1.46734">
        <ele>54</ele>
        <time>2022-07-24T07:50:24Z</time>
      </trkpt>
      <trkpt lat="47.22569" lon="-1.46746">
        <ele>53</ele>
        <time>2022-07-24T07:50:26Z</time>
      </trkpt>
      <trkpt lat="47.2258" lon="-1.46757">
        <ele>52</ele>
        <time>2022-07-24T07:50:28Z</time>
      </trkpt>
      <trkpt lat="47.2259" lon="-1.46765">
        <ele>52</ele>
        <time>2022-07-24T07:50:30Z</time>
      </trkpt>
      <trkpt lat="47.22601" lon="-1.46772">
        <ele>52</ele>
        <time>2022-07-24T07:50:32Z</time>
      </trkpt>
      <trkpt lat="47.22611" lon="-1.4678">
        <ele>52</ele>
        <time>2022-07-24T07:50:34Z</time>
      </trkpt>
      <trkpt lat="47.22618" lon="-1.46792">
        <ele>52</ele>
        <time>2022-07-24T07:50:36Z</time>
      </trkpt>
      <trkpt lat="47.22629" lon="-1.468">
        <ele>53</ele>
        <time>2022-07-24T07:50:38Z</time>
      </trkpt>
      <trkpt lat="47.22632" lon="-1.46815">
        <ele>54</ele>
        <time>2022-07-24T07:50:40Z</time>
      </trkpt>
      <trkpt lat="47.22629" lon="-1.46832">
        <ele>54</ele>
        <time>2022-07-24T07:50:42Z</time>
      </trkpt>
      <trkpt lat="47.22621" lon="-1.46847">
        <ele>53</ele>
        <time>2022-07-24T07:50:44Z</time>
      </trkpt>
      <trkpt lat="47.22613" lon="-1.46859">
        <ele>53</ele>
        <time>2022-07-24T07:50:46Z</time>
      </trkpt>
      <trkpt lat="47.22608" lon="-1.46874">
        <ele>53</ele>
        <time>2022-07-24T07:50:48Z</time>
      </trkpt>
      <trkpt lat="47.22607" lon="-1.46893">
        <ele>53</ele>
        <time>2022-07-24T07:50:50Z</time>
      </trkpt>
      <trkpt lat="47.22607" lon="-1.46912">
        <ele>53</ele>
        <time>2022-07-24T07:50:52Z</time>
      </trkpt>
      <trkpt lat="47.22607" lon="-1.46932">
        <ele>52</ele>
        <time>2022-07-24T07:50:54Z</time>
      </trkpt>
      <trkpt lat="47.22607" lon="-1.46951">
        <ele>52</ele>
        <time>2022-07-24T07:50:56Z</time>
      </trkpt>
      <trkpt lat="47.22608" lon="-1.4697">
        <ele>52</ele>
        <time>2022-07-24T07:50:58Z</time>
      </trkpt>
      <trkpt lat="47.22607" lon="-1.46989">
        <ele>52</ele>
        <time>2022-07-24T07:51:00Z</time>
      </trkpt>
      <trkpt lat="47.22606" lon="-1.47009">
        <ele>52</ele>
        <time>2022-07-24T07:51:02Z</time>
      </trkpt>
      <trkpt lat="47.22603" lon="-1.47028">
        <ele>52</ele>
        <time>2022-07-24T07:51:04Z</time>
      </trkpt>
      <trkpt lat="47.22598" lon="-1.47045">
        <ele>52</ele>
        <time>2022-07-24T07:51:06Z</time>
      </trkpt>
      <trkpt lat="47.22591" lon="-1.4706">
        <ele>52</ele>
        <time>2022-07-24T07:51:08Z</time>
      </trkpt>
      <trkpt lat="47.22583" lon="-1.47074">
        <ele>52</ele>
        <time>2022-07-24T07:51:10Z</time>
      </trkpt>
      <trkpt lat="47.22574" lon="-1.47084">
        <ele>53</ele>
        <time>2022-07-24T07:51:12Z</time>
      </trkpt>
      <trkpt lat="47.22564" lon="-1.47093">
        <ele>53</ele>
        <time>2022-07-24T07:51:14Z</time>
      </trkpt>
      <trkpt lat="47.22555" lon="-1.47101">
        <ele>53</ele>
        <time>2022-07-24T07:51:16Z</time>
      </trkpt>
      <trkpt lat="47.22546" lon="-1.47106">
        <ele>54</ele>
        <time>2022-07-24T07:51:18Z</time>
      </trkpt>
      <trkpt lat="47.22537" lon="-1.47111">
        <ele>54</ele>
        <time>2022-07-24T07:51:20Z</time>
      </trkpt>
      <trkpt lat="47.22529" lon="-1.47117">
        <ele>54</ele>
        <time>2022-07-24T07:51:22Z</time>
      </trkpt>
      <trkpt lat="47.22536" lon="-1.47127">
        <ele>54</ele>
        <time>2022-07-24T07:51:26Z</time>
      </trkpt>
      <trkpt lat="47.22547" lon="-1.47122">
        <ele>55</ele>
        <time>2022-07-24T07:51:28Z</time>
      </trkpt>
      <trkpt lat="47.22559" lon="-1.47118">
        <ele>56</ele>
        <time>2022-07-24T07:51:30Z</time>
      </trkpt>
      <trkpt lat="47.22571" lon="-1.47113">
        <ele>57</ele>
        <time>2022-07-24T07:51:32Z</time>
      </trkpt>
      <trkpt lat="47.22583" lon="-1.47105">
        <ele>57</ele>
        <time>2022-07-24T07:51:34Z</time>
      </trkpt>
      <trkpt lat="47.22594" lon="-1.47094">
        <ele>57</ele>
        <time>2022-07-24T07:51:36Z</time>
      </trkpt>
      <trkpt lat="47.22604" lon="-1.4708">
        <ele>57</ele>
        <time>2022-07-24T07:51:38Z</time>
      </trkpt>
      <trkpt lat="47.22612" lon="-1.47064">
        <ele>57</ele>
        <time>2022-07-24T07:51:40Z</time>
      </trkpt>
      <trkpt lat="47.2262" lon="-1.47048">
        <ele>56</ele>
        <time>2022-07-24T07:51:42Z</time>
      </trkpt>
      <trkpt lat="47.22628" lon="-1.47034">
        <ele>57</ele>
        <time>2022-07-24T07:51:44Z</time>
      </trkpt>
      <trkpt lat="47.22638" lon="-1.47021">
        <ele>57</ele>
        <time>2022-07-24T07:51:46Z</time>
      </trkpt>
      <trkpt lat="47.22648" lon="-1.47009">
        <ele>57</ele>
        <time>2022-07-24T07:51:48Z</time>
      </trkpt>
      <trkpt lat="47.22658" lon="-1.46998">
        <ele>58</ele>
        <time>2022-07-24T07:51:50Z</time>
      </trkpt>
      <trkpt lat="47.2267" lon="-1.46988">
        <ele>58</ele>
        <time>2022-07-24T07:51:52Z</time>
      </trkpt>
      <trkpt lat="47.22681" lon="-1.46979">
        <ele>58</ele>
        <time>2022-07-24T07:51:54Z</time>
      </trkpt>
      <trkpt lat="47.22693" lon="-1.46971">
        <ele>58</ele>
        <time>2022-07-24T07:51:56Z</time>
      </trkpt>
      <trkpt lat="47.22706" lon="-1.46965">
        <ele>58</ele>
        <time>2022-07-24T07:51:58Z</time>
      </trkpt>
      <trkpt lat="47.22718" lon="-1.4696">
        <ele>58</ele>
        <time>2022-07-24T07:52:00Z</time>
      </trkpt>
      <trkpt lat="47.22731" lon="-1.46956">
        <ele>59</ele>
        <time>2022-07-24T07:52:02Z</time>
      </trkpt>
      <trkpt lat="47.22744" lon="-1.46954">
        <ele>58</ele>
        <time>2022-07-24T07:52:04Z</time>
      </trkpt>
      <trkpt lat="47.22757" lon="-1.46953">
        <ele>58</ele>
        <time>2022-07-24T07:52:06Z</time>
      </trkpt>
      <trkpt lat="47.2277" lon="-1.46953">
        <ele>58</ele>
        <time>2022-07-24T07:52:08Z</time>
      </trkpt>
      <trkpt lat="47.22783" lon="-1.46955">
        <ele>58</ele>
        <time>2022-07-24T07:52:10Z</time>
      </trkpt>
      <trkpt lat="47.22796" lon="-1.46959">
        <ele>58</ele>
        <time>2022-07-24T07:52:12Z</time>
      </trkpt>
      <trkpt lat="47.22809" lon="-1.46963">
        <ele>58</ele>
        <time>2022-07-24T07:52:14Z</time>
      </trkpt>
      <trkpt lat="47.22822" lon="-1.46969">
        <ele>58</ele>
        <time>2022-07-24T07:52:16Z</time>
      </trkpt>
      <trkpt lat="47.22834" lon="-1.46976">
        <ele>58</ele>
        <time>2022-07-24T07:52:18Z</time>
      </trkpt>
      <trkpt lat="47.22846" lon="-1.46982">
        <ele>58</ele>
        <time>2022-07-24T07:52:20Z</time>
      </trkpt>
      <trkpt lat="47.22859" lon="-1.46988">
        <ele>57</ele>
        <time>2022-07-24T07:52:22Z</time>
      </trkpt>
      <trkpt lat="47.22872" lon="-1.46995">
        <ele>57</ele>
        <time>2022-07-24T07:52:24Z</time>
      </trkpt>
      <trkpt lat="47.22885" lon="-1.47">
        <ele>57</ele>
        <time>2022-07-24T07:52:26Z</time>
      </trkpt>
      <trkpt lat="47.22899" lon="-1.46998">
        <ele>57</ele>
        <time>2022-07-24T07:52:28Z</time>
      </trkpt>
      <trkpt lat="47.22909" lon="-1.46985">
        <ele>57</ele>
        <time>2022-07-24T07:52:30Z</time>
      </trkpt>
      <trkpt lat="47.22915" lon="-1.46967">
        <ele>56</ele>
        <time>2022-07-24T07:52:32Z</time>
      </trkpt>
      <trkpt lat="47.22919" lon="-1.46948">
        <ele>56</ele>
        <time>2022-07-24T07:52:34Z</time>
      </trkpt>
      <trkpt lat="47.22923" lon="-1.46929">
        <ele>56</ele>
        <time>2022-07-24T07:52:36Z</time>
      </trkpt>
      <trkpt lat="47.22927" lon="-1.46909">
        <ele>55</ele>
        <time>2022-07-24T07:52:38Z</time>
      </trkpt>
      <trkpt lat="47.22931" lon="-1.46891">
        <ele>55</ele>
        <time>2022-07-24T07:52:40Z</time>
      </trkpt>
      <trkpt lat="47.22935" lon="-1.46873">
        <ele>55</ele>
        <time>2022-07-24T07:52:42Z</time>
      </trkpt>
      <trkpt lat="47.22939" lon="-1.46855">
        <ele>55</ele>
        <time>2022-07-24T07:52:44Z</time>
      </trkpt>
      <trkpt lat="47.22945" lon="-1.46839">
        <ele>55</ele>
        <time>2022-07-24T07:52:46Z</time>
      </trkpt>
      <trkpt lat="47.22954" lon="-1.46829">
        <ele>56</ele>
        <time>2022-07-24T07:52:48Z</time>
      </trkpt>
      <trkpt lat="47.22964" lon="-1.46822">
        <ele>55</ele>
        <time>2022-07-24T07:52:50Z</time>
      </trkpt>
      <trkpt lat="47.22971" lon="-1.46808">
        <ele>56</ele>
        <time>2022-07-24T07:52:52Z</time>
      </trkpt>
      <trkpt lat="47.22975" lon="-1.46792">
        <ele>58</ele>
        <time>2022-07-24T07:52:54Z</time>
      </trkpt>
      <trkpt lat="47.22982" lon="-1.46778">
        <ele>58</ele>
        <time>2022-07-24T07:52:56Z</time>
      </trkpt>
      <trkpt lat="47.2299" lon="-1.46768">
        <ele>59</ele>
        <time>2022-07-24T07:52:58Z</time>
      </trkpt>
      <trkpt lat="47.22999" lon="-1.46759">
        <ele>59</ele>
        <time>2022-07-24T07:53:00Z</time>
      </trkpt>
      <trkpt lat="47.23008" lon="-1.46752">
        <ele>59</ele>
        <time>2022-07-24T07:53:02Z</time>
      </trkpt>
      <trkpt lat="47.23017" lon="-1.46746">
        <ele>59</ele>
        <time>2022-07-24T07:53:04Z</time>
      </trkpt>
      <trkpt lat="47.23028" lon="-1.46742">
        <ele>58</ele>
        <time>2022-07-24T07:53:06Z</time>
      </trkpt>
      <trkpt lat="47.23038" lon="-1.46736">
        <ele>58</ele>
        <time>2022-07-24T07:53:08Z</time>
      </trkpt>
      <trkpt lat="47.23043" lon="-1.46725">
        <ele>58</ele>
        <time>2022-07-24T07:53:10Z</time>
      </trkpt>
      <trkpt lat="47.23044" lon="-1.46709">
        <ele>59</ele>
        <time>2022-07-24T07:53:12Z</time>
      </trkpt>
      <trkpt lat="47.23047" lon="-1.46693">
        <ele>60</ele>
        <time>2022-07-24T07:53:14Z</time>
      </trkpt>
      <trkpt lat="47.23051" lon="-1.46676">
        <ele>60</ele>
        <time>2022-07-24T07:53:16Z</time>
      </trkpt>
      <trkpt lat="47.23057" lon="-1.46661">
        <ele>61</ele>
        <time>2022-07-24T07:53:18Z</time>
      </trkpt>
      <trkpt lat="47.23063" lon="-1.46645">
        <ele>62</ele>
        <time>2022-07-24T07:53:20Z</time>
      </trkpt>
      <trkpt lat="47.2307" lon="-1.46631">
        <ele>62</ele>
        <time>2022-07-24T07:53:22Z</time>
      </trkpt>
      <trkpt lat="47.23079" lon="-1.46619">
        <ele>61</ele>
        <time>2022-07-24T07:53:24Z</time>
      </trkpt>
      <trkpt lat="47.23089" lon="-1.46608">
        <ele>61</ele>
        <time>2022-07-24T07:53:26Z</time>
      </trkpt>
      <trkpt lat="47.23098" lon="-1.46597">
        <ele>61</ele>
        <time>2022-07-24T07:53:28Z</time>
      </trkpt>
      <trkpt lat="47.23109" lon="-1.46585">
        <ele>60</ele>
        <time>2022-07-24T07:53:30Z</time>
      </trkpt>
      <trkpt lat="47.23119" lon="-1.46574">
        <ele>60</ele>
        <time>2022-07-24T07:53:32Z</time>
      </trkpt>
      <trkpt lat="47.2313" lon="-1.46563">
        <ele>60</ele>
        <time>2022-07-24T07:53:34Z</time>
      </trkpt>
      <trkpt lat="47.2314" lon="-1.46551">
        <ele>59</ele>
        <time>2022-07-24T07:53:36Z</time>
      </trkpt>
      <trkpt lat="47.2315" lon="-1.46539">
        <ele>59</ele>
        <time>2022-07-24T07:53:38Z</time>
      </trkpt>
      <trkpt lat="47.2316" lon="-1.46527">
        <ele>59</ele>
        <time>2022-07-24T07:53:40Z</time>
      </trkpt>
      <trkpt lat="47.2317" lon="-1.46515">
        <ele>59</ele>
        <time>2022-07-24T07:53:42Z</time>
      </trkpt>
      <trkpt lat="47.2318" lon="-1.46503">
        <ele>59</ele>
        <time>2022-07-24T07:53:44Z</time>
      </trkpt>
      <trkpt lat="47.23189" lon="-1.46491">
        <ele>59</ele>
        <time>2022-07-24T07:53:46Z</time>
      </trkpt>
      <trkpt lat="47.23199" lon="-1.46478">
        <ele>59</ele>
        <time>2022-07-24T07:53:48Z</time>
      </trkpt>
      <trkpt lat="47.23209" lon="-1.46466">
        <ele>59</ele>
        <time>2022-07-24T07:53:50Z</time>
      </trkpt>
      <trkpt lat="47.23219" lon="-1.46453">
        <ele>59</ele>
        <time>2022-07-24T07:53:52Z</time>
      </trkpt>
      <trkpt lat="47.23228" lon="-1.4644">
        <ele>59</ele>
        <time>2022-07-24T07:53:54Z</time>
      </trkpt>
      <trkpt lat="47.23238" lon="-1.46428">
        <ele>59</ele>
        <time>2022-07-24T07:53:56Z</time>
      </trkpt>
      <trkpt lat="47.23248" lon="-1.46416">
        <ele>59</ele>
        <time>2022-07-24T07:53:58Z</time>
      </trkpt>
      <trkpt lat="47.23258" lon="-1.46404">
        <ele>59</ele>
        <time>2022-07-24T07:54:00Z</time>
      </trkpt>
      <trkpt lat="47.23267" lon="-1.46391">
        <ele>59</ele>
        <time>2022-07-24T07:54:02Z</time>
      </trkpt>
      <trkpt lat="47.23278" lon="-1.46379">
        <ele>59</ele>
        <time>2022-07-24T07:54:04Z</time>
      </trkpt>
      <trkpt lat="47.23288" lon="-1.46368">
        <ele>59</ele>
        <time>2022-07-24T07:54:06Z</time>
      </trkpt>
      <trkpt lat="47.23297" lon="-1.46356">
        <ele>59</ele>
        <time>2022-07-24T07:54:08Z</time>
      </trkpt>
      <trkpt lat="47.23306" lon="-1.46343">
        <ele>59</ele>
        <time>2022-07-24T07:54:10Z</time>
      </trkpt>
      <trkpt lat="47.23315" lon="-1.46329">
        <ele>59</ele>
        <time>2022-07-24T07:54:12Z</time>
      </trkpt>
      <trkpt lat="47.23324" lon="-1.46316">
        <ele>59</ele>
        <time>2022-07-24T07:54:14Z</time>
      </trkpt>
      <trkpt lat="47.23333" lon="-1.46304">
        <ele>59</ele>
        <time>2022-07-24T07:54:16Z</time>
      </trkpt>
      <trkpt lat="47.23343" lon="-1.46292">
        <ele>59</ele>
        <time>2022-07-24T07:54:18Z</time>
      </trkpt>
      <trkpt lat="47.23353" lon="-1.46279">
        <ele>59</ele>
        <time>2022-07-24T07:54:20Z</time>
      </trkpt>
      <trkpt lat="47.23363" lon="-1.46266">
        <ele>59</ele>
        <time>2022-07-24T07:54:22Z</time>
      </trkpt>
      <trkpt lat="47.23373" lon="-1.46253">
        <ele>59</ele>
        <time>2022-07-24T07:54:24Z</time>
      </trkpt>
      <trkpt lat="47.23383" lon="-1.4624">
        <ele>59</ele>
        <time>2022-07-24T07:54:26Z</time>
      </trkpt>
      <trkpt lat="47.23393" lon="-1.46227">
        <ele>59</ele>
        <time>2022-07-24T07:54:28Z</time>
      </trkpt>
      <trkpt lat="47.23403" lon="-1.46214">
        <ele>59</ele>
        <time>2022-07-24T07:54:30Z</time>
      </trkpt>
      <trkpt lat="47.23413" lon="-1.46201">
        <ele>59</ele>
        <time>2022-07-24T07:54:32Z</time>
      </trkpt>
      <trkpt lat="47.23424" lon="-1.4619">
        <ele>58</ele>
        <time>2022-07-24T07:54:34Z</time>
      </trkpt>
      <trkpt lat="47.23435" lon="-1.46178">
        <ele>59</ele>
        <time>2022-07-24T07:54:36Z</time>
      </trkpt>
      <trkpt lat="47.23445" lon="-1.46167">
        <ele>59</ele>
        <time>2022-07-24T07:54:38Z</time>
      </trkpt>
      <trkpt lat="47.23456" lon="-1.46156">
        <ele>58</ele>
        <time>2022-07-24T07:54:40Z</time>
      </trkpt>
      <trkpt lat="47.23468" lon="-1.46145">
        <ele>58</ele>
        <time>2022-07-24T07:54:42Z</time>
      </trkpt>
      <trkpt lat="47.23479" lon="-1.46135">
        <ele>58</ele>
        <time>2022-07-24T07:54:44Z</time>
      </trkpt>
      <trkpt lat="47.2349" lon="-1.46124">
        <ele>58</ele>
        <time>2022-07-24T07:54:46Z</time>
      </trkpt>
      <trkpt lat="47.235" lon="-1.46112">
        <ele>59</ele>
        <time>2022-07-24T07:54:48Z</time>
      </trkpt>
      <trkpt lat="47.23508" lon="-1.46103">
        <ele>59</ele>
        <time>2022-07-24T07:54:50Z</time>
      </trkpt>
      <trkpt lat="47.23517" lon="-1.46095">
        <ele>59</ele>
        <time>2022-07-24T07:54:52Z</time>
      </trkpt>
      <trkpt lat="47.23528" lon="-1.46085">
        <ele>59</ele>
        <time>2022-07-24T07:54:54Z</time>
      </trkpt>
      <trkpt lat="47.23539" lon="-1.46076">
        <ele>59</ele>
        <time>2022-07-24T07:54:56Z</time>
      </trkpt>
      <trkpt lat="47.2355" lon="-1.46066">
        <ele>59</ele>
        <time>2022-07-24T07:54:58Z</time>
      </trkpt>
      <trkpt lat="47.23561" lon="-1.46058">
        <ele>59</ele>
        <time>2022-07-24T07:55:00Z</time>
      </trkpt>
      <trkpt lat="47.23575" lon="-1.46055">
        <ele>59</ele>
        <time>2022-07-24T07:55:02Z</time>
      </trkpt>
      <trkpt lat="47.23587" lon="-1.46043">
        <ele>59</ele>
        <time>2022-07-24T07:55:04Z</time>
      </trkpt>
      <trkpt lat="47.236" lon="-1.46032">
        <ele>58</ele>
        <time>2022-07-24T07:55:06Z</time>
      </trkpt>
      <trkpt lat="47.23612" lon="-1.46023">
        <ele>58</ele>
        <time>2022-07-24T07:55:08Z</time>
      </trkpt>
      <trkpt lat="47.23624" lon="-1.46016">
        <ele>59</ele>
        <time>2022-07-24T07:55:10Z</time>
      </trkpt>
      <trkpt lat="47.23638" lon="-1.46011">
        <ele>59</ele>
        <time>2022-07-24T07:55:12Z</time>
      </trkpt>
      <trkpt lat="47.23651" lon="-1.46007">
        <ele>59</ele>
        <time>2022-07-24T07:55:14Z</time>
      </trkpt>
      <trkpt lat="47.23664" lon="-1.46004">
        <ele>59</ele>
        <time>2022-07-24T07:55:16Z</time>
      </trkpt>
      <trkpt lat="47.23678" lon="-1.46001">
        <ele>59</ele>
        <time>2022-07-24T07:55:18Z</time>
      </trkpt>
      <trkpt lat="47.23691" lon="-1.45998">
        <ele>58</ele>
        <time>2022-07-24T07:55:20Z</time>
      </trkpt>
      <trkpt lat="47.23705" lon="-1.45995">
        <ele>58</ele>
        <time>2022-07-24T07:55:22Z</time>
      </trkpt>
      <trkpt lat="47.23718" lon="-1.45991">
        <ele>58</ele>
        <time>2022-07-24T07:55:24Z</time>
      </trkpt>
      <trkpt lat="47.23731" lon="-1.45988">
        <ele>57</ele>
        <time>2022-07-24T07:55:26Z</time>
      </trkpt>
      <trkpt lat="47.23744" lon="-1.45984">
        <ele>57</ele>
        <time>2022-07-24T07:55:28Z</time>
      </trkpt>
      <trkpt lat="47.23757" lon="-1.45981">
        <ele>57</ele>
        <time>2022-07-24T07:55:30Z</time>
      </trkpt>
      <trkpt lat="47.2377" lon="-1.45977">
        <ele>58</ele>
        <time>2022-07-24T07:55:32Z</time>
      </trkpt>
      <trkpt lat="47.23782" lon="-1.45972">
        <ele>58</ele>
        <time>2022-07-24T07:55:34Z</time>
      </trkpt>
      <trkpt lat="47.23794" lon="-1.45968">
        <ele>59</ele>
        <time>2022-07-24T07:55:36Z</time>
      </trkpt>
      <trkpt lat="47.23807" lon="-1.45963">
        <ele>59</ele>
        <time>2022-07-24T07:55:38Z</time>
      </trkpt>
      <trkpt lat="47.23819" lon="-1.45958">
        <ele>59</ele>
        <time>2022-07-24T07:55:40Z</time>
      </trkpt>
      <trkpt lat="47.23833" lon="-1.45955">
        <ele>59</ele>
        <time>2022-07-24T07:55:42Z</time>
      </trkpt>
      <trkpt lat="47.23846" lon="-1.45952">
        <ele>58</ele>
        <time>2022-07-24T07:55:44Z</time>
      </trkpt>
      <trkpt lat="47.23859" lon="-1.45948">
        <ele>58</ele>
        <time>2022-07-24T07:55:46Z</time>
      </trkpt>
      <trkpt lat="47.23872" lon="-1.45945">
        <ele>58</ele>
        <time>2022-07-24T07:55:48Z</time>
      </trkpt>
      <trkpt lat="47.23885" lon="-1.45942">
        <ele>58</ele>
        <time>2022-07-24T07:55:50Z</time>
      </trkpt>
      <trkpt lat="47.23898" lon="-1.45939">
        <ele>58</ele>
        <time>2022-07-24T07:55:52Z</time>
      </trkpt>
      <trkpt lat="47.23911" lon="-1.45936">
        <ele>58</ele>
        <time>2022-07-24T07:55:54Z</time>
      </trkpt>
      <trkpt lat="47.23924" lon="-1.45931">
        <ele>58</ele>
        <time>2022-07-24T07:55:56Z</time>
      </trkpt>
      <trkpt lat="47.23937" lon="-1.45928">
        <ele>58</ele>
        <time>2022-07-24T07:55:58Z</time>
      </trkpt>
      <trkpt lat="47.23949" lon="-1.45922">
        <ele>58</ele>
        <time>2022-07-24T07:56:00Z</time>
      </trkpt>
      <trkpt lat="47.2396" lon="-1.45911">
        <ele>57</ele>
        <time>2022-07-24T07:56:02Z</time>
      </trkpt>
      <trkpt lat="47.2397" lon="-1.45896">
        <ele>57</ele>
        <time>2022-07-24T07:56:04Z</time>
      </trkpt>
      <trkpt lat="47.23979" lon="-1.45881">
        <ele>57</ele>
        <time>2022-07-24T07:56:06Z</time>
      </trkpt>
      <trkpt lat="47.23988" lon="-1.45867">
        <ele>57</ele>
        <time>2022-07-24T07:56:08Z</time>
      </trkpt>
      <trkpt lat="47.23997" lon="-1.45852">
        <ele>57</ele>
        <time>2022-07-24T07:56:10Z</time>
      </trkpt>
      <trkpt lat="47.24006" lon="-1.45838">
        <ele>57</ele>
        <time>2022-07-24T07:56:12Z</time>
      </trkpt>
      <trkpt lat="47.24015" lon="-1.45823">
        <ele>57</ele>
        <time>2022-07-24T07:56:14Z</time>
      </trkpt>
      <trkpt lat="47.24024" lon="-1.45809">
        <ele>57</ele>
        <time>2022-07-24T07:56:16Z</time>
      </trkpt>
      <trkpt lat="47.24033" lon="-1.45795">
        <ele>57</ele>
        <time>2022-07-24T07:56:18Z</time>
      </trkpt>
      <trkpt lat="47.24042" lon="-1.45781">
        <ele>57</ele>
        <time>2022-07-24T07:56:20Z</time>
      </trkpt>
      <trkpt lat="47.24051" lon="-1.45767">
        <ele>57</ele>
        <time>2022-07-24T07:56:22Z</time>
      </trkpt>
      <trkpt lat="47.2406" lon="-1.45753">
        <ele>57</ele>
        <time>2022-07-24T07:56:24Z</time>
      </trkpt>
      <trkpt lat="47.24069" lon="-1.45739">
        <ele>57</ele>
        <time>2022-07-24T07:56:26Z</time>
      </trkpt>
      <trkpt lat="47.24077" lon="-1.45725">
        <ele>57</ele>
        <time>2022-07-24T07:56:28Z</time>
      </trkpt>
      <trkpt lat="47.24086" lon="-1.4571">
        <ele>57</ele>
        <time>2022-07-24T07:56:30Z</time>
      </trkpt>
      <trkpt lat="47.24095" lon="-1.45696">
        <ele>57</ele>
        <time>2022-07-24T07:56:32Z</time>
      </trkpt>
      <trkpt lat="47.24104" lon="-1.45681">
        <ele>57</ele>
        <time>2022-07-24T07:56:34Z</time>
      </trkpt>
      <trkpt lat="47.24111" lon="-1.45665">
        <ele>57</ele>
        <time>2022-07-24T07:56:36Z</time>
      </trkpt>
      <trkpt lat="47.24118" lon="-1.45649">
        <ele>57</ele>
        <time>2022-07-24T07:56:38Z</time>
      </trkpt>
      <trkpt lat="47.24126" lon="-1.45633">
        <ele>57</ele>
        <time>2022-07-24T07:56:40Z</time>
      </trkpt>
      <trkpt lat="47.24132" lon="-1.45617">
        <ele>57</ele>
        <time>2022-07-24T07:56:42Z</time>
      </trkpt>
      <trkpt lat="47.24138" lon="-1.45601">
        <ele>57</ele>
        <time>2022-07-24T07:56:44Z</time>
      </trkpt>
      <trkpt lat="47.24144" lon="-1.45584">
        <ele>57</ele>
        <time>2022-07-24T07:56:46Z</time>
      </trkpt>
      <trkpt lat="47.24149" lon="-1.45567">
        <ele>56</ele>
        <time>2022-07-24T07:56:48Z</time>
      </trkpt>
      <trkpt lat="47.24155" lon="-1.4555">
        <ele>56</ele>
        <time>2022-07-24T07:56:50Z</time>
      </trkpt>
      <trkpt lat="47.2416" lon="-1.45533">
        <ele>56</ele>
        <time>2022-07-24T07:56:52Z</time>
      </trkpt>
      <trkpt lat="47.24166" lon="-1.45517">
        <ele>56</ele>
        <time>2022-07-24T07:56:54Z</time>
      </trkpt>
      <trkpt lat="47.2417" lon="-1.455">
        <ele>56</ele>
        <time>2022-07-24T07:56:56Z</time>
      </trkpt>
      <trkpt lat="47.24174" lon="-1.45484">
        <ele>57</ele>
        <time>2022-07-24T07:56:58Z</time>
      </trkpt>
      <trkpt lat="47.24178" lon="-1.45468">
        <ele>58</ele>
        <time>2022-07-24T07:57:00Z</time>
      </trkpt>
      <trkpt lat="47.24183" lon="-1.45455">
        <ele>58</ele>
        <time>2022-07-24T07:57:02Z</time>
      </trkpt>
      <trkpt lat="47.24189" lon="-1.4544">
        <ele>59</ele>
        <time>2022-07-24T07:57:04Z</time>
      </trkpt>
      <trkpt lat="47.24194" lon="-1.45423">
        <ele>58</ele>
        <time>2022-07-24T07:57:06Z</time>
      </trkpt>
      <trkpt lat="47.24201" lon="-1.45404">
        <ele>58</ele>
        <time>2022-07-24T07:57:08Z</time>
      </trkpt>
      <trkpt lat="47.24207" lon="-1.45386">
        <ele>58</ele>
        <time>2022-07-24T07:57:10Z</time>
      </trkpt>
      <trkpt lat="47.24213" lon="-1.45368">
        <ele>58</ele>
        <time>2022-07-24T07:57:12Z</time>
      </trkpt>
      <trkpt lat="47.24218" lon="-1.4535">
        <ele>58</ele>
        <time>2022-07-24T07:57:14Z</time>
      </trkpt>
      <trkpt lat="47.24224" lon="-1.45333">
        <ele>57</ele>
        <time>2022-07-24T07:57:16Z</time>
      </trkpt>
      <trkpt lat="47.2423" lon="-1.45316">
        <ele>58</ele>
        <time>2022-07-24T07:57:18Z</time>
      </trkpt>
      <trkpt lat="47.24235" lon="-1.45299">
        <ele>58</ele>
        <time>2022-07-24T07:57:20Z</time>
      </trkpt>
      <trkpt lat="47.2424" lon="-1.45283">
        <ele>57</ele>
        <time>2022-07-24T07:57:22Z</time>
      </trkpt>
      <trkpt lat="47.24247" lon="-1.45268">
        <ele>57</ele>
        <time>2022-07-24T07:57:24Z</time>
      </trkpt>
      <trkpt lat="47.24256" lon="-1.45254">
        <ele>57</ele>
        <time>2022-07-24T07:57:26Z</time>
      </trkpt>
      <trkpt lat="47.2426" lon="-1.45235">
        <ele>56</ele>
        <time>2022-07-24T07:57:28Z</time>
      </trkpt>
      <trkpt lat="47.24262" lon="-1.45215">
        <ele>56</ele>
        <time>2022-07-24T07:57:30Z</time>
      </trkpt>
      <trkpt lat="47.24263" lon="-1.45196">
        <ele>56</ele>
        <time>2022-07-24T07:57:32Z</time>
      </trkpt>
      <trkpt lat="47.24265" lon="-1.45176">
        <ele>56</ele>
        <time>2022-07-24T07:57:34Z</time>
      </trkpt>
      <trkpt lat="47.24267" lon="-1.45156">
        <ele>56</ele>
        <time>2022-07-24T07:57:36Z</time>
      </trkpt>
      <trkpt lat="47.24269" lon="-1.45135">
        <ele>55</ele>
        <time>2022-07-24T07:57:38Z</time>
      </trkpt>
      <trkpt lat="47.2427" lon="-1.45115">
        <ele>55</ele>
        <time>2022-07-24T07:57:40Z</time>
      </trkpt>
      <trkpt lat="47.24272" lon="-1.45096">
        <ele>55</ele>
        <time>2022-07-24T07:57:42Z</time>
      </trkpt>
      <trkpt lat="47.24273" lon="-1.45077">
        <ele>55</ele>
        <time>2022-07-24T07:57:44Z</time>
      </trkpt>
      <trkpt lat="47.24275" lon="-1.45058">
        <ele>55</ele>
        <time>2022-07-24T07:57:46Z</time>
      </trkpt>
      <trkpt lat="47.24277" lon="-1.45038">
        <ele>55</ele>
        <time>2022-07-24T07:57:48Z</time>
      </trkpt>
      <trkpt lat="47.24279" lon="-1.45018">
        <ele>55</ele>
        <time>2022-07-24T07:57:50Z</time>
      </trkpt>
      <trkpt lat="47.24281" lon="-1.44998">
        <ele>55</ele>
        <time>2022-07-24T07:57:52Z</time>
      </trkpt>
      <trkpt lat="47.24282" lon="-1.44978">
        <ele>55</ele>
        <time>2022-07-24T07:57:54Z</time>
      </trkpt>
      <trkpt lat="47.24284" lon="-1.44958">
        <ele>56</ele>
        <time>2022-07-24T07:57:56Z</time>
      </trkpt>
      <trkpt lat="47.24285" lon="-1.44938">
        <ele>55</ele>
        <time>2022-07-24T07:57:58Z</time>
      </trkpt>
      <trkpt lat="47.24287" lon="-1.44918">
        <ele>55</ele>
        <time>2022-07-24T07:58:00Z</time>
      </trkpt>
      <trkpt lat="47.24288" lon="-1.44899">
        <ele>55</ele>
        <time>2022-07-24T07:58:02Z</time>
      </trkpt>
      <trkpt lat="47.24289" lon="-1.44879">
        <ele>55</ele>
        <time>2022-07-24T07:58:04Z</time>
      </trkpt>
      <trkpt lat="47.2429" lon="-1.44861">
        <ele>56</ele>
        <time>2022-07-24T07:58:06Z</time>
      </trkpt>
      <trkpt lat="47.24292" lon="-1.44842">
        <ele>56</ele>
        <time>2022-07-24T07:58:08Z</time>
      </trkpt>
      <trkpt lat="47.24294" lon="-1.44823">
        <ele>56</ele>
        <time>2022-07-24T07:58:10Z</time>
      </trkpt>
      <trkpt lat="47.24295" lon="-1.44803">
        <ele>55</ele>
        <time>2022-07-24T07:58:12Z</time>
      </trkpt>
      <trkpt lat="47.24298" lon="-1.44773">
        <ele>56</ele>
        <time>2022-07-24T07:58:15Z</time>
      </trkpt>
      <trkpt lat="47.24299" lon="-1.44754">
        <ele>56</ele>
        <time>2022-07-24T07:58:17Z</time>
      </trkpt>
      <trkpt lat="47.24301" lon="-1.44735">
        <ele>56</ele>
        <time>2022-07-24T07:58:19Z</time>
      </trkpt>
      <trkpt lat="47.24302" lon="-1.44715">
        <ele>56</ele>
        <time>2022-07-24T07:58:21Z</time>
      </trkpt>
      <trkpt lat="47.24303" lon="-1.44695">
        <ele>56</ele>
        <time>2022-07-24T07:58:23Z</time>
      </trkpt>
      <trkpt lat="47.24305" lon="-1.44675">
        <ele>56</ele>
        <time>2022-07-24T07:58:25Z</time>
      </trkpt>
      <trkpt lat="47.24307" lon="-1.44657">
        <ele>56</ele>
        <time>2022-07-24T07:58:27Z</time>
      </trkpt>
      <trkpt lat="47.24309" lon="-1.44638">
        <ele>56</ele>
        <time>2022-07-24T07:58:29Z</time>
      </trkpt>
      <trkpt lat="47.24312" lon="-1.4462">
        <ele>56</ele>
        <time>2022-07-24T07:58:31Z</time>
      </trkpt>
      <trkpt lat="47.24314" lon="-1.446">
        <ele>56</ele>
        <time>2022-07-24T07:58:33Z</time>
      </trkpt>
      <trkpt lat="47.24314" lon="-1.4458">
        <ele>56</ele>
        <time>2022-07-24T07:58:35Z</time>
      </trkpt>
      <trkpt lat="47.24315" lon="-1.44559">
        <ele>56</ele>
        <time>2022-07-24T07:58:37Z</time>
      </trkpt>
      <trkpt lat="47.24316" lon="-1.44538">
        <ele>55</ele>
        <time>2022-07-24T07:58:39Z</time>
      </trkpt>
      <trkpt lat="47.24318" lon="-1.44518">
        <ele>55</ele>
        <time>2022-07-24T07:58:41Z</time>
      </trkpt>
      <trkpt lat="47.24319" lon="-1.44497">
        <ele>55</ele>
        <time>2022-07-24T07:58:43Z</time>
      </trkpt>
      <trkpt lat="47.24322" lon="-1.44467">
        <ele>55</ele>
        <time>2022-07-24T07:58:46Z</time>
      </trkpt>
      <trkpt lat="47.24323" lon="-1.44449">
        <ele>55</ele>
        <time>2022-07-24T07:58:48Z</time>
      </trkpt>
      <trkpt lat="47.24324" lon="-1.44432">
        <ele>55</ele>
        <time>2022-07-24T07:58:50Z</time>
      </trkpt>
      <trkpt lat="47.24326" lon="-1.44414">
        <ele>55</ele>
        <time>2022-07-24T07:58:52Z</time>
      </trkpt>
      <trkpt lat="47.24328" lon="-1.44395">
        <ele>55</ele>
        <time>2022-07-24T07:58:54Z</time>
      </trkpt>
      <trkpt lat="47.24329" lon="-1.44376">
        <ele>55</ele>
        <time>2022-07-24T07:58:56Z</time>
      </trkpt>
      <trkpt lat="47.24331" lon="-1.44356">
        <ele>55</ele>
        <time>2022-07-24T07:58:58Z</time>
      </trkpt>
      <trkpt lat="47.24332" lon="-1.44335">
        <ele>55</ele>
        <time>2022-07-24T07:59:00Z</time>
      </trkpt>
      <trkpt lat="47.24333" lon="-1.44314">
        <ele>55</ele>
        <time>2022-07-24T07:59:02Z</time>
      </trkpt>
      <trkpt lat="47.24339" lon="-1.44294">
        <ele>56</ele>
        <time>2022-07-24T07:59:04Z</time>
      </trkpt>
      <trkpt lat="47.24341" lon="-1.44272">
        <ele>56</ele>
        <time>2022-07-24T07:59:06Z</time>
      </trkpt>
      <trkpt lat="47.2434" lon="-1.44251">
        <ele>55</ele>
        <time>2022-07-24T07:59:08Z</time>
      </trkpt>
      <trkpt lat="47.24339" lon="-1.44231">
        <ele>56</ele>
        <time>2022-07-24T07:59:10Z</time>
      </trkpt>
      <trkpt lat="47.24342" lon="-1.4421">
        <ele>56</ele>
        <time>2022-07-24T07:59:12Z</time>
      </trkpt>
      <trkpt lat="47.24346" lon="-1.44191">
        <ele>55</ele>
        <time>2022-07-24T07:59:14Z</time>
      </trkpt>
      <trkpt lat="47.24351" lon="-1.44171">
        <ele>55</ele>
        <time>2022-07-24T07:59:16Z</time>
      </trkpt>
      <trkpt lat="47.24359" lon="-1.44152">
        <ele>55</ele>
        <time>2022-07-24T07:59:18Z</time>
      </trkpt>
      <trkpt lat="47.24366" lon="-1.44136">
        <ele>55</ele>
        <time>2022-07-24T07:59:20Z</time>
      </trkpt>
      <trkpt lat="47.24375" lon="-1.44119">
        <ele>55</ele>
        <time>2022-07-24T07:59:22Z</time>
      </trkpt>
      <trkpt lat="47.24383" lon="-1.44102">
        <ele>55</ele>
        <time>2022-07-24T07:59:24Z</time>
      </trkpt>
      <trkpt lat="47.24392" lon="-1.44085">
        <ele>55</ele>
        <time>2022-07-24T07:59:26Z</time>
      </trkpt>
      <trkpt lat="47.244" lon="-1.44068">
        <ele>55</ele>
        <time>2022-07-24T07:59:28Z</time>
      </trkpt>
      <trkpt lat="47.24408" lon="-1.44052">
        <ele>55</ele>
        <time>2022-07-24T07:59:30Z</time>
      </trkpt>
      <trkpt lat="47.24416" lon="-1.44035">
        <ele>54</ele>
        <time>2022-07-24T07:59:32Z</time>
      </trkpt>
      <trkpt lat="47.24424" lon="-1.44019">
        <ele>55</ele>
        <time>2022-07-24T07:59:34Z</time>
      </trkpt>
      <trkpt lat="47.24433" lon="-1.44005">
        <ele>55</ele>
        <time>2022-07-24T07:59:36Z</time>
      </trkpt>
      <trkpt lat="47.24443" lon="-1.43991">
        <ele>55</ele>
        <time>2022-07-24T07:59:38Z</time>
      </trkpt>
      <trkpt lat="47.2445" lon="-1.43975">
        <ele>56</ele>
        <time>2022-07-24T07:59:40Z</time>
      </trkpt>
      <trkpt lat="47.24457" lon="-1.43958">
        <ele>56</ele>
        <time>2022-07-24T07:59:42Z</time>
      </trkpt>
      <trkpt lat="47.24463" lon="-1.4394">
        <ele>56</ele>
        <time>2022-07-24T07:59:44Z</time>
      </trkpt>
      <trkpt lat="47.2447" lon="-1.43923">
        <ele>56</ele>
        <time>2022-07-24T07:59:46Z</time>
      </trkpt>
      <trkpt lat="47.24478" lon="-1.43905">
        <ele>56</ele>
        <time>2022-07-24T07:59:48Z</time>
      </trkpt>
      <trkpt lat="47.24485" lon="-1.43887">
        <ele>56</ele>
        <time>2022-07-24T07:59:50Z</time>
      </trkpt>
      <trkpt lat="47.2449" lon="-1.43868">
        <ele>56</ele>
        <time>2022-07-24T07:59:52Z</time>
      </trkpt>
      <trkpt lat="47.24497" lon="-1.43849">
        <ele>56</ele>
        <time>2022-07-24T07:59:54Z</time>
      </trkpt>
      <trkpt lat="47.24502" lon="-1.4383">
        <ele>55</ele>
        <time>2022-07-24T07:59:56Z</time>
      </trkpt>
      <trkpt lat="47.24507" lon="-1.43811">
        <ele>55</ele>
        <time>2022-07-24T07:59:58Z</time>
      </trkpt>
      <trkpt lat="47.24513" lon="-1.43793">
        <ele>55</ele>
        <time>2022-07-24T08:00:00Z</time>
      </trkpt>
      <trkpt lat="47.24519" lon="-1.43774">
        <ele>55</ele>
        <time>2022-07-24T08:00:02Z</time>
      </trkpt>
      <trkpt lat="47.24524" lon="-1.43756">
        <ele>55</ele>
        <time>2022-07-24T08:00:04Z</time>
      </trkpt>
      <trkpt lat="47.2453" lon="-1.43737">
        <ele>55</ele>
        <time>2022-07-24T08:00:06Z</time>
      </trkpt>
      <trkpt lat="47.24538" lon="-1.4372">
        <ele>54</ele>
        <time>2022-07-24T08:00:08Z</time>
      </trkpt>
      <trkpt lat="47.24548" lon="-1.43706">
        <ele>54</ele>
        <time>2022-07-24T08:00:10Z</time>
      </trkpt>
      <trkpt lat="47.24559" lon="-1.43695">
        <ele>55</ele>
        <time>2022-07-24T08:00:12Z</time>
      </trkpt>
      <trkpt lat="47.2457" lon="-1.43685">
        <ele>56</ele>
        <time>2022-07-24T08:00:14Z</time>
      </trkpt>
      <trkpt lat="47.24581" lon="-1.43672">
        <ele>55</ele>
        <time>2022-07-24T08:00:16Z</time>
      </trkpt>
      <trkpt lat="47.24591" lon="-1.43658">
        <ele>56</ele>
        <time>2022-07-24T08:00:18Z</time>
      </trkpt>
      <trkpt lat="47.24601" lon="-1.43644">
        <ele>55</ele>
        <time>2022-07-24T08:00:20Z</time>
      </trkpt>
      <trkpt lat="47.24612" lon="-1.43633">
        <ele>55</ele>
        <time>2022-07-24T08:00:22Z</time>
      </trkpt>
      <trkpt lat="47.24624" lon="-1.43623">
        <ele>55</ele>
        <time>2022-07-24T08:00:24Z</time>
      </trkpt>
      <trkpt lat="47.24636" lon="-1.43613">
        <ele>56</ele>
        <time>2022-07-24T08:00:26Z</time>
      </trkpt>
      <trkpt lat="47.24647" lon="-1.43601">
        <ele>56</ele>
        <time>2022-07-24T08:00:28Z</time>
      </trkpt>
      <trkpt lat="47.24658" lon="-1.4359">
        <ele>56</ele>
        <time>2022-07-24T08:00:30Z</time>
      </trkpt>
      <trkpt lat="47.24669" lon="-1.43581">
        <ele>56</ele>
        <time>2022-07-24T08:00:32Z</time>
      </trkpt>
      <trkpt lat="47.24679" lon="-1.43573">
        <ele>56</ele>
        <time>2022-07-24T08:00:34Z</time>
      </trkpt>
      <trkpt lat="47.24687" lon="-1.4356">
        <ele>55</ele>
        <time>2022-07-24T08:00:36Z</time>
      </trkpt>
      <trkpt lat="47.24693" lon="-1.43546">
        <ele>55</ele>
        <time>2022-07-24T08:00:38Z</time>
      </trkpt>
      <trkpt lat="47.24698" lon="-1.43532">
        <ele>55</ele>
        <time>2022-07-24T08:00:40Z</time>
      </trkpt>
      <trkpt lat="47.24701" lon="-1.43519">
        <ele>55</ele>
        <time>2022-07-24T08:00:42Z</time>
      </trkpt>
      <trkpt lat="47.24707" lon="-1.43502">
        <ele>55</ele>
        <time>2022-07-24T08:00:45Z</time>
      </trkpt>
      <trkpt lat="47.24711" lon="-1.43489">
        <ele>55</ele>
        <time>2022-07-24T08:00:47Z</time>
      </trkpt>
      <trkpt lat="47.24718" lon="-1.43475">
        <ele>55</ele>
        <time>2022-07-24T08:00:49Z</time>
      </trkpt>
      <trkpt lat="47.24727" lon="-1.43459">
        <ele>55</ele>
        <time>2022-07-24T08:00:51Z</time>
      </trkpt>
      <trkpt lat="47.24736" lon="-1.43443">
        <ele>56</ele>
        <time>2022-07-24T08:00:53Z</time>
      </trkpt>
      <trkpt lat="47.24747" lon="-1.43426">
        <ele>56</ele>
        <time>2022-07-24T08:00:55Z</time>
      </trkpt>
      <trkpt lat="47.24758" lon="-1.4341">
        <ele>56</ele>
        <time>2022-07-24T08:00:57Z</time>
      </trkpt>
      <trkpt lat="47.24769" lon="-1.43395">
        <ele>56</ele>
        <time>2022-07-24T08:00:59Z</time>
      </trkpt>
      <trkpt lat="47.24782" lon="-1.4338">
        <ele>57</ele>
        <time>2022-07-24T08:01:01Z</time>
      </trkpt>
      <trkpt lat="47.24793" lon="-1.43367">
        <ele>58</ele>
        <time>2022-07-24T08:01:03Z</time>
      </trkpt>
      <trkpt lat="47.24806" lon="-1.43357">
        <ele>59</ele>
        <time>2022-07-24T08:01:05Z</time>
      </trkpt>
      <trkpt lat="47.24819" lon="-1.43348">
        <ele>59</ele>
        <time>2022-07-24T08:01:07Z</time>
      </trkpt>
      <trkpt lat="47.24832" lon="-1.43339">
        <ele>59</ele>
        <time>2022-07-24T08:01:09Z</time>
      </trkpt>
      <trkpt lat="47.24845" lon="-1.4333">
        <ele>59</ele>
        <time>2022-07-24T08:01:11Z</time>
      </trkpt>
      <trkpt lat="47.24858" lon="-1.43321">
        <ele>59</ele>
        <time>2022-07-24T08:01:13Z</time>
      </trkpt>
      <trkpt lat="47.24871" lon="-1.43313">
        <ele>59</ele>
        <time>2022-07-24T08:01:15Z</time>
      </trkpt>
      <trkpt lat="47.24884" lon="-1.43304">
        <ele>59</ele>
        <time>2022-07-24T08:01:17Z</time>
      </trkpt>
      <trkpt lat="47.24897" lon="-1.43296">
        <ele>59</ele>
        <time>2022-07-24T08:01:19Z</time>
      </trkpt>
      <trkpt lat="47.2491" lon="-1.43287">
        <ele>59</ele>
        <time>2022-07-24T08:01:21Z</time>
      </trkpt>
      <trkpt lat="47.24924" lon="-1.43277">
        <ele>58</ele>
        <time>2022-07-24T08:01:23Z</time>
      </trkpt>
      <trkpt lat="47.24938" lon="-1.43267">
        <ele>58</ele>
        <time>2022-07-24T08:01:25Z</time>
      </trkpt>
      <trkpt lat="47.24953" lon="-1.43258">
        <ele>58</ele>
        <time>2022-07-24T08:01:27Z</time>
      </trkpt>
      <trkpt lat="47.24968" lon="-1.43249">
        <ele>58</ele>
        <time>2022-07-24T08:01:29Z</time>
      </trkpt>
      <trkpt lat="47.24983" lon="-1.43241">
        <ele>58</ele>
        <time>2022-07-24T08:01:31Z</time>
      </trkpt>
      <trkpt lat="47.24996" lon="-1.43232">
        <ele>58</ele>
        <time>2022-07-24T08:01:33Z</time>
      </trkpt>
      <trkpt lat="47.25009" lon="-1.43222">
        <ele>58</ele>
        <time>2022-07-24T08:01:35Z</time>
      </trkpt>
      <trkpt lat="47.25022" lon="-1.43211">
        <ele>58</ele>
        <time>2022-07-24T08:01:37Z</time>
      </trkpt>
      <trkpt lat="47.25035" lon="-1.432">
        <ele>58</ele>
        <time>2022-07-24T08:01:39Z</time>
      </trkpt>
      <trkpt lat="47.25048" lon="-1.43188">
        <ele>57</ele>
        <time>2022-07-24T08:01:41Z</time>
      </trkpt>
      <trkpt lat="47.2506" lon="-1.43176">
        <ele>57</ele>
        <time>2022-07-24T08:01:43Z</time>
      </trkpt>
      <trkpt lat="47.25072" lon="-1.43162">
        <ele>57</ele>
        <time>2022-07-24T08:01:45Z</time>
      </trkpt>
      <trkpt lat="47.25083" lon="-1.43148">
        <ele>57</ele>
        <time>2022-07-24T08:01:47Z</time>
      </trkpt>
      <trkpt lat="47.25094" lon="-1.43134">
        <ele>57</ele>
        <time>2022-07-24T08:01:49Z</time>
      </trkpt>
      <trkpt lat="47.25105" lon="-1.43119">
        <ele>56</ele>
        <time>2022-07-24T08:01:51Z</time>
      </trkpt>
      <trkpt lat="47.25115" lon="-1.43106">
        <ele>56</ele>
        <time>2022-07-24T08:01:53Z</time>
      </trkpt>
      <trkpt lat="47.25126" lon="-1.43092">
        <ele>56</ele>
        <time>2022-07-24T08:01:55Z</time>
      </trkpt>
      <trkpt lat="47.25137" lon="-1.43078">
        <ele>56</ele>
        <time>2022-07-24T08:01:57Z</time>
      </trkpt>
      <trkpt lat="47.25148" lon="-1.43064">
        <ele>56</ele>
        <time>2022-07-24T08:01:59Z</time>
      </trkpt>
      <trkpt lat="47.2516" lon="-1.43052">
        <ele>55</ele>
        <time>2022-07-24T08:02:01Z</time>
      </trkpt>
      <trkpt lat="47.25172" lon="-1.4304">
        <ele>55</ele>
        <time>2022-07-24T08:02:03Z</time>
      </trkpt>
      <trkpt lat="47.25184" lon="-1.43026">
        <ele>55</ele>
        <time>2022-07-24T08:02:05Z</time>
      </trkpt>
      <trkpt lat="47.25195" lon="-1.43011">
        <ele>55</ele>
        <time>2022-07-24T08:02:07Z</time>
      </trkpt>
      <trkpt lat="47.25207" lon="-1.42998">
        <ele>54</ele>
        <time>2022-07-24T08:02:09Z</time>
      </trkpt>
      <trkpt lat="47.25219" lon="-1.42987">
        <ele>55</ele>
        <time>2022-07-24T08:02:11Z</time>
      </trkpt>
      <trkpt lat="47.25232" lon="-1.42978">
        <ele>55</ele>
        <time>2022-07-24T08:02:13Z</time>
      </trkpt>
      <trkpt lat="47.25245" lon="-1.42969">
        <ele>55</ele>
        <time>2022-07-24T08:02:15Z</time>
      </trkpt>
      <trkpt lat="47.25259" lon="-1.42961">
        <ele>55</ele>
        <time>2022-07-24T08:02:17Z</time>
      </trkpt>
      <trkpt lat="47.25272" lon="-1.42953">
        <ele>55</ele>
        <time>2022-07-24T08:02:19Z</time>
      </trkpt>
      <trkpt lat="47.25286" lon="-1.42946">
        <ele>55</ele>
        <time>2022-07-24T08:02:21Z</time>
      </trkpt>
      <trkpt lat="47.25298" lon="-1.42938">
        <ele>55</ele>
        <time>2022-07-24T08:02:23Z</time>
      </trkpt>
      <trkpt lat="47.25312" lon="-1.4293">
        <ele>55</ele>
        <time>2022-07-24T08:02:25Z</time>
      </trkpt>
      <trkpt lat="47.25325" lon="-1.42922">
        <ele>56</ele>
        <time>2022-07-24T08:02:27Z</time>
      </trkpt>
      <trkpt lat="47.25337" lon="-1.42915">
        <ele>56</ele>
        <time>2022-07-24T08:02:29Z</time>
      </trkpt>
      <trkpt lat="47.25349" lon="-1.42909">
        <ele>56</ele>
        <time>2022-07-24T08:02:31Z</time>
      </trkpt>
      <trkpt lat="47.25362" lon="-1.42903">
        <ele>56</ele>
        <time>2022-07-24T08:02:33Z</time>
      </trkpt>
      <trkpt lat="47.25375" lon="-1.42894">
        <ele>55</ele>
        <time>2022-07-24T08:02:35Z</time>
      </trkpt>
      <trkpt lat="47.25387" lon="-1.42886">
        <ele>56</ele>
        <time>2022-07-24T08:02:37Z</time>
      </trkpt>
      <trkpt lat="47.25399" lon="-1.42877">
        <ele>56</ele>
        <time>2022-07-24T08:02:39Z</time>
      </trkpt>
      <trkpt lat="47.2541" lon="-1.4287">
        <ele>56</ele>
        <time>2022-07-24T08:02:41Z</time>
      </trkpt>
      <trkpt lat="47.25423" lon="-1.42862">
        <ele>56</ele>
        <time>2022-07-24T08:02:43Z</time>
      </trkpt>
      <trkpt lat="47.25435" lon="-1.42853">
        <ele>56</ele>
        <time>2022-07-24T08:02:45Z</time>
      </trkpt>
      <trkpt lat="47.25448" lon="-1.42845">
        <ele>56</ele>
        <time>2022-07-24T08:02:47Z</time>
      </trkpt>
      <trkpt lat="47.2546" lon="-1.42836">
        <ele>56</ele>
        <time>2022-07-24T08:02:49Z</time>
      </trkpt>
      <trkpt lat="47.25472" lon="-1.42827">
        <ele>56</ele>
        <time>2022-07-24T08:02:51Z</time>
      </trkpt>
      <trkpt lat="47.25484" lon="-1.42818">
        <ele>56</ele>
        <time>2022-07-24T08:02:53Z</time>
      </trkpt>
      <trkpt lat="47.25496" lon="-1.42808">
        <ele>56</ele>
        <time>2022-07-24T08:02:55Z</time>
      </trkpt>
      <trkpt lat="47.25507" lon="-1.42798">
        <ele>56</ele>
        <time>2022-07-24T08:02:57Z</time>
      </trkpt>
      <trkpt lat="47.25519" lon="-1.42788">
        <ele>56</ele>
        <time>2022-07-24T08:02:59Z</time>
      </trkpt>
      <trkpt lat="47.25531" lon="-1.42778">
        <ele>56</ele>
        <time>2022-07-24T08:03:01Z</time>
      </trkpt>
      <trkpt lat="47.25543" lon="-1.42768">
        <ele>57</ele>
        <time>2022-07-24T08:03:03Z</time>
      </trkpt>
      <trkpt lat="47.25554" lon="-1.42759">
        <ele>57</ele>
        <time>2022-07-24T08:03:05Z</time>
      </trkpt>
      <trkpt lat="47.25566" lon="-1.42749">
        <ele>57</ele>
        <time>2022-07-24T08:03:07Z</time>
      </trkpt>
      <trkpt lat="47.25578" lon="-1.4274">
        <ele>57</ele>
        <time>2022-07-24T08:03:09Z</time>
      </trkpt>
      <trkpt lat="47.25591" lon="-1.42731">
        <ele>57</ele>
        <time>2022-07-24T08:03:11Z</time>
      </trkpt>
      <trkpt lat="47.25603" lon="-1.42721">
        <ele>57</ele>
        <time>2022-07-24T08:03:13Z</time>
      </trkpt>
      <trkpt lat="47.25614" lon="-1.42711">
        <ele>57</ele>
        <time>2022-07-24T08:03:15Z</time>
      </trkpt>
      <trkpt lat="47.25626" lon="-1.42702">
        <ele>57</ele>
        <time>2022-07-24T08:03:17Z</time>
      </trkpt>
      <trkpt lat="47.25639" lon="-1.42692">
        <ele>57</ele>
        <time>2022-07-24T08:03:19Z</time>
      </trkpt>
      <trkpt lat="47.25651" lon="-1.42681">
        <ele>57</ele>
        <time>2022-07-24T08:03:21Z</time>
      </trkpt>
      <trkpt lat="47.25663" lon="-1.4267">
        <ele>57</ele>
        <time>2022-07-24T08:03:23Z</time>
      </trkpt>
      <trkpt lat="47.25671" lon="-1.4266">
        <ele>59</ele>
        <time>2022-07-24T08:03:25Z</time>
      </trkpt>
      <trkpt lat="47.2568" lon="-1.42653">
        <ele>59</ele>
        <time>2022-07-24T08:03:27Z</time>
      </trkpt>
      <trkpt lat="47.2569" lon="-1.42645">
        <ele>59</ele>
        <time>2022-07-24T08:03:29Z</time>
      </trkpt>
      <trkpt lat="47.25702" lon="-1.42644">
        <ele>58</ele>
        <time>2022-07-24T08:03:31Z</time>
      </trkpt>
      <trkpt lat="47.25716" lon="-1.42645">
        <ele>57</ele>
        <time>2022-07-24T08:03:33Z</time>
      </trkpt>
      <trkpt lat="47.25731" lon="-1.42645">
        <ele>56</ele>
        <time>2022-07-24T08:03:35Z</time>
      </trkpt>
      <trkpt lat="47.25743" lon="-1.42639">
        <ele>56</ele>
        <time>2022-07-24T08:03:37Z</time>
      </trkpt>
      <trkpt lat="47.2575" lon="-1.42623">
        <ele>57</ele>
        <time>2022-07-24T08:03:39Z</time>
      </trkpt>
      <trkpt lat="47.25759" lon="-1.42607">
        <ele>58</ele>
        <time>2022-07-24T08:03:41Z</time>
      </trkpt>
      <trkpt lat="47.25767" lon="-1.42592">
        <ele>57</ele>
        <time>2022-07-24T08:03:43Z</time>
      </trkpt>
      <trkpt lat="47.25779" lon="-1.42577">
        <ele>56</ele>
        <time>2022-07-24T08:03:45Z</time>
      </trkpt>
      <trkpt lat="47.25792" lon="-1.42566">
        <ele>56</ele>
        <time>2022-07-24T08:03:47Z</time>
      </trkpt>
      <trkpt lat="47.25805" lon="-1.42555">
        <ele>56</ele>
        <time>2022-07-24T08:03:49Z</time>
      </trkpt>
      <trkpt lat="47.25817" lon="-1.42545">
        <ele>55</ele>
        <time>2022-07-24T08:03:51Z</time>
      </trkpt>
      <trkpt lat="47.2583" lon="-1.42535">
        <ele>55</ele>
        <time>2022-07-24T08:03:53Z</time>
      </trkpt>
      <trkpt lat="47.25843" lon="-1.42525">
        <ele>55</ele>
        <time>2022-07-24T08:03:55Z</time>
      </trkpt>
      <trkpt lat="47.25856" lon="-1.42515">
        <ele>55</ele>
        <time>2022-07-24T08:03:57Z</time>
      </trkpt>
      <trkpt lat="47.25869" lon="-1.42505">
        <ele>55</ele>
        <time>2022-07-24T08:03:59Z</time>
      </trkpt>
      <trkpt lat="47.25883" lon="-1.42496">
        <ele>55</ele>
        <time>2022-07-24T08:04:01Z</time>
      </trkpt>
      <trkpt lat="47.25896" lon="-1.42485">
        <ele>55</ele>
        <time>2022-07-24T08:04:03Z</time>
      </trkpt>
      <trkpt lat="47.25907" lon="-1.42472">
        <ele>56</ele>
        <time>2022-07-24T08:04:05Z</time>
      </trkpt>
      <trkpt lat="47.25917" lon="-1.42456">
        <ele>56</ele>
        <time>2022-07-24T08:04:07Z</time>
      </trkpt>
      <trkpt lat="47.25928" lon="-1.42443">
        <ele>56</ele>
        <time>2022-07-24T08:04:09Z</time>
      </trkpt>
      <trkpt lat="47.25939" lon="-1.42429">
        <ele>56</ele>
        <time>2022-07-24T08:04:11Z</time>
      </trkpt>
      <trkpt lat="47.2595" lon="-1.42414">
        <ele>56</ele>
        <time>2022-07-24T08:04:13Z</time>
      </trkpt>
      <trkpt lat="47.25961" lon="-1.42401">
        <ele>56</ele>
        <time>2022-07-24T08:04:15Z</time>
      </trkpt>
      <trkpt lat="47.25972" lon="-1.42387">
        <ele>56</ele>
        <time>2022-07-24T08:04:17Z</time>
      </trkpt>
      <trkpt lat="47.25983" lon="-1.42375">
        <ele>55</ele>
        <time>2022-07-24T08:04:19Z</time>
      </trkpt>
      <trkpt lat="47.25996" lon="-1.42361">
        <ele>56</ele>
        <time>2022-07-24T08:04:21Z</time>
      </trkpt>
      <trkpt lat="47.26006" lon="-1.42348">
        <ele>56</ele>
        <time>2022-07-24T08:04:23Z</time>
      </trkpt>
      <trkpt lat="47.26016" lon="-1.42332">
        <ele>56</ele>
        <time>2022-07-24T08:04:25Z</time>
      </trkpt>
      <trkpt lat="47.26026" lon="-1.42318">
        <ele>56</ele>
        <time>2022-07-24T08:04:27Z</time>
      </trkpt>
      <trkpt lat="47.26036" lon="-1.42304">
        <ele>56</ele>
        <time>2022-07-24T08:04:29Z</time>
      </trkpt>
      <trkpt lat="47.26047" lon="-1.42291">
        <ele>56</ele>
        <time>2022-07-24T08:04:31Z</time>
      </trkpt>
      <trkpt lat="47.26057" lon="-1.42277">
        <ele>56</ele>
        <time>2022-07-24T08:04:33Z</time>
      </trkpt>
      <trkpt lat="47.26068" lon="-1.42264">
        <ele>56</ele>
        <time>2022-07-24T08:04:35Z</time>
      </trkpt>
      <trkpt lat="47.26078" lon="-1.4225">
        <ele>56</ele>
        <time>2022-07-24T08:04:37Z</time>
      </trkpt>
      <trkpt lat="47.26088" lon="-1.42236">
        <ele>56</ele>
        <time>2022-07-24T08:04:39Z</time>
      </trkpt>
      <trkpt lat="47.26098" lon="-1.42224">
        <ele>56</ele>
        <time>2022-07-24T08:04:41Z</time>
      </trkpt>
      <trkpt lat="47.26109" lon="-1.4221">
        <ele>56</ele>
        <time>2022-07-24T08:04:43Z</time>
      </trkpt>
      <trkpt lat="47.26119" lon="-1.42197">
        <ele>56</ele>
        <time>2022-07-24T08:04:45Z</time>
      </trkpt>
      <trkpt lat="47.2613" lon="-1.42183">
        <ele>56</ele>
        <time>2022-07-24T08:04:47Z</time>
      </trkpt>
      <trkpt lat="47.26139" lon="-1.42168">
        <ele>56</ele>
        <time>2022-07-24T08:04:49Z</time>
      </trkpt>
      <trkpt lat="47.26148" lon="-1.42153">
        <ele>56</ele>
        <time>2022-07-24T08:04:51Z</time>
      </trkpt>
      <trkpt lat="47.26154" lon="-1.42138">
        <ele>57</ele>
        <time>2022-07-24T08:04:53Z</time>
      </trkpt>
      <trkpt lat="47.26161" lon="-1.42126">
        <ele>58</ele>
        <time>2022-07-24T08:04:55Z</time>
      </trkpt>
      <trkpt lat="47.26168" lon="-1.42113">
        <ele>58</ele>
        <time>2022-07-24T08:04:57Z</time>
      </trkpt>
      <trkpt lat="47.26177" lon="-1.42098">
        <ele>57</ele>
        <time>2022-07-24T08:04:59Z</time>
      </trkpt>
      <trkpt lat="47.26187" lon="-1.42082">
        <ele>57</ele>
        <time>2022-07-24T08:05:01Z</time>
      </trkpt>
      <trkpt lat="47.262" lon="-1.42071">
        <ele>56</ele>
        <time>2022-07-24T08:05:03Z</time>
      </trkpt>
      <trkpt lat="47.26211" lon="-1.42063">
        <ele>55</ele>
        <time>2022-07-24T08:05:05Z</time>
      </trkpt>
      <trkpt lat="47.26219" lon="-1.42042">
        <ele>56</ele>
        <time>2022-07-24T08:05:07Z</time>
      </trkpt>
      <trkpt lat="47.26228" lon="-1.4202">
        <ele>56</ele>
        <time>2022-07-24T08:05:09Z</time>
      </trkpt>
      <trkpt lat="47.26238" lon="-1.42001">
        <ele>56</ele>
        <time>2022-07-24T08:05:11Z</time>
      </trkpt>
      <trkpt lat="47.26249" lon="-1.41983">
        <ele>55</ele>
        <time>2022-07-24T08:05:13Z</time>
      </trkpt>
      <trkpt lat="47.2626" lon="-1.41964">
        <ele>56</ele>
        <time>2022-07-24T08:05:15Z</time>
      </trkpt>
      <trkpt lat="47.2627" lon="-1.41946">
        <ele>55</ele>
        <time>2022-07-24T08:05:17Z</time>
      </trkpt>
      <trkpt lat="47.26281" lon="-1.41927">
        <ele>55</ele>
        <time>2022-07-24T08:05:19Z</time>
      </trkpt>
      <trkpt lat="47.26292" lon="-1.41907">
        <ele>55</ele>
        <time>2022-07-24T08:05:21Z</time>
      </trkpt>
      <trkpt lat="47.26303" lon="-1.41888">
        <ele>55</ele>
        <time>2022-07-24T08:05:23Z</time>
      </trkpt>
      <trkpt lat="47.26313" lon="-1.4187">
        <ele>55</ele>
        <time>2022-07-24T08:05:25Z</time>
      </trkpt>
      <trkpt lat="47.26324" lon="-1.41851">
        <ele>55</ele>
        <time>2022-07-24T08:05:27Z</time>
      </trkpt>
      <trkpt lat="47.26334" lon="-1.41833">
        <ele>55</ele>
        <time>2022-07-24T08:05:29Z</time>
      </trkpt>
      <trkpt lat="47.26345" lon="-1.41814">
        <ele>55</ele>
        <time>2022-07-24T08:05:31Z</time>
      </trkpt>
      <trkpt lat="47.26355" lon="-1.41796">
        <ele>55</ele>
        <time>2022-07-24T08:05:33Z</time>
      </trkpt>
      <trkpt lat="47.26366" lon="-1.41778">
        <ele>55</ele>
        <time>2022-07-24T08:05:35Z</time>
      </trkpt>
      <trkpt lat="47.26377" lon="-1.41759">
        <ele>55</ele>
        <time>2022-07-24T08:05:37Z</time>
      </trkpt>
      <trkpt lat="47.26387" lon="-1.41741">
        <ele>55</ele>
        <time>2022-07-24T08:05:39Z</time>
      </trkpt>
      <trkpt lat="47.26398" lon="-1.41723">
        <ele>55</ele>
        <time>2022-07-24T08:05:41Z</time>
      </trkpt>
      <trkpt lat="47.26409" lon="-1.41704">
        <ele>55</ele>
        <time>2022-07-24T08:05:43Z</time>
      </trkpt>
      <trkpt lat="47.26419" lon="-1.41686">
        <ele>56</ele>
        <time>2022-07-24T08:05:45Z</time>
      </trkpt>
      <trkpt lat="47.2643" lon="-1.41668">
        <ele>55</ele>
        <time>2022-07-24T08:05:47Z</time>
      </trkpt>
      <trkpt lat="47.2644" lon="-1.4165">
        <ele>55</ele>
        <time>2022-07-24T08:05:49Z</time>
      </trkpt>
      <trkpt lat="47.26451" lon="-1.41632">
        <ele>56</ele>
        <time>2022-07-24T08:05:51Z</time>
      </trkpt>
      <trkpt lat="47.26461" lon="-1.41614">
        <ele>56</ele>
        <time>2022-07-24T08:05:53Z</time>
      </trkpt>
      <trkpt lat="47.26472" lon="-1.41596">
        <ele>56</ele>
        <time>2022-07-24T08:05:55Z</time>
      </trkpt>
      <trkpt lat="47.26482" lon="-1.41578">
        <ele>55</ele>
        <time>2022-07-24T08:05:57Z</time>
      </trkpt>
      <trkpt lat="47.26492" lon="-1.41561">
        <ele>56</ele>
        <time>2022-07-24T08:05:59Z</time>
      </trkpt>
      <trkpt lat="47.26503" lon="-1.41543">
        <ele>55</ele>
        <time>2022-07-24T08:06:01Z</time>
      </trkpt>
      <trkpt lat="47.26513" lon="-1.41525">
        <ele>56</ele>
        <time>2022-07-24T08:06:03Z</time>
      </trkpt>
      <trkpt lat="47.26523" lon="-1.41508">
        <ele>56</ele>
        <time>2022-07-24T08:06:05Z</time>
      </trkpt>
      <trkpt lat="47.26534" lon="-1.41491">
        <ele>56</ele>
        <time>2022-07-24T08:06:07Z</time>
      </trkpt>
      <trkpt lat="47.26545" lon="-1.41475">
        <ele>56</ele>
        <time>2022-07-24T08:06:09Z</time>
      </trkpt>
      <trkpt lat="47.26556" lon="-1.41459">
        <ele>55</ele>
        <time>2022-07-24T08:06:11Z</time>
      </trkpt>
      <trkpt lat="47.26566" lon="-1.41439">
        <ele>55</ele>
        <time>2022-07-24T08:06:13Z</time>
      </trkpt>
      <trkpt lat="47.26574" lon="-1.4142">
        <ele>55</ele>
        <time>2022-07-24T08:06:15Z</time>
      </trkpt>
      <trkpt lat="47.26584" lon="-1.414">
        <ele>56</ele>
        <time>2022-07-24T08:06:17Z</time>
      </trkpt>
      <trkpt lat="47.26592" lon="-1.41378">
        <ele>55</ele>
        <time>2022-07-24T08:06:19Z</time>
      </trkpt>
      <trkpt lat="47.266" lon="-1.41356">
        <ele>56</ele>
        <time>2022-07-24T08:06:21Z</time>
      </trkpt>
      <trkpt lat="47.26609" lon="-1.41335">
        <ele>56</ele>
        <time>2022-07-24T08:06:23Z</time>
      </trkpt>
      <trkpt lat="47.2662" lon="-1.41315">
        <ele>56</ele>
        <time>2022-07-24T08:06:25Z</time>
      </trkpt>
      <trkpt lat="47.26632" lon="-1.41298">
        <ele>56</ele>
        <time>2022-07-24T08:06:27Z</time>
      </trkpt>
      <trkpt lat="47.26644" lon="-1.41281">
        <ele>55</ele>
        <time>2022-07-24T08:06:29Z</time>
      </trkpt>
      <trkpt lat="47.26655" lon="-1.41263">
        <ele>55</ele>
        <time>2022-07-24T08:06:31Z</time>
      </trkpt>
      <trkpt lat="47.26666" lon="-1.41244">
        <ele>55</ele>
        <time>2022-07-24T08:06:33Z</time>
      </trkpt>
      <trkpt lat="47.26678" lon="-1.41226">
        <ele>55</ele>
        <time>2022-07-24T08:06:35Z</time>
      </trkpt>
      <trkpt lat="47.26691" lon="-1.4121">
        <ele>55</ele>
        <time>2022-07-24T08:06:37Z</time>
      </trkpt>
      <trkpt lat="47.26704" lon="-1.41195">
        <ele>55</ele>
        <time>2022-07-24T08:06:39Z</time>
      </trkpt>
      <trkpt lat="47.26717" lon="-1.4118">
        <ele>55</ele>
        <time>2022-07-24T08:06:41Z</time>
      </trkpt>
      <trkpt lat="47.26729" lon="-1.41164">
        <ele>55</ele>
        <time>2022-07-24T08:06:43Z</time>
      </trkpt>
      <trkpt lat="47.26742" lon="-1.41149">
        <ele>55</ele>
        <time>2022-07-24T08:06:45Z</time>
      </trkpt>
      <trkpt lat="47.26754" lon="-1.41135">
        <ele>55</ele>
        <time>2022-07-24T08:06:47Z</time>
      </trkpt>
      <trkpt lat="47.26766" lon="-1.41119">
        <ele>55</ele>
        <time>2022-07-24T08:06:49Z</time>
      </trkpt>
      <trkpt lat="47.26774" lon="-1.41099">
        <ele>54</ele>
        <time>2022-07-24T08:06:51Z</time>
      </trkpt>
      <trkpt lat="47.2678" lon="-1.41078">
        <ele>54</ele>
        <time>2022-07-24T08:06:53Z</time>
      </trkpt>
      <trkpt lat="47.26788" lon="-1.41058">
        <ele>54</ele>
        <time>2022-07-24T08:06:55Z</time>
      </trkpt>
      <trkpt lat="47.26795" lon="-1.41039">
        <ele>54</ele>
        <time>2022-07-24T08:06:57Z</time>
      </trkpt>
      <trkpt lat="47.26804" lon="-1.4102">
        <ele>54</ele>
        <time>2022-07-24T08:06:59Z</time>
      </trkpt>
      <trkpt lat="47.26816" lon="-1.41004">
        <ele>54</ele>
        <time>2022-07-24T08:07:01Z</time>
      </trkpt>
      <trkpt lat="47.26827" lon="-1.40987">
        <ele>55</ele>
        <time>2022-07-24T08:07:03Z</time>
      </trkpt>
      <trkpt lat="47.26836" lon="-1.40967">
        <ele>55</ele>
        <time>2022-07-24T08:07:05Z</time>
      </trkpt>
      <trkpt lat="47.26844" lon="-1.40949">
        <ele>56</ele>
        <time>2022-07-24T08:07:07Z</time>
      </trkpt>
      <trkpt lat="47.26852" lon="-1.40935">
        <ele>56</ele>
        <time>2022-07-24T08:07:09Z</time>
      </trkpt>
      <trkpt lat="47.26863" lon="-1.4092">
        <ele>55</ele>
        <time>2022-07-24T08:07:11Z</time>
      </trkpt>
      <trkpt lat="47.26873" lon="-1.409">
        <ele>54</ele>
        <time>2022-07-24T08:07:13Z</time>
      </trkpt>
      <trkpt lat="47.26881" lon="-1.40875">
        <ele>54</ele>
        <time>2022-07-24T08:07:15Z</time>
      </trkpt>
      <trkpt lat="47.26887" lon="-1.40864">
        <ele>53</ele>
        <time>2022-07-24T08:07:16Z</time>
      </trkpt>
      <trkpt lat="47.26894" lon="-1.40854">
        <ele>53</ele>
        <time>2022-07-24T08:07:17Z</time>
      </trkpt>
      <trkpt lat="47.26905" lon="-1.40835">
        <ele>54</ele>
        <time>2022-07-24T08:07:19Z</time>
      </trkpt>
      <trkpt lat="47.26914" lon="-1.40818">
        <ele>54</ele>
        <time>2022-07-24T08:07:21Z</time>
      </trkpt>
      <trkpt lat="47.26921" lon="-1.40803">
        <ele>54</ele>
        <time>2022-07-24T08:07:23Z</time>
      </trkpt>
      <trkpt lat="47.26928" lon="-1.40786">
        <ele>54</ele>
        <time>2022-07-24T08:07:25Z</time>
      </trkpt>
      <trkpt lat="47.26932" lon="-1.40767">
        <ele>54</ele>
        <time>2022-07-24T08:07:27Z</time>
      </trkpt>
      <trkpt lat="47.26932" lon="-1.40747">
        <ele>53</ele>
        <time>2022-07-24T08:07:29Z</time>
      </trkpt>
      <trkpt lat="47.26933" lon="-1.40723">
        <ele>53</ele>
        <time>2022-07-24T08:07:31Z</time>
      </trkpt>
      <trkpt lat="47.26933" lon="-1.40699">
        <ele>54</ele>
        <time>2022-07-24T08:07:33Z</time>
      </trkpt>
      <trkpt lat="47.26934" lon="-1.40675">
        <ele>54</ele>
        <time>2022-07-24T08:07:35Z</time>
      </trkpt>
      <trkpt lat="47.26937" lon="-1.4065">
        <ele>54</ele>
        <time>2022-07-24T08:07:37Z</time>
      </trkpt>
      <trkpt lat="47.26939" lon="-1.40628">
        <ele>55</ele>
        <time>2022-07-24T08:07:39Z</time>
      </trkpt>
      <trkpt lat="47.26942" lon="-1.40607">
        <ele>55</ele>
        <time>2022-07-24T08:07:41Z</time>
      </trkpt>
      <trkpt lat="47.26948" lon="-1.40585">
        <ele>56</ele>
        <time>2022-07-24T08:07:43Z</time>
      </trkpt>
      <trkpt lat="47.26955" lon="-1.40565">
        <ele>56</ele>
        <time>2022-07-24T08:07:45Z</time>
      </trkpt>
      <trkpt lat="47.26963" lon="-1.40546">
        <ele>56</ele>
        <time>2022-07-24T08:07:47Z</time>
      </trkpt>
      <trkpt lat="47.26972" lon="-1.40528">
        <ele>56</ele>
        <time>2022-07-24T08:07:49Z</time>
      </trkpt>
      <trkpt lat="47.26983" lon="-1.40511">
        <ele>56</ele>
        <time>2022-07-24T08:07:51Z</time>
      </trkpt>
      <trkpt lat="47.26994" lon="-1.40495">
        <ele>56</ele>
        <time>2022-07-24T08:07:53Z</time>
      </trkpt>
      <trkpt lat="47.27004" lon="-1.40477">
        <ele>56</ele>
        <time>2022-07-24T08:07:55Z</time>
      </trkpt>
      <trkpt lat="47.27015" lon="-1.4046">
        <ele>57</ele>
        <time>2022-07-24T08:07:57Z</time>
      </trkpt>
      <trkpt lat="47.27026" lon="-1.40444">
        <ele>57</ele>
        <time>2022-07-24T08:07:59Z</time>
      </trkpt>
      <trkpt lat="47.27037" lon="-1.40427">
        <ele>57</ele>
        <time>2022-07-24T08:08:01Z</time>
      </trkpt>
      <trkpt lat="47.27048" lon="-1.4041">
        <ele>57</ele>
        <time>2022-07-24T08:08:03Z</time>
      </trkpt>
      <trkpt lat="47.27058" lon="-1.40393">
        <ele>57</ele>
        <time>2022-07-24T08:08:05Z</time>
      </trkpt>
      <trkpt lat="47.27068" lon="-1.40376">
        <ele>57</ele>
        <time>2022-07-24T08:08:07Z</time>
      </trkpt>
      <trkpt lat="47.27078" lon="-1.4036">
        <ele>57</ele>
        <time>2022-07-24T08:08:09Z</time>
      </trkpt>
      <trkpt lat="47.2709" lon="-1.40343">
        <ele>57</ele>
        <time>2022-07-24T08:08:11Z</time>
      </trkpt>
      <trkpt lat="47.27101" lon="-1.40326">
        <ele>57</ele>
        <time>2022-07-24T08:08:13Z</time>
      </trkpt>
      <trkpt lat="47.27112" lon="-1.4031">
        <ele>57</ele>
        <time>2022-07-24T08:08:15Z</time>
      </trkpt>
      <trkpt lat="47.27122" lon="-1.40292">
        <ele>58</ele>
        <time>2022-07-24T08:08:17Z</time>
      </trkpt>
      <trkpt lat="47.27133" lon="-1.40274">
        <ele>58</ele>
        <time>2022-07-24T08:08:19Z</time>
      </trkpt>
      <trkpt lat="47.27144" lon="-1.40258">
        <ele>58</ele>
        <time>2022-07-24T08:08:21Z</time>
      </trkpt>
      <trkpt lat="47.27155" lon="-1.4024">
        <ele>58</ele>
        <time>2022-07-24T08:08:23Z</time>
      </trkpt>
      <trkpt lat="47.27166" lon="-1.40223">
        <ele>57</ele>
        <time>2022-07-24T08:08:25Z</time>
      </trkpt>
      <trkpt lat="47.27177" lon="-1.40205">
        <ele>57</ele>
        <time>2022-07-24T08:08:27Z</time>
      </trkpt>
      <trkpt lat="47.27189" lon="-1.40191">
        <ele>57</ele>
        <time>2022-07-24T08:08:29Z</time>
      </trkpt>
      <trkpt lat="47.27201" lon="-1.40175">
        <ele>57</ele>
        <time>2022-07-24T08:08:31Z</time>
      </trkpt>
      <trkpt lat="47.2721" lon="-1.40157">
        <ele>57</ele>
        <time>2022-07-24T08:08:33Z</time>
      </trkpt>
      <trkpt lat="47.27221" lon="-1.40138">
        <ele>57</ele>
        <time>2022-07-24T08:08:35Z</time>
      </trkpt>
      <trkpt lat="47.27232" lon="-1.4012">
        <ele>57</ele>
        <time>2022-07-24T08:08:37Z</time>
      </trkpt>
      <trkpt lat="47.27244" lon="-1.40102">
        <ele>57</ele>
        <time>2022-07-24T08:08:39Z</time>
      </trkpt>
      <trkpt lat="47.27255" lon="-1.40084">
        <ele>56</ele>
        <time>2022-07-24T08:08:41Z</time>
      </trkpt>
      <trkpt lat="47.27266" lon="-1.40066">
        <ele>57</ele>
        <time>2022-07-24T08:08:43Z</time>
      </trkpt>
      <trkpt lat="47.27277" lon="-1.40049">
        <ele>57</ele>
        <time>2022-07-24T08:08:45Z</time>
      </trkpt>
      <trkpt lat="47.27288" lon="-1.40032">
        <ele>57</ele>
        <time>2022-07-24T08:08:47Z</time>
      </trkpt>
      <trkpt lat="47.27299" lon="-1.40015">
        <ele>57</ele>
        <time>2022-07-24T08:08:49Z</time>
      </trkpt>
      <trkpt lat="47.2731" lon="-1.39998">
        <ele>57</ele>
        <time>2022-07-24T08:08:51Z</time>
      </trkpt>
      <trkpt lat="47.2732" lon="-1.39982">
        <ele>57</ele>
        <time>2022-07-24T08:08:53Z</time>
      </trkpt>
      <trkpt lat="47.27331" lon="-1.39965">
        <ele>57</ele>
        <time>2022-07-24T08:08:55Z</time>
      </trkpt>
      <trkpt lat="47.27342" lon="-1.39949">
        <ele>56</ele>
        <time>2022-07-24T08:08:57Z</time>
      </trkpt>
      <trkpt lat="47.27352" lon="-1.39932">
        <ele>56</ele>
        <time>2022-07-24T08:08:59Z</time>
      </trkpt>
      <trkpt lat="47.27362" lon="-1.39914">
        <ele>56</ele>
        <time>2022-07-24T08:09:01Z</time>
      </trkpt>
      <trkpt lat="47.27372" lon="-1.39897">
        <ele>56</ele>
        <time>2022-07-24T08:09:03Z</time>
      </trkpt>
      <trkpt lat="47.27384" lon="-1.39886">
        <ele>56</ele>
        <time>2022-07-24T08:09:05Z</time>
      </trkpt>
      <trkpt lat="47.27399" lon="-1.39886">
        <ele>56</ele>
        <time>2022-07-24T08:09:07Z</time>
      </trkpt>
      <trkpt lat="47.27413" lon="-1.3989">
        <ele>56</ele>
        <time>2022-07-24T08:09:09Z</time>
      </trkpt>
      <trkpt lat="47.27423" lon="-1.39883">
        <ele>56</ele>
        <time>2022-07-24T08:09:11Z</time>
      </trkpt>
      <trkpt lat="47.27428" lon="-1.39867">
        <ele>56</ele>
        <time>2022-07-24T08:09:13Z</time>
      </trkpt>
      <trkpt lat="47.27433" lon="-1.39845">
        <ele>56</ele>
        <time>2022-07-24T08:09:15Z</time>
      </trkpt>
      <trkpt lat="47.27439" lon="-1.39824">
        <ele>56</ele>
        <time>2022-07-24T08:09:17Z</time>
      </trkpt>
      <trkpt lat="47.27446" lon="-1.39803">
        <ele>56</ele>
        <time>2022-07-24T08:09:19Z</time>
      </trkpt>
      <trkpt lat="47.27456" lon="-1.39783">
        <ele>55</ele>
        <time>2022-07-24T08:09:21Z</time>
      </trkpt>
      <trkpt lat="47.27468" lon="-1.39763">
        <ele>55</ele>
        <time>2022-07-24T08:09:23Z</time>
      </trkpt>
      <trkpt lat="47.27477" lon="-1.39744">
        <ele>56</ele>
        <time>2022-07-24T08:09:25Z</time>
      </trkpt>
      <trkpt lat="47.27485" lon="-1.39724">
        <ele>56</ele>
        <time>2022-07-24T08:09:27Z</time>
      </trkpt>
      <trkpt lat="47.27495" lon="-1.39707">
        <ele>56</ele>
        <time>2022-07-24T08:09:29Z</time>
      </trkpt>
      <trkpt lat="47.27505" lon="-1.39691">
        <ele>56</ele>
        <time>2022-07-24T08:09:31Z</time>
      </trkpt>
      <trkpt lat="47.27515" lon="-1.39675">
        <ele>56</ele>
        <time>2022-07-24T08:09:33Z</time>
      </trkpt>
      <trkpt lat="47.27526" lon="-1.39658">
        <ele>56</ele>
        <time>2022-07-24T08:09:35Z</time>
      </trkpt>
      <trkpt lat="47.27536" lon="-1.39641">
        <ele>56</ele>
        <time>2022-07-24T08:09:37Z</time>
      </trkpt>
      <trkpt lat="47.27547" lon="-1.39625">
        <ele>56</ele>
        <time>2022-07-24T08:09:39Z</time>
      </trkpt>
      <trkpt lat="47.27557" lon="-1.39609">
        <ele>56</ele>
        <time>2022-07-24T08:09:41Z</time>
      </trkpt>
      <trkpt lat="47.27568" lon="-1.39593">
        <ele>56</ele>
        <time>2022-07-24T08:09:43Z</time>
      </trkpt>
      <trkpt lat="47.27578" lon="-1.39577">
        <ele>57</ele>
        <time>2022-07-24T08:09:45Z</time>
      </trkpt>
      <trkpt lat="47.27588" lon="-1.3956">
        <ele>57</ele>
        <time>2022-07-24T08:09:47Z</time>
      </trkpt>
      <trkpt lat="47.27598" lon="-1.39545">
        <ele>57</ele>
        <time>2022-07-24T08:09:49Z</time>
      </trkpt>
      <trkpt lat="47.27607" lon="-1.39531">
        <ele>57</ele>
        <time>2022-07-24T08:09:51Z</time>
      </trkpt>
      <trkpt lat="47.27617" lon="-1.39522">
        <ele>56</ele>
        <time>2022-07-24T08:09:53Z</time>
      </trkpt>
      <trkpt lat="47.27627" lon="-1.39512">
        <ele>57</ele>
        <time>2022-07-24T08:09:55Z</time>
      </trkpt>
      <trkpt lat="47.27635" lon="-1.39493">
        <ele>56</ele>
        <time>2022-07-24T08:09:57Z</time>
      </trkpt>
      <trkpt lat="47.27644" lon="-1.39475">
        <ele>57</ele>
        <time>2022-07-24T08:09:59Z</time>
      </trkpt>
      <trkpt lat="47.27654" lon="-1.39456">
        <ele>57</ele>
        <time>2022-07-24T08:10:01Z</time>
      </trkpt>
      <trkpt lat="47.27665" lon="-1.39438">
        <ele>57</ele>
        <time>2022-07-24T08:10:03Z</time>
      </trkpt>
      <trkpt lat="47.27675" lon="-1.39419">
        <ele>57</ele>
        <time>2022-07-24T08:10:05Z</time>
      </trkpt>
      <trkpt lat="47.27685" lon="-1.394">
        <ele>56</ele>
        <time>2022-07-24T08:10:07Z</time>
      </trkpt>
      <trkpt lat="47.27694" lon="-1.3938">
        <ele>56</ele>
        <time>2022-07-24T08:10:09Z</time>
      </trkpt>
      <trkpt lat="47.27702" lon="-1.39361">
        <ele>57</ele>
        <time>2022-07-24T08:10:11Z</time>
      </trkpt>
      <trkpt lat="47.27712" lon="-1.39344">
        <ele>57</ele>
        <time>2022-07-24T08:10:13Z</time>
      </trkpt>
      <trkpt lat="47.2772" lon="-1.39324">
        <ele>57</ele>
        <time>2022-07-24T08:10:15Z</time>
      </trkpt>
      <trkpt lat="47.27729" lon="-1.39304">
        <ele>57</ele>
        <time>2022-07-24T08:10:17Z</time>
      </trkpt>
      <trkpt lat="47.27738" lon="-1.39285">
        <ele>57</ele>
        <time>2022-07-24T08:10:19Z</time>
      </trkpt>
      <trkpt lat="47.27747" lon="-1.39266">
        <ele>57</ele>
        <time>2022-07-24T08:10:21Z</time>
      </trkpt>
      <trkpt lat="47.27755" lon="-1.39247">
        <ele>57</ele>
        <time>2022-07-24T08:10:23Z</time>
      </trkpt>
      <trkpt lat="47.27764" lon="-1.39227">
        <ele>57</ele>
        <time>2022-07-24T08:10:25Z</time>
      </trkpt>
      <trkpt lat="47.27774" lon="-1.39208">
        <ele>57</ele>
        <time>2022-07-24T08:10:27Z</time>
      </trkpt>
      <trkpt lat="47.27783" lon="-1.39191">
        <ele>57</ele>
        <time>2022-07-24T08:10:29Z</time>
      </trkpt>
      <trkpt lat="47.27793" lon="-1.39174">
        <ele>58</ele>
        <time>2022-07-24T08:10:31Z</time>
      </trkpt>
      <trkpt lat="47.27803" lon="-1.39156">
        <ele>58</ele>
        <time>2022-07-24T08:10:33Z</time>
      </trkpt>
      <trkpt lat="47.27813" lon="-1.39138">
        <ele>58</ele>
        <time>2022-07-24T08:10:35Z</time>
      </trkpt>
      <trkpt lat="47.27824" lon="-1.39121">
        <ele>58</ele>
        <time>2022-07-24T08:10:37Z</time>
      </trkpt>
      <trkpt lat="47.27834" lon="-1.39104">
        <ele>58</ele>
        <time>2022-07-24T08:10:39Z</time>
      </trkpt>
      <trkpt lat="47.27845" lon="-1.39087">
        <ele>58</ele>
        <time>2022-07-24T08:10:41Z</time>
      </trkpt>
      <trkpt lat="47.27855" lon="-1.3907">
        <ele>58</ele>
        <time>2022-07-24T08:10:43Z</time>
      </trkpt>
      <trkpt lat="47.27865" lon="-1.39053">
        <ele>58</ele>
        <time>2022-07-24T08:10:45Z</time>
      </trkpt>
      <trkpt lat="47.27875" lon="-1.39036">
        <ele>58</ele>
        <time>2022-07-24T08:10:47Z</time>
      </trkpt>
      <trkpt lat="47.27886" lon="-1.39019">
        <ele>58</ele>
        <time>2022-07-24T08:10:49Z</time>
      </trkpt>
      <trkpt lat="47.27897" lon="-1.39003">
        <ele>58</ele>
        <time>2022-07-24T08:10:51Z</time>
      </trkpt>
      <trkpt lat="47.27909" lon="-1.38987">
        <ele>57</ele>
        <time>2022-07-24T08:10:53Z</time>
      </trkpt>
      <trkpt lat="47.27919" lon="-1.38968">
        <ele>57</ele>
        <time>2022-07-24T08:10:55Z</time>
      </trkpt>
      <trkpt lat="47.27929" lon="-1.38951">
        <ele>57</ele>
        <time>2022-07-24T08:10:57Z</time>
      </trkpt>
      <trkpt lat="47.2794" lon="-1.38934">
        <ele>57</ele>
        <time>2022-07-24T08:10:59Z</time>
      </trkpt>
      <trkpt lat="47.27951" lon="-1.38918">
        <ele>57</ele>
        <time>2022-07-24T08:11:01Z</time>
      </trkpt>
      <trkpt lat="47.27961" lon="-1.38902">
        <ele>57</ele>
        <time>2022-07-24T08:11:03Z</time>
      </trkpt>
      <trkpt lat="47.27972" lon="-1.38885">
        <ele>57</ele>
        <time>2022-07-24T08:11:05Z</time>
      </trkpt>
      <trkpt lat="47.27983" lon="-1.38869">
        <ele>57</ele>
        <time>2022-07-24T08:11:07Z</time>
      </trkpt>
      <trkpt lat="47.27996" lon="-1.38854">
        <ele>57</ele>
        <time>2022-07-24T08:11:09Z</time>
      </trkpt>
      <trkpt lat="47.28008" lon="-1.38841">
        <ele>56</ele>
        <time>2022-07-24T08:11:11Z</time>
      </trkpt>
      <trkpt lat="47.2802" lon="-1.38828">
        <ele>57</ele>
        <time>2022-07-24T08:11:13Z</time>
      </trkpt>
      <trkpt lat="47.28033" lon="-1.38817">
        <ele>57</ele>
        <time>2022-07-24T08:11:15Z</time>
      </trkpt>
      <trkpt lat="47.28047" lon="-1.38806">
        <ele>57</ele>
        <time>2022-07-24T08:11:17Z</time>
      </trkpt>
      <trkpt lat="47.28061" lon="-1.38797">
        <ele>56</ele>
        <time>2022-07-24T08:11:19Z</time>
      </trkpt>
      <trkpt lat="47.28075" lon="-1.38786">
        <ele>56</ele>
        <time>2022-07-24T08:11:21Z</time>
      </trkpt>
      <trkpt lat="47.2809" lon="-1.3878">
        <ele>56</ele>
        <time>2022-07-24T08:11:23Z</time>
      </trkpt>
      <trkpt lat="47.28105" lon="-1.38774">
        <ele>55</ele>
        <time>2022-07-24T08:11:25Z</time>
      </trkpt>
      <trkpt lat="47.28119" lon="-1.38764">
        <ele>56</ele>
        <time>2022-07-24T08:11:27Z</time>
      </trkpt>
      <trkpt lat="47.28132" lon="-1.38754">
        <ele>55</ele>
        <time>2022-07-24T08:11:29Z</time>
      </trkpt>
      <trkpt lat="47.28144" lon="-1.38742">
        <ele>55</ele>
        <time>2022-07-24T08:11:31Z</time>
      </trkpt>
      <trkpt lat="47.28155" lon="-1.38731">
        <ele>55</ele>
        <time>2022-07-24T08:11:33Z</time>
      </trkpt>
      <trkpt lat="47.28165" lon="-1.3872">
        <ele>55</ele>
        <time>2022-07-24T08:11:35Z</time>
      </trkpt>
      <trkpt lat="47.28173" lon="-1.38708">
        <ele>54</ele>
        <time>2022-07-24T08:11:37Z</time>
      </trkpt>
      <trkpt lat="47.28178" lon="-1.38694">
        <ele>54</ele>
        <time>2022-07-24T08:11:39Z</time>
      </trkpt>
      <trkpt lat="47.28181" lon="-1.38674">
        <ele>54</ele>
        <time>2022-07-24T08:11:42Z</time>
      </trkpt>
      <trkpt lat="47.28183" lon="-1.3866">
        <ele>54</ele>
        <time>2022-07-24T08:11:44Z</time>
      </trkpt>
      <trkpt lat="47.28189" lon="-1.38645">
        <ele>54</ele>
        <time>2022-07-24T08:11:46Z</time>
      </trkpt>
      <trkpt lat="47.28196" lon="-1.38628">
        <ele>54</ele>
        <time>2022-07-24T08:11:48Z</time>
      </trkpt>
      <trkpt lat="47.28199" lon="-1.3861">
        <ele>54</ele>
        <time>2022-07-24T08:11:50Z</time>
      </trkpt>
      <trkpt lat="47.28199" lon="-1.38589">
        <ele>54</ele>
        <time>2022-07-24T08:11:52Z</time>
      </trkpt>
      <trkpt lat="47.282" lon="-1.38567">
        <ele>54</ele>
        <time>2022-07-24T08:11:54Z</time>
      </trkpt>
      <trkpt lat="47.28202" lon="-1.38543">
        <ele>54</ele>
        <time>2022-07-24T08:11:56Z</time>
      </trkpt>
      <trkpt lat="47.28206" lon="-1.3852">
        <ele>54</ele>
        <time>2022-07-24T08:11:58Z</time>
      </trkpt>
      <trkpt lat="47.28213" lon="-1.38498">
        <ele>55</ele>
        <time>2022-07-24T08:12:00Z</time>
      </trkpt>
      <trkpt lat="47.28222" lon="-1.38479">
        <ele>54</ele>
        <time>2022-07-24T08:12:02Z</time>
      </trkpt>
      <trkpt lat="47.28231" lon="-1.38458">
        <ele>54</ele>
        <time>2022-07-24T08:12:04Z</time>
      </trkpt>
      <trkpt lat="47.28238" lon="-1.38438">
        <ele>56</ele>
        <time>2022-07-24T08:12:06Z</time>
      </trkpt>
      <trkpt lat="47.28247" lon="-1.38419">
        <ele>55</ele>
        <time>2022-07-24T08:12:08Z</time>
      </trkpt>
      <trkpt lat="47.28257" lon="-1.38399">
        <ele>55</ele>
        <time>2022-07-24T08:12:10Z</time>
      </trkpt>
      <trkpt lat="47.28266" lon="-1.38379">
        <ele>55</ele>
        <time>2022-07-24T08:12:12Z</time>
      </trkpt>
      <trkpt lat="47.28275" lon="-1.3836">
        <ele>55</ele>
        <time>2022-07-24T08:12:14Z</time>
      </trkpt>
      <trkpt lat="47.28283" lon="-1.3834">
        <ele>55</ele>
        <time>2022-07-24T08:12:16Z</time>
      </trkpt>
      <trkpt lat="47.28292" lon="-1.38322">
        <ele>55</ele>
        <time>2022-07-24T08:12:18Z</time>
      </trkpt>
      <trkpt lat="47.28302" lon="-1.38304">
        <ele>55</ele>
        <time>2022-07-24T08:12:20Z</time>
      </trkpt>
      <trkpt lat="47.28312" lon="-1.38288">
        <ele>55</ele>
        <time>2022-07-24T08:12:22Z</time>
      </trkpt>
      <trkpt lat="47.28324" lon="-1.38273">
        <ele>55</ele>
        <time>2022-07-24T08:12:24Z</time>
      </trkpt>
      <trkpt lat="47.28335" lon="-1.38258">
        <ele>54</ele>
        <time>2022-07-24T08:12:26Z</time>
      </trkpt>
      <trkpt lat="47.28345" lon="-1.38241">
        <ele>54</ele>
        <time>2022-07-24T08:12:28Z</time>
      </trkpt>
      <trkpt lat="47.28351" lon="-1.3822">
        <ele>55</ele>
        <time>2022-07-24T08:12:30Z</time>
      </trkpt>
      <trkpt lat="47.28355" lon="-1.38199">
        <ele>55</ele>
        <time>2022-07-24T08:12:32Z</time>
      </trkpt>
      <trkpt lat="47.2836" lon="-1.38179">
        <ele>56</ele>
        <time>2022-07-24T08:12:34Z</time>
      </trkpt>
      <trkpt lat="47.28366" lon="-1.3816">
        <ele>57</ele>
        <time>2022-07-24T08:12:36Z</time>
      </trkpt>
      <trkpt lat="47.28374" lon="-1.38142">
        <ele>57</ele>
        <time>2022-07-24T08:12:38Z</time>
      </trkpt>
      <trkpt lat="47.28383" lon="-1.38124">
        <ele>57</ele>
        <time>2022-07-24T08:12:40Z</time>
      </trkpt>
      <trkpt lat="47.28393" lon="-1.38109">
        <ele>58</ele>
        <time>2022-07-24T08:12:42Z</time>
      </trkpt>
      <trkpt lat="47.28404" lon="-1.38095">
        <ele>57</ele>
        <time>2022-07-24T08:12:44Z</time>
      </trkpt>
      <trkpt lat="47.28416" lon="-1.38081">
        <ele>57</ele>
        <time>2022-07-24T08:12:46Z</time>
      </trkpt>
      <trkpt lat="47.28427" lon="-1.38067">
        <ele>57</ele>
        <time>2022-07-24T08:12:48Z</time>
      </trkpt>
      <trkpt lat="47.28438" lon="-1.38054">
        <ele>57</ele>
        <time>2022-07-24T08:12:50Z</time>
      </trkpt>
      <trkpt lat="47.2845" lon="-1.38042">
        <ele>57</ele>
        <time>2022-07-24T08:12:52Z</time>
      </trkpt>
      <trkpt lat="47.2846" lon="-1.38029">
        <ele>57</ele>
        <time>2022-07-24T08:12:54Z</time>
      </trkpt>
      <trkpt lat="47.28472" lon="-1.38026">
        <ele>57</ele>
        <time>2022-07-24T08:12:56Z</time>
      </trkpt>
      <trkpt lat="47.28486" lon="-1.38028">
        <ele>56</ele>
        <time>2022-07-24T08:12:58Z</time>
      </trkpt>
      <trkpt lat="47.28498" lon="-1.38024">
        <ele>56</ele>
        <time>2022-07-24T08:13:00Z</time>
      </trkpt>
      <trkpt lat="47.28507" lon="-1.38011">
        <ele>57</ele>
        <time>2022-07-24T08:13:02Z</time>
      </trkpt>
      <trkpt lat="47.28516" lon="-1.37997">
        <ele>56</ele>
        <time>2022-07-24T08:13:04Z</time>
      </trkpt>
      <trkpt lat="47.28524" lon="-1.37984">
        <ele>56</ele>
        <time>2022-07-24T08:13:06Z</time>
      </trkpt>
      <trkpt lat="47.28524" lon="-1.3797">
        <ele>57</ele>
        <time>2022-07-24T08:13:08Z</time>
      </trkpt>
      <trkpt lat="47.28525" lon="-1.37956">
        <ele>57</ele>
        <time>2022-07-24T08:13:10Z</time>
      </trkpt>
      <trkpt lat="47.28535" lon="-1.37941">
        <ele>57</ele>
        <time>2022-07-24T08:13:12Z</time>
      </trkpt>
      <trkpt lat="47.28545" lon="-1.37929">
        <ele>57</ele>
        <time>2022-07-24T08:13:14Z</time>
      </trkpt>
      <trkpt lat="47.28557" lon="-1.37915">
        <ele>57</ele>
        <time>2022-07-24T08:13:16Z</time>
      </trkpt>
      <trkpt lat="47.28568" lon="-1.37902">
        <ele>57</ele>
        <time>2022-07-24T08:13:18Z</time>
      </trkpt>
      <trkpt lat="47.28579" lon="-1.3789">
        <ele>57</ele>
        <time>2022-07-24T08:13:20Z</time>
      </trkpt>
      <trkpt lat="47.2859" lon="-1.37877">
        <ele>57</ele>
        <time>2022-07-24T08:13:22Z</time>
      </trkpt>
      <trkpt lat="47.28602" lon="-1.37864">
        <ele>57</ele>
        <time>2022-07-24T08:13:24Z</time>
      </trkpt>
      <trkpt lat="47.28613" lon="-1.37851">
        <ele>57</ele>
        <time>2022-07-24T08:13:26Z</time>
      </trkpt>
      <trkpt lat="47.28624" lon="-1.37838">
        <ele>57</ele>
        <time>2022-07-24T08:13:28Z</time>
      </trkpt>
      <trkpt lat="47.28635" lon="-1.37826">
        <ele>57</ele>
        <time>2022-07-24T08:13:30Z</time>
      </trkpt>
      <trkpt lat="47.28646" lon="-1.37812">
        <ele>57</ele>
        <time>2022-07-24T08:13:32Z</time>
      </trkpt>
      <trkpt lat="47.28657" lon="-1.37799">
        <ele>57</ele>
        <time>2022-07-24T08:13:34Z</time>
      </trkpt>
      <trkpt lat="47.28669" lon="-1.37786">
        <ele>57</ele>
        <time>2022-07-24T08:13:36Z</time>
      </trkpt>
      <trkpt lat="47.2868" lon="-1.37773">
        <ele>57</ele>
        <time>2022-07-24T08:13:38Z</time>
      </trkpt>
      <trkpt lat="47.28692" lon="-1.37759">
        <ele>57</ele>
        <time>2022-07-24T08:13:40Z</time>
      </trkpt>
      <trkpt lat="47.28704" lon="-1.37748">
        <ele>56</ele>
        <time>2022-07-24T08:13:42Z</time>
      </trkpt>
      <trkpt lat="47.28717" lon="-1.37736">
        <ele>56</ele>
        <time>2022-07-24T08:13:44Z</time>
      </trkpt>
      <trkpt lat="47.28728" lon="-1.37722">
        <ele>57</ele>
        <time>2022-07-24T08:13:46Z</time>
      </trkpt>
      <trkpt lat="47.28738" lon="-1.37707">
        <ele>57</ele>
        <time>2022-07-24T08:13:48Z</time>
      </trkpt>
      <trkpt lat="47.28749" lon="-1.37692">
        <ele>57</ele>
        <time>2022-07-24T08:13:50Z</time>
      </trkpt>
      <trkpt lat="47.28761" lon="-1.37679">
        <ele>57</ele>
        <time>2022-07-24T08:13:52Z</time>
      </trkpt>
      <trkpt lat="47.28772" lon="-1.37666">
        <ele>56</ele>
        <time>2022-07-24T08:13:54Z</time>
      </trkpt>
      <trkpt lat="47.2879" lon="-1.37649">
        <ele>56</ele>
        <time>2022-07-24T08:13:57Z</time>
      </trkpt>
      <trkpt lat="47.28802" lon="-1.37638">
        <ele>56</ele>
        <time>2022-07-24T08:13:59Z</time>
      </trkpt>
      <trkpt lat="47.28813" lon="-1.37626">
        <ele>56</ele>
        <time>2022-07-24T08:14:01Z</time>
      </trkpt>
      <trkpt lat="47.28823" lon="-1.37614">
        <ele>57</ele>
        <time>2022-07-24T08:14:03Z</time>
      </trkpt>
      <trkpt lat="47.28834" lon="-1.37608">
        <ele>58</ele>
        <time>2022-07-24T08:14:05Z</time>
      </trkpt>
      <trkpt lat="47.28844" lon="-1.37603">
        <ele>58</ele>
        <time>2022-07-24T08:14:07Z</time>
      </trkpt>
      <trkpt lat="47.28849" lon="-1.37591">
        <ele>58</ele>
        <time>2022-07-24T08:14:09Z</time>
      </trkpt>
      <trkpt lat="47.2885" lon="-1.37565">
        <ele>59</ele>
        <time>2022-07-24T08:14:12Z</time>
      </trkpt>
      <trkpt lat="47.2886" lon="-1.37535">
        <ele>58</ele>
        <time>2022-07-24T08:14:15Z</time>
      </trkpt>
      <trkpt lat="47.2887" lon="-1.37503">
        <ele>58</ele>
        <time>2022-07-24T08:14:18Z</time>
      </trkpt>
      <trkpt lat="47.28878" lon="-1.37472">
        <ele>57</ele>
        <time>2022-07-24T08:14:21Z</time>
      </trkpt>
      <trkpt lat="47.28884" lon="-1.37452">
        <ele>58</ele>
        <time>2022-07-24T08:14:23Z</time>
      </trkpt>
      <trkpt lat="47.28891" lon="-1.37432">
        <ele>58</ele>
        <time>2022-07-24T08:14:25Z</time>
      </trkpt>
      <trkpt lat="47.28897" lon="-1.37412">
        <ele>58</ele>
        <time>2022-07-24T08:14:27Z</time>
      </trkpt>
      <trkpt lat="47.28903" lon="-1.37393">
        <ele>58</ele>
        <time>2022-07-24T08:14:29Z</time>
      </trkpt>
      <trkpt lat="47.28909" lon="-1.37373">
        <ele>57</ele>
        <time>2022-07-24T08:14:31Z</time>
      </trkpt>
      <trkpt lat="47.28918" lon="-1.37344">
        <ele>57</ele>
        <time>2022-07-24T08:14:34Z</time>
      </trkpt>
      <trkpt lat="47.28929" lon="-1.37317">
        <ele>57</ele>
        <time>2022-07-24T08:14:37Z</time>
      </trkpt>
      <trkpt lat="47.28936" lon="-1.37298">
        <ele>57</ele>
        <time>2022-07-24T08:14:39Z</time>
      </trkpt>
      <trkpt lat="47.28941" lon="-1.37279">
        <ele>57</ele>
        <time>2022-07-24T08:14:41Z</time>
      </trkpt>
      <trkpt lat="47.28947" lon="-1.37259">
        <ele>57</ele>
        <time>2022-07-24T08:14:43Z</time>
      </trkpt>
      <trkpt lat="47.28955" lon="-1.3723">
        <ele>57</ele>
        <time>2022-07-24T08:14:46Z</time>
      </trkpt>
      <trkpt lat="47.28962" lon="-1.37211">
        <ele>57</ele>
        <time>2022-07-24T08:14:48Z</time>
      </trkpt>
      <trkpt lat="47.28969" lon="-1.37193">
        <ele>57</ele>
        <time>2022-07-24T08:14:50Z</time>
      </trkpt>
      <trkpt lat="47.28976" lon="-1.37174">
        <ele>56</ele>
        <time>2022-07-24T08:14:52Z</time>
      </trkpt>
      <trkpt lat="47.28984" lon="-1.37156">
        <ele>57</ele>
        <time>2022-07-24T08:14:54Z</time>
      </trkpt>
      <trkpt lat="47.28992" lon="-1.37138">
        <ele>57</ele>
        <time>2022-07-24T08:14:56Z</time>
      </trkpt>
      <trkpt lat="47.28999" lon="-1.3712">
        <ele>57</ele>
        <time>2022-07-24T08:14:58Z</time>
      </trkpt>
      <trkpt lat="47.29007" lon="-1.37103">
        <ele>57</ele>
        <time>2022-07-24T08:15:00Z</time>
      </trkpt>
      <trkpt lat="47.29015" lon="-1.37086">
        <ele>58</ele>
        <time>2022-07-24T08:15:02Z</time>
      </trkpt>
      <trkpt lat="47.29022" lon="-1.37071">
        <ele>58</ele>
        <time>2022-07-24T08:15:04Z</time>
      </trkpt>
      <trkpt lat="47.29029" lon="-1.37055">
        <ele>58</ele>
        <time>2022-07-24T08:15:06Z</time>
      </trkpt>
      <trkpt lat="47.29037" lon="-1.3704">
        <ele>58</ele>
        <time>2022-07-24T08:15:08Z</time>
      </trkpt>
      <trkpt lat="47.29045" lon="-1.37024">
        <ele>58</ele>
        <time>2022-07-24T08:15:10Z</time>
      </trkpt>
      <trkpt lat="47.29052" lon="-1.37009">
        <ele>59</ele>
        <time>2022-07-24T08:15:12Z</time>
      </trkpt>
      <trkpt lat="47.29058" lon="-1.36996">
        <ele>60</ele>
        <time>2022-07-24T08:15:14Z</time>
      </trkpt>
      <trkpt lat="47.29064" lon="-1.36985">
        <ele>60</ele>
        <time>2022-07-24T08:15:16Z</time>
      </trkpt>
      <trkpt lat="47.2907" lon="-1.36971">
        <ele>60</ele>
        <time>2022-07-24T08:15:18Z</time>
      </trkpt>
      <trkpt lat="47.29075" lon="-1.36954">
        <ele>60</ele>
        <time>2022-07-24T08:15:20Z</time>
      </trkpt>
      <trkpt lat="47.2908" lon="-1.36935">
        <ele>60</ele>
        <time>2022-07-24T08:15:22Z</time>
      </trkpt>
      <trkpt lat="47.29088" lon="-1.36918">
        <ele>59</ele>
        <time>2022-07-24T08:15:24Z</time>
      </trkpt>
      <trkpt lat="47.29097" lon="-1.36901">
        <ele>59</ele>
        <time>2022-07-24T08:15:26Z</time>
      </trkpt>
      <trkpt lat="47.29105" lon="-1.36884">
        <ele>59</ele>
        <time>2022-07-24T08:15:28Z</time>
      </trkpt>
      <trkpt lat="47.29115" lon="-1.36867">
        <ele>59</ele>
        <time>2022-07-24T08:15:30Z</time>
      </trkpt>
      <trkpt lat="47.29124" lon="-1.36848">
        <ele>59</ele>
        <time>2022-07-24T08:15:32Z</time>
      </trkpt>
      <trkpt lat="47.29133" lon="-1.3683">
        <ele>59</ele>
        <time>2022-07-24T08:15:34Z</time>
      </trkpt>
      <trkpt lat="47.29143" lon="-1.36812">
        <ele>59</ele>
        <time>2022-07-24T08:15:36Z</time>
      </trkpt>
      <trkpt lat="47.29152" lon="-1.36794">
        <ele>59</ele>
        <time>2022-07-24T08:15:38Z</time>
      </trkpt>
      <trkpt lat="47.29161" lon="-1.36776">
        <ele>59</ele>
        <time>2022-07-24T08:15:40Z</time>
      </trkpt>
      <trkpt lat="47.2917" lon="-1.36759">
        <ele>58</ele>
        <time>2022-07-24T08:15:42Z</time>
      </trkpt>
      <trkpt lat="47.29179" lon="-1.36741">
        <ele>59</ele>
        <time>2022-07-24T08:15:44Z</time>
      </trkpt>
      <trkpt lat="47.29188" lon="-1.36724">
        <ele>58</ele>
        <time>2022-07-24T08:15:46Z</time>
      </trkpt>
      <trkpt lat="47.29197" lon="-1.36706">
        <ele>58</ele>
        <time>2022-07-24T08:15:48Z</time>
      </trkpt>
      <trkpt lat="47.29206" lon="-1.36689">
        <ele>58</ele>
        <time>2022-07-24T08:15:50Z</time>
      </trkpt>
      <trkpt lat="47.29216" lon="-1.3667">
        <ele>58</ele>
        <time>2022-07-24T08:15:52Z</time>
      </trkpt>
      <trkpt lat="47.29225" lon="-1.36653">
        <ele>58</ele>
        <time>2022-07-24T08:15:54Z</time>
      </trkpt>
      <trkpt lat="47.29234" lon="-1.36635">
        <ele>58</ele>
        <time>2022-07-24T08:15:56Z</time>
      </trkpt>
      <trkpt lat="47.29243" lon="-1.36617">
        <ele>58</ele>
        <time>2022-07-24T08:15:58Z</time>
      </trkpt>
      <trkpt lat="47.29253" lon="-1.366">
        <ele>58</ele>
        <time>2022-07-24T08:16:00Z</time>
      </trkpt>
      <trkpt lat="47.29262" lon="-1.36582">
        <ele>58</ele>
        <time>2022-07-24T08:16:02Z</time>
      </trkpt>
      <trkpt lat="47.29271" lon="-1.36564">
        <ele>59</ele>
        <time>2022-07-24T08:16:04Z</time>
      </trkpt>
      <trkpt lat="47.2928" lon="-1.36546">
        <ele>59</ele>
        <time>2022-07-24T08:16:06Z</time>
      </trkpt>
      <trkpt lat="47.29289" lon="-1.36528">
        <ele>59</ele>
        <time>2022-07-24T08:16:08Z</time>
      </trkpt>
      <trkpt lat="47.29299" lon="-1.36511">
        <ele>59</ele>
        <time>2022-07-24T08:16:10Z</time>
      </trkpt>
      <trkpt lat="47.29308" lon="-1.36493">
        <ele>59</ele>
        <time>2022-07-24T08:16:12Z</time>
      </trkpt>
      <trkpt lat="47.29317" lon="-1.36475">
        <ele>59</ele>
        <time>2022-07-24T08:16:14Z</time>
      </trkpt>
      <trkpt lat="47.29326" lon="-1.36457">
        <ele>59</ele>
        <time>2022-07-24T08:16:16Z</time>
      </trkpt>
      <trkpt lat="47.29335" lon="-1.36439">
        <ele>59</ele>
        <time>2022-07-24T08:16:18Z</time>
      </trkpt>
      <trkpt lat="47.29344" lon="-1.36421">
        <ele>59</ele>
        <time>2022-07-24T08:16:20Z</time>
      </trkpt>
      <trkpt lat="47.29353" lon="-1.36403">
        <ele>59</ele>
        <time>2022-07-24T08:16:22Z</time>
      </trkpt>
      <trkpt lat="47.29362" lon="-1.36385">
        <ele>59</ele>
        <time>2022-07-24T08:16:24Z</time>
      </trkpt>
      <trkpt lat="47.29372" lon="-1.36368">
        <ele>59</ele>
        <time>2022-07-24T08:16:26Z</time>
      </trkpt>
      <trkpt lat="47.29381" lon="-1.3635">
        <ele>58</ele>
        <time>2022-07-24T08:16:28Z</time>
      </trkpt>
      <trkpt lat="47.2939" lon="-1.36333">
        <ele>58</ele>
        <time>2022-07-24T08:16:30Z</time>
      </trkpt>
      <trkpt lat="47.29399" lon="-1.36316">
        <ele>58</ele>
        <time>2022-07-24T08:16:32Z</time>
      </trkpt>
      <trkpt lat="47.29408" lon="-1.36298">
        <ele>58</ele>
        <time>2022-07-24T08:16:34Z</time>
      </trkpt>
      <trkpt lat="47.29417" lon="-1.3628">
        <ele>58</ele>
        <time>2022-07-24T08:16:36Z</time>
      </trkpt>
      <trkpt lat="47.29426" lon="-1.36263">
        <ele>58</ele>
        <time>2022-07-24T08:16:38Z</time>
      </trkpt>
      <trkpt lat="47.29435" lon="-1.36244">
        <ele>58</ele>
        <time>2022-07-24T08:16:40Z</time>
      </trkpt>
      <trkpt lat="47.29444" lon="-1.36227">
        <ele>58</ele>
        <time>2022-07-24T08:16:42Z</time>
      </trkpt>
      <trkpt lat="47.29453" lon="-1.36209">
        <ele>58</ele>
        <time>2022-07-24T08:16:44Z</time>
      </trkpt>
      <trkpt lat="47.29463" lon="-1.36191">
        <ele>58</ele>
        <time>2022-07-24T08:16:46Z</time>
      </trkpt>
      <trkpt lat="47.29472" lon="-1.36173">
        <ele>58</ele>
        <time>2022-07-24T08:16:48Z</time>
      </trkpt>
      <trkpt lat="47.29481" lon="-1.36156">
        <ele>58</ele>
        <time>2022-07-24T08:16:50Z</time>
      </trkpt>
      <trkpt lat="47.2949" lon="-1.36138">
        <ele>58</ele>
        <time>2022-07-24T08:16:52Z</time>
      </trkpt>
      <trkpt lat="47.295" lon="-1.3612">
        <ele>58</ele>
        <time>2022-07-24T08:16:54Z</time>
      </trkpt>
      <trkpt lat="47.29509" lon="-1.36103">
        <ele>58</ele>
        <time>2022-07-24T08:16:56Z</time>
      </trkpt>
      <trkpt lat="47.29518" lon="-1.36085">
        <ele>58</ele>
        <time>2022-07-24T08:16:58Z</time>
      </trkpt>
      <trkpt lat="47.29527" lon="-1.36067">
        <ele>58</ele>
        <time>2022-07-24T08:17:00Z</time>
      </trkpt>
      <trkpt lat="47.29537" lon="-1.36049">
        <ele>58</ele>
        <time>2022-07-24T08:17:02Z</time>
      </trkpt>
      <trkpt lat="47.29546" lon="-1.36031">
        <ele>58</ele>
        <time>2022-07-24T08:17:04Z</time>
      </trkpt>
      <trkpt lat="47.29555" lon="-1.36013">
        <ele>58</ele>
        <time>2022-07-24T08:17:06Z</time>
      </trkpt>
      <trkpt lat="47.29564" lon="-1.35995">
        <ele>58</ele>
        <time>2022-07-24T08:17:08Z</time>
      </trkpt>
      <trkpt lat="47.29573" lon="-1.35977">
        <ele>58</ele>
        <time>2022-07-24T08:17:10Z</time>
      </trkpt>
      <trkpt lat="47.29583" lon="-1.3596">
        <ele>58</ele>
        <time>2022-07-24T08:17:12Z</time>
      </trkpt>
      <trkpt lat="47.29592" lon="-1.35941">
        <ele>58</ele>
        <time>2022-07-24T08:17:14Z</time>
      </trkpt>
      <trkpt lat="47.29601" lon="-1.35923">
        <ele>58</ele>
        <time>2022-07-24T08:17:16Z</time>
      </trkpt>
      <trkpt lat="47.2961" lon="-1.35905">
        <ele>58</ele>
        <time>2022-07-24T08:17:18Z</time>
      </trkpt>
      <trkpt lat="47.29619" lon="-1.35887">
        <ele>58</ele>
        <time>2022-07-24T08:17:20Z</time>
      </trkpt>
      <trkpt lat="47.29629" lon="-1.35869">
        <ele>57</ele>
        <time>2022-07-24T08:17:22Z</time>
      </trkpt>
      <trkpt lat="47.29638" lon="-1.35851">
        <ele>57</ele>
        <time>2022-07-24T08:17:24Z</time>
      </trkpt>
      <trkpt lat="47.29648" lon="-1.35833">
        <ele>57</ele>
        <time>2022-07-24T08:17:26Z</time>
      </trkpt>
      <trkpt lat="47.29657" lon="-1.35815">
        <ele>57</ele>
        <time>2022-07-24T08:17:28Z</time>
      </trkpt>
      <trkpt lat="47.29666" lon="-1.35798">
        <ele>58</ele>
        <time>2022-07-24T08:17:30Z</time>
      </trkpt>
      <trkpt lat="47.29675" lon="-1.3578">
        <ele>57</ele>
        <time>2022-07-24T08:17:32Z</time>
      </trkpt>
      <trkpt lat="47.29684" lon="-1.35762">
        <ele>57</ele>
        <time>2022-07-24T08:17:34Z</time>
      </trkpt>
      <trkpt lat="47.29693" lon="-1.35744">
        <ele>57</ele>
        <time>2022-07-24T08:17:36Z</time>
      </trkpt>
      <trkpt lat="47.29702" lon="-1.35727">
        <ele>57</ele>
        <time>2022-07-24T08:17:38Z</time>
      </trkpt>
      <trkpt lat="47.29712" lon="-1.3571">
        <ele>57</ele>
        <time>2022-07-24T08:17:40Z</time>
      </trkpt>
      <trkpt lat="47.29721" lon="-1.35692">
        <ele>57</ele>
        <time>2022-07-24T08:17:42Z</time>
      </trkpt>
      <trkpt lat="47.2973" lon="-1.35674">
        <ele>57</ele>
        <time>2022-07-24T08:17:44Z</time>
      </trkpt>
      <trkpt lat="47.29739" lon="-1.35656">
        <ele>58</ele>
        <time>2022-07-24T08:17:46Z</time>
      </trkpt>
      <trkpt lat="47.29748" lon="-1.35639">
        <ele>57</ele>
        <time>2022-07-24T08:17:48Z</time>
      </trkpt>
      <trkpt lat="47.29757" lon="-1.35621">
        <ele>57</ele>
        <time>2022-07-24T08:17:50Z</time>
      </trkpt>
      <trkpt lat="47.29766" lon="-1.35604">
        <ele>57</ele>
        <time>2022-07-24T08:17:52Z</time>
      </trkpt>
      <trkpt lat="47.29775" lon="-1.35587">
        <ele>57</ele>
        <time>2022-07-24T08:17:54Z</time>
      </trkpt>
      <trkpt lat="47.29784" lon="-1.3557">
        <ele>57</ele>
        <time>2022-07-24T08:17:56Z</time>
      </trkpt>
      <trkpt lat="47.29792" lon="-1.35552">
        <ele>57</ele>
        <time>2022-07-24T08:17:58Z</time>
      </trkpt>
      <trkpt lat="47.29801" lon="-1.35535">
        <ele>57</ele>
        <time>2022-07-24T08:18:00Z</time>
      </trkpt>
      <trkpt lat="47.2981" lon="-1.35518">
        <ele>57</ele>
        <time>2022-07-24T08:18:02Z</time>
      </trkpt>
      <trkpt lat="47.29819" lon="-1.35501">
        <ele>57</ele>
        <time>2022-07-24T08:18:04Z</time>
      </trkpt>
      <trkpt lat="47.29828" lon="-1.35484">
        <ele>57</ele>
        <time>2022-07-24T08:18:06Z</time>
      </trkpt>
      <trkpt lat="47.29837" lon="-1.35467">
        <ele>57</ele>
        <time>2022-07-24T08:18:08Z</time>
      </trkpt>
      <trkpt lat="47.29845" lon="-1.3545">
        <ele>57</ele>
        <time>2022-07-24T08:18:10Z</time>
      </trkpt>
      <trkpt lat="47.29853" lon="-1.35434">
        <ele>57</ele>
        <time>2022-07-24T08:18:12Z</time>
      </trkpt>
      <trkpt lat="47.29862" lon="-1.35418">
        <ele>57</ele>
        <time>2022-07-24T08:18:14Z</time>
      </trkpt>
      <trkpt lat="47.2987" lon="-1.35402">
        <ele>57</ele>
        <time>2022-07-24T08:18:16Z</time>
      </trkpt>
      <trkpt lat="47.29879" lon="-1.35385">
        <ele>57</ele>
        <time>2022-07-24T08:18:18Z</time>
      </trkpt>
      <trkpt lat="47.29888" lon="-1.35368">
        <ele>58</ele>
        <time>2022-07-24T08:18:20Z</time>
      </trkpt>
      <trkpt lat="47.29897" lon="-1.35352">
        <ele>58</ele>
        <time>2022-07-24T08:18:22Z</time>
      </trkpt>
      <trkpt lat="47.29906" lon="-1.35335">
        <ele>58</ele>
        <time>2022-07-24T08:18:24Z</time>
      </trkpt>
      <trkpt lat="47.29914" lon="-1.35318">
        <ele>58</ele>
        <time>2022-07-24T08:18:26Z</time>
      </trkpt>
      <trkpt lat="47.29923" lon="-1.35301">
        <ele>58</ele>
        <time>2022-07-24T08:18:28Z</time>
      </trkpt>
      <trkpt lat="47.29932" lon="-1.35284">
        <ele>58</ele>
        <time>2022-07-24T08:18:30Z</time>
      </trkpt>
      <trkpt lat="47.29941" lon="-1.35266">
        <ele>58</ele>
        <time>2022-07-24T08:18:32Z</time>
      </trkpt>
      <trkpt lat="47.2995" lon="-1.35249">
        <ele>58</ele>
        <time>2022-07-24T08:18:34Z</time>
      </trkpt>
      <trkpt lat="47.29958" lon="-1.35232">
        <ele>58</ele>
        <time>2022-07-24T08:18:36Z</time>
      </trkpt>
      <trkpt lat="47.29967" lon="-1.35215">
        <ele>58</ele>
        <time>2022-07-24T08:18:38Z</time>
      </trkpt>
      <trkpt lat="47.29976" lon="-1.35198">
        <ele>58</ele>
        <time>2022-07-24T08:18:40Z</time>
      </trkpt>
      <trkpt lat="47.29985" lon="-1.35181">
        <ele>58</ele>
        <time>2022-07-24T08:18:42Z</time>
      </trkpt>
      <trkpt lat="47.29993" lon="-1.35164">
        <ele>58</ele>
        <time>2022-07-24T08:18:44Z</time>
      </trkpt>
      <trkpt lat="47.30002" lon="-1.35147">
        <ele>58</ele>
        <time>2022-07-24T08:18:46Z</time>
      </trkpt>
      <trkpt lat="47.30011" lon="-1.3513">
        <ele>58</ele>
        <time>2022-07-24T08:18:48Z</time>
      </trkpt>
      <trkpt lat="47.3002" lon="-1.35113">
        <ele>58</ele>
        <time>2022-07-24T08:18:50Z</time>
      </trkpt>
      <trkpt lat="47.30028" lon="-1.35095">
        <ele>58</ele>
        <time>2022-07-24T08:18:52Z</time>
      </trkpt>
      <trkpt lat="47.30036" lon="-1.35076">
        <ele>58</ele>
        <time>2022-07-24T08:18:54Z</time>
      </trkpt>
      <trkpt lat="47.30044" lon="-1.35057">
        <ele>58</ele>
        <time>2022-07-24T08:18:56Z</time>
      </trkpt>
      <trkpt lat="47.30051" lon="-1.35038">
        <ele>58</ele>
        <time>2022-07-24T08:18:58Z</time>
      </trkpt>
      <trkpt lat="47.30058" lon="-1.3502">
        <ele>58</ele>
        <time>2022-07-24T08:19:00Z</time>
      </trkpt>
      <trkpt lat="47.30064" lon="-1.35001">
        <ele>58</ele>
        <time>2022-07-24T08:19:02Z</time>
      </trkpt>
      <trkpt lat="47.3007" lon="-1.34981">
        <ele>57</ele>
        <time>2022-07-24T08:19:04Z</time>
      </trkpt>
      <trkpt lat="47.30075" lon="-1.34961">
        <ele>57</ele>
        <time>2022-07-24T08:19:06Z</time>
      </trkpt>
      <trkpt lat="47.3008" lon="-1.34942">
        <ele>57</ele>
        <time>2022-07-24T08:19:08Z</time>
      </trkpt>
      <trkpt lat="47.30084" lon="-1.34922">
        <ele>57</ele>
        <time>2022-07-24T08:19:10Z</time>
      </trkpt>
      <trkpt lat="47.30088" lon="-1.34901">
        <ele>57</ele>
        <time>2022-07-24T08:19:12Z</time>
      </trkpt>
      <trkpt lat="47.30092" lon="-1.34881">
        <ele>57</ele>
        <time>2022-07-24T08:19:14Z</time>
      </trkpt>
      <trkpt lat="47.30095" lon="-1.3486">
        <ele>57</ele>
        <time>2022-07-24T08:19:16Z</time>
      </trkpt>
      <trkpt lat="47.30097" lon="-1.34838">
        <ele>57</ele>
        <time>2022-07-24T08:19:18Z</time>
      </trkpt>
      <trkpt lat="47.30099" lon="-1.34815">
        <ele>57</ele>
        <time>2022-07-24T08:19:20Z</time>
      </trkpt>
      <trkpt lat="47.301" lon="-1.34793">
        <ele>57</ele>
        <time>2022-07-24T08:19:22Z</time>
      </trkpt>
      <trkpt lat="47.30101" lon="-1.34771">
        <ele>57</ele>
        <time>2022-07-24T08:19:24Z</time>
      </trkpt>
      <trkpt lat="47.30102" lon="-1.34749">
        <ele>58</ele>
        <time>2022-07-24T08:19:26Z</time>
      </trkpt>
      <trkpt lat="47.30102" lon="-1.34727">
        <ele>58</ele>
        <time>2022-07-24T08:19:28Z</time>
      </trkpt>
      <trkpt lat="47.30102" lon="-1.34706">
        <ele>58</ele>
        <time>2022-07-24T08:19:30Z</time>
      </trkpt>
      <trkpt lat="47.30101" lon="-1.34684">
        <ele>58</ele>
        <time>2022-07-24T08:19:32Z</time>
      </trkpt>
      <trkpt lat="47.30099" lon="-1.34663">
        <ele>58</ele>
        <time>2022-07-24T08:19:34Z</time>
      </trkpt>
      <trkpt lat="47.30097" lon="-1.34643">
        <ele>58</ele>
        <time>2022-07-24T08:19:36Z</time>
      </trkpt>
      <trkpt lat="47.30095" lon="-1.34626">
        <ele>59</ele>
        <time>2022-07-24T08:19:38Z</time>
      </trkpt>
      <trkpt lat="47.30093" lon="-1.3461">
        <ele>59</ele>
        <time>2022-07-24T08:19:40Z</time>
      </trkpt>
      <trkpt lat="47.30097" lon="-1.34598">
        <ele>59</ele>
        <time>2022-07-24T08:19:42Z</time>
      </trkpt>
      <trkpt lat="47.30101" lon="-1.34585">
        <ele>59</ele>
        <time>2022-07-24T08:19:44Z</time>
      </trkpt>
      <trkpt lat="47.30104" lon="-1.34569">
        <ele>58</ele>
        <time>2022-07-24T08:19:46Z</time>
      </trkpt>
      <trkpt lat="47.30106" lon="-1.34551">
        <ele>58</ele>
        <time>2022-07-24T08:19:48Z</time>
      </trkpt>
      <trkpt lat="47.30104" lon="-1.34535">
        <ele>58</ele>
        <time>2022-07-24T08:19:50Z</time>
      </trkpt>
      <trkpt lat="47.30097" lon="-1.34522">
        <ele>57</ele>
        <time>2022-07-24T08:19:52Z</time>
      </trkpt>
      <trkpt lat="47.30088" lon="-1.34507">
        <ele>58</ele>
        <time>2022-07-24T08:19:54Z</time>
      </trkpt>
      <trkpt lat="47.30081" lon="-1.34492">
        <ele>58</ele>
        <time>2022-07-24T08:19:56Z</time>
      </trkpt>
      <trkpt lat="47.30079" lon="-1.34474">
        <ele>58</ele>
        <time>2022-07-24T08:19:58Z</time>
      </trkpt>
      <trkpt lat="47.30075" lon="-1.34455">
        <ele>58</ele>
        <time>2022-07-24T08:20:00Z</time>
      </trkpt>
      <trkpt lat="47.30072" lon="-1.34435">
        <ele>58</ele>
        <time>2022-07-24T08:20:02Z</time>
      </trkpt>
      <trkpt lat="47.30068" lon="-1.34416">
        <ele>59</ele>
        <time>2022-07-24T08:20:04Z</time>
      </trkpt>
      <trkpt lat="47.30064" lon="-1.34395">
        <ele>59</ele>
        <time>2022-07-24T08:20:06Z</time>
      </trkpt>
      <trkpt lat="47.3006" lon="-1.34375">
        <ele>59</ele>
        <time>2022-07-24T08:20:08Z</time>
      </trkpt>
      <trkpt lat="47.30056" lon="-1.34356">
        <ele>59</ele>
        <time>2022-07-24T08:20:10Z</time>
      </trkpt>
      <trkpt lat="47.30052" lon="-1.34336">
        <ele>59</ele>
        <time>2022-07-24T08:20:12Z</time>
      </trkpt>
      <trkpt lat="47.30048" lon="-1.34317">
        <ele>59</ele>
        <time>2022-07-24T08:20:14Z</time>
      </trkpt>
      <trkpt lat="47.30045" lon="-1.34298">
        <ele>59</ele>
        <time>2022-07-24T08:20:16Z</time>
      </trkpt>
      <trkpt lat="47.30041" lon="-1.34279">
        <ele>59</ele>
        <time>2022-07-24T08:20:18Z</time>
      </trkpt>
      <trkpt lat="47.30038" lon="-1.3426">
        <ele>59</ele>
        <time>2022-07-24T08:20:20Z</time>
      </trkpt>
      <trkpt lat="47.30034" lon="-1.34241">
        <ele>59</ele>
        <time>2022-07-24T08:20:22Z</time>
      </trkpt>
      <trkpt lat="47.30031" lon="-1.34222">
        <ele>59</ele>
        <time>2022-07-24T08:20:24Z</time>
      </trkpt>
      <trkpt lat="47.30027" lon="-1.34203">
        <ele>59</ele>
        <time>2022-07-24T08:20:26Z</time>
      </trkpt>
      <trkpt lat="47.30023" lon="-1.34185">
        <ele>58</ele>
        <time>2022-07-24T08:20:28Z</time>
      </trkpt>
      <trkpt lat="47.30019" lon="-1.34166">
        <ele>58</ele>
        <time>2022-07-24T08:20:30Z</time>
      </trkpt>
      <trkpt lat="47.30015" lon="-1.34148">
        <ele>58</ele>
        <time>2022-07-24T08:20:32Z</time>
      </trkpt>
      <trkpt lat="47.30016" lon="-1.34131">
        <ele>58</ele>
        <time>2022-07-24T08:20:34Z</time>
      </trkpt>
      <trkpt lat="47.30023" lon="-1.34116">
        <ele>58</ele>
        <time>2022-07-24T08:20:36Z</time>
      </trkpt>
      <trkpt lat="47.30035" lon="-1.34108">
        <ele>57</ele>
        <time>2022-07-24T08:20:38Z</time>
      </trkpt>
      <trkpt lat="47.30047" lon="-1.34102">
        <ele>57</ele>
        <time>2022-07-24T08:20:40Z</time>
      </trkpt>
      <trkpt lat="47.30059" lon="-1.34101">
        <ele>56</ele>
        <time>2022-07-24T08:20:42Z</time>
      </trkpt>
      <trkpt lat="47.3007" lon="-1.3411">
        <ele>56</ele>
        <time>2022-07-24T08:20:44Z</time>
      </trkpt>
      <trkpt lat="47.30078" lon="-1.3412">
        <ele>55</ele>
        <time>2022-07-24T08:20:46Z</time>
      </trkpt>
      <trkpt lat="47.30086" lon="-1.34129">
        <ele>55</ele>
        <time>2022-07-24T08:20:48Z</time>
      </trkpt>
      <trkpt lat="47.30093" lon="-1.34138">
        <ele>55</ele>
        <time>2022-07-24T08:20:50Z</time>
      </trkpt>
      <trkpt lat="47.30103" lon="-1.34141">
        <ele>55</ele>
        <time>2022-07-24T08:20:53Z</time>
      </trkpt>
      <trkpt lat="47.30106" lon="-1.34129">
        <ele>56</ele>
        <time>2022-07-24T08:20:55Z</time>
      </trkpt>
      <trkpt lat="47.3011" lon="-1.34113">
        <ele>57</ele>
        <time>2022-07-24T08:20:57Z</time>
      </trkpt>
      <trkpt lat="47.30115" lon="-1.34097">
        <ele>58</ele>
        <time>2022-07-24T08:20:59Z</time>
      </trkpt>
      <trkpt lat="47.30121" lon="-1.34082">
        <ele>58</ele>
        <time>2022-07-24T08:21:01Z</time>
      </trkpt>
      <trkpt lat="47.30131" lon="-1.34069">
        <ele>59</ele>
        <time>2022-07-24T08:21:03Z</time>
      </trkpt>
      <trkpt lat="47.30142" lon="-1.3406">
        <ele>59</ele>
        <time>2022-07-24T08:21:05Z</time>
      </trkpt>
      <trkpt lat="47.30153" lon="-1.3405">
        <ele>60</ele>
        <time>2022-07-24T08:21:07Z</time>
      </trkpt>
      <trkpt lat="47.30164" lon="-1.34039">
        <ele>60</ele>
        <time>2022-07-24T08:21:09Z</time>
      </trkpt>
      <trkpt lat="47.30174" lon="-1.34027">
        <ele>60</ele>
        <time>2022-07-24T08:21:11Z</time>
      </trkpt>
      <trkpt lat="47.30185" lon="-1.34017">
        <ele>61</ele>
        <time>2022-07-24T08:21:13Z</time>
      </trkpt>
      <trkpt lat="47.30196" lon="-1.34006">
        <ele>61</ele>
        <time>2022-07-24T08:21:15Z</time>
      </trkpt>
      <trkpt lat="47.30206" lon="-1.33996">
        <ele>61</ele>
        <time>2022-07-24T08:21:17Z</time>
      </trkpt>
      <trkpt lat="47.30214" lon="-1.33991">
        <ele>61</ele>
        <time>2022-07-24T08:21:19Z</time>
      </trkpt>
      <trkpt lat="47.30223" lon="-1.33999">
        <ele>61</ele>
        <time>2022-07-24T08:21:22Z</time>
      </trkpt>
      <trkpt lat="47.30227" lon="-1.34016">
        <ele>62</ele>
        <time>2022-07-24T08:21:24Z</time>
      </trkpt>
      <trkpt lat="47.30232" lon="-1.34034">
        <ele>62</ele>
        <time>2022-07-24T08:21:26Z</time>
      </trkpt>
      <trkpt lat="47.30237" lon="-1.34051">
        <ele>62</ele>
        <time>2022-07-24T08:21:28Z</time>
      </trkpt>
      <trkpt lat="47.30243" lon="-1.34068">
        <ele>61</ele>
        <time>2022-07-24T08:21:30Z</time>
      </trkpt>
      <trkpt lat="47.30249" lon="-1.34084">
        <ele>61</ele>
        <time>2022-07-24T08:21:32Z</time>
      </trkpt>
      <trkpt lat="47.30255" lon="-1.34098">
        <ele>59</ele>
        <time>2022-07-24T08:21:34Z</time>
      </trkpt>
      <trkpt lat="47.30266" lon="-1.34102">
        <ele>58</ele>
        <time>2022-07-24T08:21:37Z</time>
      </trkpt>
      <trkpt lat="47.30275" lon="-1.34091">
        <ele>58</ele>
        <time>2022-07-24T08:21:40Z</time>
      </trkpt>
      <trkpt lat="47.30284" lon="-1.3408">
        <ele>58</ele>
        <time>2022-07-24T08:21:42Z</time>
      </trkpt>
      <trkpt lat="47.30295" lon="-1.34069">
        <ele>58</ele>
        <time>2022-07-24T08:21:44Z</time>
      </trkpt>
      <trkpt lat="47.30306" lon="-1.34057">
        <ele>59</ele>
        <time>2022-07-24T08:21:46Z</time>
      </trkpt>
      <trkpt lat="47.30316" lon="-1.34044">
        <ele>59</ele>
        <time>2022-07-24T08:21:48Z</time>
      </trkpt>
      <trkpt lat="47.30324" lon="-1.34031">
        <ele>60</ele>
        <time>2022-07-24T08:21:50Z</time>
      </trkpt>
      <trkpt lat="47.30332" lon="-1.34017">
        <ele>60</ele>
        <time>2022-07-24T08:21:52Z</time>
      </trkpt>
      <trkpt lat="47.3034" lon="-1.34005">
        <ele>60</ele>
        <time>2022-07-24T08:21:54Z</time>
      </trkpt>
      <trkpt lat="47.30348" lon="-1.33993">
        <ele>60</ele>
        <time>2022-07-24T08:21:56Z</time>
      </trkpt>
      <trkpt lat="47.30355" lon="-1.33978">
        <ele>59</ele>
        <time>2022-07-24T08:21:58Z</time>
      </trkpt>
      <trkpt lat="47.3036" lon="-1.33966">
        <ele>60</ele>
        <time>2022-07-24T08:22:00Z</time>
      </trkpt>
      <trkpt lat="47.30369" lon="-1.3396">
        <ele>59</ele>
        <time>2022-07-24T08:22:02Z</time>
      </trkpt>
      <trkpt lat="47.3038" lon="-1.33956">
        <ele>59</ele>
        <time>2022-07-24T08:22:04Z</time>
      </trkpt>
      <trkpt lat="47.30389" lon="-1.33945">
        <ele>59</ele>
        <time>2022-07-24T08:22:06Z</time>
      </trkpt>
      <trkpt lat="47.30397" lon="-1.33934">
        <ele>59</ele>
        <time>2022-07-24T08:22:08Z</time>
      </trkpt>
      <trkpt lat="47.30405" lon="-1.33921">
        <ele>59</ele>
        <time>2022-07-24T08:22:10Z</time>
      </trkpt>
      <trkpt lat="47.30414" lon="-1.33907">
        <ele>59</ele>
        <time>2022-07-24T08:22:12Z</time>
      </trkpt>
      <trkpt lat="47.30423" lon="-1.33896">
        <ele>60</ele>
        <time>2022-07-24T08:22:14Z</time>
      </trkpt>
      <trkpt lat="47.30434" lon="-1.33885">
        <ele>60</ele>
        <time>2022-07-24T08:22:16Z</time>
      </trkpt>
      <trkpt lat="47.30444" lon="-1.33874">
        <ele>60</ele>
        <time>2022-07-24T08:22:18Z</time>
      </trkpt>
      <trkpt lat="47.30454" lon="-1.33865">
        <ele>59</ele>
        <time>2022-07-24T08:22:20Z</time>
      </trkpt>
      <trkpt lat="47.30465" lon="-1.33854">
        <ele>60</ele>
        <time>2022-07-24T08:22:22Z</time>
      </trkpt>
      <trkpt lat="47.30476" lon="-1.33844">
        <ele>60</ele>
        <time>2022-07-24T08:22:24Z</time>
      </trkpt>
      <trkpt lat="47.30488" lon="-1.33833">
        <ele>59</ele>
        <time>2022-07-24T08:22:26Z</time>
      </trkpt>
      <trkpt lat="47.305" lon="-1.33823">
        <ele>58</ele>
        <time>2022-07-24T08:22:28Z</time>
      </trkpt>
      <trkpt lat="47.30512" lon="-1.33815">
        <ele>58</ele>
        <time>2022-07-24T08:22:30Z</time>
      </trkpt>
      <trkpt lat="47.30524" lon="-1.33807">
        <ele>57</ele>
        <time>2022-07-24T08:22:32Z</time>
      </trkpt>
      <trkpt lat="47.30537" lon="-1.33799">
        <ele>57</ele>
        <time>2022-07-24T08:22:34Z</time>
      </trkpt>
      <trkpt lat="47.3055" lon="-1.33791">
        <ele>57</ele>
        <time>2022-07-24T08:22:36Z</time>
      </trkpt>
      <trkpt lat="47.30562" lon="-1.33784">
        <ele>56</ele>
        <time>2022-07-24T08:22:38Z</time>
      </trkpt>
      <trkpt lat="47.30576" lon="-1.33778">
        <ele>56</ele>
        <time>2022-07-24T08:22:40Z</time>
      </trkpt>
      <trkpt lat="47.30588" lon="-1.33773">
        <ele>56</ele>
        <time>2022-07-24T08:22:42Z</time>
      </trkpt>
      <trkpt lat="47.30601" lon="-1.3377">
        <ele>56</ele>
        <time>2022-07-24T08:22:44Z</time>
      </trkpt>
      <trkpt lat="47.30614" lon="-1.33766">
        <ele>56</ele>
        <time>2022-07-24T08:22:46Z</time>
      </trkpt>
      <trkpt lat="47.30626" lon="-1.33763">
        <ele>57</ele>
        <time>2022-07-24T08:22:48Z</time>
      </trkpt>
      <trkpt lat="47.30638" lon="-1.33758">
        <ele>57</ele>
        <time>2022-07-24T08:22:50Z</time>
      </trkpt>
      <trkpt lat="47.3065" lon="-1.33753">
        <ele>57</ele>
        <time>2022-07-24T08:22:52Z</time>
      </trkpt>
      <trkpt lat="47.30661" lon="-1.33747">
        <ele>57</ele>
        <time>2022-07-24T08:22:54Z</time>
      </trkpt>
      <trkpt lat="47.30673" lon="-1.33739">
        <ele>58</ele>
        <time>2022-07-24T08:22:56Z</time>
      </trkpt>
      <trkpt lat="47.30683" lon="-1.33729">
        <ele>57</ele>
        <time>2022-07-24T08:22:58Z</time>
      </trkpt>
      <trkpt lat="47.30693" lon="-1.33718">
        <ele>57</ele>
        <time>2022-07-24T08:23:00Z</time>
      </trkpt>
      <trkpt lat="47.30701" lon="-1.33703">
        <ele>56</ele>
        <time>2022-07-24T08:23:02Z</time>
      </trkpt>
      <trkpt lat="47.30709" lon="-1.33687">
        <ele>56</ele>
        <time>2022-07-24T08:23:04Z</time>
      </trkpt>
      <trkpt lat="47.30716" lon="-1.3367">
        <ele>56</ele>
        <time>2022-07-24T08:23:06Z</time>
      </trkpt>
      <trkpt lat="47.30721" lon="-1.33653">
        <ele>55</ele>
        <time>2022-07-24T08:23:08Z</time>
      </trkpt>
      <trkpt lat="47.30724" lon="-1.33633">
        <ele>55</ele>
        <time>2022-07-24T08:23:10Z</time>
      </trkpt>
      <trkpt lat="47.3072" lon="-1.33614">
        <ele>56</ele>
        <time>2022-07-24T08:23:12Z</time>
      </trkpt>
      <trkpt lat="47.30714" lon="-1.33597">
        <ele>56</ele>
        <time>2022-07-24T08:23:14Z</time>
      </trkpt>
      <trkpt lat="47.30709" lon="-1.3358">
        <ele>56</ele>
        <time>2022-07-24T08:23:16Z</time>
      </trkpt>
      <trkpt lat="47.30703" lon="-1.33564">
        <ele>56</ele>
        <time>2022-07-24T08:23:18Z</time>
      </trkpt>
      <trkpt lat="47.30698" lon="-1.33547">
        <ele>56</ele>
        <time>2022-07-24T08:23:20Z</time>
      </trkpt>
      <trkpt lat="47.30692" lon="-1.33531">
        <ele>56</ele>
        <time>2022-07-24T08:23:22Z</time>
      </trkpt>
      <trkpt lat="47.30687" lon="-1.33515">
        <ele>56</ele>
        <time>2022-07-24T08:23:24Z</time>
      </trkpt>
      <trkpt lat="47.30681" lon="-1.33499">
        <ele>57</ele>
        <time>2022-07-24T08:23:26Z</time>
      </trkpt>
      <trkpt lat="47.30676" lon="-1.33482">
        <ele>57</ele>
        <time>2022-07-24T08:23:28Z</time>
      </trkpt>
      <trkpt lat="47.3067" lon="-1.33466">
        <ele>56</ele>
        <time>2022-07-24T08:23:30Z</time>
      </trkpt>
      <trkpt lat="47.30665" lon="-1.33449">
        <ele>56</ele>
        <time>2022-07-24T08:23:32Z</time>
      </trkpt>
      <trkpt lat="47.30659" lon="-1.33432">
        <ele>56</ele>
        <time>2022-07-24T08:23:34Z</time>
      </trkpt>
      <trkpt lat="47.30654" lon="-1.33416">
        <ele>57</ele>
        <time>2022-07-24T08:23:36Z</time>
      </trkpt>
      <trkpt lat="47.30648" lon="-1.33399">
        <ele>57</ele>
        <time>2022-07-24T08:23:38Z</time>
      </trkpt>
      <trkpt lat="47.30642" lon="-1.33383">
        <ele>57</ele>
        <time>2022-07-24T08:23:40Z</time>
      </trkpt>
      <trkpt lat="47.30636" lon="-1.33366">
        <ele>57</ele>
        <time>2022-07-24T08:23:42Z</time>
      </trkpt>
      <trkpt lat="47.30629" lon="-1.33351">
        <ele>57</ele>
        <time>2022-07-24T08:23:44Z</time>
      </trkpt>
      <trkpt lat="47.30623" lon="-1.33336">
        <ele>57</ele>
        <time>2022-07-24T08:23:46Z</time>
      </trkpt>
      <trkpt lat="47.30617" lon="-1.33319">
        <ele>57</ele>
        <time>2022-07-24T08:23:48Z</time>
      </trkpt>
      <trkpt lat="47.30612" lon="-1.33303">
        <ele>56</ele>
        <time>2022-07-24T08:23:50Z</time>
      </trkpt>
      <trkpt lat="47.30611" lon="-1.33284">
        <ele>56</ele>
        <time>2022-07-24T08:23:52Z</time>
      </trkpt>
      <trkpt lat="47.30614" lon="-1.33266">
        <ele>56</ele>
        <time>2022-07-24T08:23:54Z</time>
      </trkpt>
      <trkpt lat="47.3062" lon="-1.3325">
        <ele>56</ele>
        <time>2022-07-24T08:23:56Z</time>
      </trkpt>
      <trkpt lat="47.30629" lon="-1.33236">
        <ele>56</ele>
        <time>2022-07-24T08:23:58Z</time>
      </trkpt>
      <trkpt lat="47.30641" lon="-1.33226">
        <ele>56</ele>
        <time>2022-07-24T08:24:00Z</time>
      </trkpt>
      <trkpt lat="47.30653" lon="-1.33221">
        <ele>56</ele>
        <time>2022-07-24T08:24:02Z</time>
      </trkpt>
      <trkpt lat="47.30666" lon="-1.33218">
        <ele>55</ele>
        <time>2022-07-24T08:24:04Z</time>
      </trkpt>
      <trkpt lat="47.30679" lon="-1.33213">
        <ele>55</ele>
        <time>2022-07-24T08:24:06Z</time>
      </trkpt>
      <trkpt lat="47.30692" lon="-1.33209">
        <ele>54</ele>
        <time>2022-07-24T08:24:08Z</time>
      </trkpt>
      <trkpt lat="47.30705" lon="-1.33204">
        <ele>54</ele>
        <time>2022-07-24T08:24:10Z</time>
      </trkpt>
      <trkpt lat="47.30718" lon="-1.33199">
        <ele>54</ele>
        <time>2022-07-24T08:24:12Z</time>
      </trkpt>
      <trkpt lat="47.30731" lon="-1.33194">
        <ele>54</ele>
        <time>2022-07-24T08:24:14Z</time>
      </trkpt>
      <trkpt lat="47.30744" lon="-1.33189">
        <ele>54</ele>
        <time>2022-07-24T08:24:16Z</time>
      </trkpt>
      <trkpt lat="47.30757" lon="-1.33183">
        <ele>54</ele>
        <time>2022-07-24T08:24:18Z</time>
      </trkpt>
      <trkpt lat="47.3077" lon="-1.33178">
        <ele>55</ele>
        <time>2022-07-24T08:24:20Z</time>
      </trkpt>
      <trkpt lat="47.30783" lon="-1.33173">
        <ele>55</ele>
        <time>2022-07-24T08:24:22Z</time>
      </trkpt>
      <trkpt lat="47.30796" lon="-1.33168">
        <ele>55</ele>
        <time>2022-07-24T08:24:24Z</time>
      </trkpt>
      <trkpt lat="47.30809" lon="-1.33162">
        <ele>56</ele>
        <time>2022-07-24T08:24:26Z</time>
      </trkpt>
      <trkpt lat="47.30822" lon="-1.33157">
        <ele>56</ele>
        <time>2022-07-24T08:24:28Z</time>
      </trkpt>
      <trkpt lat="47.30835" lon="-1.33151">
        <ele>56</ele>
        <time>2022-07-24T08:24:30Z</time>
      </trkpt>
      <trkpt lat="47.30847" lon="-1.33146">
        <ele>57</ele>
        <time>2022-07-24T08:24:32Z</time>
      </trkpt>
      <trkpt lat="47.3086" lon="-1.3314">
        <ele>57</ele>
        <time>2022-07-24T08:24:34Z</time>
      </trkpt>
      <trkpt lat="47.30874" lon="-1.33134">
        <ele>57</ele>
        <time>2022-07-24T08:24:36Z</time>
      </trkpt>
      <trkpt lat="47.30887" lon="-1.33129">
        <ele>58</ele>
        <time>2022-07-24T08:24:38Z</time>
      </trkpt>
      <trkpt lat="47.30899" lon="-1.33124">
        <ele>58</ele>
        <time>2022-07-24T08:24:40Z</time>
      </trkpt>
      <trkpt lat="47.30912" lon="-1.33119">
        <ele>58</ele>
        <time>2022-07-24T08:24:42Z</time>
      </trkpt>
      <trkpt lat="47.30924" lon="-1.33113">
        <ele>57</ele>
        <time>2022-07-24T08:24:44Z</time>
      </trkpt>
      <trkpt lat="47.30937" lon="-1.33107">
        <ele>57</ele>
        <time>2022-07-24T08:24:46Z</time>
      </trkpt>
      <trkpt lat="47.30949" lon="-1.33102">
        <ele>56</ele>
        <time>2022-07-24T08:24:48Z</time>
      </trkpt>
      <trkpt lat="47.30962" lon="-1.33097">
        <ele>56</ele>
        <time>2022-07-24T08:24:50Z</time>
      </trkpt>
      <trkpt lat="47.30974" lon="-1.33091">
        <ele>56</ele>
        <time>2022-07-24T08:24:52Z</time>
      </trkpt>
      <trkpt lat="47.30987" lon="-1.33086">
        <ele>56</ele>
        <time>2022-07-24T08:24:54Z</time>
      </trkpt>
      <trkpt lat="47.31" lon="-1.33081">
        <ele>56</ele>
        <time>2022-07-24T08:24:56Z</time>
      </trkpt>
      <trkpt lat="47.31012" lon="-1.33076">
        <ele>56</ele>
        <time>2022-07-24T08:24:58Z</time>
      </trkpt>
      <trkpt lat="47.31025" lon="-1.33071">
        <ele>56</ele>
        <time>2022-07-24T08:25:00Z</time>
      </trkpt>
      <trkpt lat="47.31037" lon="-1.33065">
        <ele>56</ele>
        <time>2022-07-24T08:25:02Z</time>
      </trkpt>
      <trkpt lat="47.3105" lon="-1.33059">
        <ele>57</ele>
        <time>2022-07-24T08:25:04Z</time>
      </trkpt>
      <trkpt lat="47.31063" lon="-1.33054">
        <ele>57</ele>
        <time>2022-07-24T08:25:06Z</time>
      </trkpt>
      <trkpt lat="47.31075" lon="-1.33049">
        <ele>56</ele>
        <time>2022-07-24T08:25:08Z</time>
      </trkpt>
      <trkpt lat="47.31087" lon="-1.33043">
        <ele>57</ele>
        <time>2022-07-24T08:25:10Z</time>
      </trkpt>
      <trkpt lat="47.311" lon="-1.33038">
        <ele>57</ele>
        <time>2022-07-24T08:25:12Z</time>
      </trkpt>
      <trkpt lat="47.31113" lon="-1.33033">
        <ele>57</ele>
        <time>2022-07-24T08:25:14Z</time>
      </trkpt>
      <trkpt lat="47.31126" lon="-1.33028">
        <ele>57</ele>
        <time>2022-07-24T08:25:16Z</time>
      </trkpt>
      <trkpt lat="47.31138" lon="-1.33023">
        <ele>57</ele>
        <time>2022-07-24T08:25:18Z</time>
      </trkpt>
      <trkpt lat="47.31151" lon="-1.33019">
        <ele>57</ele>
        <time>2022-07-24T08:25:20Z</time>
      </trkpt>
      <trkpt lat="47.31164" lon="-1.33014">
        <ele>57</ele>
        <time>2022-07-24T08:25:22Z</time>
      </trkpt>
      <trkpt lat="47.31177" lon="-1.3301">
        <ele>57</ele>
        <time>2022-07-24T08:25:24Z</time>
      </trkpt>
      <trkpt lat="47.31189" lon="-1.33004">
        <ele>57</ele>
        <time>2022-07-24T08:25:26Z</time>
      </trkpt>
      <trkpt lat="47.31202" lon="-1.32999">
        <ele>58</ele>
        <time>2022-07-24T08:25:28Z</time>
      </trkpt>
      <trkpt lat="47.31215" lon="-1.32994">
        <ele>58</ele>
        <time>2022-07-24T08:25:30Z</time>
      </trkpt>
      <trkpt lat="47.31228" lon="-1.32988">
        <ele>57</ele>
        <time>2022-07-24T08:25:32Z</time>
      </trkpt>
      <trkpt lat="47.3124" lon="-1.32981">
        <ele>57</ele>
        <time>2022-07-24T08:25:34Z</time>
      </trkpt>
      <trkpt lat="47.31252" lon="-1.32973">
        <ele>57</ele>
        <time>2022-07-24T08:25:36Z</time>
      </trkpt>
      <trkpt lat="47.31263" lon="-1.32964">
        <ele>57</ele>
        <time>2022-07-24T08:25:38Z</time>
      </trkpt>
      <trkpt lat="47.31274" lon="-1.32955">
        <ele>57</ele>
        <time>2022-07-24T08:25:40Z</time>
      </trkpt>
      <trkpt lat="47.31285" lon="-1.32946">
        <ele>57</ele>
        <time>2022-07-24T08:25:42Z</time>
      </trkpt>
      <trkpt lat="47.31296" lon="-1.32937">
        <ele>57</ele>
        <time>2022-07-24T08:25:44Z</time>
      </trkpt>
      <trkpt lat="47.31308" lon="-1.32926">
        <ele>58</ele>
        <time>2022-07-24T08:25:46Z</time>
      </trkpt>
      <trkpt lat="47.31319" lon="-1.32916">
        <ele>58</ele>
        <time>2022-07-24T08:25:48Z</time>
      </trkpt>
      <trkpt lat="47.3133" lon="-1.32907">
        <ele>58</ele>
        <time>2022-07-24T08:25:50Z</time>
      </trkpt>
      <trkpt lat="47.31341" lon="-1.32898">
        <ele>58</ele>
        <time>2022-07-24T08:25:52Z</time>
      </trkpt>
      <trkpt lat="47.31352" lon="-1.32888">
        <ele>58</ele>
        <time>2022-07-24T08:25:54Z</time>
      </trkpt>
      <trkpt lat="47.31363" lon="-1.32879">
        <ele>58</ele>
        <time>2022-07-24T08:25:56Z</time>
      </trkpt>
      <trkpt lat="47.31373" lon="-1.3287">
        <ele>58</ele>
        <time>2022-07-24T08:25:58Z</time>
      </trkpt>
      <trkpt lat="47.31385" lon="-1.3286">
        <ele>58</ele>
        <time>2022-07-24T08:26:00Z</time>
      </trkpt>
      <trkpt lat="47.31396" lon="-1.32851">
        <ele>58</ele>
        <time>2022-07-24T08:26:02Z</time>
      </trkpt>
      <trkpt lat="47.31408" lon="-1.32841">
        <ele>58</ele>
        <time>2022-07-24T08:26:04Z</time>
      </trkpt>
      <trkpt lat="47.31419" lon="-1.32832">
        <ele>57</ele>
        <time>2022-07-24T08:26:06Z</time>
      </trkpt>
      <trkpt lat="47.31429" lon="-1.32823">
        <ele>57</ele>
        <time>2022-07-24T08:26:08Z</time>
      </trkpt>
      <trkpt lat="47.3144" lon="-1.32814">
        <ele>57</ele>
        <time>2022-07-24T08:26:10Z</time>
      </trkpt>
      <trkpt lat="47.31451" lon="-1.32805">
        <ele>57</ele>
        <time>2022-07-24T08:26:12Z</time>
      </trkpt>
      <trkpt lat="47.31463" lon="-1.32797">
        <ele>57</ele>
        <time>2022-07-24T08:26:14Z</time>
      </trkpt>
      <trkpt lat="47.31474" lon="-1.32788">
        <ele>58</ele>
        <time>2022-07-24T08:26:16Z</time>
      </trkpt>
      <trkpt lat="47.31484" lon="-1.32778">
        <ele>58</ele>
        <time>2022-07-24T08:26:18Z</time>
      </trkpt>
      <trkpt lat="47.31495" lon="-1.32766">
        <ele>59</ele>
        <time>2022-07-24T08:26:20Z</time>
      </trkpt>
      <trkpt lat="47.31504" lon="-1.32755">
        <ele>59</ele>
        <time>2022-07-24T08:26:22Z</time>
      </trkpt>
      <trkpt lat="47.31514" lon="-1.32744">
        <ele>59</ele>
        <time>2022-07-24T08:26:24Z</time>
      </trkpt>
      <trkpt lat="47.31523" lon="-1.32733">
        <ele>59</ele>
        <time>2022-07-24T08:26:26Z</time>
      </trkpt>
      <trkpt lat="47.31533" lon="-1.32722">
        <ele>59</ele>
        <time>2022-07-24T08:26:28Z</time>
      </trkpt>
      <trkpt lat="47.31542" lon="-1.3271">
        <ele>59</ele>
        <time>2022-07-24T08:26:30Z</time>
      </trkpt>
      <trkpt lat="47.31552" lon="-1.32698">
        <ele>60</ele>
        <time>2022-07-24T08:26:32Z</time>
      </trkpt>
      <trkpt lat="47.31562" lon="-1.32686">
        <ele>60</ele>
        <time>2022-07-24T08:26:34Z</time>
      </trkpt>
      <trkpt lat="47.31572" lon="-1.32675">
        <ele>61</ele>
        <time>2022-07-24T08:26:36Z</time>
      </trkpt>
      <trkpt lat="47.31582" lon="-1.32661">
        <ele>60</ele>
        <time>2022-07-24T08:26:38Z</time>
      </trkpt>
      <trkpt lat="47.31593" lon="-1.32647">
        <ele>60</ele>
        <time>2022-07-24T08:26:40Z</time>
      </trkpt>
      <trkpt lat="47.31602" lon="-1.32633">
        <ele>60</ele>
        <time>2022-07-24T08:26:42Z</time>
      </trkpt>
      <trkpt lat="47.31612" lon="-1.32619">
        <ele>61</ele>
        <time>2022-07-24T08:26:44Z</time>
      </trkpt>
      <trkpt lat="47.31621" lon="-1.32604">
        <ele>60</ele>
        <time>2022-07-24T08:26:46Z</time>
      </trkpt>
      <trkpt lat="47.31629" lon="-1.32589">
        <ele>60</ele>
        <time>2022-07-24T08:26:48Z</time>
      </trkpt>
      <trkpt lat="47.31637" lon="-1.32575">
        <ele>60</ele>
        <time>2022-07-24T08:26:50Z</time>
      </trkpt>
      <trkpt lat="47.31644" lon="-1.32562">
        <ele>60</ele>
        <time>2022-07-24T08:26:52Z</time>
      </trkpt>
      <trkpt lat="47.31651" lon="-1.32548">
        <ele>60</ele>
        <time>2022-07-24T08:26:54Z</time>
      </trkpt>
      <trkpt lat="47.31659" lon="-1.32533">
        <ele>59</ele>
        <time>2022-07-24T08:26:56Z</time>
      </trkpt>
      <trkpt lat="47.31667" lon="-1.32517">
        <ele>59</ele>
        <time>2022-07-24T08:26:58Z</time>
      </trkpt>
      <trkpt lat="47.31674" lon="-1.325">
        <ele>59</ele>
        <time>2022-07-24T08:27:00Z</time>
      </trkpt>
      <trkpt lat="47.3168" lon="-1.32482">
        <ele>59</ele>
        <time>2022-07-24T08:27:02Z</time>
      </trkpt>
      <trkpt lat="47.31684" lon="-1.32461">
        <ele>60</ele>
        <time>2022-07-24T08:27:04Z</time>
      </trkpt>
      <trkpt lat="47.31686" lon="-1.32441">
        <ele>59</ele>
        <time>2022-07-24T08:27:06Z</time>
      </trkpt>
      <trkpt lat="47.31687" lon="-1.32422">
        <ele>59</ele>
        <time>2022-07-24T08:27:08Z</time>
      </trkpt>
      <trkpt lat="47.31689" lon="-1.32404">
        <ele>59</ele>
        <time>2022-07-24T08:27:10Z</time>
      </trkpt>
      <trkpt lat="47.3169" lon="-1.32386">
        <ele>59</ele>
        <time>2022-07-24T08:27:12Z</time>
      </trkpt>
      <trkpt lat="47.31693" lon="-1.32368">
        <ele>59</ele>
        <time>2022-07-24T08:27:14Z</time>
      </trkpt>
      <trkpt lat="47.31696" lon="-1.3235">
        <ele>59</ele>
        <time>2022-07-24T08:27:16Z</time>
      </trkpt>
      <trkpt lat="47.31699" lon="-1.32331">
        <ele>59</ele>
        <time>2022-07-24T08:27:18Z</time>
      </trkpt>
      <trkpt lat="47.31703" lon="-1.32313">
        <ele>59</ele>
        <time>2022-07-24T08:27:20Z</time>
      </trkpt>
      <trkpt lat="47.31707" lon="-1.32294">
        <ele>59</ele>
        <time>2022-07-24T08:27:22Z</time>
      </trkpt>
      <trkpt lat="47.3171" lon="-1.32277">
        <ele>59</ele>
        <time>2022-07-24T08:27:24Z</time>
      </trkpt>
      <trkpt lat="47.31713" lon="-1.32264">
        <ele>59</ele>
        <time>2022-07-24T08:27:26Z</time>
      </trkpt>
      <trkpt lat="47.31717" lon="-1.32247">
        <ele>59</ele>
        <time>2022-07-24T08:27:29Z</time>
      </trkpt>
      <trkpt lat="47.3172" lon="-1.32228">
        <ele>59</ele>
        <time>2022-07-24T08:27:32Z</time>
      </trkpt>
      <trkpt lat="47.31721" lon="-1.32213">
        <ele>59</ele>
        <time>2022-07-24T08:27:34Z</time>
      </trkpt>
      <trkpt lat="47.31723" lon="-1.32198">
        <ele>59</ele>
        <time>2022-07-24T08:27:36Z</time>
      </trkpt>
      <trkpt lat="47.31725" lon="-1.32182">
        <ele>59</ele>
        <time>2022-07-24T08:27:38Z</time>
      </trkpt>
      <trkpt lat="47.31728" lon="-1.32165">
        <ele>59</ele>
        <time>2022-07-24T08:27:40Z</time>
      </trkpt>
      <trkpt lat="47.3173" lon="-1.32152">
        <ele>59</ele>
        <time>2022-07-24T08:27:42Z</time>
      </trkpt>
      <trkpt lat="47.31732" lon="-1.32139">
        <ele>59</ele>
        <time>2022-07-24T08:27:45Z</time>
      </trkpt>
      <trkpt lat="47.31737" lon="-1.32124">
        <ele>60</ele>
        <time>2022-07-24T08:27:48Z</time>
      </trkpt>
      <trkpt lat="47.31742" lon="-1.32112">
        <ele>60</ele>
        <time>2022-07-24T08:27:50Z</time>
      </trkpt>
      <trkpt lat="47.31747" lon="-1.321">
        <ele>60</ele>
        <time>2022-07-24T08:27:52Z</time>
      </trkpt>
      <trkpt lat="47.31751" lon="-1.32088">
        <ele>61</ele>
        <time>2022-07-24T08:27:57Z</time>
      </trkpt>
      <trkpt lat="47.31756" lon="-1.32073">
        <ele>60</ele>
        <time>2022-07-24T08:28:00Z</time>
      </trkpt>
      <trkpt lat="47.31762" lon="-1.32057">
        <ele>61</ele>
        <time>2022-07-24T08:28:03Z</time>
      </trkpt>
      <trkpt lat="47.31767" lon="-1.32042">
        <ele>61</ele>
        <time>2022-07-24T08:28:05Z</time>
      </trkpt>
      <trkpt lat="47.31773" lon="-1.32025">
        <ele>61</ele>
        <time>2022-07-24T08:28:07Z</time>
      </trkpt>
      <trkpt lat="47.31779" lon="-1.32007">
        <ele>61</ele>
        <time>2022-07-24T08:28:09Z</time>
      </trkpt>
      <trkpt lat="47.31786" lon="-1.3199">
        <ele>61</ele>
        <time>2022-07-24T08:28:11Z</time>
      </trkpt>
      <trkpt lat="47.31791" lon="-1.31974">
        <ele>60</ele>
        <time>2022-07-24T08:28:13Z</time>
      </trkpt>
      <trkpt lat="47.31795" lon="-1.3196">
        <ele>60</ele>
        <time>2022-07-24T08:28:15Z</time>
      </trkpt>
      <trkpt lat="47.31802" lon="-1.31947">
        <ele>62</ele>
        <time>2022-07-24T08:28:18Z</time>
      </trkpt>
      <trkpt lat="47.31812" lon="-1.31951">
        <ele>61</ele>
        <time>2022-07-24T08:28:20Z</time>
      </trkpt>
      <trkpt lat="47.31824" lon="-1.31958">
        <ele>61</ele>
        <time>2022-07-24T08:28:22Z</time>
      </trkpt>
      <trkpt lat="47.31837" lon="-1.31967">
        <ele>60</ele>
        <time>2022-07-24T08:28:24Z</time>
      </trkpt>
      <trkpt lat="47.31851" lon="-1.31976">
        <ele>59</ele>
        <time>2022-07-24T08:28:26Z</time>
      </trkpt>
      <trkpt lat="47.31864" lon="-1.31985">
        <ele>58</ele>
        <time>2022-07-24T08:28:28Z</time>
      </trkpt>
      <trkpt lat="47.31878" lon="-1.31993">
        <ele>58</ele>
        <time>2022-07-24T08:28:30Z</time>
      </trkpt>
      <trkpt lat="47.31891" lon="-1.32001">
        <ele>58</ele>
        <time>2022-07-24T08:28:32Z</time>
      </trkpt>
      <trkpt lat="47.31905" lon="-1.32007">
        <ele>58</ele>
        <time>2022-07-24T08:28:34Z</time>
      </trkpt>
      <trkpt lat="47.3192" lon="-1.32012">
        <ele>58</ele>
        <time>2022-07-24T08:28:36Z</time>
      </trkpt>
      <trkpt lat="47.31935" lon="-1.32014">
        <ele>57</ele>
        <time>2022-07-24T08:28:38Z</time>
      </trkpt>
      <trkpt lat="47.3195" lon="-1.32008">
        <ele>58</ele>
        <time>2022-07-24T08:28:40Z</time>
      </trkpt>
      <trkpt lat="47.31963" lon="-1.31997">
        <ele>59</ele>
        <time>2022-07-24T08:28:42Z</time>
      </trkpt>
      <trkpt lat="47.31974" lon="-1.31979">
        <ele>60</ele>
        <time>2022-07-24T08:28:44Z</time>
      </trkpt>
      <trkpt lat="47.31984" lon="-1.31958">
        <ele>61</ele>
        <time>2022-07-24T08:28:46Z</time>
      </trkpt>
      <trkpt lat="47.31993" lon="-1.31936">
        <ele>60</ele>
        <time>2022-07-24T08:28:48Z</time>
      </trkpt>
      <trkpt lat="47.32001" lon="-1.31915">
        <ele>60</ele>
        <time>2022-07-24T08:28:50Z</time>
      </trkpt>
      <trkpt lat="47.32008" lon="-1.31893">
        <ele>60</ele>
        <time>2022-07-24T08:28:52Z</time>
      </trkpt>
      <trkpt lat="47.32014" lon="-1.31873">
        <ele>60</ele>
        <time>2022-07-24T08:28:54Z</time>
      </trkpt>
      <trkpt lat="47.32021" lon="-1.31852">
        <ele>60</ele>
        <time>2022-07-24T08:28:56Z</time>
      </trkpt>
      <trkpt lat="47.32028" lon="-1.31831">
        <ele>60</ele>
        <time>2022-07-24T08:28:58Z</time>
      </trkpt>
      <trkpt lat="47.32035" lon="-1.31811">
        <ele>60</ele>
        <time>2022-07-24T08:29:00Z</time>
      </trkpt>
      <trkpt lat="47.32042" lon="-1.3179">
        <ele>61</ele>
        <time>2022-07-24T08:29:02Z</time>
      </trkpt>
      <trkpt lat="47.32049" lon="-1.3177">
        <ele>61</ele>
        <time>2022-07-24T08:29:04Z</time>
      </trkpt>
      <trkpt lat="47.32057" lon="-1.31751">
        <ele>60</ele>
        <time>2022-07-24T08:29:06Z</time>
      </trkpt>
      <trkpt lat="47.32066" lon="-1.31732">
        <ele>60</ele>
        <time>2022-07-24T08:29:08Z</time>
      </trkpt>
      <trkpt lat="47.32075" lon="-1.31713">
        <ele>59</ele>
        <time>2022-07-24T08:29:10Z</time>
      </trkpt>
      <trkpt lat="47.32085" lon="-1.31696">
        <ele>59</ele>
        <time>2022-07-24T08:29:12Z</time>
      </trkpt>
      <trkpt lat="47.32095" lon="-1.3168">
        <ele>59</ele>
        <time>2022-07-24T08:29:14Z</time>
      </trkpt>
      <trkpt lat="47.32105" lon="-1.31664">
        <ele>59</ele>
        <time>2022-07-24T08:29:16Z</time>
      </trkpt>
      <trkpt lat="47.32116" lon="-1.31648">
        <ele>59</ele>
        <time>2022-07-24T08:29:18Z</time>
      </trkpt>
      <trkpt lat="47.32126" lon="-1.31632">
        <ele>60</ele>
        <time>2022-07-24T08:29:20Z</time>
      </trkpt>
      <trkpt lat="47.32136" lon="-1.31616">
        <ele>60</ele>
        <time>2022-07-24T08:29:22Z</time>
      </trkpt>
      <trkpt lat="47.32146" lon="-1.316">
        <ele>60</ele>
        <time>2022-07-24T08:29:24Z</time>
      </trkpt>
      <trkpt lat="47.32156" lon="-1.31584">
        <ele>60</ele>
        <time>2022-07-24T08:29:26Z</time>
      </trkpt>
      <trkpt lat="47.32166" lon="-1.31568">
        <ele>59</ele>
        <time>2022-07-24T08:29:28Z</time>
      </trkpt>
      <trkpt lat="47.32176" lon="-1.31551">
        <ele>59</ele>
        <time>2022-07-24T08:29:30Z</time>
      </trkpt>
      <trkpt lat="47.32186" lon="-1.31534">
        <ele>59</ele>
        <time>2022-07-24T08:29:32Z</time>
      </trkpt>
      <trkpt lat="47.32195" lon="-1.31518">
        <ele>59</ele>
        <time>2022-07-24T08:29:34Z</time>
      </trkpt>
      <trkpt lat="47.32205" lon="-1.31502">
        <ele>59</ele>
        <time>2022-07-24T08:29:36Z</time>
      </trkpt>
      <trkpt lat="47.32215" lon="-1.31485">
        <ele>59</ele>
        <time>2022-07-24T08:29:38Z</time>
      </trkpt>
      <trkpt lat="47.32225" lon="-1.3147">
        <ele>60</ele>
        <time>2022-07-24T08:29:40Z</time>
      </trkpt>
      <trkpt lat="47.32235" lon="-1.31455">
        <ele>61</ele>
        <time>2022-07-24T08:29:42Z</time>
      </trkpt>
      <trkpt lat="47.32245" lon="-1.3144">
        <ele>61</ele>
        <time>2022-07-24T08:29:44Z</time>
      </trkpt>
      <trkpt lat="47.32255" lon="-1.31425">
        <ele>61</ele>
        <time>2022-07-24T08:29:46Z</time>
      </trkpt>
      <trkpt lat="47.32265" lon="-1.3141">
        <ele>61</ele>
        <time>2022-07-24T08:29:48Z</time>
      </trkpt>
      <trkpt lat="47.32274" lon="-1.31396">
        <ele>61</ele>
        <time>2022-07-24T08:29:50Z</time>
      </trkpt>
      <trkpt lat="47.32284" lon="-1.3138">
        <ele>61</ele>
        <time>2022-07-24T08:29:52Z</time>
      </trkpt>
      <trkpt lat="47.32294" lon="-1.31365">
        <ele>61</ele>
        <time>2022-07-24T08:29:54Z</time>
      </trkpt>
      <trkpt lat="47.32304" lon="-1.31349">
        <ele>61</ele>
        <time>2022-07-24T08:29:56Z</time>
      </trkpt>
      <trkpt lat="47.32313" lon="-1.31334">
        <ele>60</ele>
        <time>2022-07-24T08:29:58Z</time>
      </trkpt>
      <trkpt lat="47.32323" lon="-1.31319">
        <ele>60</ele>
        <time>2022-07-24T08:30:00Z</time>
      </trkpt>
      <trkpt lat="47.32333" lon="-1.31304">
        <ele>60</ele>
        <time>2022-07-24T08:30:02Z</time>
      </trkpt>
      <trkpt lat="47.32343" lon="-1.31288">
        <ele>59</ele>
        <time>2022-07-24T08:30:04Z</time>
      </trkpt>
      <trkpt lat="47.32353" lon="-1.31271">
        <ele>58</ele>
        <time>2022-07-24T08:30:06Z</time>
      </trkpt>
      <trkpt lat="47.32367" lon="-1.31246">
        <ele>57</ele>
        <time>2022-07-24T08:30:09Z</time>
      </trkpt>
      <trkpt lat="47.32375" lon="-1.31227">
        <ele>57</ele>
        <time>2022-07-24T08:30:11Z</time>
      </trkpt>
      <trkpt lat="47.32382" lon="-1.31207">
        <ele>57</ele>
        <time>2022-07-24T08:30:13Z</time>
      </trkpt>
      <trkpt lat="47.32388" lon="-1.31187">
        <ele>57</ele>
        <time>2022-07-24T08:30:15Z</time>
      </trkpt>
      <trkpt lat="47.32395" lon="-1.31167">
        <ele>57</ele>
        <time>2022-07-24T08:30:17Z</time>
      </trkpt>
      <trkpt lat="47.32401" lon="-1.31148">
        <ele>57</ele>
        <time>2022-07-24T08:30:19Z</time>
      </trkpt>
      <trkpt lat="47.32407" lon="-1.31128">
        <ele>58</ele>
        <time>2022-07-24T08:30:21Z</time>
      </trkpt>
      <trkpt lat="47.32414" lon="-1.31109">
        <ele>58</ele>
        <time>2022-07-24T08:30:23Z</time>
      </trkpt>
      <trkpt lat="47.3242" lon="-1.31089">
        <ele>58</ele>
        <time>2022-07-24T08:30:25Z</time>
      </trkpt>
      <trkpt lat="47.32427" lon="-1.3107">
        <ele>58</ele>
        <time>2022-07-24T08:30:27Z</time>
      </trkpt>
      <trkpt lat="47.32432" lon="-1.31051">
        <ele>57</ele>
        <time>2022-07-24T08:30:29Z</time>
      </trkpt>
      <trkpt lat="47.3244" lon="-1.31021">
        <ele>58</ele>
        <time>2022-07-24T08:30:32Z</time>
      </trkpt>
      <trkpt lat="47.32445" lon="-1.31002">
        <ele>59</ele>
        <time>2022-07-24T08:30:34Z</time>
      </trkpt>
      <trkpt lat="47.3245" lon="-1.30981">
        <ele>59</ele>
        <time>2022-07-24T08:30:36Z</time>
      </trkpt>
      <trkpt lat="47.32456" lon="-1.30963">
        <ele>59</ele>
        <time>2022-07-24T08:30:38Z</time>
      </trkpt>
      <trkpt lat="47.32462" lon="-1.30944">
        <ele>59</ele>
        <time>2022-07-24T08:30:40Z</time>
      </trkpt>
      <trkpt lat="47.32469" lon="-1.30927">
        <ele>60</ele>
        <time>2022-07-24T08:30:42Z</time>
      </trkpt>
      <trkpt lat="47.32476" lon="-1.30908">
        <ele>60</ele>
        <time>2022-07-24T08:30:44Z</time>
      </trkpt>
      <trkpt lat="47.32483" lon="-1.30888">
        <ele>60</ele>
        <time>2022-07-24T08:30:46Z</time>
      </trkpt>
      <trkpt lat="47.3249" lon="-1.30868">
        <ele>60</ele>
        <time>2022-07-24T08:30:48Z</time>
      </trkpt>
      <trkpt lat="47.32497" lon="-1.30849">
        <ele>60</ele>
        <time>2022-07-24T08:30:50Z</time>
      </trkpt>
      <trkpt lat="47.32504" lon="-1.3083">
        <ele>59</ele>
        <time>2022-07-24T08:30:52Z</time>
      </trkpt>
      <trkpt lat="47.32511" lon="-1.30811">
        <ele>59</ele>
        <time>2022-07-24T08:30:54Z</time>
      </trkpt>
      <trkpt lat="47.32518" lon="-1.30792">
        <ele>59</ele>
        <time>2022-07-24T08:30:56Z</time>
      </trkpt>
      <trkpt lat="47.32526" lon="-1.30773">
        <ele>59</ele>
        <time>2022-07-24T08:30:58Z</time>
      </trkpt>
      <trkpt lat="47.32533" lon="-1.30755">
        <ele>60</ele>
        <time>2022-07-24T08:31:00Z</time>
      </trkpt>
      <trkpt lat="47.32541" lon="-1.30737">
        <ele>60</ele>
        <time>2022-07-24T08:31:02Z</time>
      </trkpt>
      <trkpt lat="47.32549" lon="-1.30718">
        <ele>60</ele>
        <time>2022-07-24T08:31:04Z</time>
      </trkpt>
      <trkpt lat="47.32558" lon="-1.30699">
        <ele>60</ele>
        <time>2022-07-24T08:31:06Z</time>
      </trkpt>
      <trkpt lat="47.32566" lon="-1.30681">
        <ele>60</ele>
        <time>2022-07-24T08:31:08Z</time>
      </trkpt>
      <trkpt lat="47.32575" lon="-1.30661">
        <ele>60</ele>
        <time>2022-07-24T08:31:10Z</time>
      </trkpt>
      <trkpt lat="47.32583" lon="-1.30643">
        <ele>60</ele>
        <time>2022-07-24T08:31:12Z</time>
      </trkpt>
      <trkpt lat="47.32591" lon="-1.30624">
        <ele>60</ele>
        <time>2022-07-24T08:31:14Z</time>
      </trkpt>
      <trkpt lat="47.32599" lon="-1.30605">
        <ele>60</ele>
        <time>2022-07-24T08:31:16Z</time>
      </trkpt>
      <trkpt lat="47.32608" lon="-1.30586">
        <ele>59</ele>
        <time>2022-07-24T08:31:18Z</time>
      </trkpt>
      <trkpt lat="47.32616" lon="-1.30568">
        <ele>59</ele>
        <time>2022-07-24T08:31:20Z</time>
      </trkpt>
      <trkpt lat="47.32624" lon="-1.30549">
        <ele>59</ele>
        <time>2022-07-24T08:31:22Z</time>
      </trkpt>
      <trkpt lat="47.32632" lon="-1.30531">
        <ele>59</ele>
        <time>2022-07-24T08:31:24Z</time>
      </trkpt>
      <trkpt lat="47.3264" lon="-1.30513">
        <ele>59</ele>
        <time>2022-07-24T08:31:26Z</time>
      </trkpt>
      <trkpt lat="47.32647" lon="-1.30495">
        <ele>59</ele>
        <time>2022-07-24T08:31:28Z</time>
      </trkpt>
      <trkpt lat="47.32655" lon="-1.30477">
        <ele>59</ele>
        <time>2022-07-24T08:31:30Z</time>
      </trkpt>
      <trkpt lat="47.32663" lon="-1.30459">
        <ele>59</ele>
        <time>2022-07-24T08:31:32Z</time>
      </trkpt>
      <trkpt lat="47.32672" lon="-1.3044">
        <ele>58</ele>
        <time>2022-07-24T08:31:34Z</time>
      </trkpt>
      <trkpt lat="47.3268" lon="-1.30421">
        <ele>58</ele>
        <time>2022-07-24T08:31:36Z</time>
      </trkpt>
      <trkpt lat="47.32684" lon="-1.30399">
        <ele>57</ele>
        <time>2022-07-24T08:31:38Z</time>
      </trkpt>
      <trkpt lat="47.32686" lon="-1.30378">
        <ele>57</ele>
        <time>2022-07-24T08:31:40Z</time>
      </trkpt>
      <trkpt lat="47.32682" lon="-1.30357">
        <ele>57</ele>
        <time>2022-07-24T08:31:42Z</time>
      </trkpt>
      <trkpt lat="47.32675" lon="-1.3034">
        <ele>57</ele>
        <time>2022-07-24T08:31:44Z</time>
      </trkpt>
      <trkpt lat="47.32667" lon="-1.30324">
        <ele>57</ele>
        <time>2022-07-24T08:31:46Z</time>
      </trkpt>
      <trkpt lat="47.3266" lon="-1.30308">
        <ele>57</ele>
        <time>2022-07-24T08:31:48Z</time>
      </trkpt>
      <trkpt lat="47.32653" lon="-1.30292">
        <ele>57</ele>
        <time>2022-07-24T08:31:50Z</time>
      </trkpt>
      <trkpt lat="47.32646" lon="-1.30278">
        <ele>57</ele>
        <time>2022-07-24T08:31:52Z</time>
      </trkpt>
      <trkpt lat="47.3264" lon="-1.30264">
        <ele>57</ele>
        <time>2022-07-24T08:31:54Z</time>
      </trkpt>
      <trkpt lat="47.3264" lon="-1.30249">
        <ele>57</ele>
        <time>2022-07-24T08:31:56Z</time>
      </trkpt>
      <trkpt lat="47.32648" lon="-1.30236">
        <ele>57</ele>
        <time>2022-07-24T08:31:58Z</time>
      </trkpt>
      <trkpt lat="47.32657" lon="-1.30222">
        <ele>58</ele>
        <time>2022-07-24T08:32:00Z</time>
      </trkpt>
      <trkpt lat="47.32666" lon="-1.30205">
        <ele>59</ele>
        <time>2022-07-24T08:32:02Z</time>
      </trkpt>
      <trkpt lat="47.32677" lon="-1.30189">
        <ele>59</ele>
        <time>2022-07-24T08:32:04Z</time>
      </trkpt>
      <trkpt lat="47.32686" lon="-1.30173">
        <ele>60</ele>
        <time>2022-07-24T08:32:06Z</time>
      </trkpt>
      <trkpt lat="47.32697" lon="-1.30157">
        <ele>60</ele>
        <time>2022-07-24T08:32:08Z</time>
      </trkpt>
      <trkpt lat="47.32707" lon="-1.3014">
        <ele>60</ele>
        <time>2022-07-24T08:32:10Z</time>
      </trkpt>
      <trkpt lat="47.32718" lon="-1.30125">
        <ele>60</ele>
        <time>2022-07-24T08:32:12Z</time>
      </trkpt>
      <trkpt lat="47.32727" lon="-1.30108">
        <ele>60</ele>
        <time>2022-07-24T08:32:14Z</time>
      </trkpt>
      <trkpt lat="47.32737" lon="-1.30091">
        <ele>60</ele>
        <time>2022-07-24T08:32:16Z</time>
      </trkpt>
      <trkpt lat="47.32745" lon="-1.30074">
        <ele>60</ele>
        <time>2022-07-24T08:32:18Z</time>
      </trkpt>
      <trkpt lat="47.32754" lon="-1.30057">
        <ele>60</ele>
        <time>2022-07-24T08:32:20Z</time>
      </trkpt>
      <trkpt lat="47.32763" lon="-1.30039">
        <ele>60</ele>
        <time>2022-07-24T08:32:22Z</time>
      </trkpt>
      <trkpt lat="47.32771" lon="-1.30023">
        <ele>61</ele>
        <time>2022-07-24T08:32:24Z</time>
      </trkpt>
      <trkpt lat="47.32779" lon="-1.30006">
        <ele>61</ele>
        <time>2022-07-24T08:32:26Z</time>
      </trkpt>
      <trkpt lat="47.32787" lon="-1.29988">
        <ele>62</ele>
        <time>2022-07-24T08:32:28Z</time>
      </trkpt>
      <trkpt lat="47.32796" lon="-1.29971">
        <ele>62</ele>
        <time>2022-07-24T08:32:30Z</time>
      </trkpt>
      <trkpt lat="47.32805" lon="-1.29953">
        <ele>62</ele>
        <time>2022-07-24T08:32:32Z</time>
      </trkpt>
      <trkpt lat="47.32814" lon="-1.29937">
        <ele>62</ele>
        <time>2022-07-24T08:32:34Z</time>
      </trkpt>
      <trkpt lat="47.32822" lon="-1.2992">
        <ele>61</ele>
        <time>2022-07-24T08:32:36Z</time>
      </trkpt>
      <trkpt lat="47.32831" lon="-1.29904">
        <ele>61</ele>
        <time>2022-07-24T08:32:38Z</time>
      </trkpt>
      <trkpt lat="47.3284" lon="-1.29888">
        <ele>61</ele>
        <time>2022-07-24T08:32:40Z</time>
      </trkpt>
      <trkpt lat="47.32849" lon="-1.29872">
        <ele>61</ele>
        <time>2022-07-24T08:32:42Z</time>
      </trkpt>
      <trkpt lat="47.32858" lon="-1.29855">
        <ele>60</ele>
        <time>2022-07-24T08:32:44Z</time>
      </trkpt>
      <trkpt lat="47.32867" lon="-1.29838">
        <ele>60</ele>
        <time>2022-07-24T08:32:46Z</time>
      </trkpt>
      <trkpt lat="47.32876" lon="-1.29822">
        <ele>59</ele>
        <time>2022-07-24T08:32:48Z</time>
      </trkpt>
      <trkpt lat="47.32886" lon="-1.29805">
        <ele>59</ele>
        <time>2022-07-24T08:32:50Z</time>
      </trkpt>
      <trkpt lat="47.32895" lon="-1.29788">
        <ele>59</ele>
        <time>2022-07-24T08:32:52Z</time>
      </trkpt>
      <trkpt lat="47.32904" lon="-1.29772">
        <ele>59</ele>
        <time>2022-07-24T08:32:54Z</time>
      </trkpt>
      <trkpt lat="47.32913" lon="-1.29756">
        <ele>59</ele>
        <time>2022-07-24T08:32:56Z</time>
      </trkpt>
      <trkpt lat="47.32922" lon="-1.29741">
        <ele>59</ele>
        <time>2022-07-24T08:32:58Z</time>
      </trkpt>
      <trkpt lat="47.3293" lon="-1.29725">
        <ele>59</ele>
        <time>2022-07-24T08:33:00Z</time>
      </trkpt>
      <trkpt lat="47.32939" lon="-1.2971">
        <ele>59</ele>
        <time>2022-07-24T08:33:02Z</time>
      </trkpt>
      <trkpt lat="47.32948" lon="-1.29695">
        <ele>59</ele>
        <time>2022-07-24T08:33:04Z</time>
      </trkpt>
      <trkpt lat="47.32957" lon="-1.29679">
        <ele>59</ele>
        <time>2022-07-24T08:33:06Z</time>
      </trkpt>
      <trkpt lat="47.32967" lon="-1.29664">
        <ele>59</ele>
        <time>2022-07-24T08:33:08Z</time>
      </trkpt>
      <trkpt lat="47.32977" lon="-1.29648">
        <ele>59</ele>
        <time>2022-07-24T08:33:10Z</time>
      </trkpt>
      <trkpt lat="47.32987" lon="-1.29633">
        <ele>59</ele>
        <time>2022-07-24T08:33:12Z</time>
      </trkpt>
      <trkpt lat="47.32996" lon="-1.29616">
        <ele>59</ele>
        <time>2022-07-24T08:33:14Z</time>
      </trkpt>
      <trkpt lat="47.33005" lon="-1.296">
        <ele>59</ele>
        <time>2022-07-24T08:33:16Z</time>
      </trkpt>
      <trkpt lat="47.33014" lon="-1.29583">
        <ele>59</ele>
        <time>2022-07-24T08:33:18Z</time>
      </trkpt>
      <trkpt lat="47.33022" lon="-1.29566">
        <ele>59</ele>
        <time>2022-07-24T08:33:20Z</time>
      </trkpt>
      <trkpt lat="47.33031" lon="-1.2955">
        <ele>59</ele>
        <time>2022-07-24T08:33:22Z</time>
      </trkpt>
      <trkpt lat="47.3304" lon="-1.29533">
        <ele>59</ele>
        <time>2022-07-24T08:33:24Z</time>
      </trkpt>
      <trkpt lat="47.33049" lon="-1.29518">
        <ele>59</ele>
        <time>2022-07-24T08:33:26Z</time>
      </trkpt>
      <trkpt lat="47.33059" lon="-1.29502">
        <ele>59</ele>
        <time>2022-07-24T08:33:28Z</time>
      </trkpt>
      <trkpt lat="47.33069" lon="-1.29486">
        <ele>59</ele>
        <time>2022-07-24T08:33:30Z</time>
      </trkpt>
      <trkpt lat="47.33079" lon="-1.29471">
        <ele>60</ele>
        <time>2022-07-24T08:33:32Z</time>
      </trkpt>
      <trkpt lat="47.33089" lon="-1.29457">
        <ele>60</ele>
        <time>2022-07-24T08:33:34Z</time>
      </trkpt>
      <trkpt lat="47.33099" lon="-1.29443">
        <ele>61</ele>
        <time>2022-07-24T08:33:36Z</time>
      </trkpt>
      <trkpt lat="47.3311" lon="-1.29428">
        <ele>61</ele>
        <time>2022-07-24T08:33:38Z</time>
      </trkpt>
      <trkpt lat="47.3312" lon="-1.29414">
        <ele>61</ele>
        <time>2022-07-24T08:33:40Z</time>
      </trkpt>
      <trkpt lat="47.3313" lon="-1.29399">
        <ele>61</ele>
        <time>2022-07-24T08:33:42Z</time>
      </trkpt>
      <trkpt lat="47.33139" lon="-1.29384">
        <ele>61</ele>
        <time>2022-07-24T08:33:44Z</time>
      </trkpt>
      <trkpt lat="47.33146" lon="-1.2937">
        <ele>61</ele>
        <time>2022-07-24T08:33:46Z</time>
      </trkpt>
      <trkpt lat="47.33149" lon="-1.29352">
        <ele>61</ele>
        <time>2022-07-24T08:33:48Z</time>
      </trkpt>
      <trkpt lat="47.33142" lon="-1.29341">
        <ele>61</ele>
        <time>2022-07-24T08:33:50Z</time>
      </trkpt>
      <trkpt lat="47.33134" lon="-1.29333">
        <ele>61</ele>
        <time>2022-07-24T08:33:52Z</time>
      </trkpt>
      <trkpt lat="47.33128" lon="-1.29319">
        <ele>62</ele>
        <time>2022-07-24T08:33:54Z</time>
      </trkpt>
      <trkpt lat="47.33126" lon="-1.29304">
        <ele>62</ele>
        <time>2022-07-24T08:33:56Z</time>
      </trkpt>
      <trkpt lat="47.33129" lon="-1.29285">
        <ele>63</ele>
        <time>2022-07-24T08:33:59Z</time>
      </trkpt>
      <trkpt lat="47.33134" lon="-1.29271">
        <ele>63</ele>
        <time>2022-07-24T08:34:01Z</time>
      </trkpt>
      <trkpt lat="47.3314" lon="-1.29258">
        <ele>63</ele>
        <time>2022-07-24T08:34:03Z</time>
      </trkpt>
      <trkpt lat="47.33147" lon="-1.29245">
        <ele>63</ele>
        <time>2022-07-24T08:34:05Z</time>
      </trkpt>
      <trkpt lat="47.33155" lon="-1.29229">
        <ele>63</ele>
        <time>2022-07-24T08:34:07Z</time>
      </trkpt>
      <trkpt lat="47.33165" lon="-1.2922">
        <ele>62</ele>
        <time>2022-07-24T08:34:09Z</time>
      </trkpt>
      <trkpt lat="47.33168" lon="-1.29205">
        <ele>62</ele>
        <time>2022-07-24T08:34:11Z</time>
      </trkpt>
      <trkpt lat="47.33169" lon="-1.29186">
        <ele>62</ele>
        <time>2022-07-24T08:34:13Z</time>
      </trkpt>
      <trkpt lat="47.33173" lon="-1.2917">
        <ele>62</ele>
        <time>2022-07-24T08:34:15Z</time>
      </trkpt>
      <trkpt lat="47.33183" lon="-1.29159">
        <ele>62</ele>
        <time>2022-07-24T08:34:17Z</time>
      </trkpt>
      <trkpt lat="47.33191" lon="-1.29149">
        <ele>62</ele>
        <time>2022-07-24T08:34:19Z</time>
      </trkpt>
      <trkpt lat="47.33202" lon="-1.29146">
        <ele>62</ele>
        <time>2022-07-24T08:34:21Z</time>
      </trkpt>
      <trkpt lat="47.33215" lon="-1.29152">
        <ele>62</ele>
        <time>2022-07-24T08:34:23Z</time>
      </trkpt>
      <trkpt lat="47.33228" lon="-1.29158">
        <ele>62</ele>
        <time>2022-07-24T08:34:25Z</time>
      </trkpt>
      <trkpt lat="47.33241" lon="-1.29166">
        <ele>62</ele>
        <time>2022-07-24T08:34:27Z</time>
      </trkpt>
      <trkpt lat="47.33254" lon="-1.29174">
        <ele>61</ele>
        <time>2022-07-24T08:34:29Z</time>
      </trkpt>
      <trkpt lat="47.33268" lon="-1.29182">
        <ele>61</ele>
        <time>2022-07-24T08:34:31Z</time>
      </trkpt>
      <trkpt lat="47.3328" lon="-1.2919">
        <ele>61</ele>
        <time>2022-07-24T08:34:33Z</time>
      </trkpt>
      <trkpt lat="47.33293" lon="-1.29199">
        <ele>62</ele>
        <time>2022-07-24T08:34:35Z</time>
      </trkpt>
      <trkpt lat="47.33305" lon="-1.2921">
        <ele>61</ele>
        <time>2022-07-24T08:34:37Z</time>
      </trkpt>
      <trkpt lat="47.33317" lon="-1.29219">
        <ele>60</ele>
        <time>2022-07-24T08:34:39Z</time>
      </trkpt>
      <trkpt lat="47.33328" lon="-1.29227">
        <ele>60</ele>
        <time>2022-07-24T08:34:41Z</time>
      </trkpt>
      <trkpt lat="47.33339" lon="-1.29237">
        <ele>59</ele>
        <time>2022-07-24T08:34:43Z</time>
      </trkpt>
      <trkpt lat="47.3335" lon="-1.29247">
        <ele>59</ele>
        <time>2022-07-24T08:34:45Z</time>
      </trkpt>
      <trkpt lat="47.3336" lon="-1.29261">
        <ele>58</ele>
        <time>2022-07-24T08:34:47Z</time>
      </trkpt>
      <trkpt lat="47.33369" lon="-1.29275">
        <ele>58</ele>
        <time>2022-07-24T08:34:49Z</time>
      </trkpt>
      <trkpt lat="47.33377" lon="-1.29288">
        <ele>57</ele>
        <time>2022-07-24T08:34:51Z</time>
      </trkpt>
      <trkpt lat="47.33385" lon="-1.29302">
        <ele>57</ele>
        <time>2022-07-24T08:34:53Z</time>
      </trkpt>
      <trkpt lat="47.33391" lon="-1.29316">
        <ele>56</ele>
        <time>2022-07-24T08:34:55Z</time>
      </trkpt>
      <trkpt lat="47.33398" lon="-1.29329">
        <ele>55</ele>
        <time>2022-07-24T08:34:57Z</time>
      </trkpt>
      <trkpt lat="47.33404" lon="-1.29343">
        <ele>56</ele>
        <time>2022-07-24T08:34:59Z</time>
      </trkpt>
      <trkpt lat="47.33407" lon="-1.29358">
        <ele>56</ele>
        <time>2022-07-24T08:35:01Z</time>
      </trkpt>
      <trkpt lat="47.3341" lon="-1.29376">
        <ele>55</ele>
        <time>2022-07-24T08:35:04Z</time>
      </trkpt>
      <trkpt lat="47.33421" lon="-1.29384">
        <ele>55</ele>
        <time>2022-07-24T08:35:07Z</time>
      </trkpt>
      <trkpt lat="47.33431" lon="-1.29392">
        <ele>55</ele>
        <time>2022-07-24T08:35:09Z</time>
      </trkpt>
      <trkpt lat="47.33441" lon="-1.29401">
        <ele>56</ele>
        <time>2022-07-24T08:35:11Z</time>
      </trkpt>
      <trkpt lat="47.33451" lon="-1.29409">
        <ele>55</ele>
        <time>2022-07-24T08:35:13Z</time>
      </trkpt>
      <trkpt lat="47.33461" lon="-1.29418">
        <ele>56</ele>
        <time>2022-07-24T08:35:15Z</time>
      </trkpt>
      <trkpt lat="47.33471" lon="-1.29427">
        <ele>56</ele>
        <time>2022-07-24T08:35:17Z</time>
      </trkpt>
      <trkpt lat="47.33483" lon="-1.29435">
        <ele>56</ele>
        <time>2022-07-24T08:35:19Z</time>
      </trkpt>
      <trkpt lat="47.33493" lon="-1.29443">
        <ele>56</ele>
        <time>2022-07-24T08:35:21Z</time>
      </trkpt>
      <trkpt lat="47.33505" lon="-1.29452">
        <ele>55</ele>
        <time>2022-07-24T08:35:23Z</time>
      </trkpt>
      <trkpt lat="47.33517" lon="-1.29462">
        <ele>54</ele>
        <time>2022-07-24T08:35:25Z</time>
      </trkpt>
      <trkpt lat="47.33529" lon="-1.29471">
        <ele>54</ele>
        <time>2022-07-24T08:35:27Z</time>
      </trkpt>
      <trkpt lat="47.3354" lon="-1.29481">
        <ele>54</ele>
        <time>2022-07-24T08:35:29Z</time>
      </trkpt>
      <trkpt lat="47.33551" lon="-1.29489">
        <ele>55</ele>
        <time>2022-07-24T08:35:31Z</time>
      </trkpt>
      <trkpt lat="47.33562" lon="-1.29497">
        <ele>55</ele>
        <time>2022-07-24T08:35:33Z</time>
      </trkpt>
      <trkpt lat="47.33573" lon="-1.29506">
        <ele>55</ele>
        <time>2022-07-24T08:35:35Z</time>
      </trkpt>
      <trkpt lat="47.33583" lon="-1.29514">
        <ele>56</ele>
        <time>2022-07-24T08:35:37Z</time>
      </trkpt>
      <trkpt lat="47.33594" lon="-1.29522">
        <ele>56</ele>
        <time>2022-07-24T08:35:39Z</time>
      </trkpt>
      <trkpt lat="47.33605" lon="-1.29531">
        <ele>56</ele>
        <time>2022-07-24T08:35:41Z</time>
      </trkpt>
      <trkpt lat="47.33615" lon="-1.2954">
        <ele>56</ele>
        <time>2022-07-24T08:35:43Z</time>
      </trkpt>
      <trkpt lat="47.33625" lon="-1.29546">
        <ele>56</ele>
        <time>2022-07-24T08:35:45Z</time>
      </trkpt>
      <trkpt lat="47.33636" lon="-1.29547">
        <ele>57</ele>
        <time>2022-07-24T08:35:47Z</time>
      </trkpt>
      <trkpt lat="47.33645" lon="-1.2954">
        <ele>57</ele>
        <time>2022-07-24T08:35:49Z</time>
      </trkpt>
      <trkpt lat="47.33649" lon="-1.29523">
        <ele>58</ele>
        <time>2022-07-24T08:35:51Z</time>
      </trkpt>
      <trkpt lat="47.33652" lon="-1.29506">
        <ele>59</ele>
        <time>2022-07-24T08:35:53Z</time>
      </trkpt>
      <trkpt lat="47.33656" lon="-1.29488">
        <ele>59</ele>
        <time>2022-07-24T08:35:55Z</time>
      </trkpt>
      <trkpt lat="47.33658" lon="-1.29469">
        <ele>60</ele>
        <time>2022-07-24T08:35:57Z</time>
      </trkpt>
      <trkpt lat="47.33663" lon="-1.29453">
        <ele>61</ele>
        <time>2022-07-24T08:35:59Z</time>
      </trkpt>
      <trkpt lat="47.3367" lon="-1.29439">
        <ele>61</ele>
        <time>2022-07-24T08:36:01Z</time>
      </trkpt>
      <trkpt lat="47.33677" lon="-1.29423">
        <ele>61</ele>
        <time>2022-07-24T08:36:03Z</time>
      </trkpt>
      <trkpt lat="47.33684" lon="-1.29405">
        <ele>62</ele>
        <time>2022-07-24T08:36:05Z</time>
      </trkpt>
      <trkpt lat="47.3369" lon="-1.29388">
        <ele>62</ele>
        <time>2022-07-24T08:36:07Z</time>
      </trkpt>
      <trkpt lat="47.33695" lon="-1.29371">
        <ele>62</ele>
        <time>2022-07-24T08:36:09Z</time>
      </trkpt>
      <trkpt lat="47.33701" lon="-1.29354">
        <ele>62</ele>
        <time>2022-07-24T08:36:11Z</time>
      </trkpt>
      <trkpt lat="47.33705" lon="-1.29337">
        <ele>62</ele>
        <time>2022-07-24T08:36:13Z</time>
      </trkpt>
      <trkpt lat="47.3371" lon="-1.2932">
        <ele>63</ele>
        <time>2022-07-24T08:36:15Z</time>
      </trkpt>
      <trkpt lat="47.33715" lon="-1.29302">
        <ele>62</ele>
        <time>2022-07-24T08:36:17Z</time>
      </trkpt>
      <trkpt lat="47.3372" lon="-1.29285">
        <ele>62</ele>
        <time>2022-07-24T08:36:19Z</time>
      </trkpt>
      <trkpt lat="47.33725" lon="-1.29267">
        <ele>62</ele>
        <time>2022-07-24T08:36:21Z</time>
      </trkpt>
      <trkpt lat="47.33729" lon="-1.29249">
        <ele>61</ele>
        <time>2022-07-24T08:36:23Z</time>
      </trkpt>
      <trkpt lat="47.33733" lon="-1.2923">
        <ele>61</ele>
        <time>2022-07-24T08:36:25Z</time>
      </trkpt>
      <trkpt lat="47.33736" lon="-1.29212">
        <ele>61</ele>
        <time>2022-07-24T08:36:27Z</time>
      </trkpt>
      <trkpt lat="47.3374" lon="-1.29195">
        <ele>60</ele>
        <time>2022-07-24T08:36:29Z</time>
      </trkpt>
      <trkpt lat="47.33744" lon="-1.29177">
        <ele>61</ele>
        <time>2022-07-24T08:36:31Z</time>
      </trkpt>
      <trkpt lat="47.33748" lon="-1.29161">
        <ele>61</ele>
        <time>2022-07-24T08:36:33Z</time>
      </trkpt>
      <trkpt lat="47.33749" lon="-1.29145">
        <ele>62</ele>
        <time>2022-07-24T08:36:35Z</time>
      </trkpt>
      <trkpt lat="47.33749" lon="-1.29127">
        <ele>63</ele>
        <time>2022-07-24T08:36:37Z</time>
      </trkpt>
      <trkpt lat="47.33749" lon="-1.29108">
        <ele>63</ele>
        <time>2022-07-24T08:36:39Z</time>
      </trkpt>
      <trkpt lat="47.33749" lon="-1.29091">
        <ele>64</ele>
        <time>2022-07-24T08:36:41Z</time>
      </trkpt>
      <trkpt lat="47.3375" lon="-1.29073">
        <ele>64</ele>
        <time>2022-07-24T08:36:43Z</time>
      </trkpt>
      <trkpt lat="47.33751" lon="-1.29053">
        <ele>63</ele>
        <time>2022-07-24T08:36:45Z</time>
      </trkpt>
      <trkpt lat="47.33751" lon="-1.29036">
        <ele>62</ele>
        <time>2022-07-24T08:36:47Z</time>
      </trkpt>
      <trkpt lat="47.33752" lon="-1.2902">
        <ele>63</ele>
        <time>2022-07-24T08:36:49Z</time>
      </trkpt>
      <trkpt lat="47.33752" lon="-1.29004">
        <ele>63</ele>
        <time>2022-07-24T08:36:51Z</time>
      </trkpt>
      <trkpt lat="47.33751" lon="-1.28989">
        <ele>63</ele>
        <time>2022-07-24T08:36:53Z</time>
      </trkpt>
      <trkpt lat="47.3375" lon="-1.28974">
        <ele>65</ele>
        <time>2022-07-24T08:36:55Z</time>
      </trkpt>
      <trkpt lat="47.3375" lon="-1.28958">
        <ele>65</ele>
        <time>2022-07-24T08:36:57Z</time>
      </trkpt>
      <trkpt lat="47.33752" lon="-1.2894">
        <ele>65</ele>
        <time>2022-07-24T08:36:59Z</time>
      </trkpt>
      <trkpt lat="47.33754" lon="-1.28925">
        <ele>65</ele>
        <time>2022-07-24T08:37:01Z</time>
      </trkpt>
      <trkpt lat="47.33758" lon="-1.28913">
        <ele>65</ele>
        <time>2022-07-24T08:37:03Z</time>
      </trkpt>
      <trkpt lat="47.33763" lon="-1.28901">
        <ele>66</ele>
        <time>2022-07-24T08:37:05Z</time>
      </trkpt>
      <trkpt lat="47.33766" lon="-1.28887">
        <ele>65</ele>
        <time>2022-07-24T08:37:07Z</time>
      </trkpt>
      <trkpt lat="47.33766" lon="-1.28872">
        <ele>65</ele>
        <time>2022-07-24T08:37:09Z</time>
      </trkpt>
      <trkpt lat="47.33767" lon="-1.28855">
        <ele>65</ele>
        <time>2022-07-24T08:37:11Z</time>
      </trkpt>
      <trkpt lat="47.33767" lon="-1.28834">
        <ele>65</ele>
        <time>2022-07-24T08:37:13Z</time>
      </trkpt>
      <trkpt lat="47.33766" lon="-1.28817">
        <ele>65</ele>
        <time>2022-07-24T08:37:15Z</time>
      </trkpt>
      <trkpt lat="47.33768" lon="-1.28801">
        <ele>65</ele>
        <time>2022-07-24T08:37:17Z</time>
      </trkpt>
      <trkpt lat="47.33771" lon="-1.28783">
        <ele>65</ele>
        <time>2022-07-24T08:37:19Z</time>
      </trkpt>
      <trkpt lat="47.33771" lon="-1.28767">
        <ele>65</ele>
        <time>2022-07-24T08:37:21Z</time>
      </trkpt>
      <trkpt lat="47.33772" lon="-1.28752">
        <ele>65</ele>
        <time>2022-07-24T08:37:23Z</time>
      </trkpt>
      <trkpt lat="47.33772" lon="-1.28736">
        <ele>66</ele>
        <time>2022-07-24T08:37:25Z</time>
      </trkpt>
      <trkpt lat="47.33773" lon="-1.28719">
        <ele>66</ele>
        <time>2022-07-24T08:37:27Z</time>
      </trkpt>
      <trkpt lat="47.33777" lon="-1.28701">
        <ele>65</ele>
        <time>2022-07-24T08:37:29Z</time>
      </trkpt>
      <trkpt lat="47.33781" lon="-1.28686">
        <ele>65</ele>
        <time>2022-07-24T08:37:31Z</time>
      </trkpt>
      <trkpt lat="47.33785" lon="-1.28672">
        <ele>64</ele>
        <time>2022-07-24T08:37:33Z</time>
      </trkpt>
      <trkpt lat="47.33786" lon="-1.28657">
        <ele>64</ele>
        <time>2022-07-24T08:37:35Z</time>
      </trkpt>
      <trkpt lat="47.33787" lon="-1.28641">
        <ele>64</ele>
        <time>2022-07-24T08:37:37Z</time>
      </trkpt>
      <trkpt lat="47.33789" lon="-1.28624">
        <ele>64</ele>
        <time>2022-07-24T08:37:39Z</time>
      </trkpt>
      <trkpt lat="47.33794" lon="-1.28612">
        <ele>64</ele>
        <time>2022-07-24T08:37:41Z</time>
      </trkpt>
      <trkpt lat="47.33801" lon="-1.28594">
        <ele>64</ele>
        <time>2022-07-24T08:37:44Z</time>
      </trkpt>
      <trkpt lat="47.338" lon="-1.2858">
        <ele>65</ele>
        <time>2022-07-24T08:37:48Z</time>
      </trkpt>
      <trkpt lat="47.33798" lon="-1.28566">
        <ele>65</ele>
        <time>2022-07-24T08:37:50Z</time>
      </trkpt>
      <trkpt lat="47.33794" lon="-1.28553">
        <ele>66</ele>
        <time>2022-07-24T08:37:52Z</time>
      </trkpt>
      <trkpt lat="47.33794" lon="-1.28539">
        <ele>66</ele>
        <time>2022-07-24T08:37:54Z</time>
      </trkpt>
      <trkpt lat="47.33797" lon="-1.28521">
        <ele>67</ele>
        <time>2022-07-24T08:37:56Z</time>
      </trkpt>
      <trkpt lat="47.33798" lon="-1.28504">
        <ele>67</ele>
        <time>2022-07-24T08:37:58Z</time>
      </trkpt>
      <trkpt lat="47.33801" lon="-1.28487">
        <ele>67</ele>
        <time>2022-07-24T08:38:00Z</time>
      </trkpt>
      <trkpt lat="47.33802" lon="-1.28469">
        <ele>67</ele>
        <time>2022-07-24T08:38:02Z</time>
      </trkpt>
      <trkpt lat="47.33804" lon="-1.2845">
        <ele>67</ele>
        <time>2022-07-24T08:38:04Z</time>
      </trkpt>
      <trkpt lat="47.33805" lon="-1.28431">
        <ele>67</ele>
        <time>2022-07-24T08:38:06Z</time>
      </trkpt>
      <trkpt lat="47.33808" lon="-1.28412">
        <ele>66</ele>
        <time>2022-07-24T08:38:08Z</time>
      </trkpt>
      <trkpt lat="47.33811" lon="-1.28394">
        <ele>66</ele>
        <time>2022-07-24T08:38:10Z</time>
      </trkpt>
      <trkpt lat="47.33813" lon="-1.28377">
        <ele>65</ele>
        <time>2022-07-24T08:38:12Z</time>
      </trkpt>
      <trkpt lat="47.33816" lon="-1.28359">
        <ele>65</ele>
        <time>2022-07-24T08:38:14Z</time>
      </trkpt>
      <trkpt lat="47.33819" lon="-1.28342">
        <ele>65</ele>
        <time>2022-07-24T08:38:16Z</time>
      </trkpt>
      <trkpt lat="47.33822" lon="-1.28326">
        <ele>65</ele>
        <time>2022-07-24T08:38:18Z</time>
      </trkpt>
      <trkpt lat="47.33825" lon="-1.28308">
        <ele>64</ele>
        <time>2022-07-24T08:38:20Z</time>
      </trkpt>
      <trkpt lat="47.33828" lon="-1.28288">
        <ele>64</ele>
        <time>2022-07-24T08:38:22Z</time>
      </trkpt>
      <trkpt lat="47.33832" lon="-1.28269">
        <ele>63</ele>
        <time>2022-07-24T08:38:24Z</time>
      </trkpt>
      <trkpt lat="47.33836" lon="-1.28251">
        <ele>63</ele>
        <time>2022-07-24T08:38:26Z</time>
      </trkpt>
      <trkpt lat="47.33838" lon="-1.28232">
        <ele>62</ele>
        <time>2022-07-24T08:38:28Z</time>
      </trkpt>
      <trkpt lat="47.33842" lon="-1.28212">
        <ele>61</ele>
        <time>2022-07-24T08:38:30Z</time>
      </trkpt>
      <trkpt lat="47.33845" lon="-1.28192">
        <ele>61</ele>
        <time>2022-07-24T08:38:32Z</time>
      </trkpt>
      <trkpt lat="47.33847" lon="-1.28174">
        <ele>60</ele>
        <time>2022-07-24T08:38:34Z</time>
      </trkpt>
      <trkpt lat="47.33849" lon="-1.28156">
        <ele>61</ele>
        <time>2022-07-24T08:38:36Z</time>
      </trkpt>
      <trkpt lat="47.33851" lon="-1.28139">
        <ele>61</ele>
        <time>2022-07-24T08:38:38Z</time>
      </trkpt>
      <trkpt lat="47.33854" lon="-1.2812">
        <ele>61</ele>
        <time>2022-07-24T08:38:40Z</time>
      </trkpt>
      <trkpt lat="47.33857" lon="-1.28102">
        <ele>61</ele>
        <time>2022-07-24T08:38:42Z</time>
      </trkpt>
      <trkpt lat="47.33858" lon="-1.28084">
        <ele>61</ele>
        <time>2022-07-24T08:38:44Z</time>
      </trkpt>
      <trkpt lat="47.33861" lon="-1.28066">
        <ele>61</ele>
        <time>2022-07-24T08:38:46Z</time>
      </trkpt>
      <trkpt lat="47.33864" lon="-1.28048">
        <ele>60</ele>
        <time>2022-07-24T08:38:48Z</time>
      </trkpt>
      <trkpt lat="47.33866" lon="-1.28031">
        <ele>60</ele>
        <time>2022-07-24T08:38:50Z</time>
      </trkpt>
      <trkpt lat="47.33866" lon="-1.28015">
        <ele>61</ele>
        <time>2022-07-24T08:38:52Z</time>
      </trkpt>
      <trkpt lat="47.33867" lon="-1.27998">
        <ele>61</ele>
        <time>2022-07-24T08:38:54Z</time>
      </trkpt>
      <trkpt lat="47.33869" lon="-1.2798">
        <ele>61</ele>
        <time>2022-07-24T08:38:56Z</time>
      </trkpt>
      <trkpt lat="47.3387" lon="-1.27962">
        <ele>61</ele>
        <time>2022-07-24T08:38:58Z</time>
      </trkpt>
      <trkpt lat="47.3387" lon="-1.27944">
        <ele>60</ele>
        <time>2022-07-24T08:39:00Z</time>
      </trkpt>
      <trkpt lat="47.3387" lon="-1.27925">
        <ele>60</ele>
        <time>2022-07-24T08:39:02Z</time>
      </trkpt>
      <trkpt lat="47.33871" lon="-1.27906">
        <ele>60</ele>
        <time>2022-07-24T08:39:04Z</time>
      </trkpt>
      <trkpt lat="47.33872" lon="-1.27888">
        <ele>60</ele>
        <time>2022-07-24T08:39:06Z</time>
      </trkpt>
      <trkpt lat="47.33872" lon="-1.27872">
        <ele>60</ele>
        <time>2022-07-24T08:39:08Z</time>
      </trkpt>
      <trkpt lat="47.33872" lon="-1.27856">
        <ele>61</ele>
        <time>2022-07-24T08:39:10Z</time>
      </trkpt>
      <trkpt lat="47.33873" lon="-1.2784">
        <ele>61</ele>
        <time>2022-07-24T08:39:12Z</time>
      </trkpt>
      <trkpt lat="47.33874" lon="-1.27825">
        <ele>61</ele>
        <time>2022-07-24T08:39:14Z</time>
      </trkpt>
      <trkpt lat="47.33875" lon="-1.27811">
        <ele>61</ele>
        <time>2022-07-24T08:39:16Z</time>
      </trkpt>
      <trkpt lat="47.33874" lon="-1.27795">
        <ele>60</ele>
        <time>2022-07-24T08:39:19Z</time>
      </trkpt>
      <trkpt lat="47.33863" lon="-1.2779">
        <ele>60</ele>
        <time>2022-07-24T08:39:22Z</time>
      </trkpt>
      <trkpt lat="47.33852" lon="-1.27786">
        <ele>61</ele>
        <time>2022-07-24T08:39:24Z</time>
      </trkpt>
      <trkpt lat="47.33841" lon="-1.27783">
        <ele>61</ele>
        <time>2022-07-24T08:39:26Z</time>
      </trkpt>
      <trkpt lat="47.33829" lon="-1.27779">
        <ele>60</ele>
        <time>2022-07-24T08:39:28Z</time>
      </trkpt>
      <trkpt lat="47.33816" lon="-1.27775">
        <ele>60</ele>
        <time>2022-07-24T08:39:30Z</time>
      </trkpt>
      <trkpt lat="47.33804" lon="-1.27771">
        <ele>60</ele>
        <time>2022-07-24T08:39:32Z</time>
      </trkpt>
      <trkpt lat="47.33792" lon="-1.27767">
        <ele>59</ele>
        <time>2022-07-24T08:39:34Z</time>
      </trkpt>
      <trkpt lat="47.3378" lon="-1.27762">
        <ele>60</ele>
        <time>2022-07-24T08:39:36Z</time>
      </trkpt>
      <trkpt lat="47.33769" lon="-1.27758">
        <ele>61</ele>
        <time>2022-07-24T08:39:38Z</time>
      </trkpt>
      <trkpt lat="47.33759" lon="-1.27755">
        <ele>61</ele>
        <time>2022-07-24T08:39:40Z</time>
      </trkpt>
      <trkpt lat="47.33747" lon="-1.27752">
        <ele>61</ele>
        <time>2022-07-24T08:39:43Z</time>
      </trkpt>
      <trkpt lat="47.33738" lon="-1.27745">
        <ele>61</ele>
        <time>2022-07-24T08:39:46Z</time>
      </trkpt>
      <trkpt lat="47.3374" lon="-1.27729">
        <ele>61</ele>
        <time>2022-07-24T08:39:50Z</time>
      </trkpt>
      <trkpt lat="47.3375" lon="-1.27719">
        <ele>61</ele>
        <time>2022-07-24T08:39:53Z</time>
      </trkpt>
      <trkpt lat="47.33762" lon="-1.2772">
        <ele>61</ele>
        <time>2022-07-24T08:39:56Z</time>
      </trkpt>
      <trkpt lat="47.33768" lon="-1.27732">
        <ele>61</ele>
        <time>2022-07-24T08:39:58Z</time>
      </trkpt>
      <trkpt lat="47.33776" lon="-1.27741">
        <ele>61</ele>
        <time>2022-07-24T08:40:00Z</time>
      </trkpt>
      <trkpt lat="47.33787" lon="-1.27745">
        <ele>61</ele>
        <time>2022-07-24T08:40:02Z</time>
      </trkpt>
      <trkpt lat="47.33796" lon="-1.27747">
        <ele>61</ele>
        <time>2022-07-24T08:40:04Z</time>
      </trkpt>
      <trkpt lat="47.33808" lon="-1.27751">
        <ele>61</ele>
        <time>2022-07-24T08:40:07Z</time>
      </trkpt>
      <trkpt lat="47.3382" lon="-1.27755">
        <ele>62</ele>
        <time>2022-07-24T08:40:10Z</time>
      </trkpt>
      <trkpt lat="47.33833" lon="-1.27759">
        <ele>62</ele>
        <time>2022-07-24T08:40:13Z</time>
      </trkpt>
      <trkpt lat="47.33842" lon="-1.27762">
        <ele>62</ele>
        <time>2022-07-24T08:40:15Z</time>
      </trkpt>
      <trkpt lat="47.33851" lon="-1.27765">
        <ele>62</ele>
        <time>2022-07-24T08:40:17Z</time>
      </trkpt>
      <trkpt lat="47.33862" lon="-1.27769">
        <ele>62</ele>
        <time>2022-07-24T08:40:19Z</time>
      </trkpt>
      <trkpt lat="47.33873" lon="-1.27773">
        <ele>63</ele>
        <time>2022-07-24T08:40:21Z</time>
      </trkpt>
      <trkpt lat="47.33886" lon="-1.27777">
        <ele>63</ele>
        <time>2022-07-24T08:40:23Z</time>
      </trkpt>
      <trkpt lat="47.339" lon="-1.27782">
        <ele>63</ele>
        <time>2022-07-24T08:40:25Z</time>
      </trkpt>
      <trkpt lat="47.33913" lon="-1.27785">
        <ele>63</ele>
        <time>2022-07-24T08:40:27Z</time>
      </trkpt>
      <trkpt lat="47.33925" lon="-1.27791">
        <ele>62</ele>
        <time>2022-07-24T08:40:29Z</time>
      </trkpt>
      <trkpt lat="47.33939" lon="-1.27796">
        <ele>63</ele>
        <time>2022-07-24T08:40:31Z</time>
      </trkpt>
      <trkpt lat="47.33952" lon="-1.27797">
        <ele>63</ele>
        <time>2022-07-24T08:40:33Z</time>
      </trkpt>
      <trkpt lat="47.33966" lon="-1.27801">
        <ele>63</ele>
        <time>2022-07-24T08:40:35Z</time>
      </trkpt>
      <trkpt lat="47.3398" lon="-1.27806">
        <ele>63</ele>
        <time>2022-07-24T08:40:37Z</time>
      </trkpt>
      <trkpt lat="47.33993" lon="-1.27811">
        <ele>63</ele>
        <time>2022-07-24T08:40:39Z</time>
      </trkpt>
      <trkpt lat="47.34006" lon="-1.27814">
        <ele>64</ele>
        <time>2022-07-24T08:40:41Z</time>
      </trkpt>
      <trkpt lat="47.3402" lon="-1.27818">
        <ele>64</ele>
        <time>2022-07-24T08:40:43Z</time>
      </trkpt>
      <trkpt lat="47.34033" lon="-1.27822">
        <ele>64</ele>
        <time>2022-07-24T08:40:45Z</time>
      </trkpt>
      <trkpt lat="47.34046" lon="-1.27826">
        <ele>64</ele>
        <time>2022-07-24T08:40:47Z</time>
      </trkpt>
      <trkpt lat="47.34059" lon="-1.27831">
        <ele>64</ele>
        <time>2022-07-24T08:40:49Z</time>
      </trkpt>
      <trkpt lat="47.34073" lon="-1.27835">
        <ele>64</ele>
        <time>2022-07-24T08:40:51Z</time>
      </trkpt>
      <trkpt lat="47.34086" lon="-1.27839">
        <ele>64</ele>
        <time>2022-07-24T08:40:53Z</time>
      </trkpt>
      <trkpt lat="47.34099" lon="-1.27844">
        <ele>64</ele>
        <time>2022-07-24T08:40:55Z</time>
      </trkpt>
      <trkpt lat="47.34111" lon="-1.27847">
        <ele>64</ele>
        <time>2022-07-24T08:40:57Z</time>
      </trkpt>
      <trkpt lat="47.34124" lon="-1.2785">
        <ele>64</ele>
        <time>2022-07-24T08:40:59Z</time>
      </trkpt>
      <trkpt lat="47.34138" lon="-1.27855">
        <ele>64</ele>
        <time>2022-07-24T08:41:01Z</time>
      </trkpt>
      <trkpt lat="47.3415" lon="-1.27859">
        <ele>65</ele>
        <time>2022-07-24T08:41:03Z</time>
      </trkpt>
      <trkpt lat="47.34163" lon="-1.27863">
        <ele>65</ele>
        <time>2022-07-24T08:41:05Z</time>
      </trkpt>
      <trkpt lat="47.34176" lon="-1.27867">
        <ele>65</ele>
        <time>2022-07-24T08:41:07Z</time>
      </trkpt>
      <trkpt lat="47.34189" lon="-1.27871">
        <ele>65</ele>
        <time>2022-07-24T08:41:09Z</time>
      </trkpt>
      <trkpt lat="47.34201" lon="-1.27875">
        <ele>65</ele>
        <time>2022-07-24T08:41:11Z</time>
      </trkpt>
      <trkpt lat="47.34214" lon="-1.27879">
        <ele>66</ele>
        <time>2022-07-24T08:41:13Z</time>
      </trkpt>
      <trkpt lat="47.34228" lon="-1.27883">
        <ele>65</ele>
        <time>2022-07-24T08:41:15Z</time>
      </trkpt>
      <trkpt lat="47.3424" lon="-1.27887">
        <ele>65</ele>
        <time>2022-07-24T08:41:17Z</time>
      </trkpt>
      <trkpt lat="47.34253" lon="-1.27891">
        <ele>65</ele>
        <time>2022-07-24T08:41:19Z</time>
      </trkpt>
      <trkpt lat="47.34266" lon="-1.27896">
        <ele>65</ele>
        <time>2022-07-24T08:41:21Z</time>
      </trkpt>
      <trkpt lat="47.3428" lon="-1.279">
        <ele>65</ele>
        <time>2022-07-24T08:41:23Z</time>
      </trkpt>
      <trkpt lat="47.34293" lon="-1.27904">
        <ele>65</ele>
        <time>2022-07-24T08:41:25Z</time>
      </trkpt>
      <trkpt lat="47.34306" lon="-1.27908">
        <ele>65</ele>
        <time>2022-07-24T08:41:27Z</time>
      </trkpt>
      <trkpt lat="47.34319" lon="-1.27912">
        <ele>65</ele>
        <time>2022-07-24T08:41:29Z</time>
      </trkpt>
      <trkpt lat="47.34333" lon="-1.27916">
        <ele>65</ele>
        <time>2022-07-24T08:41:31Z</time>
      </trkpt>
      <trkpt lat="47.34346" lon="-1.2792">
        <ele>65</ele>
        <time>2022-07-24T08:41:33Z</time>
      </trkpt>
      <trkpt lat="47.34359" lon="-1.27925">
        <ele>65</ele>
        <time>2022-07-24T08:41:35Z</time>
      </trkpt>
      <trkpt lat="47.34372" lon="-1.27929">
        <ele>65</ele>
        <time>2022-07-24T08:41:37Z</time>
      </trkpt>
      <trkpt lat="47.34385" lon="-1.27933">
        <ele>65</ele>
        <time>2022-07-24T08:41:39Z</time>
      </trkpt>
      <trkpt lat="47.34399" lon="-1.27937">
        <ele>65</ele>
        <time>2022-07-24T08:41:41Z</time>
      </trkpt>
      <trkpt lat="47.34411" lon="-1.27944">
        <ele>65</ele>
        <time>2022-07-24T08:41:43Z</time>
      </trkpt>
      <trkpt lat="47.34424" lon="-1.27952">
        <ele>65</ele>
        <time>2022-07-24T08:41:45Z</time>
      </trkpt>
      <trkpt lat="47.34436" lon="-1.27959">
        <ele>65</ele>
        <time>2022-07-24T08:41:47Z</time>
      </trkpt>
      <trkpt lat="47.34447" lon="-1.27968">
        <ele>66</ele>
        <time>2022-07-24T08:41:49Z</time>
      </trkpt>
      <trkpt lat="47.34458" lon="-1.27978">
        <ele>66</ele>
        <time>2022-07-24T08:41:51Z</time>
      </trkpt>
      <trkpt lat="47.34469" lon="-1.27991">
        <ele>65</ele>
        <time>2022-07-24T08:41:53Z</time>
      </trkpt>
      <trkpt lat="47.3448" lon="-1.28007">
        <ele>64</ele>
        <time>2022-07-24T08:41:55Z</time>
      </trkpt>
      <trkpt lat="47.34491" lon="-1.28024">
        <ele>63</ele>
        <time>2022-07-24T08:41:57Z</time>
      </trkpt>
      <trkpt lat="47.34501" lon="-1.28044">
        <ele>63</ele>
        <time>2022-07-24T08:41:59Z</time>
      </trkpt>
      <trkpt lat="47.34509" lon="-1.28066">
        <ele>62</ele>
        <time>2022-07-24T08:42:01Z</time>
      </trkpt>
      <trkpt lat="47.34516" lon="-1.28089">
        <ele>61</ele>
        <time>2022-07-24T08:42:03Z</time>
      </trkpt>
      <trkpt lat="47.34519" lon="-1.28102">
        <ele>60</ele>
        <time>2022-07-24T08:42:04Z</time>
      </trkpt>
      <trkpt lat="47.34521" lon="-1.28115">
        <ele>60</ele>
        <time>2022-07-24T08:42:05Z</time>
      </trkpt>
      <trkpt lat="47.34523" lon="-1.28129">
        <ele>59</ele>
        <time>2022-07-24T08:42:06Z</time>
      </trkpt>
      <trkpt lat="47.34524" lon="-1.28143">
        <ele>59</ele>
        <time>2022-07-24T08:42:07Z</time>
      </trkpt>
      <trkpt lat="47.34525" lon="-1.28157">
        <ele>58</ele>
        <time>2022-07-24T08:42:08Z</time>
      </trkpt>
      <trkpt lat="47.34526" lon="-1.28171">
        <ele>58</ele>
        <time>2022-07-24T08:42:09Z</time>
      </trkpt>
      <trkpt lat="47.34526" lon="-1.28196">
        <ele>58</ele>
        <time>2022-07-24T08:42:11Z</time>
      </trkpt>
      <trkpt lat="47.34524" lon="-1.28222">
        <ele>58</ele>
        <time>2022-07-24T08:42:13Z</time>
      </trkpt>
      <trkpt lat="47.34522" lon="-1.28246">
        <ele>58</ele>
        <time>2022-07-24T08:42:15Z</time>
      </trkpt>
      <trkpt lat="47.34519" lon="-1.28269">
        <ele>58</ele>
        <time>2022-07-24T08:42:17Z</time>
      </trkpt>
      <trkpt lat="47.34517" lon="-1.28292">
        <ele>57</ele>
        <time>2022-07-24T08:42:19Z</time>
      </trkpt>
      <trkpt lat="47.34515" lon="-1.28315">
        <ele>57</ele>
        <time>2022-07-24T08:42:21Z</time>
      </trkpt>
      <trkpt lat="47.34514" lon="-1.28338">
        <ele>57</ele>
        <time>2022-07-24T08:42:23Z</time>
      </trkpt>
      <trkpt lat="47.34513" lon="-1.2836">
        <ele>57</ele>
        <time>2022-07-24T08:42:25Z</time>
      </trkpt>
      <trkpt lat="47.34514" lon="-1.28382">
        <ele>57</ele>
        <time>2022-07-24T08:42:27Z</time>
      </trkpt>
      <trkpt lat="47.34517" lon="-1.28404">
        <ele>57</ele>
        <time>2022-07-24T08:42:29Z</time>
      </trkpt>
      <trkpt lat="47.34522" lon="-1.28425">
        <ele>57</ele>
        <time>2022-07-24T08:42:31Z</time>
      </trkpt>
      <trkpt lat="47.34528" lon="-1.28445">
        <ele>57</ele>
        <time>2022-07-24T08:42:33Z</time>
      </trkpt>
      <trkpt lat="47.34536" lon="-1.28463">
        <ele>57</ele>
        <time>2022-07-24T08:42:35Z</time>
      </trkpt>
      <trkpt lat="47.34544" lon="-1.2848">
        <ele>57</ele>
        <time>2022-07-24T08:42:37Z</time>
      </trkpt>
      <trkpt lat="47.34553" lon="-1.28496">
        <ele>57</ele>
        <time>2022-07-24T08:42:39Z</time>
      </trkpt>
      <trkpt lat="47.34563" lon="-1.28511">
        <ele>57</ele>
        <time>2022-07-24T08:42:41Z</time>
      </trkpt>
      <trkpt lat="47.34573" lon="-1.28525">
        <ele>57</ele>
        <time>2022-07-24T08:42:43Z</time>
      </trkpt>
      <trkpt lat="47.34585" lon="-1.28536">
        <ele>57</ele>
        <time>2022-07-24T08:42:45Z</time>
      </trkpt>
      <trkpt lat="47.34597" lon="-1.28548">
        <ele>57</ele>
        <time>2022-07-24T08:42:47Z</time>
      </trkpt>
      <trkpt lat="47.34608" lon="-1.28557">
        <ele>58</ele>
        <time>2022-07-24T08:42:49Z</time>
      </trkpt>
      <trkpt lat="47.34619" lon="-1.28567">
        <ele>59</ele>
        <time>2022-07-24T08:42:51Z</time>
      </trkpt>
      <trkpt lat="47.34629" lon="-1.28575">
        <ele>59</ele>
        <time>2022-07-24T08:42:53Z</time>
      </trkpt>
      <trkpt lat="47.34639" lon="-1.28583">
        <ele>59</ele>
        <time>2022-07-24T08:42:55Z</time>
      </trkpt>
      <trkpt lat="47.34647" lon="-1.28591">
        <ele>60</ele>
        <time>2022-07-24T08:42:58Z</time>
      </trkpt>
      <trkpt lat="47.34647" lon="-1.28608">
        <ele>60</ele>
        <time>2022-07-24T08:43:02Z</time>
      </trkpt>
      <trkpt lat="47.3464" lon="-1.28619">
        <ele>60</ele>
        <time>2022-07-24T08:43:04Z</time>
      </trkpt>
      <trkpt lat="47.34631" lon="-1.28632">
        <ele>59</ele>
        <time>2022-07-24T08:43:06Z</time>
      </trkpt>
      <trkpt lat="47.34622" lon="-1.28647">
        <ele>59</ele>
        <time>2022-07-24T08:43:08Z</time>
      </trkpt>
      <trkpt lat="47.34616" lon="-1.28665">
        <ele>59</ele>
        <time>2022-07-24T08:43:10Z</time>
      </trkpt>
      <trkpt lat="47.34608" lon="-1.28683">
        <ele>58</ele>
        <time>2022-07-24T08:43:12Z</time>
      </trkpt>
      <trkpt lat="47.34601" lon="-1.28699">
        <ele>58</ele>
        <time>2022-07-24T08:43:14Z</time>
      </trkpt>
      <trkpt lat="47.34594" lon="-1.28715">
        <ele>58</ele>
        <time>2022-07-24T08:43:16Z</time>
      </trkpt>
      <trkpt lat="47.34588" lon="-1.28732">
        <ele>58</ele>
        <time>2022-07-24T08:43:18Z</time>
      </trkpt>
      <trkpt lat="47.34583" lon="-1.28751">
        <ele>58</ele>
        <time>2022-07-24T08:43:20Z</time>
      </trkpt>
      <trkpt lat="47.34578" lon="-1.28769">
        <ele>59</ele>
        <time>2022-07-24T08:43:22Z</time>
      </trkpt>
      <trkpt lat="47.34573" lon="-1.28787">
        <ele>59</ele>
        <time>2022-07-24T08:43:24Z</time>
      </trkpt>
      <trkpt lat="47.34568" lon="-1.28805">
        <ele>59</ele>
        <time>2022-07-24T08:43:26Z</time>
      </trkpt>
      <trkpt lat="47.34563" lon="-1.28822">
        <ele>59</ele>
        <time>2022-07-24T08:43:28Z</time>
      </trkpt>
      <trkpt lat="47.34559" lon="-1.28839">
        <ele>59</ele>
        <time>2022-07-24T08:43:30Z</time>
      </trkpt>
      <trkpt lat="47.34557" lon="-1.28856">
        <ele>59</ele>
        <time>2022-07-24T08:43:32Z</time>
      </trkpt>
      <trkpt lat="47.34552" lon="-1.28871">
        <ele>59</ele>
        <time>2022-07-24T08:43:34Z</time>
      </trkpt>
      <trkpt lat="47.34547" lon="-1.28885">
        <ele>59</ele>
        <time>2022-07-24T08:43:36Z</time>
      </trkpt>
      <trkpt lat="47.34541" lon="-1.28899">
        <ele>60</ele>
        <time>2022-07-24T08:43:38Z</time>
      </trkpt>
      <trkpt lat="47.34534" lon="-1.28911">
        <ele>60</ele>
        <time>2022-07-24T08:43:40Z</time>
      </trkpt>
      <trkpt lat="47.34527" lon="-1.28925">
        <ele>60</ele>
        <time>2022-07-24T08:43:42Z</time>
      </trkpt>
      <trkpt lat="47.34519" lon="-1.2894">
        <ele>61</ele>
        <time>2022-07-24T08:43:44Z</time>
      </trkpt>
      <trkpt lat="47.34511" lon="-1.28956">
        <ele>62</ele>
        <time>2022-07-24T08:43:46Z</time>
      </trkpt>
      <trkpt lat="47.34504" lon="-1.28972">
        <ele>62</ele>
        <time>2022-07-24T08:43:48Z</time>
      </trkpt>
      <trkpt lat="47.34497" lon="-1.28989">
        <ele>62</ele>
        <time>2022-07-24T08:43:50Z</time>
      </trkpt>
      <trkpt lat="47.34488" lon="-1.29008">
        <ele>61</ele>
        <time>2022-07-24T08:43:52Z</time>
      </trkpt>
      <trkpt lat="47.34481" lon="-1.29028">
        <ele>61</ele>
        <time>2022-07-24T08:43:54Z</time>
      </trkpt>
      <trkpt lat="47.34475" lon="-1.29049">
        <ele>61</ele>
        <time>2022-07-24T08:43:56Z</time>
      </trkpt>
      <trkpt lat="47.34469" lon="-1.29071">
        <ele>60</ele>
        <time>2022-07-24T08:43:58Z</time>
      </trkpt>
      <trkpt lat="47.34462" lon="-1.29092">
        <ele>60</ele>
        <time>2022-07-24T08:44:00Z</time>
      </trkpt>
      <trkpt lat="47.34458" lon="-1.29113">
        <ele>60</ele>
        <time>2022-07-24T08:44:02Z</time>
      </trkpt>
      <trkpt lat="47.34451" lon="-1.29128">
        <ele>59</ele>
        <time>2022-07-24T08:44:04Z</time>
      </trkpt>
      <trkpt lat="47.3444" lon="-1.2914">
        <ele>58</ele>
        <time>2022-07-24T08:44:06Z</time>
      </trkpt>
      <trkpt lat="47.34439" lon="-1.29161">
        <ele>59</ele>
        <time>2022-07-24T08:44:08Z</time>
      </trkpt>
      <trkpt lat="47.34439" lon="-1.29183">
        <ele>59</ele>
        <time>2022-07-24T08:44:10Z</time>
      </trkpt>
      <trkpt lat="47.3444" lon="-1.29206">
        <ele>59</ele>
        <time>2022-07-24T08:44:12Z</time>
      </trkpt>
      <trkpt lat="47.3444" lon="-1.29229">
        <ele>58</ele>
        <time>2022-07-24T08:44:14Z</time>
      </trkpt>
      <trkpt lat="47.3444" lon="-1.29252">
        <ele>58</ele>
        <time>2022-07-24T08:44:16Z</time>
      </trkpt>
      <trkpt lat="47.34441" lon="-1.29275">
        <ele>58</ele>
        <time>2022-07-24T08:44:18Z</time>
      </trkpt>
      <trkpt lat="47.34441" lon="-1.29297">
        <ele>57</ele>
        <time>2022-07-24T08:44:20Z</time>
      </trkpt>
      <trkpt lat="47.34442" lon="-1.2932">
        <ele>57</ele>
        <time>2022-07-24T08:44:22Z</time>
      </trkpt>
      <trkpt lat="47.34442" lon="-1.29343">
        <ele>56</ele>
        <time>2022-07-24T08:44:24Z</time>
      </trkpt>
      <trkpt lat="47.34443" lon="-1.29365">
        <ele>56</ele>
        <time>2022-07-24T08:44:26Z</time>
      </trkpt>
      <trkpt lat="47.34443" lon="-1.29388">
        <ele>56</ele>
        <time>2022-07-24T08:44:28Z</time>
      </trkpt>
      <trkpt lat="47.34443" lon="-1.29411">
        <ele>56</ele>
        <time>2022-07-24T08:44:30Z</time>
      </trkpt>
      <trkpt lat="47.34442" lon="-1.29433">
        <ele>56</ele>
        <time>2022-07-24T08:44:32Z</time>
      </trkpt>
      <trkpt lat="47.34439" lon="-1.29455">
        <ele>56</ele>
        <time>2022-07-24T08:44:34Z</time>
      </trkpt>
      <trkpt lat="47.34436" lon="-1.29477">
        <ele>55</ele>
        <time>2022-07-24T08:44:36Z</time>
      </trkpt>
      <trkpt lat="47.34434" lon="-1.295">
        <ele>54</ele>
        <time>2022-07-24T08:44:38Z</time>
      </trkpt>
      <trkpt lat="47.34431" lon="-1.29523">
        <ele>54</ele>
        <time>2022-07-24T08:44:40Z</time>
      </trkpt>
      <trkpt lat="47.34428" lon="-1.29545">
        <ele>54</ele>
        <time>2022-07-24T08:44:42Z</time>
      </trkpt>
      <trkpt lat="47.34425" lon="-1.29566">
        <ele>54</ele>
        <time>2022-07-24T08:44:44Z</time>
      </trkpt>
      <trkpt lat="47.34422" lon="-1.29588">
        <ele>53</ele>
        <time>2022-07-24T08:44:46Z</time>
      </trkpt>
      <trkpt lat="47.34419" lon="-1.2961">
        <ele>53</ele>
        <time>2022-07-24T08:44:48Z</time>
      </trkpt>
      <trkpt lat="47.34415" lon="-1.29631">
        <ele>53</ele>
        <time>2022-07-24T08:44:50Z</time>
      </trkpt>
      <trkpt lat="47.34409" lon="-1.29651">
        <ele>52</ele>
        <time>2022-07-24T08:44:52Z</time>
      </trkpt>
      <trkpt lat="47.34401" lon="-1.29669">
        <ele>52</ele>
        <time>2022-07-24T08:44:54Z</time>
      </trkpt>
      <trkpt lat="47.34392" lon="-1.29686">
        <ele>52</ele>
        <time>2022-07-24T08:44:56Z</time>
      </trkpt>
      <trkpt lat="47.34383" lon="-1.29703">
        <ele>52</ele>
        <time>2022-07-24T08:44:58Z</time>
      </trkpt>
      <trkpt lat="47.34374" lon="-1.2972">
        <ele>52</ele>
        <time>2022-07-24T08:45:00Z</time>
      </trkpt>
      <trkpt lat="47.34366" lon="-1.29737">
        <ele>52</ele>
        <time>2022-07-24T08:45:02Z</time>
      </trkpt>
      <trkpt lat="47.34358" lon="-1.29754">
        <ele>52</ele>
        <time>2022-07-24T08:45:04Z</time>
      </trkpt>
      <trkpt lat="47.34349" lon="-1.29772">
        <ele>52</ele>
        <time>2022-07-24T08:45:06Z</time>
      </trkpt>
      <trkpt lat="47.34342" lon="-1.29788">
        <ele>53</ele>
        <time>2022-07-24T08:45:08Z</time>
      </trkpt>
      <trkpt lat="47.34334" lon="-1.29806">
        <ele>53</ele>
        <time>2022-07-24T08:45:10Z</time>
      </trkpt>
      <trkpt lat="47.34326" lon="-1.29824">
        <ele>53</ele>
        <time>2022-07-24T08:45:12Z</time>
      </trkpt>
      <trkpt lat="47.34319" lon="-1.29843">
        <ele>53</ele>
        <time>2022-07-24T08:45:14Z</time>
      </trkpt>
      <trkpt lat="47.34312" lon="-1.29862">
        <ele>53</ele>
        <time>2022-07-24T08:45:16Z</time>
      </trkpt>
      <trkpt lat="47.34306" lon="-1.29881">
        <ele>53</ele>
        <time>2022-07-24T08:45:18Z</time>
      </trkpt>
      <trkpt lat="47.343" lon="-1.29899">
        <ele>53</ele>
        <time>2022-07-24T08:45:20Z</time>
      </trkpt>
      <trkpt lat="47.34293" lon="-1.29917">
        <ele>54</ele>
        <time>2022-07-24T08:45:22Z</time>
      </trkpt>
      <trkpt lat="47.34287" lon="-1.29936">
        <ele>54</ele>
        <time>2022-07-24T08:45:24Z</time>
      </trkpt>
      <trkpt lat="47.34282" lon="-1.29954">
        <ele>54</ele>
        <time>2022-07-24T08:45:26Z</time>
      </trkpt>
      <trkpt lat="47.34277" lon="-1.29972">
        <ele>54</ele>
        <time>2022-07-24T08:45:28Z</time>
      </trkpt>
      <trkpt lat="47.34273" lon="-1.29989">
        <ele>54</ele>
        <time>2022-07-24T08:45:30Z</time>
      </trkpt>
      <trkpt lat="47.3427" lon="-1.30006">
        <ele>55</ele>
        <time>2022-07-24T08:45:32Z</time>
      </trkpt>
      <trkpt lat="47.34264" lon="-1.30024">
        <ele>54</ele>
        <time>2022-07-24T08:45:34Z</time>
      </trkpt>
      <trkpt lat="47.3426" lon="-1.30044">
        <ele>55</ele>
        <time>2022-07-24T08:45:36Z</time>
      </trkpt>
      <trkpt lat="47.34255" lon="-1.30065">
        <ele>55</ele>
        <time>2022-07-24T08:45:38Z</time>
      </trkpt>
      <trkpt lat="47.34251" lon="-1.30084">
        <ele>55</ele>
        <time>2022-07-24T08:45:40Z</time>
      </trkpt>
      <trkpt lat="47.34245" lon="-1.30103">
        <ele>55</ele>
        <time>2022-07-24T08:45:42Z</time>
      </trkpt>
      <trkpt lat="47.3424" lon="-1.3012">
        <ele>55</ele>
        <time>2022-07-24T08:45:44Z</time>
      </trkpt>
      <trkpt lat="47.34234" lon="-1.30139">
        <ele>55</ele>
        <time>2022-07-24T08:45:46Z</time>
      </trkpt>
      <trkpt lat="47.34227" lon="-1.30167">
        <ele>55</ele>
        <time>2022-07-24T08:45:49Z</time>
      </trkpt>
      <trkpt lat="47.34218" lon="-1.30195">
        <ele>56</ele>
        <time>2022-07-24T08:45:52Z</time>
      </trkpt>
      <trkpt lat="47.34212" lon="-1.30213">
        <ele>55</ele>
        <time>2022-07-24T08:45:54Z</time>
      </trkpt>
      <trkpt lat="47.34206" lon="-1.30231">
        <ele>56</ele>
        <time>2022-07-24T08:45:56Z</time>
      </trkpt>
      <trkpt lat="47.342" lon="-1.30247">
        <ele>56</ele>
        <time>2022-07-24T08:45:58Z</time>
      </trkpt>
      <trkpt lat="47.3419" lon="-1.30272">
        <ele>56</ele>
        <time>2022-07-24T08:46:01Z</time>
      </trkpt>
      <trkpt lat="47.34183" lon="-1.30287">
        <ele>56</ele>
        <time>2022-07-24T08:46:03Z</time>
      </trkpt>
      <trkpt lat="47.34177" lon="-1.30303">
        <ele>57</ele>
        <time>2022-07-24T08:46:05Z</time>
      </trkpt>
      <trkpt lat="47.3417" lon="-1.30319">
        <ele>57</ele>
        <time>2022-07-24T08:46:07Z</time>
      </trkpt>
      <trkpt lat="47.34164" lon="-1.30333">
        <ele>57</ele>
        <time>2022-07-24T08:46:09Z</time>
      </trkpt>
      <trkpt lat="47.34159" lon="-1.30349">
        <ele>58</ele>
        <time>2022-07-24T08:46:11Z</time>
      </trkpt>
      <trkpt lat="47.34152" lon="-1.30364">
        <ele>59</ele>
        <time>2022-07-24T08:46:13Z</time>
      </trkpt>
      <trkpt lat="47.34146" lon="-1.3038">
        <ele>59</ele>
        <time>2022-07-24T08:46:15Z</time>
      </trkpt>
      <trkpt lat="47.3414" lon="-1.30396">
        <ele>59</ele>
        <time>2022-07-24T08:46:17Z</time>
      </trkpt>
      <trkpt lat="47.34133" lon="-1.30411">
        <ele>59</ele>
        <time>2022-07-24T08:46:19Z</time>
      </trkpt>
      <trkpt lat="47.34127" lon="-1.30426">
        <ele>59</ele>
        <time>2022-07-24T08:46:21Z</time>
      </trkpt>
      <trkpt lat="47.3412" lon="-1.3044">
        <ele>59</ele>
        <time>2022-07-24T08:46:23Z</time>
      </trkpt>
      <trkpt lat="47.34113" lon="-1.30455">
        <ele>59</ele>
        <time>2022-07-24T08:46:25Z</time>
      </trkpt>
      <trkpt lat="47.34107" lon="-1.3047">
        <ele>58</ele>
        <time>2022-07-24T08:46:27Z</time>
      </trkpt>
      <trkpt lat="47.341" lon="-1.30485">
        <ele>58</ele>
        <time>2022-07-24T08:46:29Z</time>
      </trkpt>
      <trkpt lat="47.34093" lon="-1.305">
        <ele>58</ele>
        <time>2022-07-24T08:46:31Z</time>
      </trkpt>
      <trkpt lat="47.34086" lon="-1.30516">
        <ele>58</ele>
        <time>2022-07-24T08:46:33Z</time>
      </trkpt>
      <trkpt lat="47.34079" lon="-1.30534">
        <ele>57</ele>
        <time>2022-07-24T08:46:35Z</time>
      </trkpt>
      <trkpt lat="47.3407" lon="-1.30551">
        <ele>57</ele>
        <time>2022-07-24T08:46:37Z</time>
      </trkpt>
      <trkpt lat="47.34061" lon="-1.30567">
        <ele>57</ele>
        <time>2022-07-24T08:46:39Z</time>
      </trkpt>
      <trkpt lat="47.34052" lon="-1.30582">
        <ele>57</ele>
        <time>2022-07-24T08:46:41Z</time>
      </trkpt>
      <trkpt lat="47.34044" lon="-1.30598">
        <ele>57</ele>
        <time>2022-07-24T08:46:43Z</time>
      </trkpt>
      <trkpt lat="47.34034" lon="-1.30615">
        <ele>57</ele>
        <time>2022-07-24T08:46:45Z</time>
      </trkpt>
      <trkpt lat="47.34026" lon="-1.30632">
        <ele>56</ele>
        <time>2022-07-24T08:46:47Z</time>
      </trkpt>
      <trkpt lat="47.34016" lon="-1.30648">
        <ele>57</ele>
        <time>2022-07-24T08:46:49Z</time>
      </trkpt>
      <trkpt lat="47.34006" lon="-1.30661">
        <ele>58</ele>
        <time>2022-07-24T08:46:51Z</time>
      </trkpt>
      <trkpt lat="47.33997" lon="-1.30674">
        <ele>58</ele>
        <time>2022-07-24T08:46:53Z</time>
      </trkpt>
      <trkpt lat="47.33987" lon="-1.30687">
        <ele>57</ele>
        <time>2022-07-24T08:46:55Z</time>
      </trkpt>
      <trkpt lat="47.33978" lon="-1.30694">
        <ele>57</ele>
        <time>2022-07-24T08:46:57Z</time>
      </trkpt>
      <trkpt lat="47.33967" lon="-1.30686">
        <ele>56</ele>
        <time>2022-07-24T08:47:00Z</time>
      </trkpt>
      <trkpt lat="47.3396" lon="-1.30676">
        <ele>58</ele>
        <time>2022-07-24T08:47:04Z</time>
      </trkpt>
      <trkpt lat="47.33952" lon="-1.30687">
        <ele>60</ele>
        <time>2022-07-24T08:47:16Z</time>
      </trkpt>
      <trkpt lat="47.33944" lon="-1.30701">
        <ele>60</ele>
        <time>2022-07-24T08:47:20Z</time>
      </trkpt>
      <trkpt lat="47.33936" lon="-1.30712">
        <ele>60</ele>
        <time>2022-07-24T08:47:23Z</time>
      </trkpt>
      <trkpt lat="47.33929" lon="-1.30723">
        <ele>60</ele>
        <time>2022-07-24T08:47:26Z</time>
      </trkpt>
      <trkpt lat="47.33923" lon="-1.30734">
        <ele>60</ele>
        <time>2022-07-24T08:47:29Z</time>
      </trkpt>
      <trkpt lat="47.33916" lon="-1.30744">
        <ele>60</ele>
        <time>2022-07-24T08:47:32Z</time>
      </trkpt>
      <trkpt lat="47.33909" lon="-1.30752">
        <ele>60</ele>
        <time>2022-07-24T08:47:35Z</time>
      </trkpt>
      <trkpt lat="47.33898" lon="-1.30762">
        <ele>59</ele>
        <time>2022-07-24T08:47:38Z</time>
      </trkpt>
      <trkpt lat="47.33888" lon="-1.30773">
        <ele>59</ele>
        <time>2022-07-24T08:47:40Z</time>
      </trkpt>
      <trkpt lat="47.33878" lon="-1.30784">
        <ele>59</ele>
        <time>2022-07-24T08:47:42Z</time>
      </trkpt>
      <trkpt lat="47.3387" lon="-1.30793">
        <ele>59</ele>
        <time>2022-07-24T08:47:44Z</time>
      </trkpt>
      <trkpt lat="47.33862" lon="-1.30801">
        <ele>59</ele>
        <time>2022-07-24T08:47:46Z</time>
      </trkpt>
      <trkpt lat="47.33851" lon="-1.30811">
        <ele>58</ele>
        <time>2022-07-24T08:47:49Z</time>
      </trkpt>
      <trkpt lat="47.33841" lon="-1.30822">
        <ele>58</ele>
        <time>2022-07-24T08:47:52Z</time>
      </trkpt>
      <trkpt lat="47.33832" lon="-1.30831">
        <ele>58</ele>
        <time>2022-07-24T08:47:55Z</time>
      </trkpt>
      <trkpt lat="47.33823" lon="-1.30839">
        <ele>58</ele>
        <time>2022-07-24T08:47:58Z</time>
      </trkpt>
      <trkpt lat="47.33815" lon="-1.30848">
        <ele>59</ele>
        <time>2022-07-24T08:48:01Z</time>
      </trkpt>
      <trkpt lat="47.33805" lon="-1.30855">
        <ele>60</ele>
        <time>2022-07-24T08:48:04Z</time>
      </trkpt>
      <trkpt lat="47.33795" lon="-1.30864">
        <ele>61</ele>
        <time>2022-07-24T08:48:07Z</time>
      </trkpt>
      <trkpt lat="47.33785" lon="-1.30873">
        <ele>61</ele>
        <time>2022-07-24T08:48:10Z</time>
      </trkpt>
      <trkpt lat="47.33777" lon="-1.30882">
        <ele>61</ele>
        <time>2022-07-24T08:48:13Z</time>
      </trkpt>
      <trkpt lat="47.33768" lon="-1.30892">
        <ele>62</ele>
        <time>2022-07-24T08:48:16Z</time>
      </trkpt>
      <trkpt lat="47.3376" lon="-1.30901">
        <ele>61</ele>
        <time>2022-07-24T08:48:19Z</time>
      </trkpt>
      <trkpt lat="47.33752" lon="-1.30911">
        <ele>61</ele>
        <time>2022-07-24T08:48:22Z</time>
      </trkpt>
      <trkpt lat="47.33743" lon="-1.30921">
        <ele>62</ele>
        <time>2022-07-24T08:48:25Z</time>
      </trkpt>
      <trkpt lat="47.33735" lon="-1.30929">
        <ele>62</ele>
        <time>2022-07-24T08:48:28Z</time>
      </trkpt>
      <trkpt lat="47.33728" lon="-1.30938">
        <ele>62</ele>
        <time>2022-07-24T08:48:32Z</time>
      </trkpt>
      <trkpt lat="47.33721" lon="-1.30947">
        <ele>61</ele>
        <time>2022-07-24T08:48:35Z</time>
      </trkpt>
      <trkpt lat="47.33712" lon="-1.3096">
        <ele>60</ele>
        <time>2022-07-24T08:48:38Z</time>
      </trkpt>
      <trkpt lat="47.33703" lon="-1.30971">
        <ele>59</ele>
        <time>2022-07-24T08:48:40Z</time>
      </trkpt>
      <trkpt lat="47.33693" lon="-1.30982">
        <ele>59</ele>
        <time>2022-07-24T08:48:42Z</time>
      </trkpt>
      <trkpt lat="47.33682" lon="-1.30988">
        <ele>59</ele>
        <time>2022-07-24T08:48:44Z</time>
      </trkpt>
      <trkpt lat="47.33676" lon="-1.30998">
        <ele>59</ele>
        <time>2022-07-24T08:48:46Z</time>
      </trkpt>
      <trkpt lat="47.3367" lon="-1.3101">
        <ele>59</ele>
        <time>2022-07-24T08:48:48Z</time>
      </trkpt>
      <trkpt lat="47.33661" lon="-1.31023">
        <ele>59</ele>
        <time>2022-07-24T08:48:50Z</time>
      </trkpt>
      <trkpt lat="47.33651" lon="-1.31037">
        <ele>59</ele>
        <time>2022-07-24T08:48:52Z</time>
      </trkpt>
      <trkpt lat="47.33642" lon="-1.3105">
        <ele>58</ele>
        <time>2022-07-24T08:48:54Z</time>
      </trkpt>
      <trkpt lat="47.33632" lon="-1.31065">
        <ele>58</ele>
        <time>2022-07-24T08:48:56Z</time>
      </trkpt>
      <trkpt lat="47.33622" lon="-1.3108">
        <ele>59</ele>
        <time>2022-07-24T08:48:58Z</time>
      </trkpt>
      <trkpt lat="47.33614" lon="-1.31095">
        <ele>58</ele>
        <time>2022-07-24T08:49:00Z</time>
      </trkpt>
      <trkpt lat="47.33604" lon="-1.3111">
        <ele>57</ele>
        <time>2022-07-24T08:49:02Z</time>
      </trkpt>
      <trkpt lat="47.33595" lon="-1.31126">
        <ele>57</ele>
        <time>2022-07-24T08:49:04Z</time>
      </trkpt>
      <trkpt lat="47.33586" lon="-1.31142">
        <ele>57</ele>
        <time>2022-07-24T08:49:06Z</time>
      </trkpt>
      <trkpt lat="47.33577" lon="-1.31158">
        <ele>57</ele>
        <time>2022-07-24T08:49:08Z</time>
      </trkpt>
      <trkpt lat="47.33568" lon="-1.31173">
        <ele>57</ele>
        <time>2022-07-24T08:49:10Z</time>
      </trkpt>
      <trkpt lat="47.3356" lon="-1.31189">
        <ele>56</ele>
        <time>2022-07-24T08:49:12Z</time>
      </trkpt>
      <trkpt lat="47.33554" lon="-1.31204">
        <ele>55</ele>
        <time>2022-07-24T08:49:14Z</time>
      </trkpt>
      <trkpt lat="47.33546" lon="-1.31219">
        <ele>55</ele>
        <time>2022-07-24T08:49:16Z</time>
      </trkpt>
      <trkpt lat="47.33539" lon="-1.31233">
        <ele>55</ele>
        <time>2022-07-24T08:49:18Z</time>
      </trkpt>
      <trkpt lat="47.33531" lon="-1.31247">
        <ele>55</ele>
        <time>2022-07-24T08:49:20Z</time>
      </trkpt>
      <trkpt lat="47.33524" lon="-1.31261">
        <ele>54</ele>
        <time>2022-07-24T08:49:22Z</time>
      </trkpt>
      <trkpt lat="47.33517" lon="-1.31276">
        <ele>54</ele>
        <time>2022-07-24T08:49:24Z</time>
      </trkpt>
      <trkpt lat="47.33511" lon="-1.31289">
        <ele>53</ele>
        <time>2022-07-24T08:49:26Z</time>
      </trkpt>
      <trkpt lat="47.33505" lon="-1.31303">
        <ele>53</ele>
        <time>2022-07-24T08:49:28Z</time>
      </trkpt>
      <trkpt lat="47.33498" lon="-1.31314">
        <ele>54</ele>
        <time>2022-07-24T08:49:30Z</time>
      </trkpt>
      <trkpt lat="47.33492" lon="-1.31325">
        <ele>54</ele>
        <time>2022-07-24T08:49:32Z</time>
      </trkpt>
      <trkpt lat="47.33486" lon="-1.31337">
        <ele>54</ele>
        <time>2022-07-24T08:49:34Z</time>
      </trkpt>
      <trkpt lat="47.33478" lon="-1.31349">
        <ele>54</ele>
        <time>2022-07-24T08:49:36Z</time>
      </trkpt>
      <trkpt lat="47.33471" lon="-1.31363">
        <ele>54</ele>
        <time>2022-07-24T08:49:38Z</time>
      </trkpt>
      <trkpt lat="47.33464" lon="-1.31376">
        <ele>55</ele>
        <time>2022-07-24T08:49:40Z</time>
      </trkpt>
      <trkpt lat="47.33458" lon="-1.31388">
        <ele>55</ele>
        <time>2022-07-24T08:49:42Z</time>
      </trkpt>
      <trkpt lat="47.33452" lon="-1.31401">
        <ele>55</ele>
        <time>2022-07-24T08:49:44Z</time>
      </trkpt>
      <trkpt lat="47.33445" lon="-1.31414">
        <ele>55</ele>
        <time>2022-07-24T08:49:46Z</time>
      </trkpt>
      <trkpt lat="47.33438" lon="-1.31429">
        <ele>55</ele>
        <time>2022-07-24T08:49:48Z</time>
      </trkpt>
      <trkpt lat="47.33431" lon="-1.31443">
        <ele>55</ele>
        <time>2022-07-24T08:49:50Z</time>
      </trkpt>
      <trkpt lat="47.33425" lon="-1.31457">
        <ele>55</ele>
        <time>2022-07-24T08:49:52Z</time>
      </trkpt>
      <trkpt lat="47.3342" lon="-1.31471">
        <ele>55</ele>
        <time>2022-07-24T08:49:54Z</time>
      </trkpt>
      <trkpt lat="47.33413" lon="-1.31485">
        <ele>55</ele>
        <time>2022-07-24T08:49:56Z</time>
      </trkpt>
      <trkpt lat="47.33408" lon="-1.31499">
        <ele>55</ele>
        <time>2022-07-24T08:49:58Z</time>
      </trkpt>
      <trkpt lat="47.33401" lon="-1.31513">
        <ele>55</ele>
        <time>2022-07-24T08:50:00Z</time>
      </trkpt>
      <trkpt lat="47.33394" lon="-1.31526">
        <ele>55</ele>
        <time>2022-07-24T08:50:02Z</time>
      </trkpt>
      <trkpt lat="47.33387" lon="-1.31539">
        <ele>55</ele>
        <time>2022-07-24T08:50:04Z</time>
      </trkpt>
      <trkpt lat="47.33379" lon="-1.31553">
        <ele>55</ele>
        <time>2022-07-24T08:50:06Z</time>
      </trkpt>
      <trkpt lat="47.33372" lon="-1.31567">
        <ele>55</ele>
        <time>2022-07-24T08:50:08Z</time>
      </trkpt>
      <trkpt lat="47.33364" lon="-1.31581">
        <ele>55</ele>
        <time>2022-07-24T08:50:10Z</time>
      </trkpt>
      <trkpt lat="47.33356" lon="-1.31595">
        <ele>55</ele>
        <time>2022-07-24T08:50:12Z</time>
      </trkpt>
      <trkpt lat="47.33348" lon="-1.31609">
        <ele>55</ele>
        <time>2022-07-24T08:50:14Z</time>
      </trkpt>
      <trkpt lat="47.33342" lon="-1.31623">
        <ele>55</ele>
        <time>2022-07-24T08:50:16Z</time>
      </trkpt>
      <trkpt lat="47.33335" lon="-1.31637">
        <ele>54</ele>
        <time>2022-07-24T08:50:18Z</time>
      </trkpt>
      <trkpt lat="47.33327" lon="-1.31651">
        <ele>54</ele>
        <time>2022-07-24T08:50:20Z</time>
      </trkpt>
      <trkpt lat="47.3332" lon="-1.31664">
        <ele>55</ele>
        <time>2022-07-24T08:50:22Z</time>
      </trkpt>
      <trkpt lat="47.33312" lon="-1.31679">
        <ele>54</ele>
        <time>2022-07-24T08:50:24Z</time>
      </trkpt>
      <trkpt lat="47.33305" lon="-1.31692">
        <ele>54</ele>
        <time>2022-07-24T08:50:26Z</time>
      </trkpt>
      <trkpt lat="47.33297" lon="-1.31706">
        <ele>55</ele>
        <time>2022-07-24T08:50:28Z</time>
      </trkpt>
      <trkpt lat="47.3329" lon="-1.3172">
        <ele>55</ele>
        <time>2022-07-24T08:50:30Z</time>
      </trkpt>
      <trkpt lat="47.33283" lon="-1.31735">
        <ele>55</ele>
        <time>2022-07-24T08:50:32Z</time>
      </trkpt>
      <trkpt lat="47.33275" lon="-1.31748">
        <ele>56</ele>
        <time>2022-07-24T08:50:34Z</time>
      </trkpt>
      <trkpt lat="47.33268" lon="-1.31763">
        <ele>55</ele>
        <time>2022-07-24T08:50:36Z</time>
      </trkpt>
      <trkpt lat="47.33261" lon="-1.31778">
        <ele>55</ele>
        <time>2022-07-24T08:50:38Z</time>
      </trkpt>
      <trkpt lat="47.33254" lon="-1.31792">
        <ele>55</ele>
        <time>2022-07-24T08:50:40Z</time>
      </trkpt>
      <trkpt lat="47.33247" lon="-1.31805">
        <ele>55</ele>
        <time>2022-07-24T08:50:42Z</time>
      </trkpt>
      <trkpt lat="47.3324" lon="-1.31819">
        <ele>56</ele>
        <time>2022-07-24T08:50:44Z</time>
      </trkpt>
      <trkpt lat="47.33233" lon="-1.31831">
        <ele>57</ele>
        <time>2022-07-24T08:50:46Z</time>
      </trkpt>
      <trkpt lat="47.33227" lon="-1.31843">
        <ele>57</ele>
        <time>2022-07-24T08:50:48Z</time>
      </trkpt>
      <trkpt lat="47.3322" lon="-1.31856">
        <ele>57</ele>
        <time>2022-07-24T08:50:50Z</time>
      </trkpt>
      <trkpt lat="47.33214" lon="-1.31869">
        <ele>57</ele>
        <time>2022-07-24T08:50:52Z</time>
      </trkpt>
      <trkpt lat="47.33206" lon="-1.31882">
        <ele>57</ele>
        <time>2022-07-24T08:50:54Z</time>
      </trkpt>
      <trkpt lat="47.33199" lon="-1.31896">
        <ele>56</ele>
        <time>2022-07-24T08:50:56Z</time>
      </trkpt>
      <trkpt lat="47.33192" lon="-1.3191">
        <ele>56</ele>
        <time>2022-07-24T08:50:58Z</time>
      </trkpt>
      <trkpt lat="47.33184" lon="-1.31924">
        <ele>56</ele>
        <time>2022-07-24T08:51:00Z</time>
      </trkpt>
      <trkpt lat="47.33177" lon="-1.31937">
        <ele>57</ele>
        <time>2022-07-24T08:51:02Z</time>
      </trkpt>
      <trkpt lat="47.3317" lon="-1.31951">
        <ele>57</ele>
        <time>2022-07-24T08:51:04Z</time>
      </trkpt>
      <trkpt lat="47.33164" lon="-1.31962">
        <ele>57</ele>
        <time>2022-07-24T08:51:06Z</time>
      </trkpt>
      <trkpt lat="47.33156" lon="-1.31977">
        <ele>57</ele>
        <time>2022-07-24T08:51:09Z</time>
      </trkpt>
      <trkpt lat="47.33146" lon="-1.31984">
        <ele>57</ele>
        <time>2022-07-24T08:51:13Z</time>
      </trkpt>
      <trkpt lat="47.33136" lon="-1.31992">
        <ele>58</ele>
        <time>2022-07-24T08:51:16Z</time>
      </trkpt>
      <trkpt lat="47.33127" lon="-1.31999">
        <ele>58</ele>
        <time>2022-07-24T08:51:18Z</time>
      </trkpt>
      <trkpt lat="47.33119" lon="-1.32009">
        <ele>58</ele>
        <time>2022-07-24T08:51:20Z</time>
      </trkpt>
      <trkpt lat="47.33113" lon="-1.3202">
        <ele>57</ele>
        <time>2022-07-24T08:51:22Z</time>
      </trkpt>
      <trkpt lat="47.33107" lon="-1.32031">
        <ele>57</ele>
        <time>2022-07-24T08:51:24Z</time>
      </trkpt>
      <trkpt lat="47.33101" lon="-1.3204">
        <ele>57</ele>
        <time>2022-07-24T08:51:26Z</time>
      </trkpt>
      <trkpt lat="47.33097" lon="-1.32053">
        <ele>57</ele>
        <time>2022-07-24T08:51:29Z</time>
      </trkpt>
      <trkpt lat="47.33099" lon="-1.32069">
        <ele>56</ele>
        <time>2022-07-24T08:51:32Z</time>
      </trkpt>
      <trkpt lat="47.33096" lon="-1.32082">
        <ele>56</ele>
        <time>2022-07-24T08:51:34Z</time>
      </trkpt>
      <trkpt lat="47.33092" lon="-1.32096">
        <ele>56</ele>
        <time>2022-07-24T08:51:36Z</time>
      </trkpt>
      <trkpt lat="47.33085" lon="-1.32109">
        <ele>57</ele>
        <time>2022-07-24T08:51:38Z</time>
      </trkpt>
      <trkpt lat="47.33078" lon="-1.32122">
        <ele>58</ele>
        <time>2022-07-24T08:51:40Z</time>
      </trkpt>
      <trkpt lat="47.3307" lon="-1.32135">
        <ele>57</ele>
        <time>2022-07-24T08:51:42Z</time>
      </trkpt>
      <trkpt lat="47.33063" lon="-1.32149">
        <ele>57</ele>
        <time>2022-07-24T08:51:44Z</time>
      </trkpt>
      <trkpt lat="47.33056" lon="-1.32162">
        <ele>57</ele>
        <time>2022-07-24T08:51:46Z</time>
      </trkpt>
      <trkpt lat="47.33049" lon="-1.32176">
        <ele>57</ele>
        <time>2022-07-24T08:51:48Z</time>
      </trkpt>
      <trkpt lat="47.33044" lon="-1.3219">
        <ele>57</ele>
        <time>2022-07-24T08:51:50Z</time>
      </trkpt>
      <trkpt lat="47.33036" lon="-1.32205">
        <ele>56</ele>
        <time>2022-07-24T08:51:52Z</time>
      </trkpt>
      <trkpt lat="47.33029" lon="-1.3222">
        <ele>56</ele>
        <time>2022-07-24T08:51:54Z</time>
      </trkpt>
      <trkpt lat="47.33021" lon="-1.32235">
        <ele>56</ele>
        <time>2022-07-24T08:51:56Z</time>
      </trkpt>
      <trkpt lat="47.33014" lon="-1.32249">
        <ele>56</ele>
        <time>2022-07-24T08:51:58Z</time>
      </trkpt>
      <trkpt lat="47.33007" lon="-1.32262">
        <ele>56</ele>
        <time>2022-07-24T08:52:00Z</time>
      </trkpt>
      <trkpt lat="47.33" lon="-1.32275">
        <ele>56</ele>
        <time>2022-07-24T08:52:02Z</time>
      </trkpt>
      <trkpt lat="47.32992" lon="-1.3229">
        <ele>56</ele>
        <time>2022-07-24T08:52:04Z</time>
      </trkpt>
      <trkpt lat="47.32985" lon="-1.32304">
        <ele>56</ele>
        <time>2022-07-24T08:52:06Z</time>
      </trkpt>
      <trkpt lat="47.32978" lon="-1.32317">
        <ele>56</ele>
        <time>2022-07-24T08:52:08Z</time>
      </trkpt>
      <trkpt lat="47.32971" lon="-1.32331">
        <ele>56</ele>
        <time>2022-07-24T08:52:10Z</time>
      </trkpt>
      <trkpt lat="47.32964" lon="-1.32345">
        <ele>55</ele>
        <time>2022-07-24T08:52:12Z</time>
      </trkpt>
      <trkpt lat="47.32957" lon="-1.32358">
        <ele>55</ele>
        <time>2022-07-24T08:52:14Z</time>
      </trkpt>
      <trkpt lat="47.32949" lon="-1.32372">
        <ele>56</ele>
        <time>2022-07-24T08:52:16Z</time>
      </trkpt>
      <trkpt lat="47.32942" lon="-1.32387">
        <ele>56</ele>
        <time>2022-07-24T08:52:18Z</time>
      </trkpt>
      <trkpt lat="47.32935" lon="-1.32401">
        <ele>56</ele>
        <time>2022-07-24T08:52:20Z</time>
      </trkpt>
      <trkpt lat="47.32927" lon="-1.32415">
        <ele>56</ele>
        <time>2022-07-24T08:52:22Z</time>
      </trkpt>
      <trkpt lat="47.3292" lon="-1.3243">
        <ele>55</ele>
        <time>2022-07-24T08:52:24Z</time>
      </trkpt>
      <trkpt lat="47.32912" lon="-1.32445">
        <ele>55</ele>
        <time>2022-07-24T08:52:26Z</time>
      </trkpt>
      <trkpt lat="47.32904" lon="-1.3246">
        <ele>55</ele>
        <time>2022-07-24T08:52:28Z</time>
      </trkpt>
      <trkpt lat="47.32896" lon="-1.32474">
        <ele>55</ele>
        <time>2022-07-24T08:52:30Z</time>
      </trkpt>
      <trkpt lat="47.32888" lon="-1.32489">
        <ele>55</ele>
        <time>2022-07-24T08:52:32Z</time>
      </trkpt>
      <trkpt lat="47.32881" lon="-1.32504">
        <ele>55</ele>
        <time>2022-07-24T08:52:34Z</time>
      </trkpt>
      <trkpt lat="47.32874" lon="-1.32518">
        <ele>55</ele>
        <time>2022-07-24T08:52:36Z</time>
      </trkpt>
      <trkpt lat="47.32867" lon="-1.32532">
        <ele>55</ele>
        <time>2022-07-24T08:52:38Z</time>
      </trkpt>
      <trkpt lat="47.32861" lon="-1.32545">
        <ele>55</ele>
        <time>2022-07-24T08:52:40Z</time>
      </trkpt>
      <trkpt lat="47.32855" lon="-1.32556">
        <ele>55</ele>
        <time>2022-07-24T08:52:42Z</time>
      </trkpt>
      <trkpt lat="47.32849" lon="-1.32568">
        <ele>55</ele>
        <time>2022-07-24T08:52:45Z</time>
      </trkpt>
      <trkpt lat="47.32844" lon="-1.32578">
        <ele>56</ele>
        <time>2022-07-24T08:52:48Z</time>
      </trkpt>
      <trkpt lat="47.32836" lon="-1.32593">
        <ele>57</ele>
        <time>2022-07-24T08:52:51Z</time>
      </trkpt>
      <trkpt lat="47.32829" lon="-1.32606">
        <ele>57</ele>
        <time>2022-07-24T08:52:53Z</time>
      </trkpt>
      <trkpt lat="47.32822" lon="-1.32619">
        <ele>57</ele>
        <time>2022-07-24T08:52:55Z</time>
      </trkpt>
      <trkpt lat="47.32815" lon="-1.32632">
        <ele>57</ele>
        <time>2022-07-24T08:52:57Z</time>
      </trkpt>
      <trkpt lat="47.32806" lon="-1.32645">
        <ele>57</ele>
        <time>2022-07-24T08:52:59Z</time>
      </trkpt>
      <trkpt lat="47.32798" lon="-1.32656">
        <ele>56</ele>
        <time>2022-07-24T08:53:01Z</time>
      </trkpt>
      <trkpt lat="47.32791" lon="-1.3267">
        <ele>55</ele>
        <time>2022-07-24T08:53:03Z</time>
      </trkpt>
      <trkpt lat="47.32784" lon="-1.32685">
        <ele>55</ele>
        <time>2022-07-24T08:53:05Z</time>
      </trkpt>
      <trkpt lat="47.32778" lon="-1.32701">
        <ele>55</ele>
        <time>2022-07-24T08:53:07Z</time>
      </trkpt>
      <trkpt lat="47.32771" lon="-1.32717">
        <ele>55</ele>
        <time>2022-07-24T08:53:09Z</time>
      </trkpt>
      <trkpt lat="47.32764" lon="-1.32733">
        <ele>54</ele>
        <time>2022-07-24T08:53:11Z</time>
      </trkpt>
      <trkpt lat="47.32756" lon="-1.32748">
        <ele>54</ele>
        <time>2022-07-24T08:53:13Z</time>
      </trkpt>
      <trkpt lat="47.32748" lon="-1.32762">
        <ele>55</ele>
        <time>2022-07-24T08:53:15Z</time>
      </trkpt>
      <trkpt lat="47.3274" lon="-1.32776">
        <ele>54</ele>
        <time>2022-07-24T08:53:17Z</time>
      </trkpt>
      <trkpt lat="47.32732" lon="-1.3279">
        <ele>54</ele>
        <time>2022-07-24T08:53:19Z</time>
      </trkpt>
      <trkpt lat="47.32724" lon="-1.32803">
        <ele>54</ele>
        <time>2022-07-24T08:53:21Z</time>
      </trkpt>
      <trkpt lat="47.32716" lon="-1.32817">
        <ele>54</ele>
        <time>2022-07-24T08:53:23Z</time>
      </trkpt>
      <trkpt lat="47.32707" lon="-1.3283">
        <ele>54</ele>
        <time>2022-07-24T08:53:25Z</time>
      </trkpt>
      <trkpt lat="47.32699" lon="-1.32843">
        <ele>53</ele>
        <time>2022-07-24T08:53:27Z</time>
      </trkpt>
      <trkpt lat="47.3269" lon="-1.32856">
        <ele>53</ele>
        <time>2022-07-24T08:53:29Z</time>
      </trkpt>
      <trkpt lat="47.32682" lon="-1.32869">
        <ele>53</ele>
        <time>2022-07-24T08:53:31Z</time>
      </trkpt>
      <trkpt lat="47.32673" lon="-1.32883">
        <ele>53</ele>
        <time>2022-07-24T08:53:33Z</time>
      </trkpt>
      <trkpt lat="47.32665" lon="-1.32895">
        <ele>53</ele>
        <time>2022-07-24T08:53:35Z</time>
      </trkpt>
      <trkpt lat="47.32657" lon="-1.32906">
        <ele>53</ele>
        <time>2022-07-24T08:53:37Z</time>
      </trkpt>
      <trkpt lat="47.32649" lon="-1.32916">
        <ele>53</ele>
        <time>2022-07-24T08:53:39Z</time>
      </trkpt>
      <trkpt lat="47.32641" lon="-1.32926">
        <ele>53</ele>
        <time>2022-07-24T08:53:42Z</time>
      </trkpt>
      <trkpt lat="47.3263" lon="-1.3293">
        <ele>54</ele>
        <time>2022-07-24T08:53:45Z</time>
      </trkpt>
      <trkpt lat="47.32621" lon="-1.32938">
        <ele>54</ele>
        <time>2022-07-24T08:53:48Z</time>
      </trkpt>
      <trkpt lat="47.32613" lon="-1.32949">
        <ele>55</ele>
        <time>2022-07-24T08:53:51Z</time>
      </trkpt>
      <trkpt lat="47.32607" lon="-1.32958">
        <ele>55</ele>
        <time>2022-07-24T08:53:53Z</time>
      </trkpt>
      <trkpt lat="47.32599" lon="-1.32969">
        <ele>55</ele>
        <time>2022-07-24T08:53:55Z</time>
      </trkpt>
      <trkpt lat="47.32592" lon="-1.32981">
        <ele>56</ele>
        <time>2022-07-24T08:53:57Z</time>
      </trkpt>
      <trkpt lat="47.32585" lon="-1.32991">
        <ele>56</ele>
        <time>2022-07-24T08:53:59Z</time>
      </trkpt>
      <trkpt lat="47.32577" lon="-1.33001">
        <ele>57</ele>
        <time>2022-07-24T08:54:01Z</time>
      </trkpt>
      <trkpt lat="47.32568" lon="-1.33011">
        <ele>57</ele>
        <time>2022-07-24T08:54:03Z</time>
      </trkpt>
      <trkpt lat="47.3256" lon="-1.3302">
        <ele>57</ele>
        <time>2022-07-24T08:54:05Z</time>
      </trkpt>
      <trkpt lat="47.32552" lon="-1.33029">
        <ele>57</ele>
        <time>2022-07-24T08:54:07Z</time>
      </trkpt>
      <trkpt lat="47.32541" lon="-1.33036">
        <ele>58</ele>
        <time>2022-07-24T08:54:10Z</time>
      </trkpt>
      <trkpt lat="47.32532" lon="-1.33043">
        <ele>58</ele>
        <time>2022-07-24T08:54:12Z</time>
      </trkpt>
      <trkpt lat="47.32523" lon="-1.33053">
        <ele>58</ele>
        <time>2022-07-24T08:54:14Z</time>
      </trkpt>
      <trkpt lat="47.32513" lon="-1.33063">
        <ele>59</ele>
        <time>2022-07-24T08:54:16Z</time>
      </trkpt>
      <trkpt lat="47.32504" lon="-1.33073">
        <ele>59</ele>
        <time>2022-07-24T08:54:18Z</time>
      </trkpt>
      <trkpt lat="47.32496" lon="-1.33082">
        <ele>59</ele>
        <time>2022-07-24T08:54:20Z</time>
      </trkpt>
      <trkpt lat="47.32488" lon="-1.33091">
        <ele>59</ele>
        <time>2022-07-24T08:54:22Z</time>
      </trkpt>
      <trkpt lat="47.32479" lon="-1.33099">
        <ele>59</ele>
        <time>2022-07-24T08:54:24Z</time>
      </trkpt>
      <trkpt lat="47.3247" lon="-1.3311">
        <ele>59</ele>
        <time>2022-07-24T08:54:26Z</time>
      </trkpt>
      <trkpt lat="47.32461" lon="-1.33121">
        <ele>59</ele>
        <time>2022-07-24T08:54:28Z</time>
      </trkpt>
      <trkpt lat="47.32453" lon="-1.33132">
        <ele>59</ele>
        <time>2022-07-24T08:54:30Z</time>
      </trkpt>
      <trkpt lat="47.32444" lon="-1.3314">
        <ele>59</ele>
        <time>2022-07-24T08:54:32Z</time>
      </trkpt>
      <trkpt lat="47.32432" lon="-1.33144">
        <ele>60</ele>
        <time>2022-07-24T08:54:35Z</time>
      </trkpt>
      <trkpt lat="47.32422" lon="-1.33147">
        <ele>61</ele>
        <time>2022-07-24T08:54:41Z</time>
      </trkpt>
      <trkpt lat="47.32414" lon="-1.33156">
        <ele>61</ele>
        <time>2022-07-24T08:54:44Z</time>
      </trkpt>
      <trkpt lat="47.32406" lon="-1.33165">
        <ele>60</ele>
        <time>2022-07-24T08:54:46Z</time>
      </trkpt>
      <trkpt lat="47.32397" lon="-1.33173">
        <ele>60</ele>
        <time>2022-07-24T08:54:48Z</time>
      </trkpt>
      <trkpt lat="47.3239" lon="-1.33184">
        <ele>59</ele>
        <time>2022-07-24T08:54:50Z</time>
      </trkpt>
      <trkpt lat="47.32382" lon="-1.33197">
        <ele>59</ele>
        <time>2022-07-24T08:54:52Z</time>
      </trkpt>
      <trkpt lat="47.32374" lon="-1.33212">
        <ele>59</ele>
        <time>2022-07-24T08:54:54Z</time>
      </trkpt>
      <trkpt lat="47.32366" lon="-1.33226">
        <ele>58</ele>
        <time>2022-07-24T08:54:56Z</time>
      </trkpt>
      <trkpt lat="47.32359" lon="-1.3324">
        <ele>58</ele>
        <time>2022-07-24T08:54:58Z</time>
      </trkpt>
      <trkpt lat="47.32353" lon="-1.33253">
        <ele>57</ele>
        <time>2022-07-24T08:55:00Z</time>
      </trkpt>
      <trkpt lat="47.32346" lon="-1.3327">
        <ele>57</ele>
        <time>2022-07-24T08:55:02Z</time>
      </trkpt>
      <trkpt lat="47.32339" lon="-1.33286">
        <ele>56</ele>
        <time>2022-07-24T08:55:04Z</time>
      </trkpt>
      <trkpt lat="47.32332" lon="-1.33302">
        <ele>56</ele>
        <time>2022-07-24T08:55:06Z</time>
      </trkpt>
      <trkpt lat="47.32325" lon="-1.33317">
        <ele>56</ele>
        <time>2022-07-24T08:55:08Z</time>
      </trkpt>
      <trkpt lat="47.32319" lon="-1.33332">
        <ele>56</ele>
        <time>2022-07-24T08:55:10Z</time>
      </trkpt>
      <trkpt lat="47.32312" lon="-1.33348">
        <ele>56</ele>
        <time>2022-07-24T08:55:12Z</time>
      </trkpt>
      <trkpt lat="47.32306" lon="-1.33364">
        <ele>56</ele>
        <time>2022-07-24T08:55:14Z</time>
      </trkpt>
      <trkpt lat="47.323" lon="-1.33379">
        <ele>56</ele>
        <time>2022-07-24T08:55:16Z</time>
      </trkpt>
      <trkpt lat="47.32293" lon="-1.33393">
        <ele>56</ele>
        <time>2022-07-24T08:55:18Z</time>
      </trkpt>
      <trkpt lat="47.32286" lon="-1.33408">
        <ele>56</ele>
        <time>2022-07-24T08:55:20Z</time>
      </trkpt>
      <trkpt lat="47.3228" lon="-1.33423">
        <ele>56</ele>
        <time>2022-07-24T08:55:22Z</time>
      </trkpt>
      <trkpt lat="47.32273" lon="-1.33438">
        <ele>56</ele>
        <time>2022-07-24T08:55:24Z</time>
      </trkpt>
      <trkpt lat="47.32266" lon="-1.33453">
        <ele>56</ele>
        <time>2022-07-24T08:55:26Z</time>
      </trkpt>
      <trkpt lat="47.32259" lon="-1.33468">
        <ele>57</ele>
        <time>2022-07-24T08:55:28Z</time>
      </trkpt>
      <trkpt lat="47.32251" lon="-1.33483">
        <ele>57</ele>
        <time>2022-07-24T08:55:30Z</time>
      </trkpt>
      <trkpt lat="47.32245" lon="-1.33498">
        <ele>57</ele>
        <time>2022-07-24T08:55:32Z</time>
      </trkpt>
      <trkpt lat="47.32238" lon="-1.33513">
        <ele>57</ele>
        <time>2022-07-24T08:55:34Z</time>
      </trkpt>
      <trkpt lat="47.32231" lon="-1.33526">
        <ele>57</ele>
        <time>2022-07-24T08:55:36Z</time>
      </trkpt>
      <trkpt lat="47.32225" lon="-1.33539">
        <ele>57</ele>
        <time>2022-07-24T08:55:38Z</time>
      </trkpt>
      <trkpt lat="47.32219" lon="-1.33551">
        <ele>57</ele>
        <time>2022-07-24T08:55:40Z</time>
      </trkpt>
      <trkpt lat="47.32214" lon="-1.33565">
        <ele>56</ele>
        <time>2022-07-24T08:55:42Z</time>
      </trkpt>
      <trkpt lat="47.32207" lon="-1.33578">
        <ele>57</ele>
        <time>2022-07-24T08:55:44Z</time>
      </trkpt>
      <trkpt lat="47.32201" lon="-1.33592">
        <ele>56</ele>
        <time>2022-07-24T08:55:46Z</time>
      </trkpt>
      <trkpt lat="47.32194" lon="-1.33607">
        <ele>56</ele>
        <time>2022-07-24T08:55:48Z</time>
      </trkpt>
      <trkpt lat="47.32188" lon="-1.3362">
        <ele>56</ele>
        <time>2022-07-24T08:55:50Z</time>
      </trkpt>
      <trkpt lat="47.32184" lon="-1.33633">
        <ele>56</ele>
        <time>2022-07-24T08:55:52Z</time>
      </trkpt>
      <trkpt lat="47.32177" lon="-1.33645">
        <ele>56</ele>
        <time>2022-07-24T08:55:54Z</time>
      </trkpt>
      <trkpt lat="47.32172" lon="-1.33659">
        <ele>56</ele>
        <time>2022-07-24T08:55:56Z</time>
      </trkpt>
      <trkpt lat="47.32168" lon="-1.33675">
        <ele>56</ele>
        <time>2022-07-24T08:55:58Z</time>
      </trkpt>
      <trkpt lat="47.32161" lon="-1.33694">
        <ele>57</ele>
        <time>2022-07-24T08:56:00Z</time>
      </trkpt>
      <trkpt lat="47.32155" lon="-1.3371">
        <ele>57</ele>
        <time>2022-07-24T08:56:02Z</time>
      </trkpt>
      <trkpt lat="47.3215" lon="-1.33725">
        <ele>57</ele>
        <time>2022-07-24T08:56:04Z</time>
      </trkpt>
      <trkpt lat="47.32144" lon="-1.3374">
        <ele>57</ele>
        <time>2022-07-24T08:56:06Z</time>
      </trkpt>
      <trkpt lat="47.32138" lon="-1.33753">
        <ele>58</ele>
        <time>2022-07-24T08:56:08Z</time>
      </trkpt>
      <trkpt lat="47.32132" lon="-1.33767">
        <ele>59</ele>
        <time>2022-07-24T08:56:10Z</time>
      </trkpt>
      <trkpt lat="47.32126" lon="-1.33781">
        <ele>58</ele>
        <time>2022-07-24T08:56:12Z</time>
      </trkpt>
      <trkpt lat="47.3212" lon="-1.33797">
        <ele>58</ele>
        <time>2022-07-24T08:56:14Z</time>
      </trkpt>
      <trkpt lat="47.32114" lon="-1.33811">
        <ele>59</ele>
        <time>2022-07-24T08:56:16Z</time>
      </trkpt>
      <trkpt lat="47.32107" lon="-1.33826">
        <ele>58</ele>
        <time>2022-07-24T08:56:18Z</time>
      </trkpt>
      <trkpt lat="47.32101" lon="-1.33839">
        <ele>58</ele>
        <time>2022-07-24T08:56:20Z</time>
      </trkpt>
      <trkpt lat="47.32093" lon="-1.33854">
        <ele>58</ele>
        <time>2022-07-24T08:56:22Z</time>
      </trkpt>
      <trkpt lat="47.32086" lon="-1.33868">
        <ele>58</ele>
        <time>2022-07-24T08:56:24Z</time>
      </trkpt>
      <trkpt lat="47.32079" lon="-1.33881">
        <ele>58</ele>
        <time>2022-07-24T08:56:26Z</time>
      </trkpt>
      <trkpt lat="47.32072" lon="-1.33895">
        <ele>57</ele>
        <time>2022-07-24T08:56:28Z</time>
      </trkpt>
      <trkpt lat="47.32064" lon="-1.33909">
        <ele>57</ele>
        <time>2022-07-24T08:56:30Z</time>
      </trkpt>
      <trkpt lat="47.32056" lon="-1.33922">
        <ele>57</ele>
        <time>2022-07-24T08:56:32Z</time>
      </trkpt>
      <trkpt lat="47.32048" lon="-1.33935">
        <ele>57</ele>
        <time>2022-07-24T08:56:34Z</time>
      </trkpt>
      <trkpt lat="47.32041" lon="-1.33949">
        <ele>58</ele>
        <time>2022-07-24T08:56:36Z</time>
      </trkpt>
      <trkpt lat="47.32036" lon="-1.3396">
        <ele>59</ele>
        <time>2022-07-24T08:56:38Z</time>
      </trkpt>
      <trkpt lat="47.3203" lon="-1.3397">
        <ele>59</ele>
        <time>2022-07-24T08:56:40Z</time>
      </trkpt>
      <trkpt lat="47.32023" lon="-1.33981">
        <ele>60</ele>
        <time>2022-07-24T08:56:42Z</time>
      </trkpt>
      <trkpt lat="47.32014" lon="-1.33993">
        <ele>60</ele>
        <time>2022-07-24T08:56:44Z</time>
      </trkpt>
      <trkpt lat="47.32005" lon="-1.34006">
        <ele>59</ele>
        <time>2022-07-24T08:56:46Z</time>
      </trkpt>
      <trkpt lat="47.31996" lon="-1.34019">
        <ele>59</ele>
        <time>2022-07-24T08:56:48Z</time>
      </trkpt>
      <trkpt lat="47.31988" lon="-1.34032">
        <ele>59</ele>
        <time>2022-07-24T08:56:50Z</time>
      </trkpt>
      <trkpt lat="47.3198" lon="-1.34045">
        <ele>59</ele>
        <time>2022-07-24T08:56:52Z</time>
      </trkpt>
      <trkpt lat="47.31972" lon="-1.34058">
        <ele>59</ele>
        <time>2022-07-24T08:56:54Z</time>
      </trkpt>
      <trkpt lat="47.31964" lon="-1.3407">
        <ele>59</ele>
        <time>2022-07-24T08:56:56Z</time>
      </trkpt>
      <trkpt lat="47.31956" lon="-1.34083">
        <ele>59</ele>
        <time>2022-07-24T08:56:58Z</time>
      </trkpt>
      <trkpt lat="47.31948" lon="-1.34096">
        <ele>59</ele>
        <time>2022-07-24T08:57:00Z</time>
      </trkpt>
      <trkpt lat="47.3194" lon="-1.34108">
        <ele>59</ele>
        <time>2022-07-24T08:57:02Z</time>
      </trkpt>
      <trkpt lat="47.31933" lon="-1.3412">
        <ele>59</ele>
        <time>2022-07-24T08:57:04Z</time>
      </trkpt>
      <trkpt lat="47.31925" lon="-1.34132">
        <ele>59</ele>
        <time>2022-07-24T08:57:06Z</time>
      </trkpt>
      <trkpt lat="47.31917" lon="-1.34144">
        <ele>58</ele>
        <time>2022-07-24T08:57:08Z</time>
      </trkpt>
      <trkpt lat="47.31909" lon="-1.34157">
        <ele>59</ele>
        <time>2022-07-24T08:57:10Z</time>
      </trkpt>
      <trkpt lat="47.31901" lon="-1.34169">
        <ele>59</ele>
        <time>2022-07-24T08:57:12Z</time>
      </trkpt>
      <trkpt lat="47.31891" lon="-1.34182">
        <ele>58</ele>
        <time>2022-07-24T08:57:14Z</time>
      </trkpt>
      <trkpt lat="47.31881" lon="-1.34196">
        <ele>58</ele>
        <time>2022-07-24T08:57:16Z</time>
      </trkpt>
      <trkpt lat="47.31872" lon="-1.34209">
        <ele>57</ele>
        <time>2022-07-24T08:57:18Z</time>
      </trkpt>
      <trkpt lat="47.31864" lon="-1.34223">
        <ele>57</ele>
        <time>2022-07-24T08:57:20Z</time>
      </trkpt>
      <trkpt lat="47.31856" lon="-1.34234">
        <ele>56</ele>
        <time>2022-07-24T08:57:22Z</time>
      </trkpt>
      <trkpt lat="47.31848" lon="-1.34245">
        <ele>56</ele>
        <time>2022-07-24T08:57:24Z</time>
      </trkpt>
      <trkpt lat="47.3184" lon="-1.34257">
        <ele>56</ele>
        <time>2022-07-24T08:57:26Z</time>
      </trkpt>
      <trkpt lat="47.31833" lon="-1.3427">
        <ele>55</ele>
        <time>2022-07-24T08:57:28Z</time>
      </trkpt>
      <trkpt lat="47.31825" lon="-1.34283">
        <ele>55</ele>
        <time>2022-07-24T08:57:30Z</time>
      </trkpt>
      <trkpt lat="47.31817" lon="-1.34295">
        <ele>55</ele>
        <time>2022-07-24T08:57:32Z</time>
      </trkpt>
      <trkpt lat="47.3181" lon="-1.34308">
        <ele>56</ele>
        <time>2022-07-24T08:57:34Z</time>
      </trkpt>
      <trkpt lat="47.31802" lon="-1.3432">
        <ele>56</ele>
        <time>2022-07-24T08:57:36Z</time>
      </trkpt>
      <trkpt lat="47.31795" lon="-1.34333">
        <ele>56</ele>
        <time>2022-07-24T08:57:38Z</time>
      </trkpt>
      <trkpt lat="47.31786" lon="-1.34344">
        <ele>56</ele>
        <time>2022-07-24T08:57:40Z</time>
      </trkpt>
      <trkpt lat="47.31778" lon="-1.34356">
        <ele>56</ele>
        <time>2022-07-24T08:57:42Z</time>
      </trkpt>
      <trkpt lat="47.3177" lon="-1.34368">
        <ele>56</ele>
        <time>2022-07-24T08:57:44Z</time>
      </trkpt>
      <trkpt lat="47.31763" lon="-1.3438">
        <ele>57</ele>
        <time>2022-07-24T08:57:46Z</time>
      </trkpt>
      <trkpt lat="47.31757" lon="-1.34392">
        <ele>56</ele>
        <time>2022-07-24T08:57:48Z</time>
      </trkpt>
      <trkpt lat="47.3175" lon="-1.34403">
        <ele>56</ele>
        <time>2022-07-24T08:57:50Z</time>
      </trkpt>
      <trkpt lat="47.31743" lon="-1.34416">
        <ele>56</ele>
        <time>2022-07-24T08:57:52Z</time>
      </trkpt>
      <trkpt lat="47.31734" lon="-1.3443">
        <ele>56</ele>
        <time>2022-07-24T08:57:54Z</time>
      </trkpt>
      <trkpt lat="47.31726" lon="-1.34443">
        <ele>56</ele>
        <time>2022-07-24T08:57:56Z</time>
      </trkpt>
      <trkpt lat="47.31717" lon="-1.34456">
        <ele>56</ele>
        <time>2022-07-24T08:57:58Z</time>
      </trkpt>
      <trkpt lat="47.31708" lon="-1.34468">
        <ele>56</ele>
        <time>2022-07-24T08:58:00Z</time>
      </trkpt>
      <trkpt lat="47.317" lon="-1.3448">
        <ele>56</ele>
        <time>2022-07-24T08:58:02Z</time>
      </trkpt>
      <trkpt lat="47.31692" lon="-1.34494">
        <ele>56</ele>
        <time>2022-07-24T08:58:04Z</time>
      </trkpt>
      <trkpt lat="47.31683" lon="-1.34507">
        <ele>56</ele>
        <time>2022-07-24T08:58:06Z</time>
      </trkpt>
      <trkpt lat="47.31675" lon="-1.3452">
        <ele>55</ele>
        <time>2022-07-24T08:58:08Z</time>
      </trkpt>
      <trkpt lat="47.31667" lon="-1.34532">
        <ele>55</ele>
        <time>2022-07-24T08:58:10Z</time>
      </trkpt>
      <trkpt lat="47.31659" lon="-1.34545">
        <ele>55</ele>
        <time>2022-07-24T08:58:12Z</time>
      </trkpt>
      <trkpt lat="47.31652" lon="-1.34556">
        <ele>56</ele>
        <time>2022-07-24T08:58:14Z</time>
      </trkpt>
      <trkpt lat="47.31646" lon="-1.34569">
        <ele>56</ele>
        <time>2022-07-24T08:58:16Z</time>
      </trkpt>
      <trkpt lat="47.3164" lon="-1.34581">
        <ele>56</ele>
        <time>2022-07-24T08:58:18Z</time>
      </trkpt>
      <trkpt lat="47.31632" lon="-1.34593">
        <ele>56</ele>
        <time>2022-07-24T08:58:20Z</time>
      </trkpt>
      <trkpt lat="47.31624" lon="-1.34604">
        <ele>56</ele>
        <time>2022-07-24T08:58:22Z</time>
      </trkpt>
      <trkpt lat="47.31616" lon="-1.34617">
        <ele>56</ele>
        <time>2022-07-24T08:58:24Z</time>
      </trkpt>
      <trkpt lat="47.31608" lon="-1.3463">
        <ele>56</ele>
        <time>2022-07-24T08:58:26Z</time>
      </trkpt>
      <trkpt lat="47.31599" lon="-1.34645">
        <ele>56</ele>
        <time>2022-07-24T08:58:28Z</time>
      </trkpt>
      <trkpt lat="47.31591" lon="-1.34658">
        <ele>57</ele>
        <time>2022-07-24T08:58:30Z</time>
      </trkpt>
      <trkpt lat="47.31583" lon="-1.34671">
        <ele>58</ele>
        <time>2022-07-24T08:58:32Z</time>
      </trkpt>
      <trkpt lat="47.31575" lon="-1.34685">
        <ele>58</ele>
        <time>2022-07-24T08:58:34Z</time>
      </trkpt>
      <trkpt lat="47.31566" lon="-1.34699">
        <ele>58</ele>
        <time>2022-07-24T08:58:36Z</time>
      </trkpt>
      <trkpt lat="47.31558" lon="-1.34712">
        <ele>59</ele>
        <time>2022-07-24T08:58:38Z</time>
      </trkpt>
      <trkpt lat="47.31548" lon="-1.34725">
        <ele>59</ele>
        <time>2022-07-24T08:58:40Z</time>
      </trkpt>
      <trkpt lat="47.31539" lon="-1.34738">
        <ele>59</ele>
        <time>2022-07-24T08:58:42Z</time>
      </trkpt>
      <trkpt lat="47.31531" lon="-1.34752">
        <ele>58</ele>
        <time>2022-07-24T08:58:44Z</time>
      </trkpt>
      <trkpt lat="47.31522" lon="-1.34766">
        <ele>58</ele>
        <time>2022-07-24T08:58:46Z</time>
      </trkpt>
      <trkpt lat="47.31513" lon="-1.34779">
        <ele>58</ele>
        <time>2022-07-24T08:58:48Z</time>
      </trkpt>
      <trkpt lat="47.31505" lon="-1.34791">
        <ele>57</ele>
        <time>2022-07-24T08:58:50Z</time>
      </trkpt>
      <trkpt lat="47.31496" lon="-1.34805">
        <ele>58</ele>
        <time>2022-07-24T08:58:52Z</time>
      </trkpt>
      <trkpt lat="47.31488" lon="-1.34818">
        <ele>57</ele>
        <time>2022-07-24T08:58:54Z</time>
      </trkpt>
      <trkpt lat="47.3148" lon="-1.34831">
        <ele>57</ele>
        <time>2022-07-24T08:58:56Z</time>
      </trkpt>
      <trkpt lat="47.31472" lon="-1.34844">
        <ele>57</ele>
        <time>2022-07-24T08:58:58Z</time>
      </trkpt>
      <trkpt lat="47.31464" lon="-1.34857">
        <ele>57</ele>
        <time>2022-07-24T08:59:00Z</time>
      </trkpt>
      <trkpt lat="47.31455" lon="-1.3487">
        <ele>57</ele>
        <time>2022-07-24T08:59:02Z</time>
      </trkpt>
      <trkpt lat="47.31447" lon="-1.34884">
        <ele>57</ele>
        <time>2022-07-24T08:59:04Z</time>
      </trkpt>
      <trkpt lat="47.31439" lon="-1.34897">
        <ele>57</ele>
        <time>2022-07-24T08:59:06Z</time>
      </trkpt>
      <trkpt lat="47.31431" lon="-1.3491">
        <ele>57</ele>
        <time>2022-07-24T08:59:08Z</time>
      </trkpt>
      <trkpt lat="47.31423" lon="-1.34923">
        <ele>57</ele>
        <time>2022-07-24T08:59:10Z</time>
      </trkpt>
      <trkpt lat="47.31414" lon="-1.34936">
        <ele>58</ele>
        <time>2022-07-24T08:59:12Z</time>
      </trkpt>
      <trkpt lat="47.31405" lon="-1.34949">
        <ele>57</ele>
        <time>2022-07-24T08:59:14Z</time>
      </trkpt>
      <trkpt lat="47.31397" lon="-1.34961">
        <ele>57</ele>
        <time>2022-07-24T08:59:16Z</time>
      </trkpt>
      <trkpt lat="47.31389" lon="-1.34975">
        <ele>56</ele>
        <time>2022-07-24T08:59:18Z</time>
      </trkpt>
      <trkpt lat="47.31381" lon="-1.34988">
        <ele>57</ele>
        <time>2022-07-24T08:59:20Z</time>
      </trkpt>
      <trkpt lat="47.31374" lon="-1.35002">
        <ele>56</ele>
        <time>2022-07-24T08:59:22Z</time>
      </trkpt>
      <trkpt lat="47.31365" lon="-1.35016">
        <ele>55</ele>
        <time>2022-07-24T08:59:24Z</time>
      </trkpt>
      <trkpt lat="47.31357" lon="-1.35028">
        <ele>55</ele>
        <time>2022-07-24T08:59:26Z</time>
      </trkpt>
      <trkpt lat="47.3135" lon="-1.35041">
        <ele>56</ele>
        <time>2022-07-24T08:59:28Z</time>
      </trkpt>
      <trkpt lat="47.31343" lon="-1.35054">
        <ele>56</ele>
        <time>2022-07-24T08:59:30Z</time>
      </trkpt>
      <trkpt lat="47.31335" lon="-1.35066">
        <ele>56</ele>
        <time>2022-07-24T08:59:32Z</time>
      </trkpt>
      <trkpt lat="47.31329" lon="-1.35076">
        <ele>56</ele>
        <time>2022-07-24T08:59:34Z</time>
      </trkpt>
      <trkpt lat="47.31317" lon="-1.35085">
        <ele>56</ele>
        <time>2022-07-24T08:59:37Z</time>
      </trkpt>
      <trkpt lat="47.31306" lon="-1.3509">
        <ele>56</ele>
        <time>2022-07-24T08:59:39Z</time>
      </trkpt>
      <trkpt lat="47.31297" lon="-1.351">
        <ele>56</ele>
        <time>2022-07-24T08:59:41Z</time>
      </trkpt>
      <trkpt lat="47.31291" lon="-1.35111">
        <ele>56</ele>
        <time>2022-07-24T08:59:43Z</time>
      </trkpt>
      <trkpt lat="47.31286" lon="-1.35122">
        <ele>56</ele>
        <time>2022-07-24T08:59:45Z</time>
      </trkpt>
      <trkpt lat="47.31281" lon="-1.35136">
        <ele>56</ele>
        <time>2022-07-24T08:59:47Z</time>
      </trkpt>
      <trkpt lat="47.31275" lon="-1.3515">
        <ele>55</ele>
        <time>2022-07-24T08:59:49Z</time>
      </trkpt>
      <trkpt lat="47.31268" lon="-1.35162">
        <ele>56</ele>
        <time>2022-07-24T08:59:51Z</time>
      </trkpt>
      <trkpt lat="47.3126" lon="-1.35175">
        <ele>56</ele>
        <time>2022-07-24T08:59:53Z</time>
      </trkpt>
      <trkpt lat="47.31251" lon="-1.3519">
        <ele>56</ele>
        <time>2022-07-24T08:59:55Z</time>
      </trkpt>
      <trkpt lat="47.31242" lon="-1.35205">
        <ele>56</ele>
        <time>2022-07-24T08:59:57Z</time>
      </trkpt>
      <trkpt lat="47.31233" lon="-1.3522">
        <ele>55</ele>
        <time>2022-07-24T08:59:59Z</time>
      </trkpt>
      <trkpt lat="47.31223" lon="-1.35235">
        <ele>55</ele>
        <time>2022-07-24T09:00:01Z</time>
      </trkpt>
      <trkpt lat="47.31214" lon="-1.35251">
        <ele>56</ele>
        <time>2022-07-24T09:00:03Z</time>
      </trkpt>
      <trkpt lat="47.31204" lon="-1.35266">
        <ele>56</ele>
        <time>2022-07-24T09:00:05Z</time>
      </trkpt>
      <trkpt lat="47.31195" lon="-1.35281">
        <ele>56</ele>
        <time>2022-07-24T09:00:07Z</time>
      </trkpt>
      <trkpt lat="47.31186" lon="-1.35296">
        <ele>56</ele>
        <time>2022-07-24T09:00:09Z</time>
      </trkpt>
      <trkpt lat="47.31176" lon="-1.35312">
        <ele>56</ele>
        <time>2022-07-24T09:00:11Z</time>
      </trkpt>
      <trkpt lat="47.31167" lon="-1.35326">
        <ele>55</ele>
        <time>2022-07-24T09:00:13Z</time>
      </trkpt>
      <trkpt lat="47.31158" lon="-1.35341">
        <ele>56</ele>
        <time>2022-07-24T09:00:15Z</time>
      </trkpt>
      <trkpt lat="47.31148" lon="-1.35355">
        <ele>56</ele>
        <time>2022-07-24T09:00:17Z</time>
      </trkpt>
      <trkpt lat="47.31139" lon="-1.35371">
        <ele>56</ele>
        <time>2022-07-24T09:00:19Z</time>
      </trkpt>
      <trkpt lat="47.3113" lon="-1.35384">
        <ele>56</ele>
        <time>2022-07-24T09:00:21Z</time>
      </trkpt>
      <trkpt lat="47.3112" lon="-1.35398">
        <ele>56</ele>
        <time>2022-07-24T09:00:23Z</time>
      </trkpt>
      <trkpt lat="47.3111" lon="-1.35412">
        <ele>57</ele>
        <time>2022-07-24T09:00:25Z</time>
      </trkpt>
      <trkpt lat="47.31101" lon="-1.35426">
        <ele>57</ele>
        <time>2022-07-24T09:00:27Z</time>
      </trkpt>
      <trkpt lat="47.31091" lon="-1.3544">
        <ele>56</ele>
        <time>2022-07-24T09:00:29Z</time>
      </trkpt>
      <trkpt lat="47.31082" lon="-1.35454">
        <ele>56</ele>
        <time>2022-07-24T09:00:31Z</time>
      </trkpt>
      <trkpt lat="47.31071" lon="-1.35467">
        <ele>56</ele>
        <time>2022-07-24T09:00:33Z</time>
      </trkpt>
      <trkpt lat="47.31061" lon="-1.3548">
        <ele>56</ele>
        <time>2022-07-24T09:00:35Z</time>
      </trkpt>
      <trkpt lat="47.31051" lon="-1.35493">
        <ele>56</ele>
        <time>2022-07-24T09:00:37Z</time>
      </trkpt>
      <trkpt lat="47.3104" lon="-1.35505">
        <ele>57</ele>
        <time>2022-07-24T09:00:39Z</time>
      </trkpt>
      <trkpt lat="47.3103" lon="-1.35517">
        <ele>56</ele>
        <time>2022-07-24T09:00:41Z</time>
      </trkpt>
      <trkpt lat="47.31019" lon="-1.35529">
        <ele>56</ele>
        <time>2022-07-24T09:00:43Z</time>
      </trkpt>
      <trkpt lat="47.31009" lon="-1.35541">
        <ele>56</ele>
        <time>2022-07-24T09:00:45Z</time>
      </trkpt>
      <trkpt lat="47.30998" lon="-1.35553">
        <ele>57</ele>
        <time>2022-07-24T09:00:47Z</time>
      </trkpt>
      <trkpt lat="47.30988" lon="-1.35566">
        <ele>56</ele>
        <time>2022-07-24T09:00:49Z</time>
      </trkpt>
      <trkpt lat="47.30977" lon="-1.35578">
        <ele>56</ele>
        <time>2022-07-24T09:00:51Z</time>
      </trkpt>
      <trkpt lat="47.30966" lon="-1.3559">
        <ele>56</ele>
        <time>2022-07-24T09:00:53Z</time>
      </trkpt>
      <trkpt lat="47.30956" lon="-1.35601">
        <ele>56</ele>
        <time>2022-07-24T09:00:55Z</time>
      </trkpt>
      <trkpt lat="47.30947" lon="-1.35613">
        <ele>57</ele>
        <time>2022-07-24T09:00:57Z</time>
      </trkpt>
      <trkpt lat="47.30937" lon="-1.35626">
        <ele>57</ele>
        <time>2022-07-24T09:00:59Z</time>
      </trkpt>
      <trkpt lat="47.30926" lon="-1.35638">
        <ele>57</ele>
        <time>2022-07-24T09:01:01Z</time>
      </trkpt>
      <trkpt lat="47.30916" lon="-1.3565">
        <ele>57</ele>
        <time>2022-07-24T09:01:03Z</time>
      </trkpt>
      <trkpt lat="47.30905" lon="-1.35663">
        <ele>57</ele>
        <time>2022-07-24T09:01:05Z</time>
      </trkpt>
      <trkpt lat="47.3089" lon="-1.35681">
        <ele>57</ele>
        <time>2022-07-24T09:01:08Z</time>
      </trkpt>
      <trkpt lat="47.30879" lon="-1.35693">
        <ele>56</ele>
        <time>2022-07-24T09:01:10Z</time>
      </trkpt>
      <trkpt lat="47.30869" lon="-1.35705">
        <ele>57</ele>
        <time>2022-07-24T09:01:12Z</time>
      </trkpt>
      <trkpt lat="47.30859" lon="-1.35717">
        <ele>57</ele>
        <time>2022-07-24T09:01:14Z</time>
      </trkpt>
      <trkpt lat="47.30849" lon="-1.35729">
        <ele>57</ele>
        <time>2022-07-24T09:01:16Z</time>
      </trkpt>
      <trkpt lat="47.30838" lon="-1.35741">
        <ele>57</ele>
        <time>2022-07-24T09:01:18Z</time>
      </trkpt>
      <trkpt lat="47.30827" lon="-1.35753">
        <ele>57</ele>
        <time>2022-07-24T09:01:20Z</time>
      </trkpt>
      <trkpt lat="47.30817" lon="-1.35766">
        <ele>57</ele>
        <time>2022-07-24T09:01:22Z</time>
      </trkpt>
      <trkpt lat="47.30806" lon="-1.35779">
        <ele>55</ele>
        <time>2022-07-24T09:01:24Z</time>
      </trkpt>
      <trkpt lat="47.30795" lon="-1.35791">
        <ele>55</ele>
        <time>2022-07-24T09:01:26Z</time>
      </trkpt>
      <trkpt lat="47.30785" lon="-1.35803">
        <ele>55</ele>
        <time>2022-07-24T09:01:28Z</time>
      </trkpt>
      <trkpt lat="47.30775" lon="-1.35815">
        <ele>55</ele>
        <time>2022-07-24T09:01:30Z</time>
      </trkpt>
      <trkpt lat="47.30764" lon="-1.35827">
        <ele>55</ele>
        <time>2022-07-24T09:01:32Z</time>
      </trkpt>
      <trkpt lat="47.30754" lon="-1.35839">
        <ele>55</ele>
        <time>2022-07-24T09:01:34Z</time>
      </trkpt>
      <trkpt lat="47.30744" lon="-1.35851">
        <ele>55</ele>
        <time>2022-07-24T09:01:36Z</time>
      </trkpt>
      <trkpt lat="47.30734" lon="-1.35864">
        <ele>55</ele>
        <time>2022-07-24T09:01:38Z</time>
      </trkpt>
      <trkpt lat="47.30719" lon="-1.35881">
        <ele>55</ele>
        <time>2022-07-24T09:01:41Z</time>
      </trkpt>
      <trkpt lat="47.30708" lon="-1.35893">
        <ele>56</ele>
        <time>2022-07-24T09:01:43Z</time>
      </trkpt>
      <trkpt lat="47.30692" lon="-1.35911">
        <ele>56</ele>
        <time>2022-07-24T09:01:46Z</time>
      </trkpt>
      <trkpt lat="47.30682" lon="-1.35924">
        <ele>56</ele>
        <time>2022-07-24T09:01:48Z</time>
      </trkpt>
      <trkpt lat="47.30672" lon="-1.35935">
        <ele>55</ele>
        <time>2022-07-24T09:01:50Z</time>
      </trkpt>
      <trkpt lat="47.30662" lon="-1.35947">
        <ele>56</ele>
        <time>2022-07-24T09:01:52Z</time>
      </trkpt>
      <trkpt lat="47.30652" lon="-1.35957">
        <ele>56</ele>
        <time>2022-07-24T09:01:54Z</time>
      </trkpt>
      <trkpt lat="47.30643" lon="-1.35966">
        <ele>56</ele>
        <time>2022-07-24T09:01:57Z</time>
      </trkpt>
      <trkpt lat="47.30635" lon="-1.35976">
        <ele>56</ele>
        <time>2022-07-24T09:02:00Z</time>
      </trkpt>
      <trkpt lat="47.30625" lon="-1.35987">
        <ele>56</ele>
        <time>2022-07-24T09:02:03Z</time>
      </trkpt>
      <trkpt lat="47.30616" lon="-1.35996">
        <ele>56</ele>
        <time>2022-07-24T09:02:05Z</time>
      </trkpt>
      <trkpt lat="47.30607" lon="-1.36007">
        <ele>55</ele>
        <time>2022-07-24T09:02:07Z</time>
      </trkpt>
      <trkpt lat="47.30598" lon="-1.36016">
        <ele>55</ele>
        <time>2022-07-24T09:02:09Z</time>
      </trkpt>
      <trkpt lat="47.3059" lon="-1.36026">
        <ele>56</ele>
        <time>2022-07-24T09:02:11Z</time>
      </trkpt>
      <trkpt lat="47.30584" lon="-1.36039">
        <ele>56</ele>
        <time>2022-07-24T09:02:14Z</time>
      </trkpt>
      <trkpt lat="47.30576" lon="-1.36052">
        <ele>56</ele>
        <time>2022-07-24T09:02:17Z</time>
      </trkpt>
      <trkpt lat="47.30568" lon="-1.36064">
        <ele>56</ele>
        <time>2022-07-24T09:02:19Z</time>
      </trkpt>
      <trkpt lat="47.30556" lon="-1.36079">
        <ele>56</ele>
        <time>2022-07-24T09:02:21Z</time>
      </trkpt>
      <trkpt lat="47.30546" lon="-1.36095">
        <ele>56</ele>
        <time>2022-07-24T09:02:23Z</time>
      </trkpt>
      <trkpt lat="47.30536" lon="-1.36112">
        <ele>55</ele>
        <time>2022-07-24T09:02:25Z</time>
      </trkpt>
      <trkpt lat="47.30527" lon="-1.36127">
        <ele>55</ele>
        <time>2022-07-24T09:02:27Z</time>
      </trkpt>
      <trkpt lat="47.30519" lon="-1.36143">
        <ele>56</ele>
        <time>2022-07-24T09:02:29Z</time>
      </trkpt>
      <trkpt lat="47.3051" lon="-1.3616">
        <ele>57</ele>
        <time>2022-07-24T09:02:31Z</time>
      </trkpt>
      <trkpt lat="47.305" lon="-1.36175">
        <ele>57</ele>
        <time>2022-07-24T09:02:33Z</time>
      </trkpt>
      <trkpt lat="47.3049" lon="-1.36191">
        <ele>57</ele>
        <time>2022-07-24T09:02:35Z</time>
      </trkpt>
      <trkpt lat="47.30481" lon="-1.36207">
        <ele>56</ele>
        <time>2022-07-24T09:02:37Z</time>
      </trkpt>
      <trkpt lat="47.30473" lon="-1.36223">
        <ele>55</ele>
        <time>2022-07-24T09:02:39Z</time>
      </trkpt>
      <trkpt lat="47.30465" lon="-1.36238">
        <ele>55</ele>
        <time>2022-07-24T09:02:41Z</time>
      </trkpt>
      <trkpt lat="47.30457" lon="-1.36254">
        <ele>55</ele>
        <time>2022-07-24T09:02:43Z</time>
      </trkpt>
      <trkpt lat="47.30449" lon="-1.36271">
        <ele>55</ele>
        <time>2022-07-24T09:02:45Z</time>
      </trkpt>
      <trkpt lat="47.30441" lon="-1.36287">
        <ele>56</ele>
        <time>2022-07-24T09:02:47Z</time>
      </trkpt>
      <trkpt lat="47.30433" lon="-1.36303">
        <ele>56</ele>
        <time>2022-07-24T09:02:49Z</time>
      </trkpt>
      <trkpt lat="47.30426" lon="-1.36318">
        <ele>56</ele>
        <time>2022-07-24T09:02:51Z</time>
      </trkpt>
      <trkpt lat="47.30418" lon="-1.36334">
        <ele>56</ele>
        <time>2022-07-24T09:02:53Z</time>
      </trkpt>
      <trkpt lat="47.30411" lon="-1.3635">
        <ele>56</ele>
        <time>2022-07-24T09:02:55Z</time>
      </trkpt>
      <trkpt lat="47.30403" lon="-1.36365">
        <ele>56</ele>
        <time>2022-07-24T09:02:57Z</time>
      </trkpt>
      <trkpt lat="47.30397" lon="-1.36379">
        <ele>56</ele>
        <time>2022-07-24T09:02:59Z</time>
      </trkpt>
      <trkpt lat="47.30391" lon="-1.36392">
        <ele>57</ele>
        <time>2022-07-24T09:03:01Z</time>
      </trkpt>
      <trkpt lat="47.30384" lon="-1.36408">
        <ele>57</ele>
        <time>2022-07-24T09:03:03Z</time>
      </trkpt>
      <trkpt lat="47.30376" lon="-1.36424">
        <ele>56</ele>
        <time>2022-07-24T09:03:05Z</time>
      </trkpt>
      <trkpt lat="47.30369" lon="-1.36439">
        <ele>56</ele>
        <time>2022-07-24T09:03:07Z</time>
      </trkpt>
      <trkpt lat="47.30361" lon="-1.36455">
        <ele>56</ele>
        <time>2022-07-24T09:03:09Z</time>
      </trkpt>
      <trkpt lat="47.30354" lon="-1.36471">
        <ele>56</ele>
        <time>2022-07-24T09:03:11Z</time>
      </trkpt>
      <trkpt lat="47.30346" lon="-1.36487">
        <ele>56</ele>
        <time>2022-07-24T09:03:13Z</time>
      </trkpt>
      <trkpt lat="47.30338" lon="-1.36503">
        <ele>56</ele>
        <time>2022-07-24T09:03:15Z</time>
      </trkpt>
      <trkpt lat="47.30331" lon="-1.36519">
        <ele>56</ele>
        <time>2022-07-24T09:03:17Z</time>
      </trkpt>
      <trkpt lat="47.30323" lon="-1.36534">
        <ele>56</ele>
        <time>2022-07-24T09:03:19Z</time>
      </trkpt>
      <trkpt lat="47.30315" lon="-1.3655">
        <ele>55</ele>
        <time>2022-07-24T09:03:21Z</time>
      </trkpt>
      <trkpt lat="47.30308" lon="-1.36566">
        <ele>55</ele>
        <time>2022-07-24T09:03:23Z</time>
      </trkpt>
      <trkpt lat="47.303" lon="-1.36583">
        <ele>55</ele>
        <time>2022-07-24T09:03:25Z</time>
      </trkpt>
      <trkpt lat="47.30293" lon="-1.36598">
        <ele>55</ele>
        <time>2022-07-24T09:03:27Z</time>
      </trkpt>
      <trkpt lat="47.30286" lon="-1.36614">
        <ele>56</ele>
        <time>2022-07-24T09:03:29Z</time>
      </trkpt>
      <trkpt lat="47.30278" lon="-1.3663">
        <ele>55</ele>
        <time>2022-07-24T09:03:31Z</time>
      </trkpt>
      <trkpt lat="47.3027" lon="-1.36645">
        <ele>56</ele>
        <time>2022-07-24T09:03:33Z</time>
      </trkpt>
      <trkpt lat="47.30262" lon="-1.36661">
        <ele>56</ele>
        <time>2022-07-24T09:03:35Z</time>
      </trkpt>
      <trkpt lat="47.30254" lon="-1.36677">
        <ele>56</ele>
        <time>2022-07-24T09:03:37Z</time>
      </trkpt>
      <trkpt lat="47.30247" lon="-1.36692">
        <ele>56</ele>
        <time>2022-07-24T09:03:39Z</time>
      </trkpt>
      <trkpt lat="47.30238" lon="-1.36706">
        <ele>55</ele>
        <time>2022-07-24T09:03:41Z</time>
      </trkpt>
      <trkpt lat="47.3023" lon="-1.36722">
        <ele>55</ele>
        <time>2022-07-24T09:03:43Z</time>
      </trkpt>
      <trkpt lat="47.30223" lon="-1.36737">
        <ele>55</ele>
        <time>2022-07-24T09:03:45Z</time>
      </trkpt>
      <trkpt lat="47.30215" lon="-1.36752">
        <ele>55</ele>
        <time>2022-07-24T09:03:47Z</time>
      </trkpt>
      <trkpt lat="47.30208" lon="-1.36767">
        <ele>55</ele>
        <time>2022-07-24T09:03:49Z</time>
      </trkpt>
      <trkpt lat="47.30201" lon="-1.36783">
        <ele>55</ele>
        <time>2022-07-24T09:03:51Z</time>
      </trkpt>
      <trkpt lat="47.30193" lon="-1.36798">
        <ele>55</ele>
        <time>2022-07-24T09:03:53Z</time>
      </trkpt>
      <trkpt lat="47.30186" lon="-1.36814">
        <ele>56</ele>
        <time>2022-07-24T09:03:55Z</time>
      </trkpt>
      <trkpt lat="47.30179" lon="-1.3683">
        <ele>56</ele>
        <time>2022-07-24T09:03:57Z</time>
      </trkpt>
      <trkpt lat="47.30171" lon="-1.36845">
        <ele>56</ele>
        <time>2022-07-24T09:03:59Z</time>
      </trkpt>
      <trkpt lat="47.30164" lon="-1.36861">
        <ele>57</ele>
        <time>2022-07-24T09:04:01Z</time>
      </trkpt>
      <trkpt lat="47.30157" lon="-1.36876">
        <ele>57</ele>
        <time>2022-07-24T09:04:03Z</time>
      </trkpt>
      <trkpt lat="47.30149" lon="-1.36891">
        <ele>56</ele>
        <time>2022-07-24T09:04:05Z</time>
      </trkpt>
      <trkpt lat="47.30141" lon="-1.36906">
        <ele>56</ele>
        <time>2022-07-24T09:04:07Z</time>
      </trkpt>
      <trkpt lat="47.30133" lon="-1.36922">
        <ele>56</ele>
        <time>2022-07-24T09:04:09Z</time>
      </trkpt>
      <trkpt lat="47.30125" lon="-1.36938">
        <ele>56</ele>
        <time>2022-07-24T09:04:11Z</time>
      </trkpt>
      <trkpt lat="47.30118" lon="-1.36954">
        <ele>56</ele>
        <time>2022-07-24T09:04:13Z</time>
      </trkpt>
      <trkpt lat="47.30114" lon="-1.36971">
        <ele>56</ele>
        <time>2022-07-24T09:04:15Z</time>
      </trkpt>
      <trkpt lat="47.30107" lon="-1.36985">
        <ele>56</ele>
        <time>2022-07-24T09:04:17Z</time>
      </trkpt>
      <trkpt lat="47.301" lon="-1.36999">
        <ele>56</ele>
        <time>2022-07-24T09:04:19Z</time>
      </trkpt>
      <trkpt lat="47.30092" lon="-1.37014">
        <ele>56</ele>
        <time>2022-07-24T09:04:21Z</time>
      </trkpt>
      <trkpt lat="47.30085" lon="-1.37028">
        <ele>56</ele>
        <time>2022-07-24T09:04:23Z</time>
      </trkpt>
      <trkpt lat="47.30077" lon="-1.37043">
        <ele>56</ele>
        <time>2022-07-24T09:04:25Z</time>
      </trkpt>
      <trkpt lat="47.30069" lon="-1.37057">
        <ele>56</ele>
        <time>2022-07-24T09:04:27Z</time>
      </trkpt>
      <trkpt lat="47.30061" lon="-1.3707">
        <ele>56</ele>
        <time>2022-07-24T09:04:29Z</time>
      </trkpt>
      <trkpt lat="47.30053" lon="-1.37084">
        <ele>57</ele>
        <time>2022-07-24T09:04:31Z</time>
      </trkpt>
      <trkpt lat="47.30045" lon="-1.37098">
        <ele>57</ele>
        <time>2022-07-24T09:04:33Z</time>
      </trkpt>
      <trkpt lat="47.30037" lon="-1.37112">
        <ele>57</ele>
        <time>2022-07-24T09:04:35Z</time>
      </trkpt>
      <trkpt lat="47.30028" lon="-1.37125">
        <ele>57</ele>
        <time>2022-07-24T09:04:37Z</time>
      </trkpt>
      <trkpt lat="47.30019" lon="-1.37138">
        <ele>57</ele>
        <time>2022-07-24T09:04:39Z</time>
      </trkpt>
      <trkpt lat="47.30011" lon="-1.37151">
        <ele>57</ele>
        <time>2022-07-24T09:04:41Z</time>
      </trkpt>
      <trkpt lat="47.30002" lon="-1.37164">
        <ele>57</ele>
        <time>2022-07-24T09:04:43Z</time>
      </trkpt>
      <trkpt lat="47.29994" lon="-1.37177">
        <ele>57</ele>
        <time>2022-07-24T09:04:45Z</time>
      </trkpt>
      <trkpt lat="47.29986" lon="-1.3719">
        <ele>57</ele>
        <time>2022-07-24T09:04:47Z</time>
      </trkpt>
      <trkpt lat="47.29977" lon="-1.37204">
        <ele>57</ele>
        <time>2022-07-24T09:04:49Z</time>
      </trkpt>
      <trkpt lat="47.29968" lon="-1.37217">
        <ele>57</ele>
        <time>2022-07-24T09:04:51Z</time>
      </trkpt>
      <trkpt lat="47.29959" lon="-1.37231">
        <ele>57</ele>
        <time>2022-07-24T09:04:53Z</time>
      </trkpt>
      <trkpt lat="47.29951" lon="-1.37243">
        <ele>58</ele>
        <time>2022-07-24T09:04:55Z</time>
      </trkpt>
      <trkpt lat="47.29942" lon="-1.37256">
        <ele>58</ele>
        <time>2022-07-24T09:04:57Z</time>
      </trkpt>
      <trkpt lat="47.29933" lon="-1.3727">
        <ele>58</ele>
        <time>2022-07-24T09:04:59Z</time>
      </trkpt>
      <trkpt lat="47.29925" lon="-1.37283">
        <ele>58</ele>
        <time>2022-07-24T09:05:01Z</time>
      </trkpt>
      <trkpt lat="47.29916" lon="-1.37297">
        <ele>57</ele>
        <time>2022-07-24T09:05:03Z</time>
      </trkpt>
      <trkpt lat="47.29908" lon="-1.37311">
        <ele>56</ele>
        <time>2022-07-24T09:05:05Z</time>
      </trkpt>
      <trkpt lat="47.29899" lon="-1.37325">
        <ele>57</ele>
        <time>2022-07-24T09:05:07Z</time>
      </trkpt>
      <trkpt lat="47.29891" lon="-1.37338">
        <ele>57</ele>
        <time>2022-07-24T09:05:09Z</time>
      </trkpt>
      <trkpt lat="47.29883" lon="-1.3735">
        <ele>57</ele>
        <time>2022-07-24T09:05:11Z</time>
      </trkpt>
      <trkpt lat="47.29876" lon="-1.37362">
        <ele>57</ele>
        <time>2022-07-24T09:05:13Z</time>
      </trkpt>
      <trkpt lat="47.29868" lon="-1.37374">
        <ele>57</ele>
        <time>2022-07-24T09:05:15Z</time>
      </trkpt>
      <trkpt lat="47.2986" lon="-1.37385">
        <ele>57</ele>
        <time>2022-07-24T09:05:17Z</time>
      </trkpt>
      <trkpt lat="47.29852" lon="-1.37397">
        <ele>57</ele>
        <time>2022-07-24T09:05:19Z</time>
      </trkpt>
      <trkpt lat="47.29845" lon="-1.37409">
        <ele>57</ele>
        <time>2022-07-24T09:05:21Z</time>
      </trkpt>
      <trkpt lat="47.29837" lon="-1.3742">
        <ele>57</ele>
        <time>2022-07-24T09:05:23Z</time>
      </trkpt>
      <trkpt lat="47.2983" lon="-1.37432">
        <ele>57</ele>
        <time>2022-07-24T09:05:25Z</time>
      </trkpt>
      <trkpt lat="47.29822" lon="-1.37446">
        <ele>57</ele>
        <time>2022-07-24T09:05:27Z</time>
      </trkpt>
      <trkpt lat="47.29812" lon="-1.37463">
        <ele>57</ele>
        <time>2022-07-24T09:05:29Z</time>
      </trkpt>
      <trkpt lat="47.29802" lon="-1.37479">
        <ele>57</ele>
        <time>2022-07-24T09:05:31Z</time>
      </trkpt>
      <trkpt lat="47.29792" lon="-1.37494">
        <ele>57</ele>
        <time>2022-07-24T09:05:33Z</time>
      </trkpt>
      <trkpt lat="47.29783" lon="-1.3751">
        <ele>57</ele>
        <time>2022-07-24T09:05:35Z</time>
      </trkpt>
      <trkpt lat="47.29774" lon="-1.37526">
        <ele>57</ele>
        <time>2022-07-24T09:05:37Z</time>
      </trkpt>
      <trkpt lat="47.29765" lon="-1.37542">
        <ele>57</ele>
        <time>2022-07-24T09:05:39Z</time>
      </trkpt>
      <trkpt lat="47.29757" lon="-1.37558">
        <ele>57</ele>
        <time>2022-07-24T09:05:41Z</time>
      </trkpt>
      <trkpt lat="47.29749" lon="-1.37574">
        <ele>56</ele>
        <time>2022-07-24T09:05:43Z</time>
      </trkpt>
      <trkpt lat="47.29741" lon="-1.3759">
        <ele>56</ele>
        <time>2022-07-24T09:05:45Z</time>
      </trkpt>
      <trkpt lat="47.29733" lon="-1.37605">
        <ele>56</ele>
        <time>2022-07-24T09:05:47Z</time>
      </trkpt>
      <trkpt lat="47.29725" lon="-1.3762">
        <ele>56</ele>
        <time>2022-07-24T09:05:49Z</time>
      </trkpt>
      <trkpt lat="47.29716" lon="-1.37635">
        <ele>56</ele>
        <time>2022-07-24T09:05:51Z</time>
      </trkpt>
      <trkpt lat="47.29709" lon="-1.3765">
        <ele>56</ele>
        <time>2022-07-24T09:05:53Z</time>
      </trkpt>
      <trkpt lat="47.29702" lon="-1.37665">
        <ele>56</ele>
        <time>2022-07-24T09:05:55Z</time>
      </trkpt>
      <trkpt lat="47.29695" lon="-1.3768">
        <ele>56</ele>
        <time>2022-07-24T09:05:57Z</time>
      </trkpt>
      <trkpt lat="47.29687" lon="-1.37694">
        <ele>56</ele>
        <time>2022-07-24T09:05:59Z</time>
      </trkpt>
      <trkpt lat="47.2968" lon="-1.37708">
        <ele>55</ele>
        <time>2022-07-24T09:06:01Z</time>
      </trkpt>
      <trkpt lat="47.29673" lon="-1.37723">
        <ele>55</ele>
        <time>2022-07-24T09:06:03Z</time>
      </trkpt>
      <trkpt lat="47.29665" lon="-1.37737">
        <ele>56</ele>
        <time>2022-07-24T09:06:05Z</time>
      </trkpt>
      <trkpt lat="47.29658" lon="-1.37752">
        <ele>56</ele>
        <time>2022-07-24T09:06:07Z</time>
      </trkpt>
      <trkpt lat="47.29651" lon="-1.37767">
        <ele>55</ele>
        <time>2022-07-24T09:06:09Z</time>
      </trkpt>
      <trkpt lat="47.29643" lon="-1.37781">
        <ele>55</ele>
        <time>2022-07-24T09:06:11Z</time>
      </trkpt>
      <trkpt lat="47.29636" lon="-1.37795">
        <ele>55</ele>
        <time>2022-07-24T09:06:13Z</time>
      </trkpt>
      <trkpt lat="47.29628" lon="-1.37807">
        <ele>55</ele>
        <time>2022-07-24T09:06:15Z</time>
      </trkpt>
      <trkpt lat="47.2962" lon="-1.37822">
        <ele>56</ele>
        <time>2022-07-24T09:06:17Z</time>
      </trkpt>
      <trkpt lat="47.29613" lon="-1.37836">
        <ele>55</ele>
        <time>2022-07-24T09:06:19Z</time>
      </trkpt>
      <trkpt lat="47.29606" lon="-1.37851">
        <ele>55</ele>
        <time>2022-07-24T09:06:21Z</time>
      </trkpt>
      <trkpt lat="47.29599" lon="-1.37867">
        <ele>55</ele>
        <time>2022-07-24T09:06:23Z</time>
      </trkpt>
      <trkpt lat="47.29592" lon="-1.37882">
        <ele>55</ele>
        <time>2022-07-24T09:06:25Z</time>
      </trkpt>
      <trkpt lat="47.29585" lon="-1.37896">
        <ele>55</ele>
        <time>2022-07-24T09:06:27Z</time>
      </trkpt>
      <trkpt lat="47.29578" lon="-1.37911">
        <ele>55</ele>
        <time>2022-07-24T09:06:29Z</time>
      </trkpt>
      <trkpt lat="47.29572" lon="-1.37927">
        <ele>56</ele>
        <time>2022-07-24T09:06:31Z</time>
      </trkpt>
      <trkpt lat="47.29565" lon="-1.37943">
        <ele>56</ele>
        <time>2022-07-24T09:06:33Z</time>
      </trkpt>
      <trkpt lat="47.29558" lon="-1.3796">
        <ele>55</ele>
        <time>2022-07-24T09:06:35Z</time>
      </trkpt>
      <trkpt lat="47.29552" lon="-1.37976">
        <ele>56</ele>
        <time>2022-07-24T09:06:37Z</time>
      </trkpt>
      <trkpt lat="47.29546" lon="-1.37992">
        <ele>56</ele>
        <time>2022-07-24T09:06:39Z</time>
      </trkpt>
      <trkpt lat="47.2954" lon="-1.38008">
        <ele>56</ele>
        <time>2022-07-24T09:06:41Z</time>
      </trkpt>
      <trkpt lat="47.29535" lon="-1.38024">
        <ele>56</ele>
        <time>2022-07-24T09:06:43Z</time>
      </trkpt>
      <trkpt lat="47.29529" lon="-1.3804">
        <ele>56</ele>
        <time>2022-07-24T09:06:45Z</time>
      </trkpt>
      <trkpt lat="47.29524" lon="-1.38056">
        <ele>56</ele>
        <time>2022-07-24T09:06:47Z</time>
      </trkpt>
      <trkpt lat="47.29518" lon="-1.38073">
        <ele>56</ele>
        <time>2022-07-24T09:06:49Z</time>
      </trkpt>
      <trkpt lat="47.29513" lon="-1.3809">
        <ele>56</ele>
        <time>2022-07-24T09:06:51Z</time>
      </trkpt>
      <trkpt lat="47.29508" lon="-1.38107">
        <ele>56</ele>
        <time>2022-07-24T09:06:53Z</time>
      </trkpt>
      <trkpt lat="47.29503" lon="-1.38125">
        <ele>56</ele>
        <time>2022-07-24T09:06:55Z</time>
      </trkpt>
      <trkpt lat="47.29498" lon="-1.38142">
        <ele>56</ele>
        <time>2022-07-24T09:06:57Z</time>
      </trkpt>
      <trkpt lat="47.29494" lon="-1.38159">
        <ele>56</ele>
        <time>2022-07-24T09:06:59Z</time>
      </trkpt>
      <trkpt lat="47.29489" lon="-1.38176">
        <ele>56</ele>
        <time>2022-07-24T09:07:01Z</time>
      </trkpt>
      <trkpt lat="47.29485" lon="-1.38193">
        <ele>56</ele>
        <time>2022-07-24T09:07:03Z</time>
      </trkpt>
      <trkpt lat="47.29481" lon="-1.38211">
        <ele>57</ele>
        <time>2022-07-24T09:07:05Z</time>
      </trkpt>
      <trkpt lat="47.29476" lon="-1.38228">
        <ele>57</ele>
        <time>2022-07-24T09:07:07Z</time>
      </trkpt>
      <trkpt lat="47.29471" lon="-1.38244">
        <ele>57</ele>
        <time>2022-07-24T09:07:09Z</time>
      </trkpt>
      <trkpt lat="47.29467" lon="-1.3826">
        <ele>57</ele>
        <time>2022-07-24T09:07:11Z</time>
      </trkpt>
      <trkpt lat="47.29462" lon="-1.38277">
        <ele>57</ele>
        <time>2022-07-24T09:07:13Z</time>
      </trkpt>
      <trkpt lat="47.29458" lon="-1.38293">
        <ele>57</ele>
        <time>2022-07-24T09:07:15Z</time>
      </trkpt>
      <trkpt lat="47.29454" lon="-1.38309">
        <ele>57</ele>
        <time>2022-07-24T09:07:17Z</time>
      </trkpt>
      <trkpt lat="47.29448" lon="-1.38322">
        <ele>58</ele>
        <time>2022-07-24T09:07:19Z</time>
      </trkpt>
      <trkpt lat="47.2944" lon="-1.38334">
        <ele>58</ele>
        <time>2022-07-24T09:07:21Z</time>
      </trkpt>
      <trkpt lat="47.29436" lon="-1.38351">
        <ele>58</ele>
        <time>2022-07-24T09:07:23Z</time>
      </trkpt>
      <trkpt lat="47.29434" lon="-1.38369">
        <ele>58</ele>
        <time>2022-07-24T09:07:25Z</time>
      </trkpt>
      <trkpt lat="47.2943" lon="-1.38388">
        <ele>58</ele>
        <time>2022-07-24T09:07:27Z</time>
      </trkpt>
      <trkpt lat="47.29425" lon="-1.38406">
        <ele>57</ele>
        <time>2022-07-24T09:07:29Z</time>
      </trkpt>
      <trkpt lat="47.29421" lon="-1.38425">
        <ele>57</ele>
        <time>2022-07-24T09:07:31Z</time>
      </trkpt>
      <trkpt lat="47.29417" lon="-1.38442">
        <ele>57</ele>
        <time>2022-07-24T09:07:33Z</time>
      </trkpt>
      <trkpt lat="47.29412" lon="-1.3846">
        <ele>57</ele>
        <time>2022-07-24T09:07:35Z</time>
      </trkpt>
      <trkpt lat="47.29407" lon="-1.38477">
        <ele>56</ele>
        <time>2022-07-24T09:07:37Z</time>
      </trkpt>
      <trkpt lat="47.29402" lon="-1.38493">
        <ele>56</ele>
        <time>2022-07-24T09:07:39Z</time>
      </trkpt>
      <trkpt lat="47.29398" lon="-1.38508">
        <ele>57</ele>
        <time>2022-07-24T09:07:41Z</time>
      </trkpt>
      <trkpt lat="47.29394" lon="-1.38522">
        <ele>56</ele>
        <time>2022-07-24T09:07:43Z</time>
      </trkpt>
      <trkpt lat="47.29387" lon="-1.38535">
        <ele>56</ele>
        <time>2022-07-24T09:07:45Z</time>
      </trkpt>
      <trkpt lat="47.29379" lon="-1.38549">
        <ele>55</ele>
        <time>2022-07-24T09:07:47Z</time>
      </trkpt>
      <trkpt lat="47.29372" lon="-1.38568">
        <ele>55</ele>
        <time>2022-07-24T09:07:49Z</time>
      </trkpt>
      <trkpt lat="47.29365" lon="-1.38587">
        <ele>54</ele>
        <time>2022-07-24T09:07:51Z</time>
      </trkpt>
      <trkpt lat="47.29359" lon="-1.38608">
        <ele>54</ele>
        <time>2022-07-24T09:07:53Z</time>
      </trkpt>
      <trkpt lat="47.29352" lon="-1.38628">
        <ele>54</ele>
        <time>2022-07-24T09:07:55Z</time>
      </trkpt>
      <trkpt lat="47.29346" lon="-1.38647">
        <ele>54</ele>
        <time>2022-07-24T09:07:57Z</time>
      </trkpt>
      <trkpt lat="47.29341" lon="-1.38666">
        <ele>53</ele>
        <time>2022-07-24T09:07:59Z</time>
      </trkpt>
      <trkpt lat="47.29335" lon="-1.38684">
        <ele>53</ele>
        <time>2022-07-24T09:08:01Z</time>
      </trkpt>
      <trkpt lat="47.29329" lon="-1.38701">
        <ele>53</ele>
        <time>2022-07-24T09:08:03Z</time>
      </trkpt>
      <trkpt lat="47.29324" lon="-1.38719">
        <ele>53</ele>
        <time>2022-07-24T09:08:05Z</time>
      </trkpt>
      <trkpt lat="47.29321" lon="-1.38738">
        <ele>53</ele>
        <time>2022-07-24T09:08:07Z</time>
      </trkpt>
      <trkpt lat="47.29317" lon="-1.38756">
        <ele>54</ele>
        <time>2022-07-24T09:08:09Z</time>
      </trkpt>
      <trkpt lat="47.29312" lon="-1.38774">
        <ele>54</ele>
        <time>2022-07-24T09:08:11Z</time>
      </trkpt>
      <trkpt lat="47.29307" lon="-1.38791">
        <ele>54</ele>
        <time>2022-07-24T09:08:13Z</time>
      </trkpt>
      <trkpt lat="47.29302" lon="-1.3881">
        <ele>54</ele>
        <time>2022-07-24T09:08:15Z</time>
      </trkpt>
      <trkpt lat="47.29297" lon="-1.38827">
        <ele>54</ele>
        <time>2022-07-24T09:08:17Z</time>
      </trkpt>
      <trkpt lat="47.29292" lon="-1.38845">
        <ele>54</ele>
        <time>2022-07-24T09:08:19Z</time>
      </trkpt>
      <trkpt lat="47.29287" lon="-1.38863">
        <ele>54</ele>
        <time>2022-07-24T09:08:21Z</time>
      </trkpt>
      <trkpt lat="47.29283" lon="-1.38881">
        <ele>54</ele>
        <time>2022-07-24T09:08:23Z</time>
      </trkpt>
      <trkpt lat="47.29278" lon="-1.389">
        <ele>54</ele>
        <time>2022-07-24T09:08:25Z</time>
      </trkpt>
      <trkpt lat="47.29273" lon="-1.38917">
        <ele>54</ele>
        <time>2022-07-24T09:08:27Z</time>
      </trkpt>
      <trkpt lat="47.29269" lon="-1.38934">
        <ele>54</ele>
        <time>2022-07-24T09:08:29Z</time>
      </trkpt>
      <trkpt lat="47.29264" lon="-1.38952">
        <ele>55</ele>
        <time>2022-07-24T09:08:31Z</time>
      </trkpt>
      <trkpt lat="47.29259" lon="-1.3897">
        <ele>54</ele>
        <time>2022-07-24T09:08:33Z</time>
      </trkpt>
      <trkpt lat="47.29254" lon="-1.38988">
        <ele>55</ele>
        <time>2022-07-24T09:08:35Z</time>
      </trkpt>
      <trkpt lat="47.29249" lon="-1.39005">
        <ele>55</ele>
        <time>2022-07-24T09:08:37Z</time>
      </trkpt>
      <trkpt lat="47.29245" lon="-1.39022">
        <ele>55</ele>
        <time>2022-07-24T09:08:39Z</time>
      </trkpt>
      <trkpt lat="47.29241" lon="-1.39039">
        <ele>55</ele>
        <time>2022-07-24T09:08:41Z</time>
      </trkpt>
      <trkpt lat="47.29236" lon="-1.39056">
        <ele>55</ele>
        <time>2022-07-24T09:08:43Z</time>
      </trkpt>
      <trkpt lat="47.29231" lon="-1.39073">
        <ele>55</ele>
        <time>2022-07-24T09:08:45Z</time>
      </trkpt>
      <trkpt lat="47.29225" lon="-1.3909">
        <ele>55</ele>
        <time>2022-07-24T09:08:47Z</time>
      </trkpt>
      <trkpt lat="47.29217" lon="-1.39105">
        <ele>55</ele>
        <time>2022-07-24T09:08:49Z</time>
      </trkpt>
      <trkpt lat="47.29209" lon="-1.39119">
        <ele>55</ele>
        <time>2022-07-24T09:08:51Z</time>
      </trkpt>
      <trkpt lat="47.292" lon="-1.39132">
        <ele>55</ele>
        <time>2022-07-24T09:08:53Z</time>
      </trkpt>
      <trkpt lat="47.2919" lon="-1.39145">
        <ele>55</ele>
        <time>2022-07-24T09:08:55Z</time>
      </trkpt>
      <trkpt lat="47.2918" lon="-1.39156">
        <ele>55</ele>
        <time>2022-07-24T09:08:57Z</time>
      </trkpt>
      <trkpt lat="47.29171" lon="-1.39168">
        <ele>55</ele>
        <time>2022-07-24T09:08:59Z</time>
      </trkpt>
      <trkpt lat="47.29161" lon="-1.3918">
        <ele>55</ele>
        <time>2022-07-24T09:09:01Z</time>
      </trkpt>
      <trkpt lat="47.29151" lon="-1.39191">
        <ele>55</ele>
        <time>2022-07-24T09:09:03Z</time>
      </trkpt>
      <trkpt lat="47.29141" lon="-1.39203">
        <ele>55</ele>
        <time>2022-07-24T09:09:05Z</time>
      </trkpt>
      <trkpt lat="47.29132" lon="-1.39215">
        <ele>55</ele>
        <time>2022-07-24T09:09:07Z</time>
      </trkpt>
      <trkpt lat="47.29122" lon="-1.39226">
        <ele>55</ele>
        <time>2022-07-24T09:09:09Z</time>
      </trkpt>
      <trkpt lat="47.29113" lon="-1.39239">
        <ele>55</ele>
        <time>2022-07-24T09:09:11Z</time>
      </trkpt>
      <trkpt lat="47.29104" lon="-1.39252">
        <ele>55</ele>
        <time>2022-07-24T09:09:13Z</time>
      </trkpt>
      <trkpt lat="47.29096" lon="-1.39266">
        <ele>55</ele>
        <time>2022-07-24T09:09:15Z</time>
      </trkpt>
      <trkpt lat="47.29087" lon="-1.39281">
        <ele>55</ele>
        <time>2022-07-24T09:09:17Z</time>
      </trkpt>
      <trkpt lat="47.29079" lon="-1.39294">
        <ele>55</ele>
        <time>2022-07-24T09:09:19Z</time>
      </trkpt>
      <trkpt lat="47.29069" lon="-1.39305">
        <ele>56</ele>
        <time>2022-07-24T09:09:21Z</time>
      </trkpt>
      <trkpt lat="47.29058" lon="-1.39316">
        <ele>56</ele>
        <time>2022-07-24T09:09:23Z</time>
      </trkpt>
      <trkpt lat="47.29048" lon="-1.39326">
        <ele>56</ele>
        <time>2022-07-24T09:09:25Z</time>
      </trkpt>
      <trkpt lat="47.29039" lon="-1.39338">
        <ele>56</ele>
        <time>2022-07-24T09:09:27Z</time>
      </trkpt>
      <trkpt lat="47.2903" lon="-1.39349">
        <ele>57</ele>
        <time>2022-07-24T09:09:29Z</time>
      </trkpt>
      <trkpt lat="47.29021" lon="-1.39361">
        <ele>57</ele>
        <time>2022-07-24T09:09:31Z</time>
      </trkpt>
      <trkpt lat="47.29012" lon="-1.39374">
        <ele>57</ele>
        <time>2022-07-24T09:09:33Z</time>
      </trkpt>
      <trkpt lat="47.29003" lon="-1.39387">
        <ele>57</ele>
        <time>2022-07-24T09:09:35Z</time>
      </trkpt>
      <trkpt lat="47.28993" lon="-1.39398">
        <ele>57</ele>
        <time>2022-07-24T09:09:37Z</time>
      </trkpt>
      <trkpt lat="47.28983" lon="-1.39411">
        <ele>57</ele>
        <time>2022-07-24T09:09:39Z</time>
      </trkpt>
      <trkpt lat="47.28974" lon="-1.39423">
        <ele>57</ele>
        <time>2022-07-24T09:09:41Z</time>
      </trkpt>
      <trkpt lat="47.28964" lon="-1.39433">
        <ele>58</ele>
        <time>2022-07-24T09:09:43Z</time>
      </trkpt>
      <trkpt lat="47.28955" lon="-1.39445">
        <ele>58</ele>
        <time>2022-07-24T09:09:45Z</time>
      </trkpt>
      <trkpt lat="47.28945" lon="-1.39456">
        <ele>58</ele>
        <time>2022-07-24T09:09:47Z</time>
      </trkpt>
      <trkpt lat="47.28936" lon="-1.39468">
        <ele>58</ele>
        <time>2022-07-24T09:09:49Z</time>
      </trkpt>
      <trkpt lat="47.28927" lon="-1.3948">
        <ele>58</ele>
        <time>2022-07-24T09:09:51Z</time>
      </trkpt>
      <trkpt lat="47.28918" lon="-1.39492">
        <ele>57</ele>
        <time>2022-07-24T09:09:53Z</time>
      </trkpt>
      <trkpt lat="47.28908" lon="-1.39503">
        <ele>57</ele>
        <time>2022-07-24T09:09:55Z</time>
      </trkpt>
      <trkpt lat="47.28898" lon="-1.39515">
        <ele>57</ele>
        <time>2022-07-24T09:09:57Z</time>
      </trkpt>
      <trkpt lat="47.28887" lon="-1.39527">
        <ele>58</ele>
        <time>2022-07-24T09:09:59Z</time>
      </trkpt>
      <trkpt lat="47.28878" lon="-1.39539">
        <ele>57</ele>
        <time>2022-07-24T09:10:01Z</time>
      </trkpt>
      <trkpt lat="47.28868" lon="-1.39551">
        <ele>58</ele>
        <time>2022-07-24T09:10:03Z</time>
      </trkpt>
      <trkpt lat="47.28859" lon="-1.39563">
        <ele>58</ele>
        <time>2022-07-24T09:10:05Z</time>
      </trkpt>
      <trkpt lat="47.28849" lon="-1.39575">
        <ele>58</ele>
        <time>2022-07-24T09:10:07Z</time>
      </trkpt>
      <trkpt lat="47.28839" lon="-1.39587">
        <ele>57</ele>
        <time>2022-07-24T09:10:09Z</time>
      </trkpt>
      <trkpt lat="47.28829" lon="-1.39599">
        <ele>58</ele>
        <time>2022-07-24T09:10:11Z</time>
      </trkpt>
      <trkpt lat="47.28819" lon="-1.39611">
        <ele>58</ele>
        <time>2022-07-24T09:10:13Z</time>
      </trkpt>
      <trkpt lat="47.2881" lon="-1.39622">
        <ele>58</ele>
        <time>2022-07-24T09:10:15Z</time>
      </trkpt>
      <trkpt lat="47.288" lon="-1.39634">
        <ele>58</ele>
        <time>2022-07-24T09:10:17Z</time>
      </trkpt>
      <trkpt lat="47.28789" lon="-1.39645">
        <ele>58</ele>
        <time>2022-07-24T09:10:19Z</time>
      </trkpt>
      <trkpt lat="47.2878" lon="-1.39657">
        <ele>57</ele>
        <time>2022-07-24T09:10:21Z</time>
      </trkpt>
      <trkpt lat="47.2877" lon="-1.39669">
        <ele>57</ele>
        <time>2022-07-24T09:10:23Z</time>
      </trkpt>
      <trkpt lat="47.2876" lon="-1.3968">
        <ele>58</ele>
        <time>2022-07-24T09:10:25Z</time>
      </trkpt>
      <trkpt lat="47.28751" lon="-1.39692">
        <ele>58</ele>
        <time>2022-07-24T09:10:27Z</time>
      </trkpt>
      <trkpt lat="47.28741" lon="-1.39703">
        <ele>58</ele>
        <time>2022-07-24T09:10:29Z</time>
      </trkpt>
      <trkpt lat="47.28731" lon="-1.39714">
        <ele>58</ele>
        <time>2022-07-24T09:10:31Z</time>
      </trkpt>
      <trkpt lat="47.28721" lon="-1.39726">
        <ele>58</ele>
        <time>2022-07-24T09:10:33Z</time>
      </trkpt>
      <trkpt lat="47.28712" lon="-1.39737">
        <ele>58</ele>
        <time>2022-07-24T09:10:35Z</time>
      </trkpt>
      <trkpt lat="47.28702" lon="-1.39749">
        <ele>58</ele>
        <time>2022-07-24T09:10:37Z</time>
      </trkpt>
      <trkpt lat="47.28693" lon="-1.3976">
        <ele>58</ele>
        <time>2022-07-24T09:10:39Z</time>
      </trkpt>
      <trkpt lat="47.28683" lon="-1.39772">
        <ele>58</ele>
        <time>2022-07-24T09:10:41Z</time>
      </trkpt>
      <trkpt lat="47.28674" lon="-1.39784">
        <ele>58</ele>
        <time>2022-07-24T09:10:43Z</time>
      </trkpt>
      <trkpt lat="47.28665" lon="-1.39796">
        <ele>58</ele>
        <time>2022-07-24T09:10:45Z</time>
      </trkpt>
      <trkpt lat="47.28656" lon="-1.3981">
        <ele>58</ele>
        <time>2022-07-24T09:10:47Z</time>
      </trkpt>
      <trkpt lat="47.28648" lon="-1.39823">
        <ele>57</ele>
        <time>2022-07-24T09:10:49Z</time>
      </trkpt>
      <trkpt lat="47.28639" lon="-1.39837">
        <ele>57</ele>
        <time>2022-07-24T09:10:51Z</time>
      </trkpt>
      <trkpt lat="47.2863" lon="-1.3985">
        <ele>57</ele>
        <time>2022-07-24T09:10:53Z</time>
      </trkpt>
      <trkpt lat="47.28622" lon="-1.39864">
        <ele>57</ele>
        <time>2022-07-24T09:10:55Z</time>
      </trkpt>
      <trkpt lat="47.28613" lon="-1.39877">
        <ele>57</ele>
        <time>2022-07-24T09:10:57Z</time>
      </trkpt>
      <trkpt lat="47.28605" lon="-1.3989">
        <ele>57</ele>
        <time>2022-07-24T09:10:59Z</time>
      </trkpt>
      <trkpt lat="47.28596" lon="-1.39902">
        <ele>58</ele>
        <time>2022-07-24T09:11:01Z</time>
      </trkpt>
      <trkpt lat="47.28588" lon="-1.39916">
        <ele>58</ele>
        <time>2022-07-24T09:11:03Z</time>
      </trkpt>
      <trkpt lat="47.28579" lon="-1.39929">
        <ele>58</ele>
        <time>2022-07-24T09:11:05Z</time>
      </trkpt>
      <trkpt lat="47.28571" lon="-1.39941">
        <ele>59</ele>
        <time>2022-07-24T09:11:07Z</time>
      </trkpt>
      <trkpt lat="47.28563" lon="-1.39954">
        <ele>59</ele>
        <time>2022-07-24T09:11:09Z</time>
      </trkpt>
      <trkpt lat="47.28554" lon="-1.39967">
        <ele>60</ele>
        <time>2022-07-24T09:11:11Z</time>
      </trkpt>
      <trkpt lat="47.28545" lon="-1.3998">
        <ele>60</ele>
        <time>2022-07-24T09:11:13Z</time>
      </trkpt>
      <trkpt lat="47.28536" lon="-1.39993">
        <ele>59</ele>
        <time>2022-07-24T09:11:15Z</time>
      </trkpt>
      <trkpt lat="47.28528" lon="-1.40005">
        <ele>59</ele>
        <time>2022-07-24T09:11:17Z</time>
      </trkpt>
      <trkpt lat="47.28519" lon="-1.40018">
        <ele>59</ele>
        <time>2022-07-24T09:11:19Z</time>
      </trkpt>
      <trkpt lat="47.2851" lon="-1.40031">
        <ele>59</ele>
        <time>2022-07-24T09:11:21Z</time>
      </trkpt>
      <trkpt lat="47.28502" lon="-1.40044">
        <ele>59</ele>
        <time>2022-07-24T09:11:23Z</time>
      </trkpt>
      <trkpt lat="47.28495" lon="-1.40058">
        <ele>59</ele>
        <time>2022-07-24T09:11:25Z</time>
      </trkpt>
      <trkpt lat="47.28489" lon="-1.40072">
        <ele>60</ele>
        <time>2022-07-24T09:11:27Z</time>
      </trkpt>
      <trkpt lat="47.28483" lon="-1.40087">
        <ele>60</ele>
        <time>2022-07-24T09:11:29Z</time>
      </trkpt>
      <trkpt lat="47.28475" lon="-1.40102">
        <ele>61</ele>
        <time>2022-07-24T09:11:31Z</time>
      </trkpt>
      <trkpt lat="47.28469" lon="-1.40119">
        <ele>61</ele>
        <time>2022-07-24T09:11:33Z</time>
      </trkpt>
      <trkpt lat="47.28462" lon="-1.40137">
        <ele>61</ele>
        <time>2022-07-24T09:11:35Z</time>
      </trkpt>
      <trkpt lat="47.28456" lon="-1.40152">
        <ele>62</ele>
        <time>2022-07-24T09:11:37Z</time>
      </trkpt>
      <trkpt lat="47.28449" lon="-1.4017">
        <ele>61</ele>
        <time>2022-07-24T09:11:39Z</time>
      </trkpt>
      <trkpt lat="47.28442" lon="-1.40185">
        <ele>61</ele>
        <time>2022-07-24T09:11:41Z</time>
      </trkpt>
      <trkpt lat="47.28436" lon="-1.40201">
        <ele>61</ele>
        <time>2022-07-24T09:11:43Z</time>
      </trkpt>
      <trkpt lat="47.28429" lon="-1.40217">
        <ele>61</ele>
        <time>2022-07-24T09:11:45Z</time>
      </trkpt>
      <trkpt lat="47.28423" lon="-1.40232">
        <ele>61</ele>
        <time>2022-07-24T09:11:47Z</time>
      </trkpt>
      <trkpt lat="47.28416" lon="-1.40247">
        <ele>61</ele>
        <time>2022-07-24T09:11:49Z</time>
      </trkpt>
      <trkpt lat="47.28409" lon="-1.40263">
        <ele>61</ele>
        <time>2022-07-24T09:11:51Z</time>
      </trkpt>
      <trkpt lat="47.28402" lon="-1.4028">
        <ele>59</ele>
        <time>2022-07-24T09:11:53Z</time>
      </trkpt>
      <trkpt lat="47.28395" lon="-1.40296">
        <ele>58</ele>
        <time>2022-07-24T09:11:55Z</time>
      </trkpt>
      <trkpt lat="47.28388" lon="-1.40311">
        <ele>58</ele>
        <time>2022-07-24T09:11:57Z</time>
      </trkpt>
      <trkpt lat="47.2838" lon="-1.40324">
        <ele>58</ele>
        <time>2022-07-24T09:11:59Z</time>
      </trkpt>
      <trkpt lat="47.28371" lon="-1.40338">
        <ele>58</ele>
        <time>2022-07-24T09:12:01Z</time>
      </trkpt>
      <trkpt lat="47.28362" lon="-1.40351">
        <ele>57</ele>
        <time>2022-07-24T09:12:03Z</time>
      </trkpt>
      <trkpt lat="47.28353" lon="-1.40363">
        <ele>58</ele>
        <time>2022-07-24T09:12:05Z</time>
      </trkpt>
      <trkpt lat="47.28344" lon="-1.40375">
        <ele>58</ele>
        <time>2022-07-24T09:12:07Z</time>
      </trkpt>
      <trkpt lat="47.28334" lon="-1.40388">
        <ele>57</ele>
        <time>2022-07-24T09:12:09Z</time>
      </trkpt>
      <trkpt lat="47.28325" lon="-1.40401">
        <ele>57</ele>
        <time>2022-07-24T09:12:11Z</time>
      </trkpt>
      <trkpt lat="47.28315" lon="-1.40412">
        <ele>57</ele>
        <time>2022-07-24T09:12:13Z</time>
      </trkpt>
      <trkpt lat="47.28305" lon="-1.40423">
        <ele>57</ele>
        <time>2022-07-24T09:12:15Z</time>
      </trkpt>
      <trkpt lat="47.28295" lon="-1.40434">
        <ele>57</ele>
        <time>2022-07-24T09:12:17Z</time>
      </trkpt>
      <trkpt lat="47.28284" lon="-1.40444">
        <ele>56</ele>
        <time>2022-07-24T09:12:19Z</time>
      </trkpt>
      <trkpt lat="47.28274" lon="-1.40455">
        <ele>56</ele>
        <time>2022-07-24T09:12:21Z</time>
      </trkpt>
      <trkpt lat="47.28263" lon="-1.40465">
        <ele>56</ele>
        <time>2022-07-24T09:12:23Z</time>
      </trkpt>
      <trkpt lat="47.28253" lon="-1.40474">
        <ele>57</ele>
        <time>2022-07-24T09:12:25Z</time>
      </trkpt>
      <trkpt lat="47.28243" lon="-1.40484">
        <ele>57</ele>
        <time>2022-07-24T09:12:27Z</time>
      </trkpt>
      <trkpt lat="47.28233" lon="-1.40494">
        <ele>57</ele>
        <time>2022-07-24T09:12:29Z</time>
      </trkpt>
      <trkpt lat="47.28223" lon="-1.40504">
        <ele>57</ele>
        <time>2022-07-24T09:12:31Z</time>
      </trkpt>
      <trkpt lat="47.28212" lon="-1.40514">
        <ele>57</ele>
        <time>2022-07-24T09:12:33Z</time>
      </trkpt>
      <trkpt lat="47.28201" lon="-1.40525">
        <ele>57</ele>
        <time>2022-07-24T09:12:35Z</time>
      </trkpt>
      <trkpt lat="47.28191" lon="-1.40535">
        <ele>57</ele>
        <time>2022-07-24T09:12:37Z</time>
      </trkpt>
      <trkpt lat="47.2818" lon="-1.40546">
        <ele>57</ele>
        <time>2022-07-24T09:12:39Z</time>
      </trkpt>
      <trkpt lat="47.2817" lon="-1.40556">
        <ele>57</ele>
        <time>2022-07-24T09:12:41Z</time>
      </trkpt>
      <trkpt lat="47.28159" lon="-1.40566">
        <ele>57</ele>
        <time>2022-07-24T09:12:43Z</time>
      </trkpt>
      <trkpt lat="47.28149" lon="-1.40576">
        <ele>57</ele>
        <time>2022-07-24T09:12:45Z</time>
      </trkpt>
      <trkpt lat="47.28138" lon="-1.40586">
        <ele>57</ele>
        <time>2022-07-24T09:12:47Z</time>
      </trkpt>
      <trkpt lat="47.28128" lon="-1.40596">
        <ele>57</ele>
        <time>2022-07-24T09:12:49Z</time>
      </trkpt>
      <trkpt lat="47.28118" lon="-1.40607">
        <ele>58</ele>
        <time>2022-07-24T09:12:51Z</time>
      </trkpt>
      <trkpt lat="47.28108" lon="-1.40616">
        <ele>58</ele>
        <time>2022-07-24T09:12:53Z</time>
      </trkpt>
      <trkpt lat="47.28098" lon="-1.40627">
        <ele>58</ele>
        <time>2022-07-24T09:12:55Z</time>
      </trkpt>
      <trkpt lat="47.28088" lon="-1.40637">
        <ele>58</ele>
        <time>2022-07-24T09:12:57Z</time>
      </trkpt>
      <trkpt lat="47.28077" lon="-1.40647">
        <ele>58</ele>
        <time>2022-07-24T09:12:59Z</time>
      </trkpt>
      <trkpt lat="47.28066" lon="-1.40656">
        <ele>58</ele>
        <time>2022-07-24T09:13:01Z</time>
      </trkpt>
      <trkpt lat="47.28055" lon="-1.40666">
        <ele>58</ele>
        <time>2022-07-24T09:13:03Z</time>
      </trkpt>
      <trkpt lat="47.28044" lon="-1.40677">
        <ele>58</ele>
        <time>2022-07-24T09:13:05Z</time>
      </trkpt>
      <trkpt lat="47.28034" lon="-1.40687">
        <ele>57</ele>
        <time>2022-07-24T09:13:07Z</time>
      </trkpt>
      <trkpt lat="47.28024" lon="-1.40699">
        <ele>57</ele>
        <time>2022-07-24T09:13:09Z</time>
      </trkpt>
      <trkpt lat="47.28014" lon="-1.40709">
        <ele>57</ele>
        <time>2022-07-24T09:13:11Z</time>
      </trkpt>
      <trkpt lat="47.28003" lon="-1.40719">
        <ele>57</ele>
        <time>2022-07-24T09:13:13Z</time>
      </trkpt>
      <trkpt lat="47.27994" lon="-1.40729">
        <ele>57</ele>
        <time>2022-07-24T09:13:15Z</time>
      </trkpt>
      <trkpt lat="47.27983" lon="-1.40739">
        <ele>57</ele>
        <time>2022-07-24T09:13:17Z</time>
      </trkpt>
      <trkpt lat="47.27972" lon="-1.40748">
        <ele>57</ele>
        <time>2022-07-24T09:13:19Z</time>
      </trkpt>
      <trkpt lat="47.27961" lon="-1.40758">
        <ele>57</ele>
        <time>2022-07-24T09:13:21Z</time>
      </trkpt>
      <trkpt lat="47.27951" lon="-1.40767">
        <ele>56</ele>
        <time>2022-07-24T09:13:23Z</time>
      </trkpt>
      <trkpt lat="47.27941" lon="-1.40776">
        <ele>56</ele>
        <time>2022-07-24T09:13:25Z</time>
      </trkpt>
      <trkpt lat="47.2793" lon="-1.40786">
        <ele>56</ele>
        <time>2022-07-24T09:13:27Z</time>
      </trkpt>
      <trkpt lat="47.2792" lon="-1.40795">
        <ele>57</ele>
        <time>2022-07-24T09:13:29Z</time>
      </trkpt>
      <trkpt lat="47.2791" lon="-1.40806">
        <ele>56</ele>
        <time>2022-07-24T09:13:31Z</time>
      </trkpt>
      <trkpt lat="47.279" lon="-1.40816">
        <ele>56</ele>
        <time>2022-07-24T09:13:33Z</time>
      </trkpt>
      <trkpt lat="47.2789" lon="-1.40826">
        <ele>56</ele>
        <time>2022-07-24T09:13:35Z</time>
      </trkpt>
      <trkpt lat="47.27881" lon="-1.40838">
        <ele>56</ele>
        <time>2022-07-24T09:13:37Z</time>
      </trkpt>
      <trkpt lat="47.27874" lon="-1.40852">
        <ele>56</ele>
        <time>2022-07-24T09:13:39Z</time>
      </trkpt>
      <trkpt lat="47.27868" lon="-1.40867">
        <ele>56</ele>
        <time>2022-07-24T09:13:41Z</time>
      </trkpt>
      <trkpt lat="47.27861" lon="-1.40882">
        <ele>56</ele>
        <time>2022-07-24T09:13:43Z</time>
      </trkpt>
      <trkpt lat="47.27854" lon="-1.40897">
        <ele>56</ele>
        <time>2022-07-24T09:13:45Z</time>
      </trkpt>
      <trkpt lat="47.27847" lon="-1.40912">
        <ele>56</ele>
        <time>2022-07-24T09:13:47Z</time>
      </trkpt>
      <trkpt lat="47.27839" lon="-1.40926">
        <ele>56</ele>
        <time>2022-07-24T09:13:49Z</time>
      </trkpt>
      <trkpt lat="47.27832" lon="-1.40941">
        <ele>56</ele>
        <time>2022-07-24T09:13:51Z</time>
      </trkpt>
      <trkpt lat="47.27826" lon="-1.40955">
        <ele>56</ele>
        <time>2022-07-24T09:13:53Z</time>
      </trkpt>
      <trkpt lat="47.27818" lon="-1.40969">
        <ele>56</ele>
        <time>2022-07-24T09:13:55Z</time>
      </trkpt>
      <trkpt lat="47.2781" lon="-1.40983">
        <ele>55</ele>
        <time>2022-07-24T09:13:57Z</time>
      </trkpt>
      <trkpt lat="47.27802" lon="-1.40996">
        <ele>56</ele>
        <time>2022-07-24T09:13:59Z</time>
      </trkpt>
      <trkpt lat="47.27793" lon="-1.41009">
        <ele>56</ele>
        <time>2022-07-24T09:14:01Z</time>
      </trkpt>
      <trkpt lat="47.27785" lon="-1.4102">
        <ele>56</ele>
        <time>2022-07-24T09:14:03Z</time>
      </trkpt>
      <trkpt lat="47.27777" lon="-1.41033">
        <ele>56</ele>
        <time>2022-07-24T09:14:05Z</time>
      </trkpt>
      <trkpt lat="47.27773" lon="-1.41049">
        <ele>56</ele>
        <time>2022-07-24T09:14:07Z</time>
      </trkpt>
      <trkpt lat="47.27767" lon="-1.41064">
        <ele>56</ele>
        <time>2022-07-24T09:14:09Z</time>
      </trkpt>
      <trkpt lat="47.27758" lon="-1.41078">
        <ele>55</ele>
        <time>2022-07-24T09:14:11Z</time>
      </trkpt>
      <trkpt lat="47.27746" lon="-1.41089">
        <ele>55</ele>
        <time>2022-07-24T09:14:13Z</time>
      </trkpt>
      <trkpt lat="47.27736" lon="-1.41099">
        <ele>55</ele>
        <time>2022-07-24T09:14:15Z</time>
      </trkpt>
      <trkpt lat="47.27725" lon="-1.41109">
        <ele>55</ele>
        <time>2022-07-24T09:14:17Z</time>
      </trkpt>
      <trkpt lat="47.27715" lon="-1.4112">
        <ele>55</ele>
        <time>2022-07-24T09:14:19Z</time>
      </trkpt>
      <trkpt lat="47.27705" lon="-1.4113">
        <ele>55</ele>
        <time>2022-07-24T09:14:21Z</time>
      </trkpt>
      <trkpt lat="47.27695" lon="-1.41141">
        <ele>56</ele>
        <time>2022-07-24T09:14:23Z</time>
      </trkpt>
      <trkpt lat="47.27686" lon="-1.41152">
        <ele>56</ele>
        <time>2022-07-24T09:14:25Z</time>
      </trkpt>
      <trkpt lat="47.27676" lon="-1.41163">
        <ele>55</ele>
        <time>2022-07-24T09:14:27Z</time>
      </trkpt>
      <trkpt lat="47.27667" lon="-1.41173">
        <ele>55</ele>
        <time>2022-07-24T09:14:29Z</time>
      </trkpt>
      <trkpt lat="47.27657" lon="-1.41184">
        <ele>55</ele>
        <time>2022-07-24T09:14:31Z</time>
      </trkpt>
      <trkpt lat="47.27647" lon="-1.41195">
        <ele>55</ele>
        <time>2022-07-24T09:14:33Z</time>
      </trkpt>
      <trkpt lat="47.27636" lon="-1.41205">
        <ele>55</ele>
        <time>2022-07-24T09:14:35Z</time>
      </trkpt>
      <trkpt lat="47.27627" lon="-1.41214">
        <ele>55</ele>
        <time>2022-07-24T09:14:37Z</time>
      </trkpt>
      <trkpt lat="47.27616" lon="-1.41225">
        <ele>55</ele>
        <time>2022-07-24T09:14:39Z</time>
      </trkpt>
      <trkpt lat="47.27606" lon="-1.41235">
        <ele>55</ele>
        <time>2022-07-24T09:14:41Z</time>
      </trkpt>
      <trkpt lat="47.27596" lon="-1.41245">
        <ele>55</ele>
        <time>2022-07-24T09:14:43Z</time>
      </trkpt>
      <trkpt lat="47.27587" lon="-1.41256">
        <ele>55</ele>
        <time>2022-07-24T09:14:45Z</time>
      </trkpt>
      <trkpt lat="47.27577" lon="-1.41267">
        <ele>56</ele>
        <time>2022-07-24T09:14:47Z</time>
      </trkpt>
      <trkpt lat="47.27567" lon="-1.41278">
        <ele>55</ele>
        <time>2022-07-24T09:14:49Z</time>
      </trkpt>
      <trkpt lat="47.27558" lon="-1.4129">
        <ele>55</ele>
        <time>2022-07-24T09:14:51Z</time>
      </trkpt>
      <trkpt lat="47.2755" lon="-1.41301">
        <ele>55</ele>
        <time>2022-07-24T09:14:53Z</time>
      </trkpt>
      <trkpt lat="47.27542" lon="-1.41312">
        <ele>55</ele>
        <time>2022-07-24T09:14:55Z</time>
      </trkpt>
      <trkpt lat="47.27535" lon="-1.41321">
        <ele>55</ele>
        <time>2022-07-24T09:14:57Z</time>
      </trkpt>
      <trkpt lat="47.27527" lon="-1.4133">
        <ele>55</ele>
        <time>2022-07-24T09:14:59Z</time>
      </trkpt>
      <trkpt lat="47.27519" lon="-1.4134">
        <ele>56</ele>
        <time>2022-07-24T09:15:01Z</time>
      </trkpt>
      <trkpt lat="47.2751" lon="-1.41353">
        <ele>56</ele>
        <time>2022-07-24T09:15:03Z</time>
      </trkpt>
      <trkpt lat="47.275" lon="-1.41368">
        <ele>56</ele>
        <time>2022-07-24T09:15:05Z</time>
      </trkpt>
      <trkpt lat="47.27491" lon="-1.41384">
        <ele>56</ele>
        <time>2022-07-24T09:15:07Z</time>
      </trkpt>
      <trkpt lat="47.27482" lon="-1.41399">
        <ele>56</ele>
        <time>2022-07-24T09:15:09Z</time>
      </trkpt>
      <trkpt lat="47.27473" lon="-1.41415">
        <ele>56</ele>
        <time>2022-07-24T09:15:11Z</time>
      </trkpt>
      <trkpt lat="47.27465" lon="-1.4143">
        <ele>56</ele>
        <time>2022-07-24T09:15:13Z</time>
      </trkpt>
      <trkpt lat="47.27457" lon="-1.41446">
        <ele>55</ele>
        <time>2022-07-24T09:15:15Z</time>
      </trkpt>
      <trkpt lat="47.27448" lon="-1.4146">
        <ele>55</ele>
        <time>2022-07-24T09:15:17Z</time>
      </trkpt>
      <trkpt lat="47.2744" lon="-1.41475">
        <ele>55</ele>
        <time>2022-07-24T09:15:19Z</time>
      </trkpt>
      <trkpt lat="47.27432" lon="-1.4149">
        <ele>56</ele>
        <time>2022-07-24T09:15:21Z</time>
      </trkpt>
      <trkpt lat="47.27424" lon="-1.41504">
        <ele>56</ele>
        <time>2022-07-24T09:15:23Z</time>
      </trkpt>
      <trkpt lat="47.27415" lon="-1.41518">
        <ele>56</ele>
        <time>2022-07-24T09:15:25Z</time>
      </trkpt>
      <trkpt lat="47.27406" lon="-1.41533">
        <ele>56</ele>
        <time>2022-07-24T09:15:27Z</time>
      </trkpt>
      <trkpt lat="47.27397" lon="-1.41546">
        <ele>56</ele>
        <time>2022-07-24T09:15:29Z</time>
      </trkpt>
      <trkpt lat="47.27389" lon="-1.41559">
        <ele>56</ele>
        <time>2022-07-24T09:15:31Z</time>
      </trkpt>
      <trkpt lat="47.2738" lon="-1.41572">
        <ele>57</ele>
        <time>2022-07-24T09:15:33Z</time>
      </trkpt>
      <trkpt lat="47.27371" lon="-1.41587">
        <ele>57</ele>
        <time>2022-07-24T09:15:35Z</time>
      </trkpt>
      <trkpt lat="47.27362" lon="-1.41601">
        <ele>57</ele>
        <time>2022-07-24T09:15:37Z</time>
      </trkpt>
      <trkpt lat="47.27352" lon="-1.41615">
        <ele>56</ele>
        <time>2022-07-24T09:15:39Z</time>
      </trkpt>
      <trkpt lat="47.27343" lon="-1.41628">
        <ele>56</ele>
        <time>2022-07-24T09:15:41Z</time>
      </trkpt>
      <trkpt lat="47.27335" lon="-1.41642">
        <ele>55</ele>
        <time>2022-07-24T09:15:43Z</time>
      </trkpt>
      <trkpt lat="47.27327" lon="-1.41656">
        <ele>55</ele>
        <time>2022-07-24T09:15:45Z</time>
      </trkpt>
      <trkpt lat="47.27319" lon="-1.4167">
        <ele>56</ele>
        <time>2022-07-24T09:15:47Z</time>
      </trkpt>
      <trkpt lat="47.27311" lon="-1.41684">
        <ele>56</ele>
        <time>2022-07-24T09:15:49Z</time>
      </trkpt>
      <trkpt lat="47.27304" lon="-1.41698">
        <ele>56</ele>
        <time>2022-07-24T09:15:51Z</time>
      </trkpt>
      <trkpt lat="47.27297" lon="-1.41714">
        <ele>56</ele>
        <time>2022-07-24T09:15:53Z</time>
      </trkpt>
      <trkpt lat="47.27288" lon="-1.4173">
        <ele>55</ele>
        <time>2022-07-24T09:15:55Z</time>
      </trkpt>
      <trkpt lat="47.2728" lon="-1.41745">
        <ele>55</ele>
        <time>2022-07-24T09:15:57Z</time>
      </trkpt>
      <trkpt lat="47.27273" lon="-1.4176">
        <ele>55</ele>
        <time>2022-07-24T09:15:59Z</time>
      </trkpt>
      <trkpt lat="47.27265" lon="-1.41775">
        <ele>55</ele>
        <time>2022-07-24T09:16:01Z</time>
      </trkpt>
      <trkpt lat="47.27257" lon="-1.4179">
        <ele>55</ele>
        <time>2022-07-24T09:16:03Z</time>
      </trkpt>
      <trkpt lat="47.27249" lon="-1.41804">
        <ele>55</ele>
        <time>2022-07-24T09:16:05Z</time>
      </trkpt>
      <trkpt lat="47.2724" lon="-1.41819">
        <ele>55</ele>
        <time>2022-07-24T09:16:07Z</time>
      </trkpt>
      <trkpt lat="47.27232" lon="-1.41834">
        <ele>56</ele>
        <time>2022-07-24T09:16:09Z</time>
      </trkpt>
      <trkpt lat="47.27224" lon="-1.41848">
        <ele>56</ele>
        <time>2022-07-24T09:16:11Z</time>
      </trkpt>
      <trkpt lat="47.27216" lon="-1.41862">
        <ele>56</ele>
        <time>2022-07-24T09:16:13Z</time>
      </trkpt>
      <trkpt lat="47.27207" lon="-1.41877">
        <ele>56</ele>
        <time>2022-07-24T09:16:15Z</time>
      </trkpt>
      <trkpt lat="47.27199" lon="-1.41891">
        <ele>56</ele>
        <time>2022-07-24T09:16:17Z</time>
      </trkpt>
      <trkpt lat="47.27191" lon="-1.41906">
        <ele>56</ele>
        <time>2022-07-24T09:16:19Z</time>
      </trkpt>
      <trkpt lat="47.27182" lon="-1.41921">
        <ele>56</ele>
        <time>2022-07-24T09:16:21Z</time>
      </trkpt>
      <trkpt lat="47.27174" lon="-1.41934">
        <ele>56</ele>
        <time>2022-07-24T09:16:23Z</time>
      </trkpt>
      <trkpt lat="47.27166" lon="-1.41948">
        <ele>56</ele>
        <time>2022-07-24T09:16:25Z</time>
      </trkpt>
      <trkpt lat="47.27158" lon="-1.41962">
        <ele>56</ele>
        <time>2022-07-24T09:16:27Z</time>
      </trkpt>
      <trkpt lat="47.2715" lon="-1.41977">
        <ele>56</ele>
        <time>2022-07-24T09:16:29Z</time>
      </trkpt>
      <trkpt lat="47.27141" lon="-1.41993">
        <ele>56</ele>
        <time>2022-07-24T09:16:31Z</time>
      </trkpt>
      <trkpt lat="47.27133" lon="-1.42007">
        <ele>56</ele>
        <time>2022-07-24T09:16:33Z</time>
      </trkpt>
      <trkpt lat="47.27124" lon="-1.42022">
        <ele>55</ele>
        <time>2022-07-24T09:16:35Z</time>
      </trkpt>
      <trkpt lat="47.27115" lon="-1.42036">
        <ele>55</ele>
        <time>2022-07-24T09:16:37Z</time>
      </trkpt>
      <trkpt lat="47.27106" lon="-1.42049">
        <ele>55</ele>
        <time>2022-07-24T09:16:39Z</time>
      </trkpt>
      <trkpt lat="47.27097" lon="-1.42062">
        <ele>55</ele>
        <time>2022-07-24T09:16:41Z</time>
      </trkpt>
      <trkpt lat="47.27088" lon="-1.42076">
        <ele>55</ele>
        <time>2022-07-24T09:16:43Z</time>
      </trkpt>
      <trkpt lat="47.27079" lon="-1.4209">
        <ele>55</ele>
        <time>2022-07-24T09:16:45Z</time>
      </trkpt>
      <trkpt lat="47.27071" lon="-1.42105">
        <ele>54</ele>
        <time>2022-07-24T09:16:47Z</time>
      </trkpt>
      <trkpt lat="47.27063" lon="-1.4212">
        <ele>55</ele>
        <time>2022-07-24T09:16:49Z</time>
      </trkpt>
      <trkpt lat="47.27056" lon="-1.42134">
        <ele>55</ele>
        <time>2022-07-24T09:16:51Z</time>
      </trkpt>
      <trkpt lat="47.27048" lon="-1.42149">
        <ele>56</ele>
        <time>2022-07-24T09:16:53Z</time>
      </trkpt>
      <trkpt lat="47.2704" lon="-1.42165">
        <ele>57</ele>
        <time>2022-07-24T09:16:55Z</time>
      </trkpt>
      <trkpt lat="47.27031" lon="-1.42179">
        <ele>56</ele>
        <time>2022-07-24T09:16:57Z</time>
      </trkpt>
      <trkpt lat="47.27023" lon="-1.42192">
        <ele>58</ele>
        <time>2022-07-24T09:16:59Z</time>
      </trkpt>
      <trkpt lat="47.27015" lon="-1.42206">
        <ele>58</ele>
        <time>2022-07-24T09:17:01Z</time>
      </trkpt>
      <trkpt lat="47.27006" lon="-1.4222">
        <ele>58</ele>
        <time>2022-07-24T09:17:03Z</time>
      </trkpt>
      <trkpt lat="47.26997" lon="-1.42236">
        <ele>58</ele>
        <time>2022-07-24T09:17:05Z</time>
      </trkpt>
      <trkpt lat="47.26989" lon="-1.42251">
        <ele>58</ele>
        <time>2022-07-24T09:17:07Z</time>
      </trkpt>
      <trkpt lat="47.26981" lon="-1.42267">
        <ele>57</ele>
        <time>2022-07-24T09:17:09Z</time>
      </trkpt>
      <trkpt lat="47.26973" lon="-1.42281">
        <ele>56</ele>
        <time>2022-07-24T09:17:11Z</time>
      </trkpt>
      <trkpt lat="47.26965" lon="-1.42297">
        <ele>56</ele>
        <time>2022-07-24T09:17:13Z</time>
      </trkpt>
      <trkpt lat="47.26957" lon="-1.42313">
        <ele>56</ele>
        <time>2022-07-24T09:17:15Z</time>
      </trkpt>
      <trkpt lat="47.26949" lon="-1.42328">
        <ele>56</ele>
        <time>2022-07-24T09:17:17Z</time>
      </trkpt>
      <trkpt lat="47.26942" lon="-1.42344">
        <ele>55</ele>
        <time>2022-07-24T09:17:19Z</time>
      </trkpt>
      <trkpt lat="47.26934" lon="-1.4236">
        <ele>55</ele>
        <time>2022-07-24T09:17:21Z</time>
      </trkpt>
      <trkpt lat="47.26927" lon="-1.42376">
        <ele>55</ele>
        <time>2022-07-24T09:17:23Z</time>
      </trkpt>
      <trkpt lat="47.26919" lon="-1.42392">
        <ele>55</ele>
        <time>2022-07-24T09:17:25Z</time>
      </trkpt>
      <trkpt lat="47.26907" lon="-1.42414">
        <ele>55</ele>
        <time>2022-07-24T09:17:28Z</time>
      </trkpt>
      <trkpt lat="47.26899" lon="-1.42429">
        <ele>55</ele>
        <time>2022-07-24T09:17:30Z</time>
      </trkpt>
      <trkpt lat="47.26887" lon="-1.4245">
        <ele>55</ele>
        <time>2022-07-24T09:17:33Z</time>
      </trkpt>
      <trkpt lat="47.26879" lon="-1.42465">
        <ele>55</ele>
        <time>2022-07-24T09:17:35Z</time>
      </trkpt>
      <trkpt lat="47.26871" lon="-1.42479">
        <ele>55</ele>
        <time>2022-07-24T09:17:37Z</time>
      </trkpt>
      <trkpt lat="47.26863" lon="-1.42494">
        <ele>55</ele>
        <time>2022-07-24T09:17:39Z</time>
      </trkpt>
      <trkpt lat="47.26854" lon="-1.42509">
        <ele>55</ele>
        <time>2022-07-24T09:17:41Z</time>
      </trkpt>
      <trkpt lat="47.26846" lon="-1.42525">
        <ele>55</ele>
        <time>2022-07-24T09:17:43Z</time>
      </trkpt>
      <trkpt lat="47.26834" lon="-1.42548">
        <ele>55</ele>
        <time>2022-07-24T09:17:46Z</time>
      </trkpt>
      <trkpt lat="47.26826" lon="-1.42564">
        <ele>54</ele>
        <time>2022-07-24T09:17:48Z</time>
      </trkpt>
      <trkpt lat="47.26819" lon="-1.4258">
        <ele>55</ele>
        <time>2022-07-24T09:17:50Z</time>
      </trkpt>
      <trkpt lat="47.26812" lon="-1.42597">
        <ele>55</ele>
        <time>2022-07-24T09:17:52Z</time>
      </trkpt>
      <trkpt lat="47.26805" lon="-1.42613">
        <ele>55</ele>
        <time>2022-07-24T09:17:54Z</time>
      </trkpt>
      <trkpt lat="47.26798" lon="-1.4263">
        <ele>54</ele>
        <time>2022-07-24T09:17:56Z</time>
      </trkpt>
      <trkpt lat="47.26791" lon="-1.42647">
        <ele>54</ele>
        <time>2022-07-24T09:17:58Z</time>
      </trkpt>
      <trkpt lat="47.26786" lon="-1.42664">
        <ele>54</ele>
        <time>2022-07-24T09:18:00Z</time>
      </trkpt>
      <trkpt lat="47.2678" lon="-1.42681">
        <ele>54</ele>
        <time>2022-07-24T09:18:02Z</time>
      </trkpt>
      <trkpt lat="47.26774" lon="-1.42698">
        <ele>55</ele>
        <time>2022-07-24T09:18:04Z</time>
      </trkpt>
      <trkpt lat="47.26767" lon="-1.42715">
        <ele>55</ele>
        <time>2022-07-24T09:18:06Z</time>
      </trkpt>
      <trkpt lat="47.26759" lon="-1.42731">
        <ele>55</ele>
        <time>2022-07-24T09:18:08Z</time>
      </trkpt>
      <trkpt lat="47.26751" lon="-1.42746">
        <ele>55</ele>
        <time>2022-07-24T09:18:10Z</time>
      </trkpt>
      <trkpt lat="47.26743" lon="-1.42761">
        <ele>55</ele>
        <time>2022-07-24T09:18:12Z</time>
      </trkpt>
      <trkpt lat="47.26736" lon="-1.42777">
        <ele>55</ele>
        <time>2022-07-24T09:18:14Z</time>
      </trkpt>
      <trkpt lat="47.26731" lon="-1.42793">
        <ele>56</ele>
        <time>2022-07-24T09:18:16Z</time>
      </trkpt>
      <trkpt lat="47.26727" lon="-1.4281">
        <ele>55</ele>
        <time>2022-07-24T09:18:18Z</time>
      </trkpt>
      <trkpt lat="47.26723" lon="-1.42826">
        <ele>56</ele>
        <time>2022-07-24T09:18:20Z</time>
      </trkpt>
      <trkpt lat="47.26716" lon="-1.42842">
        <ele>56</ele>
        <time>2022-07-24T09:18:22Z</time>
      </trkpt>
      <trkpt lat="47.26709" lon="-1.42858">
        <ele>56</ele>
        <time>2022-07-24T09:18:24Z</time>
      </trkpt>
      <trkpt lat="47.26701" lon="-1.42875">
        <ele>56</ele>
        <time>2022-07-24T09:18:26Z</time>
      </trkpt>
      <trkpt lat="47.26694" lon="-1.42891">
        <ele>56</ele>
        <time>2022-07-24T09:18:28Z</time>
      </trkpt>
      <trkpt lat="47.26686" lon="-1.42908">
        <ele>56</ele>
        <time>2022-07-24T09:18:30Z</time>
      </trkpt>
      <trkpt lat="47.26678" lon="-1.42924">
        <ele>56</ele>
        <time>2022-07-24T09:18:32Z</time>
      </trkpt>
      <trkpt lat="47.2667" lon="-1.4294">
        <ele>55</ele>
        <time>2022-07-24T09:18:34Z</time>
      </trkpt>
      <trkpt lat="47.26662" lon="-1.42956">
        <ele>55</ele>
        <time>2022-07-24T09:18:36Z</time>
      </trkpt>
      <trkpt lat="47.26654" lon="-1.42972">
        <ele>54</ele>
        <time>2022-07-24T09:18:38Z</time>
      </trkpt>
      <trkpt lat="47.26646" lon="-1.42987">
        <ele>54</ele>
        <time>2022-07-24T09:18:40Z</time>
      </trkpt>
      <trkpt lat="47.26639" lon="-1.43003">
        <ele>54</ele>
        <time>2022-07-24T09:18:42Z</time>
      </trkpt>
      <trkpt lat="47.26631" lon="-1.43018">
        <ele>54</ele>
        <time>2022-07-24T09:18:44Z</time>
      </trkpt>
      <trkpt lat="47.26623" lon="-1.43033">
        <ele>54</ele>
        <time>2022-07-24T09:18:46Z</time>
      </trkpt>
      <trkpt lat="47.26616" lon="-1.43048">
        <ele>54</ele>
        <time>2022-07-24T09:18:48Z</time>
      </trkpt>
      <trkpt lat="47.26608" lon="-1.43064">
        <ele>54</ele>
        <time>2022-07-24T09:18:50Z</time>
      </trkpt>
      <trkpt lat="47.26601" lon="-1.43079">
        <ele>54</ele>
        <time>2022-07-24T09:18:52Z</time>
      </trkpt>
      <trkpt lat="47.26592" lon="-1.43094">
        <ele>54</ele>
        <time>2022-07-24T09:18:54Z</time>
      </trkpt>
      <trkpt lat="47.26584" lon="-1.43108">
        <ele>54</ele>
        <time>2022-07-24T09:18:56Z</time>
      </trkpt>
      <trkpt lat="47.26575" lon="-1.43122">
        <ele>55</ele>
        <time>2022-07-24T09:18:58Z</time>
      </trkpt>
      <trkpt lat="47.26567" lon="-1.43136">
        <ele>55</ele>
        <time>2022-07-24T09:19:00Z</time>
      </trkpt>
      <trkpt lat="47.26559" lon="-1.43149">
        <ele>56</ele>
        <time>2022-07-24T09:19:02Z</time>
      </trkpt>
      <trkpt lat="47.26549" lon="-1.43163">
        <ele>56</ele>
        <time>2022-07-24T09:19:04Z</time>
      </trkpt>
      <trkpt lat="47.2654" lon="-1.43177">
        <ele>56</ele>
        <time>2022-07-24T09:19:06Z</time>
      </trkpt>
      <trkpt lat="47.2653" lon="-1.43191">
        <ele>55</ele>
        <time>2022-07-24T09:19:08Z</time>
      </trkpt>
      <trkpt lat="47.26521" lon="-1.43203">
        <ele>56</ele>
        <time>2022-07-24T09:19:10Z</time>
      </trkpt>
      <trkpt lat="47.26512" lon="-1.43215">
        <ele>57</ele>
        <time>2022-07-24T09:19:12Z</time>
      </trkpt>
      <trkpt lat="47.26503" lon="-1.43226">
        <ele>57</ele>
        <time>2022-07-24T09:19:14Z</time>
      </trkpt>
      <trkpt lat="47.26494" lon="-1.43239">
        <ele>58</ele>
        <time>2022-07-24T09:19:16Z</time>
      </trkpt>
      <trkpt lat="47.26486" lon="-1.43251">
        <ele>58</ele>
        <time>2022-07-24T09:19:18Z</time>
      </trkpt>
      <trkpt lat="47.26477" lon="-1.43263">
        <ele>59</ele>
        <time>2022-07-24T09:19:20Z</time>
      </trkpt>
      <trkpt lat="47.26468" lon="-1.43276">
        <ele>59</ele>
        <time>2022-07-24T09:19:22Z</time>
      </trkpt>
      <trkpt lat="47.26459" lon="-1.43289">
        <ele>59</ele>
        <time>2022-07-24T09:19:24Z</time>
      </trkpt>
      <trkpt lat="47.26451" lon="-1.43304">
        <ele>59</ele>
        <time>2022-07-24T09:19:26Z</time>
      </trkpt>
      <trkpt lat="47.26441" lon="-1.43318">
        <ele>58</ele>
        <time>2022-07-24T09:19:28Z</time>
      </trkpt>
      <trkpt lat="47.26432" lon="-1.43332">
        <ele>58</ele>
        <time>2022-07-24T09:19:30Z</time>
      </trkpt>
      <trkpt lat="47.26422" lon="-1.43344">
        <ele>58</ele>
        <time>2022-07-24T09:19:32Z</time>
      </trkpt>
      <trkpt lat="47.26413" lon="-1.43357">
        <ele>57</ele>
        <time>2022-07-24T09:19:34Z</time>
      </trkpt>
      <trkpt lat="47.26403" lon="-1.43369">
        <ele>56</ele>
        <time>2022-07-24T09:19:36Z</time>
      </trkpt>
      <trkpt lat="47.26393" lon="-1.4338">
        <ele>56</ele>
        <time>2022-07-24T09:19:38Z</time>
      </trkpt>
      <trkpt lat="47.26384" lon="-1.43391">
        <ele>56</ele>
        <time>2022-07-24T09:19:40Z</time>
      </trkpt>
      <trkpt lat="47.26374" lon="-1.43402">
        <ele>56</ele>
        <time>2022-07-24T09:19:42Z</time>
      </trkpt>
      <trkpt lat="47.26364" lon="-1.43412">
        <ele>55</ele>
        <time>2022-07-24T09:19:44Z</time>
      </trkpt>
      <trkpt lat="47.26354" lon="-1.43423">
        <ele>55</ele>
        <time>2022-07-24T09:19:46Z</time>
      </trkpt>
      <trkpt lat="47.26345" lon="-1.43434">
        <ele>54</ele>
        <time>2022-07-24T09:19:48Z</time>
      </trkpt>
      <trkpt lat="47.26335" lon="-1.43445">
        <ele>54</ele>
        <time>2022-07-24T09:19:50Z</time>
      </trkpt>
      <trkpt lat="47.26325" lon="-1.43456">
        <ele>54</ele>
        <time>2022-07-24T09:19:52Z</time>
      </trkpt>
      <trkpt lat="47.26315" lon="-1.43466">
        <ele>54</ele>
        <time>2022-07-24T09:19:54Z</time>
      </trkpt>
      <trkpt lat="47.26305" lon="-1.43474">
        <ele>54</ele>
        <time>2022-07-24T09:19:56Z</time>
      </trkpt>
      <trkpt lat="47.26296" lon="-1.43483">
        <ele>55</ele>
        <time>2022-07-24T09:19:58Z</time>
      </trkpt>
      <trkpt lat="47.26286" lon="-1.43489">
        <ele>55</ele>
        <time>2022-07-24T09:20:00Z</time>
      </trkpt>
      <trkpt lat="47.26276" lon="-1.43493">
        <ele>55</ele>
        <time>2022-07-24T09:20:02Z</time>
      </trkpt>
      <trkpt lat="47.26265" lon="-1.43495">
        <ele>55</ele>
        <time>2022-07-24T09:20:04Z</time>
      </trkpt>
      <trkpt lat="47.26255" lon="-1.43501">
        <ele>55</ele>
        <time>2022-07-24T09:20:06Z</time>
      </trkpt>
      <trkpt lat="47.26245" lon="-1.4351">
        <ele>56</ele>
        <time>2022-07-24T09:20:08Z</time>
      </trkpt>
      <trkpt lat="47.26235" lon="-1.43518">
        <ele>56</ele>
        <time>2022-07-24T09:20:10Z</time>
      </trkpt>
      <trkpt lat="47.26227" lon="-1.43529">
        <ele>55</ele>
        <time>2022-07-24T09:20:12Z</time>
      </trkpt>
      <trkpt lat="47.2622" lon="-1.43539">
        <ele>55</ele>
        <time>2022-07-24T09:20:14Z</time>
      </trkpt>
      <trkpt lat="47.26216" lon="-1.43552">
        <ele>55</ele>
        <time>2022-07-24T09:20:16Z</time>
      </trkpt>
      <trkpt lat="47.26214" lon="-1.43568">
        <ele>56</ele>
        <time>2022-07-24T09:20:18Z</time>
      </trkpt>
      <trkpt lat="47.26209" lon="-1.43584">
        <ele>55</ele>
        <time>2022-07-24T09:20:20Z</time>
      </trkpt>
      <trkpt lat="47.262" lon="-1.43598">
        <ele>55</ele>
        <time>2022-07-24T09:20:22Z</time>
      </trkpt>
      <trkpt lat="47.26192" lon="-1.43609">
        <ele>55</ele>
        <time>2022-07-24T09:20:24Z</time>
      </trkpt>
      <trkpt lat="47.26186" lon="-1.43622">
        <ele>55</ele>
        <time>2022-07-24T09:20:26Z</time>
      </trkpt>
      <trkpt lat="47.26179" lon="-1.43636">
        <ele>56</ele>
        <time>2022-07-24T09:20:28Z</time>
      </trkpt>
      <trkpt lat="47.2617" lon="-1.43648">
        <ele>56</ele>
        <time>2022-07-24T09:20:30Z</time>
      </trkpt>
      <trkpt lat="47.26162" lon="-1.43662">
        <ele>55</ele>
        <time>2022-07-24T09:20:32Z</time>
      </trkpt>
      <trkpt lat="47.26154" lon="-1.43676">
        <ele>55</ele>
        <time>2022-07-24T09:20:34Z</time>
      </trkpt>
      <trkpt lat="47.26145" lon="-1.43689">
        <ele>55</ele>
        <time>2022-07-24T09:20:36Z</time>
      </trkpt>
      <trkpt lat="47.26137" lon="-1.43701">
        <ele>55</ele>
        <time>2022-07-24T09:20:38Z</time>
      </trkpt>
      <trkpt lat="47.26129" lon="-1.43712">
        <ele>56</ele>
        <time>2022-07-24T09:20:40Z</time>
      </trkpt>
      <trkpt lat="47.26121" lon="-1.43724">
        <ele>56</ele>
        <time>2022-07-24T09:20:42Z</time>
      </trkpt>
      <trkpt lat="47.26113" lon="-1.43736">
        <ele>56</ele>
        <time>2022-07-24T09:20:44Z</time>
      </trkpt>
      <trkpt lat="47.26104" lon="-1.43748">
        <ele>56</ele>
        <time>2022-07-24T09:20:46Z</time>
      </trkpt>
      <trkpt lat="47.26095" lon="-1.43757">
        <ele>56</ele>
        <time>2022-07-24T09:20:48Z</time>
      </trkpt>
      <trkpt lat="47.26086" lon="-1.43768">
        <ele>57</ele>
        <time>2022-07-24T09:20:50Z</time>
      </trkpt>
      <trkpt lat="47.26077" lon="-1.4378">
        <ele>58</ele>
        <time>2022-07-24T09:20:52Z</time>
      </trkpt>
      <trkpt lat="47.26067" lon="-1.43793">
        <ele>57</ele>
        <time>2022-07-24T09:20:54Z</time>
      </trkpt>
      <trkpt lat="47.26058" lon="-1.43805">
        <ele>57</ele>
        <time>2022-07-24T09:20:56Z</time>
      </trkpt>
      <trkpt lat="47.26051" lon="-1.43819">
        <ele>58</ele>
        <time>2022-07-24T09:20:58Z</time>
      </trkpt>
      <trkpt lat="47.26043" lon="-1.43833">
        <ele>58</ele>
        <time>2022-07-24T09:21:00Z</time>
      </trkpt>
      <trkpt lat="47.26037" lon="-1.43848">
        <ele>58</ele>
        <time>2022-07-24T09:21:02Z</time>
      </trkpt>
      <trkpt lat="47.26029" lon="-1.4386">
        <ele>57</ele>
        <time>2022-07-24T09:21:04Z</time>
      </trkpt>
      <trkpt lat="47.2602" lon="-1.43868">
        <ele>57</ele>
        <time>2022-07-24T09:21:06Z</time>
      </trkpt>
      <trkpt lat="47.2601" lon="-1.43877">
        <ele>57</ele>
        <time>2022-07-24T09:21:08Z</time>
      </trkpt>
      <trkpt lat="47.26001" lon="-1.43888">
        <ele>57</ele>
        <time>2022-07-24T09:21:10Z</time>
      </trkpt>
      <trkpt lat="47.25991" lon="-1.439">
        <ele>56</ele>
        <time>2022-07-24T09:21:12Z</time>
      </trkpt>
      <trkpt lat="47.25981" lon="-1.43913">
        <ele>56</ele>
        <time>2022-07-24T09:21:14Z</time>
      </trkpt>
      <trkpt lat="47.25971" lon="-1.43926">
        <ele>56</ele>
        <time>2022-07-24T09:21:16Z</time>
      </trkpt>
      <trkpt lat="47.25962" lon="-1.43937">
        <ele>56</ele>
        <time>2022-07-24T09:21:18Z</time>
      </trkpt>
      <trkpt lat="47.25953" lon="-1.43948">
        <ele>56</ele>
        <time>2022-07-24T09:21:20Z</time>
      </trkpt>
      <trkpt lat="47.25944" lon="-1.43959">
        <ele>56</ele>
        <time>2022-07-24T09:21:22Z</time>
      </trkpt>
      <trkpt lat="47.25935" lon="-1.4397">
        <ele>56</ele>
        <time>2022-07-24T09:21:24Z</time>
      </trkpt>
      <trkpt lat="47.25926" lon="-1.43981">
        <ele>57</ele>
        <time>2022-07-24T09:21:26Z</time>
      </trkpt>
      <trkpt lat="47.25916" lon="-1.43991">
        <ele>57</ele>
        <time>2022-07-24T09:21:28Z</time>
      </trkpt>
      <trkpt lat="47.25906" lon="-1.44001">
        <ele>57</ele>
        <time>2022-07-24T09:21:30Z</time>
      </trkpt>
      <trkpt lat="47.25895" lon="-1.44011">
        <ele>57</ele>
        <time>2022-07-24T09:21:32Z</time>
      </trkpt>
      <trkpt lat="47.25885" lon="-1.44022">
        <ele>58</ele>
        <time>2022-07-24T09:21:34Z</time>
      </trkpt>
      <trkpt lat="47.25877" lon="-1.44035">
        <ele>59</ele>
        <time>2022-07-24T09:21:36Z</time>
      </trkpt>
      <trkpt lat="47.25871" lon="-1.4405">
        <ele>59</ele>
        <time>2022-07-24T09:21:38Z</time>
      </trkpt>
      <trkpt lat="47.25867" lon="-1.44069">
        <ele>58</ele>
        <time>2022-07-24T09:21:40Z</time>
      </trkpt>
      <trkpt lat="47.25859" lon="-1.44084">
        <ele>58</ele>
        <time>2022-07-24T09:21:42Z</time>
      </trkpt>
      <trkpt lat="47.2585" lon="-1.44098">
        <ele>57</ele>
        <time>2022-07-24T09:21:44Z</time>
      </trkpt>
      <trkpt lat="47.2584" lon="-1.4411">
        <ele>57</ele>
        <time>2022-07-24T09:21:46Z</time>
      </trkpt>
      <trkpt lat="47.25831" lon="-1.4412">
        <ele>57</ele>
        <time>2022-07-24T09:21:48Z</time>
      </trkpt>
      <trkpt lat="47.25821" lon="-1.44131">
        <ele>57</ele>
        <time>2022-07-24T09:21:50Z</time>
      </trkpt>
      <trkpt lat="47.25811" lon="-1.44142">
        <ele>57</ele>
        <time>2022-07-24T09:21:52Z</time>
      </trkpt>
      <trkpt lat="47.25801" lon="-1.44153">
        <ele>57</ele>
        <time>2022-07-24T09:21:54Z</time>
      </trkpt>
      <trkpt lat="47.25791" lon="-1.44164">
        <ele>57</ele>
        <time>2022-07-24T09:21:56Z</time>
      </trkpt>
      <trkpt lat="47.25782" lon="-1.44175">
        <ele>56</ele>
        <time>2022-07-24T09:21:58Z</time>
      </trkpt>
      <trkpt lat="47.25772" lon="-1.44186">
        <ele>56</ele>
        <time>2022-07-24T09:22:00Z</time>
      </trkpt>
      <trkpt lat="47.25762" lon="-1.44198">
        <ele>56</ele>
        <time>2022-07-24T09:22:02Z</time>
      </trkpt>
      <trkpt lat="47.25753" lon="-1.4421">
        <ele>56</ele>
        <time>2022-07-24T09:22:04Z</time>
      </trkpt>
      <trkpt lat="47.25743" lon="-1.44221">
        <ele>57</ele>
        <time>2022-07-24T09:22:06Z</time>
      </trkpt>
      <trkpt lat="47.25734" lon="-1.44233">
        <ele>57</ele>
        <time>2022-07-24T09:22:08Z</time>
      </trkpt>
      <trkpt lat="47.25725" lon="-1.44245">
        <ele>57</ele>
        <time>2022-07-24T09:22:10Z</time>
      </trkpt>
      <trkpt lat="47.25715" lon="-1.44256">
        <ele>58</ele>
        <time>2022-07-24T09:22:12Z</time>
      </trkpt>
      <trkpt lat="47.25706" lon="-1.44267">
        <ele>58</ele>
        <time>2022-07-24T09:22:14Z</time>
      </trkpt>
      <trkpt lat="47.25696" lon="-1.44279">
        <ele>57</ele>
        <time>2022-07-24T09:22:16Z</time>
      </trkpt>
      <trkpt lat="47.25686" lon="-1.44291">
        <ele>57</ele>
        <time>2022-07-24T09:22:18Z</time>
      </trkpt>
      <trkpt lat="47.25677" lon="-1.44304">
        <ele>57</ele>
        <time>2022-07-24T09:22:20Z</time>
      </trkpt>
      <trkpt lat="47.25668" lon="-1.44316">
        <ele>57</ele>
        <time>2022-07-24T09:22:22Z</time>
      </trkpt>
      <trkpt lat="47.25659" lon="-1.44327">
        <ele>57</ele>
        <time>2022-07-24T09:22:24Z</time>
      </trkpt>
      <trkpt lat="47.25649" lon="-1.44339">
        <ele>57</ele>
        <time>2022-07-24T09:22:26Z</time>
      </trkpt>
      <trkpt lat="47.25639" lon="-1.44349">
        <ele>58</ele>
        <time>2022-07-24T09:22:28Z</time>
      </trkpt>
      <trkpt lat="47.25629" lon="-1.4436">
        <ele>58</ele>
        <time>2022-07-24T09:22:30Z</time>
      </trkpt>
      <trkpt lat="47.25619" lon="-1.44371">
        <ele>57</ele>
        <time>2022-07-24T09:22:32Z</time>
      </trkpt>
      <trkpt lat="47.25609" lon="-1.44382">
        <ele>58</ele>
        <time>2022-07-24T09:22:34Z</time>
      </trkpt>
      <trkpt lat="47.25599" lon="-1.44394">
        <ele>58</ele>
        <time>2022-07-24T09:22:36Z</time>
      </trkpt>
      <trkpt lat="47.2559" lon="-1.44405">
        <ele>58</ele>
        <time>2022-07-24T09:22:38Z</time>
      </trkpt>
      <trkpt lat="47.2558" lon="-1.44417">
        <ele>58</ele>
        <time>2022-07-24T09:22:40Z</time>
      </trkpt>
      <trkpt lat="47.25571" lon="-1.44428">
        <ele>58</ele>
        <time>2022-07-24T09:22:42Z</time>
      </trkpt>
      <trkpt lat="47.25562" lon="-1.4444">
        <ele>58</ele>
        <time>2022-07-24T09:22:44Z</time>
      </trkpt>
      <trkpt lat="47.25552" lon="-1.44452">
        <ele>58</ele>
        <time>2022-07-24T09:22:46Z</time>
      </trkpt>
      <trkpt lat="47.25543" lon="-1.44465">
        <ele>57</ele>
        <time>2022-07-24T09:22:48Z</time>
      </trkpt>
      <trkpt lat="47.25535" lon="-1.44478">
        <ele>57</ele>
        <time>2022-07-24T09:22:50Z</time>
      </trkpt>
      <trkpt lat="47.25527" lon="-1.4449">
        <ele>57</ele>
        <time>2022-07-24T09:22:52Z</time>
      </trkpt>
      <trkpt lat="47.25519" lon="-1.44504">
        <ele>57</ele>
        <time>2022-07-24T09:22:54Z</time>
      </trkpt>
      <trkpt lat="47.2551" lon="-1.44517">
        <ele>56</ele>
        <time>2022-07-24T09:22:56Z</time>
      </trkpt>
      <trkpt lat="47.25501" lon="-1.4453">
        <ele>56</ele>
        <time>2022-07-24T09:22:58Z</time>
      </trkpt>
      <trkpt lat="47.25491" lon="-1.44543">
        <ele>56</ele>
        <time>2022-07-24T09:23:00Z</time>
      </trkpt>
      <trkpt lat="47.25482" lon="-1.44556">
        <ele>55</ele>
        <time>2022-07-24T09:23:02Z</time>
      </trkpt>
      <trkpt lat="47.25473" lon="-1.44569">
        <ele>55</ele>
        <time>2022-07-24T09:23:04Z</time>
      </trkpt>
      <trkpt lat="47.25465" lon="-1.44583">
        <ele>55</ele>
        <time>2022-07-24T09:23:06Z</time>
      </trkpt>
      <trkpt lat="47.25456" lon="-1.44596">
        <ele>55</ele>
        <time>2022-07-24T09:23:08Z</time>
      </trkpt>
      <trkpt lat="47.25447" lon="-1.44609">
        <ele>55</ele>
        <time>2022-07-24T09:23:10Z</time>
      </trkpt>
      <trkpt lat="47.25438" lon="-1.44621">
        <ele>56</ele>
        <time>2022-07-24T09:23:12Z</time>
      </trkpt>
      <trkpt lat="47.25429" lon="-1.44633">
        <ele>56</ele>
        <time>2022-07-24T09:23:14Z</time>
      </trkpt>
      <trkpt lat="47.25419" lon="-1.44645">
        <ele>56</ele>
        <time>2022-07-24T09:23:16Z</time>
      </trkpt>
      <trkpt lat="47.2541" lon="-1.44656">
        <ele>56</ele>
        <time>2022-07-24T09:23:18Z</time>
      </trkpt>
      <trkpt lat="47.25401" lon="-1.44668">
        <ele>56</ele>
        <time>2022-07-24T09:23:20Z</time>
      </trkpt>
      <trkpt lat="47.2539" lon="-1.4468">
        <ele>56</ele>
        <time>2022-07-24T09:23:22Z</time>
      </trkpt>
      <trkpt lat="47.25381" lon="-1.44693">
        <ele>56</ele>
        <time>2022-07-24T09:23:24Z</time>
      </trkpt>
      <trkpt lat="47.2537" lon="-1.44705">
        <ele>57</ele>
        <time>2022-07-24T09:23:26Z</time>
      </trkpt>
      <trkpt lat="47.2536" lon="-1.44717">
        <ele>57</ele>
        <time>2022-07-24T09:23:28Z</time>
      </trkpt>
      <trkpt lat="47.2535" lon="-1.44729">
        <ele>57</ele>
        <time>2022-07-24T09:23:30Z</time>
      </trkpt>
      <trkpt lat="47.25339" lon="-1.44741">
        <ele>57</ele>
        <time>2022-07-24T09:23:32Z</time>
      </trkpt>
      <trkpt lat="47.25328" lon="-1.44752">
        <ele>56</ele>
        <time>2022-07-24T09:23:34Z</time>
      </trkpt>
      <trkpt lat="47.25316" lon="-1.44763">
        <ele>56</ele>
        <time>2022-07-24T09:23:36Z</time>
      </trkpt>
      <trkpt lat="47.25306" lon="-1.44775">
        <ele>56</ele>
        <time>2022-07-24T09:23:38Z</time>
      </trkpt>
      <trkpt lat="47.25295" lon="-1.44786">
        <ele>56</ele>
        <time>2022-07-24T09:23:40Z</time>
      </trkpt>
      <trkpt lat="47.25286" lon="-1.44796">
        <ele>56</ele>
        <time>2022-07-24T09:23:42Z</time>
      </trkpt>
      <trkpt lat="47.25278" lon="-1.44805">
        <ele>56</ele>
        <time>2022-07-24T09:23:44Z</time>
      </trkpt>
      <trkpt lat="47.2527" lon="-1.44814">
        <ele>56</ele>
        <time>2022-07-24T09:23:46Z</time>
      </trkpt>
      <trkpt lat="47.25259" lon="-1.44827">
        <ele>56</ele>
        <time>2022-07-24T09:23:48Z</time>
      </trkpt>
      <trkpt lat="47.25247" lon="-1.4484">
        <ele>57</ele>
        <time>2022-07-24T09:23:50Z</time>
      </trkpt>
      <trkpt lat="47.25236" lon="-1.44854">
        <ele>56</ele>
        <time>2022-07-24T09:23:52Z</time>
      </trkpt>
      <trkpt lat="47.25224" lon="-1.44867">
        <ele>57</ele>
        <time>2022-07-24T09:23:54Z</time>
      </trkpt>
      <trkpt lat="47.25211" lon="-1.44877">
        <ele>57</ele>
        <time>2022-07-24T09:23:56Z</time>
      </trkpt>
      <trkpt lat="47.25199" lon="-1.44888">
        <ele>58</ele>
        <time>2022-07-24T09:23:58Z</time>
      </trkpt>
      <trkpt lat="47.25186" lon="-1.44898">
        <ele>58</ele>
        <time>2022-07-24T09:24:00Z</time>
      </trkpt>
      <trkpt lat="47.25173" lon="-1.44908">
        <ele>58</ele>
        <time>2022-07-24T09:24:02Z</time>
      </trkpt>
      <trkpt lat="47.2516" lon="-1.44919">
        <ele>57</ele>
        <time>2022-07-24T09:24:04Z</time>
      </trkpt>
      <trkpt lat="47.25148" lon="-1.44931">
        <ele>57</ele>
        <time>2022-07-24T09:24:06Z</time>
      </trkpt>
      <trkpt lat="47.25136" lon="-1.44942">
        <ele>57</ele>
        <time>2022-07-24T09:24:08Z</time>
      </trkpt>
      <trkpt lat="47.25124" lon="-1.44954">
        <ele>57</ele>
        <time>2022-07-24T09:24:10Z</time>
      </trkpt>
      <trkpt lat="47.25113" lon="-1.44965">
        <ele>57</ele>
        <time>2022-07-24T09:24:12Z</time>
      </trkpt>
      <trkpt lat="47.25102" lon="-1.44975">
        <ele>57</ele>
        <time>2022-07-24T09:24:14Z</time>
      </trkpt>
      <trkpt lat="47.2509" lon="-1.44986">
        <ele>57</ele>
        <time>2022-07-24T09:24:16Z</time>
      </trkpt>
      <trkpt lat="47.25079" lon="-1.44995">
        <ele>57</ele>
        <time>2022-07-24T09:24:18Z</time>
      </trkpt>
      <trkpt lat="47.25067" lon="-1.45004">
        <ele>57</ele>
        <time>2022-07-24T09:24:20Z</time>
      </trkpt>
      <trkpt lat="47.25054" lon="-1.45014">
        <ele>58</ele>
        <time>2022-07-24T09:24:22Z</time>
      </trkpt>
      <trkpt lat="47.25042" lon="-1.45023">
        <ele>58</ele>
        <time>2022-07-24T09:24:24Z</time>
      </trkpt>
      <trkpt lat="47.2503" lon="-1.45032">
        <ele>58</ele>
        <time>2022-07-24T09:24:26Z</time>
      </trkpt>
      <trkpt lat="47.25019" lon="-1.45042">
        <ele>59</ele>
        <time>2022-07-24T09:24:28Z</time>
      </trkpt>
      <trkpt lat="47.25006" lon="-1.45052">
        <ele>59</ele>
        <time>2022-07-24T09:24:30Z</time>
      </trkpt>
      <trkpt lat="47.24995" lon="-1.45064">
        <ele>59</ele>
        <time>2022-07-24T09:24:32Z</time>
      </trkpt>
      <trkpt lat="47.24985" lon="-1.45076">
        <ele>59</ele>
        <time>2022-07-24T09:24:34Z</time>
      </trkpt>
      <trkpt lat="47.24974" lon="-1.45089">
        <ele>58</ele>
        <time>2022-07-24T09:24:36Z</time>
      </trkpt>
      <trkpt lat="47.24964" lon="-1.45101">
        <ele>58</ele>
        <time>2022-07-24T09:24:38Z</time>
      </trkpt>
      <trkpt lat="47.24953" lon="-1.45112">
        <ele>58</ele>
        <time>2022-07-24T09:24:40Z</time>
      </trkpt>
      <trkpt lat="47.24943" lon="-1.45124">
        <ele>58</ele>
        <time>2022-07-24T09:24:42Z</time>
      </trkpt>
      <trkpt lat="47.24932" lon="-1.45136">
        <ele>57</ele>
        <time>2022-07-24T09:24:44Z</time>
      </trkpt>
      <trkpt lat="47.24921" lon="-1.45148">
        <ele>57</ele>
        <time>2022-07-24T09:24:46Z</time>
      </trkpt>
      <trkpt lat="47.2491" lon="-1.45161">
        <ele>57</ele>
        <time>2022-07-24T09:24:48Z</time>
      </trkpt>
      <trkpt lat="47.24899" lon="-1.45172">
        <ele>56</ele>
        <time>2022-07-24T09:24:50Z</time>
      </trkpt>
      <trkpt lat="47.24889" lon="-1.45185">
        <ele>56</ele>
        <time>2022-07-24T09:24:52Z</time>
      </trkpt>
      <trkpt lat="47.2488" lon="-1.45198">
        <ele>57</ele>
        <time>2022-07-24T09:24:54Z</time>
      </trkpt>
      <trkpt lat="47.24872" lon="-1.4521">
        <ele>57</ele>
        <time>2022-07-24T09:24:56Z</time>
      </trkpt>
      <trkpt lat="47.24864" lon="-1.45223">
        <ele>56</ele>
        <time>2022-07-24T09:24:58Z</time>
      </trkpt>
      <trkpt lat="47.24855" lon="-1.45236">
        <ele>56</ele>
        <time>2022-07-24T09:25:00Z</time>
      </trkpt>
      <trkpt lat="47.24846" lon="-1.4525">
        <ele>57</ele>
        <time>2022-07-24T09:25:02Z</time>
      </trkpt>
      <trkpt lat="47.24837" lon="-1.45266">
        <ele>56</ele>
        <time>2022-07-24T09:25:04Z</time>
      </trkpt>
      <trkpt lat="47.24828" lon="-1.4528">
        <ele>56</ele>
        <time>2022-07-24T09:25:06Z</time>
      </trkpt>
      <trkpt lat="47.24821" lon="-1.45294">
        <ele>57</ele>
        <time>2022-07-24T09:25:08Z</time>
      </trkpt>
      <trkpt lat="47.24815" lon="-1.45307">
        <ele>58</ele>
        <time>2022-07-24T09:25:10Z</time>
      </trkpt>
      <trkpt lat="47.24808" lon="-1.45321">
        <ele>58</ele>
        <time>2022-07-24T09:25:12Z</time>
      </trkpt>
      <trkpt lat="47.24801" lon="-1.45334">
        <ele>58</ele>
        <time>2022-07-24T09:25:14Z</time>
      </trkpt>
      <trkpt lat="47.24793" lon="-1.4535">
        <ele>58</ele>
        <time>2022-07-24T09:25:16Z</time>
      </trkpt>
      <trkpt lat="47.24786" lon="-1.45367">
        <ele>58</ele>
        <time>2022-07-24T09:25:18Z</time>
      </trkpt>
      <trkpt lat="47.2478" lon="-1.45385">
        <ele>58</ele>
        <time>2022-07-24T09:25:20Z</time>
      </trkpt>
      <trkpt lat="47.24773" lon="-1.45401">
        <ele>57</ele>
        <time>2022-07-24T09:25:22Z</time>
      </trkpt>
      <trkpt lat="47.24766" lon="-1.45417">
        <ele>57</ele>
        <time>2022-07-24T09:25:24Z</time>
      </trkpt>
      <trkpt lat="47.24759" lon="-1.45432">
        <ele>57</ele>
        <time>2022-07-24T09:25:26Z</time>
      </trkpt>
      <trkpt lat="47.24754" lon="-1.45449">
        <ele>57</ele>
        <time>2022-07-24T09:25:28Z</time>
      </trkpt>
      <trkpt lat="47.24748" lon="-1.45466">
        <ele>57</ele>
        <time>2022-07-24T09:25:30Z</time>
      </trkpt>
      <trkpt lat="47.24741" lon="-1.45482">
        <ele>57</ele>
        <time>2022-07-24T09:25:32Z</time>
      </trkpt>
      <trkpt lat="47.24734" lon="-1.455">
        <ele>56</ele>
        <time>2022-07-24T09:25:34Z</time>
      </trkpt>
      <trkpt lat="47.24727" lon="-1.45516">
        <ele>55</ele>
        <time>2022-07-24T09:25:36Z</time>
      </trkpt>
      <trkpt lat="47.24721" lon="-1.45534">
        <ele>55</ele>
        <time>2022-07-24T09:25:38Z</time>
      </trkpt>
      <trkpt lat="47.24715" lon="-1.45551">
        <ele>55</ele>
        <time>2022-07-24T09:25:40Z</time>
      </trkpt>
      <trkpt lat="47.2471" lon="-1.45568">
        <ele>55</ele>
        <time>2022-07-24T09:25:42Z</time>
      </trkpt>
      <trkpt lat="47.24704" lon="-1.45585">
        <ele>54</ele>
        <time>2022-07-24T09:25:44Z</time>
      </trkpt>
      <trkpt lat="47.24699" lon="-1.45603">
        <ele>54</ele>
        <time>2022-07-24T09:25:46Z</time>
      </trkpt>
      <trkpt lat="47.24693" lon="-1.45619">
        <ele>54</ele>
        <time>2022-07-24T09:25:48Z</time>
      </trkpt>
      <trkpt lat="47.24688" lon="-1.45636">
        <ele>54</ele>
        <time>2022-07-24T09:25:50Z</time>
      </trkpt>
      <trkpt lat="47.24683" lon="-1.45652">
        <ele>54</ele>
        <time>2022-07-24T09:25:52Z</time>
      </trkpt>
      <trkpt lat="47.24677" lon="-1.45668">
        <ele>55</ele>
        <time>2022-07-24T09:25:54Z</time>
      </trkpt>
      <trkpt lat="47.24674" lon="-1.45684">
        <ele>56</ele>
        <time>2022-07-24T09:25:56Z</time>
      </trkpt>
      <trkpt lat="47.24668" lon="-1.457">
        <ele>56</ele>
        <time>2022-07-24T09:25:58Z</time>
      </trkpt>
      <trkpt lat="47.24663" lon="-1.45717">
        <ele>55</ele>
        <time>2022-07-24T09:26:00Z</time>
      </trkpt>
      <trkpt lat="47.2466" lon="-1.45735">
        <ele>55</ele>
        <time>2022-07-24T09:26:02Z</time>
      </trkpt>
      <trkpt lat="47.24656" lon="-1.45752">
        <ele>55</ele>
        <time>2022-07-24T09:26:04Z</time>
      </trkpt>
      <trkpt lat="47.24652" lon="-1.45769">
        <ele>56</ele>
        <time>2022-07-24T09:26:06Z</time>
      </trkpt>
      <trkpt lat="47.24647" lon="-1.45786">
        <ele>56</ele>
        <time>2022-07-24T09:26:08Z</time>
      </trkpt>
      <trkpt lat="47.24642" lon="-1.45805">
        <ele>56</ele>
        <time>2022-07-24T09:26:10Z</time>
      </trkpt>
      <trkpt lat="47.24637" lon="-1.45823">
        <ele>57</ele>
        <time>2022-07-24T09:26:12Z</time>
      </trkpt>
      <trkpt lat="47.24632" lon="-1.45839">
        <ele>57</ele>
        <time>2022-07-24T09:26:14Z</time>
      </trkpt>
      <trkpt lat="47.24627" lon="-1.45856">
        <ele>58</ele>
        <time>2022-07-24T09:26:16Z</time>
      </trkpt>
      <trkpt lat="47.24623" lon="-1.45874">
        <ele>58</ele>
        <time>2022-07-24T09:26:18Z</time>
      </trkpt>
      <trkpt lat="47.24618" lon="-1.45891">
        <ele>59</ele>
        <time>2022-07-24T09:26:20Z</time>
      </trkpt>
      <trkpt lat="47.24613" lon="-1.45908">
        <ele>59</ele>
        <time>2022-07-24T09:26:22Z</time>
      </trkpt>
      <trkpt lat="47.24607" lon="-1.45927">
        <ele>59</ele>
        <time>2022-07-24T09:26:24Z</time>
      </trkpt>
      <trkpt lat="47.246" lon="-1.45945">
        <ele>59</ele>
        <time>2022-07-24T09:26:26Z</time>
      </trkpt>
      <trkpt lat="47.24593" lon="-1.45961">
        <ele>59</ele>
        <time>2022-07-24T09:26:28Z</time>
      </trkpt>
      <trkpt lat="47.24586" lon="-1.45977">
        <ele>59</ele>
        <time>2022-07-24T09:26:30Z</time>
      </trkpt>
      <trkpt lat="47.24578" lon="-1.45993">
        <ele>60</ele>
        <time>2022-07-24T09:26:32Z</time>
      </trkpt>
      <trkpt lat="47.2457" lon="-1.46009">
        <ele>60</ele>
        <time>2022-07-24T09:26:34Z</time>
      </trkpt>
      <trkpt lat="47.24563" lon="-1.46025">
        <ele>60</ele>
        <time>2022-07-24T09:26:36Z</time>
      </trkpt>
      <trkpt lat="47.24554" lon="-1.46041">
        <ele>60</ele>
        <time>2022-07-24T09:26:38Z</time>
      </trkpt>
      <trkpt lat="47.24546" lon="-1.46056">
        <ele>60</ele>
        <time>2022-07-24T09:26:40Z</time>
      </trkpt>
      <trkpt lat="47.24538" lon="-1.46071">
        <ele>60</ele>
        <time>2022-07-24T09:26:42Z</time>
      </trkpt>
      <trkpt lat="47.2453" lon="-1.46087">
        <ele>60</ele>
        <time>2022-07-24T09:26:44Z</time>
      </trkpt>
      <trkpt lat="47.24522" lon="-1.46101">
        <ele>60</ele>
        <time>2022-07-24T09:26:46Z</time>
      </trkpt>
      <trkpt lat="47.24512" lon="-1.46113">
        <ele>61</ele>
        <time>2022-07-24T09:26:48Z</time>
      </trkpt>
      <trkpt lat="47.24502" lon="-1.46125">
        <ele>60</ele>
        <time>2022-07-24T09:26:50Z</time>
      </trkpt>
      <trkpt lat="47.24492" lon="-1.46138">
        <ele>61</ele>
        <time>2022-07-24T09:26:52Z</time>
      </trkpt>
      <trkpt lat="47.24482" lon="-1.4615">
        <ele>61</ele>
        <time>2022-07-24T09:26:54Z</time>
      </trkpt>
      <trkpt lat="47.24473" lon="-1.46162">
        <ele>61</ele>
        <time>2022-07-24T09:26:56Z</time>
      </trkpt>
      <trkpt lat="47.24463" lon="-1.46174">
        <ele>61</ele>
        <time>2022-07-24T09:26:58Z</time>
      </trkpt>
      <trkpt lat="47.24455" lon="-1.46185">
        <ele>60</ele>
        <time>2022-07-24T09:27:00Z</time>
      </trkpt>
      <trkpt lat="47.24445" lon="-1.46198">
        <ele>60</ele>
        <time>2022-07-24T09:27:02Z</time>
      </trkpt>
      <trkpt lat="47.24436" lon="-1.4621">
        <ele>60</ele>
        <time>2022-07-24T09:27:04Z</time>
      </trkpt>
      <trkpt lat="47.24427" lon="-1.46222">
        <ele>60</ele>
        <time>2022-07-24T09:27:06Z</time>
      </trkpt>
      <trkpt lat="47.24418" lon="-1.46234">
        <ele>59</ele>
        <time>2022-07-24T09:27:08Z</time>
      </trkpt>
      <trkpt lat="47.2441" lon="-1.46246">
        <ele>60</ele>
        <time>2022-07-24T09:27:10Z</time>
      </trkpt>
      <trkpt lat="47.24401" lon="-1.46256">
        <ele>59</ele>
        <time>2022-07-24T09:27:12Z</time>
      </trkpt>
      <trkpt lat="47.24393" lon="-1.4627">
        <ele>59</ele>
        <time>2022-07-24T09:27:14Z</time>
      </trkpt>
      <trkpt lat="47.24384" lon="-1.46283">
        <ele>59</ele>
        <time>2022-07-24T09:27:16Z</time>
      </trkpt>
      <trkpt lat="47.24374" lon="-1.46297">
        <ele>60</ele>
        <time>2022-07-24T09:27:18Z</time>
      </trkpt>
      <trkpt lat="47.24364" lon="-1.46312">
        <ele>59</ele>
        <time>2022-07-24T09:27:20Z</time>
      </trkpt>
      <trkpt lat="47.24355" lon="-1.46327">
        <ele>59</ele>
        <time>2022-07-24T09:27:22Z</time>
      </trkpt>
      <trkpt lat="47.24345" lon="-1.46342">
        <ele>58</ele>
        <time>2022-07-24T09:27:24Z</time>
      </trkpt>
      <trkpt lat="47.24336" lon="-1.46356">
        <ele>58</ele>
        <time>2022-07-24T09:27:26Z</time>
      </trkpt>
      <trkpt lat="47.24328" lon="-1.46371">
        <ele>58</ele>
        <time>2022-07-24T09:27:28Z</time>
      </trkpt>
      <trkpt lat="47.2432" lon="-1.46385">
        <ele>58</ele>
        <time>2022-07-24T09:27:30Z</time>
      </trkpt>
      <trkpt lat="47.24312" lon="-1.46399">
        <ele>58</ele>
        <time>2022-07-24T09:27:32Z</time>
      </trkpt>
      <trkpt lat="47.24304" lon="-1.46413">
        <ele>59</ele>
        <time>2022-07-24T09:27:34Z</time>
      </trkpt>
      <trkpt lat="47.24295" lon="-1.46427">
        <ele>59</ele>
        <time>2022-07-24T09:27:36Z</time>
      </trkpt>
      <trkpt lat="47.24288" lon="-1.46441">
        <ele>59</ele>
        <time>2022-07-24T09:27:38Z</time>
      </trkpt>
      <trkpt lat="47.24279" lon="-1.46453">
        <ele>58</ele>
        <time>2022-07-24T09:27:40Z</time>
      </trkpt>
      <trkpt lat="47.2427" lon="-1.46466">
        <ele>58</ele>
        <time>2022-07-24T09:27:42Z</time>
      </trkpt>
      <trkpt lat="47.24261" lon="-1.46478">
        <ele>57</ele>
        <time>2022-07-24T09:27:44Z</time>
      </trkpt>
      <trkpt lat="47.24251" lon="-1.4649">
        <ele>57</ele>
        <time>2022-07-24T09:27:46Z</time>
      </trkpt>
      <trkpt lat="47.24242" lon="-1.46503">
        <ele>57</ele>
        <time>2022-07-24T09:27:48Z</time>
      </trkpt>
      <trkpt lat="47.24232" lon="-1.46515">
        <ele>57</ele>
        <time>2022-07-24T09:27:50Z</time>
      </trkpt>
      <trkpt lat="47.24222" lon="-1.46527">
        <ele>57</ele>
        <time>2022-07-24T09:27:52Z</time>
      </trkpt>
      <trkpt lat="47.24212" lon="-1.46539">
        <ele>57</ele>
        <time>2022-07-24T09:27:54Z</time>
      </trkpt>
      <trkpt lat="47.24202" lon="-1.4655">
        <ele>57</ele>
        <time>2022-07-24T09:27:56Z</time>
      </trkpt>
      <trkpt lat="47.24192" lon="-1.46561">
        <ele>57</ele>
        <time>2022-07-24T09:27:58Z</time>
      </trkpt>
      <trkpt lat="47.24182" lon="-1.46574">
        <ele>57</ele>
        <time>2022-07-24T09:28:00Z</time>
      </trkpt>
      <trkpt lat="47.24173" lon="-1.46586">
        <ele>57</ele>
        <time>2022-07-24T09:28:02Z</time>
      </trkpt>
      <trkpt lat="47.24163" lon="-1.46599">
        <ele>57</ele>
        <time>2022-07-24T09:28:04Z</time>
      </trkpt>
      <trkpt lat="47.24154" lon="-1.46612">
        <ele>57</ele>
        <time>2022-07-24T09:28:06Z</time>
      </trkpt>
      <trkpt lat="47.24145" lon="-1.46624">
        <ele>57</ele>
        <time>2022-07-24T09:28:08Z</time>
      </trkpt>
      <trkpt lat="47.24136" lon="-1.46637">
        <ele>57</ele>
        <time>2022-07-24T09:28:10Z</time>
      </trkpt>
      <trkpt lat="47.24127" lon="-1.46649">
        <ele>56</ele>
        <time>2022-07-24T09:28:12Z</time>
      </trkpt>
      <trkpt lat="47.24118" lon="-1.46661">
        <ele>57</ele>
        <time>2022-07-24T09:28:14Z</time>
      </trkpt>
      <trkpt lat="47.24109" lon="-1.46673">
        <ele>57</ele>
        <time>2022-07-24T09:28:16Z</time>
      </trkpt>
      <trkpt lat="47.24099" lon="-1.46686">
        <ele>56</ele>
        <time>2022-07-24T09:28:18Z</time>
      </trkpt>
      <trkpt lat="47.2409" lon="-1.46698">
        <ele>57</ele>
        <time>2022-07-24T09:28:20Z</time>
      </trkpt>
      <trkpt lat="47.24084" lon="-1.4671">
        <ele>56</ele>
        <time>2022-07-24T09:28:22Z</time>
      </trkpt>
      <trkpt lat="47.24078" lon="-1.46727">
        <ele>56</ele>
        <time>2022-07-24T09:28:25Z</time>
      </trkpt>
      <trkpt lat="47.24071" lon="-1.46739">
        <ele>56</ele>
        <time>2022-07-24T09:28:27Z</time>
      </trkpt>
      <trkpt lat="47.2406" lon="-1.46748">
        <ele>55</ele>
        <time>2022-07-24T09:28:29Z</time>
      </trkpt>
      <trkpt lat="47.24048" lon="-1.46757">
        <ele>55</ele>
        <time>2022-07-24T09:28:31Z</time>
      </trkpt>
      <trkpt lat="47.24038" lon="-1.46768">
        <ele>55</ele>
        <time>2022-07-24T09:28:33Z</time>
      </trkpt>
      <trkpt lat="47.24027" lon="-1.46779">
        <ele>55</ele>
        <time>2022-07-24T09:28:35Z</time>
      </trkpt>
      <trkpt lat="47.24017" lon="-1.46789">
        <ele>55</ele>
        <time>2022-07-24T09:28:37Z</time>
      </trkpt>
      <trkpt lat="47.24007" lon="-1.46801">
        <ele>55</ele>
        <time>2022-07-24T09:28:39Z</time>
      </trkpt>
      <trkpt lat="47.23998" lon="-1.46811">
        <ele>56</ele>
        <time>2022-07-24T09:28:41Z</time>
      </trkpt>
      <trkpt lat="47.23988" lon="-1.46821">
        <ele>56</ele>
        <time>2022-07-24T09:28:43Z</time>
      </trkpt>
      <trkpt lat="47.23978" lon="-1.46831">
        <ele>56</ele>
        <time>2022-07-24T09:28:45Z</time>
      </trkpt>
      <trkpt lat="47.23969" lon="-1.46842">
        <ele>57</ele>
        <time>2022-07-24T09:28:47Z</time>
      </trkpt>
      <trkpt lat="47.23959" lon="-1.46852">
        <ele>57</ele>
        <time>2022-07-24T09:28:49Z</time>
      </trkpt>
      <trkpt lat="47.23949" lon="-1.46861">
        <ele>57</ele>
        <time>2022-07-24T09:28:51Z</time>
      </trkpt>
      <trkpt lat="47.23939" lon="-1.4687">
        <ele>58</ele>
        <time>2022-07-24T09:28:53Z</time>
      </trkpt>
      <trkpt lat="47.23929" lon="-1.46878">
        <ele>59</ele>
        <time>2022-07-24T09:28:55Z</time>
      </trkpt>
      <trkpt lat="47.2392" lon="-1.46888">
        <ele>58</ele>
        <time>2022-07-24T09:28:57Z</time>
      </trkpt>
      <trkpt lat="47.23911" lon="-1.46899">
        <ele>58</ele>
        <time>2022-07-24T09:28:59Z</time>
      </trkpt>
      <trkpt lat="47.23902" lon="-1.4691">
        <ele>57</ele>
        <time>2022-07-24T09:29:01Z</time>
      </trkpt>
      <trkpt lat="47.23893" lon="-1.46921">
        <ele>57</ele>
        <time>2022-07-24T09:29:03Z</time>
      </trkpt>
      <trkpt lat="47.23885" lon="-1.46933">
        <ele>57</ele>
        <time>2022-07-24T09:29:05Z</time>
      </trkpt>
      <trkpt lat="47.23877" lon="-1.46945">
        <ele>58</ele>
        <time>2022-07-24T09:29:07Z</time>
      </trkpt>
      <trkpt lat="47.23867" lon="-1.46957">
        <ele>58</ele>
        <time>2022-07-24T09:29:09Z</time>
      </trkpt>
      <trkpt lat="47.23857" lon="-1.46969">
        <ele>57</ele>
        <time>2022-07-24T09:29:11Z</time>
      </trkpt>
      <trkpt lat="47.23847" lon="-1.46982">
        <ele>57</ele>
        <time>2022-07-24T09:29:13Z</time>
      </trkpt>
      <trkpt lat="47.23839" lon="-1.46995">
        <ele>57</ele>
        <time>2022-07-24T09:29:15Z</time>
      </trkpt>
      <trkpt lat="47.2383" lon="-1.47007">
        <ele>57</ele>
        <time>2022-07-24T09:29:17Z</time>
      </trkpt>
      <trkpt lat="47.23821" lon="-1.47021">
        <ele>57</ele>
        <time>2022-07-24T09:29:19Z</time>
      </trkpt>
      <trkpt lat="47.23812" lon="-1.47034">
        <ele>57</ele>
        <time>2022-07-24T09:29:21Z</time>
      </trkpt>
      <trkpt lat="47.23803" lon="-1.47047">
        <ele>56</ele>
        <time>2022-07-24T09:29:23Z</time>
      </trkpt>
      <trkpt lat="47.23794" lon="-1.47059">
        <ele>56</ele>
        <time>2022-07-24T09:29:25Z</time>
      </trkpt>
      <trkpt lat="47.23785" lon="-1.47072">
        <ele>57</ele>
        <time>2022-07-24T09:29:27Z</time>
      </trkpt>
      <trkpt lat="47.23775" lon="-1.47085">
        <ele>57</ele>
        <time>2022-07-24T09:29:29Z</time>
      </trkpt>
      <trkpt lat="47.23766" lon="-1.47098">
        <ele>57</ele>
        <time>2022-07-24T09:29:31Z</time>
      </trkpt>
      <trkpt lat="47.23756" lon="-1.47111">
        <ele>57</ele>
        <time>2022-07-24T09:29:33Z</time>
      </trkpt>
      <trkpt lat="47.23747" lon="-1.47122">
        <ele>57</ele>
        <time>2022-07-24T09:29:35Z</time>
      </trkpt>
      <trkpt lat="47.23737" lon="-1.47133">
        <ele>57</ele>
        <time>2022-07-24T09:29:37Z</time>
      </trkpt>
      <trkpt lat="47.23727" lon="-1.47145">
        <ele>57</ele>
        <time>2022-07-24T09:29:39Z</time>
      </trkpt>
      <trkpt lat="47.23718" lon="-1.47157">
        <ele>56</ele>
        <time>2022-07-24T09:29:41Z</time>
      </trkpt>
      <trkpt lat="47.2371" lon="-1.4717">
        <ele>56</ele>
        <time>2022-07-24T09:29:43Z</time>
      </trkpt>
      <trkpt lat="47.23702" lon="-1.47182">
        <ele>57</ele>
        <time>2022-07-24T09:29:45Z</time>
      </trkpt>
      <trkpt lat="47.23693" lon="-1.47195">
        <ele>57</ele>
        <time>2022-07-24T09:29:47Z</time>
      </trkpt>
      <trkpt lat="47.23685" lon="-1.47209">
        <ele>56</ele>
        <time>2022-07-24T09:29:49Z</time>
      </trkpt>
      <trkpt lat="47.23676" lon="-1.47223">
        <ele>55</ele>
        <time>2022-07-24T09:29:51Z</time>
      </trkpt>
      <trkpt lat="47.23667" lon="-1.47234">
        <ele>55</ele>
        <time>2022-07-24T09:29:53Z</time>
      </trkpt>
      <trkpt lat="47.23657" lon="-1.47245">
        <ele>55</ele>
        <time>2022-07-24T09:29:55Z</time>
      </trkpt>
      <trkpt lat="47.23647" lon="-1.47255">
        <ele>55</ele>
        <time>2022-07-24T09:29:57Z</time>
      </trkpt>
      <trkpt lat="47.23637" lon="-1.47266">
        <ele>56</ele>
        <time>2022-07-24T09:29:59Z</time>
      </trkpt>
      <trkpt lat="47.23627" lon="-1.47277">
        <ele>55</ele>
        <time>2022-07-24T09:30:01Z</time>
      </trkpt>
      <trkpt lat="47.23617" lon="-1.47287">
        <ele>55</ele>
        <time>2022-07-24T09:30:03Z</time>
      </trkpt>
      <trkpt lat="47.23607" lon="-1.47298">
        <ele>55</ele>
        <time>2022-07-24T09:30:05Z</time>
      </trkpt>
      <trkpt lat="47.23598" lon="-1.47309">
        <ele>55</ele>
        <time>2022-07-24T09:30:07Z</time>
      </trkpt>
      <trkpt lat="47.23586" lon="-1.47319">
        <ele>56</ele>
        <time>2022-07-24T09:30:09Z</time>
      </trkpt>
      <trkpt lat="47.23576" lon="-1.47329">
        <ele>56</ele>
        <time>2022-07-24T09:30:11Z</time>
      </trkpt>
      <trkpt lat="47.23565" lon="-1.47338">
        <ele>55</ele>
        <time>2022-07-24T09:30:13Z</time>
      </trkpt>
      <trkpt lat="47.23554" lon="-1.47347">
        <ele>55</ele>
        <time>2022-07-24T09:30:15Z</time>
      </trkpt>
      <trkpt lat="47.23543" lon="-1.47356">
        <ele>55</ele>
        <time>2022-07-24T09:30:17Z</time>
      </trkpt>
      <trkpt lat="47.23532" lon="-1.47365">
        <ele>55</ele>
        <time>2022-07-24T09:30:19Z</time>
      </trkpt>
      <trkpt lat="47.23521" lon="-1.47375">
        <ele>55</ele>
        <time>2022-07-24T09:30:21Z</time>
      </trkpt>
      <trkpt lat="47.2351" lon="-1.47383">
        <ele>55</ele>
        <time>2022-07-24T09:30:23Z</time>
      </trkpt>
      <trkpt lat="47.23499" lon="-1.47391">
        <ele>55</ele>
        <time>2022-07-24T09:30:25Z</time>
      </trkpt>
      <trkpt lat="47.23489" lon="-1.47399">
        <ele>55</ele>
        <time>2022-07-24T09:30:27Z</time>
      </trkpt>
      <trkpt lat="47.23477" lon="-1.47405">
        <ele>55</ele>
        <time>2022-07-24T09:30:29Z</time>
      </trkpt>
      <trkpt lat="47.23466" lon="-1.4741">
        <ele>55</ele>
        <time>2022-07-24T09:30:31Z</time>
      </trkpt>
      <trkpt lat="47.23454" lon="-1.47416">
        <ele>55</ele>
        <time>2022-07-24T09:30:33Z</time>
      </trkpt>
      <trkpt lat="47.23443" lon="-1.47421">
        <ele>55</ele>
        <time>2022-07-24T09:30:35Z</time>
      </trkpt>
      <trkpt lat="47.23432" lon="-1.47426">
        <ele>56</ele>
        <time>2022-07-24T09:30:37Z</time>
      </trkpt>
      <trkpt lat="47.23422" lon="-1.47431">
        <ele>56</ele>
        <time>2022-07-24T09:30:39Z</time>
      </trkpt>
      <trkpt lat="47.23412" lon="-1.47437">
        <ele>56</ele>
        <time>2022-07-24T09:30:41Z</time>
      </trkpt>
      <trkpt lat="47.23401" lon="-1.47446">
        <ele>56</ele>
        <time>2022-07-24T09:30:43Z</time>
      </trkpt>
      <trkpt lat="47.2339" lon="-1.47453">
        <ele>56</ele>
        <time>2022-07-24T09:30:45Z</time>
      </trkpt>
      <trkpt lat="47.23378" lon="-1.47459">
        <ele>56</ele>
        <time>2022-07-24T09:30:47Z</time>
      </trkpt>
      <trkpt lat="47.23366" lon="-1.47465">
        <ele>57</ele>
        <time>2022-07-24T09:30:49Z</time>
      </trkpt>
      <trkpt lat="47.23354" lon="-1.47471">
        <ele>56</ele>
        <time>2022-07-24T09:30:51Z</time>
      </trkpt>
      <trkpt lat="47.23343" lon="-1.47475">
        <ele>56</ele>
        <time>2022-07-24T09:30:53Z</time>
      </trkpt>
      <trkpt lat="47.23332" lon="-1.47481">
        <ele>55</ele>
        <time>2022-07-24T09:30:55Z</time>
      </trkpt>
      <trkpt lat="47.23322" lon="-1.47489">
        <ele>55</ele>
        <time>2022-07-24T09:30:57Z</time>
      </trkpt>
      <trkpt lat="47.23312" lon="-1.475">
        <ele>55</ele>
        <time>2022-07-24T09:30:59Z</time>
      </trkpt>
      <trkpt lat="47.23301" lon="-1.47507">
        <ele>55</ele>
        <time>2022-07-24T09:31:01Z</time>
      </trkpt>
      <trkpt lat="47.2329" lon="-1.4751">
        <ele>55</ele>
        <time>2022-07-24T09:31:03Z</time>
      </trkpt>
      <trkpt lat="47.23279" lon="-1.47517">
        <ele>56</ele>
        <time>2022-07-24T09:31:05Z</time>
      </trkpt>
      <trkpt lat="47.23269" lon="-1.47527">
        <ele>55</ele>
        <time>2022-07-24T09:31:07Z</time>
      </trkpt>
      <trkpt lat="47.2326" lon="-1.4754">
        <ele>56</ele>
        <time>2022-07-24T09:31:09Z</time>
      </trkpt>
      <trkpt lat="47.23251" lon="-1.47554">
        <ele>56</ele>
        <time>2022-07-24T09:31:11Z</time>
      </trkpt>
      <trkpt lat="47.23243" lon="-1.4757">
        <ele>56</ele>
        <time>2022-07-24T09:31:13Z</time>
      </trkpt>
      <trkpt lat="47.23234" lon="-1.47583">
        <ele>55</ele>
        <time>2022-07-24T09:31:15Z</time>
      </trkpt>
      <trkpt lat="47.23227" lon="-1.47596">
        <ele>55</ele>
        <time>2022-07-24T09:31:17Z</time>
      </trkpt>
      <trkpt lat="47.2322" lon="-1.47611">
        <ele>55</ele>
        <time>2022-07-24T09:31:19Z</time>
      </trkpt>
      <trkpt lat="47.23214" lon="-1.47627">
        <ele>55</ele>
        <time>2022-07-24T09:31:21Z</time>
      </trkpt>
      <trkpt lat="47.23208" lon="-1.47643">
        <ele>56</ele>
        <time>2022-07-24T09:31:23Z</time>
      </trkpt>
      <trkpt lat="47.23202" lon="-1.47659">
        <ele>56</ele>
        <time>2022-07-24T09:31:25Z</time>
      </trkpt>
      <trkpt lat="47.23196" lon="-1.47674">
        <ele>56</ele>
        <time>2022-07-24T09:31:27Z</time>
      </trkpt>
      <trkpt lat="47.23189" lon="-1.47689">
        <ele>56</ele>
        <time>2022-07-24T09:31:29Z</time>
      </trkpt>
      <trkpt lat="47.23183" lon="-1.47705">
        <ele>57</ele>
        <time>2022-07-24T09:31:31Z</time>
      </trkpt>
      <trkpt lat="47.23175" lon="-1.4772">
        <ele>57</ele>
        <time>2022-07-24T09:31:33Z</time>
      </trkpt>
      <trkpt lat="47.23167" lon="-1.47737">
        <ele>56</ele>
        <time>2022-07-24T09:31:35Z</time>
      </trkpt>
      <trkpt lat="47.2316" lon="-1.47751">
        <ele>56</ele>
        <time>2022-07-24T09:31:37Z</time>
      </trkpt>
      <trkpt lat="47.23154" lon="-1.47765">
        <ele>56</ele>
        <time>2022-07-24T09:31:39Z</time>
      </trkpt>
      <trkpt lat="47.23148" lon="-1.47779">
        <ele>55</ele>
        <time>2022-07-24T09:31:41Z</time>
      </trkpt>
      <trkpt lat="47.23144" lon="-1.47792">
        <ele>55</ele>
        <time>2022-07-24T09:31:43Z</time>
      </trkpt>
      <trkpt lat="47.23139" lon="-1.47807">
        <ele>56</ele>
        <time>2022-07-24T09:31:45Z</time>
      </trkpt>
      <trkpt lat="47.23133" lon="-1.47822">
        <ele>56</ele>
        <time>2022-07-24T09:31:47Z</time>
      </trkpt>
      <trkpt lat="47.23126" lon="-1.47838">
        <ele>56</ele>
        <time>2022-07-24T09:31:49Z</time>
      </trkpt>
      <trkpt lat="47.23119" lon="-1.47855">
        <ele>55</ele>
        <time>2022-07-24T09:31:51Z</time>
      </trkpt>
      <trkpt lat="47.2311" lon="-1.4787">
        <ele>54</ele>
        <time>2022-07-24T09:31:53Z</time>
      </trkpt>
      <trkpt lat="47.23101" lon="-1.47883">
        <ele>54</ele>
        <time>2022-07-24T09:31:55Z</time>
      </trkpt>
      <trkpt lat="47.23091" lon="-1.47896">
        <ele>54</ele>
        <time>2022-07-24T09:31:57Z</time>
      </trkpt>
      <trkpt lat="47.23082" lon="-1.47908">
        <ele>54</ele>
        <time>2022-07-24T09:31:59Z</time>
      </trkpt>
      <trkpt lat="47.23073" lon="-1.4792">
        <ele>54</ele>
        <time>2022-07-24T09:32:01Z</time>
      </trkpt>
      <trkpt lat="47.23064" lon="-1.47932">
        <ele>55</ele>
        <time>2022-07-24T09:32:03Z</time>
      </trkpt>
      <trkpt lat="47.23055" lon="-1.47945">
        <ele>55</ele>
        <time>2022-07-24T09:32:05Z</time>
      </trkpt>
      <trkpt lat="47.23045" lon="-1.47957">
        <ele>55</ele>
        <time>2022-07-24T09:32:07Z</time>
      </trkpt>
      <trkpt lat="47.23036" lon="-1.4797">
        <ele>55</ele>
        <time>2022-07-24T09:32:09Z</time>
      </trkpt>
      <trkpt lat="47.23026" lon="-1.47983">
        <ele>54</ele>
        <time>2022-07-24T09:32:11Z</time>
      </trkpt>
      <trkpt lat="47.23017" lon="-1.47996">
        <ele>54</ele>
        <time>2022-07-24T09:32:13Z</time>
      </trkpt>
      <trkpt lat="47.23007" lon="-1.48009">
        <ele>54</ele>
        <time>2022-07-24T09:32:15Z</time>
      </trkpt>
      <trkpt lat="47.22999" lon="-1.48023">
        <ele>54</ele>
        <time>2022-07-24T09:32:17Z</time>
      </trkpt>
      <trkpt lat="47.22991" lon="-1.48038">
        <ele>55</ele>
        <time>2022-07-24T09:32:19Z</time>
      </trkpt>
      <trkpt lat="47.22983" lon="-1.48053">
        <ele>54</ele>
        <time>2022-07-24T09:32:21Z</time>
      </trkpt>
      <trkpt lat="47.22975" lon="-1.48066">
        <ele>54</ele>
        <time>2022-07-24T09:32:23Z</time>
      </trkpt>
      <trkpt lat="47.22966" lon="-1.4808">
        <ele>54</ele>
        <time>2022-07-24T09:32:25Z</time>
      </trkpt>
      <trkpt lat="47.22959" lon="-1.48094">
        <ele>54</ele>
        <time>2022-07-24T09:32:27Z</time>
      </trkpt>
      <trkpt lat="47.22951" lon="-1.48106">
        <ele>54</ele>
        <time>2022-07-24T09:32:29Z</time>
      </trkpt>
      <trkpt lat="47.2294" lon="-1.4811">
        <ele>53</ele>
        <time>2022-07-24T09:32:31Z</time>
      </trkpt>
      <trkpt lat="47.22927" lon="-1.48112">
        <ele>53</ele>
        <time>2022-07-24T09:32:33Z</time>
      </trkpt>
      <trkpt lat="47.22915" lon="-1.48116">
        <ele>53</ele>
        <time>2022-07-24T09:32:35Z</time>
      </trkpt>
      <trkpt lat="47.22903" lon="-1.48124">
        <ele>53</ele>
        <time>2022-07-24T09:32:37Z</time>
      </trkpt>
      <trkpt lat="47.22894" lon="-1.48136">
        <ele>53</ele>
        <time>2022-07-24T09:32:39Z</time>
      </trkpt>
      <trkpt lat="47.22885" lon="-1.48149">
        <ele>53</ele>
        <time>2022-07-24T09:32:41Z</time>
      </trkpt>
      <trkpt lat="47.22876" lon="-1.48163">
        <ele>53</ele>
        <time>2022-07-24T09:32:43Z</time>
      </trkpt>
      <trkpt lat="47.22868" lon="-1.48176">
        <ele>54</ele>
        <time>2022-07-24T09:32:45Z</time>
      </trkpt>
      <trkpt lat="47.22859" lon="-1.4819">
        <ele>54</ele>
        <time>2022-07-24T09:32:47Z</time>
      </trkpt>
      <trkpt lat="47.2285" lon="-1.48203">
        <ele>54</ele>
        <time>2022-07-24T09:32:49Z</time>
      </trkpt>
      <trkpt lat="47.22842" lon="-1.48217">
        <ele>54</ele>
        <time>2022-07-24T09:32:51Z</time>
      </trkpt>
      <trkpt lat="47.22834" lon="-1.48231">
        <ele>54</ele>
        <time>2022-07-24T09:32:53Z</time>
      </trkpt>
      <trkpt lat="47.22825" lon="-1.48244">
        <ele>54</ele>
        <time>2022-07-24T09:32:55Z</time>
      </trkpt>
      <trkpt lat="47.22816" lon="-1.48256">
        <ele>55</ele>
        <time>2022-07-24T09:32:57Z</time>
      </trkpt>
      <trkpt lat="47.22807" lon="-1.4827">
        <ele>56</ele>
        <time>2022-07-24T09:32:59Z</time>
      </trkpt>
      <trkpt lat="47.22799" lon="-1.48284">
        <ele>56</ele>
        <time>2022-07-24T09:33:01Z</time>
      </trkpt>
      <trkpt lat="47.2279" lon="-1.48298">
        <ele>55</ele>
        <time>2022-07-24T09:33:03Z</time>
      </trkpt>
      <trkpt lat="47.22782" lon="-1.48312">
        <ele>55</ele>
        <time>2022-07-24T09:33:05Z</time>
      </trkpt>
      <trkpt lat="47.22772" lon="-1.48326">
        <ele>55</ele>
        <time>2022-07-24T09:33:07Z</time>
      </trkpt>
      <trkpt lat="47.22763" lon="-1.48339">
        <ele>55</ele>
        <time>2022-07-24T09:33:09Z</time>
      </trkpt>
      <trkpt lat="47.22754" lon="-1.48351">
        <ele>55</ele>
        <time>2022-07-24T09:33:11Z</time>
      </trkpt>
      <trkpt lat="47.22745" lon="-1.48363">
        <ele>55</ele>
        <time>2022-07-24T09:33:13Z</time>
      </trkpt>
      <trkpt lat="47.22736" lon="-1.48377">
        <ele>55</ele>
        <time>2022-07-24T09:33:15Z</time>
      </trkpt>
      <trkpt lat="47.22726" lon="-1.48389">
        <ele>55</ele>
        <time>2022-07-24T09:33:17Z</time>
      </trkpt>
      <trkpt lat="47.22717" lon="-1.484">
        <ele>55</ele>
        <time>2022-07-24T09:33:19Z</time>
      </trkpt>
      <trkpt lat="47.2271" lon="-1.48415">
        <ele>55</ele>
        <time>2022-07-24T09:33:21Z</time>
      </trkpt>
      <trkpt lat="47.22703" lon="-1.48431">
        <ele>55</ele>
        <time>2022-07-24T09:33:23Z</time>
      </trkpt>
      <trkpt lat="47.22697" lon="-1.48447">
        <ele>55</ele>
        <time>2022-07-24T09:33:25Z</time>
      </trkpt>
      <trkpt lat="47.22691" lon="-1.48463">
        <ele>55</ele>
        <time>2022-07-24T09:33:27Z</time>
      </trkpt>
      <trkpt lat="47.22685" lon="-1.48479">
        <ele>55</ele>
        <time>2022-07-24T09:33:29Z</time>
      </trkpt>
      <trkpt lat="47.22677" lon="-1.48494">
        <ele>55</ele>
        <time>2022-07-24T09:33:31Z</time>
      </trkpt>
      <trkpt lat="47.2267" lon="-1.48509">
        <ele>55</ele>
        <time>2022-07-24T09:33:33Z</time>
      </trkpt>
      <trkpt lat="47.22665" lon="-1.48526">
        <ele>55</ele>
        <time>2022-07-24T09:33:35Z</time>
      </trkpt>
      <trkpt lat="47.2266" lon="-1.48544">
        <ele>55</ele>
        <time>2022-07-24T09:33:37Z</time>
      </trkpt>
      <trkpt lat="47.22654" lon="-1.48561">
        <ele>55</ele>
        <time>2022-07-24T09:33:39Z</time>
      </trkpt>
      <trkpt lat="47.22644" lon="-1.48586">
        <ele>55</ele>
        <time>2022-07-24T09:33:42Z</time>
      </trkpt>
      <trkpt lat="47.22639" lon="-1.48602">
        <ele>55</ele>
        <time>2022-07-24T09:33:44Z</time>
      </trkpt>
      <trkpt lat="47.22634" lon="-1.48616">
        <ele>55</ele>
        <time>2022-07-24T09:33:46Z</time>
      </trkpt>
      <trkpt lat="47.22629" lon="-1.48631">
        <ele>56</ele>
        <time>2022-07-24T09:33:48Z</time>
      </trkpt>
      <trkpt lat="47.22622" lon="-1.48647">
        <ele>56</ele>
        <time>2022-07-24T09:33:50Z</time>
      </trkpt>
      <trkpt lat="47.22615" lon="-1.48664">
        <ele>56</ele>
        <time>2022-07-24T09:33:52Z</time>
      </trkpt>
      <trkpt lat="47.2261" lon="-1.48682">
        <ele>55</ele>
        <time>2022-07-24T09:33:54Z</time>
      </trkpt>
      <trkpt lat="47.22605" lon="-1.487">
        <ele>55</ele>
        <time>2022-07-24T09:33:56Z</time>
      </trkpt>
      <trkpt lat="47.226" lon="-1.48718">
        <ele>55</ele>
        <time>2022-07-24T09:33:58Z</time>
      </trkpt>
      <trkpt lat="47.22595" lon="-1.48735">
        <ele>55</ele>
        <time>2022-07-24T09:34:00Z</time>
      </trkpt>
      <trkpt lat="47.2259" lon="-1.48751">
        <ele>56</ele>
        <time>2022-07-24T09:34:02Z</time>
      </trkpt>
      <trkpt lat="47.22586" lon="-1.48769">
        <ele>56</ele>
        <time>2022-07-24T09:34:04Z</time>
      </trkpt>
      <trkpt lat="47.22581" lon="-1.48784">
        <ele>57</ele>
        <time>2022-07-24T09:34:06Z</time>
      </trkpt>
      <trkpt lat="47.22576" lon="-1.488">
        <ele>57</ele>
        <time>2022-07-24T09:34:08Z</time>
      </trkpt>
      <trkpt lat="47.2257" lon="-1.48816">
        <ele>57</ele>
        <time>2022-07-24T09:34:10Z</time>
      </trkpt>
      <trkpt lat="47.22561" lon="-1.48839">
        <ele>57</ele>
        <time>2022-07-24T09:34:13Z</time>
      </trkpt>
      <trkpt lat="47.22557" lon="-1.48855">
        <ele>58</ele>
        <time>2022-07-24T09:34:15Z</time>
      </trkpt>
      <trkpt lat="47.22552" lon="-1.4887">
        <ele>59</ele>
        <time>2022-07-24T09:34:17Z</time>
      </trkpt>
      <trkpt lat="47.22548" lon="-1.48888">
        <ele>60</ele>
        <time>2022-07-24T09:34:19Z</time>
      </trkpt>
      <trkpt lat="47.22542" lon="-1.48908">
        <ele>60</ele>
        <time>2022-07-24T09:34:21Z</time>
      </trkpt>
      <trkpt lat="47.22537" lon="-1.4893">
        <ele>60</ele>
        <time>2022-07-24T09:34:23Z</time>
      </trkpt>
      <trkpt lat="47.22531" lon="-1.4895">
        <ele>60</ele>
        <time>2022-07-24T09:34:25Z</time>
      </trkpt>
      <trkpt lat="47.22524" lon="-1.48968">
        <ele>60</ele>
        <time>2022-07-24T09:34:27Z</time>
      </trkpt>
      <trkpt lat="47.22516" lon="-1.48986">
        <ele>60</ele>
        <time>2022-07-24T09:34:29Z</time>
      </trkpt>
      <trkpt lat="47.22511" lon="-1.49004">
        <ele>60</ele>
        <time>2022-07-24T09:34:31Z</time>
      </trkpt>
      <trkpt lat="47.22505" lon="-1.49022">
        <ele>60</ele>
        <time>2022-07-24T09:34:33Z</time>
      </trkpt>
      <trkpt lat="47.22499" lon="-1.4904">
        <ele>59</ele>
        <time>2022-07-24T09:34:35Z</time>
      </trkpt>
      <trkpt lat="47.22494" lon="-1.49058">
        <ele>60</ele>
        <time>2022-07-24T09:34:37Z</time>
      </trkpt>
      <trkpt lat="47.22489" lon="-1.49075">
        <ele>60</ele>
        <time>2022-07-24T09:34:39Z</time>
      </trkpt>
      <trkpt lat="47.22484" lon="-1.49093">
        <ele>60</ele>
        <time>2022-07-24T09:34:41Z</time>
      </trkpt>
      <trkpt lat="47.22477" lon="-1.49112">
        <ele>60</ele>
        <time>2022-07-24T09:34:43Z</time>
      </trkpt>
      <trkpt lat="47.22472" lon="-1.49131">
        <ele>60</ele>
        <time>2022-07-24T09:34:45Z</time>
      </trkpt>
      <trkpt lat="47.22467" lon="-1.49149">
        <ele>60</ele>
        <time>2022-07-24T09:34:47Z</time>
      </trkpt>
      <trkpt lat="47.22462" lon="-1.49168">
        <ele>59</ele>
        <time>2022-07-24T09:34:49Z</time>
      </trkpt>
      <trkpt lat="47.22454" lon="-1.49186">
        <ele>58</ele>
        <time>2022-07-24T09:34:51Z</time>
      </trkpt>
      <trkpt lat="47.22448" lon="-1.49203">
        <ele>59</ele>
        <time>2022-07-24T09:34:53Z</time>
      </trkpt>
      <trkpt lat="47.22441" lon="-1.49221">
        <ele>59</ele>
        <time>2022-07-24T09:34:55Z</time>
      </trkpt>
      <trkpt lat="47.22435" lon="-1.49239">
        <ele>59</ele>
        <time>2022-07-24T09:34:57Z</time>
      </trkpt>
      <trkpt lat="47.22428" lon="-1.49256">
        <ele>58</ele>
        <time>2022-07-24T09:34:59Z</time>
      </trkpt>
      <trkpt lat="47.22421" lon="-1.49272">
        <ele>58</ele>
        <time>2022-07-24T09:35:01Z</time>
      </trkpt>
      <trkpt lat="47.22414" lon="-1.49289">
        <ele>58</ele>
        <time>2022-07-24T09:35:03Z</time>
      </trkpt>
      <trkpt lat="47.22408" lon="-1.49306">
        <ele>58</ele>
        <time>2022-07-24T09:35:05Z</time>
      </trkpt>
      <trkpt lat="47.22401" lon="-1.49323">
        <ele>57</ele>
        <time>2022-07-24T09:35:07Z</time>
      </trkpt>
      <trkpt lat="47.22394" lon="-1.49341">
        <ele>56</ele>
        <time>2022-07-24T09:35:09Z</time>
      </trkpt>
      <trkpt lat="47.22388" lon="-1.49357">
        <ele>56</ele>
        <time>2022-07-24T09:35:11Z</time>
      </trkpt>
      <trkpt lat="47.22381" lon="-1.49374">
        <ele>57</ele>
        <time>2022-07-24T09:35:13Z</time>
      </trkpt>
      <trkpt lat="47.22374" lon="-1.49389">
        <ele>57</ele>
        <time>2022-07-24T09:35:15Z</time>
      </trkpt>
      <trkpt lat="47.22368" lon="-1.49404">
        <ele>58</ele>
        <time>2022-07-24T09:35:17Z</time>
      </trkpt>
      <trkpt lat="47.22361" lon="-1.49419">
        <ele>58</ele>
        <time>2022-07-24T09:35:19Z</time>
      </trkpt>
      <trkpt lat="47.22355" lon="-1.49434">
        <ele>58</ele>
        <time>2022-07-24T09:35:21Z</time>
      </trkpt>
      <trkpt lat="47.22349" lon="-1.49451">
        <ele>58</ele>
        <time>2022-07-24T09:35:23Z</time>
      </trkpt>
      <trkpt lat="47.22343" lon="-1.49467">
        <ele>59</ele>
        <time>2022-07-24T09:35:25Z</time>
      </trkpt>
      <trkpt lat="47.22338" lon="-1.49485">
        <ele>59</ele>
        <time>2022-07-24T09:35:27Z</time>
      </trkpt>
      <trkpt lat="47.22333" lon="-1.49503">
        <ele>59</ele>
        <time>2022-07-24T09:35:29Z</time>
      </trkpt>
      <trkpt lat="47.22328" lon="-1.49521">
        <ele>58</ele>
        <time>2022-07-24T09:35:31Z</time>
      </trkpt>
      <trkpt lat="47.22323" lon="-1.49538">
        <ele>58</ele>
        <time>2022-07-24T09:35:33Z</time>
      </trkpt>
      <trkpt lat="47.22317" lon="-1.49556">
        <ele>58</ele>
        <time>2022-07-24T09:35:35Z</time>
      </trkpt>
      <trkpt lat="47.2231" lon="-1.49572">
        <ele>58</ele>
        <time>2022-07-24T09:35:37Z</time>
      </trkpt>
      <trkpt lat="47.22304" lon="-1.49589">
        <ele>58</ele>
        <time>2022-07-24T09:35:39Z</time>
      </trkpt>
      <trkpt lat="47.22298" lon="-1.49605">
        <ele>58</ele>
        <time>2022-07-24T09:35:41Z</time>
      </trkpt>
      <trkpt lat="47.22293" lon="-1.49623">
        <ele>58</ele>
        <time>2022-07-24T09:35:43Z</time>
      </trkpt>
      <trkpt lat="47.22289" lon="-1.49641">
        <ele>58</ele>
        <time>2022-07-24T09:35:45Z</time>
      </trkpt>
      <trkpt lat="47.22285" lon="-1.49657">
        <ele>58</ele>
        <time>2022-07-24T09:35:47Z</time>
      </trkpt>
      <trkpt lat="47.2228" lon="-1.49674">
        <ele>58</ele>
        <time>2022-07-24T09:35:49Z</time>
      </trkpt>
      <trkpt lat="47.22274" lon="-1.49691">
        <ele>58</ele>
        <time>2022-07-24T09:35:51Z</time>
      </trkpt>
      <trkpt lat="47.22268" lon="-1.49708">
        <ele>58</ele>
        <time>2022-07-24T09:35:53Z</time>
      </trkpt>
      <trkpt lat="47.22262" lon="-1.49724">
        <ele>57</ele>
        <time>2022-07-24T09:35:55Z</time>
      </trkpt>
      <trkpt lat="47.22258" lon="-1.49741">
        <ele>57</ele>
        <time>2022-07-24T09:35:57Z</time>
      </trkpt>
      <trkpt lat="47.22254" lon="-1.49758">
        <ele>57</ele>
        <time>2022-07-24T09:35:59Z</time>
      </trkpt>
      <trkpt lat="47.22251" lon="-1.49775">
        <ele>57</ele>
        <time>2022-07-24T09:36:01Z</time>
      </trkpt>
      <trkpt lat="47.22249" lon="-1.49793">
        <ele>57</ele>
        <time>2022-07-24T09:36:03Z</time>
      </trkpt>
      <trkpt lat="47.22246" lon="-1.4981">
        <ele>58</ele>
        <time>2022-07-24T09:36:05Z</time>
      </trkpt>
      <trkpt lat="47.22243" lon="-1.49826">
        <ele>58</ele>
        <time>2022-07-24T09:36:07Z</time>
      </trkpt>
      <trkpt lat="47.2224" lon="-1.49842">
        <ele>58</ele>
        <time>2022-07-24T09:36:09Z</time>
      </trkpt>
      <trkpt lat="47.22237" lon="-1.49859">
        <ele>58</ele>
        <time>2022-07-24T09:36:11Z</time>
      </trkpt>
      <trkpt lat="47.22234" lon="-1.49877">
        <ele>57</ele>
        <time>2022-07-24T09:36:13Z</time>
      </trkpt>
      <trkpt lat="47.2223" lon="-1.49894">
        <ele>57</ele>
        <time>2022-07-24T09:36:15Z</time>
      </trkpt>
      <trkpt lat="47.22224" lon="-1.49912">
        <ele>58</ele>
        <time>2022-07-24T09:36:17Z</time>
      </trkpt>
      <trkpt lat="47.22219" lon="-1.49929">
        <ele>58</ele>
        <time>2022-07-24T09:36:19Z</time>
      </trkpt>
      <trkpt lat="47.22213" lon="-1.49947">
        <ele>58</ele>
        <time>2022-07-24T09:36:21Z</time>
      </trkpt>
      <trkpt lat="47.22209" lon="-1.49964">
        <ele>59</ele>
        <time>2022-07-24T09:36:23Z</time>
      </trkpt>
      <trkpt lat="47.22205" lon="-1.4998">
        <ele>59</ele>
        <time>2022-07-24T09:36:25Z</time>
      </trkpt>
      <trkpt lat="47.222" lon="-1.49997">
        <ele>58</ele>
        <time>2022-07-24T09:36:27Z</time>
      </trkpt>
      <trkpt lat="47.22195" lon="-1.50015">
        <ele>57</ele>
        <time>2022-07-24T09:36:29Z</time>
      </trkpt>
      <trkpt lat="47.22191" lon="-1.50034">
        <ele>57</ele>
        <time>2022-07-24T09:36:31Z</time>
      </trkpt>
      <trkpt lat="47.22187" lon="-1.50052">
        <ele>57</ele>
        <time>2022-07-24T09:36:33Z</time>
      </trkpt>
      <trkpt lat="47.22183" lon="-1.50069">
        <ele>57</ele>
        <time>2022-07-24T09:36:35Z</time>
      </trkpt>
      <trkpt lat="47.22179" lon="-1.50086">
        <ele>57</ele>
        <time>2022-07-24T09:36:37Z</time>
      </trkpt>
      <trkpt lat="47.22175" lon="-1.50103">
        <ele>56</ele>
        <time>2022-07-24T09:36:39Z</time>
      </trkpt>
      <trkpt lat="47.22169" lon="-1.50121">
        <ele>56</ele>
        <time>2022-07-24T09:36:41Z</time>
      </trkpt>
      <trkpt lat="47.22163" lon="-1.50138">
        <ele>56</ele>
        <time>2022-07-24T09:36:43Z</time>
      </trkpt>
      <trkpt lat="47.22157" lon="-1.50154">
        <ele>56</ele>
        <time>2022-07-24T09:36:45Z</time>
      </trkpt>
      <trkpt lat="47.22153" lon="-1.50171">
        <ele>56</ele>
        <time>2022-07-24T09:36:47Z</time>
      </trkpt>
      <trkpt lat="47.22149" lon="-1.50188">
        <ele>55</ele>
        <time>2022-07-24T09:36:49Z</time>
      </trkpt>
      <trkpt lat="47.22146" lon="-1.50205">
        <ele>55</ele>
        <time>2022-07-24T09:36:51Z</time>
      </trkpt>
      <trkpt lat="47.22142" lon="-1.50222">
        <ele>54</ele>
        <time>2022-07-24T09:36:53Z</time>
      </trkpt>
      <trkpt lat="47.22137" lon="-1.50238">
        <ele>54</ele>
        <time>2022-07-24T09:36:55Z</time>
      </trkpt>
      <trkpt lat="47.22133" lon="-1.50252">
        <ele>54</ele>
        <time>2022-07-24T09:36:57Z</time>
      </trkpt>
      <trkpt lat="47.22129" lon="-1.50269">
        <ele>54</ele>
        <time>2022-07-24T09:36:59Z</time>
      </trkpt>
      <trkpt lat="47.22122" lon="-1.50284">
        <ele>55</ele>
        <time>2022-07-24T09:37:01Z</time>
      </trkpt>
      <trkpt lat="47.22114" lon="-1.50298">
        <ele>55</ele>
        <time>2022-07-24T09:37:03Z</time>
      </trkpt>
      <trkpt lat="47.22106" lon="-1.50311">
        <ele>56</ele>
        <time>2022-07-24T09:37:05Z</time>
      </trkpt>
      <trkpt lat="47.22099" lon="-1.50325">
        <ele>56</ele>
        <time>2022-07-24T09:37:07Z</time>
      </trkpt>
      <trkpt lat="47.22092" lon="-1.50341">
        <ele>55</ele>
        <time>2022-07-24T09:37:09Z</time>
      </trkpt>
      <trkpt lat="47.22088" lon="-1.50359">
        <ele>55</ele>
        <time>2022-07-24T09:37:11Z</time>
      </trkpt>
      <trkpt lat="47.22084" lon="-1.50377">
        <ele>54</ele>
        <time>2022-07-24T09:37:13Z</time>
      </trkpt>
      <trkpt lat="47.22079" lon="-1.50393">
        <ele>54</ele>
        <time>2022-07-24T09:37:15Z</time>
      </trkpt>
      <trkpt lat="47.22075" lon="-1.50409">
        <ele>54</ele>
        <time>2022-07-24T09:37:17Z</time>
      </trkpt>
      <trkpt lat="47.22072" lon="-1.50426">
        <ele>54</ele>
        <time>2022-07-24T09:37:19Z</time>
      </trkpt>
      <trkpt lat="47.22068" lon="-1.50445">
        <ele>54</ele>
        <time>2022-07-24T09:37:21Z</time>
      </trkpt>
      <trkpt lat="47.22065" lon="-1.50464">
        <ele>54</ele>
        <time>2022-07-24T09:37:23Z</time>
      </trkpt>
      <trkpt lat="47.22062" lon="-1.50483">
        <ele>54</ele>
        <time>2022-07-24T09:37:25Z</time>
      </trkpt>
      <trkpt lat="47.22061" lon="-1.505">
        <ele>55</ele>
        <time>2022-07-24T09:37:27Z</time>
      </trkpt>
      <trkpt lat="47.2206" lon="-1.50519">
        <ele>55</ele>
        <time>2022-07-24T09:37:29Z</time>
      </trkpt>
      <trkpt lat="47.22058" lon="-1.50536">
        <ele>55</ele>
        <time>2022-07-24T09:37:31Z</time>
      </trkpt>
      <trkpt lat="47.22058" lon="-1.50553">
        <ele>55</ele>
        <time>2022-07-24T09:37:33Z</time>
      </trkpt>
      <trkpt lat="47.22057" lon="-1.5057">
        <ele>55</ele>
        <time>2022-07-24T09:37:35Z</time>
      </trkpt>
      <trkpt lat="47.22055" lon="-1.50589">
        <ele>55</ele>
        <time>2022-07-24T09:37:37Z</time>
      </trkpt>
      <trkpt lat="47.22054" lon="-1.50607">
        <ele>54</ele>
        <time>2022-07-24T09:37:39Z</time>
      </trkpt>
      <trkpt lat="47.22054" lon="-1.50625">
        <ele>55</ele>
        <time>2022-07-24T09:37:41Z</time>
      </trkpt>
      <trkpt lat="47.22053" lon="-1.50644">
        <ele>55</ele>
        <time>2022-07-24T09:37:43Z</time>
      </trkpt>
      <trkpt lat="47.2205" lon="-1.50662">
        <ele>56</ele>
        <time>2022-07-24T09:37:45Z</time>
      </trkpt>
      <trkpt lat="47.2205" lon="-1.50677">
        <ele>56</ele>
        <time>2022-07-24T09:37:47Z</time>
      </trkpt>
      <trkpt lat="47.22049" lon="-1.50693">
        <ele>56</ele>
        <time>2022-07-24T09:37:49Z</time>
      </trkpt>
      <trkpt lat="47.22046" lon="-1.50711">
        <ele>56</ele>
        <time>2022-07-24T09:37:51Z</time>
      </trkpt>
      <trkpt lat="47.22044" lon="-1.50732">
        <ele>56</ele>
        <time>2022-07-24T09:37:53Z</time>
      </trkpt>
      <trkpt lat="47.22042" lon="-1.5075">
        <ele>57</ele>
        <time>2022-07-24T09:37:55Z</time>
      </trkpt>
      <trkpt lat="47.22039" lon="-1.50769">
        <ele>57</ele>
        <time>2022-07-24T09:37:57Z</time>
      </trkpt>
      <trkpt lat="47.22035" lon="-1.50788">
        <ele>58</ele>
        <time>2022-07-24T09:37:59Z</time>
      </trkpt>
      <trkpt lat="47.2203" lon="-1.50804">
        <ele>58</ele>
        <time>2022-07-24T09:38:01Z</time>
      </trkpt>
      <trkpt lat="47.22024" lon="-1.5082">
        <ele>59</ele>
        <time>2022-07-24T09:38:03Z</time>
      </trkpt>
      <trkpt lat="47.22019" lon="-1.50835">
        <ele>59</ele>
        <time>2022-07-24T09:38:05Z</time>
      </trkpt>
      <trkpt lat="47.22013" lon="-1.50852">
        <ele>60</ele>
        <time>2022-07-24T09:38:07Z</time>
      </trkpt>
      <trkpt lat="47.22005" lon="-1.5087">
        <ele>59</ele>
        <time>2022-07-24T09:38:09Z</time>
      </trkpt>
      <trkpt lat="47.21998" lon="-1.50888">
        <ele>58</ele>
        <time>2022-07-24T09:38:11Z</time>
      </trkpt>
      <trkpt lat="47.21993" lon="-1.50905">
        <ele>57</ele>
        <time>2022-07-24T09:38:13Z</time>
      </trkpt>
      <trkpt lat="47.21988" lon="-1.50922">
        <ele>57</ele>
        <time>2022-07-24T09:38:15Z</time>
      </trkpt>
      <trkpt lat="47.21982" lon="-1.50939">
        <ele>56</ele>
        <time>2022-07-24T09:38:17Z</time>
      </trkpt>
      <trkpt lat="47.21978" lon="-1.50955">
        <ele>56</ele>
        <time>2022-07-24T09:38:19Z</time>
      </trkpt>
      <trkpt lat="47.21974" lon="-1.50973">
        <ele>55</ele>
        <time>2022-07-24T09:38:21Z</time>
      </trkpt>
      <trkpt lat="47.21969" lon="-1.50989">
        <ele>55</ele>
        <time>2022-07-24T09:38:23Z</time>
      </trkpt>
      <trkpt lat="47.21964" lon="-1.51005">
        <ele>54</ele>
        <time>2022-07-24T09:38:25Z</time>
      </trkpt>
      <trkpt lat="47.21959" lon="-1.51021">
        <ele>54</ele>
        <time>2022-07-24T09:38:27Z</time>
      </trkpt>
      <trkpt lat="47.21955" lon="-1.51037">
        <ele>54</ele>
        <time>2022-07-24T09:38:29Z</time>
      </trkpt>
      <trkpt lat="47.2195" lon="-1.5105">
        <ele>54</ele>
        <time>2022-07-24T09:38:31Z</time>
      </trkpt>
      <trkpt lat="47.21941" lon="-1.51065">
        <ele>55</ele>
        <time>2022-07-24T09:38:34Z</time>
      </trkpt>
      <trkpt lat="47.21934" lon="-1.51079">
        <ele>55</ele>
        <time>2022-07-24T09:38:36Z</time>
      </trkpt>
      <trkpt lat="47.21928" lon="-1.51096">
        <ele>55</ele>
        <time>2022-07-24T09:38:38Z</time>
      </trkpt>
      <trkpt lat="47.21923" lon="-1.51112">
        <ele>54</ele>
        <time>2022-07-24T09:38:40Z</time>
      </trkpt>
      <trkpt lat="47.21917" lon="-1.51129">
        <ele>54</ele>
        <time>2022-07-24T09:38:42Z</time>
      </trkpt>
      <trkpt lat="47.21911" lon="-1.51145">
        <ele>55</ele>
        <time>2022-07-24T09:38:44Z</time>
      </trkpt>
      <trkpt lat="47.21906" lon="-1.51162">
        <ele>54</ele>
        <time>2022-07-24T09:38:46Z</time>
      </trkpt>
      <trkpt lat="47.21901" lon="-1.51178">
        <ele>54</ele>
        <time>2022-07-24T09:38:48Z</time>
      </trkpt>
      <trkpt lat="47.21895" lon="-1.51194">
        <ele>54</ele>
        <time>2022-07-24T09:38:50Z</time>
      </trkpt>
      <trkpt lat="47.2189" lon="-1.5121">
        <ele>54</ele>
        <time>2022-07-24T09:38:52Z</time>
      </trkpt>
      <trkpt lat="47.21885" lon="-1.51227">
        <ele>54</ele>
        <time>2022-07-24T09:38:54Z</time>
      </trkpt>
      <trkpt lat="47.2188" lon="-1.51242">
        <ele>54</ele>
        <time>2022-07-24T09:38:56Z</time>
      </trkpt>
      <trkpt lat="47.21874" lon="-1.51257">
        <ele>53</ele>
        <time>2022-07-24T09:38:58Z</time>
      </trkpt>
      <trkpt lat="47.21869" lon="-1.51273">
        <ele>54</ele>
        <time>2022-07-24T09:39:00Z</time>
      </trkpt>
      <trkpt lat="47.21864" lon="-1.51288">
        <ele>54</ele>
        <time>2022-07-24T09:39:02Z</time>
      </trkpt>
      <trkpt lat="47.2186" lon="-1.51303">
        <ele>54</ele>
        <time>2022-07-24T09:39:04Z</time>
      </trkpt>
      <trkpt lat="47.21855" lon="-1.51319">
        <ele>55</ele>
        <time>2022-07-24T09:39:06Z</time>
      </trkpt>
      <trkpt lat="47.21851" lon="-1.51335">
        <ele>55</ele>
        <time>2022-07-24T09:39:08Z</time>
      </trkpt>
      <trkpt lat="47.21846" lon="-1.51352">
        <ele>55</ele>
        <time>2022-07-24T09:39:10Z</time>
      </trkpt>
      <trkpt lat="47.21841" lon="-1.51367">
        <ele>55</ele>
        <time>2022-07-24T09:39:12Z</time>
      </trkpt>
      <trkpt lat="47.21837" lon="-1.51383">
        <ele>55</ele>
        <time>2022-07-24T09:39:14Z</time>
      </trkpt>
      <trkpt lat="47.21833" lon="-1.51399">
        <ele>55</ele>
        <time>2022-07-24T09:39:16Z</time>
      </trkpt>
      <trkpt lat="47.21829" lon="-1.51415">
        <ele>54</ele>
        <time>2022-07-24T09:39:18Z</time>
      </trkpt>
      <trkpt lat="47.21826" lon="-1.51431">
        <ele>54</ele>
        <time>2022-07-24T09:39:20Z</time>
      </trkpt>
      <trkpt lat="47.21822" lon="-1.51448">
        <ele>54</ele>
        <time>2022-07-24T09:39:22Z</time>
      </trkpt>
      <trkpt lat="47.21819" lon="-1.51465">
        <ele>54</ele>
        <time>2022-07-24T09:39:24Z</time>
      </trkpt>
      <trkpt lat="47.21816" lon="-1.51481">
        <ele>53</ele>
        <time>2022-07-24T09:39:26Z</time>
      </trkpt>
      <trkpt lat="47.21812" lon="-1.51496">
        <ele>53</ele>
        <time>2022-07-24T09:39:28Z</time>
      </trkpt>
      <trkpt lat="47.21806" lon="-1.5151">
        <ele>53</ele>
        <time>2022-07-24T09:39:30Z</time>
      </trkpt>
      <trkpt lat="47.21799" lon="-1.51524">
        <ele>54</ele>
        <time>2022-07-24T09:39:32Z</time>
      </trkpt>
      <trkpt lat="47.21793" lon="-1.51539">
        <ele>54</ele>
        <time>2022-07-24T09:39:34Z</time>
      </trkpt>
      <trkpt lat="47.21787" lon="-1.51555">
        <ele>54</ele>
        <time>2022-07-24T09:39:36Z</time>
      </trkpt>
      <trkpt lat="47.2178" lon="-1.51569">
        <ele>54</ele>
        <time>2022-07-24T09:39:38Z</time>
      </trkpt>
      <trkpt lat="47.21773" lon="-1.51583">
        <ele>54</ele>
        <time>2022-07-24T09:39:40Z</time>
      </trkpt>
      <trkpt lat="47.21765" lon="-1.51595">
        <ele>54</ele>
        <time>2022-07-24T09:39:42Z</time>
      </trkpt>
      <trkpt lat="47.21757" lon="-1.51606">
        <ele>54</ele>
        <time>2022-07-24T09:39:44Z</time>
      </trkpt>
      <trkpt lat="47.21749" lon="-1.51619">
        <ele>54</ele>
        <time>2022-07-24T09:39:46Z</time>
      </trkpt>
      <trkpt lat="47.21742" lon="-1.51633">
        <ele>54</ele>
        <time>2022-07-24T09:39:48Z</time>
      </trkpt>
      <trkpt lat="47.21736" lon="-1.51648">
        <ele>54</ele>
        <time>2022-07-24T09:39:50Z</time>
      </trkpt>
      <trkpt lat="47.2173" lon="-1.51662">
        <ele>54</ele>
        <time>2022-07-24T09:39:52Z</time>
      </trkpt>
      <trkpt lat="47.21724" lon="-1.51677">
        <ele>54</ele>
        <time>2022-07-24T09:39:54Z</time>
      </trkpt>
      <trkpt lat="47.21717" lon="-1.51691">
        <ele>54</ele>
        <time>2022-07-24T09:39:56Z</time>
      </trkpt>
      <trkpt lat="47.21711" lon="-1.51703">
        <ele>55</ele>
        <time>2022-07-24T09:39:58Z</time>
      </trkpt>
      <trkpt lat="47.21706" lon="-1.51716">
        <ele>56</ele>
        <time>2022-07-24T09:40:00Z</time>
      </trkpt>
      <trkpt lat="47.217" lon="-1.51732">
        <ele>56</ele>
        <time>2022-07-24T09:40:02Z</time>
      </trkpt>
      <trkpt lat="47.21692" lon="-1.51748">
        <ele>55</ele>
        <time>2022-07-24T09:40:04Z</time>
      </trkpt>
      <trkpt lat="47.21686" lon="-1.51763">
        <ele>55</ele>
        <time>2022-07-24T09:40:06Z</time>
      </trkpt>
      <trkpt lat="47.21679" lon="-1.51778">
        <ele>54</ele>
        <time>2022-07-24T09:40:08Z</time>
      </trkpt>
      <trkpt lat="47.21672" lon="-1.51792">
        <ele>54</ele>
        <time>2022-07-24T09:40:10Z</time>
      </trkpt>
      <trkpt lat="47.21666" lon="-1.51807">
        <ele>54</ele>
        <time>2022-07-24T09:40:12Z</time>
      </trkpt>
      <trkpt lat="47.21659" lon="-1.51821">
        <ele>55</ele>
        <time>2022-07-24T09:40:14Z</time>
      </trkpt>
      <trkpt lat="47.21653" lon="-1.51837">
        <ele>55</ele>
        <time>2022-07-24T09:40:16Z</time>
      </trkpt>
      <trkpt lat="47.21649" lon="-1.51852">
        <ele>55</ele>
        <time>2022-07-24T09:40:18Z</time>
      </trkpt>
      <trkpt lat="47.21645" lon="-1.51869">
        <ele>55</ele>
        <time>2022-07-24T09:40:20Z</time>
      </trkpt>
      <trkpt lat="47.21642" lon="-1.51885">
        <ele>56</ele>
        <time>2022-07-24T09:40:22Z</time>
      </trkpt>
      <trkpt lat="47.21634" lon="-1.51898">
        <ele>56</ele>
        <time>2022-07-24T09:40:24Z</time>
      </trkpt>
      <trkpt lat="47.21628" lon="-1.51913">
        <ele>56</ele>
        <time>2022-07-24T09:40:26Z</time>
      </trkpt>
      <trkpt lat="47.21624" lon="-1.51929">
        <ele>56</ele>
        <time>2022-07-24T09:40:28Z</time>
      </trkpt>
      <trkpt lat="47.2162" lon="-1.51945">
        <ele>56</ele>
        <time>2022-07-24T09:40:30Z</time>
      </trkpt>
      <trkpt lat="47.21619" lon="-1.51963">
        <ele>55</ele>
        <time>2022-07-24T09:40:32Z</time>
      </trkpt>
      <trkpt lat="47.21613" lon="-1.51979">
        <ele>56</ele>
        <time>2022-07-24T09:40:34Z</time>
      </trkpt>
      <trkpt lat="47.21606" lon="-1.51991">
        <ele>56</ele>
        <time>2022-07-24T09:40:36Z</time>
      </trkpt>
      <trkpt lat="47.21602" lon="-1.52004">
        <ele>55</ele>
        <time>2022-07-24T09:40:38Z</time>
      </trkpt>
      <trkpt lat="47.21596" lon="-1.5202">
        <ele>54</ele>
        <time>2022-07-24T09:40:40Z</time>
      </trkpt>
      <trkpt lat="47.2159" lon="-1.52036">
        <ele>54</ele>
        <time>2022-07-24T09:40:42Z</time>
      </trkpt>
      <trkpt lat="47.21584" lon="-1.52052">
        <ele>55</ele>
        <time>2022-07-24T09:40:44Z</time>
      </trkpt>
      <trkpt lat="47.21579" lon="-1.52068">
        <ele>55</ele>
        <time>2022-07-24T09:40:46Z</time>
      </trkpt>
      <trkpt lat="47.21574" lon="-1.52084">
        <ele>55</ele>
        <time>2022-07-24T09:40:48Z</time>
      </trkpt>
      <trkpt lat="47.21569" lon="-1.521">
        <ele>55</ele>
        <time>2022-07-24T09:40:50Z</time>
      </trkpt>
      <trkpt lat="47.21564" lon="-1.52116">
        <ele>55</ele>
        <time>2022-07-24T09:40:52Z</time>
      </trkpt>
      <trkpt lat="47.21559" lon="-1.52132">
        <ele>55</ele>
        <time>2022-07-24T09:40:54Z</time>
      </trkpt>
      <trkpt lat="47.21553" lon="-1.52148">
        <ele>55</ele>
        <time>2022-07-24T09:40:56Z</time>
      </trkpt>
      <trkpt lat="47.21548" lon="-1.52164">
        <ele>55</ele>
        <time>2022-07-24T09:40:58Z</time>
      </trkpt>
      <trkpt lat="47.21543" lon="-1.5218">
        <ele>55</ele>
        <time>2022-07-24T09:41:00Z</time>
      </trkpt>
      <trkpt lat="47.21538" lon="-1.52197">
        <ele>55</ele>
        <time>2022-07-24T09:41:02Z</time>
      </trkpt>
      <trkpt lat="47.21533" lon="-1.52213">
        <ele>55</ele>
        <time>2022-07-24T09:41:04Z</time>
      </trkpt>
      <trkpt lat="47.21528" lon="-1.52229">
        <ele>55</ele>
        <time>2022-07-24T09:41:06Z</time>
      </trkpt>
      <trkpt lat="47.21522" lon="-1.52246">
        <ele>55</ele>
        <time>2022-07-24T09:41:08Z</time>
      </trkpt>
      <trkpt lat="47.21517" lon="-1.52262">
        <ele>54</ele>
        <time>2022-07-24T09:41:10Z</time>
      </trkpt>
      <trkpt lat="47.21513" lon="-1.52279">
        <ele>55</ele>
        <time>2022-07-24T09:41:12Z</time>
      </trkpt>
      <trkpt lat="47.21508" lon="-1.52295">
        <ele>54</ele>
        <time>2022-07-24T09:41:14Z</time>
      </trkpt>
      <trkpt lat="47.21503" lon="-1.52311">
        <ele>54</ele>
        <time>2022-07-24T09:41:16Z</time>
      </trkpt>
      <trkpt lat="47.21498" lon="-1.52327">
        <ele>54</ele>
        <time>2022-07-24T09:41:18Z</time>
      </trkpt>
      <trkpt lat="47.21492" lon="-1.52342">
        <ele>55</ele>
        <time>2022-07-24T09:41:20Z</time>
      </trkpt>
      <trkpt lat="47.21487" lon="-1.52358">
        <ele>55</ele>
        <time>2022-07-24T09:41:22Z</time>
      </trkpt>
      <trkpt lat="47.21482" lon="-1.52374">
        <ele>56</ele>
        <time>2022-07-24T09:41:24Z</time>
      </trkpt>
      <trkpt lat="47.21477" lon="-1.52389">
        <ele>56</ele>
        <time>2022-07-24T09:41:26Z</time>
      </trkpt>
      <trkpt lat="47.21472" lon="-1.52405">
        <ele>56</ele>
        <time>2022-07-24T09:41:28Z</time>
      </trkpt>
      <trkpt lat="47.21466" lon="-1.52422">
        <ele>56</ele>
        <time>2022-07-24T09:41:30Z</time>
      </trkpt>
      <trkpt lat="47.2146" lon="-1.52438">
        <ele>56</ele>
        <time>2022-07-24T09:41:32Z</time>
      </trkpt>
      <trkpt lat="47.21455" lon="-1.52453">
        <ele>56</ele>
        <time>2022-07-24T09:41:34Z</time>
      </trkpt>
      <trkpt lat="47.2145" lon="-1.52468">
        <ele>56</ele>
        <time>2022-07-24T09:41:36Z</time>
      </trkpt>
      <trkpt lat="47.21444" lon="-1.52485">
        <ele>56</ele>
        <time>2022-07-24T09:41:38Z</time>
      </trkpt>
      <trkpt lat="47.21439" lon="-1.525">
        <ele>56</ele>
        <time>2022-07-24T09:41:40Z</time>
      </trkpt>
      <trkpt lat="47.21435" lon="-1.52517">
        <ele>56</ele>
        <time>2022-07-24T09:41:42Z</time>
      </trkpt>
      <trkpt lat="47.2143" lon="-1.52532">
        <ele>56</ele>
        <time>2022-07-24T09:41:44Z</time>
      </trkpt>
      <trkpt lat="47.21425" lon="-1.52548">
        <ele>56</ele>
        <time>2022-07-24T09:41:46Z</time>
      </trkpt>
      <trkpt lat="47.2142" lon="-1.52563">
        <ele>56</ele>
        <time>2022-07-24T09:41:48Z</time>
      </trkpt>
      <trkpt lat="47.21415" lon="-1.52579">
        <ele>56</ele>
        <time>2022-07-24T09:41:50Z</time>
      </trkpt>
      <trkpt lat="47.2141" lon="-1.52595">
        <ele>56</ele>
        <time>2022-07-24T09:41:52Z</time>
      </trkpt>
      <trkpt lat="47.21405" lon="-1.52611">
        <ele>56</ele>
        <time>2022-07-24T09:41:54Z</time>
      </trkpt>
      <trkpt lat="47.214" lon="-1.52625">
        <ele>56</ele>
        <time>2022-07-24T09:41:56Z</time>
      </trkpt>
      <trkpt lat="47.21396" lon="-1.52639">
        <ele>56</ele>
        <time>2022-07-24T09:41:58Z</time>
      </trkpt>
      <trkpt lat="47.21393" lon="-1.52652">
        <ele>57</ele>
        <time>2022-07-24T09:42:01Z</time>
      </trkpt>
      <trkpt lat="47.2139" lon="-1.52666">
        <ele>58</ele>
        <time>2022-07-24T09:42:04Z</time>
      </trkpt>
      <trkpt lat="47.21386" lon="-1.52684">
        <ele>58</ele>
        <time>2022-07-24T09:42:06Z</time>
      </trkpt>
      <trkpt lat="47.21381" lon="-1.52706">
        <ele>57</ele>
        <time>2022-07-24T09:42:08Z</time>
      </trkpt>
      <trkpt lat="47.21377" lon="-1.52724">
        <ele>57</ele>
        <time>2022-07-24T09:42:10Z</time>
      </trkpt>
      <trkpt lat="47.21374" lon="-1.52744">
        <ele>57</ele>
        <time>2022-07-24T09:42:12Z</time>
      </trkpt>
      <trkpt lat="47.2137" lon="-1.52765">
        <ele>56</ele>
        <time>2022-07-24T09:42:14Z</time>
      </trkpt>
      <trkpt lat="47.21366" lon="-1.52784">
        <ele>56</ele>
        <time>2022-07-24T09:42:16Z</time>
      </trkpt>
      <trkpt lat="47.21364" lon="-1.52802">
        <ele>56</ele>
        <time>2022-07-24T09:42:18Z</time>
      </trkpt>
      <trkpt lat="47.21361" lon="-1.52818">
        <ele>56</ele>
        <time>2022-07-24T09:42:20Z</time>
      </trkpt>
      <trkpt lat="47.21356" lon="-1.52834">
        <ele>56</ele>
        <time>2022-07-24T09:42:22Z</time>
      </trkpt>
      <trkpt lat="47.21352" lon="-1.52852">
        <ele>56</ele>
        <time>2022-07-24T09:42:24Z</time>
      </trkpt>
      <trkpt lat="47.21349" lon="-1.52871">
        <ele>56</ele>
        <time>2022-07-24T09:42:26Z</time>
      </trkpt>
      <trkpt lat="47.21345" lon="-1.5289">
        <ele>56</ele>
        <time>2022-07-24T09:42:28Z</time>
      </trkpt>
      <trkpt lat="47.21342" lon="-1.52909">
        <ele>56</ele>
        <time>2022-07-24T09:42:30Z</time>
      </trkpt>
      <trkpt lat="47.21339" lon="-1.52928">
        <ele>55</ele>
        <time>2022-07-24T09:42:32Z</time>
      </trkpt>
      <trkpt lat="47.21337" lon="-1.52947">
        <ele>55</ele>
        <time>2022-07-24T09:42:34Z</time>
      </trkpt>
      <trkpt lat="47.21337" lon="-1.52966">
        <ele>55</ele>
        <time>2022-07-24T09:42:36Z</time>
      </trkpt>
      <trkpt lat="47.21334" lon="-1.52984">
        <ele>55</ele>
        <time>2022-07-24T09:42:38Z</time>
      </trkpt>
      <trkpt lat="47.21332" lon="-1.53002">
        <ele>55</ele>
        <time>2022-07-24T09:42:40Z</time>
      </trkpt>
      <trkpt lat="47.21331" lon="-1.53021">
        <ele>55</ele>
        <time>2022-07-24T09:42:42Z</time>
      </trkpt>
      <trkpt lat="47.21329" lon="-1.53039">
        <ele>55</ele>
        <time>2022-07-24T09:42:44Z</time>
      </trkpt>
      <trkpt lat="47.21327" lon="-1.53057">
        <ele>55</ele>
        <time>2022-07-24T09:42:46Z</time>
      </trkpt>
      <trkpt lat="47.21327" lon="-1.53075">
        <ele>55</ele>
        <time>2022-07-24T09:42:48Z</time>
      </trkpt>
      <trkpt lat="47.21326" lon="-1.53091">
        <ele>55</ele>
        <time>2022-07-24T09:42:50Z</time>
      </trkpt>
      <trkpt lat="47.21324" lon="-1.53108">
        <ele>55</ele>
        <time>2022-07-24T09:42:52Z</time>
      </trkpt>
      <trkpt lat="47.21321" lon="-1.53125">
        <ele>55</ele>
        <time>2022-07-24T09:42:54Z</time>
      </trkpt>
      <trkpt lat="47.21318" lon="-1.53143">
        <ele>55</ele>
        <time>2022-07-24T09:42:56Z</time>
      </trkpt>
      <trkpt lat="47.21315" lon="-1.53162">
        <ele>55</ele>
        <time>2022-07-24T09:42:58Z</time>
      </trkpt>
      <trkpt lat="47.21313" lon="-1.53179">
        <ele>55</ele>
        <time>2022-07-24T09:43:00Z</time>
      </trkpt>
      <trkpt lat="47.21311" lon="-1.53197">
        <ele>55</ele>
        <time>2022-07-24T09:43:02Z</time>
      </trkpt>
      <trkpt lat="47.2131" lon="-1.53215">
        <ele>55</ele>
        <time>2022-07-24T09:43:04Z</time>
      </trkpt>
      <trkpt lat="47.2131" lon="-1.53234">
        <ele>55</ele>
        <time>2022-07-24T09:43:06Z</time>
      </trkpt>
      <trkpt lat="47.21309" lon="-1.53253">
        <ele>55</ele>
        <time>2022-07-24T09:43:08Z</time>
      </trkpt>
      <trkpt lat="47.21309" lon="-1.53271">
        <ele>54</ele>
        <time>2022-07-24T09:43:10Z</time>
      </trkpt>
      <trkpt lat="47.21309" lon="-1.53289">
        <ele>55</ele>
        <time>2022-07-24T09:43:12Z</time>
      </trkpt>
      <trkpt lat="47.21308" lon="-1.53307">
        <ele>55</ele>
        <time>2022-07-24T09:43:14Z</time>
      </trkpt>
      <trkpt lat="47.21306" lon="-1.53325">
        <ele>55</ele>
        <time>2022-07-24T09:43:16Z</time>
      </trkpt>
      <trkpt lat="47.21303" lon="-1.53342">
        <ele>55</ele>
        <time>2022-07-24T09:43:18Z</time>
      </trkpt>
      <trkpt lat="47.213" lon="-1.53361">
        <ele>54</ele>
        <time>2022-07-24T09:43:20Z</time>
      </trkpt>
      <trkpt lat="47.21297" lon="-1.53378">
        <ele>54</ele>
        <time>2022-07-24T09:43:22Z</time>
      </trkpt>
      <trkpt lat="47.21295" lon="-1.53396">
        <ele>54</ele>
        <time>2022-07-24T09:43:24Z</time>
      </trkpt>
      <trkpt lat="47.21293" lon="-1.53414">
        <ele>54</ele>
        <time>2022-07-24T09:43:26Z</time>
      </trkpt>
      <trkpt lat="47.21292" lon="-1.53431">
        <ele>54</ele>
        <time>2022-07-24T09:43:28Z</time>
      </trkpt>
      <trkpt lat="47.2129" lon="-1.53448">
        <ele>54</ele>
        <time>2022-07-24T09:43:30Z</time>
      </trkpt>
      <trkpt lat="47.21294" lon="-1.53463">
        <ele>54</ele>
        <time>2022-07-24T09:43:32Z</time>
      </trkpt>
      <trkpt lat="47.21299" lon="-1.53478">
        <ele>54</ele>
        <time>2022-07-24T09:43:34Z</time>
      </trkpt>
      <trkpt lat="47.21301" lon="-1.53495">
        <ele>54</ele>
        <time>2022-07-24T09:43:36Z</time>
      </trkpt>
      <trkpt lat="47.21302" lon="-1.53512">
        <ele>55</ele>
        <time>2022-07-24T09:43:38Z</time>
      </trkpt>
      <trkpt lat="47.21302" lon="-1.5353">
        <ele>55</ele>
        <time>2022-07-24T09:43:40Z</time>
      </trkpt>
      <trkpt lat="47.21302" lon="-1.53548">
        <ele>56</ele>
        <time>2022-07-24T09:43:42Z</time>
      </trkpt>
      <trkpt lat="47.21302" lon="-1.53566">
        <ele>57</ele>
        <time>2022-07-24T09:43:44Z</time>
      </trkpt>
      <trkpt lat="47.21302" lon="-1.53583">
        <ele>57</ele>
        <time>2022-07-24T09:43:46Z</time>
      </trkpt>
      <trkpt lat="47.21303" lon="-1.536">
        <ele>58</ele>
        <time>2022-07-24T09:43:48Z</time>
      </trkpt>
      <trkpt lat="47.21302" lon="-1.53615">
        <ele>58</ele>
        <time>2022-07-24T09:43:50Z</time>
      </trkpt>
      <trkpt lat="47.21298" lon="-1.53628">
        <ele>58</ele>
        <time>2022-07-24T09:43:52Z</time>
      </trkpt>
      <trkpt lat="47.21293" lon="-1.5364">
        <ele>57</ele>
        <time>2022-07-24T09:43:56Z</time>
      </trkpt>
      <trkpt lat="47.21289" lon="-1.53656">
        <ele>57</ele>
        <time>2022-07-24T09:44:05Z</time>
      </trkpt>
      <trkpt lat="47.2128" lon="-1.53654">
        <ele>57</ele>
        <time>2022-07-24T09:44:07Z</time>
      </trkpt>
      <trkpt lat="47.21269" lon="-1.53651">
        <ele>57</ele>
        <time>2022-07-24T09:44:09Z</time>
      </trkpt>
      <trkpt lat="47.21259" lon="-1.53647">
        <ele>58</ele>
        <time>2022-07-24T09:44:11Z</time>
      </trkpt>
      <trkpt lat="47.21249" lon="-1.53641">
        <ele>58</ele>
        <time>2022-07-24T09:44:13Z</time>
      </trkpt>
      <trkpt lat="47.21237" lon="-1.53636">
        <ele>57</ele>
        <time>2022-07-24T09:44:15Z</time>
      </trkpt>
      <trkpt lat="47.21226" lon="-1.5363">
        <ele>58</ele>
        <time>2022-07-24T09:44:17Z</time>
      </trkpt>
      <trkpt lat="47.21215" lon="-1.53625">
        <ele>59</ele>
        <time>2022-07-24T09:44:19Z</time>
      </trkpt>
      <trkpt lat="47.21205" lon="-1.5362">
        <ele>59</ele>
        <time>2022-07-24T09:44:21Z</time>
      </trkpt>
      <trkpt lat="47.21195" lon="-1.53616">
        <ele>59</ele>
        <time>2022-07-24T09:44:23Z</time>
      </trkpt>
      <trkpt lat="47.21185" lon="-1.53611">
        <ele>58</ele>
        <time>2022-07-24T09:44:25Z</time>
      </trkpt>
      <trkpt lat="47.21176" lon="-1.53605">
        <ele>58</ele>
        <time>2022-07-24T09:44:27Z</time>
      </trkpt>
      <trkpt lat="47.21166" lon="-1.536">
        <ele>58</ele>
        <time>2022-07-24T09:44:29Z</time>
      </trkpt>
      <trkpt lat="47.21156" lon="-1.53595">
        <ele>58</ele>
        <time>2022-07-24T09:44:31Z</time>
      </trkpt>
      <trkpt lat="47.21146" lon="-1.5359">
        <ele>58</ele>
        <time>2022-07-24T09:44:33Z</time>
      </trkpt>
      <trkpt lat="47.21135" lon="-1.53585">
        <ele>58</ele>
        <time>2022-07-24T09:44:35Z</time>
      </trkpt>
      <trkpt lat="47.21125" lon="-1.5358">
        <ele>58</ele>
        <time>2022-07-24T09:44:37Z</time>
      </trkpt>
      <trkpt lat="47.21114" lon="-1.53575">
        <ele>58</ele>
        <time>2022-07-24T09:44:39Z</time>
      </trkpt>
      <trkpt lat="47.21103" lon="-1.5357">
        <ele>57</ele>
        <time>2022-07-24T09:44:41Z</time>
      </trkpt>
      <trkpt lat="47.21092" lon="-1.53565">
        <ele>57</ele>
        <time>2022-07-24T09:44:43Z</time>
      </trkpt>
      <trkpt lat="47.2108" lon="-1.53559">
        <ele>56</ele>
        <time>2022-07-24T09:44:45Z</time>
      </trkpt>
      <trkpt lat="47.21069" lon="-1.5356">
        <ele>56</ele>
        <time>2022-07-24T09:44:47Z</time>
      </trkpt>
      <trkpt lat="47.21058" lon="-1.53572">
        <ele>56</ele>
        <time>2022-07-24T09:44:49Z</time>
      </trkpt>
      <trkpt lat="47.21054" lon="-1.53589">
        <ele>55</ele>
        <time>2022-07-24T09:44:51Z</time>
      </trkpt>
      <trkpt lat="47.21054" lon="-1.53607">
        <ele>55</ele>
        <time>2022-07-24T09:44:53Z</time>
      </trkpt>
      <trkpt lat="47.21054" lon="-1.53625">
        <ele>55</ele>
        <time>2022-07-24T09:44:55Z</time>
      </trkpt>
      <trkpt lat="47.21053" lon="-1.5364">
        <ele>55</ele>
        <time>2022-07-24T09:44:57Z</time>
      </trkpt>
      <trkpt lat="47.21051" lon="-1.53655">
        <ele>56</ele>
        <time>2022-07-24T09:44:59Z</time>
      </trkpt>
      <trkpt lat="47.2105" lon="-1.53668">
        <ele>55</ele>
        <time>2022-07-24T09:45:01Z</time>
      </trkpt>
      <trkpt lat="47.21047" lon="-1.53686">
        <ele>56</ele>
        <time>2022-07-24T09:45:04Z</time>
      </trkpt>
      <trkpt lat="47.21042" lon="-1.53698">
        <ele>58</ele>
        <time>2022-07-24T09:45:58Z</time>
      </trkpt>
      <trkpt lat="47.2104" lon="-1.53716">
        <ele>57</ele>
        <time>2022-07-24T09:46:02Z</time>
      </trkpt>
      <trkpt lat="47.21038" lon="-1.53731">
        <ele>57</ele>
        <time>2022-07-24T09:46:04Z</time>
      </trkpt>
      <trkpt lat="47.21036" lon="-1.53744">
        <ele>57</ele>
        <time>2022-07-24T09:46:06Z</time>
      </trkpt>
      <trkpt lat="47.21034" lon="-1.5376">
        <ele>56</ele>
        <time>2022-07-24T09:46:08Z</time>
      </trkpt>
      <trkpt lat="47.21031" lon="-1.53775">
        <ele>56</ele>
        <time>2022-07-24T09:46:10Z</time>
      </trkpt>
      <trkpt lat="47.21026" lon="-1.53786">
        <ele>56</ele>
        <time>2022-07-24T09:46:12Z</time>
      </trkpt>
      <trkpt lat="47.21025" lon="-1.53805">
        <ele>56</ele>
        <time>2022-07-24T09:46:15Z</time>
      </trkpt>
      <trkpt lat="47.21024" lon="-1.53822">
        <ele>55</ele>
        <time>2022-07-24T09:46:17Z</time>
      </trkpt>
      <trkpt lat="47.21019" lon="-1.53838">
        <ele>55</ele>
        <time>2022-07-24T09:46:19Z</time>
      </trkpt>
      <trkpt lat="47.21015" lon="-1.53853">
        <ele>55</ele>
        <time>2022-07-24T09:46:21Z</time>
      </trkpt>
      <trkpt lat="47.21009" lon="-1.53867">
        <ele>54</ele>
        <time>2022-07-24T09:46:23Z</time>
      </trkpt>
      <trkpt lat="47.21003" lon="-1.5388">
        <ele>54</ele>
        <time>2022-07-24T09:46:25Z</time>
      </trkpt>
      <trkpt lat="47.20998" lon="-1.53895">
        <ele>54</ele>
        <time>2022-07-24T09:46:27Z</time>
      </trkpt>
      <trkpt lat="47.20996" lon="-1.53912">
        <ele>55</ele>
        <time>2022-07-24T09:46:29Z</time>
      </trkpt>
      <trkpt lat="47.20993" lon="-1.53929">
        <ele>54</ele>
        <time>2022-07-24T09:46:31Z</time>
      </trkpt>
      <trkpt lat="47.20989" lon="-1.53944">
        <ele>55</ele>
        <time>2022-07-24T09:46:33Z</time>
      </trkpt>
      <trkpt lat="47.20984" lon="-1.53961">
        <ele>55</ele>
        <time>2022-07-24T09:46:35Z</time>
      </trkpt>
      <trkpt lat="47.2098" lon="-1.53977">
        <ele>55</ele>
        <time>2022-07-24T09:46:37Z</time>
      </trkpt>
      <trkpt lat="47.20976" lon="-1.53993">
        <ele>55</ele>
        <time>2022-07-24T09:46:39Z</time>
      </trkpt>
      <trkpt lat="47.20972" lon="-1.54009">
        <ele>55</ele>
        <time>2022-07-24T09:46:41Z</time>
      </trkpt>
      <trkpt lat="47.20967" lon="-1.54026">
        <ele>55</ele>
        <time>2022-07-24T09:46:43Z</time>
      </trkpt>
      <trkpt lat="47.20962" lon="-1.54043">
        <ele>54</ele>
        <time>2022-07-24T09:46:45Z</time>
      </trkpt>
      <trkpt lat="47.20957" lon="-1.54059">
        <ele>54</ele>
        <time>2022-07-24T09:46:47Z</time>
      </trkpt>
      <trkpt lat="47.20952" lon="-1.54075">
        <ele>54</ele>
        <time>2022-07-24T09:46:49Z</time>
      </trkpt>
      <trkpt lat="47.20947" lon="-1.54092">
        <ele>54</ele>
        <time>2022-07-24T09:46:51Z</time>
      </trkpt>
      <trkpt lat="47.20941" lon="-1.54108">
        <ele>55</ele>
        <time>2022-07-24T09:46:53Z</time>
      </trkpt>
      <trkpt lat="47.20935" lon="-1.54125">
        <ele>55</ele>
        <time>2022-07-24T09:46:55Z</time>
      </trkpt>
      <trkpt lat="47.2093" lon="-1.54141">
        <ele>56</ele>
        <time>2022-07-24T09:46:57Z</time>
      </trkpt>
      <trkpt lat="47.20924" lon="-1.54155">
        <ele>56</ele>
        <time>2022-07-24T09:46:59Z</time>
      </trkpt>
      <trkpt lat="47.20918" lon="-1.54175">
        <ele>56</ele>
        <time>2022-07-24T09:47:01Z</time>
      </trkpt>
      <trkpt lat="47.20913" lon="-1.54191">
        <ele>57</ele>
        <time>2022-07-24T09:47:03Z</time>
      </trkpt>
      <trkpt lat="47.20908" lon="-1.54208">
        <ele>57</ele>
        <time>2022-07-24T09:47:05Z</time>
      </trkpt>
      <trkpt lat="47.20903" lon="-1.54224">
        <ele>56</ele>
        <time>2022-07-24T09:47:07Z</time>
      </trkpt>
      <trkpt lat="47.20898" lon="-1.5424">
        <ele>56</ele>
        <time>2022-07-24T09:47:09Z</time>
      </trkpt>
      <trkpt lat="47.20893" lon="-1.54256">
        <ele>57</ele>
        <time>2022-07-24T09:47:11Z</time>
      </trkpt>
      <trkpt lat="47.20888" lon="-1.54271">
        <ele>56</ele>
        <time>2022-07-24T09:47:13Z</time>
      </trkpt>
      <trkpt lat="47.20883" lon="-1.54286">
        <ele>56</ele>
        <time>2022-07-24T09:47:15Z</time>
      </trkpt>
      <trkpt lat="47.20877" lon="-1.543">
        <ele>56</ele>
        <time>2022-07-24T09:47:17Z</time>
      </trkpt>
      <trkpt lat="47.20873" lon="-1.54316">
        <ele>55</ele>
        <time>2022-07-24T09:47:19Z</time>
      </trkpt>
      <trkpt lat="47.20868" lon="-1.54331">
        <ele>56</ele>
        <time>2022-07-24T09:47:21Z</time>
      </trkpt>
      <trkpt lat="47.20862" lon="-1.54345">
        <ele>56</ele>
        <time>2022-07-24T09:47:23Z</time>
      </trkpt>
      <trkpt lat="47.20857" lon="-1.5436">
        <ele>56</ele>
        <time>2022-07-24T09:47:25Z</time>
      </trkpt>
      <trkpt lat="47.20852" lon="-1.54376">
        <ele>56</ele>
        <time>2022-07-24T09:47:27Z</time>
      </trkpt>
      <trkpt lat="47.20847" lon="-1.54392">
        <ele>56</ele>
        <time>2022-07-24T09:47:29Z</time>
      </trkpt>
      <trkpt lat="47.20844" lon="-1.54408">
        <ele>56</ele>
        <time>2022-07-24T09:47:31Z</time>
      </trkpt>
      <trkpt lat="47.20839" lon="-1.54424">
        <ele>57</ele>
        <time>2022-07-24T09:47:33Z</time>
      </trkpt>
      <trkpt lat="47.20834" lon="-1.54439">
        <ele>57</ele>
        <time>2022-07-24T09:47:35Z</time>
      </trkpt>
      <trkpt lat="47.20829" lon="-1.54454">
        <ele>57</ele>
        <time>2022-07-24T09:47:37Z</time>
      </trkpt>
      <trkpt lat="47.20824" lon="-1.54469">
        <ele>57</ele>
        <time>2022-07-24T09:47:39Z</time>
      </trkpt>
      <trkpt lat="47.2082" lon="-1.54485">
        <ele>57</ele>
        <time>2022-07-24T09:47:41Z</time>
      </trkpt>
      <trkpt lat="47.20815" lon="-1.54501">
        <ele>57</ele>
        <time>2022-07-24T09:47:43Z</time>
      </trkpt>
      <trkpt lat="47.2081" lon="-1.54517">
        <ele>56</ele>
        <time>2022-07-24T09:47:45Z</time>
      </trkpt>
      <trkpt lat="47.20805" lon="-1.54532">
        <ele>56</ele>
        <time>2022-07-24T09:47:47Z</time>
      </trkpt>
      <trkpt lat="47.208" lon="-1.54549">
        <ele>55</ele>
        <time>2022-07-24T09:47:49Z</time>
      </trkpt>
      <trkpt lat="47.20795" lon="-1.54565">
        <ele>55</ele>
        <time>2022-07-24T09:47:51Z</time>
      </trkpt>
      <trkpt lat="47.2079" lon="-1.5458">
        <ele>55</ele>
        <time>2022-07-24T09:47:53Z</time>
      </trkpt>
      <trkpt lat="47.20785" lon="-1.54597">
        <ele>55</ele>
        <time>2022-07-24T09:47:55Z</time>
      </trkpt>
      <trkpt lat="47.20779" lon="-1.54612">
        <ele>56</ele>
        <time>2022-07-24T09:47:57Z</time>
      </trkpt>
      <trkpt lat="47.20774" lon="-1.54627">
        <ele>56</ele>
        <time>2022-07-24T09:47:59Z</time>
      </trkpt>
      <trkpt lat="47.20769" lon="-1.54644">
        <ele>56</ele>
        <time>2022-07-24T09:48:01Z</time>
      </trkpt>
      <trkpt lat="47.20764" lon="-1.5466">
        <ele>55</ele>
        <time>2022-07-24T09:48:03Z</time>
      </trkpt>
      <trkpt lat="47.20759" lon="-1.54676">
        <ele>55</ele>
        <time>2022-07-24T09:48:05Z</time>
      </trkpt>
      <trkpt lat="47.20754" lon="-1.54693">
        <ele>55</ele>
        <time>2022-07-24T09:48:07Z</time>
      </trkpt>
      <trkpt lat="47.20749" lon="-1.54709">
        <ele>55</ele>
        <time>2022-07-24T09:48:09Z</time>
      </trkpt>
      <trkpt lat="47.20744" lon="-1.54724">
        <ele>56</ele>
        <time>2022-07-24T09:48:11Z</time>
      </trkpt>
      <trkpt lat="47.2074" lon="-1.54739">
        <ele>55</ele>
        <time>2022-07-24T09:48:13Z</time>
      </trkpt>
      <trkpt lat="47.20734" lon="-1.54755">
        <ele>54</ele>
        <time>2022-07-24T09:48:15Z</time>
      </trkpt>
      <trkpt lat="47.20729" lon="-1.5477">
        <ele>54</ele>
        <time>2022-07-24T09:48:17Z</time>
      </trkpt>
      <trkpt lat="47.20724" lon="-1.54784">
        <ele>55</ele>
        <time>2022-07-24T09:48:19Z</time>
      </trkpt>
      <trkpt lat="47.2072" lon="-1.54799">
        <ele>55</ele>
        <time>2022-07-24T09:48:21Z</time>
      </trkpt>
      <trkpt lat="47.20718" lon="-1.54814">
        <ele>55</ele>
        <time>2022-07-24T09:48:23Z</time>
      </trkpt>
      <trkpt lat="47.20716" lon="-1.54829">
        <ele>55</ele>
        <time>2022-07-24T09:48:25Z</time>
      </trkpt>
      <trkpt lat="47.20715" lon="-1.54843">
        <ele>54</ele>
        <time>2022-07-24T09:48:27Z</time>
      </trkpt>
      <trkpt lat="47.20712" lon="-1.54858">
        <ele>54</ele>
        <time>2022-07-24T09:48:30Z</time>
      </trkpt>
      <trkpt lat="47.20708" lon="-1.54873">
        <ele>55</ele>
        <time>2022-07-24T09:48:33Z</time>
      </trkpt>
      <trkpt lat="47.20705" lon="-1.54887">
        <ele>56</ele>
        <time>2022-07-24T09:48:36Z</time>
      </trkpt>
      <trkpt lat="47.20701" lon="-1.549">
        <ele>56</ele>
        <time>2022-07-24T09:48:38Z</time>
      </trkpt>
      <trkpt lat="47.20697" lon="-1.54915">
        <ele>55</ele>
        <time>2022-07-24T09:48:40Z</time>
      </trkpt>
      <trkpt lat="47.20694" lon="-1.5493">
        <ele>55</ele>
        <time>2022-07-24T09:48:42Z</time>
      </trkpt>
      <trkpt lat="47.20693" lon="-1.54947">
        <ele>55</ele>
        <time>2022-07-24T09:48:44Z</time>
      </trkpt>
      <trkpt lat="47.20692" lon="-1.54964">
        <ele>55</ele>
        <time>2022-07-24T09:48:46Z</time>
      </trkpt>
      <trkpt lat="47.2069" lon="-1.54982">
        <ele>55</ele>
        <time>2022-07-24T09:48:48Z</time>
      </trkpt>
      <trkpt lat="47.20689" lon="-1.55">
        <ele>55</ele>
        <time>2022-07-24T09:48:50Z</time>
      </trkpt>
      <trkpt lat="47.20689" lon="-1.55018">
        <ele>55</ele>
        <time>2022-07-24T09:48:52Z</time>
      </trkpt>
      <trkpt lat="47.20688" lon="-1.55036">
        <ele>55</ele>
        <time>2022-07-24T09:48:54Z</time>
      </trkpt>
      <trkpt lat="47.20687" lon="-1.55054">
        <ele>55</ele>
        <time>2022-07-24T09:48:56Z</time>
      </trkpt>
      <trkpt lat="47.20688" lon="-1.55072">
        <ele>55</ele>
        <time>2022-07-24T09:48:58Z</time>
      </trkpt>
      <trkpt lat="47.20688" lon="-1.55089">
        <ele>54</ele>
        <time>2022-07-24T09:49:00Z</time>
      </trkpt>
      <trkpt lat="47.20687" lon="-1.55106">
        <ele>54</ele>
        <time>2022-07-24T09:49:02Z</time>
      </trkpt>
      <trkpt lat="47.20686" lon="-1.55123">
        <ele>54</ele>
        <time>2022-07-24T09:49:04Z</time>
      </trkpt>
      <trkpt lat="47.20685" lon="-1.5514">
        <ele>54</ele>
        <time>2022-07-24T09:49:06Z</time>
      </trkpt>
      <trkpt lat="47.20684" lon="-1.55158">
        <ele>54</ele>
        <time>2022-07-24T09:49:08Z</time>
      </trkpt>
      <trkpt lat="47.20684" lon="-1.55175">
        <ele>55</ele>
        <time>2022-07-24T09:49:10Z</time>
      </trkpt>
      <trkpt lat="47.20683" lon="-1.55193">
        <ele>55</ele>
        <time>2022-07-24T09:49:12Z</time>
      </trkpt>
      <trkpt lat="47.20682" lon="-1.55211">
        <ele>54</ele>
        <time>2022-07-24T09:49:14Z</time>
      </trkpt>
      <trkpt lat="47.2068" lon="-1.55229">
        <ele>54</ele>
        <time>2022-07-24T09:49:16Z</time>
      </trkpt>
      <trkpt lat="47.20678" lon="-1.55246">
        <ele>55</ele>
        <time>2022-07-24T09:49:18Z</time>
      </trkpt>
      <trkpt lat="47.20676" lon="-1.55263">
        <ele>55</ele>
        <time>2022-07-24T09:49:20Z</time>
      </trkpt>
      <trkpt lat="47.20674" lon="-1.5528">
        <ele>55</ele>
        <time>2022-07-24T09:49:22Z</time>
      </trkpt>
      <trkpt lat="47.20673" lon="-1.55297">
        <ele>55</ele>
        <time>2022-07-24T09:49:24Z</time>
      </trkpt>
      <trkpt lat="47.2067" lon="-1.55323">
        <ele>56</ele>
        <time>2022-07-24T09:49:27Z</time>
      </trkpt>
      <trkpt lat="47.20668" lon="-1.5534">
        <ele>56</ele>
        <time>2022-07-24T09:49:29Z</time>
      </trkpt>
      <trkpt lat="47.20667" lon="-1.55357">
        <ele>56</ele>
        <time>2022-07-24T09:49:31Z</time>
      </trkpt>
      <trkpt lat="47.20665" lon="-1.55373">
        <ele>56</ele>
        <time>2022-07-24T09:49:33Z</time>
      </trkpt>
      <trkpt lat="47.20663" lon="-1.5539">
        <ele>56</ele>
        <time>2022-07-24T09:49:35Z</time>
      </trkpt>
      <trkpt lat="47.20662" lon="-1.55407">
        <ele>57</ele>
        <time>2022-07-24T09:49:37Z</time>
      </trkpt>
      <trkpt lat="47.2066" lon="-1.55424">
        <ele>56</ele>
        <time>2022-07-24T09:49:39Z</time>
      </trkpt>
      <trkpt lat="47.20657" lon="-1.55447">
        <ele>57</ele>
        <time>2022-07-24T09:49:42Z</time>
      </trkpt>
      <trkpt lat="47.20654" lon="-1.55463">
        <ele>57</ele>
        <time>2022-07-24T09:49:45Z</time>
      </trkpt>
      <trkpt lat="47.20649" lon="-1.55483">
        <ele>56</ele>
        <time>2022-07-24T09:49:48Z</time>
      </trkpt>
      <trkpt lat="47.2064" lon="-1.55489">
        <ele>56</ele>
        <time>2022-07-24T09:49:50Z</time>
      </trkpt>
      <trkpt lat="47.20623" lon="-1.55488">
        <ele>57</ele>
        <time>2022-07-24T09:49:53Z</time>
      </trkpt>
      <trkpt lat="47.20607" lon="-1.55482">
        <ele>58</ele>
        <time>2022-07-24T09:49:56Z</time>
      </trkpt>
      <trkpt lat="47.2059" lon="-1.55478">
        <ele>60</ele>
        <time>2022-07-24T09:49:59Z</time>
      </trkpt>
      <trkpt lat="47.20575" lon="-1.55475">
        <ele>61</ele>
        <time>2022-07-24T09:50:02Z</time>
      </trkpt>
      <trkpt lat="47.20565" lon="-1.55475">
        <ele>62</ele>
        <time>2022-07-24T09:50:04Z</time>
      </trkpt>
      <trkpt lat="47.20554" lon="-1.55483">
        <ele>62</ele>
        <time>2022-07-24T09:50:06Z</time>
      </trkpt>
      <trkpt lat="47.20543" lon="-1.55493">
        <ele>62</ele>
        <time>2022-07-24T09:50:08Z</time>
      </trkpt>
      <trkpt lat="47.20531" lon="-1.55498">
        <ele>61</ele>
        <time>2022-07-24T09:50:10Z</time>
      </trkpt>
      <trkpt lat="47.20519" lon="-1.55496">
        <ele>60</ele>
        <time>2022-07-24T09:50:12Z</time>
      </trkpt>
      <trkpt lat="47.2051" lon="-1.55487">
        <ele>59</ele>
        <time>2022-07-24T09:50:14Z</time>
      </trkpt>
      <trkpt lat="47.20505" lon="-1.55472">
        <ele>58</ele>
        <time>2022-07-24T09:50:16Z</time>
      </trkpt>
      <trkpt lat="47.20503" lon="-1.55456">
        <ele>57</ele>
        <time>2022-07-24T09:50:18Z</time>
      </trkpt>
      <trkpt lat="47.20505" lon="-1.5544">
        <ele>56</ele>
        <time>2022-07-24T09:50:20Z</time>
      </trkpt>
      <trkpt lat="47.20506" lon="-1.55423">
        <ele>56</ele>
        <time>2022-07-24T09:50:22Z</time>
      </trkpt>
      <trkpt lat="47.20501" lon="-1.55407">
        <ele>56</ele>
        <time>2022-07-24T09:50:24Z</time>
      </trkpt>
      <trkpt lat="47.20496" lon="-1.55394">
        <ele>55</ele>
        <time>2022-07-24T09:50:26Z</time>
      </trkpt>
      <trkpt lat="47.20491" lon="-1.55382">
        <ele>55</ele>
        <time>2022-07-24T09:50:28Z</time>
      </trkpt>
      <trkpt lat="47.20487" lon="-1.55369">
        <ele>56</ele>
        <time>2022-07-24T09:50:30Z</time>
      </trkpt>
      <trkpt lat="47.20482" lon="-1.55357">
        <ele>56</ele>
        <time>2022-07-24T09:50:34Z</time>
      </trkpt>
      <trkpt lat="47.20473" lon="-1.55349">
        <ele>58</ele>
        <time>2022-07-24T09:50:53Z</time>
      </trkpt>
      <trkpt lat="47.20465" lon="-1.55334">
        <ele>58</ele>
        <time>2022-07-24T09:50:56Z</time>
      </trkpt>
      <trkpt lat="47.20458" lon="-1.55317">
        <ele>59</ele>
        <time>2022-07-24T09:50:58Z</time>
      </trkpt>
      <trkpt lat="47.2045" lon="-1.55303">
        <ele>59</ele>
        <time>2022-07-24T09:51:00Z</time>
      </trkpt>
      <trkpt lat="47.20442" lon="-1.55289">
        <ele>59</ele>
        <time>2022-07-24T09:51:02Z</time>
      </trkpt>
      <trkpt lat="47.20433" lon="-1.55274">
        <ele>59</ele>
        <time>2022-07-24T09:51:04Z</time>
      </trkpt>
      <trkpt lat="47.20425" lon="-1.55258">
        <ele>60</ele>
        <time>2022-07-24T09:51:06Z</time>
      </trkpt>
      <trkpt lat="47.20417" lon="-1.55243">
        <ele>59</ele>
        <time>2022-07-24T09:51:08Z</time>
      </trkpt>
      <trkpt lat="47.2041" lon="-1.55229">
        <ele>59</ele>
        <time>2022-07-24T09:51:10Z</time>
      </trkpt>
      <trkpt lat="47.20402" lon="-1.55214">
        <ele>59</ele>
        <time>2022-07-24T09:51:12Z</time>
      </trkpt>
      <trkpt lat="47.20395" lon="-1.552">
        <ele>59</ele>
        <time>2022-07-24T09:51:14Z</time>
      </trkpt>
      <trkpt lat="47.20389" lon="-1.55188">
        <ele>59</ele>
        <time>2022-07-24T09:51:16Z</time>
      </trkpt>
      <trkpt lat="47.2038" lon="-1.55181">
        <ele>60</ele>
        <time>2022-07-24T09:51:18Z</time>
      </trkpt>
      <trkpt lat="47.20368" lon="-1.55189">
        <ele>60</ele>
        <time>2022-07-24T09:51:20Z</time>
      </trkpt>
      <trkpt lat="47.20359" lon="-1.55201">
        <ele>58</ele>
        <time>2022-07-24T09:51:22Z</time>
      </trkpt>
      <trkpt lat="47.2035" lon="-1.55215">
        <ele>57</ele>
        <time>2022-07-24T09:51:24Z</time>
      </trkpt>
      <trkpt lat="47.2034" lon="-1.55229">
        <ele>55</ele>
        <time>2022-07-24T09:51:26Z</time>
      </trkpt>
      <trkpt lat="47.20331" lon="-1.55242">
        <ele>55</ele>
        <time>2022-07-24T09:51:28Z</time>
      </trkpt>
      <trkpt lat="47.20321" lon="-1.55254">
        <ele>57</ele>
        <time>2022-07-24T09:51:30Z</time>
      </trkpt>
      <trkpt lat="47.20311" lon="-1.55267">
        <ele>58</ele>
        <time>2022-07-24T09:51:32Z</time>
      </trkpt>
      <trkpt lat="47.20302" lon="-1.55276">
        <ele>58</ele>
        <time>2022-07-24T09:51:34Z</time>
      </trkpt>
      <trkpt lat="47.20294" lon="-1.55287">
        <ele>58</ele>
        <time>2022-07-24T09:51:36Z</time>
      </trkpt>
      <trkpt lat="47.20287" lon="-1.55298">
        <ele>57</ele>
        <time>2022-07-24T09:51:38Z</time>
      </trkpt>
      <trkpt lat="47.20278" lon="-1.55309">
        <ele>57</ele>
        <time>2022-07-24T09:51:40Z</time>
      </trkpt>
      <trkpt lat="47.2027" lon="-1.5532">
        <ele>57</ele>
        <time>2022-07-24T09:51:42Z</time>
      </trkpt>
      <trkpt lat="47.20261" lon="-1.55331">
        <ele>57</ele>
        <time>2022-07-24T09:51:44Z</time>
      </trkpt>
      <trkpt lat="47.20252" lon="-1.55344">
        <ele>57</ele>
        <time>2022-07-24T09:51:46Z</time>
      </trkpt>
      <trkpt lat="47.20243" lon="-1.55356">
        <ele>57</ele>
        <time>2022-07-24T09:51:48Z</time>
      </trkpt>
      <trkpt lat="47.20235" lon="-1.55368">
        <ele>57</ele>
        <time>2022-07-24T09:51:50Z</time>
      </trkpt>
      <trkpt lat="47.20226" lon="-1.55381">
        <ele>57</ele>
        <time>2022-07-24T09:51:52Z</time>
      </trkpt>
      <trkpt lat="47.20217" lon="-1.55392">
        <ele>57</ele>
        <time>2022-07-24T09:51:54Z</time>
      </trkpt>
      <trkpt lat="47.20209" lon="-1.55404">
        <ele>57</ele>
        <time>2022-07-24T09:51:56Z</time>
      </trkpt>
      <trkpt lat="47.20202" lon="-1.55417">
        <ele>57</ele>
        <time>2022-07-24T09:51:58Z</time>
      </trkpt>
      <trkpt lat="47.20195" lon="-1.5543">
        <ele>57</ele>
        <time>2022-07-24T09:52:00Z</time>
      </trkpt>
      <trkpt lat="47.20188" lon="-1.55443">
        <ele>57</ele>
        <time>2022-07-24T09:52:02Z</time>
      </trkpt>
      <trkpt lat="47.20183" lon="-1.55458">
        <ele>56</ele>
        <time>2022-07-24T09:52:04Z</time>
      </trkpt>
      <trkpt lat="47.20178" lon="-1.55475">
        <ele>56</ele>
        <time>2022-07-24T09:52:06Z</time>
      </trkpt>
      <trkpt lat="47.20176" lon="-1.55492">
        <ele>56</ele>
        <time>2022-07-24T09:52:08Z</time>
      </trkpt>
      <trkpt lat="47.20177" lon="-1.55508">
        <ele>56</ele>
        <time>2022-07-24T09:52:10Z</time>
      </trkpt>
      <trkpt lat="47.20181" lon="-1.55524">
        <ele>56</ele>
        <time>2022-07-24T09:52:12Z</time>
      </trkpt>
      <trkpt lat="47.20191" lon="-1.55534">
        <ele>56</ele>
        <time>2022-07-24T09:52:14Z</time>
      </trkpt>
      <trkpt lat="47.20202" lon="-1.55539">
        <ele>56</ele>
        <time>2022-07-24T09:52:16Z</time>
      </trkpt>
      <trkpt lat="47.20214" lon="-1.55544">
        <ele>56</ele>
        <time>2022-07-24T09:52:18Z</time>
      </trkpt>
      <trkpt lat="47.20225" lon="-1.55549">
        <ele>56</ele>
        <time>2022-07-24T09:52:20Z</time>
      </trkpt>
      <trkpt lat="47.20236" lon="-1.55553">
        <ele>56</ele>
        <time>2022-07-24T09:52:22Z</time>
      </trkpt>
      <trkpt lat="47.20247" lon="-1.55559">
        <ele>56</ele>
        <time>2022-07-24T09:52:24Z</time>
      </trkpt>
      <trkpt lat="47.20258" lon="-1.55562">
        <ele>56</ele>
        <time>2022-07-24T09:52:26Z</time>
      </trkpt>
      <trkpt lat="47.20269" lon="-1.55565">
        <ele>56</ele>
        <time>2022-07-24T09:52:28Z</time>
      </trkpt>
      <trkpt lat="47.20281" lon="-1.55568">
        <ele>56</ele>
        <time>2022-07-24T09:52:30Z</time>
      </trkpt>
      <trkpt lat="47.20291" lon="-1.55574">
        <ele>55</ele>
        <time>2022-07-24T09:52:32Z</time>
      </trkpt>
      <trkpt lat="47.20296" lon="-1.55587">
        <ele>55</ele>
        <time>2022-07-24T09:52:34Z</time>
      </trkpt>
      <trkpt lat="47.20297" lon="-1.55603">
        <ele>55</ele>
        <time>2022-07-24T09:52:36Z</time>
      </trkpt>
      <trkpt lat="47.20295" lon="-1.5562">
        <ele>55</ele>
        <time>2022-07-24T09:52:38Z</time>
      </trkpt>
      <trkpt lat="47.20294" lon="-1.55638">
        <ele>55</ele>
        <time>2022-07-24T09:52:40Z</time>
      </trkpt>
      <trkpt lat="47.20292" lon="-1.55655">
        <ele>55</ele>
        <time>2022-07-24T09:52:42Z</time>
      </trkpt>
      <trkpt lat="47.2029" lon="-1.55673">
        <ele>55</ele>
        <time>2022-07-24T09:52:44Z</time>
      </trkpt>
      <trkpt lat="47.20288" lon="-1.55692">
        <ele>54</ele>
        <time>2022-07-24T09:52:46Z</time>
      </trkpt>
      <trkpt lat="47.20286" lon="-1.5571">
        <ele>55</ele>
        <time>2022-07-24T09:52:48Z</time>
      </trkpt>
      <trkpt lat="47.20284" lon="-1.55729">
        <ele>54</ele>
        <time>2022-07-24T09:52:50Z</time>
      </trkpt>
      <trkpt lat="47.20281" lon="-1.55748">
        <ele>54</ele>
        <time>2022-07-24T09:52:52Z</time>
      </trkpt>
      <trkpt lat="47.2028" lon="-1.55766">
        <ele>54</ele>
        <time>2022-07-24T09:52:54Z</time>
      </trkpt>
      <trkpt lat="47.20277" lon="-1.55785">
        <ele>54</ele>
        <time>2022-07-24T09:52:56Z</time>
      </trkpt>
      <trkpt lat="47.20275" lon="-1.55802">
        <ele>54</ele>
        <time>2022-07-24T09:52:58Z</time>
      </trkpt>
      <trkpt lat="47.20274" lon="-1.55821">
        <ele>54</ele>
        <time>2022-07-24T09:53:00Z</time>
      </trkpt>
      <trkpt lat="47.20272" lon="-1.55839">
        <ele>55</ele>
        <time>2022-07-24T09:53:02Z</time>
      </trkpt>
      <trkpt lat="47.2027" lon="-1.55856">
        <ele>55</ele>
        <time>2022-07-24T09:53:04Z</time>
      </trkpt>
      <trkpt lat="47.20268" lon="-1.55874">
        <ele>56</ele>
        <time>2022-07-24T09:53:06Z</time>
      </trkpt>
      <trkpt lat="47.20266" lon="-1.55891">
        <ele>56</ele>
        <time>2022-07-24T09:53:08Z</time>
      </trkpt>
      <trkpt lat="47.20264" lon="-1.55908">
        <ele>56</ele>
        <time>2022-07-24T09:53:10Z</time>
      </trkpt>
      <trkpt lat="47.20263" lon="-1.55925">
        <ele>56</ele>
        <time>2022-07-24T09:53:12Z</time>
      </trkpt>
      <trkpt lat="47.20261" lon="-1.55942">
        <ele>57</ele>
        <time>2022-07-24T09:53:14Z</time>
      </trkpt>
      <trkpt lat="47.20259" lon="-1.5596">
        <ele>57</ele>
        <time>2022-07-24T09:53:16Z</time>
      </trkpt>
      <trkpt lat="47.20257" lon="-1.55977">
        <ele>57</ele>
        <time>2022-07-24T09:53:18Z</time>
      </trkpt>
      <trkpt lat="47.20255" lon="-1.55994">
        <ele>57</ele>
        <time>2022-07-24T09:53:20Z</time>
      </trkpt>
      <trkpt lat="47.20253" lon="-1.56011">
        <ele>57</ele>
        <time>2022-07-24T09:53:22Z</time>
      </trkpt>
      <trkpt lat="47.20251" lon="-1.56029">
        <ele>57</ele>
        <time>2022-07-24T09:53:24Z</time>
      </trkpt>
      <trkpt lat="47.20249" lon="-1.56047">
        <ele>58</ele>
        <time>2022-07-24T09:53:26Z</time>
      </trkpt>
      <trkpt lat="47.20247" lon="-1.56066">
        <ele>57</ele>
        <time>2022-07-24T09:53:28Z</time>
      </trkpt>
      <trkpt lat="47.20245" lon="-1.56084">
        <ele>57</ele>
        <time>2022-07-24T09:53:30Z</time>
      </trkpt>
      <trkpt lat="47.20244" lon="-1.56102">
        <ele>57</ele>
        <time>2022-07-24T09:53:32Z</time>
      </trkpt>
      <trkpt lat="47.20241" lon="-1.56119">
        <ele>57</ele>
        <time>2022-07-24T09:53:34Z</time>
      </trkpt>
      <trkpt lat="47.20237" lon="-1.56135">
        <ele>57</ele>
        <time>2022-07-24T09:53:36Z</time>
      </trkpt>
      <trkpt lat="47.2023" lon="-1.56148">
        <ele>58</ele>
        <time>2022-07-24T09:53:38Z</time>
      </trkpt>
      <trkpt lat="47.2022" lon="-1.56159">
        <ele>57</ele>
        <time>2022-07-24T09:53:40Z</time>
      </trkpt>
      <trkpt lat="47.2021" lon="-1.56167">
        <ele>57</ele>
        <time>2022-07-24T09:53:42Z</time>
      </trkpt>
      <trkpt lat="47.202" lon="-1.56173">
        <ele>57</ele>
        <time>2022-07-24T09:53:44Z</time>
      </trkpt>
      <trkpt lat="47.2019" lon="-1.56178">
        <ele>57</ele>
        <time>2022-07-24T09:53:46Z</time>
      </trkpt>
      <trkpt lat="47.20182" lon="-1.56188">
        <ele>57</ele>
        <time>2022-07-24T09:53:48Z</time>
      </trkpt>
      <trkpt lat="47.20173" lon="-1.56194">
        <ele>56</ele>
        <time>2022-07-24T09:53:50Z</time>
      </trkpt>
      <trkpt lat="47.20162" lon="-1.56193">
        <ele>56</ele>
        <time>2022-07-24T09:53:52Z</time>
      </trkpt>
      <trkpt lat="47.20153" lon="-1.56185">
        <ele>56</ele>
        <time>2022-07-24T09:53:54Z</time>
      </trkpt>
      <trkpt lat="47.20142" lon="-1.56181">
        <ele>56</ele>
        <time>2022-07-24T09:53:56Z</time>
      </trkpt>
      <trkpt lat="47.20129" lon="-1.5618">
        <ele>56</ele>
        <time>2022-07-24T09:53:58Z</time>
      </trkpt>
      <trkpt lat="47.20117" lon="-1.5618">
        <ele>56</ele>
        <time>2022-07-24T09:54:00Z</time>
      </trkpt>
      <trkpt lat="47.20105" lon="-1.5618">
        <ele>57</ele>
        <time>2022-07-24T09:54:02Z</time>
      </trkpt>
      <trkpt lat="47.20094" lon="-1.56179">
        <ele>57</ele>
        <time>2022-07-24T09:54:04Z</time>
      </trkpt>
      <trkpt lat="47.20083" lon="-1.5618">
        <ele>58</ele>
        <time>2022-07-24T09:54:06Z</time>
      </trkpt>
      <trkpt lat="47.20071" lon="-1.5618">
        <ele>57</ele>
        <time>2022-07-24T09:54:08Z</time>
      </trkpt>
      <trkpt lat="47.20059" lon="-1.5618">
        <ele>57</ele>
        <time>2022-07-24T09:54:10Z</time>
      </trkpt>
      <trkpt lat="47.20047" lon="-1.56181">
        <ele>57</ele>
        <time>2022-07-24T09:54:12Z</time>
      </trkpt>
      <trkpt lat="47.20036" lon="-1.56181">
        <ele>57</ele>
        <time>2022-07-24T09:54:14Z</time>
      </trkpt>
      <trkpt lat="47.20026" lon="-1.56181">
        <ele>58</ele>
        <time>2022-07-24T09:54:16Z</time>
      </trkpt>
      <trkpt lat="47.20015" lon="-1.56183">
        <ele>58</ele>
        <time>2022-07-24T09:54:18Z</time>
      </trkpt>
      <trkpt lat="47.20006" lon="-1.56188">
        <ele>58</ele>
        <time>2022-07-24T09:54:20Z</time>
      </trkpt>
      <trkpt lat="47.19997" lon="-1.56191">
        <ele>57</ele>
        <time>2022-07-24T09:54:22Z</time>
      </trkpt>
      <trkpt lat="47.19988" lon="-1.56193">
        <ele>57</ele>
        <time>2022-07-24T09:54:24Z</time>
      </trkpt>
      <trkpt lat="47.19977" lon="-1.5619">
        <ele>57</ele>
        <time>2022-07-24T09:54:27Z</time>
      </trkpt>
      <trkpt lat="47.19985" lon="-1.56196">
        <ele>56</ele>
        <time>2022-07-24T09:56:01Z</time>
      </trkpt>
      <trkpt lat="47.19988" lon="-1.56199">
        <ele>53</ele>
        <time>2022-07-24T09:58:02Z</time>
      </trkpt>
      <trkpt lat="47.19989" lon="-1.56199">
        <ele>53</ele>
        <time>2022-07-24T10:00:03Z</time>
      </trkpt>
      <trkpt lat="47.19989" lon="-1.56199">
        <ele>53</ele>
        <time>2022-07-24T10:02:04Z</time>
      </trkpt>
      <trkpt lat="47.19989" lon="-1.56199">
        <ele>53</ele>
        <time>2022-07-24T10:04:05Z</time>
      </trkpt>
      <trkpt lat="47.19989" lon="-1.56199">
        <ele>53</ele>
        <time>2022-07-24T10:06:06Z</time>
      </trkpt>
      <trkpt lat="47.19988" lon="-1.56199">
        <ele>54</ele>
        <time>2022-07-24T10:08:07Z</time>
      </trkpt>
      <trkpt lat="47.19979" lon="-1.56195">
        <ele>55</ele>
        <time>2022-07-24T10:08:15Z</time>
      </trkpt>
      <trkpt lat="47.19976" lon="-1.56178">
        <ele>55</ele>
        <time>2022-07-24T10:08:19Z</time>
      </trkpt>
      <trkpt lat="47.19969" lon="-1.56168">
        <ele>55</ele>
        <time>2022-07-24T10:08:22Z</time>
      </trkpt>
      <trkpt lat="47.19957" lon="-1.56166">
        <ele>55</ele>
        <time>2022-07-24T10:08:25Z</time>
      </trkpt>
      <trkpt lat="47.19944" lon="-1.56169">
        <ele>57</ele>
        <time>2022-07-24T10:08:28Z</time>
      </trkpt>
      <trkpt lat="47.19931" lon="-1.56171">
        <ele>58</ele>
        <time>2022-07-24T10:08:31Z</time>
      </trkpt>
      <trkpt lat="47.19919" lon="-1.56173">
        <ele>58</ele>
        <time>2022-07-24T10:08:34Z</time>
      </trkpt>
      <trkpt lat="47.1991" lon="-1.56174">
        <ele>58</ele>
        <time>2022-07-24T10:08:36Z</time>
      </trkpt>
      <trkpt lat="47.199" lon="-1.56175">
        <ele>59</ele>
        <time>2022-07-24T10:08:38Z</time>
      </trkpt>
      <trkpt lat="47.1989" lon="-1.56177">
        <ele>60</ele>
        <time>2022-07-24T10:08:40Z</time>
      </trkpt>
      <trkpt lat="47.19879" lon="-1.56181">
        <ele>60</ele>
        <time>2022-07-24T10:08:42Z</time>
      </trkpt>
      <trkpt lat="47.19868" lon="-1.56183">
        <ele>61</ele>
        <time>2022-07-24T10:08:44Z</time>
      </trkpt>
      <trkpt lat="47.19858" lon="-1.56185">
        <ele>61</ele>
        <time>2022-07-24T10:08:46Z</time>
      </trkpt>
      <trkpt lat="47.19847" lon="-1.56187">
        <ele>61</ele>
        <time>2022-07-24T10:08:48Z</time>
      </trkpt>
      <trkpt lat="47.19837" lon="-1.56188">
        <ele>61</ele>
        <time>2022-07-24T10:08:50Z</time>
      </trkpt>
      <trkpt lat="47.19826" lon="-1.56191">
        <ele>61</ele>
        <time>2022-07-24T10:08:52Z</time>
      </trkpt>
      <trkpt lat="47.19815" lon="-1.56193">
        <ele>61</ele>
        <time>2022-07-24T10:08:54Z</time>
      </trkpt>
      <trkpt lat="47.19804" lon="-1.56195">
        <ele>61</ele>
        <time>2022-07-24T10:08:56Z</time>
      </trkpt>
      <trkpt lat="47.19793" lon="-1.56197">
        <ele>61</ele>
        <time>2022-07-24T10:08:58Z</time>
      </trkpt>
      <trkpt lat="47.19781" lon="-1.56198">
        <ele>60</ele>
        <time>2022-07-24T10:09:00Z</time>
      </trkpt>
      <trkpt lat="47.19768" lon="-1.562">
        <ele>60</ele>
        <time>2022-07-24T10:09:02Z</time>
      </trkpt>
      <trkpt lat="47.19754" lon="-1.56204">
        <ele>60</ele>
        <time>2022-07-24T10:09:04Z</time>
      </trkpt>
      <trkpt lat="47.1974" lon="-1.56206">
        <ele>59</ele>
        <time>2022-07-24T10:09:06Z</time>
      </trkpt>
      <trkpt lat="47.19726" lon="-1.56209">
        <ele>59</ele>
        <time>2022-07-24T10:09:08Z</time>
      </trkpt>
      <trkpt lat="47.19711" lon="-1.56212">
        <ele>58</ele>
        <time>2022-07-24T10:09:10Z</time>
      </trkpt>
      <trkpt lat="47.19696" lon="-1.56216">
        <ele>57</ele>
        <time>2022-07-24T10:09:12Z</time>
      </trkpt>
      <trkpt lat="47.19681" lon="-1.56218">
        <ele>56</ele>
        <time>2022-07-24T10:09:14Z</time>
      </trkpt>
      <trkpt lat="47.19665" lon="-1.56223">
        <ele>55</ele>
        <time>2022-07-24T10:09:16Z</time>
      </trkpt>
      <trkpt lat="47.1965" lon="-1.56228">
        <ele>55</ele>
        <time>2022-07-24T10:09:18Z</time>
      </trkpt>
      <trkpt lat="47.19636" lon="-1.56241">
        <ele>54</ele>
        <time>2022-07-24T10:09:20Z</time>
      </trkpt>
      <trkpt lat="47.19633" lon="-1.56265">
        <ele>54</ele>
        <time>2022-07-24T10:09:22Z</time>
      </trkpt>
      <trkpt lat="47.19632" lon="-1.56286">
        <ele>54</ele>
        <time>2022-07-24T10:09:24Z</time>
      </trkpt>
      <trkpt lat="47.19631" lon="-1.56306">
        <ele>54</ele>
        <time>2022-07-24T10:09:26Z</time>
      </trkpt>
      <trkpt lat="47.1963" lon="-1.56326">
        <ele>54</ele>
        <time>2022-07-24T10:09:28Z</time>
      </trkpt>
      <trkpt lat="47.1963" lon="-1.56345">
        <ele>53</ele>
        <time>2022-07-24T10:09:30Z</time>
      </trkpt>
      <trkpt lat="47.19629" lon="-1.56365">
        <ele>53</ele>
        <time>2022-07-24T10:09:32Z</time>
      </trkpt>
      <trkpt lat="47.1963" lon="-1.56386">
        <ele>53</ele>
        <time>2022-07-24T10:09:34Z</time>
      </trkpt>
      <trkpt lat="47.1963" lon="-1.56405">
        <ele>53</ele>
        <time>2022-07-24T10:09:36Z</time>
      </trkpt>
      <trkpt lat="47.19631" lon="-1.56424">
        <ele>53</ele>
        <time>2022-07-24T10:09:38Z</time>
      </trkpt>
      <trkpt lat="47.19632" lon="-1.56444">
        <ele>53</ele>
        <time>2022-07-24T10:09:40Z</time>
      </trkpt>
      <trkpt lat="47.19633" lon="-1.56464">
        <ele>54</ele>
        <time>2022-07-24T10:09:42Z</time>
      </trkpt>
      <trkpt lat="47.19633" lon="-1.56483">
        <ele>54</ele>
        <time>2022-07-24T10:09:44Z</time>
      </trkpt>
      <trkpt lat="47.19633" lon="-1.56502">
        <ele>54</ele>
        <time>2022-07-24T10:09:46Z</time>
      </trkpt>
      <trkpt lat="47.19633" lon="-1.56521">
        <ele>54</ele>
        <time>2022-07-24T10:09:48Z</time>
      </trkpt>
      <trkpt lat="47.19632" lon="-1.56539">
        <ele>54</ele>
        <time>2022-07-24T10:09:50Z</time>
      </trkpt>
      <trkpt lat="47.19632" lon="-1.56558">
        <ele>54</ele>
        <time>2022-07-24T10:09:52Z</time>
      </trkpt>
      <trkpt lat="47.19632" lon="-1.56577">
        <ele>54</ele>
        <time>2022-07-24T10:09:54Z</time>
      </trkpt>
      <trkpt lat="47.19631" lon="-1.56596">
        <ele>54</ele>
        <time>2022-07-24T10:09:56Z</time>
      </trkpt>
      <trkpt lat="47.1963" lon="-1.56616">
        <ele>55</ele>
        <time>2022-07-24T10:09:58Z</time>
      </trkpt>
      <trkpt lat="47.19629" lon="-1.56635">
        <ele>55</ele>
        <time>2022-07-24T10:10:00Z</time>
      </trkpt>
      <trkpt lat="47.19628" lon="-1.56653">
        <ele>55</ele>
        <time>2022-07-24T10:10:02Z</time>
      </trkpt>
      <trkpt lat="47.19626" lon="-1.56673">
        <ele>55</ele>
        <time>2022-07-24T10:10:04Z</time>
      </trkpt>
      <trkpt lat="47.19625" lon="-1.56693">
        <ele>55</ele>
        <time>2022-07-24T10:10:06Z</time>
      </trkpt>
      <trkpt lat="47.19623" lon="-1.56712">
        <ele>55</ele>
        <time>2022-07-24T10:10:08Z</time>
      </trkpt>
      <trkpt lat="47.19622" lon="-1.56731">
        <ele>55</ele>
        <time>2022-07-24T10:10:10Z</time>
      </trkpt>
      <trkpt lat="47.1962" lon="-1.56749">
        <ele>55</ele>
        <time>2022-07-24T10:10:12Z</time>
      </trkpt>
      <trkpt lat="47.19618" lon="-1.56768">
        <ele>54</ele>
        <time>2022-07-24T10:10:14Z</time>
      </trkpt>
      <trkpt lat="47.19617" lon="-1.56789">
        <ele>54</ele>
        <time>2022-07-24T10:10:16Z</time>
      </trkpt>
      <trkpt lat="47.19617" lon="-1.56809">
        <ele>54</ele>
        <time>2022-07-24T10:10:18Z</time>
      </trkpt>
      <trkpt lat="47.19615" lon="-1.5683">
        <ele>54</ele>
        <time>2022-07-24T10:10:20Z</time>
      </trkpt>
      <trkpt lat="47.19615" lon="-1.5685">
        <ele>54</ele>
        <time>2022-07-24T10:10:22Z</time>
      </trkpt>
      <trkpt lat="47.19614" lon="-1.56871">
        <ele>54</ele>
        <time>2022-07-24T10:10:24Z</time>
      </trkpt>
      <trkpt lat="47.19613" lon="-1.5689">
        <ele>54</ele>
        <time>2022-07-24T10:10:26Z</time>
      </trkpt>
      <trkpt lat="47.19612" lon="-1.5691">
        <ele>54</ele>
        <time>2022-07-24T10:10:28Z</time>
      </trkpt>
      <trkpt lat="47.1961" lon="-1.56931">
        <ele>53</ele>
        <time>2022-07-24T10:10:30Z</time>
      </trkpt>
      <trkpt lat="47.19609" lon="-1.5695">
        <ele>53</ele>
        <time>2022-07-24T10:10:32Z</time>
      </trkpt>
      <trkpt lat="47.19607" lon="-1.5697">
        <ele>53</ele>
        <time>2022-07-24T10:10:34Z</time>
      </trkpt>
      <trkpt lat="47.19606" lon="-1.5699">
        <ele>53</ele>
        <time>2022-07-24T10:10:36Z</time>
      </trkpt>
      <trkpt lat="47.19605" lon="-1.57011">
        <ele>53</ele>
        <time>2022-07-24T10:10:38Z</time>
      </trkpt>
      <trkpt lat="47.19604" lon="-1.57031">
        <ele>53</ele>
        <time>2022-07-24T10:10:40Z</time>
      </trkpt>
      <trkpt lat="47.19603" lon="-1.57051">
        <ele>53</ele>
        <time>2022-07-24T10:10:42Z</time>
      </trkpt>
      <trkpt lat="47.19602" lon="-1.5707">
        <ele>52</ele>
        <time>2022-07-24T10:10:44Z</time>
      </trkpt>
      <trkpt lat="47.19601" lon="-1.57089">
        <ele>53</ele>
        <time>2022-07-24T10:10:46Z</time>
      </trkpt>
      <trkpt lat="47.196" lon="-1.57108">
        <ele>52</ele>
        <time>2022-07-24T10:10:48Z</time>
      </trkpt>
      <trkpt lat="47.19598" lon="-1.57127">
        <ele>52</ele>
        <time>2022-07-24T10:10:50Z</time>
      </trkpt>
      <trkpt lat="47.19597" lon="-1.57145">
        <ele>53</ele>
        <time>2022-07-24T10:10:52Z</time>
      </trkpt>
      <trkpt lat="47.19596" lon="-1.57164">
        <ele>52</ele>
        <time>2022-07-24T10:10:54Z</time>
      </trkpt>
      <trkpt lat="47.19595" lon="-1.57183">
        <ele>53</ele>
        <time>2022-07-24T10:10:56Z</time>
      </trkpt>
      <trkpt lat="47.19595" lon="-1.57203">
        <ele>52</ele>
        <time>2022-07-24T10:10:58Z</time>
      </trkpt>
      <trkpt lat="47.19594" lon="-1.57222">
        <ele>53</ele>
        <time>2022-07-24T10:11:00Z</time>
      </trkpt>
      <trkpt lat="47.19591" lon="-1.57242">
        <ele>53</ele>
        <time>2022-07-24T10:11:02Z</time>
      </trkpt>
      <trkpt lat="47.19589" lon="-1.57263">
        <ele>53</ele>
        <time>2022-07-24T10:11:04Z</time>
      </trkpt>
      <trkpt lat="47.19587" lon="-1.57282">
        <ele>53</ele>
        <time>2022-07-24T10:11:06Z</time>
      </trkpt>
      <trkpt lat="47.19586" lon="-1.573">
        <ele>53</ele>
        <time>2022-07-24T10:11:08Z</time>
      </trkpt>
      <trkpt lat="47.19584" lon="-1.57319">
        <ele>53</ele>
        <time>2022-07-24T10:11:10Z</time>
      </trkpt>
      <trkpt lat="47.19581" lon="-1.57336">
        <ele>53</ele>
        <time>2022-07-24T10:11:12Z</time>
      </trkpt>
      <trkpt lat="47.19577" lon="-1.57354">
        <ele>53</ele>
        <time>2022-07-24T10:11:14Z</time>
      </trkpt>
      <trkpt lat="47.19574" lon="-1.57371">
        <ele>53</ele>
        <time>2022-07-24T10:11:16Z</time>
      </trkpt>
      <trkpt lat="47.1957" lon="-1.5739">
        <ele>52</ele>
        <time>2022-07-24T10:11:18Z</time>
      </trkpt>
      <trkpt lat="47.19567" lon="-1.57409">
        <ele>52</ele>
        <time>2022-07-24T10:11:20Z</time>
      </trkpt>
      <trkpt lat="47.19563" lon="-1.57428">
        <ele>52</ele>
        <time>2022-07-24T10:11:22Z</time>
      </trkpt>
      <trkpt lat="47.19559" lon="-1.57446">
        <ele>53</ele>
        <time>2022-07-24T10:11:24Z</time>
      </trkpt>
      <trkpt lat="47.19555" lon="-1.57464">
        <ele>53</ele>
        <time>2022-07-24T10:11:26Z</time>
      </trkpt>
      <trkpt lat="47.19552" lon="-1.57481">
        <ele>53</ele>
        <time>2022-07-24T10:11:28Z</time>
      </trkpt>
      <trkpt lat="47.19548" lon="-1.575">
        <ele>53</ele>
        <time>2022-07-24T10:11:30Z</time>
      </trkpt>
      <trkpt lat="47.19545" lon="-1.57518">
        <ele>54</ele>
        <time>2022-07-24T10:11:32Z</time>
      </trkpt>
      <trkpt lat="47.19542" lon="-1.57535">
        <ele>53</ele>
        <time>2022-07-24T10:11:34Z</time>
      </trkpt>
      <trkpt lat="47.19538" lon="-1.57553">
        <ele>53</ele>
        <time>2022-07-24T10:11:36Z</time>
      </trkpt>
      <trkpt lat="47.19534" lon="-1.5757">
        <ele>53</ele>
        <time>2022-07-24T10:11:38Z</time>
      </trkpt>
      <trkpt lat="47.19531" lon="-1.57588">
        <ele>54</ele>
        <time>2022-07-24T10:11:40Z</time>
      </trkpt>
      <trkpt lat="47.19527" lon="-1.57606">
        <ele>54</ele>
        <time>2022-07-24T10:11:42Z</time>
      </trkpt>
      <trkpt lat="47.19523" lon="-1.57623">
        <ele>54</ele>
        <time>2022-07-24T10:11:44Z</time>
      </trkpt>
      <trkpt lat="47.1952" lon="-1.57641">
        <ele>53</ele>
        <time>2022-07-24T10:11:46Z</time>
      </trkpt>
      <trkpt lat="47.19516" lon="-1.57658">
        <ele>53</ele>
        <time>2022-07-24T10:11:48Z</time>
      </trkpt>
      <trkpt lat="47.19512" lon="-1.57675">
        <ele>53</ele>
        <time>2022-07-24T10:11:50Z</time>
      </trkpt>
      <trkpt lat="47.19509" lon="-1.57693">
        <ele>53</ele>
        <time>2022-07-24T10:11:52Z</time>
      </trkpt>
      <trkpt lat="47.19506" lon="-1.5771">
        <ele>53</ele>
        <time>2022-07-24T10:11:54Z</time>
      </trkpt>
      <trkpt lat="47.19503" lon="-1.57727">
        <ele>53</ele>
        <time>2022-07-24T10:11:56Z</time>
      </trkpt>
      <trkpt lat="47.19499" lon="-1.57745">
        <ele>53</ele>
        <time>2022-07-24T10:11:58Z</time>
      </trkpt>
      <trkpt lat="47.19495" lon="-1.57762">
        <ele>53</ele>
        <time>2022-07-24T10:12:00Z</time>
      </trkpt>
      <trkpt lat="47.19492" lon="-1.57779">
        <ele>52</ele>
        <time>2022-07-24T10:12:02Z</time>
      </trkpt>
      <trkpt lat="47.19489" lon="-1.57797">
        <ele>52</ele>
        <time>2022-07-24T10:12:04Z</time>
      </trkpt>
      <trkpt lat="47.19485" lon="-1.57815">
        <ele>52</ele>
        <time>2022-07-24T10:12:06Z</time>
      </trkpt>
      <trkpt lat="47.19482" lon="-1.57833">
        <ele>52</ele>
        <time>2022-07-24T10:12:08Z</time>
      </trkpt>
      <trkpt lat="47.19481" lon="-1.5785">
        <ele>52</ele>
        <time>2022-07-24T10:12:10Z</time>
      </trkpt>
      <trkpt lat="47.19479" lon="-1.57866">
        <ele>52</ele>
        <time>2022-07-24T10:12:12Z</time>
      </trkpt>
      <trkpt lat="47.19476" lon="-1.57882">
        <ele>52</ele>
        <time>2022-07-24T10:12:14Z</time>
      </trkpt>
      <trkpt lat="47.19472" lon="-1.57898">
        <ele>52</ele>
        <time>2022-07-24T10:12:16Z</time>
      </trkpt>
      <trkpt lat="47.1947" lon="-1.57914">
        <ele>52</ele>
        <time>2022-07-24T10:12:18Z</time>
      </trkpt>
      <trkpt lat="47.19468" lon="-1.5793">
        <ele>52</ele>
        <time>2022-07-24T10:12:20Z</time>
      </trkpt>
      <trkpt lat="47.19467" lon="-1.57944">
        <ele>53</ele>
        <time>2022-07-24T10:12:22Z</time>
      </trkpt>
      <trkpt lat="47.19465" lon="-1.57962">
        <ele>52</ele>
        <time>2022-07-24T10:12:25Z</time>
      </trkpt>
      <trkpt lat="47.19464" lon="-1.57981">
        <ele>52</ele>
        <time>2022-07-24T10:12:29Z</time>
      </trkpt>
      <trkpt lat="47.19463" lon="-1.57994">
        <ele>52</ele>
        <time>2022-07-24T10:12:31Z</time>
      </trkpt>
      <trkpt lat="47.19462" lon="-1.58009">
        <ele>52</ele>
        <time>2022-07-24T10:12:33Z</time>
      </trkpt>
      <trkpt lat="47.19461" lon="-1.58025">
        <ele>52</ele>
        <time>2022-07-24T10:12:35Z</time>
      </trkpt>
      <trkpt lat="47.1946" lon="-1.5804">
        <ele>52</ele>
        <time>2022-07-24T10:12:37Z</time>
      </trkpt>
      <trkpt lat="47.19458" lon="-1.58055">
        <ele>53</ele>
        <time>2022-07-24T10:12:39Z</time>
      </trkpt>
      <trkpt lat="47.19456" lon="-1.58068">
        <ele>53</ele>
        <time>2022-07-24T10:12:41Z</time>
      </trkpt>
      <trkpt lat="47.19453" lon="-1.58086">
        <ele>53</ele>
        <time>2022-07-24T10:12:44Z</time>
      </trkpt>
      <trkpt lat="47.19448" lon="-1.58097">
        <ele>53</ele>
        <time>2022-07-24T10:12:46Z</time>
      </trkpt>
      <trkpt lat="47.1944" lon="-1.58107">
        <ele>53</ele>
        <time>2022-07-24T10:12:48Z</time>
      </trkpt>
      <trkpt lat="47.19432" lon="-1.58116">
        <ele>54</ele>
        <time>2022-07-24T10:12:50Z</time>
      </trkpt>
      <trkpt lat="47.19424" lon="-1.58126">
        <ele>54</ele>
        <time>2022-07-24T10:12:52Z</time>
      </trkpt>
      <trkpt lat="47.19416" lon="-1.58136">
        <ele>54</ele>
        <time>2022-07-24T10:12:54Z</time>
      </trkpt>
      <trkpt lat="47.19408" lon="-1.58147">
        <ele>53</ele>
        <time>2022-07-24T10:12:56Z</time>
      </trkpt>
      <trkpt lat="47.19402" lon="-1.58157">
        <ele>53</ele>
        <time>2022-07-24T10:12:58Z</time>
      </trkpt>
      <trkpt lat="47.19396" lon="-1.58168">
        <ele>53</ele>
        <time>2022-07-24T10:13:00Z</time>
      </trkpt>
      <trkpt lat="47.19391" lon="-1.58182">
        <ele>53</ele>
        <time>2022-07-24T10:13:02Z</time>
      </trkpt>
      <trkpt lat="47.19384" lon="-1.58195">
        <ele>53</ele>
        <time>2022-07-24T10:13:04Z</time>
      </trkpt>
      <trkpt lat="47.19379" lon="-1.58208">
        <ele>53</ele>
        <time>2022-07-24T10:13:06Z</time>
      </trkpt>
      <trkpt lat="47.19374" lon="-1.58221">
        <ele>52</ele>
        <time>2022-07-24T10:13:08Z</time>
      </trkpt>
      <trkpt lat="47.19369" lon="-1.58235">
        <ele>52</ele>
        <time>2022-07-24T10:13:10Z</time>
      </trkpt>
      <trkpt lat="47.19364" lon="-1.58248">
        <ele>52</ele>
        <time>2022-07-24T10:13:12Z</time>
      </trkpt>
      <trkpt lat="47.19358" lon="-1.58262">
        <ele>52</ele>
        <time>2022-07-24T10:13:14Z</time>
      </trkpt>
      <trkpt lat="47.19351" lon="-1.58275">
        <ele>51</ele>
        <time>2022-07-24T10:13:16Z</time>
      </trkpt>
      <trkpt lat="47.19342" lon="-1.58286">
        <ele>51</ele>
        <time>2022-07-24T10:13:18Z</time>
      </trkpt>
      <trkpt lat="47.19333" lon="-1.58295">
        <ele>51</ele>
        <time>2022-07-24T10:13:20Z</time>
      </trkpt>
      <trkpt lat="47.19323" lon="-1.58304">
        <ele>51</ele>
        <time>2022-07-24T10:13:22Z</time>
      </trkpt>
      <trkpt lat="47.19313" lon="-1.58314">
        <ele>52</ele>
        <time>2022-07-24T10:13:24Z</time>
      </trkpt>
      <trkpt lat="47.19303" lon="-1.58322">
        <ele>52</ele>
        <time>2022-07-24T10:13:26Z</time>
      </trkpt>
      <trkpt lat="47.19293" lon="-1.58331">
        <ele>52</ele>
        <time>2022-07-24T10:13:28Z</time>
      </trkpt>
      <trkpt lat="47.19283" lon="-1.5834">
        <ele>52</ele>
        <time>2022-07-24T10:13:30Z</time>
      </trkpt>
      <trkpt lat="47.19274" lon="-1.58351">
        <ele>52</ele>
        <time>2022-07-24T10:13:32Z</time>
      </trkpt>
      <trkpt lat="47.19264" lon="-1.5836">
        <ele>52</ele>
        <time>2022-07-24T10:13:34Z</time>
      </trkpt>
      <trkpt lat="47.19254" lon="-1.5837">
        <ele>52</ele>
        <time>2022-07-24T10:13:36Z</time>
      </trkpt>
      <trkpt lat="47.19244" lon="-1.58379">
        <ele>52</ele>
        <time>2022-07-24T10:13:38Z</time>
      </trkpt>
      <trkpt lat="47.19234" lon="-1.58388">
        <ele>52</ele>
        <time>2022-07-24T10:13:40Z</time>
      </trkpt>
      <trkpt lat="47.19224" lon="-1.58397">
        <ele>52</ele>
        <time>2022-07-24T10:13:42Z</time>
      </trkpt>
      <trkpt lat="47.19214" lon="-1.58407">
        <ele>52</ele>
        <time>2022-07-24T10:13:44Z</time>
      </trkpt>
      <trkpt lat="47.19204" lon="-1.58416">
        <ele>52</ele>
        <time>2022-07-24T10:13:46Z</time>
      </trkpt>
      <trkpt lat="47.19194" lon="-1.58425">
        <ele>52</ele>
        <time>2022-07-24T10:13:48Z</time>
      </trkpt>
      <trkpt lat="47.19184" lon="-1.58434">
        <ele>52</ele>
        <time>2022-07-24T10:13:50Z</time>
      </trkpt>
      <trkpt lat="47.19175" lon="-1.58443">
        <ele>52</ele>
        <time>2022-07-24T10:13:52Z</time>
      </trkpt>
      <trkpt lat="47.19166" lon="-1.58452">
        <ele>52</ele>
        <time>2022-07-24T10:13:54Z</time>
      </trkpt>
      <trkpt lat="47.19158" lon="-1.58461">
        <ele>52</ele>
        <time>2022-07-24T10:13:56Z</time>
      </trkpt>
      <trkpt lat="47.1915" lon="-1.58468">
        <ele>53</ele>
        <time>2022-07-24T10:13:58Z</time>
      </trkpt>
      <trkpt lat="47.19142" lon="-1.58476">
        <ele>52</ele>
        <time>2022-07-24T10:14:00Z</time>
      </trkpt>
      <trkpt lat="47.19133" lon="-1.58485">
        <ele>53</ele>
        <time>2022-07-24T10:14:02Z</time>
      </trkpt>
      <trkpt lat="47.19123" lon="-1.58495">
        <ele>53</ele>
        <time>2022-07-24T10:14:04Z</time>
      </trkpt>
      <trkpt lat="47.19113" lon="-1.58504">
        <ele>53</ele>
        <time>2022-07-24T10:14:06Z</time>
      </trkpt>
      <trkpt lat="47.19103" lon="-1.58512">
        <ele>53</ele>
        <time>2022-07-24T10:14:08Z</time>
      </trkpt>
      <trkpt lat="47.19093" lon="-1.5852">
        <ele>54</ele>
        <time>2022-07-24T10:14:10Z</time>
      </trkpt>
      <trkpt lat="47.19083" lon="-1.5853">
        <ele>54</ele>
        <time>2022-07-24T10:14:12Z</time>
      </trkpt>
      <trkpt lat="47.19073" lon="-1.58539">
        <ele>54</ele>
        <time>2022-07-24T10:14:14Z</time>
      </trkpt>
      <trkpt lat="47.19063" lon="-1.5855">
        <ele>54</ele>
        <time>2022-07-24T10:14:16Z</time>
      </trkpt>
      <trkpt lat="47.19054" lon="-1.58559">
        <ele>54</ele>
        <time>2022-07-24T10:14:18Z</time>
      </trkpt>
      <trkpt lat="47.19047" lon="-1.58569">
        <ele>53</ele>
        <time>2022-07-24T10:14:20Z</time>
      </trkpt>
      <trkpt lat="47.19039" lon="-1.58577">
        <ele>54</ele>
        <time>2022-07-24T10:14:22Z</time>
      </trkpt>
      <trkpt lat="47.1903" lon="-1.58586">
        <ele>54</ele>
        <time>2022-07-24T10:14:24Z</time>
      </trkpt>
      <trkpt lat="47.19022" lon="-1.58597">
        <ele>53</ele>
        <time>2022-07-24T10:14:26Z</time>
      </trkpt>
      <trkpt lat="47.19013" lon="-1.58606">
        <ele>53</ele>
        <time>2022-07-24T10:14:28Z</time>
      </trkpt>
      <trkpt lat="47.19004" lon="-1.58615">
        <ele>53</ele>
        <time>2022-07-24T10:14:30Z</time>
      </trkpt>
      <trkpt lat="47.18994" lon="-1.58624">
        <ele>53</ele>
        <time>2022-07-24T10:14:32Z</time>
      </trkpt>
      <trkpt lat="47.18985" lon="-1.58633">
        <ele>53</ele>
        <time>2022-07-24T10:14:34Z</time>
      </trkpt>
      <trkpt lat="47.18976" lon="-1.58642">
        <ele>53</ele>
        <time>2022-07-24T10:14:36Z</time>
      </trkpt>
      <trkpt lat="47.18967" lon="-1.58651">
        <ele>53</ele>
        <time>2022-07-24T10:14:38Z</time>
      </trkpt>
      <trkpt lat="47.18957" lon="-1.5866">
        <ele>53</ele>
        <time>2022-07-24T10:14:40Z</time>
      </trkpt>
      <trkpt lat="47.18947" lon="-1.58669">
        <ele>53</ele>
        <time>2022-07-24T10:14:42Z</time>
      </trkpt>
      <trkpt lat="47.18938" lon="-1.58678">
        <ele>53</ele>
        <time>2022-07-24T10:14:44Z</time>
      </trkpt>
      <trkpt lat="47.18928" lon="-1.58686">
        <ele>53</ele>
        <time>2022-07-24T10:14:46Z</time>
      </trkpt>
      <trkpt lat="47.18919" lon="-1.58696">
        <ele>53</ele>
        <time>2022-07-24T10:14:48Z</time>
      </trkpt>
      <trkpt lat="47.18909" lon="-1.58705">
        <ele>53</ele>
        <time>2022-07-24T10:14:50Z</time>
      </trkpt>
      <trkpt lat="47.18899" lon="-1.58712">
        <ele>53</ele>
        <time>2022-07-24T10:14:52Z</time>
      </trkpt>
      <trkpt lat="47.1889" lon="-1.58719">
        <ele>53</ele>
        <time>2022-07-24T10:14:54Z</time>
      </trkpt>
      <trkpt lat="47.1888" lon="-1.58724">
        <ele>53</ele>
        <time>2022-07-24T10:14:56Z</time>
      </trkpt>
      <trkpt lat="47.18869" lon="-1.58729">
        <ele>53</ele>
        <time>2022-07-24T10:14:58Z</time>
      </trkpt>
      <trkpt lat="47.18859" lon="-1.58735">
        <ele>53</ele>
        <time>2022-07-24T10:15:00Z</time>
      </trkpt>
      <trkpt lat="47.1885" lon="-1.58739">
        <ele>53</ele>
        <time>2022-07-24T10:15:02Z</time>
      </trkpt>
      <trkpt lat="47.1884" lon="-1.58744">
        <ele>53</ele>
        <time>2022-07-24T10:15:04Z</time>
      </trkpt>
      <trkpt lat="47.18833" lon="-1.58754">
        <ele>52</ele>
        <time>2022-07-24T10:15:06Z</time>
      </trkpt>
      <trkpt lat="47.1883" lon="-1.58769">
        <ele>52</ele>
        <time>2022-07-24T10:15:08Z</time>
      </trkpt>
      <trkpt lat="47.18826" lon="-1.58783">
        <ele>52</ele>
        <time>2022-07-24T10:15:10Z</time>
      </trkpt>
      <trkpt lat="47.18818" lon="-1.58794">
        <ele>52</ele>
        <time>2022-07-24T10:15:12Z</time>
      </trkpt>
      <trkpt lat="47.1881" lon="-1.58804">
        <ele>53</ele>
        <time>2022-07-24T10:15:14Z</time>
      </trkpt>
      <trkpt lat="47.18801" lon="-1.5881">
        <ele>54</ele>
        <time>2022-07-24T10:15:16Z</time>
      </trkpt>
      <trkpt lat="47.18792" lon="-1.58816">
        <ele>54</ele>
        <time>2022-07-24T10:15:18Z</time>
      </trkpt>
      <trkpt lat="47.18786" lon="-1.58828">
        <ele>54</ele>
        <time>2022-07-24T10:15:20Z</time>
      </trkpt>
      <trkpt lat="47.18782" lon="-1.58842">
        <ele>54</ele>
        <time>2022-07-24T10:15:22Z</time>
      </trkpt>
      <trkpt lat="47.18779" lon="-1.58858">
        <ele>54</ele>
        <time>2022-07-24T10:15:24Z</time>
      </trkpt>
      <trkpt lat="47.18776" lon="-1.58875">
        <ele>54</ele>
        <time>2022-07-24T10:15:26Z</time>
      </trkpt>
      <trkpt lat="47.18773" lon="-1.58891">
        <ele>54</ele>
        <time>2022-07-24T10:15:28Z</time>
      </trkpt>
      <trkpt lat="47.18771" lon="-1.58908">
        <ele>54</ele>
        <time>2022-07-24T10:15:30Z</time>
      </trkpt>
      <trkpt lat="47.18769" lon="-1.58926">
        <ele>54</ele>
        <time>2022-07-24T10:15:32Z</time>
      </trkpt>
      <trkpt lat="47.18767" lon="-1.58943">
        <ele>54</ele>
        <time>2022-07-24T10:15:34Z</time>
      </trkpt>
      <trkpt lat="47.18765" lon="-1.58961">
        <ele>54</ele>
        <time>2022-07-24T10:15:36Z</time>
      </trkpt>
      <trkpt lat="47.18763" lon="-1.58979">
        <ele>54</ele>
        <time>2022-07-24T10:15:38Z</time>
      </trkpt>
      <trkpt lat="47.18761" lon="-1.58996">
        <ele>54</ele>
        <time>2022-07-24T10:15:40Z</time>
      </trkpt>
      <trkpt lat="47.18759" lon="-1.59014">
        <ele>55</ele>
        <time>2022-07-24T10:15:42Z</time>
      </trkpt>
      <trkpt lat="47.18757" lon="-1.59032">
        <ele>55</ele>
        <time>2022-07-24T10:15:44Z</time>
      </trkpt>
      <trkpt lat="47.18755" lon="-1.5905">
        <ele>55</ele>
        <time>2022-07-24T10:15:46Z</time>
      </trkpt>
      <trkpt lat="47.18753" lon="-1.59068">
        <ele>55</ele>
        <time>2022-07-24T10:15:48Z</time>
      </trkpt>
      <trkpt lat="47.18751" lon="-1.59086">
        <ele>55</ele>
        <time>2022-07-24T10:15:50Z</time>
      </trkpt>
      <trkpt lat="47.18749" lon="-1.59105">
        <ele>55</ele>
        <time>2022-07-24T10:15:52Z</time>
      </trkpt>
      <trkpt lat="47.18747" lon="-1.59123">
        <ele>55</ele>
        <time>2022-07-24T10:15:54Z</time>
      </trkpt>
      <trkpt lat="47.18745" lon="-1.59142">
        <ele>54</ele>
        <time>2022-07-24T10:15:56Z</time>
      </trkpt>
      <trkpt lat="47.18743" lon="-1.5916">
        <ele>54</ele>
        <time>2022-07-24T10:15:58Z</time>
      </trkpt>
      <trkpt lat="47.18741" lon="-1.59178">
        <ele>55</ele>
        <time>2022-07-24T10:16:00Z</time>
      </trkpt>
      <trkpt lat="47.18739" lon="-1.59197">
        <ele>55</ele>
        <time>2022-07-24T10:16:02Z</time>
      </trkpt>
      <trkpt lat="47.18737" lon="-1.59215">
        <ele>55</ele>
        <time>2022-07-24T10:16:04Z</time>
      </trkpt>
      <trkpt lat="47.18735" lon="-1.59233">
        <ele>55</ele>
        <time>2022-07-24T10:16:06Z</time>
      </trkpt>
      <trkpt lat="47.18732" lon="-1.59253">
        <ele>55</ele>
        <time>2022-07-24T10:16:08Z</time>
      </trkpt>
      <trkpt lat="47.1873" lon="-1.59271">
        <ele>55</ele>
        <time>2022-07-24T10:16:10Z</time>
      </trkpt>
      <trkpt lat="47.18729" lon="-1.59289">
        <ele>55</ele>
        <time>2022-07-24T10:16:12Z</time>
      </trkpt>
      <trkpt lat="47.18727" lon="-1.59306">
        <ele>55</ele>
        <time>2022-07-24T10:16:14Z</time>
      </trkpt>
      <trkpt lat="47.18725" lon="-1.59324">
        <ele>55</ele>
        <time>2022-07-24T10:16:16Z</time>
      </trkpt>
      <trkpt lat="47.18723" lon="-1.59342">
        <ele>55</ele>
        <time>2022-07-24T10:16:18Z</time>
      </trkpt>
      <trkpt lat="47.18721" lon="-1.5936">
        <ele>55</ele>
        <time>2022-07-24T10:16:20Z</time>
      </trkpt>
      <trkpt lat="47.1872" lon="-1.59378">
        <ele>55</ele>
        <time>2022-07-24T10:16:22Z</time>
      </trkpt>
      <trkpt lat="47.18718" lon="-1.59395">
        <ele>55</ele>
        <time>2022-07-24T10:16:24Z</time>
      </trkpt>
      <trkpt lat="47.18716" lon="-1.59412">
        <ele>55</ele>
        <time>2022-07-24T10:16:26Z</time>
      </trkpt>
      <trkpt lat="47.18714" lon="-1.59429">
        <ele>55</ele>
        <time>2022-07-24T10:16:28Z</time>
      </trkpt>
      <trkpt lat="47.18712" lon="-1.59446">
        <ele>55</ele>
        <time>2022-07-24T10:16:30Z</time>
      </trkpt>
      <trkpt lat="47.1871" lon="-1.59463">
        <ele>55</ele>
        <time>2022-07-24T10:16:32Z</time>
      </trkpt>
      <trkpt lat="47.18708" lon="-1.59481">
        <ele>56</ele>
        <time>2022-07-24T10:16:34Z</time>
      </trkpt>
      <trkpt lat="47.18706" lon="-1.59498">
        <ele>56</ele>
        <time>2022-07-24T10:16:36Z</time>
      </trkpt>
      <trkpt lat="47.18705" lon="-1.59516">
        <ele>56</ele>
        <time>2022-07-24T10:16:38Z</time>
      </trkpt>
      <trkpt lat="47.18703" lon="-1.59534">
        <ele>56</ele>
        <time>2022-07-24T10:16:40Z</time>
      </trkpt>
      <trkpt lat="47.187" lon="-1.59552">
        <ele>56</ele>
        <time>2022-07-24T10:16:42Z</time>
      </trkpt>
      <trkpt lat="47.18699" lon="-1.59569">
        <ele>56</ele>
        <time>2022-07-24T10:16:44Z</time>
      </trkpt>
      <trkpt lat="47.18697" lon="-1.59587">
        <ele>56</ele>
        <time>2022-07-24T10:16:46Z</time>
      </trkpt>
      <trkpt lat="47.18694" lon="-1.59604">
        <ele>56</ele>
        <time>2022-07-24T10:16:48Z</time>
      </trkpt>
      <trkpt lat="47.18692" lon="-1.5962">
        <ele>56</ele>
        <time>2022-07-24T10:16:50Z</time>
      </trkpt>
      <trkpt lat="47.1869" lon="-1.59637">
        <ele>56</ele>
        <time>2022-07-24T10:16:52Z</time>
      </trkpt>
      <trkpt lat="47.18688" lon="-1.59655">
        <ele>56</ele>
        <time>2022-07-24T10:16:54Z</time>
      </trkpt>
      <trkpt lat="47.18686" lon="-1.59672">
        <ele>56</ele>
        <time>2022-07-24T10:16:56Z</time>
      </trkpt>
      <trkpt lat="47.18683" lon="-1.59689">
        <ele>55</ele>
        <time>2022-07-24T10:16:58Z</time>
      </trkpt>
      <trkpt lat="47.18682" lon="-1.59705">
        <ele>56</ele>
        <time>2022-07-24T10:17:00Z</time>
      </trkpt>
      <trkpt lat="47.18681" lon="-1.59722">
        <ele>56</ele>
        <time>2022-07-24T10:17:02Z</time>
      </trkpt>
      <trkpt lat="47.18681" lon="-1.59739">
        <ele>55</ele>
        <time>2022-07-24T10:17:04Z</time>
      </trkpt>
      <trkpt lat="47.1868" lon="-1.59758">
        <ele>55</ele>
        <time>2022-07-24T10:17:06Z</time>
      </trkpt>
      <trkpt lat="47.1868" lon="-1.59778">
        <ele>55</ele>
        <time>2022-07-24T10:17:08Z</time>
      </trkpt>
      <trkpt lat="47.18682" lon="-1.59797">
        <ele>54</ele>
        <time>2022-07-24T10:17:10Z</time>
      </trkpt>
      <trkpt lat="47.1868" lon="-1.59816">
        <ele>55</ele>
        <time>2022-07-24T10:17:12Z</time>
      </trkpt>
      <trkpt lat="47.18673" lon="-1.59831">
        <ele>55</ele>
        <time>2022-07-24T10:17:14Z</time>
      </trkpt>
      <trkpt lat="47.18663" lon="-1.59842">
        <ele>54</ele>
        <time>2022-07-24T10:17:16Z</time>
      </trkpt>
      <trkpt lat="47.18651" lon="-1.59846">
        <ele>54</ele>
        <time>2022-07-24T10:17:18Z</time>
      </trkpt>
      <trkpt lat="47.18638" lon="-1.59843">
        <ele>53</ele>
        <time>2022-07-24T10:17:20Z</time>
      </trkpt>
      <trkpt lat="47.18627" lon="-1.59834">
        <ele>53</ele>
        <time>2022-07-24T10:17:22Z</time>
      </trkpt>
      <trkpt lat="47.18618" lon="-1.59832">
        <ele>52</ele>
        <time>2022-07-24T10:17:24Z</time>
      </trkpt>
      <trkpt lat="47.18614" lon="-1.59846">
        <ele>52</ele>
        <time>2022-07-24T10:17:26Z</time>
      </trkpt>
      <trkpt lat="47.18619" lon="-1.59861">
        <ele>52</ele>
        <time>2022-07-24T10:17:28Z</time>
      </trkpt>
      <trkpt lat="47.18619" lon="-1.59875">
        <ele>53</ele>
        <time>2022-07-24T10:17:30Z</time>
      </trkpt>
      <trkpt lat="47.18615" lon="-1.5989">
        <ele>54</ele>
        <time>2022-07-24T10:17:32Z</time>
      </trkpt>
      <trkpt lat="47.18611" lon="-1.59905">
        <ele>54</ele>
        <time>2022-07-24T10:17:34Z</time>
      </trkpt>
      <trkpt lat="47.18607" lon="-1.5992">
        <ele>54</ele>
        <time>2022-07-24T10:17:36Z</time>
      </trkpt>
      <trkpt lat="47.18602" lon="-1.59935">
        <ele>54</ele>
        <time>2022-07-24T10:17:38Z</time>
      </trkpt>
      <trkpt lat="47.18598" lon="-1.59951">
        <ele>54</ele>
        <time>2022-07-24T10:17:40Z</time>
      </trkpt>
      <trkpt lat="47.18594" lon="-1.59967">
        <ele>54</ele>
        <time>2022-07-24T10:17:42Z</time>
      </trkpt>
      <trkpt lat="47.18589" lon="-1.59983">
        <ele>54</ele>
        <time>2022-07-24T10:17:44Z</time>
      </trkpt>
      <trkpt lat="47.18583" lon="-1.59998">
        <ele>53</ele>
        <time>2022-07-24T10:17:46Z</time>
      </trkpt>
      <trkpt lat="47.18578" lon="-1.60015">
        <ele>53</ele>
        <time>2022-07-24T10:17:48Z</time>
      </trkpt>
      <trkpt lat="47.18573" lon="-1.60031">
        <ele>53</ele>
        <time>2022-07-24T10:17:50Z</time>
      </trkpt>
      <trkpt lat="47.18567" lon="-1.60047">
        <ele>53</ele>
        <time>2022-07-24T10:17:52Z</time>
      </trkpt>
      <trkpt lat="47.18562" lon="-1.60062">
        <ele>54</ele>
        <time>2022-07-24T10:17:54Z</time>
      </trkpt>
      <trkpt lat="47.18556" lon="-1.60077">
        <ele>54</ele>
        <time>2022-07-24T10:17:56Z</time>
      </trkpt>
      <trkpt lat="47.1855" lon="-1.60093">
        <ele>54</ele>
        <time>2022-07-24T10:17:58Z</time>
      </trkpt>
      <trkpt lat="47.18543" lon="-1.60108">
        <ele>53</ele>
        <time>2022-07-24T10:18:00Z</time>
      </trkpt>
      <trkpt lat="47.18537" lon="-1.60123">
        <ele>53</ele>
        <time>2022-07-24T10:18:02Z</time>
      </trkpt>
      <trkpt lat="47.1853" lon="-1.60138">
        <ele>53</ele>
        <time>2022-07-24T10:18:04Z</time>
      </trkpt>
      <trkpt lat="47.18523" lon="-1.60153">
        <ele>53</ele>
        <time>2022-07-24T10:18:06Z</time>
      </trkpt>
      <trkpt lat="47.18516" lon="-1.60168">
        <ele>53</ele>
        <time>2022-07-24T10:18:08Z</time>
      </trkpt>
      <trkpt lat="47.1851" lon="-1.60182">
        <ele>53</ele>
        <time>2022-07-24T10:18:10Z</time>
      </trkpt>
      <trkpt lat="47.18503" lon="-1.60197">
        <ele>52</ele>
        <time>2022-07-24T10:18:12Z</time>
      </trkpt>
      <trkpt lat="47.18496" lon="-1.6021">
        <ele>52</ele>
        <time>2022-07-24T10:18:14Z</time>
      </trkpt>
      <trkpt lat="47.18489" lon="-1.60224">
        <ele>52</ele>
        <time>2022-07-24T10:18:16Z</time>
      </trkpt>
      <trkpt lat="47.18482" lon="-1.60238">
        <ele>52</ele>
        <time>2022-07-24T10:18:18Z</time>
      </trkpt>
      <trkpt lat="47.18474" lon="-1.60252">
        <ele>53</ele>
        <time>2022-07-24T10:18:20Z</time>
      </trkpt>
      <trkpt lat="47.18466" lon="-1.60265">
        <ele>53</ele>
        <time>2022-07-24T10:18:22Z</time>
      </trkpt>
      <trkpt lat="47.18459" lon="-1.60278">
        <ele>53</ele>
        <time>2022-07-24T10:18:24Z</time>
      </trkpt>
      <trkpt lat="47.18451" lon="-1.60292">
        <ele>53</ele>
        <time>2022-07-24T10:18:26Z</time>
      </trkpt>
      <trkpt lat="47.18443" lon="-1.60305">
        <ele>53</ele>
        <time>2022-07-24T10:18:28Z</time>
      </trkpt>
      <trkpt lat="47.18435" lon="-1.60319">
        <ele>53</ele>
        <time>2022-07-24T10:18:30Z</time>
      </trkpt>
      <trkpt lat="47.18428" lon="-1.60332">
        <ele>53</ele>
        <time>2022-07-24T10:18:32Z</time>
      </trkpt>
      <trkpt lat="47.18419" lon="-1.60344">
        <ele>53</ele>
        <time>2022-07-24T10:18:34Z</time>
      </trkpt>
      <trkpt lat="47.18411" lon="-1.60357">
        <ele>53</ele>
        <time>2022-07-24T10:18:36Z</time>
      </trkpt>
      <trkpt lat="47.18402" lon="-1.60369">
        <ele>53</ele>
        <time>2022-07-24T10:18:38Z</time>
      </trkpt>
      <trkpt lat="47.18394" lon="-1.6038">
        <ele>53</ele>
        <time>2022-07-24T10:18:40Z</time>
      </trkpt>
      <trkpt lat="47.18385" lon="-1.60392">
        <ele>53</ele>
        <time>2022-07-24T10:18:42Z</time>
      </trkpt>
      <trkpt lat="47.18377" lon="-1.60404">
        <ele>53</ele>
        <time>2022-07-24T10:18:44Z</time>
      </trkpt>
      <trkpt lat="47.18368" lon="-1.60415">
        <ele>53</ele>
        <time>2022-07-24T10:18:46Z</time>
      </trkpt>
      <trkpt lat="47.1836" lon="-1.60426">
        <ele>52</ele>
        <time>2022-07-24T10:18:48Z</time>
      </trkpt>
      <trkpt lat="47.18351" lon="-1.60436">
        <ele>52</ele>
        <time>2022-07-24T10:18:50Z</time>
      </trkpt>
      <trkpt lat="47.18342" lon="-1.60447">
        <ele>51</ele>
        <time>2022-07-24T10:18:52Z</time>
      </trkpt>
      <trkpt lat="47.18334" lon="-1.60458">
        <ele>51</ele>
        <time>2022-07-24T10:18:54Z</time>
      </trkpt>
      <trkpt lat="47.18325" lon="-1.60468">
        <ele>51</ele>
        <time>2022-07-24T10:18:56Z</time>
      </trkpt>
      <trkpt lat="47.18316" lon="-1.60478">
        <ele>51</ele>
        <time>2022-07-24T10:18:58Z</time>
      </trkpt>
      <trkpt lat="47.18307" lon="-1.60487">
        <ele>51</ele>
        <time>2022-07-24T10:19:00Z</time>
      </trkpt>
      <trkpt lat="47.18299" lon="-1.60497">
        <ele>51</ele>
        <time>2022-07-24T10:19:02Z</time>
      </trkpt>
      <trkpt lat="47.18291" lon="-1.60506">
        <ele>51</ele>
        <time>2022-07-24T10:19:04Z</time>
      </trkpt>
      <trkpt lat="47.18282" lon="-1.60515">
        <ele>52</ele>
        <time>2022-07-24T10:19:06Z</time>
      </trkpt>
      <trkpt lat="47.18273" lon="-1.60524">
        <ele>52</ele>
        <time>2022-07-24T10:19:08Z</time>
      </trkpt>
      <trkpt lat="47.18263" lon="-1.60533">
        <ele>52</ele>
        <time>2022-07-24T10:19:10Z</time>
      </trkpt>
      <trkpt lat="47.18254" lon="-1.6054">
        <ele>52</ele>
        <time>2022-07-24T10:19:12Z</time>
      </trkpt>
      <trkpt lat="47.18244" lon="-1.60548">
        <ele>52</ele>
        <time>2022-07-24T10:19:14Z</time>
      </trkpt>
      <trkpt lat="47.18234" lon="-1.60555">
        <ele>52</ele>
        <time>2022-07-24T10:19:16Z</time>
      </trkpt>
      <trkpt lat="47.18224" lon="-1.60562">
        <ele>53</ele>
        <time>2022-07-24T10:19:18Z</time>
      </trkpt>
      <trkpt lat="47.18214" lon="-1.60567">
        <ele>53</ele>
        <time>2022-07-24T10:19:20Z</time>
      </trkpt>
      <trkpt lat="47.18205" lon="-1.60572">
        <ele>53</ele>
        <time>2022-07-24T10:19:22Z</time>
      </trkpt>
      <trkpt lat="47.18196" lon="-1.60576">
        <ele>54</ele>
        <time>2022-07-24T10:19:24Z</time>
      </trkpt>
      <trkpt lat="47.18188" lon="-1.60585">
        <ele>56</ele>
        <time>2022-07-24T10:19:27Z</time>
      </trkpt>
      <trkpt lat="47.18183" lon="-1.606">
        <ele>56</ele>
        <time>2022-07-24T10:19:30Z</time>
      </trkpt>
      <trkpt lat="47.18171" lon="-1.60603">
        <ele>55</ele>
        <time>2022-07-24T10:19:32Z</time>
      </trkpt>
      <trkpt lat="47.18159" lon="-1.60604">
        <ele>55</ele>
        <time>2022-07-24T10:19:34Z</time>
      </trkpt>
      <trkpt lat="47.18147" lon="-1.60604">
        <ele>55</ele>
        <time>2022-07-24T10:19:36Z</time>
      </trkpt>
      <trkpt lat="47.18136" lon="-1.60602">
        <ele>55</ele>
        <time>2022-07-24T10:19:38Z</time>
      </trkpt>
      <trkpt lat="47.18125" lon="-1.606">
        <ele>54</ele>
        <time>2022-07-24T10:19:40Z</time>
      </trkpt>
      <trkpt lat="47.18114" lon="-1.60595">
        <ele>54</ele>
        <time>2022-07-24T10:19:42Z</time>
      </trkpt>
      <trkpt lat="47.18103" lon="-1.60592">
        <ele>54</ele>
        <time>2022-07-24T10:19:44Z</time>
      </trkpt>
      <trkpt lat="47.18092" lon="-1.60588">
        <ele>53</ele>
        <time>2022-07-24T10:19:46Z</time>
      </trkpt>
      <trkpt lat="47.18082" lon="-1.60582">
        <ele>53</ele>
        <time>2022-07-24T10:19:48Z</time>
      </trkpt>
      <trkpt lat="47.18072" lon="-1.60576">
        <ele>54</ele>
        <time>2022-07-24T10:19:50Z</time>
      </trkpt>
      <trkpt lat="47.18062" lon="-1.6057">
        <ele>54</ele>
        <time>2022-07-24T10:19:52Z</time>
      </trkpt>
      <trkpt lat="47.18052" lon="-1.60565">
        <ele>54</ele>
        <time>2022-07-24T10:19:54Z</time>
      </trkpt>
      <trkpt lat="47.18041" lon="-1.60559">
        <ele>54</ele>
        <time>2022-07-24T10:19:56Z</time>
      </trkpt>
      <trkpt lat="47.1803" lon="-1.60555">
        <ele>54</ele>
        <time>2022-07-24T10:19:58Z</time>
      </trkpt>
      <trkpt lat="47.18019" lon="-1.60554">
        <ele>54</ele>
        <time>2022-07-24T10:20:00Z</time>
      </trkpt>
      <trkpt lat="47.18008" lon="-1.60554">
        <ele>54</ele>
        <time>2022-07-24T10:20:02Z</time>
      </trkpt>
      <trkpt lat="47.17998" lon="-1.60557">
        <ele>54</ele>
        <time>2022-07-24T10:20:04Z</time>
      </trkpt>
      <trkpt lat="47.17988" lon="-1.60561">
        <ele>54</ele>
        <time>2022-07-24T10:20:06Z</time>
      </trkpt>
      <trkpt lat="47.17979" lon="-1.60565">
        <ele>54</ele>
        <time>2022-07-24T10:20:08Z</time>
      </trkpt>
      <trkpt lat="47.17969" lon="-1.60568">
        <ele>54</ele>
        <time>2022-07-24T10:20:10Z</time>
      </trkpt>
      <trkpt lat="47.17959" lon="-1.6057">
        <ele>54</ele>
        <time>2022-07-24T10:20:12Z</time>
      </trkpt>
      <trkpt lat="47.17948" lon="-1.60574">
        <ele>54</ele>
        <time>2022-07-24T10:20:14Z</time>
      </trkpt>
      <trkpt lat="47.17938" lon="-1.6058">
        <ele>55</ele>
        <time>2022-07-24T10:20:16Z</time>
      </trkpt>
      <trkpt lat="47.17927" lon="-1.60587">
        <ele>55</ele>
        <time>2022-07-24T10:20:19Z</time>
      </trkpt>
      <trkpt lat="47.17915" lon="-1.60588">
        <ele>55</ele>
        <time>2022-07-24T10:20:45Z</time>
      </trkpt>
      <trkpt lat="47.17905" lon="-1.60595">
        <ele>55</ele>
        <time>2022-07-24T10:20:48Z</time>
      </trkpt>
      <trkpt lat="47.17902" lon="-1.60609">
        <ele>55</ele>
        <time>2022-07-24T10:20:50Z</time>
      </trkpt>
      <trkpt lat="47.17898" lon="-1.60623">
        <ele>54</ele>
        <time>2022-07-24T10:20:52Z</time>
      </trkpt>
      <trkpt lat="47.17893" lon="-1.60638">
        <ele>53</ele>
        <time>2022-07-24T10:20:54Z</time>
      </trkpt>
      <trkpt lat="47.17887" lon="-1.60654">
        <ele>53</ele>
        <time>2022-07-24T10:20:56Z</time>
      </trkpt>
      <trkpt lat="47.17881" lon="-1.60671">
        <ele>52</ele>
        <time>2022-07-24T10:20:58Z</time>
      </trkpt>
      <trkpt lat="47.17876" lon="-1.60688">
        <ele>51</ele>
        <time>2022-07-24T10:21:00Z</time>
      </trkpt>
      <trkpt lat="47.17872" lon="-1.60705">
        <ele>51</ele>
        <time>2022-07-24T10:21:02Z</time>
      </trkpt>
      <trkpt lat="47.17868" lon="-1.60721">
        <ele>51</ele>
        <time>2022-07-24T10:21:04Z</time>
      </trkpt>
      <trkpt lat="47.17865" lon="-1.60737">
        <ele>51</ele>
        <time>2022-07-24T10:21:06Z</time>
      </trkpt>
      <trkpt lat="47.17861" lon="-1.60753">
        <ele>51</ele>
        <time>2022-07-24T10:21:08Z</time>
      </trkpt>
      <trkpt lat="47.17858" lon="-1.60768">
        <ele>51</ele>
        <time>2022-07-24T10:21:10Z</time>
      </trkpt>
      <trkpt lat="47.17855" lon="-1.60783">
        <ele>51</ele>
        <time>2022-07-24T10:21:12Z</time>
      </trkpt>
      <trkpt lat="47.17851" lon="-1.60798">
        <ele>51</ele>
        <time>2022-07-24T10:21:14Z</time>
      </trkpt>
      <trkpt lat="47.17847" lon="-1.60813">
        <ele>52</ele>
        <time>2022-07-24T10:21:16Z</time>
      </trkpt>
      <trkpt lat="47.17844" lon="-1.60828">
        <ele>52</ele>
        <time>2022-07-24T10:21:18Z</time>
      </trkpt>
      <trkpt lat="47.1784" lon="-1.60842">
        <ele>51</ele>
        <time>2022-07-24T10:21:20Z</time>
      </trkpt>
      <trkpt lat="47.17834" lon="-1.60856">
        <ele>51</ele>
        <time>2022-07-24T10:21:22Z</time>
      </trkpt>
      <trkpt lat="47.17827" lon="-1.60867">
        <ele>51</ele>
        <time>2022-07-24T10:21:24Z</time>
      </trkpt>
      <trkpt lat="47.17819" lon="-1.60879">
        <ele>51</ele>
        <time>2022-07-24T10:21:26Z</time>
      </trkpt>
      <trkpt lat="47.1781" lon="-1.60889">
        <ele>52</ele>
        <time>2022-07-24T10:21:28Z</time>
      </trkpt>
      <trkpt lat="47.17801" lon="-1.60898">
        <ele>52</ele>
        <time>2022-07-24T10:21:30Z</time>
      </trkpt>
      <trkpt lat="47.17791" lon="-1.60905">
        <ele>52</ele>
        <time>2022-07-24T10:21:32Z</time>
      </trkpt>
      <trkpt lat="47.1778" lon="-1.60912">
        <ele>52</ele>
        <time>2022-07-24T10:21:34Z</time>
      </trkpt>
      <trkpt lat="47.17771" lon="-1.6092">
        <ele>52</ele>
        <time>2022-07-24T10:21:36Z</time>
      </trkpt>
      <trkpt lat="47.17761" lon="-1.60928">
        <ele>53</ele>
        <time>2022-07-24T10:21:38Z</time>
      </trkpt>
      <trkpt lat="47.17752" lon="-1.60935">
        <ele>52</ele>
        <time>2022-07-24T10:21:40Z</time>
      </trkpt>
      <trkpt lat="47.17742" lon="-1.60943">
        <ele>52</ele>
        <time>2022-07-24T10:21:42Z</time>
      </trkpt>
      <trkpt lat="47.17732" lon="-1.6095">
        <ele>52</ele>
        <time>2022-07-24T10:21:44Z</time>
      </trkpt>
      <trkpt lat="47.17722" lon="-1.60957">
        <ele>52</ele>
        <time>2022-07-24T10:21:46Z</time>
      </trkpt>
      <trkpt lat="47.17712" lon="-1.60963">
        <ele>52</ele>
        <time>2022-07-24T10:21:48Z</time>
      </trkpt>
      <trkpt lat="47.17702" lon="-1.60969">
        <ele>53</ele>
        <time>2022-07-24T10:21:50Z</time>
      </trkpt>
      <trkpt lat="47.17685" lon="-1.60973">
        <ele>53</ele>
        <time>2022-07-24T10:21:53Z</time>
      </trkpt>
      <trkpt lat="47.17666" lon="-1.60972">
        <ele>52</ele>
        <time>2022-07-24T10:21:56Z</time>
      </trkpt>
      <trkpt lat="47.17649" lon="-1.60981">
        <ele>52</ele>
        <time>2022-07-24T10:21:59Z</time>
      </trkpt>
      <trkpt lat="47.17639" lon="-1.60989">
        <ele>52</ele>
        <time>2022-07-24T10:22:01Z</time>
      </trkpt>
      <trkpt lat="47.17629" lon="-1.60998">
        <ele>52</ele>
        <time>2022-07-24T10:22:03Z</time>
      </trkpt>
      <trkpt lat="47.1762" lon="-1.61007">
        <ele>52</ele>
        <time>2022-07-24T10:22:05Z</time>
      </trkpt>
      <trkpt lat="47.1761" lon="-1.61016">
        <ele>52</ele>
        <time>2022-07-24T10:22:07Z</time>
      </trkpt>
      <trkpt lat="47.17601" lon="-1.61024">
        <ele>52</ele>
        <time>2022-07-24T10:22:09Z</time>
      </trkpt>
      <trkpt lat="47.17592" lon="-1.61032">
        <ele>52</ele>
        <time>2022-07-24T10:22:11Z</time>
      </trkpt>
      <trkpt lat="47.17582" lon="-1.61041">
        <ele>52</ele>
        <time>2022-07-24T10:22:13Z</time>
      </trkpt>
      <trkpt lat="47.17572" lon="-1.61049">
        <ele>52</ele>
        <time>2022-07-24T10:22:15Z</time>
      </trkpt>
      <trkpt lat="47.17562" lon="-1.61058">
        <ele>53</ele>
        <time>2022-07-24T10:22:17Z</time>
      </trkpt>
      <trkpt lat="47.17551" lon="-1.61067">
        <ele>53</ele>
        <time>2022-07-24T10:22:19Z</time>
      </trkpt>
      <trkpt lat="47.1754" lon="-1.61076">
        <ele>52</ele>
        <time>2022-07-24T10:22:21Z</time>
      </trkpt>
      <trkpt lat="47.17529" lon="-1.61084">
        <ele>52</ele>
        <time>2022-07-24T10:22:23Z</time>
      </trkpt>
      <trkpt lat="47.1752" lon="-1.61092">
        <ele>52</ele>
        <time>2022-07-24T10:22:25Z</time>
      </trkpt>
      <trkpt lat="47.1751" lon="-1.61099">
        <ele>53</ele>
        <time>2022-07-24T10:22:27Z</time>
      </trkpt>
      <trkpt lat="47.17499" lon="-1.61103">
        <ele>53</ele>
        <time>2022-07-24T10:22:29Z</time>
      </trkpt>
      <trkpt lat="47.17489" lon="-1.61104">
        <ele>52</ele>
        <time>2022-07-24T10:22:31Z</time>
      </trkpt>
      <trkpt lat="47.17478" lon="-1.61103">
        <ele>53</ele>
        <time>2022-07-24T10:22:33Z</time>
      </trkpt>
      <trkpt lat="47.17468" lon="-1.61097">
        <ele>53</ele>
        <time>2022-07-24T10:22:35Z</time>
      </trkpt>
      <trkpt lat="47.17459" lon="-1.6109">
        <ele>54</ele>
        <time>2022-07-24T10:22:37Z</time>
      </trkpt>
      <trkpt lat="47.17451" lon="-1.61082">
        <ele>54</ele>
        <time>2022-07-24T10:22:39Z</time>
      </trkpt>
      <trkpt lat="47.17445" lon="-1.61071">
        <ele>54</ele>
        <time>2022-07-24T10:22:41Z</time>
      </trkpt>
      <trkpt lat="47.17439" lon="-1.6106">
        <ele>54</ele>
        <time>2022-07-24T10:22:43Z</time>
      </trkpt>
      <trkpt lat="47.17434" lon="-1.61048">
        <ele>54</ele>
        <time>2022-07-24T10:22:45Z</time>
      </trkpt>
      <trkpt lat="47.1743" lon="-1.61036">
        <ele>54</ele>
        <time>2022-07-24T10:22:47Z</time>
      </trkpt>
      <trkpt lat="47.17426" lon="-1.61021">
        <ele>55</ele>
        <time>2022-07-24T10:22:50Z</time>
      </trkpt>
      <trkpt lat="47.1742" lon="-1.61032">
        <ele>58</ele>
        <time>2022-07-24T10:22:55Z</time>
      </trkpt>
      <trkpt lat="47.17425" lon="-1.6105">
        <ele>57</ele>
        <time>2022-07-24T10:22:58Z</time>
      </trkpt>
      <trkpt lat="47.17431" lon="-1.61066">
        <ele>58</ele>
        <time>2022-07-24T10:23:01Z</time>
      </trkpt>
      <trkpt lat="47.17436" lon="-1.61078">
        <ele>58</ele>
        <time>2022-07-24T10:23:03Z</time>
      </trkpt>
      <trkpt lat="47.17441" lon="-1.61091">
        <ele>58</ele>
        <time>2022-07-24T10:23:05Z</time>
      </trkpt>
      <trkpt lat="47.17445" lon="-1.61103">
        <ele>58</ele>
        <time>2022-07-24T10:23:07Z</time>
      </trkpt>
      <trkpt lat="47.1745" lon="-1.61115">
        <ele>59</ele>
        <time>2022-07-24T10:23:09Z</time>
      </trkpt>
      <trkpt lat="47.17455" lon="-1.61127">
        <ele>59</ele>
        <time>2022-07-24T10:23:11Z</time>
      </trkpt>
      <trkpt lat="47.1746" lon="-1.61139">
        <ele>60</ele>
        <time>2022-07-24T10:23:13Z</time>
      </trkpt>
      <trkpt lat="47.17465" lon="-1.61151">
        <ele>60</ele>
        <time>2022-07-24T10:23:15Z</time>
      </trkpt>
      <trkpt lat="47.1747" lon="-1.61164">
        <ele>60</ele>
        <time>2022-07-24T10:23:17Z</time>
      </trkpt>
      <trkpt lat="47.17475" lon="-1.61176">
        <ele>60</ele>
        <time>2022-07-24T10:23:19Z</time>
      </trkpt>
      <trkpt lat="47.1748" lon="-1.61188">
        <ele>60</ele>
        <time>2022-07-24T10:23:21Z</time>
      </trkpt>
      <trkpt lat="47.17485" lon="-1.612">
        <ele>60</ele>
        <time>2022-07-24T10:23:23Z</time>
      </trkpt>
      <trkpt lat="47.1749" lon="-1.61212">
        <ele>60</ele>
        <time>2022-07-24T10:23:25Z</time>
      </trkpt>
      <trkpt lat="47.17495" lon="-1.61224">
        <ele>60</ele>
        <time>2022-07-24T10:23:27Z</time>
      </trkpt>
      <trkpt lat="47.17501" lon="-1.61236">
        <ele>60</ele>
        <time>2022-07-24T10:23:29Z</time>
      </trkpt>
      <trkpt lat="47.17506" lon="-1.61248">
        <ele>59</ele>
        <time>2022-07-24T10:23:31Z</time>
      </trkpt>
      <trkpt lat="47.17512" lon="-1.61259">
        <ele>60</ele>
        <time>2022-07-24T10:23:33Z</time>
      </trkpt>
      <trkpt lat="47.17519" lon="-1.6127">
        <ele>60</ele>
        <time>2022-07-24T10:23:35Z</time>
      </trkpt>
      <trkpt lat="47.17527" lon="-1.61279">
        <ele>60</ele>
        <time>2022-07-24T10:23:37Z</time>
      </trkpt>
      <trkpt lat="47.17535" lon="-1.61287">
        <ele>60</ele>
        <time>2022-07-24T10:23:39Z</time>
      </trkpt>
      <trkpt lat="47.17544" lon="-1.61294">
        <ele>60</ele>
        <time>2022-07-24T10:23:41Z</time>
      </trkpt>
      <trkpt lat="47.17554" lon="-1.61299">
        <ele>60</ele>
        <time>2022-07-24T10:23:43Z</time>
      </trkpt>
      <trkpt lat="47.1756" lon="-1.61313">
        <ele>59</ele>
        <time>2022-07-24T10:23:45Z</time>
      </trkpt>
      <trkpt lat="47.1756" lon="-1.6133">
        <ele>59</ele>
        <time>2022-07-24T10:23:47Z</time>
      </trkpt>
      <trkpt lat="47.17556" lon="-1.61345">
        <ele>59</ele>
        <time>2022-07-24T10:23:49Z</time>
      </trkpt>
      <trkpt lat="47.17548" lon="-1.61355">
        <ele>59</ele>
        <time>2022-07-24T10:23:51Z</time>
      </trkpt>
      <trkpt lat="47.17538" lon="-1.61363">
        <ele>59</ele>
        <time>2022-07-24T10:23:53Z</time>
      </trkpt>
      <trkpt lat="47.17531" lon="-1.61376">
        <ele>59</ele>
        <time>2022-07-24T10:23:55Z</time>
      </trkpt>
      <trkpt lat="47.17526" lon="-1.61389">
        <ele>59</ele>
        <time>2022-07-24T10:23:57Z</time>
      </trkpt>
      <trkpt lat="47.17522" lon="-1.61402">
        <ele>59</ele>
        <time>2022-07-24T10:23:59Z</time>
      </trkpt>
      <trkpt lat="47.17519" lon="-1.61421">
        <ele>59</ele>
        <time>2022-07-24T10:24:02Z</time>
      </trkpt>
      <trkpt lat="47.17516" lon="-1.61438">
        <ele>59</ele>
        <time>2022-07-24T10:24:05Z</time>
      </trkpt>
      <trkpt lat="47.17513" lon="-1.61451">
        <ele>60</ele>
        <time>2022-07-24T10:24:07Z</time>
      </trkpt>
      <trkpt lat="47.17507" lon="-1.61461">
        <ele>61</ele>
        <time>2022-07-24T10:24:09Z</time>
      </trkpt>
      <trkpt lat="47.17499" lon="-1.61465">
        <ele>61</ele>
        <time>2022-07-24T10:24:11Z</time>
      </trkpt>
      <trkpt lat="47.17486" lon="-1.61469">
        <ele>62</ele>
        <time>2022-07-24T10:24:14Z</time>
      </trkpt>
      <trkpt lat="47.17473" lon="-1.61474">
        <ele>63</ele>
        <time>2022-07-24T10:24:17Z</time>
      </trkpt>
      <trkpt lat="47.17461" lon="-1.61479">
        <ele>64</ele>
        <time>2022-07-24T10:24:20Z</time>
      </trkpt>
      <trkpt lat="47.17449" lon="-1.61485">
        <ele>65</ele>
        <time>2022-07-24T10:24:23Z</time>
      </trkpt>
      <trkpt lat="47.17438" lon="-1.61491">
        <ele>66</ele>
        <time>2022-07-24T10:24:26Z</time>
      </trkpt>
      <trkpt lat="47.17426" lon="-1.61499">
        <ele>66</ele>
        <time>2022-07-24T10:24:29Z</time>
      </trkpt>
      <trkpt lat="47.17415" lon="-1.61508">
        <ele>66</ele>
        <time>2022-07-24T10:24:32Z</time>
      </trkpt>
      <trkpt lat="47.17404" lon="-1.61516">
        <ele>67</ele>
        <time>2022-07-24T10:24:35Z</time>
      </trkpt>
      <trkpt lat="47.17392" lon="-1.61525">
        <ele>66</ele>
        <time>2022-07-24T10:24:38Z</time>
      </trkpt>
      <trkpt lat="47.17382" lon="-1.61535">
        <ele>67</ele>
        <time>2022-07-24T10:24:41Z</time>
      </trkpt>
      <trkpt lat="47.17371" lon="-1.61545">
        <ele>68</ele>
        <time>2022-07-24T10:24:44Z</time>
      </trkpt>
      <trkpt lat="47.17361" lon="-1.61556">
        <ele>68</ele>
        <time>2022-07-24T10:24:47Z</time>
      </trkpt>
      <trkpt lat="47.17352" lon="-1.61567">
        <ele>69</ele>
        <time>2022-07-24T10:24:50Z</time>
      </trkpt>
      <trkpt lat="47.17343" lon="-1.61578">
        <ele>71</ele>
        <time>2022-07-24T10:24:53Z</time>
      </trkpt>
      <trkpt lat="47.17333" lon="-1.61591">
        <ele>71</ele>
        <time>2022-07-24T10:24:56Z</time>
      </trkpt>
      <trkpt lat="47.17325" lon="-1.616">
        <ele>70</ele>
        <time>2022-07-24T10:24:58Z</time>
      </trkpt>
      <trkpt lat="47.17318" lon="-1.61609">
        <ele>70</ele>
        <time>2022-07-24T10:25:00Z</time>
      </trkpt>
      <trkpt lat="47.17311" lon="-1.61619">
        <ele>70</ele>
        <time>2022-07-24T10:25:02Z</time>
      </trkpt>
      <trkpt lat="47.17304" lon="-1.6163">
        <ele>70</ele>
        <time>2022-07-24T10:25:04Z</time>
      </trkpt>
      <trkpt lat="47.17298" lon="-1.6164">
        <ele>70</ele>
        <time>2022-07-24T10:25:06Z</time>
      </trkpt>
      <trkpt lat="47.17292" lon="-1.6165">
        <ele>70</ele>
        <time>2022-07-24T10:25:08Z</time>
      </trkpt>
      <trkpt lat="47.17283" lon="-1.61666">
        <ele>71</ele>
        <time>2022-07-24T10:25:11Z</time>
      </trkpt>
      <trkpt lat="47.17278" lon="-1.61677">
        <ele>71</ele>
        <time>2022-07-24T10:25:13Z</time>
      </trkpt>
      <trkpt lat="47.17272" lon="-1.61689">
        <ele>70</ele>
        <time>2022-07-24T10:25:15Z</time>
      </trkpt>
      <trkpt lat="47.17266" lon="-1.61701">
        <ele>70</ele>
        <time>2022-07-24T10:25:17Z</time>
      </trkpt>
      <trkpt lat="47.1726" lon="-1.61712">
        <ele>70</ele>
        <time>2022-07-24T10:25:19Z</time>
      </trkpt>
      <trkpt lat="47.17254" lon="-1.61723">
        <ele>70</ele>
        <time>2022-07-24T10:25:21Z</time>
      </trkpt>
      <trkpt lat="47.17249" lon="-1.61736">
        <ele>70</ele>
        <time>2022-07-24T10:25:23Z</time>
      </trkpt>
      <trkpt lat="47.17246" lon="-1.6175">
        <ele>70</ele>
        <time>2022-07-24T10:25:25Z</time>
      </trkpt>
      <trkpt lat="47.17244" lon="-1.61764">
        <ele>69</ele>
        <time>2022-07-24T10:25:27Z</time>
      </trkpt>
      <trkpt lat="47.1724" lon="-1.61777">
        <ele>68</ele>
        <time>2022-07-24T10:25:29Z</time>
      </trkpt>
      <trkpt lat="47.17231" lon="-1.61786">
        <ele>67</ele>
        <time>2022-07-24T10:25:31Z</time>
      </trkpt>
      <trkpt lat="47.17222" lon="-1.61794">
        <ele>67</ele>
        <time>2022-07-24T10:25:33Z</time>
      </trkpt>
      <trkpt lat="47.17214" lon="-1.61801">
        <ele>67</ele>
        <time>2022-07-24T10:25:35Z</time>
      </trkpt>
      <trkpt lat="47.17205" lon="-1.61808">
        <ele>67</ele>
        <time>2022-07-24T10:25:37Z</time>
      </trkpt>
      <trkpt lat="47.17196" lon="-1.61815">
        <ele>67</ele>
        <time>2022-07-24T10:25:39Z</time>
      </trkpt>
      <trkpt lat="47.17188" lon="-1.61823">
        <ele>66</ele>
        <time>2022-07-24T10:25:41Z</time>
      </trkpt>
      <trkpt lat="47.1718" lon="-1.6183">
        <ele>66</ele>
        <time>2022-07-24T10:25:43Z</time>
      </trkpt>
      <trkpt lat="47.17172" lon="-1.61838">
        <ele>67</ele>
        <time>2022-07-24T10:25:45Z</time>
      </trkpt>
      <trkpt lat="47.17164" lon="-1.61847">
        <ele>67</ele>
        <time>2022-07-24T10:25:47Z</time>
      </trkpt>
      <trkpt lat="47.17156" lon="-1.61855">
        <ele>67</ele>
        <time>2022-07-24T10:25:49Z</time>
      </trkpt>
      <trkpt lat="47.17147" lon="-1.61863">
        <ele>67</ele>
        <time>2022-07-24T10:25:51Z</time>
      </trkpt>
      <trkpt lat="47.17139" lon="-1.61871">
        <ele>67</ele>
        <time>2022-07-24T10:25:53Z</time>
      </trkpt>
      <trkpt lat="47.17131" lon="-1.61879">
        <ele>67</ele>
        <time>2022-07-24T10:25:55Z</time>
      </trkpt>
      <trkpt lat="47.17122" lon="-1.61887">
        <ele>67</ele>
        <time>2022-07-24T10:25:57Z</time>
      </trkpt>
      <trkpt lat="47.17114" lon="-1.61895">
        <ele>67</ele>
        <time>2022-07-24T10:25:59Z</time>
      </trkpt>
      <trkpt lat="47.17106" lon="-1.61904">
        <ele>67</ele>
        <time>2022-07-24T10:26:01Z</time>
      </trkpt>
      <trkpt lat="47.17097" lon="-1.61912">
        <ele>67</ele>
        <time>2022-07-24T10:26:03Z</time>
      </trkpt>
      <trkpt lat="47.17089" lon="-1.61919">
        <ele>67</ele>
        <time>2022-07-24T10:26:05Z</time>
      </trkpt>
      <trkpt lat="47.17081" lon="-1.61928">
        <ele>67</ele>
        <time>2022-07-24T10:26:07Z</time>
      </trkpt>
      <trkpt lat="47.17073" lon="-1.61936">
        <ele>67</ele>
        <time>2022-07-24T10:26:09Z</time>
      </trkpt>
      <trkpt lat="47.17065" lon="-1.61945">
        <ele>67</ele>
        <time>2022-07-24T10:26:11Z</time>
      </trkpt>
      <trkpt lat="47.17057" lon="-1.61954">
        <ele>67</ele>
        <time>2022-07-24T10:26:13Z</time>
      </trkpt>
      <trkpt lat="47.17049" lon="-1.61964">
        <ele>67</ele>
        <time>2022-07-24T10:26:15Z</time>
      </trkpt>
      <trkpt lat="47.17043" lon="-1.61974">
        <ele>68</ele>
        <time>2022-07-24T10:26:17Z</time>
      </trkpt>
      <trkpt lat="47.17036" lon="-1.61985">
        <ele>68</ele>
        <time>2022-07-24T10:26:19Z</time>
      </trkpt>
      <trkpt lat="47.17028" lon="-1.61995">
        <ele>68</ele>
        <time>2022-07-24T10:26:21Z</time>
      </trkpt>
      <trkpt lat="47.17021" lon="-1.62006">
        <ele>68</ele>
        <time>2022-07-24T10:26:23Z</time>
      </trkpt>
      <trkpt lat="47.17014" lon="-1.62017">
        <ele>67</ele>
        <time>2022-07-24T10:26:25Z</time>
      </trkpt>
      <trkpt lat="47.17007" lon="-1.62028">
        <ele>67</ele>
        <time>2022-07-24T10:26:27Z</time>
      </trkpt>
      <trkpt lat="47.17" lon="-1.62039">
        <ele>67</ele>
        <time>2022-07-24T10:26:29Z</time>
      </trkpt>
      <trkpt lat="47.16993" lon="-1.62051">
        <ele>67</ele>
        <time>2022-07-24T10:26:31Z</time>
      </trkpt>
      <trkpt lat="47.16986" lon="-1.62063">
        <ele>67</ele>
        <time>2022-07-24T10:26:33Z</time>
      </trkpt>
      <trkpt lat="47.1698" lon="-1.62075">
        <ele>67</ele>
        <time>2022-07-24T10:26:35Z</time>
      </trkpt>
      <trkpt lat="47.16973" lon="-1.62086">
        <ele>67</ele>
        <time>2022-07-24T10:26:37Z</time>
      </trkpt>
      <trkpt lat="47.16967" lon="-1.62098">
        <ele>67</ele>
        <time>2022-07-24T10:26:39Z</time>
      </trkpt>
      <trkpt lat="47.16961" lon="-1.6211">
        <ele>67</ele>
        <time>2022-07-24T10:26:41Z</time>
      </trkpt>
      <trkpt lat="47.16954" lon="-1.62122">
        <ele>67</ele>
        <time>2022-07-24T10:26:43Z</time>
      </trkpt>
      <trkpt lat="47.16948" lon="-1.62134">
        <ele>67</ele>
        <time>2022-07-24T10:26:45Z</time>
      </trkpt>
      <trkpt lat="47.16941" lon="-1.62147">
        <ele>67</ele>
        <time>2022-07-24T10:26:47Z</time>
      </trkpt>
      <trkpt lat="47.16934" lon="-1.6216">
        <ele>67</ele>
        <time>2022-07-24T10:26:49Z</time>
      </trkpt>
      <trkpt lat="47.16928" lon="-1.62174">
        <ele>67</ele>
        <time>2022-07-24T10:26:51Z</time>
      </trkpt>
      <trkpt lat="47.16921" lon="-1.62188">
        <ele>67</ele>
        <time>2022-07-24T10:26:53Z</time>
      </trkpt>
      <trkpt lat="47.16914" lon="-1.62201">
        <ele>67</ele>
        <time>2022-07-24T10:26:55Z</time>
      </trkpt>
      <trkpt lat="47.16906" lon="-1.62213">
        <ele>67</ele>
        <time>2022-07-24T10:26:57Z</time>
      </trkpt>
      <trkpt lat="47.16897" lon="-1.62225">
        <ele>67</ele>
        <time>2022-07-24T10:26:59Z</time>
      </trkpt>
      <trkpt lat="47.16888" lon="-1.62236">
        <ele>67</ele>
        <time>2022-07-24T10:27:01Z</time>
      </trkpt>
      <trkpt lat="47.16879" lon="-1.62247">
        <ele>67</ele>
        <time>2022-07-24T10:27:03Z</time>
      </trkpt>
      <trkpt lat="47.1687" lon="-1.62258">
        <ele>67</ele>
        <time>2022-07-24T10:27:05Z</time>
      </trkpt>
      <trkpt lat="47.16861" lon="-1.62269">
        <ele>67</ele>
        <time>2022-07-24T10:27:07Z</time>
      </trkpt>
      <trkpt lat="47.16852" lon="-1.62279">
        <ele>67</ele>
        <time>2022-07-24T10:27:09Z</time>
      </trkpt>
      <trkpt lat="47.16844" lon="-1.62289">
        <ele>67</ele>
        <time>2022-07-24T10:27:11Z</time>
      </trkpt>
      <trkpt lat="47.16836" lon="-1.623">
        <ele>67</ele>
        <time>2022-07-24T10:27:13Z</time>
      </trkpt>
      <trkpt lat="47.16827" lon="-1.62309">
        <ele>67</ele>
        <time>2022-07-24T10:27:15Z</time>
      </trkpt>
      <trkpt lat="47.16818" lon="-1.62317">
        <ele>67</ele>
        <time>2022-07-24T10:27:17Z</time>
      </trkpt>
      <trkpt lat="47.16808" lon="-1.62323">
        <ele>68</ele>
        <time>2022-07-24T10:27:19Z</time>
      </trkpt>
      <trkpt lat="47.16798" lon="-1.6233">
        <ele>68</ele>
        <time>2022-07-24T10:27:21Z</time>
      </trkpt>
      <trkpt lat="47.16787" lon="-1.62336">
        <ele>67</ele>
        <time>2022-07-24T10:27:23Z</time>
      </trkpt>
      <trkpt lat="47.16776" lon="-1.62342">
        <ele>67</ele>
        <time>2022-07-24T10:27:25Z</time>
      </trkpt>
      <trkpt lat="47.16764" lon="-1.6235">
        <ele>67</ele>
        <time>2022-07-24T10:27:27Z</time>
      </trkpt>
      <trkpt lat="47.16753" lon="-1.62359">
        <ele>67</ele>
        <time>2022-07-24T10:27:29Z</time>
      </trkpt>
      <trkpt lat="47.16743" lon="-1.6237">
        <ele>66</ele>
        <time>2022-07-24T10:27:31Z</time>
      </trkpt>
      <trkpt lat="47.16735" lon="-1.62385">
        <ele>66</ele>
        <time>2022-07-24T10:27:33Z</time>
      </trkpt>
      <trkpt lat="47.16731" lon="-1.62401">
        <ele>66</ele>
        <time>2022-07-24T10:27:35Z</time>
      </trkpt>
      <trkpt lat="47.16728" lon="-1.62418">
        <ele>66</ele>
        <time>2022-07-24T10:27:37Z</time>
      </trkpt>
      <trkpt lat="47.16726" lon="-1.62435">
        <ele>66</ele>
        <time>2022-07-24T10:27:39Z</time>
      </trkpt>
      <trkpt lat="47.16722" lon="-1.62452">
        <ele>66</ele>
        <time>2022-07-24T10:27:41Z</time>
      </trkpt>
      <trkpt lat="47.16718" lon="-1.62468">
        <ele>66</ele>
        <time>2022-07-24T10:27:43Z</time>
      </trkpt>
      <trkpt lat="47.16715" lon="-1.62484">
        <ele>65</ele>
        <time>2022-07-24T10:27:45Z</time>
      </trkpt>
      <trkpt lat="47.16719" lon="-1.62496">
        <ele>65</ele>
        <time>2022-07-24T10:27:47Z</time>
      </trkpt>
      <trkpt lat="47.1673" lon="-1.625">
        <ele>65</ele>
        <time>2022-07-24T10:27:49Z</time>
      </trkpt>
      <trkpt lat="47.16741" lon="-1.62504">
        <ele>66</ele>
        <time>2022-07-24T10:27:51Z</time>
      </trkpt>
      <trkpt lat="47.16751" lon="-1.6251">
        <ele>66</ele>
        <time>2022-07-24T10:27:53Z</time>
      </trkpt>
      <trkpt lat="47.16761" lon="-1.62516">
        <ele>66</ele>
        <time>2022-07-24T10:27:55Z</time>
      </trkpt>
      <trkpt lat="47.16772" lon="-1.62522">
        <ele>66</ele>
        <time>2022-07-24T10:27:57Z</time>
      </trkpt>
      <trkpt lat="47.16782" lon="-1.62529">
        <ele>67</ele>
        <time>2022-07-24T10:27:59Z</time>
      </trkpt>
      <trkpt lat="47.16792" lon="-1.62535">
        <ele>68</ele>
        <time>2022-07-24T10:28:01Z</time>
      </trkpt>
      <trkpt lat="47.16801" lon="-1.62541">
        <ele>68</ele>
        <time>2022-07-24T10:28:03Z</time>
      </trkpt>
      <trkpt lat="47.1681" lon="-1.62549">
        <ele>68</ele>
        <time>2022-07-24T10:28:05Z</time>
      </trkpt>
      <trkpt lat="47.16819" lon="-1.62558">
        <ele>67</ele>
        <time>2022-07-24T10:28:07Z</time>
      </trkpt>
      <trkpt lat="47.16827" lon="-1.62567">
        <ele>68</ele>
        <time>2022-07-24T10:28:09Z</time>
      </trkpt>
      <trkpt lat="47.16831" lon="-1.62581">
        <ele>68</ele>
        <time>2022-07-24T10:28:11Z</time>
      </trkpt>
      <trkpt lat="47.16826" lon="-1.62594">
        <ele>67</ele>
        <time>2022-07-24T10:28:13Z</time>
      </trkpt>
      <trkpt lat="47.1682" lon="-1.62606">
        <ele>67</ele>
        <time>2022-07-24T10:28:15Z</time>
      </trkpt>
      <trkpt lat="47.16813" lon="-1.62616">
        <ele>67</ele>
        <time>2022-07-24T10:28:17Z</time>
      </trkpt>
      <trkpt lat="47.16805" lon="-1.62627">
        <ele>67</ele>
        <time>2022-07-24T10:28:19Z</time>
      </trkpt>
      <trkpt lat="47.16798" lon="-1.62637">
        <ele>68</ele>
        <time>2022-07-24T10:28:21Z</time>
      </trkpt>
      <trkpt lat="47.16791" lon="-1.62651">
        <ele>69</ele>
        <time>2022-07-24T10:28:24Z</time>
      </trkpt>
      <trkpt lat="47.16785" lon="-1.62662">
        <ele>69</ele>
        <time>2022-07-24T10:28:27Z</time>
      </trkpt>
      <trkpt lat="47.16777" lon="-1.62655">
        <ele>69</ele>
        <time>2022-07-24T10:28:32Z</time>
      </trkpt>
    </trkseg>
  </trk>
</gpx>